<?xml version="1.0" encoding="UTF-8" standalone="no" ?>
<gpx xmlns="http://www.topografix.com/GPX/1/1" xmlns:xsi="http://www.w3.org/2001/XMLSchema-instance" xsi:schemaLocation="http://www.topografix.com/GPX/1/1 http://www.topografix.com/GPX/1/1/gpx.xsd" version="1.1" creator="VisuGPX - https://www.visugpx.com">
  <metadata>
    <name>Quercy J3</name>
    <desc><![CDATA[Naussac - Aujols]]></desc>
  </metadata>
  <trk>
    <name><![CDATA[Naussac-Aujols]]></name>
    <trkseg>
      <trkpt lat="44.52421" lon="2.1027">
        <ele>261.1</ele>
        <time>2015-10-31T08:29:32Z</time>
      </trkpt>
      <trkpt lat="44.52418" lon="2.10277">
        <ele>260.4</ele>
        <time>2015-10-31T08:29:35Z</time>
      </trkpt>
      <trkpt lat="44.52414" lon="2.1028">
        <ele>260.8</ele>
        <time>2015-10-31T08:29:36Z</time>
      </trkpt>
      <trkpt lat="44.52412" lon="2.10283">
        <ele>261</ele>
        <time>2015-10-31T08:29:37Z</time>
      </trkpt>
      <trkpt lat="44.52411" lon="2.10286">
        <ele>260.6</ele>
        <time>2015-10-31T08:29:38Z</time>
      </trkpt>
      <trkpt lat="44.52409" lon="2.10293">
        <ele>259.6</ele>
        <time>2015-10-31T08:29:40Z</time>
      </trkpt>
      <trkpt lat="44.52408" lon="2.10297">
        <ele>259.6</ele>
        <time>2015-10-31T08:29:41Z</time>
      </trkpt>
      <trkpt lat="44.52408" lon="2.10304">
        <ele>258.6</ele>
        <time>2015-10-31T08:29:43Z</time>
      </trkpt>
      <trkpt lat="44.5241" lon="2.10312">
        <ele>257.2</ele>
        <time>2015-10-31T08:29:45Z</time>
      </trkpt>
      <trkpt lat="44.5241" lon="2.10315">
        <ele>256.7</ele>
        <time>2015-10-31T08:29:46Z</time>
      </trkpt>
      <trkpt lat="44.5241" lon="2.10323">
        <ele>255.9</ele>
        <time>2015-10-31T08:29:48Z</time>
      </trkpt>
      <trkpt lat="44.5241" lon="2.1033">
        <ele>255.1</ele>
        <time>2015-10-31T08:29:50Z</time>
      </trkpt>
      <trkpt lat="44.52411" lon="2.10334">
        <ele>254.5</ele>
        <time>2015-10-31T08:29:51Z</time>
      </trkpt>
      <trkpt lat="44.52412" lon="2.10338">
        <ele>253.7</ele>
        <time>2015-10-31T08:29:52Z</time>
      </trkpt>
      <trkpt lat="44.52413" lon="2.10342">
        <ele>252.9</ele>
        <time>2015-10-31T08:29:53Z</time>
      </trkpt>
      <trkpt lat="44.52414" lon="2.10346">
        <ele>252.1</ele>
        <time>2015-10-31T08:29:54Z</time>
      </trkpt>
      <trkpt lat="44.52414" lon="2.1035">
        <ele>251.5</ele>
        <time>2015-10-31T08:29:55Z</time>
      </trkpt>
      <trkpt lat="44.52415" lon="2.10353">
        <ele>251</ele>
        <time>2015-10-31T08:29:56Z</time>
      </trkpt>
      <trkpt lat="44.52416" lon="2.10361">
        <ele>249.9</ele>
        <time>2015-10-31T08:29:58Z</time>
      </trkpt>
      <trkpt lat="44.52416" lon="2.10368">
        <ele>249.1</ele>
        <time>2015-10-31T08:30:00Z</time>
      </trkpt>
      <trkpt lat="44.52415" lon="2.10375">
        <ele>248.5</ele>
        <time>2015-10-31T08:30:02Z</time>
      </trkpt>
      <trkpt lat="44.52415" lon="2.10382">
        <ele>248.3</ele>
        <time>2015-10-31T08:30:04Z</time>
      </trkpt>
      <trkpt lat="44.52414" lon="2.10386">
        <ele>248.2</ele>
        <time>2015-10-31T08:30:05Z</time>
      </trkpt>
      <trkpt lat="44.52413" lon="2.1039">
        <ele>248.3</ele>
        <time>2015-10-31T08:30:06Z</time>
      </trkpt>
      <trkpt lat="44.52412" lon="2.10394">
        <ele>248.4</ele>
        <time>2015-10-31T08:30:07Z</time>
      </trkpt>
      <trkpt lat="44.52409" lon="2.10399">
        <ele>248.9</ele>
        <time>2015-10-31T08:30:09Z</time>
      </trkpt>
      <trkpt lat="44.52407" lon="2.10405">
        <ele>249.3</ele>
        <time>2015-10-31T08:30:11Z</time>
      </trkpt>
      <trkpt lat="44.52405" lon="2.10411">
        <ele>249.5</ele>
        <time>2015-10-31T08:30:13Z</time>
      </trkpt>
      <trkpt lat="44.52401" lon="2.10415">
        <ele>250.3</ele>
        <time>2015-10-31T08:30:15Z</time>
      </trkpt>
      <trkpt lat="44.52398" lon="2.1042">
        <ele>250.9</ele>
        <time>2015-10-31T08:30:17Z</time>
      </trkpt>
      <trkpt lat="44.52395" lon="2.10426">
        <ele>251.1</ele>
        <time>2015-10-31T08:30:19Z</time>
      </trkpt>
      <trkpt lat="44.52391" lon="2.10428">
        <ele>252</ele>
        <time>2015-10-31T08:30:21Z</time>
      </trkpt>
      <trkpt lat="44.52388" lon="2.10426">
        <ele>253</ele>
        <time>2015-10-31T08:30:23Z</time>
      </trkpt>
      <trkpt lat="44.5239" lon="2.10434">
        <ele>251.9</ele>
        <time>2015-10-31T08:30:25Z</time>
      </trkpt>
      <trkpt lat="44.52391" lon="2.10438">
        <ele>251.2</ele>
        <time>2015-10-31T08:30:26Z</time>
      </trkpt>
      <trkpt lat="44.52391" lon="2.10442">
        <ele>250.7</ele>
        <time>2015-10-31T08:30:27Z</time>
      </trkpt>
      <trkpt lat="44.52391" lon="2.10447">
        <ele>250.4</ele>
        <time>2015-10-31T08:30:28Z</time>
      </trkpt>
      <trkpt lat="44.5239" lon="2.10451">
        <ele>250.3</ele>
        <time>2015-10-31T08:30:29Z</time>
      </trkpt>
      <trkpt lat="44.52388" lon="2.10455">
        <ele>250.3</ele>
        <time>2015-10-31T08:30:30Z</time>
      </trkpt>
      <trkpt lat="44.52386" lon="2.10459">
        <ele>250.4</ele>
        <time>2015-10-31T08:30:31Z</time>
      </trkpt>
      <trkpt lat="44.52383" lon="2.10462">
        <ele>250.3</ele>
        <time>2015-10-31T08:30:32Z</time>
      </trkpt>
      <trkpt lat="44.52381" lon="2.10465">
        <ele>250.2</ele>
        <time>2015-10-31T08:30:33Z</time>
      </trkpt>
      <trkpt lat="44.52379" lon="2.10468">
        <ele>250.2</ele>
        <time>2015-10-31T08:30:34Z</time>
      </trkpt>
      <trkpt lat="44.52375" lon="2.10471">
        <ele>250.1</ele>
        <time>2015-10-31T08:30:36Z</time>
      </trkpt>
      <trkpt lat="44.52371" lon="2.10474">
        <ele>250.1</ele>
        <time>2015-10-31T08:30:38Z</time>
      </trkpt>
      <trkpt lat="44.52368" lon="2.10476">
        <ele>250.3</ele>
        <time>2015-10-31T08:30:40Z</time>
      </trkpt>
      <trkpt lat="44.52363" lon="2.10474">
        <ele>251.3</ele>
        <time>2015-10-31T08:30:59Z</time>
      </trkpt>
      <trkpt lat="44.52358" lon="2.10478">
        <ele>251.1</ele>
        <time>2015-10-31T08:31:01Z</time>
      </trkpt>
      <trkpt lat="44.52353" lon="2.10479">
        <ele>251.3</ele>
        <time>2015-10-31T08:31:03Z</time>
      </trkpt>
      <trkpt lat="44.52351" lon="2.1048">
        <ele>251.3</ele>
        <time>2015-10-31T08:31:04Z</time>
      </trkpt>
      <trkpt lat="44.52348" lon="2.10481">
        <ele>251.4</ele>
        <time>2015-10-31T08:31:05Z</time>
      </trkpt>
      <trkpt lat="44.52345" lon="2.10483">
        <ele>251.4</ele>
        <time>2015-10-31T08:31:06Z</time>
      </trkpt>
      <trkpt lat="44.5234" lon="2.10486">
        <ele>251.1</ele>
        <time>2015-10-31T08:31:08Z</time>
      </trkpt>
      <trkpt lat="44.52337" lon="2.10488">
        <ele>251</ele>
        <time>2015-10-31T08:31:09Z</time>
      </trkpt>
      <trkpt lat="44.52334" lon="2.1049">
        <ele>250.8</ele>
        <time>2015-10-31T08:31:10Z</time>
      </trkpt>
      <trkpt lat="44.52329" lon="2.10491">
        <ele>250.8</ele>
        <time>2015-10-31T08:31:11Z</time>
      </trkpt>
      <trkpt lat="44.52325" lon="2.10493">
        <ele>250.8</ele>
        <time>2015-10-31T08:31:12Z</time>
      </trkpt>
      <trkpt lat="44.52321" lon="2.10494">
        <ele>250.8</ele>
        <time>2015-10-31T08:31:13Z</time>
      </trkpt>
      <trkpt lat="44.52317" lon="2.10496">
        <ele>250.7</ele>
        <time>2015-10-31T08:31:14Z</time>
      </trkpt>
      <trkpt lat="44.5231" lon="2.10496">
        <ele>251.1</ele>
        <time>2015-10-31T08:31:15Z</time>
      </trkpt>
      <trkpt lat="44.52306" lon="2.10497">
        <ele>251.2</ele>
        <time>2015-10-31T08:31:16Z</time>
      </trkpt>
      <trkpt lat="44.523" lon="2.10502">
        <ele>250.2</ele>
        <time>2015-10-31T08:31:17Z</time>
      </trkpt>
      <trkpt lat="44.52295" lon="2.10504">
        <ele>249.8</ele>
        <time>2015-10-31T08:31:18Z</time>
      </trkpt>
      <trkpt lat="44.52288" lon="2.10506">
        <ele>249.4</ele>
        <time>2015-10-31T08:31:19Z</time>
      </trkpt>
      <trkpt lat="44.52282" lon="2.10508">
        <ele>248.7</ele>
        <time>2015-10-31T08:31:20Z</time>
      </trkpt>
      <trkpt lat="44.52273" lon="2.10507">
        <ele>249.2</ele>
        <time>2015-10-31T08:31:21Z</time>
      </trkpt>
      <trkpt lat="44.52265" lon="2.10507">
        <ele>249</ele>
        <time>2015-10-31T08:31:22Z</time>
      </trkpt>
      <trkpt lat="44.52257" lon="2.1051">
        <ele>248</ele>
        <time>2015-10-31T08:31:23Z</time>
      </trkpt>
      <trkpt lat="44.52249" lon="2.10512">
        <ele>247.5</ele>
        <time>2015-10-31T08:31:24Z</time>
      </trkpt>
      <trkpt lat="44.52239" lon="2.10511">
        <ele>247.9</ele>
        <time>2015-10-31T08:31:25Z</time>
      </trkpt>
      <trkpt lat="44.5223" lon="2.10511">
        <ele>247.8</ele>
        <time>2015-10-31T08:31:26Z</time>
      </trkpt>
      <trkpt lat="44.52222" lon="2.10512">
        <ele>247.3</ele>
        <time>2015-10-31T08:31:27Z</time>
      </trkpt>
      <trkpt lat="44.52212" lon="2.10512">
        <ele>247.3</ele>
        <time>2015-10-31T08:31:28Z</time>
      </trkpt>
      <trkpt lat="44.52203" lon="2.10512">
        <ele>247.7</ele>
        <time>2015-10-31T08:31:29Z</time>
      </trkpt>
      <trkpt lat="44.52194" lon="2.10512">
        <ele>248.3</ele>
        <time>2015-10-31T08:31:30Z</time>
      </trkpt>
      <trkpt lat="44.52186" lon="2.10511">
        <ele>249.1</ele>
        <time>2015-10-31T08:31:31Z</time>
      </trkpt>
      <trkpt lat="44.52175" lon="2.1051">
        <ele>250.2</ele>
        <time>2015-10-31T08:31:32Z</time>
      </trkpt>
      <trkpt lat="44.52168" lon="2.10511">
        <ele>250.3</ele>
        <time>2015-10-31T08:31:33Z</time>
      </trkpt>
      <trkpt lat="44.5216" lon="2.10511">
        <ele>250.9</ele>
        <time>2015-10-31T08:31:34Z</time>
      </trkpt>
      <trkpt lat="44.52152" lon="2.1051">
        <ele>251.8</ele>
        <time>2015-10-31T08:31:35Z</time>
      </trkpt>
      <trkpt lat="44.52144" lon="2.10509">
        <ele>252.5</ele>
        <time>2015-10-31T08:31:36Z</time>
      </trkpt>
      <trkpt lat="44.52137" lon="2.1051">
        <ele>252.8</ele>
        <time>2015-10-31T08:31:37Z</time>
      </trkpt>
      <trkpt lat="44.52129" lon="2.10508">
        <ele>254</ele>
        <time>2015-10-31T08:31:38Z</time>
      </trkpt>
      <trkpt lat="44.52122" lon="2.10508">
        <ele>254.1</ele>
        <time>2015-10-31T08:31:39Z</time>
      </trkpt>
      <trkpt lat="44.52115" lon="2.10509">
        <ele>253.3</ele>
        <time>2015-10-31T08:31:40Z</time>
      </trkpt>
      <trkpt lat="44.52111" lon="2.1051">
        <ele>252.7</ele>
        <time>2015-10-31T08:31:41Z</time>
      </trkpt>
      <trkpt lat="44.52105" lon="2.10509">
        <ele>252.7</ele>
        <time>2015-10-31T08:31:42Z</time>
      </trkpt>
      <trkpt lat="44.521" lon="2.10509">
        <ele>252.4</ele>
        <time>2015-10-31T08:31:43Z</time>
      </trkpt>
      <trkpt lat="44.52096" lon="2.10511">
        <ele>251.8</ele>
        <time>2015-10-31T08:31:44Z</time>
      </trkpt>
      <trkpt lat="44.52091" lon="2.10511">
        <ele>251.3</ele>
        <time>2015-10-31T08:31:45Z</time>
      </trkpt>
      <trkpt lat="44.52087" lon="2.10514">
        <ele>250.1</ele>
        <time>2015-10-31T08:31:46Z</time>
      </trkpt>
      <trkpt lat="44.52085" lon="2.10517">
        <ele>249</ele>
        <time>2015-10-31T08:31:47Z</time>
      </trkpt>
      <trkpt lat="44.52082" lon="2.10519">
        <ele>247.9</ele>
        <time>2015-10-31T08:31:48Z</time>
      </trkpt>
      <trkpt lat="44.52079" lon="2.10522">
        <ele>246.9</ele>
        <time>2015-10-31T08:31:49Z</time>
      </trkpt>
      <trkpt lat="44.52076" lon="2.10524">
        <ele>245.9</ele>
        <time>2015-10-31T08:31:50Z</time>
      </trkpt>
      <trkpt lat="44.52073" lon="2.10526">
        <ele>245.1</ele>
        <time>2015-10-31T08:31:51Z</time>
      </trkpt>
      <trkpt lat="44.5207" lon="2.10528">
        <ele>244.4</ele>
        <time>2015-10-31T08:31:52Z</time>
      </trkpt>
      <trkpt lat="44.52067" lon="2.1053">
        <ele>243.6</ele>
        <time>2015-10-31T08:31:53Z</time>
      </trkpt>
      <trkpt lat="44.52064" lon="2.1053">
        <ele>243.4</ele>
        <time>2015-10-31T08:31:54Z</time>
      </trkpt>
      <trkpt lat="44.52061" lon="2.10532">
        <ele>242.6</ele>
        <time>2015-10-31T08:31:55Z</time>
      </trkpt>
      <trkpt lat="44.52057" lon="2.10532">
        <ele>242.4</ele>
        <time>2015-10-31T08:31:57Z</time>
      </trkpt>
      <trkpt lat="44.52053" lon="2.10532">
        <ele>242.6</ele>
        <time>2015-10-31T08:31:59Z</time>
      </trkpt>
      <trkpt lat="44.5205" lon="2.1053">
        <ele>243.1</ele>
        <time>2015-10-31T08:32:03Z</time>
      </trkpt>
      <trkpt lat="44.52053" lon="2.10532">
        <ele>242.6</ele>
        <time>2015-10-31T08:32:06Z</time>
      </trkpt>
      <trkpt lat="44.5205" lon="2.10533">
        <ele>242.1</ele>
        <time>2015-10-31T08:32:21Z</time>
      </trkpt>
      <trkpt lat="44.52046" lon="2.10532">
        <ele>242.5</ele>
        <time>2015-10-31T08:32:23Z</time>
      </trkpt>
      <trkpt lat="44.52043" lon="2.10529">
        <ele>243.2</ele>
        <time>2015-10-31T08:32:25Z</time>
      </trkpt>
      <trkpt lat="44.5204" lon="2.10526">
        <ele>244</ele>
        <time>2015-10-31T08:32:27Z</time>
      </trkpt>
      <trkpt lat="44.52036" lon="2.10523">
        <ele>244.9</ele>
        <time>2015-10-31T08:32:29Z</time>
      </trkpt>
      <trkpt lat="44.52031" lon="2.1052">
        <ele>245.7</ele>
        <time>2015-10-31T08:32:31Z</time>
      </trkpt>
      <trkpt lat="44.52027" lon="2.10517">
        <ele>246.4</ele>
        <time>2015-10-31T08:32:33Z</time>
      </trkpt>
      <trkpt lat="44.52024" lon="2.10516">
        <ele>246.8</ele>
        <time>2015-10-31T08:32:34Z</time>
      </trkpt>
      <trkpt lat="44.52021" lon="2.10514">
        <ele>247.2</ele>
        <time>2015-10-31T08:32:35Z</time>
      </trkpt>
      <trkpt lat="44.52018" lon="2.10513">
        <ele>247.5</ele>
        <time>2015-10-31T08:32:36Z</time>
      </trkpt>
      <trkpt lat="44.52014" lon="2.10511">
        <ele>247.9</ele>
        <time>2015-10-31T08:32:37Z</time>
      </trkpt>
      <trkpt lat="44.5201" lon="2.1051">
        <ele>248.2</ele>
        <time>2015-10-31T08:32:38Z</time>
      </trkpt>
      <trkpt lat="44.52006" lon="2.10508">
        <ele>248.6</ele>
        <time>2015-10-31T08:32:39Z</time>
      </trkpt>
      <trkpt lat="44.52003" lon="2.10507">
        <ele>248.9</ele>
        <time>2015-10-31T08:32:40Z</time>
      </trkpt>
      <trkpt lat="44.51999" lon="2.10505">
        <ele>249.3</ele>
        <time>2015-10-31T08:32:41Z</time>
      </trkpt>
      <trkpt lat="44.51995" lon="2.10503">
        <ele>249.6</ele>
        <time>2015-10-31T08:32:42Z</time>
      </trkpt>
      <trkpt lat="44.51991" lon="2.10502">
        <ele>249.9</ele>
        <time>2015-10-31T08:32:43Z</time>
      </trkpt>
      <trkpt lat="44.51987" lon="2.10501">
        <ele>250.1</ele>
        <time>2015-10-31T08:32:44Z</time>
      </trkpt>
      <trkpt lat="44.51983" lon="2.105">
        <ele>250.3</ele>
        <time>2015-10-31T08:32:45Z</time>
      </trkpt>
      <trkpt lat="44.51979" lon="2.10499">
        <ele>250.4</ele>
        <time>2015-10-31T08:32:46Z</time>
      </trkpt>
      <trkpt lat="44.51975" lon="2.10499">
        <ele>250.3</ele>
        <time>2015-10-31T08:32:47Z</time>
      </trkpt>
      <trkpt lat="44.51971" lon="2.10499">
        <ele>250.1</ele>
        <time>2015-10-31T08:32:48Z</time>
      </trkpt>
      <trkpt lat="44.51968" lon="2.10499">
        <ele>250</ele>
        <time>2015-10-31T08:32:49Z</time>
      </trkpt>
      <trkpt lat="44.51963" lon="2.10498">
        <ele>250</ele>
        <time>2015-10-31T08:32:50Z</time>
      </trkpt>
      <trkpt lat="44.51959" lon="2.10498">
        <ele>249.8</ele>
        <time>2015-10-31T08:32:51Z</time>
      </trkpt>
      <trkpt lat="44.51956" lon="2.10498">
        <ele>249.9</ele>
        <time>2015-10-31T08:32:52Z</time>
      </trkpt>
      <trkpt lat="44.51951" lon="2.10498">
        <ele>249.4</ele>
        <time>2015-10-31T08:32:53Z</time>
      </trkpt>
      <trkpt lat="44.51947" lon="2.10498">
        <ele>249.4</ele>
        <time>2015-10-31T08:32:54Z</time>
      </trkpt>
      <trkpt lat="44.51942" lon="2.10499">
        <ele>249.3</ele>
        <time>2015-10-31T08:32:55Z</time>
      </trkpt>
      <trkpt lat="44.51936" lon="2.10498">
        <ele>249.2</ele>
        <time>2015-10-31T08:32:56Z</time>
      </trkpt>
      <trkpt lat="44.51931" lon="2.10498">
        <ele>249.1</ele>
        <time>2015-10-31T08:32:57Z</time>
      </trkpt>
      <trkpt lat="44.51926" lon="2.10498">
        <ele>249.3</ele>
        <time>2015-10-31T08:32:58Z</time>
      </trkpt>
      <trkpt lat="44.51921" lon="2.10498">
        <ele>249.2</ele>
        <time>2015-10-31T08:32:59Z</time>
      </trkpt>
      <trkpt lat="44.51915" lon="2.10496">
        <ele>249.8</ele>
        <time>2015-10-31T08:33:00Z</time>
      </trkpt>
      <trkpt lat="44.5191" lon="2.10495">
        <ele>249.9</ele>
        <time>2015-10-31T08:33:01Z</time>
      </trkpt>
      <trkpt lat="44.51905" lon="2.10493">
        <ele>250.5</ele>
        <time>2015-10-31T08:33:02Z</time>
      </trkpt>
      <trkpt lat="44.519" lon="2.10493">
        <ele>250.6</ele>
        <time>2015-10-31T08:33:03Z</time>
      </trkpt>
      <trkpt lat="44.51896" lon="2.10491">
        <ele>251</ele>
        <time>2015-10-31T08:33:04Z</time>
      </trkpt>
      <trkpt lat="44.51891" lon="2.1049">
        <ele>251.4</ele>
        <time>2015-10-31T08:33:05Z</time>
      </trkpt>
      <trkpt lat="44.51886" lon="2.10489">
        <ele>251.7</ele>
        <time>2015-10-31T08:33:06Z</time>
      </trkpt>
      <trkpt lat="44.51881" lon="2.10489">
        <ele>251.8</ele>
        <time>2015-10-31T08:33:07Z</time>
      </trkpt>
      <trkpt lat="44.51877" lon="2.10491">
        <ele>250.8</ele>
        <time>2015-10-31T08:33:08Z</time>
      </trkpt>
      <trkpt lat="44.51872" lon="2.10491">
        <ele>250.5</ele>
        <time>2015-10-31T08:33:09Z</time>
      </trkpt>
      <trkpt lat="44.51868" lon="2.1049">
        <ele>250.7</ele>
        <time>2015-10-31T08:33:10Z</time>
      </trkpt>
      <trkpt lat="44.51863" lon="2.1049">
        <ele>250.6</ele>
        <time>2015-10-31T08:33:11Z</time>
      </trkpt>
      <trkpt lat="44.51858" lon="2.10489">
        <ele>250.4</ele>
        <time>2015-10-31T08:33:12Z</time>
      </trkpt>
      <trkpt lat="44.51851" lon="2.10489">
        <ele>250.1</ele>
        <time>2015-10-31T08:33:13Z</time>
      </trkpt>
      <trkpt lat="44.51847" lon="2.10489">
        <ele>249.7</ele>
        <time>2015-10-31T08:33:14Z</time>
      </trkpt>
      <trkpt lat="44.5184" lon="2.10487">
        <ele>249.9</ele>
        <time>2015-10-31T08:33:15Z</time>
      </trkpt>
      <trkpt lat="44.51835" lon="2.10486">
        <ele>249.9</ele>
        <time>2015-10-31T08:33:16Z</time>
      </trkpt>
      <trkpt lat="44.5183" lon="2.10486">
        <ele>249.7</ele>
        <time>2015-10-31T08:33:17Z</time>
      </trkpt>
      <trkpt lat="44.51825" lon="2.10486">
        <ele>249.4</ele>
        <time>2015-10-31T08:33:18Z</time>
      </trkpt>
      <trkpt lat="44.51821" lon="2.10487">
        <ele>248.8</ele>
        <time>2015-10-31T08:33:19Z</time>
      </trkpt>
      <trkpt lat="44.51816" lon="2.10487">
        <ele>248.4</ele>
        <time>2015-10-31T08:33:20Z</time>
      </trkpt>
      <trkpt lat="44.51811" lon="2.10488">
        <ele>247.8</ele>
        <time>2015-10-31T08:33:21Z</time>
      </trkpt>
      <trkpt lat="44.51806" lon="2.10489">
        <ele>247.2</ele>
        <time>2015-10-31T08:33:22Z</time>
      </trkpt>
      <trkpt lat="44.51802" lon="2.10487">
        <ele>247.4</ele>
        <time>2015-10-31T08:33:24Z</time>
      </trkpt>
      <trkpt lat="44.51799" lon="2.10486">
        <ele>247.5</ele>
        <time>2015-10-31T08:33:25Z</time>
      </trkpt>
      <trkpt lat="44.51797" lon="2.10482">
        <ele>248.5</ele>
        <time>2015-10-31T08:33:27Z</time>
      </trkpt>
      <trkpt lat="44.51797" lon="2.10486">
        <ele>247.3</ele>
        <time>2015-10-31T08:33:31Z</time>
      </trkpt>
      <trkpt lat="44.51793" lon="2.10483">
        <ele>248.1</ele>
        <time>2015-10-31T08:33:48Z</time>
      </trkpt>
      <trkpt lat="44.51791" lon="2.10479">
        <ele>249.1</ele>
        <time>2015-10-31T08:33:50Z</time>
      </trkpt>
      <trkpt lat="44.51788" lon="2.10475">
        <ele>250.1</ele>
        <time>2015-10-31T08:33:52Z</time>
      </trkpt>
      <trkpt lat="44.51785" lon="2.10472">
        <ele>250.6</ele>
        <time>2015-10-31T08:33:54Z</time>
      </trkpt>
      <trkpt lat="44.51782" lon="2.10469">
        <ele>251</ele>
        <time>2015-10-31T08:33:56Z</time>
      </trkpt>
      <trkpt lat="44.51777" lon="2.10467">
        <ele>251.3</ele>
        <time>2015-10-31T08:33:58Z</time>
      </trkpt>
      <trkpt lat="44.51773" lon="2.10465">
        <ele>251.5</ele>
        <time>2015-10-31T08:34:00Z</time>
      </trkpt>
      <trkpt lat="44.51769" lon="2.10464">
        <ele>251.4</ele>
        <time>2015-10-31T08:34:02Z</time>
      </trkpt>
      <trkpt lat="44.51765" lon="2.10462">
        <ele>251.4</ele>
        <time>2015-10-31T08:34:04Z</time>
      </trkpt>
      <trkpt lat="44.51761" lon="2.1046">
        <ele>251.5</ele>
        <time>2015-10-31T08:34:06Z</time>
      </trkpt>
      <trkpt lat="44.51758" lon="2.10459">
        <ele>251.6</ele>
        <time>2015-10-31T08:34:08Z</time>
      </trkpt>
      <trkpt lat="44.51754" lon="2.10457">
        <ele>251.6</ele>
        <time>2015-10-31T08:34:10Z</time>
      </trkpt>
      <trkpt lat="44.51751" lon="2.10456">
        <ele>251.5</ele>
        <time>2015-10-31T08:34:12Z</time>
      </trkpt>
      <trkpt lat="44.51748" lon="2.10457">
        <ele>251</ele>
        <time>2015-10-31T08:34:14Z</time>
      </trkpt>
      <trkpt lat="44.51744" lon="2.10457">
        <ele>250.6</ele>
        <time>2015-10-31T08:34:16Z</time>
      </trkpt>
      <trkpt lat="44.5174" lon="2.10457">
        <ele>250.3</ele>
        <time>2015-10-31T08:34:18Z</time>
      </trkpt>
      <trkpt lat="44.51736" lon="2.10456">
        <ele>250</ele>
        <time>2015-10-31T08:34:20Z</time>
      </trkpt>
      <trkpt lat="44.51732" lon="2.10454">
        <ele>249.9</ele>
        <time>2015-10-31T08:34:22Z</time>
      </trkpt>
      <trkpt lat="44.51729" lon="2.1045">
        <ele>250.1</ele>
        <time>2015-10-31T08:34:24Z</time>
      </trkpt>
      <trkpt lat="44.51726" lon="2.10448">
        <ele>250</ele>
        <time>2015-10-31T08:34:26Z</time>
      </trkpt>
      <trkpt lat="44.51722" lon="2.10449">
        <ele>249.5</ele>
        <time>2015-10-31T08:34:28Z</time>
      </trkpt>
      <trkpt lat="44.51718" lon="2.10449">
        <ele>249.1</ele>
        <time>2015-10-31T08:34:30Z</time>
      </trkpt>
      <trkpt lat="44.51715" lon="2.10445">
        <ele>249.2</ele>
        <time>2015-10-31T08:34:32Z</time>
      </trkpt>
      <trkpt lat="44.51711" lon="2.10442">
        <ele>249.1</ele>
        <time>2015-10-31T08:34:34Z</time>
      </trkpt>
      <trkpt lat="44.51708" lon="2.10441">
        <ele>248.8</ele>
        <time>2015-10-31T08:34:36Z</time>
      </trkpt>
      <trkpt lat="44.51708" lon="2.10445">
        <ele>248.3</ele>
        <time>2015-10-31T08:34:37Z</time>
      </trkpt>
      <trkpt lat="44.51705" lon="2.10446">
        <ele>247.9</ele>
        <time>2015-10-31T08:34:39Z</time>
      </trkpt>
      <trkpt lat="44.51704" lon="2.10442">
        <ele>248.2</ele>
        <time>2015-10-31T08:34:42Z</time>
      </trkpt>
      <trkpt lat="44.51701" lon="2.10437">
        <ele>248.4</ele>
        <time>2015-10-31T08:34:44Z</time>
      </trkpt>
      <trkpt lat="44.51698" lon="2.10434">
        <ele>248.4</ele>
        <time>2015-10-31T08:34:46Z</time>
      </trkpt>
      <trkpt lat="44.51695" lon="2.1043">
        <ele>248.4</ele>
        <time>2015-10-31T08:34:48Z</time>
      </trkpt>
      <trkpt lat="44.51692" lon="2.10427">
        <ele>248.4</ele>
        <time>2015-10-31T08:34:50Z</time>
      </trkpt>
      <trkpt lat="44.51689" lon="2.10428">
        <ele>248</ele>
        <time>2015-10-31T08:34:52Z</time>
      </trkpt>
      <trkpt lat="44.51686" lon="2.10428">
        <ele>247.6</ele>
        <time>2015-10-31T08:34:55Z</time>
      </trkpt>
      <trkpt lat="44.51683" lon="2.10428">
        <ele>247.3</ele>
        <time>2015-10-31T08:34:57Z</time>
      </trkpt>
      <trkpt lat="44.5168" lon="2.10428">
        <ele>246.9</ele>
        <time>2015-10-31T08:34:59Z</time>
      </trkpt>
      <trkpt lat="44.51676" lon="2.10427">
        <ele>246.5</ele>
        <time>2015-10-31T08:35:02Z</time>
      </trkpt>
      <trkpt lat="44.51673" lon="2.10426">
        <ele>246.1</ele>
        <time>2015-10-31T08:35:05Z</time>
      </trkpt>
      <trkpt lat="44.5167" lon="2.10427">
        <ele>245.7</ele>
        <time>2015-10-31T08:35:07Z</time>
      </trkpt>
      <trkpt lat="44.51667" lon="2.10425">
        <ele>245.5</ele>
        <time>2015-10-31T08:35:09Z</time>
      </trkpt>
      <trkpt lat="44.51664" lon="2.10421">
        <ele>245.5</ele>
        <time>2015-10-31T08:35:11Z</time>
      </trkpt>
      <trkpt lat="44.51662" lon="2.10418">
        <ele>245.5</ele>
        <time>2015-10-31T08:35:13Z</time>
      </trkpt>
      <trkpt lat="44.5166" lon="2.10416">
        <ele>245.5</ele>
        <time>2015-10-31T08:35:15Z</time>
      </trkpt>
      <trkpt lat="44.51659" lon="2.10411">
        <ele>245.7</ele>
        <time>2015-10-31T08:35:17Z</time>
      </trkpt>
      <trkpt lat="44.51659" lon="2.10408">
        <ele>246.1</ele>
        <time>2015-10-31T08:35:19Z</time>
      </trkpt>
      <trkpt lat="44.5166" lon="2.10404">
        <ele>246.6</ele>
        <time>2015-10-31T08:35:22Z</time>
      </trkpt>
      <trkpt lat="44.51663" lon="2.10408">
        <ele>246.5</ele>
        <time>2015-10-31T08:35:25Z</time>
      </trkpt>
      <trkpt lat="44.51665" lon="2.10411">
        <ele>246.5</ele>
        <time>2015-10-31T08:35:27Z</time>
      </trkpt>
      <trkpt lat="44.51667" lon="2.10414">
        <ele>246.5</ele>
        <time>2015-10-31T08:35:29Z</time>
      </trkpt>
      <trkpt lat="44.5167" lon="2.10416">
        <ele>246.7</ele>
        <time>2015-10-31T08:35:31Z</time>
      </trkpt>
      <trkpt lat="44.51672" lon="2.10416">
        <ele>247</ele>
        <time>2015-10-31T08:35:33Z</time>
      </trkpt>
      <trkpt lat="44.51675" lon="2.10418">
        <ele>247.1</ele>
        <time>2015-10-31T08:35:35Z</time>
      </trkpt>
      <trkpt lat="44.51678" lon="2.10421">
        <ele>247.3</ele>
        <time>2015-10-31T08:35:38Z</time>
      </trkpt>
      <trkpt lat="44.51681" lon="2.10424">
        <ele>247.4</ele>
        <time>2015-10-31T08:35:41Z</time>
      </trkpt>
      <trkpt lat="44.51683" lon="2.10425">
        <ele>247.5</ele>
        <time>2015-10-31T08:35:43Z</time>
      </trkpt>
      <trkpt lat="44.51688" lon="2.10426">
        <ele>247.9</ele>
        <time>2015-10-31T08:35:45Z</time>
      </trkpt>
      <trkpt lat="44.51691" lon="2.10428">
        <ele>248.1</ele>
        <time>2015-10-31T08:35:48Z</time>
      </trkpt>
      <trkpt lat="44.51735" lon="2.10396">
        <ele>258.5</ele>
        <time>2015-10-31T08:36:50Z</time>
      </trkpt>
      <trkpt lat="44.51732" lon="2.10395">
        <ele>258.1</ele>
        <time>2015-10-31T08:36:56Z</time>
      </trkpt>
      <trkpt lat="44.51729" lon="2.10393">
        <ele>257.7</ele>
        <time>2015-10-31T08:36:59Z</time>
      </trkpt>
      <trkpt lat="44.51725" lon="2.10391">
        <ele>257.4</ele>
        <time>2015-10-31T08:37:02Z</time>
      </trkpt>
      <trkpt lat="44.51722" lon="2.10387">
        <ele>257.3</ele>
        <time>2015-10-31T08:37:05Z</time>
      </trkpt>
      <trkpt lat="44.51718" lon="2.10386">
        <ele>256.7</ele>
        <time>2015-10-31T08:37:07Z</time>
      </trkpt>
      <trkpt lat="44.51714" lon="2.10384">
        <ele>256.2</ele>
        <time>2015-10-31T08:37:09Z</time>
      </trkpt>
      <trkpt lat="44.51711" lon="2.10383">
        <ele>255.7</ele>
        <time>2015-10-31T08:37:11Z</time>
      </trkpt>
      <trkpt lat="44.51709" lon="2.1038">
        <ele>255.6</ele>
        <time>2015-10-31T08:37:13Z</time>
      </trkpt>
      <trkpt lat="44.51707" lon="2.10378">
        <ele>255.5</ele>
        <time>2015-10-31T08:37:15Z</time>
      </trkpt>
      <trkpt lat="44.51702" lon="2.10375">
        <ele>255.2</ele>
        <time>2015-10-31T08:37:17Z</time>
      </trkpt>
      <trkpt lat="44.517" lon="2.10373">
        <ele>255.2</ele>
        <time>2015-10-31T08:37:18Z</time>
      </trkpt>
      <trkpt lat="44.51696" lon="2.10368">
        <ele>255.2</ele>
        <time>2015-10-31T08:37:20Z</time>
      </trkpt>
      <trkpt lat="44.51692" lon="2.10364">
        <ele>255.4</ele>
        <time>2015-10-31T08:37:22Z</time>
      </trkpt>
      <trkpt lat="44.51688" lon="2.10359">
        <ele>255.7</ele>
        <time>2015-10-31T08:37:24Z</time>
      </trkpt>
      <trkpt lat="44.51685" lon="2.10353">
        <ele>256.1</ele>
        <time>2015-10-31T08:37:26Z</time>
      </trkpt>
      <trkpt lat="44.51682" lon="2.10348">
        <ele>256.5</ele>
        <time>2015-10-31T08:37:28Z</time>
      </trkpt>
      <trkpt lat="44.51679" lon="2.10343">
        <ele>256.9</ele>
        <time>2015-10-31T08:37:30Z</time>
      </trkpt>
      <trkpt lat="44.51677" lon="2.10338">
        <ele>257.3</ele>
        <time>2015-10-31T08:37:32Z</time>
      </trkpt>
      <trkpt lat="44.51674" lon="2.10334">
        <ele>257.7</ele>
        <time>2015-10-31T08:37:34Z</time>
      </trkpt>
      <trkpt lat="44.51671" lon="2.1033">
        <ele>257.9</ele>
        <time>2015-10-31T08:37:36Z</time>
      </trkpt>
      <trkpt lat="44.51668" lon="2.10326">
        <ele>258.2</ele>
        <time>2015-10-31T08:37:38Z</time>
      </trkpt>
      <trkpt lat="44.51666" lon="2.10323">
        <ele>258.4</ele>
        <time>2015-10-31T08:37:40Z</time>
      </trkpt>
      <trkpt lat="44.51664" lon="2.10318">
        <ele>258.9</ele>
        <time>2015-10-31T08:37:43Z</time>
      </trkpt>
      <trkpt lat="44.51663" lon="2.10314">
        <ele>259.4</ele>
        <time>2015-10-31T08:37:45Z</time>
      </trkpt>
      <trkpt lat="44.51661" lon="2.1031">
        <ele>259.8</ele>
        <time>2015-10-31T08:37:48Z</time>
      </trkpt>
      <trkpt lat="44.5166" lon="2.10306">
        <ele>260.2</ele>
        <time>2015-10-31T08:37:50Z</time>
      </trkpt>
      <trkpt lat="44.51659" lon="2.10302">
        <ele>260.7</ele>
        <time>2015-10-31T08:37:52Z</time>
      </trkpt>
      <trkpt lat="44.51657" lon="2.10299">
        <ele>261.1</ele>
        <time>2015-10-31T08:37:54Z</time>
      </trkpt>
      <trkpt lat="44.51657" lon="2.10295">
        <ele>261.7</ele>
        <time>2015-10-31T08:37:56Z</time>
      </trkpt>
      <trkpt lat="44.51655" lon="2.1029">
        <ele>262.4</ele>
        <time>2015-10-31T08:37:59Z</time>
      </trkpt>
      <trkpt lat="44.51654" lon="2.10286">
        <ele>263.5</ele>
        <time>2015-10-31T08:38:01Z</time>
      </trkpt>
      <trkpt lat="44.51657" lon="2.10281">
        <ele>265</ele>
        <time>2015-10-31T08:38:03Z</time>
      </trkpt>
      <trkpt lat="44.5166" lon="2.10278">
        <ele>266.3</ele>
        <time>2015-10-31T08:38:05Z</time>
      </trkpt>
      <trkpt lat="44.51664" lon="2.1027">
        <ele>268.9</ele>
        <time>2015-10-31T08:41:41Z</time>
      </trkpt>
      <trkpt lat="44.51666" lon="2.10267">
        <ele>270.1</ele>
        <time>2015-10-31T08:41:43Z</time>
      </trkpt>
      <trkpt lat="44.51669" lon="2.10263">
        <ele>271.4</ele>
        <time>2015-10-31T08:41:45Z</time>
      </trkpt>
      <trkpt lat="44.51671" lon="2.10258">
        <ele>273.1</ele>
        <time>2015-10-31T08:41:47Z</time>
      </trkpt>
      <trkpt lat="44.51674" lon="2.10253">
        <ele>274.9</ele>
        <time>2015-10-31T08:41:49Z</time>
      </trkpt>
      <trkpt lat="44.51676" lon="2.10249">
        <ele>276.4</ele>
        <time>2015-10-31T08:41:51Z</time>
      </trkpt>
      <trkpt lat="44.51679" lon="2.10244">
        <ele>277.9</ele>
        <time>2015-10-31T08:41:53Z</time>
      </trkpt>
      <trkpt lat="44.5168" lon="2.10239">
        <ele>279.5</ele>
        <time>2015-10-31T08:41:55Z</time>
      </trkpt>
      <trkpt lat="44.51682" lon="2.10235">
        <ele>281</ele>
        <time>2015-10-31T08:41:57Z</time>
      </trkpt>
      <trkpt lat="44.51684" lon="2.1023">
        <ele>282.5</ele>
        <time>2015-10-31T08:41:59Z</time>
      </trkpt>
      <trkpt lat="44.51686" lon="2.10226">
        <ele>283.9</ele>
        <time>2015-10-31T08:42:01Z</time>
      </trkpt>
      <trkpt lat="44.51689" lon="2.10223">
        <ele>285.3</ele>
        <time>2015-10-31T08:42:03Z</time>
      </trkpt>
      <trkpt lat="44.51692" lon="2.10219">
        <ele>286.8</ele>
        <time>2015-10-31T08:42:05Z</time>
      </trkpt>
      <trkpt lat="44.51694" lon="2.10214">
        <ele>288.3</ele>
        <time>2015-10-31T08:42:07Z</time>
      </trkpt>
      <trkpt lat="44.51697" lon="2.10211">
        <ele>289.6</ele>
        <time>2015-10-31T08:42:09Z</time>
      </trkpt>
      <trkpt lat="44.517" lon="2.10208">
        <ele>290.7</ele>
        <time>2015-10-31T08:42:11Z</time>
      </trkpt>
      <trkpt lat="44.51703" lon="2.10205">
        <ele>291.7</ele>
        <time>2015-10-31T08:42:13Z</time>
      </trkpt>
      <trkpt lat="44.51706" lon="2.10201">
        <ele>292.8</ele>
        <time>2015-10-31T08:42:15Z</time>
      </trkpt>
      <trkpt lat="44.51708" lon="2.10197">
        <ele>293.9</ele>
        <time>2015-10-31T08:42:17Z</time>
      </trkpt>
      <trkpt lat="44.51709" lon="2.10193">
        <ele>294.5</ele>
        <time>2015-10-31T08:42:19Z</time>
      </trkpt>
      <trkpt lat="44.51711" lon="2.10189">
        <ele>294.9</ele>
        <time>2015-10-31T08:42:21Z</time>
      </trkpt>
      <trkpt lat="44.51714" lon="2.10186">
        <ele>295</ele>
        <time>2015-10-31T08:42:23Z</time>
      </trkpt>
      <trkpt lat="44.51717" lon="2.10183">
        <ele>295.1</ele>
        <time>2015-10-31T08:42:25Z</time>
      </trkpt>
      <trkpt lat="44.51721" lon="2.1018">
        <ele>295.1</ele>
        <time>2015-10-31T08:42:27Z</time>
      </trkpt>
      <trkpt lat="44.51724" lon="2.10177">
        <ele>295.2</ele>
        <time>2015-10-31T08:42:29Z</time>
      </trkpt>
      <trkpt lat="44.51727" lon="2.10174">
        <ele>295.2</ele>
        <time>2015-10-31T08:42:31Z</time>
      </trkpt>
      <trkpt lat="44.5173" lon="2.1017">
        <ele>295.3</ele>
        <time>2015-10-31T08:42:33Z</time>
      </trkpt>
      <trkpt lat="44.51732" lon="2.10167">
        <ele>295.4</ele>
        <time>2015-10-31T08:42:35Z</time>
      </trkpt>
      <trkpt lat="44.51736" lon="2.10166">
        <ele>295</ele>
        <time>2015-10-31T08:42:37Z</time>
      </trkpt>
      <trkpt lat="44.51739" lon="2.10167">
        <ele>294.2</ele>
        <time>2015-10-31T08:42:39Z</time>
      </trkpt>
      <trkpt lat="44.51743" lon="2.1017">
        <ele>293.4</ele>
        <time>2015-10-31T08:42:41Z</time>
      </trkpt>
      <trkpt lat="44.51746" lon="2.10173">
        <ele>292.5</ele>
        <time>2015-10-31T08:42:43Z</time>
      </trkpt>
      <trkpt lat="44.51747" lon="2.10178">
        <ele>291.7</ele>
        <time>2015-10-31T08:42:45Z</time>
      </trkpt>
      <trkpt lat="44.51748" lon="2.10182">
        <ele>291.1</ele>
        <time>2015-10-31T08:42:47Z</time>
      </trkpt>
      <trkpt lat="44.51748" lon="2.10187">
        <ele>290.5</ele>
        <time>2015-10-31T08:42:49Z</time>
      </trkpt>
      <trkpt lat="44.51748" lon="2.10192">
        <ele>289.9</ele>
        <time>2015-10-31T08:42:51Z</time>
      </trkpt>
      <trkpt lat="44.51747" lon="2.10198">
        <ele>289.1</ele>
        <time>2015-10-31T08:42:53Z</time>
      </trkpt>
      <trkpt lat="44.51748" lon="2.10205">
        <ele>288.2</ele>
        <time>2015-10-31T08:42:55Z</time>
      </trkpt>
      <trkpt lat="44.51748" lon="2.10211">
        <ele>287.3</ele>
        <time>2015-10-31T08:42:57Z</time>
      </trkpt>
      <trkpt lat="44.51747" lon="2.10217">
        <ele>286.5</ele>
        <time>2015-10-31T08:42:59Z</time>
      </trkpt>
      <trkpt lat="44.51747" lon="2.10223">
        <ele>285.6</ele>
        <time>2015-10-31T08:43:01Z</time>
      </trkpt>
      <trkpt lat="44.51747" lon="2.10229">
        <ele>284.7</ele>
        <time>2015-10-31T08:43:03Z</time>
      </trkpt>
      <trkpt lat="44.51747" lon="2.10235">
        <ele>283.8</ele>
        <time>2015-10-31T08:43:05Z</time>
      </trkpt>
      <trkpt lat="44.51746" lon="2.10241">
        <ele>282.8</ele>
        <time>2015-10-31T08:43:07Z</time>
      </trkpt>
      <trkpt lat="44.51745" lon="2.10247">
        <ele>281.9</ele>
        <time>2015-10-31T08:43:09Z</time>
      </trkpt>
      <trkpt lat="44.51743" lon="2.10252">
        <ele>281</ele>
        <time>2015-10-31T08:43:11Z</time>
      </trkpt>
      <trkpt lat="44.51742" lon="2.10257">
        <ele>280.2</ele>
        <time>2015-10-31T08:43:13Z</time>
      </trkpt>
      <trkpt lat="44.51739" lon="2.10262">
        <ele>279.1</ele>
        <time>2015-10-31T08:43:15Z</time>
      </trkpt>
      <trkpt lat="44.51738" lon="2.10268">
        <ele>278</ele>
        <time>2015-10-31T08:43:17Z</time>
      </trkpt>
      <trkpt lat="44.51739" lon="2.10273">
        <ele>277</ele>
        <time>2015-10-31T08:43:19Z</time>
      </trkpt>
      <trkpt lat="44.51739" lon="2.1028">
        <ele>275.9</ele>
        <time>2015-10-31T08:43:21Z</time>
      </trkpt>
      <trkpt lat="44.5174" lon="2.10285">
        <ele>275.1</ele>
        <time>2015-10-31T08:43:23Z</time>
      </trkpt>
      <trkpt lat="44.51741" lon="2.10291">
        <ele>274.2</ele>
        <time>2015-10-31T08:43:25Z</time>
      </trkpt>
      <trkpt lat="44.51741" lon="2.10296">
        <ele>273.5</ele>
        <time>2015-10-31T08:43:27Z</time>
      </trkpt>
      <trkpt lat="44.51741" lon="2.10302">
        <ele>272.8</ele>
        <time>2015-10-31T08:43:29Z</time>
      </trkpt>
      <trkpt lat="44.51742" lon="2.10308">
        <ele>272.1</ele>
        <time>2015-10-31T08:43:31Z</time>
      </trkpt>
      <trkpt lat="44.51744" lon="2.10313">
        <ele>271.6</ele>
        <time>2015-10-31T08:43:33Z</time>
      </trkpt>
      <trkpt lat="44.51746" lon="2.10315">
        <ele>271.9</ele>
        <time>2015-10-31T08:43:34Z</time>
      </trkpt>
      <trkpt lat="44.5175" lon="2.10317">
        <ele>272.2</ele>
        <time>2015-10-31T08:43:36Z</time>
      </trkpt>
      <trkpt lat="44.51755" lon="2.10318">
        <ele>272.8</ele>
        <time>2015-10-31T08:43:38Z</time>
      </trkpt>
      <trkpt lat="44.51759" lon="2.10319">
        <ele>273.4</ele>
        <time>2015-10-31T08:43:40Z</time>
      </trkpt>
      <trkpt lat="44.51762" lon="2.10317">
        <ele>274.3</ele>
        <time>2015-10-31T08:43:42Z</time>
      </trkpt>
      <trkpt lat="44.51766" lon="2.10317">
        <ele>275</ele>
        <time>2015-10-31T08:43:44Z</time>
      </trkpt>
      <trkpt lat="44.5177" lon="2.10316">
        <ele>275.8</ele>
        <time>2015-10-31T08:43:46Z</time>
      </trkpt>
      <trkpt lat="44.51774" lon="2.10315">
        <ele>276.6</ele>
        <time>2015-10-31T08:43:48Z</time>
      </trkpt>
      <trkpt lat="44.51779" lon="2.10312">
        <ele>277.6</ele>
        <time>2015-10-31T08:43:50Z</time>
      </trkpt>
      <trkpt lat="44.51784" lon="2.10311">
        <ele>278.7</ele>
        <time>2015-10-31T08:43:52Z</time>
      </trkpt>
      <trkpt lat="44.51789" lon="2.1031">
        <ele>279.5</ele>
        <time>2015-10-31T08:43:54Z</time>
      </trkpt>
      <trkpt lat="44.51792" lon="2.1031">
        <ele>280.2</ele>
        <time>2015-10-31T08:43:56Z</time>
      </trkpt>
      <trkpt lat="44.51795" lon="2.10309">
        <ele>280.8</ele>
        <time>2015-10-31T08:43:58Z</time>
      </trkpt>
      <trkpt lat="44.51796" lon="2.10315">
        <ele>280.5</ele>
        <time>2015-10-31T08:44:29Z</time>
      </trkpt>
      <trkpt lat="44.518" lon="2.10316">
        <ele>281.1</ele>
        <time>2015-10-31T08:44:31Z</time>
      </trkpt>
      <trkpt lat="44.51804" lon="2.10317">
        <ele>281.7</ele>
        <time>2015-10-31T08:44:33Z</time>
      </trkpt>
      <trkpt lat="44.51807" lon="2.10318">
        <ele>282.5</ele>
        <time>2015-10-31T08:44:35Z</time>
      </trkpt>
      <trkpt lat="44.5181" lon="2.10319">
        <ele>283.1</ele>
        <time>2015-10-31T08:44:37Z</time>
      </trkpt>
      <trkpt lat="44.51815" lon="2.1032">
        <ele>283.8</ele>
        <time>2015-10-31T08:44:39Z</time>
      </trkpt>
      <trkpt lat="44.51818" lon="2.10321">
        <ele>284.3</ele>
        <time>2015-10-31T08:44:41Z</time>
      </trkpt>
      <trkpt lat="44.51822" lon="2.10322">
        <ele>285.1</ele>
        <time>2015-10-31T08:44:43Z</time>
      </trkpt>
      <trkpt lat="44.51826" lon="2.10321">
        <ele>286.1</ele>
        <time>2015-10-31T08:44:45Z</time>
      </trkpt>
      <trkpt lat="44.51829" lon="2.10325">
        <ele>286.1</ele>
        <time>2015-10-31T08:44:47Z</time>
      </trkpt>
      <trkpt lat="44.5183" lon="2.10332">
        <ele>285.5</ele>
        <time>2015-10-31T08:44:49Z</time>
      </trkpt>
      <trkpt lat="44.51832" lon="2.10337">
        <ele>285.3</ele>
        <time>2015-10-31T08:44:50Z</time>
      </trkpt>
      <trkpt lat="44.51835" lon="2.10345">
        <ele>284.9</ele>
        <time>2015-10-31T08:44:52Z</time>
      </trkpt>
      <trkpt lat="44.51838" lon="2.10348">
        <ele>284.9</ele>
        <time>2015-10-31T08:44:53Z</time>
      </trkpt>
      <trkpt lat="44.51841" lon="2.10352">
        <ele>285</ele>
        <time>2015-10-31T08:44:55Z</time>
      </trkpt>
      <trkpt lat="44.51845" lon="2.10355">
        <ele>285.4</ele>
        <time>2015-10-31T08:44:57Z</time>
      </trkpt>
      <trkpt lat="44.51847" lon="2.10358">
        <ele>285.5</ele>
        <time>2015-10-31T08:44:59Z</time>
      </trkpt>
      <trkpt lat="44.5185" lon="2.10359">
        <ele>285.9</ele>
        <time>2015-10-31T08:45:01Z</time>
      </trkpt>
      <trkpt lat="44.51854" lon="2.1036">
        <ele>286.4</ele>
        <time>2015-10-31T08:45:03Z</time>
      </trkpt>
      <trkpt lat="44.51858" lon="2.1036">
        <ele>287.2</ele>
        <time>2015-10-31T08:45:05Z</time>
      </trkpt>
      <trkpt lat="44.51861" lon="2.10358">
        <ele>287.9</ele>
        <time>2015-10-31T08:45:07Z</time>
      </trkpt>
      <trkpt lat="44.51863" lon="2.10357">
        <ele>288.6</ele>
        <time>2015-10-31T08:45:09Z</time>
      </trkpt>
      <trkpt lat="44.51866" lon="2.10356">
        <ele>289.3</ele>
        <time>2015-10-31T08:45:11Z</time>
      </trkpt>
      <trkpt lat="44.51872" lon="2.10355">
        <ele>290.6</ele>
        <time>2015-10-31T08:45:13Z</time>
      </trkpt>
      <trkpt lat="44.51875" lon="2.10353">
        <ele>291.5</ele>
        <time>2015-10-31T08:45:15Z</time>
      </trkpt>
      <trkpt lat="44.51879" lon="2.10351">
        <ele>292</ele>
        <time>2015-10-31T08:45:17Z</time>
      </trkpt>
      <trkpt lat="44.51883" lon="2.1035">
        <ele>292.4</ele>
        <time>2015-10-31T08:45:19Z</time>
      </trkpt>
      <trkpt lat="44.51888" lon="2.1035">
        <ele>292.8</ele>
        <time>2015-10-31T08:45:21Z</time>
      </trkpt>
      <trkpt lat="44.51892" lon="2.10349">
        <ele>293.3</ele>
        <time>2015-10-31T08:45:23Z</time>
      </trkpt>
      <trkpt lat="44.51895" lon="2.10346">
        <ele>294</ele>
        <time>2015-10-31T08:45:25Z</time>
      </trkpt>
      <trkpt lat="44.51899" lon="2.10344">
        <ele>294.7</ele>
        <time>2015-10-31T08:45:27Z</time>
      </trkpt>
      <trkpt lat="44.51902" lon="2.10342">
        <ele>295.2</ele>
        <time>2015-10-31T08:45:29Z</time>
      </trkpt>
      <trkpt lat="44.51906" lon="2.10341">
        <ele>295.8</ele>
        <time>2015-10-31T08:45:31Z</time>
      </trkpt>
      <trkpt lat="44.51911" lon="2.1034">
        <ele>296.3</ele>
        <time>2015-10-31T08:45:33Z</time>
      </trkpt>
      <trkpt lat="44.51915" lon="2.10338">
        <ele>297</ele>
        <time>2015-10-31T08:45:35Z</time>
      </trkpt>
      <trkpt lat="44.5192" lon="2.10337">
        <ele>297.7</ele>
        <time>2015-10-31T08:45:37Z</time>
      </trkpt>
      <trkpt lat="44.51924" lon="2.10334">
        <ele>298.4</ele>
        <time>2015-10-31T08:45:39Z</time>
      </trkpt>
      <trkpt lat="44.51928" lon="2.10332">
        <ele>299.2</ele>
        <time>2015-10-31T08:45:41Z</time>
      </trkpt>
      <trkpt lat="44.51932" lon="2.1033">
        <ele>300</ele>
        <time>2015-10-31T08:45:43Z</time>
      </trkpt>
      <trkpt lat="44.51935" lon="2.10328">
        <ele>300.6</ele>
        <time>2015-10-31T08:45:45Z</time>
      </trkpt>
      <trkpt lat="44.51939" lon="2.10326">
        <ele>301.3</ele>
        <time>2015-10-31T08:45:47Z</time>
      </trkpt>
      <trkpt lat="44.51942" lon="2.10326">
        <ele>301.8</ele>
        <time>2015-10-31T08:45:49Z</time>
      </trkpt>
      <trkpt lat="44.51946" lon="2.10324">
        <ele>302.4</ele>
        <time>2015-10-31T08:45:51Z</time>
      </trkpt>
      <trkpt lat="44.51948" lon="2.10319">
        <ele>303.6</ele>
        <time>2015-10-31T08:45:53Z</time>
      </trkpt>
      <trkpt lat="44.51949" lon="2.10314">
        <ele>304.8</ele>
        <time>2015-10-31T08:45:55Z</time>
      </trkpt>
      <trkpt lat="44.51952" lon="2.10312">
        <ele>305.8</ele>
        <time>2015-10-31T08:45:58Z</time>
      </trkpt>
      <trkpt lat="44.51954" lon="2.10307">
        <ele>307.1</ele>
        <time>2015-10-31T08:46:01Z</time>
      </trkpt>
      <trkpt lat="44.51957" lon="2.10305">
        <ele>307.8</ele>
        <time>2015-10-31T08:46:03Z</time>
      </trkpt>
      <trkpt lat="44.51962" lon="2.10303">
        <ele>308.4</ele>
        <time>2015-10-31T08:46:05Z</time>
      </trkpt>
      <trkpt lat="44.51966" lon="2.103">
        <ele>308.9</ele>
        <time>2015-10-31T08:46:07Z</time>
      </trkpt>
      <trkpt lat="44.51968" lon="2.103">
        <ele>308.9</ele>
        <time>2015-10-31T08:46:08Z</time>
      </trkpt>
      <trkpt lat="44.51972" lon="2.10299">
        <ele>308.9</ele>
        <time>2015-10-31T08:46:09Z</time>
      </trkpt>
      <trkpt lat="44.51976" lon="2.10296">
        <ele>309.5</ele>
        <time>2015-10-31T08:46:11Z</time>
      </trkpt>
      <trkpt lat="44.5198" lon="2.10293">
        <ele>310.1</ele>
        <time>2015-10-31T08:46:13Z</time>
      </trkpt>
      <trkpt lat="44.51984" lon="2.10289">
        <ele>310.8</ele>
        <time>2015-10-31T08:46:15Z</time>
      </trkpt>
      <trkpt lat="44.51988" lon="2.10286">
        <ele>311.1</ele>
        <time>2015-10-31T08:46:17Z</time>
      </trkpt>
      <trkpt lat="44.51992" lon="2.10283">
        <ele>311.4</ele>
        <time>2015-10-31T08:46:19Z</time>
      </trkpt>
      <trkpt lat="44.51996" lon="2.10281">
        <ele>311.8</ele>
        <time>2015-10-31T08:46:21Z</time>
      </trkpt>
      <trkpt lat="44.52" lon="2.10279">
        <ele>312</ele>
        <time>2015-10-31T08:46:23Z</time>
      </trkpt>
      <trkpt lat="44.52004" lon="2.10279">
        <ele>312</ele>
        <time>2015-10-31T08:46:25Z</time>
      </trkpt>
      <trkpt lat="44.52008" lon="2.10279">
        <ele>311.9</ele>
        <time>2015-10-31T08:46:27Z</time>
      </trkpt>
      <trkpt lat="44.52012" lon="2.1028">
        <ele>311.8</ele>
        <time>2015-10-31T08:46:29Z</time>
      </trkpt>
      <trkpt lat="44.52016" lon="2.1028">
        <ele>311.6</ele>
        <time>2015-10-31T08:46:31Z</time>
      </trkpt>
      <trkpt lat="44.5202" lon="2.1028">
        <ele>311.6</ele>
        <time>2015-10-31T08:46:33Z</time>
      </trkpt>
      <trkpt lat="44.52024" lon="2.10281">
        <ele>311.5</ele>
        <time>2015-10-31T08:46:35Z</time>
      </trkpt>
      <trkpt lat="44.52028" lon="2.10282">
        <ele>311.2</ele>
        <time>2015-10-31T08:46:37Z</time>
      </trkpt>
      <trkpt lat="44.52032" lon="2.10283">
        <ele>310.9</ele>
        <time>2015-10-31T08:46:39Z</time>
      </trkpt>
      <trkpt lat="44.52036" lon="2.10283">
        <ele>310.8</ele>
        <time>2015-10-31T08:46:41Z</time>
      </trkpt>
      <trkpt lat="44.52039" lon="2.10284">
        <ele>310.6</ele>
        <time>2015-10-31T08:46:43Z</time>
      </trkpt>
      <trkpt lat="44.52043" lon="2.10286">
        <ele>310.3</ele>
        <time>2015-10-31T08:46:45Z</time>
      </trkpt>
      <trkpt lat="44.52047" lon="2.10288">
        <ele>310.4</ele>
        <time>2015-10-31T08:46:47Z</time>
      </trkpt>
      <trkpt lat="44.52051" lon="2.1029">
        <ele>310.5</ele>
        <time>2015-10-31T08:46:49Z</time>
      </trkpt>
      <trkpt lat="44.52055" lon="2.10293">
        <ele>310.5</ele>
        <time>2015-10-31T08:46:51Z</time>
      </trkpt>
      <trkpt lat="44.52059" lon="2.10295">
        <ele>310.5</ele>
        <time>2015-10-31T08:46:53Z</time>
      </trkpt>
      <trkpt lat="44.52063" lon="2.10298">
        <ele>310.3</ele>
        <time>2015-10-31T08:46:55Z</time>
      </trkpt>
      <trkpt lat="44.52067" lon="2.103">
        <ele>310.2</ele>
        <time>2015-10-31T08:46:57Z</time>
      </trkpt>
      <trkpt lat="44.52071" lon="2.10302">
        <ele>310.2</ele>
        <time>2015-10-31T08:46:59Z</time>
      </trkpt>
      <trkpt lat="44.52075" lon="2.10304">
        <ele>310.1</ele>
        <time>2015-10-31T08:47:01Z</time>
      </trkpt>
      <trkpt lat="44.52079" lon="2.10307">
        <ele>310</ele>
        <time>2015-10-31T08:47:03Z</time>
      </trkpt>
      <trkpt lat="44.52083" lon="2.1031">
        <ele>309.7</ele>
        <time>2015-10-31T08:47:05Z</time>
      </trkpt>
      <trkpt lat="44.52087" lon="2.10312">
        <ele>309.6</ele>
        <time>2015-10-31T08:47:07Z</time>
      </trkpt>
      <trkpt lat="44.5209" lon="2.10315">
        <ele>309.4</ele>
        <time>2015-10-31T08:47:09Z</time>
      </trkpt>
      <trkpt lat="44.52093" lon="2.10317">
        <ele>309.4</ele>
        <time>2015-10-31T08:47:11Z</time>
      </trkpt>
      <trkpt lat="44.52097" lon="2.10318">
        <ele>309.4</ele>
        <time>2015-10-31T08:47:13Z</time>
      </trkpt>
      <trkpt lat="44.521" lon="2.10321">
        <ele>309.2</ele>
        <time>2015-10-31T08:47:15Z</time>
      </trkpt>
      <trkpt lat="44.52103" lon="2.10322">
        <ele>309.1</ele>
        <time>2015-10-31T08:47:17Z</time>
      </trkpt>
      <trkpt lat="44.52107" lon="2.10323">
        <ele>309.5</ele>
        <time>2015-10-31T08:47:19Z</time>
      </trkpt>
      <trkpt lat="44.5211" lon="2.10322">
        <ele>310</ele>
        <time>2015-10-31T08:47:21Z</time>
      </trkpt>
      <trkpt lat="44.52114" lon="2.10321">
        <ele>310.7</ele>
        <time>2015-10-31T08:47:23Z</time>
      </trkpt>
      <trkpt lat="44.52117" lon="2.10318">
        <ele>311.9</ele>
        <time>2015-10-31T08:47:25Z</time>
      </trkpt>
      <trkpt lat="44.52121" lon="2.10316">
        <ele>313.2</ele>
        <time>2015-10-31T08:47:27Z</time>
      </trkpt>
      <trkpt lat="44.52125" lon="2.10313">
        <ele>314.3</ele>
        <time>2015-10-31T08:47:29Z</time>
      </trkpt>
      <trkpt lat="44.52129" lon="2.10312">
        <ele>314.4</ele>
        <time>2015-10-31T08:47:31Z</time>
      </trkpt>
      <trkpt lat="44.52133" lon="2.10311">
        <ele>314.4</ele>
        <time>2015-10-31T08:47:33Z</time>
      </trkpt>
      <trkpt lat="44.52137" lon="2.1031">
        <ele>314.3</ele>
        <time>2015-10-31T08:47:35Z</time>
      </trkpt>
      <trkpt lat="44.52141" lon="2.10308">
        <ele>314.5</ele>
        <time>2015-10-31T08:47:37Z</time>
      </trkpt>
      <trkpt lat="44.52144" lon="2.10304">
        <ele>315.2</ele>
        <time>2015-10-31T08:47:39Z</time>
      </trkpt>
      <trkpt lat="44.52147" lon="2.10301">
        <ele>315.8</ele>
        <time>2015-10-31T08:47:41Z</time>
      </trkpt>
      <trkpt lat="44.5215" lon="2.10298">
        <ele>316.2</ele>
        <time>2015-10-31T08:47:43Z</time>
      </trkpt>
      <trkpt lat="44.52153" lon="2.10295">
        <ele>316.7</ele>
        <time>2015-10-31T08:47:45Z</time>
      </trkpt>
      <trkpt lat="44.52156" lon="2.10291">
        <ele>317.1</ele>
        <time>2015-10-31T08:47:47Z</time>
      </trkpt>
      <trkpt lat="44.52156" lon="2.10285">
        <ele>317.9</ele>
        <time>2015-10-31T08:47:49Z</time>
      </trkpt>
      <trkpt lat="44.52156" lon="2.1028">
        <ele>318.6</ele>
        <time>2015-10-31T08:47:51Z</time>
      </trkpt>
      <trkpt lat="44.52156" lon="2.10276">
        <ele>319.1</ele>
        <time>2015-10-31T08:47:53Z</time>
      </trkpt>
      <trkpt lat="44.52156" lon="2.10271">
        <ele>319.7</ele>
        <time>2015-10-31T08:49:01Z</time>
      </trkpt>
      <trkpt lat="44.52154" lon="2.10267">
        <ele>320.5</ele>
        <time>2015-10-31T08:49:04Z</time>
      </trkpt>
      <trkpt lat="44.52153" lon="2.10262">
        <ele>321.2</ele>
        <time>2015-10-31T08:49:07Z</time>
      </trkpt>
      <trkpt lat="44.52153" lon="2.10258">
        <ele>321.8</ele>
        <time>2015-10-31T08:49:09Z</time>
      </trkpt>
      <trkpt lat="44.52152" lon="2.10253">
        <ele>322.6</ele>
        <time>2015-10-31T08:49:11Z</time>
      </trkpt>
      <trkpt lat="44.52151" lon="2.10248">
        <ele>323.3</ele>
        <time>2015-10-31T08:49:13Z</time>
      </trkpt>
      <trkpt lat="44.52151" lon="2.10243">
        <ele>324.1</ele>
        <time>2015-10-31T08:49:15Z</time>
      </trkpt>
      <trkpt lat="44.5215" lon="2.10238">
        <ele>324.8</ele>
        <time>2015-10-31T08:49:17Z</time>
      </trkpt>
      <trkpt lat="44.52149" lon="2.10234">
        <ele>325.4</ele>
        <time>2015-10-31T08:49:19Z</time>
      </trkpt>
      <trkpt lat="44.52147" lon="2.1023">
        <ele>326.4</ele>
        <time>2015-10-31T08:49:21Z</time>
      </trkpt>
      <trkpt lat="44.52146" lon="2.10225">
        <ele>327.2</ele>
        <time>2015-10-31T08:49:23Z</time>
      </trkpt>
      <trkpt lat="44.52145" lon="2.10221">
        <ele>327.9</ele>
        <time>2015-10-31T08:49:25Z</time>
      </trkpt>
      <trkpt lat="44.52144" lon="2.10218">
        <ele>328.6</ele>
        <time>2015-10-31T08:49:26Z</time>
      </trkpt>
      <trkpt lat="44.52144" lon="2.10213">
        <ele>329.2</ele>
        <time>2015-10-31T08:49:28Z</time>
      </trkpt>
      <trkpt lat="44.52145" lon="2.10208">
        <ele>329.6</ele>
        <time>2015-10-31T08:49:30Z</time>
      </trkpt>
      <trkpt lat="44.52145" lon="2.10202">
        <ele>329.5</ele>
        <time>2015-10-31T08:49:32Z</time>
      </trkpt>
      <trkpt lat="44.52144" lon="2.10198">
        <ele>329.5</ele>
        <time>2015-10-31T08:49:34Z</time>
      </trkpt>
      <trkpt lat="44.52144" lon="2.10193">
        <ele>329.5</ele>
        <time>2015-10-31T08:49:36Z</time>
      </trkpt>
      <trkpt lat="44.52142" lon="2.10189">
        <ele>329.6</ele>
        <time>2015-10-31T08:49:38Z</time>
      </trkpt>
      <trkpt lat="44.5214" lon="2.10182">
        <ele>329.8</ele>
        <time>2015-10-31T08:49:40Z</time>
      </trkpt>
      <trkpt lat="44.52139" lon="2.10178">
        <ele>329.9</ele>
        <time>2015-10-31T08:49:42Z</time>
      </trkpt>
      <trkpt lat="44.52137" lon="2.10174">
        <ele>330</ele>
        <time>2015-10-31T08:49:43Z</time>
      </trkpt>
      <trkpt lat="44.52137" lon="2.10168">
        <ele>329.9</ele>
        <time>2015-10-31T08:49:45Z</time>
      </trkpt>
      <trkpt lat="44.52137" lon="2.10163">
        <ele>329.8</ele>
        <time>2015-10-31T08:49:47Z</time>
      </trkpt>
      <trkpt lat="44.52138" lon="2.1016">
        <ele>329.6</ele>
        <time>2015-10-31T08:49:48Z</time>
      </trkpt>
      <trkpt lat="44.52137" lon="2.10154">
        <ele>329.5</ele>
        <time>2015-10-31T08:49:50Z</time>
      </trkpt>
      <trkpt lat="44.52137" lon="2.10147">
        <ele>329.4</ele>
        <time>2015-10-31T08:49:52Z</time>
      </trkpt>
      <trkpt lat="44.52136" lon="2.10142">
        <ele>329.3</ele>
        <time>2015-10-31T08:49:54Z</time>
      </trkpt>
      <trkpt lat="44.52136" lon="2.10135">
        <ele>329.2</ele>
        <time>2015-10-31T08:49:56Z</time>
      </trkpt>
      <trkpt lat="44.52135" lon="2.1013">
        <ele>329.1</ele>
        <time>2015-10-31T08:49:58Z</time>
      </trkpt>
      <trkpt lat="44.52134" lon="2.10124">
        <ele>329.1</ele>
        <time>2015-10-31T08:50:00Z</time>
      </trkpt>
      <trkpt lat="44.52133" lon="2.10119">
        <ele>329.6</ele>
        <time>2015-10-31T08:50:02Z</time>
      </trkpt>
      <trkpt lat="44.52131" lon="2.10114">
        <ele>330.1</ele>
        <time>2015-10-31T08:50:04Z</time>
      </trkpt>
      <trkpt lat="44.52128" lon="2.1011">
        <ele>330.8</ele>
        <time>2015-10-31T08:50:06Z</time>
      </trkpt>
      <trkpt lat="44.52126" lon="2.10104">
        <ele>331.4</ele>
        <time>2015-10-31T08:50:08Z</time>
      </trkpt>
      <trkpt lat="44.52124" lon="2.10099">
        <ele>331.9</ele>
        <time>2015-10-31T08:50:10Z</time>
      </trkpt>
      <trkpt lat="44.52122" lon="2.10094">
        <ele>332.3</ele>
        <time>2015-10-31T08:50:12Z</time>
      </trkpt>
      <trkpt lat="44.5212" lon="2.1009">
        <ele>332.6</ele>
        <time>2015-10-31T08:50:14Z</time>
      </trkpt>
      <trkpt lat="44.5212" lon="2.10086">
        <ele>332.9</ele>
        <time>2015-10-31T08:50:15Z</time>
      </trkpt>
      <trkpt lat="44.52119" lon="2.10081">
        <ele>333.3</ele>
        <time>2015-10-31T08:50:17Z</time>
      </trkpt>
      <trkpt lat="44.52117" lon="2.10077">
        <ele>333.6</ele>
        <time>2015-10-31T08:50:19Z</time>
      </trkpt>
      <trkpt lat="44.52115" lon="2.10073">
        <ele>333.8</ele>
        <time>2015-10-31T08:50:21Z</time>
      </trkpt>
      <trkpt lat="44.52113" lon="2.10071">
        <ele>334</ele>
        <time>2015-10-31T08:50:23Z</time>
      </trkpt>
      <trkpt lat="44.5211" lon="2.10068">
        <ele>334.3</ele>
        <time>2015-10-31T08:50:26Z</time>
      </trkpt>
      <trkpt lat="44.52107" lon="2.10067">
        <ele>334.4</ele>
        <time>2015-10-31T08:50:32Z</time>
      </trkpt>
      <trkpt lat="44.52109" lon="2.10064">
        <ele>334.6</ele>
        <time>2015-10-31T08:50:43Z</time>
      </trkpt>
      <trkpt lat="44.5211" lon="2.1006">
        <ele>334.9</ele>
        <time>2015-10-31T08:50:47Z</time>
      </trkpt>
      <trkpt lat="44.52109" lon="2.10055">
        <ele>335.2</ele>
        <time>2015-10-31T08:50:50Z</time>
      </trkpt>
      <trkpt lat="44.52107" lon="2.10049">
        <ele>335.7</ele>
        <time>2015-10-31T08:50:52Z</time>
      </trkpt>
      <trkpt lat="44.52104" lon="2.10043">
        <ele>336.2</ele>
        <time>2015-10-31T08:50:54Z</time>
      </trkpt>
      <trkpt lat="44.52101" lon="2.10039">
        <ele>336.4</ele>
        <time>2015-10-31T08:50:56Z</time>
      </trkpt>
      <trkpt lat="44.52098" lon="2.10034">
        <ele>336.6</ele>
        <time>2015-10-31T08:50:58Z</time>
      </trkpt>
      <trkpt lat="44.52096" lon="2.1003">
        <ele>336.8</ele>
        <time>2015-10-31T08:51:00Z</time>
      </trkpt>
      <trkpt lat="44.52093" lon="2.10028">
        <ele>337</ele>
        <time>2015-10-31T08:51:02Z</time>
      </trkpt>
      <trkpt lat="44.5209" lon="2.10026">
        <ele>337</ele>
        <time>2015-10-31T08:51:04Z</time>
      </trkpt>
      <trkpt lat="44.52086" lon="2.10027">
        <ele>337</ele>
        <time>2015-10-31T08:51:06Z</time>
      </trkpt>
      <trkpt lat="44.52082" lon="2.10028">
        <ele>337</ele>
        <time>2015-10-31T08:51:08Z</time>
      </trkpt>
      <trkpt lat="44.52079" lon="2.10031">
        <ele>336.9</ele>
        <time>2015-10-31T08:51:10Z</time>
      </trkpt>
      <trkpt lat="44.52077" lon="2.10035">
        <ele>336.8</ele>
        <time>2015-10-31T08:51:12Z</time>
      </trkpt>
      <trkpt lat="44.52074" lon="2.10036">
        <ele>336.8</ele>
        <time>2015-10-31T08:51:14Z</time>
      </trkpt>
      <trkpt lat="44.52072" lon="2.10039">
        <ele>336.7</ele>
        <time>2015-10-31T08:51:16Z</time>
      </trkpt>
      <trkpt lat="44.52069" lon="2.10042">
        <ele>336.6</ele>
        <time>2015-10-31T08:51:18Z</time>
      </trkpt>
      <trkpt lat="44.52069" lon="2.10048">
        <ele>336.2</ele>
        <time>2015-10-31T08:51:20Z</time>
      </trkpt>
      <trkpt lat="44.5207" lon="2.10054">
        <ele>335.8</ele>
        <time>2015-10-31T08:51:22Z</time>
      </trkpt>
      <trkpt lat="44.52067" lon="2.10058">
        <ele>335.5</ele>
        <time>2015-10-31T08:51:24Z</time>
      </trkpt>
      <trkpt lat="44.52065" lon="2.10062">
        <ele>335.3</ele>
        <time>2015-10-31T08:51:26Z</time>
      </trkpt>
      <trkpt lat="44.52064" lon="2.10066">
        <ele>335</ele>
        <time>2015-10-31T08:51:28Z</time>
      </trkpt>
      <trkpt lat="44.52061" lon="2.1007">
        <ele>334.7</ele>
        <time>2015-10-31T08:51:30Z</time>
      </trkpt>
      <trkpt lat="44.52058" lon="2.10072">
        <ele>334.6</ele>
        <time>2015-10-31T08:51:32Z</time>
      </trkpt>
      <trkpt lat="44.52056" lon="2.10077">
        <ele>334.3</ele>
        <time>2015-10-31T08:51:34Z</time>
      </trkpt>
      <trkpt lat="44.52054" lon="2.10083">
        <ele>333.9</ele>
        <time>2015-10-31T08:51:36Z</time>
      </trkpt>
      <trkpt lat="44.52051" lon="2.10088">
        <ele>333.5</ele>
        <time>2015-10-31T08:51:38Z</time>
      </trkpt>
      <trkpt lat="44.52047" lon="2.10093">
        <ele>333.3</ele>
        <time>2015-10-31T08:51:40Z</time>
      </trkpt>
      <trkpt lat="44.52041" lon="2.10096">
        <ele>333</ele>
        <time>2015-10-31T08:51:42Z</time>
      </trkpt>
      <trkpt lat="44.52038" lon="2.10098">
        <ele>332.5</ele>
        <time>2015-10-31T08:51:43Z</time>
      </trkpt>
      <trkpt lat="44.52035" lon="2.10099">
        <ele>332</ele>
        <time>2015-10-31T08:51:44Z</time>
      </trkpt>
      <trkpt lat="44.52033" lon="2.10099">
        <ele>331.6</ele>
        <time>2015-10-31T08:51:45Z</time>
      </trkpt>
      <trkpt lat="44.52028" lon="2.10099">
        <ele>330.9</ele>
        <time>2015-10-31T08:51:47Z</time>
      </trkpt>
      <trkpt lat="44.52023" lon="2.10097">
        <ele>330.4</ele>
        <time>2015-10-31T08:51:49Z</time>
      </trkpt>
      <trkpt lat="44.5202" lon="2.10097">
        <ele>330</ele>
        <time>2015-10-31T08:51:50Z</time>
      </trkpt>
      <trkpt lat="44.52017" lon="2.10095">
        <ele>329.7</ele>
        <time>2015-10-31T08:51:51Z</time>
      </trkpt>
      <trkpt lat="44.52014" lon="2.10094">
        <ele>329.3</ele>
        <time>2015-10-31T08:51:52Z</time>
      </trkpt>
      <trkpt lat="44.52009" lon="2.10092">
        <ele>328.7</ele>
        <time>2015-10-31T08:51:54Z</time>
      </trkpt>
      <trkpt lat="44.52005" lon="2.1009">
        <ele>328.2</ele>
        <time>2015-10-31T08:51:56Z</time>
      </trkpt>
      <trkpt lat="44.52002" lon="2.10086">
        <ele>327.9</ele>
        <time>2015-10-31T08:51:57Z</time>
      </trkpt>
      <trkpt lat="44.51999" lon="2.10083">
        <ele>327.6</ele>
        <time>2015-10-31T08:51:59Z</time>
      </trkpt>
      <trkpt lat="44.51996" lon="2.10079">
        <ele>327.3</ele>
        <time>2015-10-31T08:52:01Z</time>
      </trkpt>
      <trkpt lat="44.51992" lon="2.10076">
        <ele>326.8</ele>
        <time>2015-10-31T08:52:03Z</time>
      </trkpt>
      <trkpt lat="44.5199" lon="2.10072">
        <ele>326.7</ele>
        <time>2015-10-31T08:52:04Z</time>
      </trkpt>
      <trkpt lat="44.51988" lon="2.10067">
        <ele>326.5</ele>
        <time>2015-10-31T08:52:06Z</time>
      </trkpt>
      <trkpt lat="44.51986" lon="2.10062">
        <ele>326.4</ele>
        <time>2015-10-31T08:52:07Z</time>
      </trkpt>
      <trkpt lat="44.51985" lon="2.10058">
        <ele>326.2</ele>
        <time>2015-10-31T08:52:08Z</time>
      </trkpt>
      <trkpt lat="44.51982" lon="2.10053">
        <ele>326</ele>
        <time>2015-10-31T08:52:10Z</time>
      </trkpt>
      <trkpt lat="44.5198" lon="2.10049">
        <ele>325.6</ele>
        <time>2015-10-31T08:52:12Z</time>
      </trkpt>
      <trkpt lat="44.51977" lon="2.10046">
        <ele>325.2</ele>
        <time>2015-10-31T08:52:14Z</time>
      </trkpt>
      <trkpt lat="44.51977" lon="2.10042">
        <ele>325.4</ele>
        <time>2015-10-31T08:52:17Z</time>
      </trkpt>
      <trkpt lat="44.51979" lon="2.10037">
        <ele>325.6</ele>
        <time>2015-10-31T08:52:19Z</time>
      </trkpt>
      <trkpt lat="44.51979" lon="2.1003">
        <ele>325.5</ele>
        <time>2015-10-31T08:52:21Z</time>
      </trkpt>
      <trkpt lat="44.5198" lon="2.10023">
        <ele>325.4</ele>
        <time>2015-10-31T08:52:23Z</time>
      </trkpt>
      <trkpt lat="44.51981" lon="2.10016">
        <ele>325.4</ele>
        <time>2015-10-31T08:52:25Z</time>
      </trkpt>
      <trkpt lat="44.51981" lon="2.10009">
        <ele>325.4</ele>
        <time>2015-10-31T08:52:27Z</time>
      </trkpt>
      <trkpt lat="44.51981" lon="2.10005">
        <ele>325.3</ele>
        <time>2015-10-31T08:52:28Z</time>
      </trkpt>
      <trkpt lat="44.51982" lon="2.09998">
        <ele>325.2</ele>
        <time>2015-10-31T08:52:30Z</time>
      </trkpt>
      <trkpt lat="44.51981" lon="2.09992">
        <ele>324.9</ele>
        <time>2015-10-31T08:52:32Z</time>
      </trkpt>
      <trkpt lat="44.51979" lon="2.09987">
        <ele>324.4</ele>
        <time>2015-10-31T08:52:41Z</time>
      </trkpt>
      <trkpt lat="44.51981" lon="2.09981">
        <ele>324.6</ele>
        <time>2015-10-31T08:52:45Z</time>
      </trkpt>
      <trkpt lat="44.51983" lon="2.09975">
        <ele>324.9</ele>
        <time>2015-10-31T08:52:47Z</time>
      </trkpt>
      <trkpt lat="44.51985" lon="2.0997">
        <ele>325.3</ele>
        <time>2015-10-31T08:52:49Z</time>
      </trkpt>
      <trkpt lat="44.51986" lon="2.09963">
        <ele>325.4</ele>
        <time>2015-10-31T08:52:51Z</time>
      </trkpt>
      <trkpt lat="44.51988" lon="2.09953">
        <ele>325.7</ele>
        <time>2015-10-31T08:52:54Z</time>
      </trkpt>
      <trkpt lat="44.51989" lon="2.09946">
        <ele>325.8</ele>
        <time>2015-10-31T08:52:56Z</time>
      </trkpt>
      <trkpt lat="44.5199" lon="2.09942">
        <ele>325.9</ele>
        <time>2015-10-31T08:52:58Z</time>
      </trkpt>
      <trkpt lat="44.5199" lon="2.09936">
        <ele>326</ele>
        <time>2015-10-31T08:53:03Z</time>
      </trkpt>
      <trkpt lat="44.51991" lon="2.09932">
        <ele>326.2</ele>
        <time>2015-10-31T08:53:05Z</time>
      </trkpt>
      <trkpt lat="44.51991" lon="2.09928">
        <ele>326.2</ele>
        <time>2015-10-31T08:53:07Z</time>
      </trkpt>
      <trkpt lat="44.51991" lon="2.09924">
        <ele>326.2</ele>
        <time>2015-10-31T08:53:09Z</time>
      </trkpt>
      <trkpt lat="44.51993" lon="2.09918">
        <ele>326.4</ele>
        <time>2015-10-31T08:53:11Z</time>
      </trkpt>
      <trkpt lat="44.51994" lon="2.09913">
        <ele>326.7</ele>
        <time>2015-10-31T08:53:13Z</time>
      </trkpt>
      <trkpt lat="44.51994" lon="2.09906">
        <ele>326.7</ele>
        <time>2015-10-31T08:53:15Z</time>
      </trkpt>
      <trkpt lat="44.51994" lon="2.09901">
        <ele>326.5</ele>
        <time>2015-10-31T08:53:17Z</time>
      </trkpt>
      <trkpt lat="44.51994" lon="2.09895">
        <ele>326.5</ele>
        <time>2015-10-31T08:53:19Z</time>
      </trkpt>
      <trkpt lat="44.51997" lon="2.0989">
        <ele>327.3</ele>
        <time>2015-10-31T08:53:21Z</time>
      </trkpt>
      <trkpt lat="44.51997" lon="2.09884">
        <ele>327.3</ele>
        <time>2015-10-31T08:53:23Z</time>
      </trkpt>
      <trkpt lat="44.51997" lon="2.09879">
        <ele>327.2</ele>
        <time>2015-10-31T08:53:25Z</time>
      </trkpt>
      <trkpt lat="44.51996" lon="2.09873">
        <ele>326.9</ele>
        <time>2015-10-31T08:53:27Z</time>
      </trkpt>
      <trkpt lat="44.51997" lon="2.09868">
        <ele>327.2</ele>
        <time>2015-10-31T08:53:29Z</time>
      </trkpt>
      <trkpt lat="44.51998" lon="2.09864">
        <ele>327.4</ele>
        <time>2015-10-31T08:53:31Z</time>
      </trkpt>
      <trkpt lat="44.51998" lon="2.09859">
        <ele>327.5</ele>
        <time>2015-10-31T08:53:33Z</time>
      </trkpt>
      <trkpt lat="44.51999" lon="2.09855">
        <ele>327.8</ele>
        <time>2015-10-31T08:53:35Z</time>
      </trkpt>
      <trkpt lat="44.52" lon="2.09849">
        <ele>328.1</ele>
        <time>2015-10-31T08:53:37Z</time>
      </trkpt>
      <trkpt lat="44.52" lon="2.09844">
        <ele>328.1</ele>
        <time>2015-10-31T08:53:39Z</time>
      </trkpt>
      <trkpt lat="44.51999" lon="2.0984">
        <ele>327.8</ele>
        <time>2015-10-31T08:53:41Z</time>
      </trkpt>
      <trkpt lat="44.52" lon="2.09835">
        <ele>327.9</ele>
        <time>2015-10-31T08:53:43Z</time>
      </trkpt>
      <trkpt lat="44.52" lon="2.0983">
        <ele>328.1</ele>
        <time>2015-10-31T08:53:45Z</time>
      </trkpt>
      <trkpt lat="44.52001" lon="2.09825">
        <ele>328.3</ele>
        <time>2015-10-31T08:53:47Z</time>
      </trkpt>
      <trkpt lat="44.52001" lon="2.0982">
        <ele>328.3</ele>
        <time>2015-10-31T08:53:49Z</time>
      </trkpt>
      <trkpt lat="44.52" lon="2.09814">
        <ele>328</ele>
        <time>2015-10-31T08:53:51Z</time>
      </trkpt>
      <trkpt lat="44.52" lon="2.09806">
        <ele>328.1</ele>
        <time>2015-10-31T08:53:53Z</time>
      </trkpt>
      <trkpt lat="44.52002" lon="2.09799">
        <ele>328.4</ele>
        <time>2015-10-31T08:53:55Z</time>
      </trkpt>
      <trkpt lat="44.52002" lon="2.09795">
        <ele>328.7</ele>
        <time>2015-10-31T08:53:56Z</time>
      </trkpt>
      <trkpt lat="44.52003" lon="2.09792">
        <ele>328.9</ele>
        <time>2015-10-31T08:53:57Z</time>
      </trkpt>
      <trkpt lat="44.52004" lon="2.09788">
        <ele>329</ele>
        <time>2015-10-31T08:53:58Z</time>
      </trkpt>
      <trkpt lat="44.52005" lon="2.09784">
        <ele>329.2</ele>
        <time>2015-10-31T08:53:59Z</time>
      </trkpt>
      <trkpt lat="44.52007" lon="2.0978">
        <ele>329.4</ele>
        <time>2015-10-31T08:54:00Z</time>
      </trkpt>
      <trkpt lat="44.52009" lon="2.09773">
        <ele>329.8</ele>
        <time>2015-10-31T08:54:02Z</time>
      </trkpt>
      <trkpt lat="44.52012" lon="2.09767">
        <ele>330.4</ele>
        <time>2015-10-31T08:54:04Z</time>
      </trkpt>
      <trkpt lat="44.52016" lon="2.09761">
        <ele>331.1</ele>
        <time>2015-10-31T08:54:06Z</time>
      </trkpt>
      <trkpt lat="44.52018" lon="2.09758">
        <ele>331.4</ele>
        <time>2015-10-31T08:54:07Z</time>
      </trkpt>
      <trkpt lat="44.52019" lon="2.09754">
        <ele>331.8</ele>
        <time>2015-10-31T08:54:08Z</time>
      </trkpt>
      <trkpt lat="44.52023" lon="2.09748">
        <ele>332.6</ele>
        <time>2015-10-31T08:54:10Z</time>
      </trkpt>
      <trkpt lat="44.52025" lon="2.09744">
        <ele>333</ele>
        <time>2015-10-31T08:54:11Z</time>
      </trkpt>
      <trkpt lat="44.52027" lon="2.09739">
        <ele>333.3</ele>
        <time>2015-10-31T08:54:13Z</time>
      </trkpt>
      <trkpt lat="44.52028" lon="2.09735">
        <ele>333.4</ele>
        <time>2015-10-31T08:54:14Z</time>
      </trkpt>
      <trkpt lat="44.52031" lon="2.09729">
        <ele>333.9</ele>
        <time>2015-10-31T08:54:16Z</time>
      </trkpt>
      <trkpt lat="44.52033" lon="2.09726">
        <ele>334.2</ele>
        <time>2015-10-31T08:54:17Z</time>
      </trkpt>
      <trkpt lat="44.52036" lon="2.09721">
        <ele>335</ele>
        <time>2015-10-31T08:54:19Z</time>
      </trkpt>
      <trkpt lat="44.5204" lon="2.09717">
        <ele>335.8</ele>
        <time>2015-10-31T08:54:21Z</time>
      </trkpt>
      <trkpt lat="44.52042" lon="2.09712">
        <ele>336.3</ele>
        <time>2015-10-31T08:54:23Z</time>
      </trkpt>
      <trkpt lat="44.52044" lon="2.09706">
        <ele>336.3</ele>
        <time>2015-10-31T08:54:25Z</time>
      </trkpt>
      <trkpt lat="44.52044" lon="2.09699">
        <ele>335.9</ele>
        <time>2015-10-31T08:54:27Z</time>
      </trkpt>
      <trkpt lat="44.52045" lon="2.09695">
        <ele>335.9</ele>
        <time>2015-10-31T08:54:28Z</time>
      </trkpt>
      <trkpt lat="44.52048" lon="2.0969">
        <ele>336.2</ele>
        <time>2015-10-31T08:54:30Z</time>
      </trkpt>
      <trkpt lat="44.52051" lon="2.09687">
        <ele>336.7</ele>
        <time>2015-10-31T08:54:31Z</time>
      </trkpt>
      <trkpt lat="44.52053" lon="2.09685">
        <ele>336.9</ele>
        <time>2015-10-31T08:54:32Z</time>
      </trkpt>
      <trkpt lat="44.52055" lon="2.09682">
        <ele>337.1</ele>
        <time>2015-10-31T08:54:33Z</time>
      </trkpt>
      <trkpt lat="44.52059" lon="2.09676">
        <ele>337.4</ele>
        <time>2015-10-31T08:54:35Z</time>
      </trkpt>
      <trkpt lat="44.52061" lon="2.0967">
        <ele>337.7</ele>
        <time>2015-10-31T08:54:37Z</time>
      </trkpt>
      <trkpt lat="44.52063" lon="2.09663">
        <ele>337.7</ele>
        <time>2015-10-31T08:54:39Z</time>
      </trkpt>
      <trkpt lat="44.52064" lon="2.09656">
        <ele>337.6</ele>
        <time>2015-10-31T08:54:41Z</time>
      </trkpt>
      <trkpt lat="44.52065" lon="2.09652">
        <ele>337.6</ele>
        <time>2015-10-31T08:54:42Z</time>
      </trkpt>
      <trkpt lat="44.52066" lon="2.09649">
        <ele>337.6</ele>
        <time>2015-10-31T08:54:43Z</time>
      </trkpt>
      <trkpt lat="44.52067" lon="2.09645">
        <ele>337.7</ele>
        <time>2015-10-31T08:54:44Z</time>
      </trkpt>
      <trkpt lat="44.52068" lon="2.09642">
        <ele>337.8</ele>
        <time>2015-10-31T08:54:45Z</time>
      </trkpt>
      <trkpt lat="44.52069" lon="2.09638">
        <ele>337.8</ele>
        <time>2015-10-31T08:54:46Z</time>
      </trkpt>
      <trkpt lat="44.5207" lon="2.09634">
        <ele>337.8</ele>
        <time>2015-10-31T08:54:47Z</time>
      </trkpt>
      <trkpt lat="44.52071" lon="2.0963">
        <ele>337.8</ele>
        <time>2015-10-31T08:54:48Z</time>
      </trkpt>
      <trkpt lat="44.52072" lon="2.09627">
        <ele>337.9</ele>
        <time>2015-10-31T08:54:49Z</time>
      </trkpt>
      <trkpt lat="44.52073" lon="2.09623">
        <ele>338.1</ele>
        <time>2015-10-31T08:54:50Z</time>
      </trkpt>
      <trkpt lat="44.52073" lon="2.09619">
        <ele>338.4</ele>
        <time>2015-10-31T08:54:51Z</time>
      </trkpt>
      <trkpt lat="44.52074" lon="2.09615">
        <ele>338.8</ele>
        <time>2015-10-31T08:54:52Z</time>
      </trkpt>
      <trkpt lat="44.52075" lon="2.0961">
        <ele>339.1</ele>
        <time>2015-10-31T08:54:53Z</time>
      </trkpt>
      <trkpt lat="44.52076" lon="2.09606">
        <ele>339.5</ele>
        <time>2015-10-31T08:54:54Z</time>
      </trkpt>
      <trkpt lat="44.52077" lon="2.09601">
        <ele>339.9</ele>
        <time>2015-10-31T08:54:55Z</time>
      </trkpt>
      <trkpt lat="44.52078" lon="2.09598">
        <ele>340.3</ele>
        <time>2015-10-31T08:54:56Z</time>
      </trkpt>
      <trkpt lat="44.52079" lon="2.09593">
        <ele>340.7</ele>
        <time>2015-10-31T08:54:57Z</time>
      </trkpt>
      <trkpt lat="44.5208" lon="2.09589">
        <ele>341.1</ele>
        <time>2015-10-31T08:54:58Z</time>
      </trkpt>
      <trkpt lat="44.5208" lon="2.09584">
        <ele>341.3</ele>
        <time>2015-10-31T08:54:59Z</time>
      </trkpt>
      <trkpt lat="44.5208" lon="2.0958">
        <ele>341.5</ele>
        <time>2015-10-31T08:55:00Z</time>
      </trkpt>
      <trkpt lat="44.5208" lon="2.09576">
        <ele>341.8</ele>
        <time>2015-10-31T08:55:01Z</time>
      </trkpt>
      <trkpt lat="44.52081" lon="2.09572">
        <ele>342.1</ele>
        <time>2015-10-31T08:55:02Z</time>
      </trkpt>
      <trkpt lat="44.52082" lon="2.09568">
        <ele>342.5</ele>
        <time>2015-10-31T08:55:03Z</time>
      </trkpt>
      <trkpt lat="44.52083" lon="2.09564">
        <ele>342.9</ele>
        <time>2015-10-31T08:55:04Z</time>
      </trkpt>
      <trkpt lat="44.52084" lon="2.0956">
        <ele>343.2</ele>
        <time>2015-10-31T08:55:05Z</time>
      </trkpt>
      <trkpt lat="44.52084" lon="2.09555">
        <ele>343.5</ele>
        <time>2015-10-31T08:55:06Z</time>
      </trkpt>
      <trkpt lat="44.52084" lon="2.0955">
        <ele>343.7</ele>
        <time>2015-10-31T08:55:07Z</time>
      </trkpt>
      <trkpt lat="44.52084" lon="2.09546">
        <ele>343.9</ele>
        <time>2015-10-31T08:55:08Z</time>
      </trkpt>
      <trkpt lat="44.52083" lon="2.0954">
        <ele>344</ele>
        <time>2015-10-31T08:55:09Z</time>
      </trkpt>
      <trkpt lat="44.52081" lon="2.09535">
        <ele>343.9</ele>
        <time>2015-10-31T08:55:10Z</time>
      </trkpt>
      <trkpt lat="44.5208" lon="2.09531">
        <ele>343.8</ele>
        <time>2015-10-31T08:55:11Z</time>
      </trkpt>
      <trkpt lat="44.52079" lon="2.09527">
        <ele>343.7</ele>
        <time>2015-10-31T08:55:12Z</time>
      </trkpt>
      <trkpt lat="44.52078" lon="2.09523">
        <ele>343.7</ele>
        <time>2015-10-31T08:55:13Z</time>
      </trkpt>
      <trkpt lat="44.52078" lon="2.09519">
        <ele>343.7</ele>
        <time>2015-10-31T08:55:14Z</time>
      </trkpt>
      <trkpt lat="44.52077" lon="2.09515">
        <ele>343.7</ele>
        <time>2015-10-31T08:55:15Z</time>
      </trkpt>
      <trkpt lat="44.52077" lon="2.0951">
        <ele>343.9</ele>
        <time>2015-10-31T08:55:16Z</time>
      </trkpt>
      <trkpt lat="44.52077" lon="2.09505">
        <ele>344</ele>
        <time>2015-10-31T08:55:17Z</time>
      </trkpt>
      <trkpt lat="44.52077" lon="2.09501">
        <ele>344.1</ele>
        <time>2015-10-31T08:55:18Z</time>
      </trkpt>
      <trkpt lat="44.52077" lon="2.09497">
        <ele>344.2</ele>
        <time>2015-10-31T08:55:19Z</time>
      </trkpt>
      <trkpt lat="44.52077" lon="2.09493">
        <ele>344.3</ele>
        <time>2015-10-31T08:55:20Z</time>
      </trkpt>
      <trkpt lat="44.52077" lon="2.09489">
        <ele>344.5</ele>
        <time>2015-10-31T08:55:21Z</time>
      </trkpt>
      <trkpt lat="44.52077" lon="2.09485">
        <ele>344.6</ele>
        <time>2015-10-31T08:55:22Z</time>
      </trkpt>
      <trkpt lat="44.52078" lon="2.09481">
        <ele>344.8</ele>
        <time>2015-10-31T08:55:23Z</time>
      </trkpt>
      <trkpt lat="44.52078" lon="2.09475">
        <ele>345.1</ele>
        <time>2015-10-31T08:55:25Z</time>
      </trkpt>
      <trkpt lat="44.52078" lon="2.09468">
        <ele>345.2</ele>
        <time>2015-10-31T08:55:27Z</time>
      </trkpt>
      <trkpt lat="44.52077" lon="2.09464">
        <ele>345.2</ele>
        <time>2015-10-31T08:55:28Z</time>
      </trkpt>
      <trkpt lat="44.52077" lon="2.0946">
        <ele>345.2</ele>
        <time>2015-10-31T08:55:29Z</time>
      </trkpt>
      <trkpt lat="44.52076" lon="2.09456">
        <ele>345.1</ele>
        <time>2015-10-31T08:55:30Z</time>
      </trkpt>
      <trkpt lat="44.52075" lon="2.09451">
        <ele>344.6</ele>
        <time>2015-10-31T08:55:32Z</time>
      </trkpt>
      <trkpt lat="44.52073" lon="2.09445">
        <ele>344.2</ele>
        <time>2015-10-31T08:55:34Z</time>
      </trkpt>
      <trkpt lat="44.52072" lon="2.09437">
        <ele>343.6</ele>
        <time>2015-10-31T08:55:36Z</time>
      </trkpt>
      <trkpt lat="44.52071" lon="2.09433">
        <ele>343.4</ele>
        <time>2015-10-31T08:55:37Z</time>
      </trkpt>
      <trkpt lat="44.52071" lon="2.09429">
        <ele>343.3</ele>
        <time>2015-10-31T08:55:38Z</time>
      </trkpt>
      <trkpt lat="44.52072" lon="2.09425">
        <ele>343.2</ele>
        <time>2015-10-31T08:55:39Z</time>
      </trkpt>
      <trkpt lat="44.52072" lon="2.09421">
        <ele>343.1</ele>
        <time>2015-10-31T08:55:40Z</time>
      </trkpt>
      <trkpt lat="44.52072" lon="2.09416">
        <ele>343</ele>
        <time>2015-10-31T08:55:41Z</time>
      </trkpt>
      <trkpt lat="44.52073" lon="2.09411">
        <ele>342.8</ele>
        <time>2015-10-31T08:55:42Z</time>
      </trkpt>
      <trkpt lat="44.52073" lon="2.09406">
        <ele>342.6</ele>
        <time>2015-10-31T08:55:43Z</time>
      </trkpt>
      <trkpt lat="44.52073" lon="2.09401">
        <ele>342.5</ele>
        <time>2015-10-31T08:55:44Z</time>
      </trkpt>
      <trkpt lat="44.52073" lon="2.09396">
        <ele>342.3</ele>
        <time>2015-10-31T08:55:45Z</time>
      </trkpt>
      <trkpt lat="44.52073" lon="2.09391">
        <ele>342.2</ele>
        <time>2015-10-31T08:55:46Z</time>
      </trkpt>
      <trkpt lat="44.52074" lon="2.09387">
        <ele>342</ele>
        <time>2015-10-31T08:55:47Z</time>
      </trkpt>
      <trkpt lat="44.52075" lon="2.09382">
        <ele>342.1</ele>
        <time>2015-10-31T08:55:48Z</time>
      </trkpt>
      <trkpt lat="44.52077" lon="2.09377">
        <ele>342.2</ele>
        <time>2015-10-31T08:55:49Z</time>
      </trkpt>
      <trkpt lat="44.52078" lon="2.09371">
        <ele>342.6</ele>
        <time>2015-10-31T08:55:50Z</time>
      </trkpt>
      <trkpt lat="44.52078" lon="2.09364">
        <ele>343.2</ele>
        <time>2015-10-31T08:55:51Z</time>
      </trkpt>
      <trkpt lat="44.52077" lon="2.09355">
        <ele>343.8</ele>
        <time>2015-10-31T08:55:52Z</time>
      </trkpt>
      <trkpt lat="44.52077" lon="2.09349">
        <ele>344.3</ele>
        <time>2015-10-31T08:55:53Z</time>
      </trkpt>
      <trkpt lat="44.52078" lon="2.09344">
        <ele>344.8</ele>
        <time>2015-10-31T08:55:54Z</time>
      </trkpt>
      <trkpt lat="44.52079" lon="2.09336">
        <ele>345.5</ele>
        <time>2015-10-31T08:55:55Z</time>
      </trkpt>
      <trkpt lat="44.52079" lon="2.0933">
        <ele>346.2</ele>
        <time>2015-10-31T08:55:56Z</time>
      </trkpt>
      <trkpt lat="44.5208" lon="2.09322">
        <ele>346.8</ele>
        <time>2015-10-31T08:55:57Z</time>
      </trkpt>
      <trkpt lat="44.5208" lon="2.09314">
        <ele>347.5</ele>
        <time>2015-10-31T08:55:58Z</time>
      </trkpt>
      <trkpt lat="44.5208" lon="2.09306">
        <ele>348.1</ele>
        <time>2015-10-31T08:55:59Z</time>
      </trkpt>
      <trkpt lat="44.52077" lon="2.09299">
        <ele>348.5</ele>
        <time>2015-10-31T08:56:00Z</time>
      </trkpt>
      <trkpt lat="44.52074" lon="2.0929">
        <ele>349.1</ele>
        <time>2015-10-31T08:56:01Z</time>
      </trkpt>
      <trkpt lat="44.52072" lon="2.09284">
        <ele>349.5</ele>
        <time>2015-10-31T08:56:02Z</time>
      </trkpt>
      <trkpt lat="44.52068" lon="2.09276">
        <ele>350.1</ele>
        <time>2015-10-31T08:56:03Z</time>
      </trkpt>
      <trkpt lat="44.52065" lon="2.0927">
        <ele>350.5</ele>
        <time>2015-10-31T08:56:04Z</time>
      </trkpt>
      <trkpt lat="44.52062" lon="2.09262">
        <ele>351.2</ele>
        <time>2015-10-31T08:56:05Z</time>
      </trkpt>
      <trkpt lat="44.52055" lon="2.09254">
        <ele>351.7</ele>
        <time>2015-10-31T08:56:07Z</time>
      </trkpt>
      <trkpt lat="44.52051" lon="2.09249">
        <ele>352</ele>
        <time>2015-10-31T08:56:08Z</time>
      </trkpt>
      <trkpt lat="44.52048" lon="2.09245">
        <ele>352.3</ele>
        <time>2015-10-31T08:56:09Z</time>
      </trkpt>
      <trkpt lat="44.52046" lon="2.0924">
        <ele>352.8</ele>
        <time>2015-10-31T08:56:10Z</time>
      </trkpt>
      <trkpt lat="44.52044" lon="2.09235">
        <ele>353.2</ele>
        <time>2015-10-31T08:56:11Z</time>
      </trkpt>
      <trkpt lat="44.52041" lon="2.0923">
        <ele>353.7</ele>
        <time>2015-10-31T08:56:12Z</time>
      </trkpt>
      <trkpt lat="44.52039" lon="2.09227">
        <ele>354</ele>
        <time>2015-10-31T08:56:13Z</time>
      </trkpt>
      <trkpt lat="44.52037" lon="2.09224">
        <ele>354.4</ele>
        <time>2015-10-31T08:56:14Z</time>
      </trkpt>
      <trkpt lat="44.52035" lon="2.0922">
        <ele>354.9</ele>
        <time>2015-10-31T08:56:15Z</time>
      </trkpt>
      <trkpt lat="44.52033" lon="2.09217">
        <ele>355.3</ele>
        <time>2015-10-31T08:56:16Z</time>
      </trkpt>
      <trkpt lat="44.52029" lon="2.09215">
        <ele>355.6</ele>
        <time>2015-10-31T08:56:17Z</time>
      </trkpt>
      <trkpt lat="44.52026" lon="2.09213">
        <ele>355.8</ele>
        <time>2015-10-31T08:56:18Z</time>
      </trkpt>
      <trkpt lat="44.52022" lon="2.09209">
        <ele>356.5</ele>
        <time>2015-10-31T08:56:20Z</time>
      </trkpt>
      <trkpt lat="44.5202" lon="2.09205">
        <ele>356.6</ele>
        <time>2015-10-31T08:56:21Z</time>
      </trkpt>
      <trkpt lat="44.52017" lon="2.09203">
        <ele>356.8</ele>
        <time>2015-10-31T08:56:22Z</time>
      </trkpt>
      <trkpt lat="44.52014" lon="2.092">
        <ele>357</ele>
        <time>2015-10-31T08:56:24Z</time>
      </trkpt>
      <trkpt lat="44.52011" lon="2.092">
        <ele>357</ele>
        <time>2015-10-31T08:56:26Z</time>
      </trkpt>
      <trkpt lat="44.52007" lon="2.09199">
        <ele>357.2</ele>
        <time>2015-10-31T08:56:28Z</time>
      </trkpt>
      <trkpt lat="44.52003" lon="2.09197">
        <ele>357.3</ele>
        <time>2015-10-31T08:56:30Z</time>
      </trkpt>
      <trkpt lat="44.51997" lon="2.09198">
        <ele>357.4</ele>
        <time>2015-10-31T08:56:32Z</time>
      </trkpt>
      <trkpt lat="44.51991" lon="2.09199">
        <ele>357.6</ele>
        <time>2015-10-31T08:56:34Z</time>
      </trkpt>
      <trkpt lat="44.51988" lon="2.09199">
        <ele>357.6</ele>
        <time>2015-10-31T08:56:35Z</time>
      </trkpt>
      <trkpt lat="44.51985" lon="2.09199">
        <ele>357.7</ele>
        <time>2015-10-31T08:56:36Z</time>
      </trkpt>
      <trkpt lat="44.51982" lon="2.09199">
        <ele>357.8</ele>
        <time>2015-10-31T08:56:37Z</time>
      </trkpt>
      <trkpt lat="44.51977" lon="2.09198">
        <ele>357.9</ele>
        <time>2015-10-31T08:56:39Z</time>
      </trkpt>
      <trkpt lat="44.51973" lon="2.092">
        <ele>357.9</ele>
        <time>2015-10-31T08:56:41Z</time>
      </trkpt>
      <trkpt lat="44.51976" lon="2.092">
        <ele>357.9</ele>
        <time>2015-10-31T08:56:43Z</time>
      </trkpt>
      <trkpt lat="44.51979" lon="2.092">
        <ele>357.8</ele>
        <time>2015-10-31T08:56:46Z</time>
      </trkpt>
      <trkpt lat="44.51974" lon="2.09199">
        <ele>358</ele>
        <time>2015-10-31T08:57:13Z</time>
      </trkpt>
      <trkpt lat="44.51969" lon="2.09194">
        <ele>358.3</ele>
        <time>2015-10-31T08:57:16Z</time>
      </trkpt>
      <trkpt lat="44.51969" lon="2.09189">
        <ele>358.4</ele>
        <time>2015-10-31T08:57:18Z</time>
      </trkpt>
      <trkpt lat="44.51971" lon="2.09185">
        <ele>358.6</ele>
        <time>2015-10-31T08:57:20Z</time>
      </trkpt>
      <trkpt lat="44.51971" lon="2.09178">
        <ele>358.8</ele>
        <time>2015-10-31T08:57:22Z</time>
      </trkpt>
      <trkpt lat="44.5197" lon="2.09171">
        <ele>359</ele>
        <time>2015-10-31T08:57:24Z</time>
      </trkpt>
      <trkpt lat="44.51971" lon="2.09165">
        <ele>359.3</ele>
        <time>2015-10-31T08:57:26Z</time>
      </trkpt>
      <trkpt lat="44.51972" lon="2.09159">
        <ele>359.5</ele>
        <time>2015-10-31T08:57:28Z</time>
      </trkpt>
      <trkpt lat="44.51971" lon="2.09154">
        <ele>359.7</ele>
        <time>2015-10-31T08:57:30Z</time>
      </trkpt>
      <trkpt lat="44.51969" lon="2.09147">
        <ele>359.9</ele>
        <time>2015-10-31T08:57:32Z</time>
      </trkpt>
      <trkpt lat="44.51968" lon="2.0914">
        <ele>360.3</ele>
        <time>2015-10-31T08:57:34Z</time>
      </trkpt>
      <trkpt lat="44.51968" lon="2.09135">
        <ele>360.4</ele>
        <time>2015-10-31T08:57:35Z</time>
      </trkpt>
      <trkpt lat="44.51969" lon="2.0913">
        <ele>360.6</ele>
        <time>2015-10-31T08:57:36Z</time>
      </trkpt>
      <trkpt lat="44.51969" lon="2.09125">
        <ele>360.7</ele>
        <time>2015-10-31T08:57:37Z</time>
      </trkpt>
      <trkpt lat="44.5197" lon="2.09121">
        <ele>360.1</ele>
        <time>2015-10-31T08:57:38Z</time>
      </trkpt>
      <trkpt lat="44.51971" lon="2.09117">
        <ele>359.6</ele>
        <time>2015-10-31T08:57:39Z</time>
      </trkpt>
      <trkpt lat="44.5197" lon="2.09111">
        <ele>358.8</ele>
        <time>2015-10-31T08:57:41Z</time>
      </trkpt>
      <trkpt lat="44.51967" lon="2.09107">
        <ele>358.3</ele>
        <time>2015-10-31T08:57:43Z</time>
      </trkpt>
      <trkpt lat="44.51965" lon="2.09102">
        <ele>357.7</ele>
        <time>2015-10-31T08:57:45Z</time>
      </trkpt>
      <trkpt lat="44.51964" lon="2.09098">
        <ele>357</ele>
        <time>2015-10-31T08:57:47Z</time>
      </trkpt>
      <trkpt lat="44.51966" lon="2.09094">
        <ele>356.5</ele>
        <time>2015-10-31T08:57:49Z</time>
      </trkpt>
      <trkpt lat="44.51965" lon="2.0909">
        <ele>355.9</ele>
        <time>2015-10-31T08:57:51Z</time>
      </trkpt>
      <trkpt lat="44.51962" lon="2.0909">
        <ele>356</ele>
        <time>2015-10-31T08:57:52Z</time>
      </trkpt>
      <trkpt lat="44.51959" lon="2.0909">
        <ele>356</ele>
        <time>2015-10-31T08:57:54Z</time>
      </trkpt>
      <trkpt lat="44.51955" lon="2.09092">
        <ele>356.3</ele>
        <time>2015-10-31T08:57:56Z</time>
      </trkpt>
      <trkpt lat="44.51952" lon="2.09094">
        <ele>356.6</ele>
        <time>2015-10-31T08:57:57Z</time>
      </trkpt>
      <trkpt lat="44.51948" lon="2.09091">
        <ele>356.4</ele>
        <time>2015-10-31T08:57:59Z</time>
      </trkpt>
      <trkpt lat="44.51945" lon="2.09088">
        <ele>356</ele>
        <time>2015-10-31T08:58:01Z</time>
      </trkpt>
      <trkpt lat="44.51941" lon="2.09087">
        <ele>355.9</ele>
        <time>2015-10-31T08:58:03Z</time>
      </trkpt>
      <trkpt lat="44.51938" lon="2.09086">
        <ele>355.9</ele>
        <time>2015-10-31T08:58:04Z</time>
      </trkpt>
      <trkpt lat="44.51932" lon="2.09085">
        <ele>355.9</ele>
        <time>2015-10-31T08:58:06Z</time>
      </trkpt>
      <trkpt lat="44.51928" lon="2.09085">
        <ele>355.9</ele>
        <time>2015-10-31T08:58:07Z</time>
      </trkpt>
      <trkpt lat="44.51922" lon="2.09085">
        <ele>356</ele>
        <time>2015-10-31T08:58:09Z</time>
      </trkpt>
      <trkpt lat="44.51916" lon="2.09084">
        <ele>356.1</ele>
        <time>2015-10-31T08:58:11Z</time>
      </trkpt>
      <trkpt lat="44.51912" lon="2.09084">
        <ele>356.2</ele>
        <time>2015-10-31T08:58:12Z</time>
      </trkpt>
      <trkpt lat="44.51908" lon="2.09083">
        <ele>356.2</ele>
        <time>2015-10-31T08:58:13Z</time>
      </trkpt>
      <trkpt lat="44.51905" lon="2.09083">
        <ele>356.3</ele>
        <time>2015-10-31T08:58:14Z</time>
      </trkpt>
      <trkpt lat="44.51901" lon="2.09083">
        <ele>356.3</ele>
        <time>2015-10-31T08:58:15Z</time>
      </trkpt>
      <trkpt lat="44.51898" lon="2.09083">
        <ele>356.4</ele>
        <time>2015-10-31T08:58:16Z</time>
      </trkpt>
      <trkpt lat="44.51895" lon="2.09083">
        <ele>356.4</ele>
        <time>2015-10-31T08:58:17Z</time>
      </trkpt>
      <trkpt lat="44.51892" lon="2.09083">
        <ele>356.5</ele>
        <time>2015-10-31T08:58:18Z</time>
      </trkpt>
      <trkpt lat="44.51886" lon="2.09084">
        <ele>356.8</ele>
        <time>2015-10-31T08:58:20Z</time>
      </trkpt>
      <trkpt lat="44.51881" lon="2.09084">
        <ele>356.9</ele>
        <time>2015-10-31T08:58:22Z</time>
      </trkpt>
      <trkpt lat="44.51877" lon="2.09083">
        <ele>356.9</ele>
        <time>2015-10-31T08:58:24Z</time>
      </trkpt>
      <trkpt lat="44.51873" lon="2.09085">
        <ele>357.4</ele>
        <time>2015-10-31T08:58:26Z</time>
      </trkpt>
      <trkpt lat="44.51869" lon="2.09089">
        <ele>358.1</ele>
        <time>2015-10-31T08:58:28Z</time>
      </trkpt>
      <trkpt lat="44.51864" lon="2.09091">
        <ele>358.8</ele>
        <time>2015-10-31T08:58:30Z</time>
      </trkpt>
      <trkpt lat="44.51862" lon="2.09088">
        <ele>358.8</ele>
        <time>2015-10-31T08:58:31Z</time>
      </trkpt>
      <trkpt lat="44.51857" lon="2.09087">
        <ele>359.1</ele>
        <time>2015-10-31T08:58:33Z</time>
      </trkpt>
      <trkpt lat="44.51853" lon="2.09086">
        <ele>359.4</ele>
        <time>2015-10-31T08:58:35Z</time>
      </trkpt>
      <trkpt lat="44.51848" lon="2.09086">
        <ele>359.9</ele>
        <time>2015-10-31T08:58:37Z</time>
      </trkpt>
      <trkpt lat="44.51844" lon="2.09087">
        <ele>360.5</ele>
        <time>2015-10-31T08:58:39Z</time>
      </trkpt>
      <trkpt lat="44.51839" lon="2.0909">
        <ele>361</ele>
        <time>2015-10-31T08:58:41Z</time>
      </trkpt>
      <trkpt lat="44.51836" lon="2.09091">
        <ele>361.4</ele>
        <time>2015-10-31T08:58:42Z</time>
      </trkpt>
      <trkpt lat="44.51831" lon="2.09093">
        <ele>362</ele>
        <time>2015-10-31T08:58:44Z</time>
      </trkpt>
      <trkpt lat="44.51828" lon="2.09093">
        <ele>362.3</ele>
        <time>2015-10-31T08:58:45Z</time>
      </trkpt>
      <trkpt lat="44.51825" lon="2.09095">
        <ele>362.6</ele>
        <time>2015-10-31T08:58:46Z</time>
      </trkpt>
      <trkpt lat="44.51822" lon="2.09096">
        <ele>362.9</ele>
        <time>2015-10-31T08:58:47Z</time>
      </trkpt>
      <trkpt lat="44.5182" lon="2.09098">
        <ele>363.2</ele>
        <time>2015-10-31T08:58:48Z</time>
      </trkpt>
      <trkpt lat="44.51815" lon="2.09101">
        <ele>363.7</ele>
        <time>2015-10-31T08:58:50Z</time>
      </trkpt>
      <trkpt lat="44.51811" lon="2.09099">
        <ele>364</ele>
        <time>2015-10-31T08:58:52Z</time>
      </trkpt>
      <trkpt lat="44.51805" lon="2.09098">
        <ele>364.5</ele>
        <time>2015-10-31T08:58:54Z</time>
      </trkpt>
      <trkpt lat="44.518" lon="2.09098">
        <ele>364.9</ele>
        <time>2015-10-31T08:58:56Z</time>
      </trkpt>
      <trkpt lat="44.51795" lon="2.091">
        <ele>365.4</ele>
        <time>2015-10-31T08:58:58Z</time>
      </trkpt>
      <trkpt lat="44.51793" lon="2.091">
        <ele>365.6</ele>
        <time>2015-10-31T08:58:59Z</time>
      </trkpt>
      <trkpt lat="44.51787" lon="2.09102">
        <ele>366.3</ele>
        <time>2015-10-31T08:59:01Z</time>
      </trkpt>
      <trkpt lat="44.51783" lon="2.09104">
        <ele>367</ele>
        <time>2015-10-31T08:59:03Z</time>
      </trkpt>
      <trkpt lat="44.51779" lon="2.09105">
        <ele>367.5</ele>
        <time>2015-10-31T08:59:05Z</time>
      </trkpt>
      <trkpt lat="44.51774" lon="2.09103">
        <ele>368.1</ele>
        <time>2015-10-31T08:59:07Z</time>
      </trkpt>
      <trkpt lat="44.51769" lon="2.09102">
        <ele>368.8</ele>
        <time>2015-10-31T08:59:09Z</time>
      </trkpt>
      <trkpt lat="44.51764" lon="2.09101">
        <ele>369.4</ele>
        <time>2015-10-31T08:59:11Z</time>
      </trkpt>
      <trkpt lat="44.5176" lon="2.091">
        <ele>370</ele>
        <time>2015-10-31T08:59:13Z</time>
      </trkpt>
      <trkpt lat="44.51757" lon="2.09099">
        <ele>370.4</ele>
        <time>2015-10-31T08:59:14Z</time>
      </trkpt>
      <trkpt lat="44.51754" lon="2.09098">
        <ele>370.8</ele>
        <time>2015-10-31T08:59:15Z</time>
      </trkpt>
      <trkpt lat="44.51748" lon="2.09095">
        <ele>371.6</ele>
        <time>2015-10-31T08:59:17Z</time>
      </trkpt>
      <trkpt lat="44.51744" lon="2.09091">
        <ele>372.1</ele>
        <time>2015-10-31T08:59:19Z</time>
      </trkpt>
      <trkpt lat="44.51742" lon="2.09089">
        <ele>372.4</ele>
        <time>2015-10-31T08:59:20Z</time>
      </trkpt>
      <trkpt lat="44.51738" lon="2.09084">
        <ele>372.9</ele>
        <time>2015-10-31T08:59:22Z</time>
      </trkpt>
      <trkpt lat="44.51737" lon="2.09078">
        <ele>373.1</ele>
        <time>2015-10-31T08:59:24Z</time>
      </trkpt>
      <trkpt lat="44.51734" lon="2.09073">
        <ele>373.5</ele>
        <time>2015-10-31T08:59:26Z</time>
      </trkpt>
      <trkpt lat="44.51731" lon="2.09069">
        <ele>373.9</ele>
        <time>2015-10-31T08:59:28Z</time>
      </trkpt>
      <trkpt lat="44.51729" lon="2.09065">
        <ele>374.1</ele>
        <time>2015-10-31T08:59:30Z</time>
      </trkpt>
      <trkpt lat="44.51726" lon="2.0906">
        <ele>374.5</ele>
        <time>2015-10-31T09:00:20Z</time>
      </trkpt>
      <trkpt lat="44.51723" lon="2.09058">
        <ele>374.9</ele>
        <time>2015-10-31T09:00:22Z</time>
      </trkpt>
      <trkpt lat="44.51721" lon="2.09055">
        <ele>375.2</ele>
        <time>2015-10-31T09:00:24Z</time>
      </trkpt>
      <trkpt lat="44.51718" lon="2.09051">
        <ele>375.7</ele>
        <time>2015-10-31T09:00:26Z</time>
      </trkpt>
      <trkpt lat="44.51715" lon="2.09047">
        <ele>376</ele>
        <time>2015-10-31T09:00:28Z</time>
      </trkpt>
      <trkpt lat="44.51714" lon="2.09044">
        <ele>376.2</ele>
        <time>2015-10-31T09:00:29Z</time>
      </trkpt>
      <trkpt lat="44.51711" lon="2.09037">
        <ele>376.1</ele>
        <time>2015-10-31T09:00:31Z</time>
      </trkpt>
      <trkpt lat="44.51709" lon="2.09034">
        <ele>375.9</ele>
        <time>2015-10-31T09:00:32Z</time>
      </trkpt>
      <trkpt lat="44.51707" lon="2.09031">
        <ele>375.6</ele>
        <time>2015-10-31T09:00:33Z</time>
      </trkpt>
      <trkpt lat="44.51705" lon="2.09027">
        <ele>375.3</ele>
        <time>2015-10-31T09:00:34Z</time>
      </trkpt>
      <trkpt lat="44.51703" lon="2.09025">
        <ele>375.2</ele>
        <time>2015-10-31T09:00:35Z</time>
      </trkpt>
      <trkpt lat="44.51699" lon="2.0902">
        <ele>374.8</ele>
        <time>2015-10-31T09:00:37Z</time>
      </trkpt>
      <trkpt lat="44.51697" lon="2.09017">
        <ele>374.6</ele>
        <time>2015-10-31T09:00:38Z</time>
      </trkpt>
      <trkpt lat="44.51695" lon="2.09014">
        <ele>374.4</ele>
        <time>2015-10-31T09:00:39Z</time>
      </trkpt>
      <trkpt lat="44.51693" lon="2.09012">
        <ele>374.3</ele>
        <time>2015-10-31T09:00:40Z</time>
      </trkpt>
      <trkpt lat="44.51689" lon="2.09007">
        <ele>374.1</ele>
        <time>2015-10-31T09:00:42Z</time>
      </trkpt>
      <trkpt lat="44.51685" lon="2.09003">
        <ele>373.8</ele>
        <time>2015-10-31T09:00:44Z</time>
      </trkpt>
      <trkpt lat="44.51683" lon="2.09">
        <ele>373.7</ele>
        <time>2015-10-31T09:00:45Z</time>
      </trkpt>
      <trkpt lat="44.5168" lon="2.08998">
        <ele>373.6</ele>
        <time>2015-10-31T09:00:46Z</time>
      </trkpt>
      <trkpt lat="44.51678" lon="2.08996">
        <ele>373.6</ele>
        <time>2015-10-31T09:00:47Z</time>
      </trkpt>
      <trkpt lat="44.51676" lon="2.08994">
        <ele>373.5</ele>
        <time>2015-10-31T09:00:48Z</time>
      </trkpt>
      <trkpt lat="44.51673" lon="2.08992">
        <ele>373.5</ele>
        <time>2015-10-31T09:00:49Z</time>
      </trkpt>
      <trkpt lat="44.51669" lon="2.08988">
        <ele>373.3</ele>
        <time>2015-10-31T09:00:51Z</time>
      </trkpt>
      <trkpt lat="44.51665" lon="2.08984">
        <ele>373.2</ele>
        <time>2015-10-31T09:00:53Z</time>
      </trkpt>
      <trkpt lat="44.51661" lon="2.08981">
        <ele>373.2</ele>
        <time>2015-10-31T09:00:55Z</time>
      </trkpt>
      <trkpt lat="44.51657" lon="2.08977">
        <ele>373.1</ele>
        <time>2015-10-31T09:00:57Z</time>
      </trkpt>
      <trkpt lat="44.51653" lon="2.08974">
        <ele>373.2</ele>
        <time>2015-10-31T09:00:59Z</time>
      </trkpt>
      <trkpt lat="44.51649" lon="2.08971">
        <ele>373.2</ele>
        <time>2015-10-31T09:01:01Z</time>
      </trkpt>
      <trkpt lat="44.51645" lon="2.08971">
        <ele>373.5</ele>
        <time>2015-10-31T09:01:02Z</time>
      </trkpt>
      <trkpt lat="44.51642" lon="2.0897">
        <ele>373.6</ele>
        <time>2015-10-31T09:01:03Z</time>
      </trkpt>
      <trkpt lat="44.5164" lon="2.08968">
        <ele>373.6</ele>
        <time>2015-10-31T09:01:04Z</time>
      </trkpt>
      <trkpt lat="44.51637" lon="2.08965">
        <ele>373.6</ele>
        <time>2015-10-31T09:01:05Z</time>
      </trkpt>
      <trkpt lat="44.51632" lon="2.0896">
        <ele>373.5</ele>
        <time>2015-10-31T09:01:07Z</time>
      </trkpt>
      <trkpt lat="44.51629" lon="2.08957">
        <ele>373.5</ele>
        <time>2015-10-31T09:01:08Z</time>
      </trkpt>
      <trkpt lat="44.51626" lon="2.08954">
        <ele>373.7</ele>
        <time>2015-10-31T09:01:09Z</time>
      </trkpt>
      <trkpt lat="44.51623" lon="2.08951">
        <ele>373.8</ele>
        <time>2015-10-31T09:01:10Z</time>
      </trkpt>
      <trkpt lat="44.51621" lon="2.08949">
        <ele>373.9</ele>
        <time>2015-10-31T09:01:11Z</time>
      </trkpt>
      <trkpt lat="44.51617" lon="2.08945">
        <ele>374</ele>
        <time>2015-10-31T09:01:12Z</time>
      </trkpt>
      <trkpt lat="44.51614" lon="2.08942">
        <ele>374.2</ele>
        <time>2015-10-31T09:01:13Z</time>
      </trkpt>
      <trkpt lat="44.51611" lon="2.08939">
        <ele>374.4</ele>
        <time>2015-10-31T09:01:14Z</time>
      </trkpt>
      <trkpt lat="44.51608" lon="2.08937">
        <ele>374.5</ele>
        <time>2015-10-31T09:01:15Z</time>
      </trkpt>
      <trkpt lat="44.51604" lon="2.08934">
        <ele>374.8</ele>
        <time>2015-10-31T09:01:16Z</time>
      </trkpt>
      <trkpt lat="44.51601" lon="2.08932">
        <ele>375</ele>
        <time>2015-10-31T09:01:17Z</time>
      </trkpt>
      <trkpt lat="44.51597" lon="2.0893">
        <ele>375.3</ele>
        <time>2015-10-31T09:01:18Z</time>
      </trkpt>
      <trkpt lat="44.51594" lon="2.08927">
        <ele>375.5</ele>
        <time>2015-10-31T09:01:19Z</time>
      </trkpt>
      <trkpt lat="44.51589" lon="2.08924">
        <ele>375.9</ele>
        <time>2015-10-31T09:01:20Z</time>
      </trkpt>
      <trkpt lat="44.51586" lon="2.08922">
        <ele>376.1</ele>
        <time>2015-10-31T09:01:21Z</time>
      </trkpt>
      <trkpt lat="44.51583" lon="2.08919">
        <ele>376.4</ele>
        <time>2015-10-31T09:01:22Z</time>
      </trkpt>
      <trkpt lat="44.51579" lon="2.08916">
        <ele>376.7</ele>
        <time>2015-10-31T09:01:23Z</time>
      </trkpt>
      <trkpt lat="44.51576" lon="2.08913">
        <ele>376.9</ele>
        <time>2015-10-31T09:01:24Z</time>
      </trkpt>
      <trkpt lat="44.51573" lon="2.0891">
        <ele>377.2</ele>
        <time>2015-10-31T09:01:25Z</time>
      </trkpt>
      <trkpt lat="44.51569" lon="2.08905">
        <ele>377.4</ele>
        <time>2015-10-31T09:01:26Z</time>
      </trkpt>
      <trkpt lat="44.51565" lon="2.08897">
        <ele>377.7</ele>
        <time>2015-10-31T09:01:27Z</time>
      </trkpt>
      <trkpt lat="44.51565" lon="2.08891">
        <ele>377.6</ele>
        <time>2015-10-31T09:01:28Z</time>
      </trkpt>
      <trkpt lat="44.51563" lon="2.08884">
        <ele>377.7</ele>
        <time>2015-10-31T09:01:30Z</time>
      </trkpt>
      <trkpt lat="44.51563" lon="2.0888">
        <ele>377.6</ele>
        <time>2015-10-31T09:01:31Z</time>
      </trkpt>
      <trkpt lat="44.51562" lon="2.08875">
        <ele>377.5</ele>
        <time>2015-10-31T09:01:32Z</time>
      </trkpt>
      <trkpt lat="44.51559" lon="2.08869">
        <ele>377.7</ele>
        <time>2015-10-31T09:01:33Z</time>
      </trkpt>
      <trkpt lat="44.51557" lon="2.08864">
        <ele>377.7</ele>
        <time>2015-10-31T09:01:34Z</time>
      </trkpt>
      <trkpt lat="44.51557" lon="2.08857">
        <ele>377.5</ele>
        <time>2015-10-31T09:01:35Z</time>
      </trkpt>
      <trkpt lat="44.51556" lon="2.0885">
        <ele>377.3</ele>
        <time>2015-10-31T09:01:36Z</time>
      </trkpt>
      <trkpt lat="44.51555" lon="2.08845">
        <ele>377.1</ele>
        <time>2015-10-31T09:01:37Z</time>
      </trkpt>
      <trkpt lat="44.51557" lon="2.08841">
        <ele>376.9</ele>
        <time>2015-10-31T09:01:38Z</time>
      </trkpt>
      <trkpt lat="44.51557" lon="2.08837">
        <ele>376.7</ele>
        <time>2015-10-31T09:01:39Z</time>
      </trkpt>
      <trkpt lat="44.51557" lon="2.08833">
        <ele>376.5</ele>
        <time>2015-10-31T09:01:40Z</time>
      </trkpt>
      <trkpt lat="44.51558" lon="2.08829">
        <ele>376.4</ele>
        <time>2015-10-31T09:01:41Z</time>
      </trkpt>
      <trkpt lat="44.51561" lon="2.08822">
        <ele>376</ele>
        <time>2015-10-31T09:01:43Z</time>
      </trkpt>
      <trkpt lat="44.51562" lon="2.08819">
        <ele>375.8</ele>
        <time>2015-10-31T09:01:44Z</time>
      </trkpt>
      <trkpt lat="44.51563" lon="2.08815">
        <ele>375.7</ele>
        <time>2015-10-31T09:01:45Z</time>
      </trkpt>
      <trkpt lat="44.51564" lon="2.08811">
        <ele>375.5</ele>
        <time>2015-10-31T09:01:46Z</time>
      </trkpt>
      <trkpt lat="44.51564" lon="2.08807">
        <ele>375.4</ele>
        <time>2015-10-31T09:01:47Z</time>
      </trkpt>
      <trkpt lat="44.51565" lon="2.08802">
        <ele>375.3</ele>
        <time>2015-10-31T09:01:48Z</time>
      </trkpt>
      <trkpt lat="44.51565" lon="2.08798">
        <ele>375.2</ele>
        <time>2015-10-31T09:01:49Z</time>
      </trkpt>
      <trkpt lat="44.51565" lon="2.08793">
        <ele>375</ele>
        <time>2015-10-31T09:01:50Z</time>
      </trkpt>
      <trkpt lat="44.51566" lon="2.08788">
        <ele>374.7</ele>
        <time>2015-10-31T09:01:51Z</time>
      </trkpt>
      <trkpt lat="44.51566" lon="2.08783">
        <ele>374.4</ele>
        <time>2015-10-31T09:01:52Z</time>
      </trkpt>
      <trkpt lat="44.51567" lon="2.08778">
        <ele>374.1</ele>
        <time>2015-10-31T09:01:53Z</time>
      </trkpt>
      <trkpt lat="44.51568" lon="2.08774">
        <ele>373.8</ele>
        <time>2015-10-31T09:01:54Z</time>
      </trkpt>
      <trkpt lat="44.51569" lon="2.08769">
        <ele>373.5</ele>
        <time>2015-10-31T09:01:55Z</time>
      </trkpt>
      <trkpt lat="44.5157" lon="2.08764">
        <ele>373.3</ele>
        <time>2015-10-31T09:01:56Z</time>
      </trkpt>
      <trkpt lat="44.5157" lon="2.08758">
        <ele>372.9</ele>
        <time>2015-10-31T09:01:57Z</time>
      </trkpt>
      <trkpt lat="44.5157" lon="2.08754">
        <ele>372.6</ele>
        <time>2015-10-31T09:01:58Z</time>
      </trkpt>
      <trkpt lat="44.5157" lon="2.08749">
        <ele>372.3</ele>
        <time>2015-10-31T09:01:59Z</time>
      </trkpt>
      <trkpt lat="44.5157" lon="2.08745">
        <ele>372.1</ele>
        <time>2015-10-31T09:02:00Z</time>
      </trkpt>
      <trkpt lat="44.51571" lon="2.08741">
        <ele>371.8</ele>
        <time>2015-10-31T09:02:01Z</time>
      </trkpt>
      <trkpt lat="44.5157" lon="2.08736">
        <ele>371.5</ele>
        <time>2015-10-31T09:02:02Z</time>
      </trkpt>
      <trkpt lat="44.5157" lon="2.0873">
        <ele>371.1</ele>
        <time>2015-10-31T09:02:04Z</time>
      </trkpt>
      <trkpt lat="44.51572" lon="2.08723">
        <ele>370.8</ele>
        <time>2015-10-31T09:02:06Z</time>
      </trkpt>
      <trkpt lat="44.51573" lon="2.08719">
        <ele>370.6</ele>
        <time>2015-10-31T09:02:07Z</time>
      </trkpt>
      <trkpt lat="44.51574" lon="2.08715">
        <ele>370.5</ele>
        <time>2015-10-31T09:02:08Z</time>
      </trkpt>
      <trkpt lat="44.51575" lon="2.08711">
        <ele>370.3</ele>
        <time>2015-10-31T09:02:09Z</time>
      </trkpt>
      <trkpt lat="44.51576" lon="2.08707">
        <ele>370.2</ele>
        <time>2015-10-31T09:02:10Z</time>
      </trkpt>
      <trkpt lat="44.51578" lon="2.08703">
        <ele>370.1</ele>
        <time>2015-10-31T09:02:11Z</time>
      </trkpt>
      <trkpt lat="44.5158" lon="2.08699">
        <ele>370</ele>
        <time>2015-10-31T09:02:12Z</time>
      </trkpt>
      <trkpt lat="44.51583" lon="2.08694">
        <ele>369.9</ele>
        <time>2015-10-31T09:02:13Z</time>
      </trkpt>
      <trkpt lat="44.51586" lon="2.08689">
        <ele>369.9</ele>
        <time>2015-10-31T09:02:14Z</time>
      </trkpt>
      <trkpt lat="44.51588" lon="2.08685">
        <ele>369.9</ele>
        <time>2015-10-31T09:02:15Z</time>
      </trkpt>
      <trkpt lat="44.51591" lon="2.08681">
        <ele>369.8</ele>
        <time>2015-10-31T09:02:16Z</time>
      </trkpt>
      <trkpt lat="44.51594" lon="2.08676">
        <ele>369.8</ele>
        <time>2015-10-31T09:02:17Z</time>
      </trkpt>
      <trkpt lat="44.51596" lon="2.08672">
        <ele>369.9</ele>
        <time>2015-10-31T09:02:18Z</time>
      </trkpt>
      <trkpt lat="44.51599" lon="2.08667">
        <ele>370</ele>
        <time>2015-10-31T09:02:19Z</time>
      </trkpt>
      <trkpt lat="44.51602" lon="2.08663">
        <ele>370.1</ele>
        <time>2015-10-31T09:02:20Z</time>
      </trkpt>
      <trkpt lat="44.51605" lon="2.08659">
        <ele>370.2</ele>
        <time>2015-10-31T09:02:21Z</time>
      </trkpt>
      <trkpt lat="44.5161" lon="2.08653">
        <ele>370.4</ele>
        <time>2015-10-31T09:02:22Z</time>
      </trkpt>
      <trkpt lat="44.51613" lon="2.08648">
        <ele>370.5</ele>
        <time>2015-10-31T09:02:23Z</time>
      </trkpt>
      <trkpt lat="44.51617" lon="2.08643">
        <ele>370.7</ele>
        <time>2015-10-31T09:02:24Z</time>
      </trkpt>
      <trkpt lat="44.5162" lon="2.08638">
        <ele>371</ele>
        <time>2015-10-31T09:02:25Z</time>
      </trkpt>
      <trkpt lat="44.51624" lon="2.08632">
        <ele>371.2</ele>
        <time>2015-10-31T09:02:26Z</time>
      </trkpt>
      <trkpt lat="44.51628" lon="2.08626">
        <ele>371.1</ele>
        <time>2015-10-31T09:02:27Z</time>
      </trkpt>
      <trkpt lat="44.51631" lon="2.0862">
        <ele>370.9</ele>
        <time>2015-10-31T09:02:28Z</time>
      </trkpt>
      <trkpt lat="44.51634" lon="2.08613">
        <ele>370.5</ele>
        <time>2015-10-31T09:02:29Z</time>
      </trkpt>
      <trkpt lat="44.51636" lon="2.08608">
        <ele>370.3</ele>
        <time>2015-10-31T09:02:30Z</time>
      </trkpt>
      <trkpt lat="44.5164" lon="2.08602">
        <ele>370</ele>
        <time>2015-10-31T09:02:31Z</time>
      </trkpt>
      <trkpt lat="44.51644" lon="2.08596">
        <ele>369.9</ele>
        <time>2015-10-31T09:02:32Z</time>
      </trkpt>
      <trkpt lat="44.51645" lon="2.0859">
        <ele>369.6</ele>
        <time>2015-10-31T09:02:33Z</time>
      </trkpt>
      <trkpt lat="44.51648" lon="2.08583">
        <ele>369.3</ele>
        <time>2015-10-31T09:02:34Z</time>
      </trkpt>
      <trkpt lat="44.51651" lon="2.08576">
        <ele>369.1</ele>
        <time>2015-10-31T09:02:35Z</time>
      </trkpt>
      <trkpt lat="44.51654" lon="2.08568">
        <ele>368.9</ele>
        <time>2015-10-31T09:02:36Z</time>
      </trkpt>
      <trkpt lat="44.51658" lon="2.08561">
        <ele>368.8</ele>
        <time>2015-10-31T09:02:37Z</time>
      </trkpt>
      <trkpt lat="44.51659" lon="2.08553">
        <ele>368.4</ele>
        <time>2015-10-31T09:02:38Z</time>
      </trkpt>
      <trkpt lat="44.51663" lon="2.08547">
        <ele>368.4</ele>
        <time>2015-10-31T09:02:39Z</time>
      </trkpt>
      <trkpt lat="44.51668" lon="2.08539">
        <ele>368.5</ele>
        <time>2015-10-31T09:02:40Z</time>
      </trkpt>
      <trkpt lat="44.51672" lon="2.08532">
        <ele>368.7</ele>
        <time>2015-10-31T09:02:41Z</time>
      </trkpt>
      <trkpt lat="44.51677" lon="2.08524">
        <ele>368.9</ele>
        <time>2015-10-31T09:02:42Z</time>
      </trkpt>
      <trkpt lat="44.51681" lon="2.08518">
        <ele>369</ele>
        <time>2015-10-31T09:02:43Z</time>
      </trkpt>
      <trkpt lat="44.51685" lon="2.08512">
        <ele>369.3</ele>
        <time>2015-10-31T09:02:44Z</time>
      </trkpt>
      <trkpt lat="44.51689" lon="2.08505">
        <ele>369.4</ele>
        <time>2015-10-31T09:02:45Z</time>
      </trkpt>
      <trkpt lat="44.51695" lon="2.08499">
        <ele>369.8</ele>
        <time>2015-10-31T09:02:46Z</time>
      </trkpt>
      <trkpt lat="44.51699" lon="2.08494">
        <ele>370</ele>
        <time>2015-10-31T09:02:47Z</time>
      </trkpt>
      <trkpt lat="44.51703" lon="2.08488">
        <ele>370.2</ele>
        <time>2015-10-31T09:02:48Z</time>
      </trkpt>
      <trkpt lat="44.51708" lon="2.08481">
        <ele>370.5</ele>
        <time>2015-10-31T09:02:49Z</time>
      </trkpt>
      <trkpt lat="44.51712" lon="2.08474">
        <ele>370.5</ele>
        <time>2015-10-31T09:02:50Z</time>
      </trkpt>
      <trkpt lat="44.51715" lon="2.08469">
        <ele>370.5</ele>
        <time>2015-10-31T09:02:51Z</time>
      </trkpt>
      <trkpt lat="44.5172" lon="2.08463">
        <ele>370.6</ele>
        <time>2015-10-31T09:02:52Z</time>
      </trkpt>
      <trkpt lat="44.51722" lon="2.08456">
        <ele>370.7</ele>
        <time>2015-10-31T09:02:53Z</time>
      </trkpt>
      <trkpt lat="44.51727" lon="2.0845">
        <ele>371.1</ele>
        <time>2015-10-31T09:02:55Z</time>
      </trkpt>
      <trkpt lat="44.5173" lon="2.08447">
        <ele>371.3</ele>
        <time>2015-10-31T09:02:56Z</time>
      </trkpt>
      <trkpt lat="44.51734" lon="2.08443">
        <ele>371.6</ele>
        <time>2015-10-31T09:02:57Z</time>
      </trkpt>
      <trkpt lat="44.51736" lon="2.08438">
        <ele>371.8</ele>
        <time>2015-10-31T09:02:58Z</time>
      </trkpt>
      <trkpt lat="44.51738" lon="2.08432">
        <ele>372.1</ele>
        <time>2015-10-31T09:02:59Z</time>
      </trkpt>
      <trkpt lat="44.51741" lon="2.08427">
        <ele>372.4</ele>
        <time>2015-10-31T09:03:00Z</time>
      </trkpt>
      <trkpt lat="44.51743" lon="2.08422">
        <ele>372.6</ele>
        <time>2015-10-31T09:03:01Z</time>
      </trkpt>
      <trkpt lat="44.51744" lon="2.08417">
        <ele>372.8</ele>
        <time>2015-10-31T09:03:02Z</time>
      </trkpt>
      <trkpt lat="44.51746" lon="2.08414">
        <ele>373.1</ele>
        <time>2015-10-31T09:03:03Z</time>
      </trkpt>
      <trkpt lat="44.51748" lon="2.0841">
        <ele>373.3</ele>
        <time>2015-10-31T09:03:04Z</time>
      </trkpt>
      <trkpt lat="44.51751" lon="2.08406">
        <ele>373.7</ele>
        <time>2015-10-31T09:03:05Z</time>
      </trkpt>
      <trkpt lat="44.51754" lon="2.08402">
        <ele>374</ele>
        <time>2015-10-31T09:03:06Z</time>
      </trkpt>
      <trkpt lat="44.51756" lon="2.08398">
        <ele>374.3</ele>
        <time>2015-10-31T09:03:07Z</time>
      </trkpt>
      <trkpt lat="44.51759" lon="2.08394">
        <ele>374.6</ele>
        <time>2015-10-31T09:03:08Z</time>
      </trkpt>
      <trkpt lat="44.51761" lon="2.0839">
        <ele>374.9</ele>
        <time>2015-10-31T09:03:09Z</time>
      </trkpt>
      <trkpt lat="44.51764" lon="2.08387">
        <ele>375.3</ele>
        <time>2015-10-31T09:03:10Z</time>
      </trkpt>
      <trkpt lat="44.51766" lon="2.08383">
        <ele>375.6</ele>
        <time>2015-10-31T09:03:11Z</time>
      </trkpt>
      <trkpt lat="44.51768" lon="2.0838">
        <ele>375.9</ele>
        <time>2015-10-31T09:03:12Z</time>
      </trkpt>
      <trkpt lat="44.5177" lon="2.08376">
        <ele>376.2</ele>
        <time>2015-10-31T09:03:13Z</time>
      </trkpt>
      <trkpt lat="44.51772" lon="2.08373">
        <ele>376.5</ele>
        <time>2015-10-31T09:03:14Z</time>
      </trkpt>
      <trkpt lat="44.51775" lon="2.08367">
        <ele>377.1</ele>
        <time>2015-10-31T09:03:16Z</time>
      </trkpt>
      <trkpt lat="44.51779" lon="2.08361">
        <ele>377.7</ele>
        <time>2015-10-31T09:03:18Z</time>
      </trkpt>
      <trkpt lat="44.5178" lon="2.08358">
        <ele>378</ele>
        <time>2015-10-31T09:03:19Z</time>
      </trkpt>
      <trkpt lat="44.51782" lon="2.08355">
        <ele>378.3</ele>
        <time>2015-10-31T09:03:20Z</time>
      </trkpt>
      <trkpt lat="44.51784" lon="2.08348">
        <ele>379</ele>
        <time>2015-10-31T09:03:22Z</time>
      </trkpt>
      <trkpt lat="44.51788" lon="2.08343">
        <ele>379.6</ele>
        <time>2015-10-31T09:03:24Z</time>
      </trkpt>
      <trkpt lat="44.51791" lon="2.08337">
        <ele>380.2</ele>
        <time>2015-10-31T09:03:26Z</time>
      </trkpt>
      <trkpt lat="44.51792" lon="2.08333">
        <ele>380.5</ele>
        <time>2015-10-31T09:03:27Z</time>
      </trkpt>
      <trkpt lat="44.51793" lon="2.08329">
        <ele>380.8</ele>
        <time>2015-10-31T09:03:29Z</time>
      </trkpt>
      <trkpt lat="44.51794" lon="2.08324">
        <ele>381.1</ele>
        <time>2015-10-31T09:03:31Z</time>
      </trkpt>
      <trkpt lat="44.51792" lon="2.0832">
        <ele>381.3</ele>
        <time>2015-10-31T09:03:34Z</time>
      </trkpt>
      <trkpt lat="44.51792" lon="2.08314">
        <ele>381.6</ele>
        <time>2015-10-31T09:03:40Z</time>
      </trkpt>
      <trkpt lat="44.51791" lon="2.0831">
        <ele>381.9</ele>
        <time>2015-10-31T09:03:42Z</time>
      </trkpt>
      <trkpt lat="44.51791" lon="2.08304">
        <ele>382.2</ele>
        <time>2015-10-31T09:03:44Z</time>
      </trkpt>
      <trkpt lat="44.5179" lon="2.08298">
        <ele>382.5</ele>
        <time>2015-10-31T09:03:46Z</time>
      </trkpt>
      <trkpt lat="44.51788" lon="2.08292">
        <ele>382.7</ele>
        <time>2015-10-31T09:03:48Z</time>
      </trkpt>
      <trkpt lat="44.51788" lon="2.08288">
        <ele>382.8</ele>
        <time>2015-10-31T09:03:49Z</time>
      </trkpt>
      <trkpt lat="44.51788" lon="2.08284">
        <ele>383</ele>
        <time>2015-10-31T09:03:50Z</time>
      </trkpt>
      <trkpt lat="44.51788" lon="2.0828">
        <ele>383.2</ele>
        <time>2015-10-31T09:03:51Z</time>
      </trkpt>
      <trkpt lat="44.51788" lon="2.08273">
        <ele>383.6</ele>
        <time>2015-10-31T09:03:53Z</time>
      </trkpt>
      <trkpt lat="44.51787" lon="2.08267">
        <ele>383.9</ele>
        <time>2015-10-31T09:03:54Z</time>
      </trkpt>
      <trkpt lat="44.51786" lon="2.08263">
        <ele>384</ele>
        <time>2015-10-31T09:03:55Z</time>
      </trkpt>
      <trkpt lat="44.51784" lon="2.08258">
        <ele>384.1</ele>
        <time>2015-10-31T09:03:56Z</time>
      </trkpt>
      <trkpt lat="44.51782" lon="2.08252">
        <ele>384.3</ele>
        <time>2015-10-31T09:03:58Z</time>
      </trkpt>
      <trkpt lat="44.51781" lon="2.08248">
        <ele>384.4</ele>
        <time>2015-10-31T09:03:59Z</time>
      </trkpt>
      <trkpt lat="44.51778" lon="2.08241">
        <ele>384.6</ele>
        <time>2015-10-31T09:04:01Z</time>
      </trkpt>
      <trkpt lat="44.51775" lon="2.08236">
        <ele>384.8</ele>
        <time>2015-10-31T09:04:03Z</time>
      </trkpt>
      <trkpt lat="44.51772" lon="2.0823">
        <ele>384.9</ele>
        <time>2015-10-31T09:04:05Z</time>
      </trkpt>
      <trkpt lat="44.51769" lon="2.08224">
        <ele>385.1</ele>
        <time>2015-10-31T09:04:07Z</time>
      </trkpt>
      <trkpt lat="44.51767" lon="2.08221">
        <ele>385.3</ele>
        <time>2015-10-31T09:04:08Z</time>
      </trkpt>
      <trkpt lat="44.51763" lon="2.08215">
        <ele>385.5</ele>
        <time>2015-10-31T09:04:10Z</time>
      </trkpt>
      <trkpt lat="44.51762" lon="2.08212">
        <ele>385.7</ele>
        <time>2015-10-31T09:04:11Z</time>
      </trkpt>
      <trkpt lat="44.51759" lon="2.08205">
        <ele>385.9</ele>
        <time>2015-10-31T09:04:13Z</time>
      </trkpt>
      <trkpt lat="44.51756" lon="2.08198">
        <ele>386</ele>
        <time>2015-10-31T09:04:15Z</time>
      </trkpt>
      <trkpt lat="44.51753" lon="2.08193">
        <ele>386.1</ele>
        <time>2015-10-31T09:04:17Z</time>
      </trkpt>
      <trkpt lat="44.51751" lon="2.08187">
        <ele>386.2</ele>
        <time>2015-10-31T09:04:19Z</time>
      </trkpt>
      <trkpt lat="44.51748" lon="2.08181">
        <ele>386.3</ele>
        <time>2015-10-31T09:04:21Z</time>
      </trkpt>
      <trkpt lat="44.51745" lon="2.08174">
        <ele>386.4</ele>
        <time>2015-10-31T09:04:23Z</time>
      </trkpt>
      <trkpt lat="44.51743" lon="2.08168">
        <ele>386.6</ele>
        <time>2015-10-31T09:04:25Z</time>
      </trkpt>
      <trkpt lat="44.5174" lon="2.08161">
        <ele>386.8</ele>
        <time>2015-10-31T09:04:27Z</time>
      </trkpt>
      <trkpt lat="44.51738" lon="2.08155">
        <ele>387</ele>
        <time>2015-10-31T09:04:29Z</time>
      </trkpt>
      <trkpt lat="44.51736" lon="2.0815">
        <ele>387.1</ele>
        <time>2015-10-31T09:04:31Z</time>
      </trkpt>
      <trkpt lat="44.51734" lon="2.08145">
        <ele>387.3</ele>
        <time>2015-10-31T09:04:33Z</time>
      </trkpt>
      <trkpt lat="44.51731" lon="2.0814">
        <ele>387.4</ele>
        <time>2015-10-31T09:04:35Z</time>
      </trkpt>
      <trkpt lat="44.51728" lon="2.08135">
        <ele>387.6</ele>
        <time>2015-10-31T09:04:37Z</time>
      </trkpt>
      <trkpt lat="44.51725" lon="2.08129">
        <ele>387.8</ele>
        <time>2015-10-31T09:04:39Z</time>
      </trkpt>
      <trkpt lat="44.51722" lon="2.08123">
        <ele>388</ele>
        <time>2015-10-31T09:04:41Z</time>
      </trkpt>
      <trkpt lat="44.5172" lon="2.08117">
        <ele>388.1</ele>
        <time>2015-10-31T09:04:43Z</time>
      </trkpt>
      <trkpt lat="44.51718" lon="2.08111">
        <ele>388.2</ele>
        <time>2015-10-31T09:04:45Z</time>
      </trkpt>
      <trkpt lat="44.51716" lon="2.08105">
        <ele>388.3</ele>
        <time>2015-10-31T09:04:47Z</time>
      </trkpt>
      <trkpt lat="44.51714" lon="2.08099">
        <ele>388.3</ele>
        <time>2015-10-31T09:04:49Z</time>
      </trkpt>
      <trkpt lat="44.51713" lon="2.08095">
        <ele>388.4</ele>
        <time>2015-10-31T09:04:50Z</time>
      </trkpt>
      <trkpt lat="44.51711" lon="2.08092">
        <ele>388.4</ele>
        <time>2015-10-31T09:04:51Z</time>
      </trkpt>
      <trkpt lat="44.51708" lon="2.08087">
        <ele>388.5</ele>
        <time>2015-10-31T09:04:53Z</time>
      </trkpt>
      <trkpt lat="44.51705" lon="2.08082">
        <ele>388.5</ele>
        <time>2015-10-31T09:04:55Z</time>
      </trkpt>
      <trkpt lat="44.51703" lon="2.08078">
        <ele>388.4</ele>
        <time>2015-10-31T09:04:57Z</time>
      </trkpt>
      <trkpt lat="44.517" lon="2.08073">
        <ele>388.5</ele>
        <time>2015-10-31T09:04:59Z</time>
      </trkpt>
      <trkpt lat="44.51699" lon="2.08069">
        <ele>388.5</ele>
        <time>2015-10-31T09:05:01Z</time>
      </trkpt>
      <trkpt lat="44.51697" lon="2.08066">
        <ele>388.6</ele>
        <time>2015-10-31T09:05:03Z</time>
      </trkpt>
      <trkpt lat="44.51695" lon="2.0806">
        <ele>388.6</ele>
        <time>2015-10-31T09:05:05Z</time>
      </trkpt>
      <trkpt lat="44.51692" lon="2.08055">
        <ele>388.7</ele>
        <time>2015-10-31T09:05:07Z</time>
      </trkpt>
      <trkpt lat="44.5169" lon="2.0805">
        <ele>388.8</ele>
        <time>2015-10-31T09:05:09Z</time>
      </trkpt>
      <trkpt lat="44.51688" lon="2.08045">
        <ele>388.9</ele>
        <time>2015-10-31T09:05:11Z</time>
      </trkpt>
      <trkpt lat="44.51686" lon="2.0804">
        <ele>389.1</ele>
        <time>2015-10-31T09:05:13Z</time>
      </trkpt>
      <trkpt lat="44.51684" lon="2.08034">
        <ele>389.5</ele>
        <time>2015-10-31T09:05:15Z</time>
      </trkpt>
      <trkpt lat="44.51681" lon="2.08028">
        <ele>389.9</ele>
        <time>2015-10-31T09:05:17Z</time>
      </trkpt>
      <trkpt lat="44.51679" lon="2.08022">
        <ele>390.3</ele>
        <time>2015-10-31T09:05:19Z</time>
      </trkpt>
      <trkpt lat="44.51676" lon="2.08015">
        <ele>390.8</ele>
        <time>2015-10-31T09:05:21Z</time>
      </trkpt>
      <trkpt lat="44.51675" lon="2.08012">
        <ele>391</ele>
        <time>2015-10-31T09:05:22Z</time>
      </trkpt>
      <trkpt lat="44.51674" lon="2.08005">
        <ele>391.5</ele>
        <time>2015-10-31T09:05:24Z</time>
      </trkpt>
      <trkpt lat="44.51673" lon="2.08002">
        <ele>391.7</ele>
        <time>2015-10-31T09:05:25Z</time>
      </trkpt>
      <trkpt lat="44.5167" lon="2.07996">
        <ele>392.2</ele>
        <time>2015-10-31T09:05:27Z</time>
      </trkpt>
      <trkpt lat="44.51665" lon="2.07992">
        <ele>392.6</ele>
        <time>2015-10-31T09:05:29Z</time>
      </trkpt>
      <trkpt lat="44.51661" lon="2.07989">
        <ele>393</ele>
        <time>2015-10-31T09:05:31Z</time>
      </trkpt>
      <trkpt lat="44.51658" lon="2.07987">
        <ele>393.2</ele>
        <time>2015-10-31T09:05:32Z</time>
      </trkpt>
      <trkpt lat="44.51653" lon="2.07984">
        <ele>393.6</ele>
        <time>2015-10-31T09:05:34Z</time>
      </trkpt>
      <trkpt lat="44.5165" lon="2.07983">
        <ele>393.8</ele>
        <time>2015-10-31T09:05:35Z</time>
      </trkpt>
      <trkpt lat="44.51647" lon="2.07981">
        <ele>394</ele>
        <time>2015-10-31T09:05:36Z</time>
      </trkpt>
      <trkpt lat="44.51645" lon="2.0798">
        <ele>394.2</ele>
        <time>2015-10-31T09:05:37Z</time>
      </trkpt>
      <trkpt lat="44.51639" lon="2.07978">
        <ele>394.6</ele>
        <time>2015-10-31T09:05:39Z</time>
      </trkpt>
      <trkpt lat="44.51636" lon="2.07977">
        <ele>394.8</ele>
        <time>2015-10-31T09:05:40Z</time>
      </trkpt>
      <trkpt lat="44.51631" lon="2.07976">
        <ele>395.1</ele>
        <time>2015-10-31T09:05:42Z</time>
      </trkpt>
      <trkpt lat="44.51628" lon="2.07975">
        <ele>395.3</ele>
        <time>2015-10-31T09:05:43Z</time>
      </trkpt>
      <trkpt lat="44.51622" lon="2.07975">
        <ele>395.4</ele>
        <time>2015-10-31T09:05:45Z</time>
      </trkpt>
      <trkpt lat="44.5162" lon="2.07975">
        <ele>395.3</ele>
        <time>2015-10-31T09:05:46Z</time>
      </trkpt>
      <trkpt lat="44.51615" lon="2.07976">
        <ele>395.1</ele>
        <time>2015-10-31T09:05:48Z</time>
      </trkpt>
      <trkpt lat="44.5161" lon="2.07979">
        <ele>394.9</ele>
        <time>2015-10-31T09:05:50Z</time>
      </trkpt>
      <trkpt lat="44.51607" lon="2.07981">
        <ele>394.7</ele>
        <time>2015-10-31T09:05:51Z</time>
      </trkpt>
      <trkpt lat="44.51604" lon="2.07982">
        <ele>394.6</ele>
        <time>2015-10-31T09:05:52Z</time>
      </trkpt>
      <trkpt lat="44.51599" lon="2.07985">
        <ele>394.3</ele>
        <time>2015-10-31T09:05:54Z</time>
      </trkpt>
      <trkpt lat="44.51597" lon="2.07986">
        <ele>394.2</ele>
        <time>2015-10-31T09:05:55Z</time>
      </trkpt>
      <trkpt lat="44.51592" lon="2.07989">
        <ele>394</ele>
        <time>2015-10-31T09:05:57Z</time>
      </trkpt>
      <trkpt lat="44.51589" lon="2.0799">
        <ele>394</ele>
        <time>2015-10-31T09:05:58Z</time>
      </trkpt>
      <trkpt lat="44.51587" lon="2.07991">
        <ele>393.9</ele>
        <time>2015-10-31T09:05:59Z</time>
      </trkpt>
      <trkpt lat="44.51584" lon="2.07992">
        <ele>393.9</ele>
        <time>2015-10-31T09:06:00Z</time>
      </trkpt>
      <trkpt lat="44.51578" lon="2.07997">
        <ele>393.7</ele>
        <time>2015-10-31T09:06:02Z</time>
      </trkpt>
      <trkpt lat="44.51575" lon="2.07999">
        <ele>393.6</ele>
        <time>2015-10-31T09:06:03Z</time>
      </trkpt>
      <trkpt lat="44.5157" lon="2.08003">
        <ele>393.6</ele>
        <time>2015-10-31T09:06:05Z</time>
      </trkpt>
      <trkpt lat="44.51567" lon="2.08004">
        <ele>393.6</ele>
        <time>2015-10-31T09:06:06Z</time>
      </trkpt>
      <trkpt lat="44.51564" lon="2.08005">
        <ele>393.6</ele>
        <time>2015-10-31T09:06:07Z</time>
      </trkpt>
      <trkpt lat="44.5156" lon="2.08008">
        <ele>393.6</ele>
        <time>2015-10-31T09:06:09Z</time>
      </trkpt>
      <trkpt lat="44.51557" lon="2.0801">
        <ele>393.6</ele>
        <time>2015-10-31T09:06:10Z</time>
      </trkpt>
      <trkpt lat="44.51554" lon="2.08012">
        <ele>393.7</ele>
        <time>2015-10-31T09:06:11Z</time>
      </trkpt>
      <trkpt lat="44.51551" lon="2.08013">
        <ele>393.7</ele>
        <time>2015-10-31T09:06:12Z</time>
      </trkpt>
      <trkpt lat="44.51545" lon="2.08016">
        <ele>393.9</ele>
        <time>2015-10-31T09:06:14Z</time>
      </trkpt>
      <trkpt lat="44.51542" lon="2.08017">
        <ele>394</ele>
        <time>2015-10-31T09:06:15Z</time>
      </trkpt>
      <trkpt lat="44.51539" lon="2.08019">
        <ele>394</ele>
        <time>2015-10-31T09:06:16Z</time>
      </trkpt>
      <trkpt lat="44.51536" lon="2.08019">
        <ele>394.1</ele>
        <time>2015-10-31T09:06:17Z</time>
      </trkpt>
      <trkpt lat="44.51533" lon="2.0802">
        <ele>394.1</ele>
        <time>2015-10-31T09:06:18Z</time>
      </trkpt>
      <trkpt lat="44.51527" lon="2.0802">
        <ele>394.2</ele>
        <time>2015-10-31T09:06:20Z</time>
      </trkpt>
      <trkpt lat="44.51524" lon="2.0802">
        <ele>394.3</ele>
        <time>2015-10-31T09:06:21Z</time>
      </trkpt>
      <trkpt lat="44.51518" lon="2.0802">
        <ele>394.4</ele>
        <time>2015-10-31T09:06:23Z</time>
      </trkpt>
      <trkpt lat="44.51515" lon="2.0802">
        <ele>394.4</ele>
        <time>2015-10-31T09:06:24Z</time>
      </trkpt>
      <trkpt lat="44.51512" lon="2.0802">
        <ele>394.5</ele>
        <time>2015-10-31T09:06:25Z</time>
      </trkpt>
      <trkpt lat="44.51506" lon="2.08019">
        <ele>394.6</ele>
        <time>2015-10-31T09:06:27Z</time>
      </trkpt>
      <trkpt lat="44.51503" lon="2.08018">
        <ele>394.6</ele>
        <time>2015-10-31T09:06:28Z</time>
      </trkpt>
      <trkpt lat="44.51497" lon="2.08015">
        <ele>394.7</ele>
        <time>2015-10-31T09:06:30Z</time>
      </trkpt>
      <trkpt lat="44.51491" lon="2.08012">
        <ele>394.8</ele>
        <time>2015-10-31T09:06:32Z</time>
      </trkpt>
      <trkpt lat="44.51488" lon="2.08009">
        <ele>394.9</ele>
        <time>2015-10-31T09:06:33Z</time>
      </trkpt>
      <trkpt lat="44.51483" lon="2.08005">
        <ele>395</ele>
        <time>2015-10-31T09:06:35Z</time>
      </trkpt>
      <trkpt lat="44.5148" lon="2.08003">
        <ele>395.1</ele>
        <time>2015-10-31T09:06:36Z</time>
      </trkpt>
      <trkpt lat="44.51477" lon="2.08">
        <ele>395.2</ele>
        <time>2015-10-31T09:06:37Z</time>
      </trkpt>
      <trkpt lat="44.51474" lon="2.07998">
        <ele>395.2</ele>
        <time>2015-10-31T09:06:38Z</time>
      </trkpt>
      <trkpt lat="44.51471" lon="2.07995">
        <ele>395.3</ele>
        <time>2015-10-31T09:06:39Z</time>
      </trkpt>
      <trkpt lat="44.51468" lon="2.07991">
        <ele>395.4</ele>
        <time>2015-10-31T09:06:40Z</time>
      </trkpt>
      <trkpt lat="44.51466" lon="2.07987">
        <ele>395.5</ele>
        <time>2015-10-31T09:06:41Z</time>
      </trkpt>
      <trkpt lat="44.51463" lon="2.07983">
        <ele>395.6</ele>
        <time>2015-10-31T09:06:42Z</time>
      </trkpt>
      <trkpt lat="44.5146" lon="2.0798">
        <ele>395.7</ele>
        <time>2015-10-31T09:06:43Z</time>
      </trkpt>
      <trkpt lat="44.51457" lon="2.07976">
        <ele>395.7</ele>
        <time>2015-10-31T09:06:44Z</time>
      </trkpt>
      <trkpt lat="44.51454" lon="2.07973">
        <ele>395.6</ele>
        <time>2015-10-31T09:06:45Z</time>
      </trkpt>
      <trkpt lat="44.51451" lon="2.0797">
        <ele>395.5</ele>
        <time>2015-10-31T09:06:46Z</time>
      </trkpt>
      <trkpt lat="44.51448" lon="2.07966">
        <ele>395.5</ele>
        <time>2015-10-31T09:06:47Z</time>
      </trkpt>
      <trkpt lat="44.51444" lon="2.07963">
        <ele>395.4</ele>
        <time>2015-10-31T09:06:48Z</time>
      </trkpt>
      <trkpt lat="44.51441" lon="2.07959">
        <ele>395.4</ele>
        <time>2015-10-31T09:06:49Z</time>
      </trkpt>
      <trkpt lat="44.51439" lon="2.07957">
        <ele>395.3</ele>
        <time>2015-10-31T09:06:50Z</time>
      </trkpt>
      <trkpt lat="44.51436" lon="2.07954">
        <ele>395.2</ele>
        <time>2015-10-31T09:06:51Z</time>
      </trkpt>
      <trkpt lat="44.51434" lon="2.07951">
        <ele>395.2</ele>
        <time>2015-10-31T09:06:52Z</time>
      </trkpt>
      <trkpt lat="44.51431" lon="2.07947">
        <ele>395.1</ele>
        <time>2015-10-31T09:06:53Z</time>
      </trkpt>
      <trkpt lat="44.51428" lon="2.07944">
        <ele>395.1</ele>
        <time>2015-10-31T09:06:54Z</time>
      </trkpt>
      <trkpt lat="44.51426" lon="2.0794">
        <ele>395</ele>
        <time>2015-10-31T09:06:55Z</time>
      </trkpt>
      <trkpt lat="44.51423" lon="2.07937">
        <ele>395</ele>
        <time>2015-10-31T09:06:56Z</time>
      </trkpt>
      <trkpt lat="44.51421" lon="2.07934">
        <ele>394.9</ele>
        <time>2015-10-31T09:06:57Z</time>
      </trkpt>
      <trkpt lat="44.51418" lon="2.0793">
        <ele>394.9</ele>
        <time>2015-10-31T09:06:58Z</time>
      </trkpt>
      <trkpt lat="44.51416" lon="2.07927">
        <ele>394.8</ele>
        <time>2015-10-31T09:06:59Z</time>
      </trkpt>
      <trkpt lat="44.51414" lon="2.07924">
        <ele>394.8</ele>
        <time>2015-10-31T09:07:00Z</time>
      </trkpt>
      <trkpt lat="44.51411" lon="2.07921">
        <ele>394.8</ele>
        <time>2015-10-31T09:07:01Z</time>
      </trkpt>
      <trkpt lat="44.51409" lon="2.07918">
        <ele>394.7</ele>
        <time>2015-10-31T09:07:02Z</time>
      </trkpt>
      <trkpt lat="44.51407" lon="2.07916">
        <ele>394.7</ele>
        <time>2015-10-31T09:07:03Z</time>
      </trkpt>
      <trkpt lat="44.51403" lon="2.07911">
        <ele>394.6</ele>
        <time>2015-10-31T09:07:05Z</time>
      </trkpt>
      <trkpt lat="44.51401" lon="2.07908">
        <ele>394.5</ele>
        <time>2015-10-31T09:07:06Z</time>
      </trkpt>
      <trkpt lat="44.51399" lon="2.07905">
        <ele>394.5</ele>
        <time>2015-10-31T09:07:07Z</time>
      </trkpt>
      <trkpt lat="44.51396" lon="2.07902">
        <ele>394.4</ele>
        <time>2015-10-31T09:07:08Z</time>
      </trkpt>
      <trkpt lat="44.51394" lon="2.07899">
        <ele>394.4</ele>
        <time>2015-10-31T09:07:09Z</time>
      </trkpt>
      <trkpt lat="44.51392" lon="2.07896">
        <ele>394.3</ele>
        <time>2015-10-31T09:07:10Z</time>
      </trkpt>
      <trkpt lat="44.51389" lon="2.07893">
        <ele>394.3</ele>
        <time>2015-10-31T09:07:11Z</time>
      </trkpt>
      <trkpt lat="44.51387" lon="2.0789">
        <ele>394.2</ele>
        <time>2015-10-31T09:07:12Z</time>
      </trkpt>
      <trkpt lat="44.51384" lon="2.07887">
        <ele>394.2</ele>
        <time>2015-10-31T09:07:13Z</time>
      </trkpt>
      <trkpt lat="44.51381" lon="2.07883">
        <ele>394.1</ele>
        <time>2015-10-31T09:07:14Z</time>
      </trkpt>
      <trkpt lat="44.51379" lon="2.07879">
        <ele>394.1</ele>
        <time>2015-10-31T09:07:15Z</time>
      </trkpt>
      <trkpt lat="44.51377" lon="2.07875">
        <ele>394.1</ele>
        <time>2015-10-31T09:07:16Z</time>
      </trkpt>
      <trkpt lat="44.51374" lon="2.07871">
        <ele>394</ele>
        <time>2015-10-31T09:07:17Z</time>
      </trkpt>
      <trkpt lat="44.51372" lon="2.07867">
        <ele>393.9</ele>
        <time>2015-10-31T09:07:18Z</time>
      </trkpt>
      <trkpt lat="44.5137" lon="2.07862">
        <ele>393.8</ele>
        <time>2015-10-31T09:07:19Z</time>
      </trkpt>
      <trkpt lat="44.51369" lon="2.07857">
        <ele>393.7</ele>
        <time>2015-10-31T09:07:20Z</time>
      </trkpt>
      <trkpt lat="44.51369" lon="2.07852">
        <ele>393.7</ele>
        <time>2015-10-31T09:07:21Z</time>
      </trkpt>
      <trkpt lat="44.51368" lon="2.07848">
        <ele>393.7</ele>
        <time>2015-10-31T09:07:22Z</time>
      </trkpt>
      <trkpt lat="44.51368" lon="2.07843">
        <ele>393.7</ele>
        <time>2015-10-31T09:07:23Z</time>
      </trkpt>
      <trkpt lat="44.51368" lon="2.07839">
        <ele>393.7</ele>
        <time>2015-10-31T09:07:24Z</time>
      </trkpt>
      <trkpt lat="44.51368" lon="2.07834">
        <ele>393.7</ele>
        <time>2015-10-31T09:07:25Z</time>
      </trkpt>
      <trkpt lat="44.51368" lon="2.07829">
        <ele>393.7</ele>
        <time>2015-10-31T09:07:26Z</time>
      </trkpt>
      <trkpt lat="44.51368" lon="2.07825">
        <ele>393.7</ele>
        <time>2015-10-31T09:07:27Z</time>
      </trkpt>
      <trkpt lat="44.51368" lon="2.0782">
        <ele>393.7</ele>
        <time>2015-10-31T09:07:28Z</time>
      </trkpt>
      <trkpt lat="44.51369" lon="2.07815">
        <ele>393.7</ele>
        <time>2015-10-31T09:07:29Z</time>
      </trkpt>
      <trkpt lat="44.51369" lon="2.07811">
        <ele>393.7</ele>
        <time>2015-10-31T09:07:30Z</time>
      </trkpt>
      <trkpt lat="44.5137" lon="2.07806">
        <ele>393.7</ele>
        <time>2015-10-31T09:07:31Z</time>
      </trkpt>
      <trkpt lat="44.5137" lon="2.07802">
        <ele>393.7</ele>
        <time>2015-10-31T09:07:32Z</time>
      </trkpt>
      <trkpt lat="44.5137" lon="2.07797">
        <ele>393.8</ele>
        <time>2015-10-31T09:07:33Z</time>
      </trkpt>
      <trkpt lat="44.51371" lon="2.07793">
        <ele>393.8</ele>
        <time>2015-10-31T09:07:34Z</time>
      </trkpt>
      <trkpt lat="44.51371" lon="2.07789">
        <ele>393.7</ele>
        <time>2015-10-31T09:07:35Z</time>
      </trkpt>
      <trkpt lat="44.51371" lon="2.07785">
        <ele>393.5</ele>
        <time>2015-10-31T09:07:36Z</time>
      </trkpt>
      <trkpt lat="44.51371" lon="2.0778">
        <ele>393.3</ele>
        <time>2015-10-31T09:07:37Z</time>
      </trkpt>
      <trkpt lat="44.51371" lon="2.07776">
        <ele>393.1</ele>
        <time>2015-10-31T09:07:38Z</time>
      </trkpt>
      <trkpt lat="44.51371" lon="2.07772">
        <ele>392.9</ele>
        <time>2015-10-31T09:07:39Z</time>
      </trkpt>
      <trkpt lat="44.5137" lon="2.07767">
        <ele>392.6</ele>
        <time>2015-10-31T09:07:40Z</time>
      </trkpt>
      <trkpt lat="44.51369" lon="2.07762">
        <ele>392.4</ele>
        <time>2015-10-31T09:07:41Z</time>
      </trkpt>
      <trkpt lat="44.51368" lon="2.07757">
        <ele>392.1</ele>
        <time>2015-10-31T09:07:42Z</time>
      </trkpt>
      <trkpt lat="44.51368" lon="2.07752">
        <ele>391.9</ele>
        <time>2015-10-31T09:07:43Z</time>
      </trkpt>
      <trkpt lat="44.51367" lon="2.07746">
        <ele>391.6</ele>
        <time>2015-10-31T09:07:44Z</time>
      </trkpt>
      <trkpt lat="44.51367" lon="2.0774">
        <ele>391.3</ele>
        <time>2015-10-31T09:07:45Z</time>
      </trkpt>
      <trkpt lat="44.51367" lon="2.07734">
        <ele>391</ele>
        <time>2015-10-31T09:07:46Z</time>
      </trkpt>
      <trkpt lat="44.51366" lon="2.07729">
        <ele>390.8</ele>
        <time>2015-10-31T09:07:47Z</time>
      </trkpt>
      <trkpt lat="44.51366" lon="2.07721">
        <ele>390.5</ele>
        <time>2015-10-31T09:07:48Z</time>
      </trkpt>
      <trkpt lat="44.51366" lon="2.07715">
        <ele>390.2</ele>
        <time>2015-10-31T09:07:49Z</time>
      </trkpt>
      <trkpt lat="44.51366" lon="2.07711">
        <ele>390</ele>
        <time>2015-10-31T09:07:50Z</time>
      </trkpt>
      <trkpt lat="44.51366" lon="2.07704">
        <ele>389.8</ele>
        <time>2015-10-31T09:07:51Z</time>
      </trkpt>
      <trkpt lat="44.51366" lon="2.07697">
        <ele>389.6</ele>
        <time>2015-10-31T09:07:52Z</time>
      </trkpt>
      <trkpt lat="44.51368" lon="2.07681">
        <ele>389.2</ele>
        <time>2015-10-31T09:07:53Z</time>
      </trkpt>
      <trkpt lat="44.51368" lon="2.07673">
        <ele>389</ele>
        <time>2015-10-31T09:07:54Z</time>
      </trkpt>
      <trkpt lat="44.51365" lon="2.07658">
        <ele>388.5</ele>
        <time>2015-10-31T09:07:55Z</time>
      </trkpt>
      <trkpt lat="44.51366" lon="2.07647">
        <ele>388.3</ele>
        <time>2015-10-31T09:07:56Z</time>
      </trkpt>
      <trkpt lat="44.51366" lon="2.07637">
        <ele>388</ele>
        <time>2015-10-31T09:07:57Z</time>
      </trkpt>
      <trkpt lat="44.51366" lon="2.07622">
        <ele>387.5</ele>
        <time>2015-10-31T09:07:58Z</time>
      </trkpt>
      <trkpt lat="44.51368" lon="2.0761">
        <ele>387.1</ele>
        <time>2015-10-31T09:07:59Z</time>
      </trkpt>
      <trkpt lat="44.51368" lon="2.07596">
        <ele>386.4</ele>
        <time>2015-10-31T09:08:00Z</time>
      </trkpt>
      <trkpt lat="44.51369" lon="2.07585">
        <ele>385.9</ele>
        <time>2015-10-31T09:08:01Z</time>
      </trkpt>
      <trkpt lat="44.51369" lon="2.07577">
        <ele>385.5</ele>
        <time>2015-10-31T09:08:02Z</time>
      </trkpt>
      <trkpt lat="44.51368" lon="2.07564">
        <ele>384.9</ele>
        <time>2015-10-31T09:08:03Z</time>
      </trkpt>
      <trkpt lat="44.51367" lon="2.07551">
        <ele>384.3</ele>
        <time>2015-10-31T09:08:04Z</time>
      </trkpt>
      <trkpt lat="44.51367" lon="2.07538">
        <ele>383.8</ele>
        <time>2015-10-31T09:08:05Z</time>
      </trkpt>
      <trkpt lat="44.51367" lon="2.07528">
        <ele>383.6</ele>
        <time>2015-10-31T09:08:06Z</time>
      </trkpt>
      <trkpt lat="44.51365" lon="2.07519">
        <ele>383.4</ele>
        <time>2015-10-31T09:08:07Z</time>
      </trkpt>
      <trkpt lat="44.51365" lon="2.07508">
        <ele>383.2</ele>
        <time>2015-10-31T09:08:08Z</time>
      </trkpt>
      <trkpt lat="44.51364" lon="2.07496">
        <ele>382.9</ele>
        <time>2015-10-31T09:08:09Z</time>
      </trkpt>
      <trkpt lat="44.51364" lon="2.07482">
        <ele>382.6</ele>
        <time>2015-10-31T09:08:10Z</time>
      </trkpt>
      <trkpt lat="44.51364" lon="2.07469">
        <ele>382.4</ele>
        <time>2015-10-31T09:08:11Z</time>
      </trkpt>
      <trkpt lat="44.51364" lon="2.07456">
        <ele>382.1</ele>
        <time>2015-10-31T09:08:12Z</time>
      </trkpt>
      <trkpt lat="44.51365" lon="2.07407">
        <ele>382.2</ele>
        <time>2015-10-31T09:08:16Z</time>
      </trkpt>
      <trkpt lat="44.51365" lon="2.07398">
        <ele>382.3</ele>
        <time>2015-10-31T09:08:17Z</time>
      </trkpt>
      <trkpt lat="44.51365" lon="2.07387">
        <ele>382.3</ele>
        <time>2015-10-31T09:08:18Z</time>
      </trkpt>
      <trkpt lat="44.51365" lon="2.07375">
        <ele>382.2</ele>
        <time>2015-10-31T09:08:19Z</time>
      </trkpt>
      <trkpt lat="44.51363" lon="2.07361">
        <ele>381.4</ele>
        <time>2015-10-31T09:08:20Z</time>
      </trkpt>
      <trkpt lat="44.51363" lon="2.07349">
        <ele>380.8</ele>
        <time>2015-10-31T09:08:21Z</time>
      </trkpt>
      <trkpt lat="44.51364" lon="2.07339">
        <ele>380.4</ele>
        <time>2015-10-31T09:08:22Z</time>
      </trkpt>
      <trkpt lat="44.51363" lon="2.07328">
        <ele>379.7</ele>
        <time>2015-10-31T09:08:23Z</time>
      </trkpt>
      <trkpt lat="44.51362" lon="2.07317">
        <ele>379.1</ele>
        <time>2015-10-31T09:08:24Z</time>
      </trkpt>
      <trkpt lat="44.51363" lon="2.07302">
        <ele>378.4</ele>
        <time>2015-10-31T09:08:25Z</time>
      </trkpt>
      <trkpt lat="44.51363" lon="2.07289">
        <ele>377.8</ele>
        <time>2015-10-31T09:08:26Z</time>
      </trkpt>
      <trkpt lat="44.51363" lon="2.07277">
        <ele>377.5</ele>
        <time>2015-10-31T09:08:27Z</time>
      </trkpt>
      <trkpt lat="44.51363" lon="2.07266">
        <ele>377.3</ele>
        <time>2015-10-31T09:08:28Z</time>
      </trkpt>
      <trkpt lat="44.51362" lon="2.07254">
        <ele>377</ele>
        <time>2015-10-31T09:08:29Z</time>
      </trkpt>
      <trkpt lat="44.51362" lon="2.07242">
        <ele>376.7</ele>
        <time>2015-10-31T09:08:30Z</time>
      </trkpt>
      <trkpt lat="44.51363" lon="2.07231">
        <ele>376.5</ele>
        <time>2015-10-31T09:08:31Z</time>
      </trkpt>
      <trkpt lat="44.51363" lon="2.07219">
        <ele>376.2</ele>
        <time>2015-10-31T09:08:32Z</time>
      </trkpt>
      <trkpt lat="44.51362" lon="2.07209">
        <ele>376</ele>
        <time>2015-10-31T09:08:33Z</time>
      </trkpt>
      <trkpt lat="44.51362" lon="2.07199">
        <ele>375.9</ele>
        <time>2015-10-31T09:08:34Z</time>
      </trkpt>
      <trkpt lat="44.51362" lon="2.0719">
        <ele>375.7</ele>
        <time>2015-10-31T09:08:35Z</time>
      </trkpt>
      <trkpt lat="44.51363" lon="2.07181">
        <ele>375.6</ele>
        <time>2015-10-31T09:08:36Z</time>
      </trkpt>
      <trkpt lat="44.51362" lon="2.07174">
        <ele>375.5</ele>
        <time>2015-10-31T09:08:37Z</time>
      </trkpt>
      <trkpt lat="44.51362" lon="2.07164">
        <ele>375.4</ele>
        <time>2015-10-31T09:08:38Z</time>
      </trkpt>
      <trkpt lat="44.51363" lon="2.07153">
        <ele>375.2</ele>
        <time>2015-10-31T09:08:39Z</time>
      </trkpt>
      <trkpt lat="44.51363" lon="2.07144">
        <ele>375.1</ele>
        <time>2015-10-31T09:08:40Z</time>
      </trkpt>
      <trkpt lat="44.51362" lon="2.07136">
        <ele>375</ele>
        <time>2015-10-31T09:08:41Z</time>
      </trkpt>
      <trkpt lat="44.51364" lon="2.07126">
        <ele>374.9</ele>
        <time>2015-10-31T09:08:42Z</time>
      </trkpt>
      <trkpt lat="44.51363" lon="2.07117">
        <ele>374.9</ele>
        <time>2015-10-31T09:08:43Z</time>
      </trkpt>
      <trkpt lat="44.51363" lon="2.07106">
        <ele>374.9</ele>
        <time>2015-10-31T09:08:44Z</time>
      </trkpt>
      <trkpt lat="44.51365" lon="2.07098">
        <ele>374.9</ele>
        <time>2015-10-31T09:08:45Z</time>
      </trkpt>
      <trkpt lat="44.51365" lon="2.07089">
        <ele>374.9</ele>
        <time>2015-10-31T09:08:46Z</time>
      </trkpt>
      <trkpt lat="44.51364" lon="2.07081">
        <ele>374.9</ele>
        <time>2015-10-31T09:08:47Z</time>
      </trkpt>
      <trkpt lat="44.51365" lon="2.0707">
        <ele>375</ele>
        <time>2015-10-31T09:08:48Z</time>
      </trkpt>
      <trkpt lat="44.51366" lon="2.07061">
        <ele>375</ele>
        <time>2015-10-31T09:08:49Z</time>
      </trkpt>
      <trkpt lat="44.51365" lon="2.07049">
        <ele>375</ele>
        <time>2015-10-31T09:08:50Z</time>
      </trkpt>
      <trkpt lat="44.51365" lon="2.07038">
        <ele>374.9</ele>
        <time>2015-10-31T09:08:51Z</time>
      </trkpt>
      <trkpt lat="44.51368" lon="2.07033">
        <ele>374.8</ele>
        <time>2015-10-31T09:08:52Z</time>
      </trkpt>
      <trkpt lat="44.5137" lon="2.07023">
        <ele>374.6</ele>
        <time>2015-10-31T09:08:53Z</time>
      </trkpt>
      <trkpt lat="44.51369" lon="2.07013">
        <ele>374.4</ele>
        <time>2015-10-31T09:08:54Z</time>
      </trkpt>
      <trkpt lat="44.51369" lon="2.07004">
        <ele>374.2</ele>
        <time>2015-10-31T09:08:55Z</time>
      </trkpt>
      <trkpt lat="44.51367" lon="2.0699">
        <ele>373.9</ele>
        <time>2015-10-31T09:08:56Z</time>
      </trkpt>
      <trkpt lat="44.51367" lon="2.06979">
        <ele>373.7</ele>
        <time>2015-10-31T09:08:57Z</time>
      </trkpt>
      <trkpt lat="44.51366" lon="2.06963">
        <ele>373.4</ele>
        <time>2015-10-31T09:08:58Z</time>
      </trkpt>
      <trkpt lat="44.51366" lon="2.06952">
        <ele>372.9</ele>
        <time>2015-10-31T09:08:59Z</time>
      </trkpt>
      <trkpt lat="44.51366" lon="2.06941">
        <ele>372.1</ele>
        <time>2015-10-31T09:09:00Z</time>
      </trkpt>
      <trkpt lat="44.51367" lon="2.06931">
        <ele>371.4</ele>
        <time>2015-10-31T09:09:01Z</time>
      </trkpt>
      <trkpt lat="44.51366" lon="2.06919">
        <ele>370.6</ele>
        <time>2015-10-31T09:09:02Z</time>
      </trkpt>
      <trkpt lat="44.51366" lon="2.06908">
        <ele>369.8</ele>
        <time>2015-10-31T09:09:03Z</time>
      </trkpt>
      <trkpt lat="44.51366" lon="2.06896">
        <ele>369</ele>
        <time>2015-10-31T09:09:04Z</time>
      </trkpt>
      <trkpt lat="44.51366" lon="2.06884">
        <ele>368.2</ele>
        <time>2015-10-31T09:09:05Z</time>
      </trkpt>
      <trkpt lat="44.51367" lon="2.0687">
        <ele>367.5</ele>
        <time>2015-10-31T09:09:06Z</time>
      </trkpt>
      <trkpt lat="44.51366" lon="2.06857">
        <ele>367.5</ele>
        <time>2015-10-31T09:09:07Z</time>
      </trkpt>
      <trkpt lat="44.51366" lon="2.06843">
        <ele>367.5</ele>
        <time>2015-10-31T09:09:08Z</time>
      </trkpt>
      <trkpt lat="44.51368" lon="2.06833">
        <ele>367.4</ele>
        <time>2015-10-31T09:09:09Z</time>
      </trkpt>
      <trkpt lat="44.51368" lon="2.06821">
        <ele>367.4</ele>
        <time>2015-10-31T09:09:10Z</time>
      </trkpt>
      <trkpt lat="44.51367" lon="2.06808">
        <ele>367.5</ele>
        <time>2015-10-31T09:09:11Z</time>
      </trkpt>
      <trkpt lat="44.51367" lon="2.06795">
        <ele>367.5</ele>
        <time>2015-10-31T09:09:12Z</time>
      </trkpt>
      <trkpt lat="44.51368" lon="2.06781">
        <ele>367.4</ele>
        <time>2015-10-31T09:09:13Z</time>
      </trkpt>
      <trkpt lat="44.51368" lon="2.06766">
        <ele>367.4</ele>
        <time>2015-10-31T09:09:14Z</time>
      </trkpt>
      <trkpt lat="44.51368" lon="2.06752">
        <ele>367.4</ele>
        <time>2015-10-31T09:09:15Z</time>
      </trkpt>
      <trkpt lat="44.51368" lon="2.06737">
        <ele>367.4</ele>
        <time>2015-10-31T09:09:16Z</time>
      </trkpt>
      <trkpt lat="44.51368" lon="2.06723">
        <ele>367.4</ele>
        <time>2015-10-31T09:09:17Z</time>
      </trkpt>
      <trkpt lat="44.51369" lon="2.0671">
        <ele>367.4</ele>
        <time>2015-10-31T09:09:18Z</time>
      </trkpt>
      <trkpt lat="44.51369" lon="2.06697">
        <ele>367.2</ele>
        <time>2015-10-31T09:09:19Z</time>
      </trkpt>
      <trkpt lat="44.5137" lon="2.06685">
        <ele>367</ele>
        <time>2015-10-31T09:09:20Z</time>
      </trkpt>
      <trkpt lat="44.51371" lon="2.06671">
        <ele>366.7</ele>
        <time>2015-10-31T09:09:21Z</time>
      </trkpt>
      <trkpt lat="44.51371" lon="2.06658">
        <ele>366.6</ele>
        <time>2015-10-31T09:09:22Z</time>
      </trkpt>
      <trkpt lat="44.5137" lon="2.06647">
        <ele>366.4</ele>
        <time>2015-10-31T09:09:23Z</time>
      </trkpt>
      <trkpt lat="44.51368" lon="2.06636">
        <ele>366.3</ele>
        <time>2015-10-31T09:09:24Z</time>
      </trkpt>
      <trkpt lat="44.51368" lon="2.06625">
        <ele>366.2</ele>
        <time>2015-10-31T09:09:25Z</time>
      </trkpt>
      <trkpt lat="44.51368" lon="2.06615">
        <ele>366</ele>
        <time>2015-10-31T09:09:26Z</time>
      </trkpt>
      <trkpt lat="44.51368" lon="2.06606">
        <ele>365.9</ele>
        <time>2015-10-31T09:09:27Z</time>
      </trkpt>
      <trkpt lat="44.51368" lon="2.06596">
        <ele>365.8</ele>
        <time>2015-10-31T09:09:28Z</time>
      </trkpt>
      <trkpt lat="44.51372" lon="2.06587">
        <ele>365.6</ele>
        <time>2015-10-31T09:09:29Z</time>
      </trkpt>
      <trkpt lat="44.51371" lon="2.06578">
        <ele>365.5</ele>
        <time>2015-10-31T09:09:30Z</time>
      </trkpt>
      <trkpt lat="44.51371" lon="2.06568">
        <ele>365.3</ele>
        <time>2015-10-31T09:09:31Z</time>
      </trkpt>
      <trkpt lat="44.5137" lon="2.06558">
        <ele>365.2</ele>
        <time>2015-10-31T09:09:32Z</time>
      </trkpt>
      <trkpt lat="44.51368" lon="2.06548">
        <ele>365.1</ele>
        <time>2015-10-31T09:09:33Z</time>
      </trkpt>
      <trkpt lat="44.51368" lon="2.06537">
        <ele>364.9</ele>
        <time>2015-10-31T09:09:34Z</time>
      </trkpt>
      <trkpt lat="44.51368" lon="2.06527">
        <ele>364.7</ele>
        <time>2015-10-31T09:09:35Z</time>
      </trkpt>
      <trkpt lat="44.51367" lon="2.06516">
        <ele>364.5</ele>
        <time>2015-10-31T09:09:36Z</time>
      </trkpt>
      <trkpt lat="44.51368" lon="2.06505">
        <ele>364.3</ele>
        <time>2015-10-31T09:09:37Z</time>
      </trkpt>
      <trkpt lat="44.51367" lon="2.06495">
        <ele>364.1</ele>
        <time>2015-10-31T09:09:38Z</time>
      </trkpt>
      <trkpt lat="44.51367" lon="2.0648">
        <ele>363.8</ele>
        <time>2015-10-31T09:09:39Z</time>
      </trkpt>
      <trkpt lat="44.51368" lon="2.06466">
        <ele>363.5</ele>
        <time>2015-10-31T09:09:40Z</time>
      </trkpt>
      <trkpt lat="44.51367" lon="2.06455">
        <ele>363.3</ele>
        <time>2015-10-31T09:09:41Z</time>
      </trkpt>
      <trkpt lat="44.51367" lon="2.06442">
        <ele>363</ele>
        <time>2015-10-31T09:09:42Z</time>
      </trkpt>
      <trkpt lat="44.51367" lon="2.06431">
        <ele>362.7</ele>
        <time>2015-10-31T09:09:43Z</time>
      </trkpt>
      <trkpt lat="44.51365" lon="2.06421">
        <ele>362.6</ele>
        <time>2015-10-31T09:09:44Z</time>
      </trkpt>
      <trkpt lat="44.51367" lon="2.0641">
        <ele>362.2</ele>
        <time>2015-10-31T09:09:45Z</time>
      </trkpt>
      <trkpt lat="44.51366" lon="2.06395">
        <ele>361.9</ele>
        <time>2015-10-31T09:09:46Z</time>
      </trkpt>
      <trkpt lat="44.51366" lon="2.06383">
        <ele>361.6</ele>
        <time>2015-10-31T09:09:47Z</time>
      </trkpt>
      <trkpt lat="44.51365" lon="2.0637">
        <ele>361.5</ele>
        <time>2015-10-31T09:09:48Z</time>
      </trkpt>
      <trkpt lat="44.51365" lon="2.06358">
        <ele>361.4</ele>
        <time>2015-10-31T09:09:49Z</time>
      </trkpt>
      <trkpt lat="44.51365" lon="2.06346">
        <ele>361.4</ele>
        <time>2015-10-31T09:09:50Z</time>
      </trkpt>
      <trkpt lat="44.51366" lon="2.06334">
        <ele>361.3</ele>
        <time>2015-10-31T09:09:51Z</time>
      </trkpt>
      <trkpt lat="44.51367" lon="2.06323">
        <ele>361.3</ele>
        <time>2015-10-31T09:09:52Z</time>
      </trkpt>
      <trkpt lat="44.51367" lon="2.0631">
        <ele>361.2</ele>
        <time>2015-10-31T09:09:53Z</time>
      </trkpt>
      <trkpt lat="44.51367" lon="2.06298">
        <ele>361.2</ele>
        <time>2015-10-31T09:09:54Z</time>
      </trkpt>
      <trkpt lat="44.51367" lon="2.06286">
        <ele>361.1</ele>
        <time>2015-10-31T09:09:55Z</time>
      </trkpt>
      <trkpt lat="44.51367" lon="2.06274">
        <ele>361</ele>
        <time>2015-10-31T09:09:56Z</time>
      </trkpt>
      <trkpt lat="44.51367" lon="2.06262">
        <ele>360.8</ele>
        <time>2015-10-31T09:09:57Z</time>
      </trkpt>
      <trkpt lat="44.51367" lon="2.06251">
        <ele>360.6</ele>
        <time>2015-10-31T09:09:58Z</time>
      </trkpt>
      <trkpt lat="44.51367" lon="2.0624">
        <ele>360.5</ele>
        <time>2015-10-31T09:09:59Z</time>
      </trkpt>
      <trkpt lat="44.51367" lon="2.0623">
        <ele>360.4</ele>
        <time>2015-10-31T09:10:00Z</time>
      </trkpt>
      <trkpt lat="44.51368" lon="2.0622">
        <ele>360.2</ele>
        <time>2015-10-31T09:10:01Z</time>
      </trkpt>
      <trkpt lat="44.51368" lon="2.06212">
        <ele>360.1</ele>
        <time>2015-10-31T09:10:02Z</time>
      </trkpt>
      <trkpt lat="44.51368" lon="2.06202">
        <ele>360</ele>
        <time>2015-10-31T09:10:03Z</time>
      </trkpt>
      <trkpt lat="44.51368" lon="2.06193">
        <ele>359.9</ele>
        <time>2015-10-31T09:10:04Z</time>
      </trkpt>
      <trkpt lat="44.51368" lon="2.06184">
        <ele>359.7</ele>
        <time>2015-10-31T09:10:05Z</time>
      </trkpt>
      <trkpt lat="44.51368" lon="2.06175">
        <ele>359.6</ele>
        <time>2015-10-31T09:10:06Z</time>
      </trkpt>
      <trkpt lat="44.51368" lon="2.06166">
        <ele>359.5</ele>
        <time>2015-10-31T09:10:07Z</time>
      </trkpt>
      <trkpt lat="44.51369" lon="2.06158">
        <ele>359.4</ele>
        <time>2015-10-31T09:10:08Z</time>
      </trkpt>
      <trkpt lat="44.51368" lon="2.06149">
        <ele>359.3</ele>
        <time>2015-10-31T09:10:09Z</time>
      </trkpt>
      <trkpt lat="44.51368" lon="2.0614">
        <ele>359.1</ele>
        <time>2015-10-31T09:10:10Z</time>
      </trkpt>
      <trkpt lat="44.51369" lon="2.06131">
        <ele>359</ele>
        <time>2015-10-31T09:10:11Z</time>
      </trkpt>
      <trkpt lat="44.51368" lon="2.06123">
        <ele>358.9</ele>
        <time>2015-10-31T09:10:12Z</time>
      </trkpt>
      <trkpt lat="44.51367" lon="2.06113">
        <ele>358.7</ele>
        <time>2015-10-31T09:10:13Z</time>
      </trkpt>
      <trkpt lat="44.51368" lon="2.06105">
        <ele>358.7</ele>
        <time>2015-10-31T09:10:14Z</time>
      </trkpt>
      <trkpt lat="44.51369" lon="2.06096">
        <ele>358.5</ele>
        <time>2015-10-31T09:10:15Z</time>
      </trkpt>
      <trkpt lat="44.5137" lon="2.06085">
        <ele>358.4</ele>
        <time>2015-10-31T09:10:16Z</time>
      </trkpt>
      <trkpt lat="44.5137" lon="2.06074">
        <ele>358.3</ele>
        <time>2015-10-31T09:10:17Z</time>
      </trkpt>
      <trkpt lat="44.51371" lon="2.06065">
        <ele>358.2</ele>
        <time>2015-10-31T09:10:18Z</time>
      </trkpt>
      <trkpt lat="44.51371" lon="2.06056">
        <ele>358.1</ele>
        <time>2015-10-31T09:10:19Z</time>
      </trkpt>
      <trkpt lat="44.5137" lon="2.06049">
        <ele>358</ele>
        <time>2015-10-31T09:10:20Z</time>
      </trkpt>
      <trkpt lat="44.51369" lon="2.06039">
        <ele>357.8</ele>
        <time>2015-10-31T09:10:21Z</time>
      </trkpt>
      <trkpt lat="44.51369" lon="2.06027">
        <ele>357.5</ele>
        <time>2015-10-31T09:10:22Z</time>
      </trkpt>
      <trkpt lat="44.51369" lon="2.06017">
        <ele>357.3</ele>
        <time>2015-10-31T09:10:23Z</time>
      </trkpt>
      <trkpt lat="44.51371" lon="2.06007">
        <ele>357.1</ele>
        <time>2015-10-31T09:10:24Z</time>
      </trkpt>
      <trkpt lat="44.51372" lon="2.05998">
        <ele>356.9</ele>
        <time>2015-10-31T09:10:25Z</time>
      </trkpt>
      <trkpt lat="44.51371" lon="2.05987">
        <ele>356.6</ele>
        <time>2015-10-31T09:10:26Z</time>
      </trkpt>
      <trkpt lat="44.51371" lon="2.05974">
        <ele>356.3</ele>
        <time>2015-10-31T09:10:27Z</time>
      </trkpt>
      <trkpt lat="44.51371" lon="2.05962">
        <ele>356</ele>
        <time>2015-10-31T09:10:28Z</time>
      </trkpt>
      <trkpt lat="44.51371" lon="2.0595">
        <ele>355.7</ele>
        <time>2015-10-31T09:10:29Z</time>
      </trkpt>
      <trkpt lat="44.51372" lon="2.05939">
        <ele>355.3</ele>
        <time>2015-10-31T09:10:30Z</time>
      </trkpt>
      <trkpt lat="44.51373" lon="2.05927">
        <ele>354.9</ele>
        <time>2015-10-31T09:10:31Z</time>
      </trkpt>
      <trkpt lat="44.51373" lon="2.05915">
        <ele>354.4</ele>
        <time>2015-10-31T09:10:32Z</time>
      </trkpt>
      <trkpt lat="44.51372" lon="2.05904">
        <ele>354</ele>
        <time>2015-10-31T09:10:33Z</time>
      </trkpt>
      <trkpt lat="44.51371" lon="2.05893">
        <ele>353.6</ele>
        <time>2015-10-31T09:10:34Z</time>
      </trkpt>
      <trkpt lat="44.51371" lon="2.05881">
        <ele>353.2</ele>
        <time>2015-10-31T09:10:35Z</time>
      </trkpt>
      <trkpt lat="44.51372" lon="2.0587">
        <ele>353</ele>
        <time>2015-10-31T09:10:36Z</time>
      </trkpt>
      <trkpt lat="44.51372" lon="2.05858">
        <ele>353</ele>
        <time>2015-10-31T09:10:37Z</time>
      </trkpt>
      <trkpt lat="44.51372" lon="2.05845">
        <ele>353</ele>
        <time>2015-10-31T09:10:38Z</time>
      </trkpt>
      <trkpt lat="44.51372" lon="2.05832">
        <ele>353.1</ele>
        <time>2015-10-31T09:10:39Z</time>
      </trkpt>
      <trkpt lat="44.51371" lon="2.05819">
        <ele>353.1</ele>
        <time>2015-10-31T09:10:40Z</time>
      </trkpt>
      <trkpt lat="44.5137" lon="2.05806">
        <ele>353.2</ele>
        <time>2015-10-31T09:10:41Z</time>
      </trkpt>
      <trkpt lat="44.51371" lon="2.05791">
        <ele>353.1</ele>
        <time>2015-10-31T09:10:42Z</time>
      </trkpt>
      <trkpt lat="44.5137" lon="2.05779">
        <ele>353.1</ele>
        <time>2015-10-31T09:10:43Z</time>
      </trkpt>
      <trkpt lat="44.51368" lon="2.05769">
        <ele>353</ele>
        <time>2015-10-31T09:10:44Z</time>
      </trkpt>
      <trkpt lat="44.51369" lon="2.05763">
        <ele>352.9</ele>
        <time>2015-10-31T09:10:45Z</time>
      </trkpt>
      <trkpt lat="44.51369" lon="2.05754">
        <ele>352.8</ele>
        <time>2015-10-31T09:10:46Z</time>
      </trkpt>
      <trkpt lat="44.51369" lon="2.0574">
        <ele>352.6</ele>
        <time>2015-10-31T09:10:47Z</time>
      </trkpt>
      <trkpt lat="44.5137" lon="2.05729">
        <ele>352.5</ele>
        <time>2015-10-31T09:10:48Z</time>
      </trkpt>
      <trkpt lat="44.51369" lon="2.05717">
        <ele>352.4</ele>
        <time>2015-10-31T09:10:49Z</time>
      </trkpt>
      <trkpt lat="44.51369" lon="2.05706">
        <ele>352.4</ele>
        <time>2015-10-31T09:10:50Z</time>
      </trkpt>
      <trkpt lat="44.51371" lon="2.05695">
        <ele>352.5</ele>
        <time>2015-10-31T09:10:51Z</time>
      </trkpt>
      <trkpt lat="44.51371" lon="2.05684">
        <ele>352.7</ele>
        <time>2015-10-31T09:10:52Z</time>
      </trkpt>
      <trkpt lat="44.5137" lon="2.05671">
        <ele>353</ele>
        <time>2015-10-31T09:10:53Z</time>
      </trkpt>
      <trkpt lat="44.5137" lon="2.05665">
        <ele>353.2</ele>
        <time>2015-10-31T09:10:54Z</time>
      </trkpt>
      <trkpt lat="44.5137" lon="2.05653">
        <ele>353.4</ele>
        <time>2015-10-31T09:10:55Z</time>
      </trkpt>
      <trkpt lat="44.5137" lon="2.05643">
        <ele>353.6</ele>
        <time>2015-10-31T09:10:56Z</time>
      </trkpt>
      <trkpt lat="44.5137" lon="2.05631">
        <ele>353.9</ele>
        <time>2015-10-31T09:10:57Z</time>
      </trkpt>
      <trkpt lat="44.51371" lon="2.05619">
        <ele>353.9</ele>
        <time>2015-10-31T09:10:58Z</time>
      </trkpt>
      <trkpt lat="44.51371" lon="2.05608">
        <ele>353.8</ele>
        <time>2015-10-31T09:10:59Z</time>
      </trkpt>
      <trkpt lat="44.51371" lon="2.05598">
        <ele>353.7</ele>
        <time>2015-10-31T09:11:00Z</time>
      </trkpt>
      <trkpt lat="44.51373" lon="2.05592">
        <ele>353.6</ele>
        <time>2015-10-31T09:11:01Z</time>
      </trkpt>
      <trkpt lat="44.51376" lon="2.05585">
        <ele>353.5</ele>
        <time>2015-10-31T09:11:02Z</time>
      </trkpt>
      <trkpt lat="44.51376" lon="2.05576">
        <ele>353.4</ele>
        <time>2015-10-31T09:11:03Z</time>
      </trkpt>
      <trkpt lat="44.51376" lon="2.05568">
        <ele>353.3</ele>
        <time>2015-10-31T09:11:04Z</time>
      </trkpt>
      <trkpt lat="44.51375" lon="2.05559">
        <ele>353.2</ele>
        <time>2015-10-31T09:11:05Z</time>
      </trkpt>
      <trkpt lat="44.51375" lon="2.05551">
        <ele>353.1</ele>
        <time>2015-10-31T09:11:06Z</time>
      </trkpt>
      <trkpt lat="44.51376" lon="2.05537">
        <ele>352.8</ele>
        <time>2015-10-31T09:11:08Z</time>
      </trkpt>
      <trkpt lat="44.51376" lon="2.05529">
        <ele>352.5</ele>
        <time>2015-10-31T09:11:09Z</time>
      </trkpt>
      <trkpt lat="44.51374" lon="2.05523">
        <ele>352.3</ele>
        <time>2015-10-31T09:11:10Z</time>
      </trkpt>
      <trkpt lat="44.51374" lon="2.05517">
        <ele>352.1</ele>
        <time>2015-10-31T09:11:11Z</time>
      </trkpt>
      <trkpt lat="44.51374" lon="2.0551">
        <ele>351.9</ele>
        <time>2015-10-31T09:11:12Z</time>
      </trkpt>
      <trkpt lat="44.51375" lon="2.05502">
        <ele>351.6</ele>
        <time>2015-10-31T09:11:13Z</time>
      </trkpt>
      <trkpt lat="44.51376" lon="2.05494">
        <ele>351.3</ele>
        <time>2015-10-31T09:11:14Z</time>
      </trkpt>
      <trkpt lat="44.51377" lon="2.05487">
        <ele>351</ele>
        <time>2015-10-31T09:11:15Z</time>
      </trkpt>
      <trkpt lat="44.51377" lon="2.05478">
        <ele>350.7</ele>
        <time>2015-10-31T09:11:16Z</time>
      </trkpt>
      <trkpt lat="44.51377" lon="2.05469">
        <ele>350.4</ele>
        <time>2015-10-31T09:11:17Z</time>
      </trkpt>
      <trkpt lat="44.51378" lon="2.0546">
        <ele>350.1</ele>
        <time>2015-10-31T09:11:18Z</time>
      </trkpt>
      <trkpt lat="44.5138" lon="2.05453">
        <ele>350.1</ele>
        <time>2015-10-31T09:11:19Z</time>
      </trkpt>
      <trkpt lat="44.51383" lon="2.05447">
        <ele>350.1</ele>
        <time>2015-10-31T09:11:20Z</time>
      </trkpt>
      <trkpt lat="44.51385" lon="2.05442">
        <ele>350.1</ele>
        <time>2015-10-31T09:11:21Z</time>
      </trkpt>
      <trkpt lat="44.51388" lon="2.05435">
        <ele>350.1</ele>
        <time>2015-10-31T09:11:22Z</time>
      </trkpt>
      <trkpt lat="44.51393" lon="2.05429">
        <ele>350.1</ele>
        <time>2015-10-31T09:11:23Z</time>
      </trkpt>
      <trkpt lat="44.51396" lon="2.05425">
        <ele>350.1</ele>
        <time>2015-10-31T09:11:24Z</time>
      </trkpt>
      <trkpt lat="44.51402" lon="2.05417">
        <ele>350.2</ele>
        <time>2015-10-31T09:11:25Z</time>
      </trkpt>
      <trkpt lat="44.51406" lon="2.05411">
        <ele>350.2</ele>
        <time>2015-10-31T09:11:26Z</time>
      </trkpt>
      <trkpt lat="44.51411" lon="2.05405">
        <ele>350.2</ele>
        <time>2015-10-31T09:11:27Z</time>
      </trkpt>
      <trkpt lat="44.51414" lon="2.05399">
        <ele>350.1</ele>
        <time>2015-10-31T09:11:28Z</time>
      </trkpt>
      <trkpt lat="44.51418" lon="2.05393">
        <ele>350.1</ele>
        <time>2015-10-31T09:11:29Z</time>
      </trkpt>
      <trkpt lat="44.51424" lon="2.05387">
        <ele>350.1</ele>
        <time>2015-10-31T09:11:30Z</time>
      </trkpt>
      <trkpt lat="44.51427" lon="2.05382">
        <ele>350</ele>
        <time>2015-10-31T09:11:31Z</time>
      </trkpt>
      <trkpt lat="44.5143" lon="2.05376">
        <ele>350</ele>
        <time>2015-10-31T09:11:32Z</time>
      </trkpt>
      <trkpt lat="44.51434" lon="2.0537">
        <ele>350</ele>
        <time>2015-10-31T09:11:33Z</time>
      </trkpt>
      <trkpt lat="44.51437" lon="2.05364">
        <ele>349.9</ele>
        <time>2015-10-31T09:11:34Z</time>
      </trkpt>
      <trkpt lat="44.51441" lon="2.05359">
        <ele>349.9</ele>
        <time>2015-10-31T09:11:35Z</time>
      </trkpt>
      <trkpt lat="44.51444" lon="2.05352">
        <ele>349.9</ele>
        <time>2015-10-31T09:11:36Z</time>
      </trkpt>
      <trkpt lat="44.51447" lon="2.05346">
        <ele>349.9</ele>
        <time>2015-10-31T09:11:37Z</time>
      </trkpt>
      <trkpt lat="44.51449" lon="2.05339">
        <ele>349.9</ele>
        <time>2015-10-31T09:11:38Z</time>
      </trkpt>
      <trkpt lat="44.51452" lon="2.05333">
        <ele>349.9</ele>
        <time>2015-10-31T09:11:39Z</time>
      </trkpt>
      <trkpt lat="44.51455" lon="2.05326">
        <ele>349.9</ele>
        <time>2015-10-31T09:11:40Z</time>
      </trkpt>
      <trkpt lat="44.51458" lon="2.05326">
        <ele>350</ele>
        <time>2015-10-31T09:11:41Z</time>
      </trkpt>
      <trkpt lat="44.51459" lon="2.05321">
        <ele>350</ele>
        <time>2015-10-31T09:11:42Z</time>
      </trkpt>
      <trkpt lat="44.51459" lon="2.05311">
        <ele>350</ele>
        <time>2015-10-31T09:11:43Z</time>
      </trkpt>
      <trkpt lat="44.51458" lon="2.05304">
        <ele>350</ele>
        <time>2015-10-31T09:11:44Z</time>
      </trkpt>
      <trkpt lat="44.51458" lon="2.05296">
        <ele>350</ele>
        <time>2015-10-31T09:11:45Z</time>
      </trkpt>
      <trkpt lat="44.51457" lon="2.05288">
        <ele>350</ele>
        <time>2015-10-31T09:11:46Z</time>
      </trkpt>
      <trkpt lat="44.51457" lon="2.05279">
        <ele>350</ele>
        <time>2015-10-31T09:11:47Z</time>
      </trkpt>
      <trkpt lat="44.51457" lon="2.05271">
        <ele>350</ele>
        <time>2015-10-31T09:11:48Z</time>
      </trkpt>
      <trkpt lat="44.51455" lon="2.05264">
        <ele>349.9</ele>
        <time>2015-10-31T09:11:49Z</time>
      </trkpt>
      <trkpt lat="44.51455" lon="2.05258">
        <ele>349.9</ele>
        <time>2015-10-31T09:11:50Z</time>
      </trkpt>
      <trkpt lat="44.51453" lon="2.05251">
        <ele>349.8</ele>
        <time>2015-10-31T09:11:51Z</time>
      </trkpt>
      <trkpt lat="44.51454" lon="2.05246">
        <ele>349.9</ele>
        <time>2015-10-31T09:11:52Z</time>
      </trkpt>
      <trkpt lat="44.51454" lon="2.0524">
        <ele>349.9</ele>
        <time>2015-10-31T09:11:53Z</time>
      </trkpt>
      <trkpt lat="44.51455" lon="2.05232">
        <ele>349.9</ele>
        <time>2015-10-31T09:11:54Z</time>
      </trkpt>
      <trkpt lat="44.51456" lon="2.05224">
        <ele>349.9</ele>
        <time>2015-10-31T09:11:55Z</time>
      </trkpt>
      <trkpt lat="44.51455" lon="2.05216">
        <ele>349.9</ele>
        <time>2015-10-31T09:11:56Z</time>
      </trkpt>
      <trkpt lat="44.51456" lon="2.05209">
        <ele>349.9</ele>
        <time>2015-10-31T09:11:57Z</time>
      </trkpt>
      <trkpt lat="44.51455" lon="2.05202">
        <ele>349.7</ele>
        <time>2015-10-31T09:11:58Z</time>
      </trkpt>
      <trkpt lat="44.51455" lon="2.05193">
        <ele>349.5</ele>
        <time>2015-10-31T09:11:59Z</time>
      </trkpt>
      <trkpt lat="44.51453" lon="2.05182">
        <ele>349.2</ele>
        <time>2015-10-31T09:12:00Z</time>
      </trkpt>
      <trkpt lat="44.51453" lon="2.05174">
        <ele>349</ele>
        <time>2015-10-31T09:12:01Z</time>
      </trkpt>
      <trkpt lat="44.51452" lon="2.05166">
        <ele>348.8</ele>
        <time>2015-10-31T09:12:02Z</time>
      </trkpt>
      <trkpt lat="44.51452" lon="2.05159">
        <ele>348.6</ele>
        <time>2015-10-31T09:12:03Z</time>
      </trkpt>
      <trkpt lat="44.51451" lon="2.05152">
        <ele>348.5</ele>
        <time>2015-10-31T09:12:04Z</time>
      </trkpt>
      <trkpt lat="44.51451" lon="2.05144">
        <ele>348.2</ele>
        <time>2015-10-31T09:12:05Z</time>
      </trkpt>
      <trkpt lat="44.5145" lon="2.05135">
        <ele>348</ele>
        <time>2015-10-31T09:12:06Z</time>
      </trkpt>
      <trkpt lat="44.51448" lon="2.05127">
        <ele>347.8</ele>
        <time>2015-10-31T09:12:07Z</time>
      </trkpt>
      <trkpt lat="44.51448" lon="2.05117">
        <ele>347.7</ele>
        <time>2015-10-31T09:12:08Z</time>
      </trkpt>
      <trkpt lat="44.51448" lon="2.0511">
        <ele>347.6</ele>
        <time>2015-10-31T09:12:09Z</time>
      </trkpt>
      <trkpt lat="44.51448" lon="2.05101">
        <ele>347.5</ele>
        <time>2015-10-31T09:12:10Z</time>
      </trkpt>
      <trkpt lat="44.51448" lon="2.05091">
        <ele>347.4</ele>
        <time>2015-10-31T09:12:11Z</time>
      </trkpt>
      <trkpt lat="44.51447" lon="2.05078">
        <ele>347.2</ele>
        <time>2015-10-31T09:12:12Z</time>
      </trkpt>
      <trkpt lat="44.51446" lon="2.05069">
        <ele>347.1</ele>
        <time>2015-10-31T09:12:13Z</time>
      </trkpt>
      <trkpt lat="44.51446" lon="2.0506">
        <ele>347</ele>
        <time>2015-10-31T09:12:14Z</time>
      </trkpt>
      <trkpt lat="44.51447" lon="2.0505">
        <ele>346.9</ele>
        <time>2015-10-31T09:12:15Z</time>
      </trkpt>
      <trkpt lat="44.51447" lon="2.05039">
        <ele>346.8</ele>
        <time>2015-10-31T09:12:16Z</time>
      </trkpt>
      <trkpt lat="44.51446" lon="2.05029">
        <ele>346.5</ele>
        <time>2015-10-31T09:12:17Z</time>
      </trkpt>
      <trkpt lat="44.51445" lon="2.05017">
        <ele>346.1</ele>
        <time>2015-10-31T09:12:18Z</time>
      </trkpt>
      <trkpt lat="44.51444" lon="2.05007">
        <ele>345.8</ele>
        <time>2015-10-31T09:12:19Z</time>
      </trkpt>
      <trkpt lat="44.51444" lon="2.04997">
        <ele>345.5</ele>
        <time>2015-10-31T09:12:20Z</time>
      </trkpt>
      <trkpt lat="44.51444" lon="2.04986">
        <ele>345.2</ele>
        <time>2015-10-31T09:12:21Z</time>
      </trkpt>
      <trkpt lat="44.51443" lon="2.04976">
        <ele>344.9</ele>
        <time>2015-10-31T09:12:22Z</time>
      </trkpt>
      <trkpt lat="44.51441" lon="2.04964">
        <ele>344.6</ele>
        <time>2015-10-31T09:12:23Z</time>
      </trkpt>
      <trkpt lat="44.51439" lon="2.04955">
        <ele>344.3</ele>
        <time>2015-10-31T09:12:24Z</time>
      </trkpt>
      <trkpt lat="44.51438" lon="2.04948">
        <ele>344.1</ele>
        <time>2015-10-31T09:12:25Z</time>
      </trkpt>
      <trkpt lat="44.51438" lon="2.04943">
        <ele>344</ele>
        <time>2015-10-31T09:12:26Z</time>
      </trkpt>
      <trkpt lat="44.51435" lon="2.0494">
        <ele>344</ele>
        <time>2015-10-31T09:12:27Z</time>
      </trkpt>
      <trkpt lat="44.51435" lon="2.04936">
        <ele>343.8</ele>
        <time>2015-10-31T09:12:28Z</time>
      </trkpt>
      <trkpt lat="44.51432" lon="2.0494">
        <ele>344.1</ele>
        <time>2015-10-31T09:12:35Z</time>
      </trkpt>
      <trkpt lat="44.5143" lon="2.0493">
        <ele>343.9</ele>
        <time>2015-10-31T09:12:41Z</time>
      </trkpt>
      <trkpt lat="44.51427" lon="2.04925">
        <ele>343.9</ele>
        <time>2015-10-31T09:12:43Z</time>
      </trkpt>
      <trkpt lat="44.51424" lon="2.0492">
        <ele>343.9</ele>
        <time>2015-10-31T09:12:45Z</time>
      </trkpt>
      <trkpt lat="44.51422" lon="2.04915">
        <ele>344</ele>
        <time>2015-10-31T09:12:47Z</time>
      </trkpt>
      <trkpt lat="44.5142" lon="2.04911">
        <ele>344</ele>
        <time>2015-10-31T09:12:48Z</time>
      </trkpt>
      <trkpt lat="44.51417" lon="2.04906">
        <ele>344</ele>
        <time>2015-10-31T09:12:50Z</time>
      </trkpt>
      <trkpt lat="44.51414" lon="2.04901">
        <ele>344.1</ele>
        <time>2015-10-31T09:12:52Z</time>
      </trkpt>
      <trkpt lat="44.51412" lon="2.04894">
        <ele>344.2</ele>
        <time>2015-10-31T09:12:54Z</time>
      </trkpt>
      <trkpt lat="44.51411" lon="2.04891">
        <ele>344.2</ele>
        <time>2015-10-31T09:12:55Z</time>
      </trkpt>
      <trkpt lat="44.51409" lon="2.04887">
        <ele>344.3</ele>
        <time>2015-10-31T09:12:56Z</time>
      </trkpt>
      <trkpt lat="44.51407" lon="2.04884">
        <ele>344.4</ele>
        <time>2015-10-31T09:12:57Z</time>
      </trkpt>
      <trkpt lat="44.51405" lon="2.0488">
        <ele>344.5</ele>
        <time>2015-10-31T09:12:58Z</time>
      </trkpt>
      <trkpt lat="44.51401" lon="2.04872">
        <ele>344.8</ele>
        <time>2015-10-31T09:13:00Z</time>
      </trkpt>
      <trkpt lat="44.51399" lon="2.04867">
        <ele>345</ele>
        <time>2015-10-31T09:13:01Z</time>
      </trkpt>
      <trkpt lat="44.51397" lon="2.04862">
        <ele>345.2</ele>
        <time>2015-10-31T09:13:02Z</time>
      </trkpt>
      <trkpt lat="44.51395" lon="2.04858">
        <ele>345.4</ele>
        <time>2015-10-31T09:13:03Z</time>
      </trkpt>
      <trkpt lat="44.51393" lon="2.04853">
        <ele>345.6</ele>
        <time>2015-10-31T09:13:04Z</time>
      </trkpt>
      <trkpt lat="44.51391" lon="2.04849">
        <ele>345.8</ele>
        <time>2015-10-31T09:13:05Z</time>
      </trkpt>
      <trkpt lat="44.51389" lon="2.04845">
        <ele>346</ele>
        <time>2015-10-31T09:13:06Z</time>
      </trkpt>
      <trkpt lat="44.51387" lon="2.04841">
        <ele>346.2</ele>
        <time>2015-10-31T09:13:07Z</time>
      </trkpt>
      <trkpt lat="44.51384" lon="2.04836">
        <ele>346.5</ele>
        <time>2015-10-31T09:13:08Z</time>
      </trkpt>
      <trkpt lat="44.51383" lon="2.04832">
        <ele>346.7</ele>
        <time>2015-10-31T09:13:09Z</time>
      </trkpt>
      <trkpt lat="44.51381" lon="2.04828">
        <ele>347</ele>
        <time>2015-10-31T09:13:10Z</time>
      </trkpt>
      <trkpt lat="44.51379" lon="2.04823">
        <ele>347.2</ele>
        <time>2015-10-31T09:13:11Z</time>
      </trkpt>
      <trkpt lat="44.51378" lon="2.04818">
        <ele>347.4</ele>
        <time>2015-10-31T09:13:12Z</time>
      </trkpt>
      <trkpt lat="44.51377" lon="2.04813">
        <ele>347.6</ele>
        <time>2015-10-31T09:13:13Z</time>
      </trkpt>
      <trkpt lat="44.51375" lon="2.04808">
        <ele>347.8</ele>
        <time>2015-10-31T09:13:14Z</time>
      </trkpt>
      <trkpt lat="44.51374" lon="2.04803">
        <ele>347.9</ele>
        <time>2015-10-31T09:13:15Z</time>
      </trkpt>
      <trkpt lat="44.51372" lon="2.04798">
        <ele>347.9</ele>
        <time>2015-10-31T09:13:16Z</time>
      </trkpt>
      <trkpt lat="44.5137" lon="2.04793">
        <ele>348</ele>
        <time>2015-10-31T09:13:17Z</time>
      </trkpt>
      <trkpt lat="44.51369" lon="2.04787">
        <ele>348</ele>
        <time>2015-10-31T09:13:18Z</time>
      </trkpt>
      <trkpt lat="44.51367" lon="2.04782">
        <ele>348.1</ele>
        <time>2015-10-31T09:13:19Z</time>
      </trkpt>
      <trkpt lat="44.51364" lon="2.04776">
        <ele>348.2</ele>
        <time>2015-10-31T09:13:20Z</time>
      </trkpt>
      <trkpt lat="44.51363" lon="2.04772">
        <ele>348.2</ele>
        <time>2015-10-31T09:13:21Z</time>
      </trkpt>
      <trkpt lat="44.51361" lon="2.04767">
        <ele>348.2</ele>
        <time>2015-10-31T09:13:22Z</time>
      </trkpt>
      <trkpt lat="44.51359" lon="2.04763">
        <ele>348.3</ele>
        <time>2015-10-31T09:13:23Z</time>
      </trkpt>
      <trkpt lat="44.51358" lon="2.04758">
        <ele>348.3</ele>
        <time>2015-10-31T09:13:24Z</time>
      </trkpt>
      <trkpt lat="44.51356" lon="2.04754">
        <ele>348.3</ele>
        <time>2015-10-31T09:13:25Z</time>
      </trkpt>
      <trkpt lat="44.51355" lon="2.0475">
        <ele>348.4</ele>
        <time>2015-10-31T09:13:26Z</time>
      </trkpt>
      <trkpt lat="44.51353" lon="2.04747">
        <ele>348.4</ele>
        <time>2015-10-31T09:13:27Z</time>
      </trkpt>
      <trkpt lat="44.5135" lon="2.04742">
        <ele>348.4</ele>
        <time>2015-10-31T09:13:28Z</time>
      </trkpt>
      <trkpt lat="44.51347" lon="2.04736">
        <ele>348.4</ele>
        <time>2015-10-31T09:13:30Z</time>
      </trkpt>
      <trkpt lat="44.51345" lon="2.04732">
        <ele>348.5</ele>
        <time>2015-10-31T09:13:31Z</time>
      </trkpt>
      <trkpt lat="44.51343" lon="2.04728">
        <ele>348.5</ele>
        <time>2015-10-31T09:13:32Z</time>
      </trkpt>
      <trkpt lat="44.51341" lon="2.04724">
        <ele>348.5</ele>
        <time>2015-10-31T09:13:33Z</time>
      </trkpt>
      <trkpt lat="44.51339" lon="2.04719">
        <ele>348.5</ele>
        <time>2015-10-31T09:13:34Z</time>
      </trkpt>
      <trkpt lat="44.51337" lon="2.04715">
        <ele>348.5</ele>
        <time>2015-10-31T09:13:35Z</time>
      </trkpt>
      <trkpt lat="44.51336" lon="2.04711">
        <ele>348.5</ele>
        <time>2015-10-31T09:13:36Z</time>
      </trkpt>
      <trkpt lat="44.51334" lon="2.04706">
        <ele>348.5</ele>
        <time>2015-10-31T09:13:37Z</time>
      </trkpt>
      <trkpt lat="44.51333" lon="2.04702">
        <ele>348.6</ele>
        <time>2015-10-31T09:13:38Z</time>
      </trkpt>
      <trkpt lat="44.51332" lon="2.04698">
        <ele>348.6</ele>
        <time>2015-10-31T09:13:39Z</time>
      </trkpt>
      <trkpt lat="44.51331" lon="2.04694">
        <ele>348.6</ele>
        <time>2015-10-31T09:13:40Z</time>
      </trkpt>
      <trkpt lat="44.51329" lon="2.0469">
        <ele>348.7</ele>
        <time>2015-10-31T09:13:41Z</time>
      </trkpt>
      <trkpt lat="44.51327" lon="2.04686">
        <ele>348.7</ele>
        <time>2015-10-31T09:13:42Z</time>
      </trkpt>
      <trkpt lat="44.51325" lon="2.04682">
        <ele>348.7</ele>
        <time>2015-10-31T09:13:43Z</time>
      </trkpt>
      <trkpt lat="44.51323" lon="2.04678">
        <ele>348.7</ele>
        <time>2015-10-31T09:13:44Z</time>
      </trkpt>
      <trkpt lat="44.51323" lon="2.04668">
        <ele>348.9</ele>
        <time>2015-10-31T09:13:45Z</time>
      </trkpt>
      <trkpt lat="44.51321" lon="2.04665">
        <ele>348.9</ele>
        <time>2015-10-31T09:13:46Z</time>
      </trkpt>
      <trkpt lat="44.51318" lon="2.04661">
        <ele>348.9</ele>
        <time>2015-10-31T09:13:48Z</time>
      </trkpt>
      <trkpt lat="44.51314" lon="2.04657">
        <ele>348.9</ele>
        <time>2015-10-31T09:13:49Z</time>
      </trkpt>
      <trkpt lat="44.51312" lon="2.04655">
        <ele>348.9</ele>
        <time>2015-10-31T09:13:50Z</time>
      </trkpt>
      <trkpt lat="44.5131" lon="2.04649">
        <ele>348.9</ele>
        <time>2015-10-31T09:13:51Z</time>
      </trkpt>
      <trkpt lat="44.51308" lon="2.04644">
        <ele>349</ele>
        <time>2015-10-31T09:13:52Z</time>
      </trkpt>
      <trkpt lat="44.51306" lon="2.04639">
        <ele>349</ele>
        <time>2015-10-31T09:13:53Z</time>
      </trkpt>
      <trkpt lat="44.51303" lon="2.04635">
        <ele>349</ele>
        <time>2015-10-31T09:13:54Z</time>
      </trkpt>
      <trkpt lat="44.51301" lon="2.0463">
        <ele>349</ele>
        <time>2015-10-31T09:13:55Z</time>
      </trkpt>
      <trkpt lat="44.51299" lon="2.04626">
        <ele>349.1</ele>
        <time>2015-10-31T09:13:56Z</time>
      </trkpt>
      <trkpt lat="44.51297" lon="2.04622">
        <ele>349</ele>
        <time>2015-10-31T09:13:57Z</time>
      </trkpt>
      <trkpt lat="44.51296" lon="2.04617">
        <ele>348.9</ele>
        <time>2015-10-31T09:13:58Z</time>
      </trkpt>
      <trkpt lat="44.51294" lon="2.04612">
        <ele>348.9</ele>
        <time>2015-10-31T09:13:59Z</time>
      </trkpt>
      <trkpt lat="44.51293" lon="2.04607">
        <ele>348.8</ele>
        <time>2015-10-31T09:14:00Z</time>
      </trkpt>
      <trkpt lat="44.51293" lon="2.04602">
        <ele>348.7</ele>
        <time>2015-10-31T09:14:01Z</time>
      </trkpt>
      <trkpt lat="44.51294" lon="2.04597">
        <ele>348.7</ele>
        <time>2015-10-31T09:14:02Z</time>
      </trkpt>
      <trkpt lat="44.51294" lon="2.04592">
        <ele>348.6</ele>
        <time>2015-10-31T09:14:03Z</time>
      </trkpt>
      <trkpt lat="44.51295" lon="2.04587">
        <ele>348.5</ele>
        <time>2015-10-31T09:14:04Z</time>
      </trkpt>
      <trkpt lat="44.51296" lon="2.04581">
        <ele>348.4</ele>
        <time>2015-10-31T09:14:05Z</time>
      </trkpt>
      <trkpt lat="44.51297" lon="2.04576">
        <ele>348.4</ele>
        <time>2015-10-31T09:14:06Z</time>
      </trkpt>
      <trkpt lat="44.51301" lon="2.04566">
        <ele>348.2</ele>
        <time>2015-10-31T09:14:07Z</time>
      </trkpt>
      <trkpt lat="44.51302" lon="2.0456">
        <ele>348.1</ele>
        <time>2015-10-31T09:14:08Z</time>
      </trkpt>
      <trkpt lat="44.51303" lon="2.04555">
        <ele>347.9</ele>
        <time>2015-10-31T09:14:09Z</time>
      </trkpt>
      <trkpt lat="44.51305" lon="2.04549">
        <ele>347.8</ele>
        <time>2015-10-31T09:14:10Z</time>
      </trkpt>
      <trkpt lat="44.51308" lon="2.04547">
        <ele>347.7</ele>
        <time>2015-10-31T09:14:11Z</time>
      </trkpt>
      <trkpt lat="44.51309" lon="2.04541">
        <ele>347.5</ele>
        <time>2015-10-31T09:14:12Z</time>
      </trkpt>
      <trkpt lat="44.5131" lon="2.04534">
        <ele>347.1</ele>
        <time>2015-10-31T09:14:13Z</time>
      </trkpt>
      <trkpt lat="44.5131" lon="2.04527">
        <ele>346.8</ele>
        <time>2015-10-31T09:14:14Z</time>
      </trkpt>
      <trkpt lat="44.51313" lon="2.04522">
        <ele>346.5</ele>
        <time>2015-10-31T09:14:15Z</time>
      </trkpt>
      <trkpt lat="44.51315" lon="2.04515">
        <ele>346.1</ele>
        <time>2015-10-31T09:14:16Z</time>
      </trkpt>
      <trkpt lat="44.51316" lon="2.04507">
        <ele>345.7</ele>
        <time>2015-10-31T09:14:17Z</time>
      </trkpt>
      <trkpt lat="44.51317" lon="2.04499">
        <ele>345.3</ele>
        <time>2015-10-31T09:14:18Z</time>
      </trkpt>
      <trkpt lat="44.51319" lon="2.04489">
        <ele>344.8</ele>
        <time>2015-10-31T09:14:19Z</time>
      </trkpt>
      <trkpt lat="44.5132" lon="2.04478">
        <ele>344.3</ele>
        <time>2015-10-31T09:14:20Z</time>
      </trkpt>
      <trkpt lat="44.51322" lon="2.04469">
        <ele>343.9</ele>
        <time>2015-10-31T09:14:21Z</time>
      </trkpt>
      <trkpt lat="44.51323" lon="2.04461">
        <ele>343.5</ele>
        <time>2015-10-31T09:14:22Z</time>
      </trkpt>
      <trkpt lat="44.51326" lon="2.04453">
        <ele>343.4</ele>
        <time>2015-10-31T09:14:23Z</time>
      </trkpt>
      <trkpt lat="44.51327" lon="2.04443">
        <ele>343.5</ele>
        <time>2015-10-31T09:14:24Z</time>
      </trkpt>
      <trkpt lat="44.5133" lon="2.04435">
        <ele>343.5</ele>
        <time>2015-10-31T09:14:25Z</time>
      </trkpt>
      <trkpt lat="44.51331" lon="2.04425">
        <ele>343.5</ele>
        <time>2015-10-31T09:14:26Z</time>
      </trkpt>
      <trkpt lat="44.51332" lon="2.04414">
        <ele>343.5</ele>
        <time>2015-10-31T09:14:27Z</time>
      </trkpt>
      <trkpt lat="44.51335" lon="2.04404">
        <ele>343.5</ele>
        <time>2015-10-31T09:14:28Z</time>
      </trkpt>
      <trkpt lat="44.51337" lon="2.04395">
        <ele>343.5</ele>
        <time>2015-10-31T09:14:29Z</time>
      </trkpt>
      <trkpt lat="44.51339" lon="2.04386">
        <ele>343.5</ele>
        <time>2015-10-31T09:14:30Z</time>
      </trkpt>
      <trkpt lat="44.51339" lon="2.04378">
        <ele>343.4</ele>
        <time>2015-10-31T09:14:31Z</time>
      </trkpt>
      <trkpt lat="44.5134" lon="2.04369">
        <ele>343.3</ele>
        <time>2015-10-31T09:14:32Z</time>
      </trkpt>
      <trkpt lat="44.51341" lon="2.04359">
        <ele>343</ele>
        <time>2015-10-31T09:14:33Z</time>
      </trkpt>
      <trkpt lat="44.51341" lon="2.04348">
        <ele>342.8</ele>
        <time>2015-10-31T09:14:34Z</time>
      </trkpt>
      <trkpt lat="44.51341" lon="2.04338">
        <ele>342.6</ele>
        <time>2015-10-31T09:14:35Z</time>
      </trkpt>
      <trkpt lat="44.51342" lon="2.04327">
        <ele>342.4</ele>
        <time>2015-10-31T09:14:36Z</time>
      </trkpt>
      <trkpt lat="44.51343" lon="2.04317">
        <ele>342.2</ele>
        <time>2015-10-31T09:14:37Z</time>
      </trkpt>
      <trkpt lat="44.51344" lon="2.04307">
        <ele>341.9</ele>
        <time>2015-10-31T09:14:38Z</time>
      </trkpt>
      <trkpt lat="44.51346" lon="2.04298">
        <ele>341.8</ele>
        <time>2015-10-31T09:14:39Z</time>
      </trkpt>
      <trkpt lat="44.51347" lon="2.04291">
        <ele>341.7</ele>
        <time>2015-10-31T09:14:40Z</time>
      </trkpt>
      <trkpt lat="44.51348" lon="2.04285">
        <ele>341.8</ele>
        <time>2015-10-31T09:14:41Z</time>
      </trkpt>
      <trkpt lat="44.51347" lon="2.04274">
        <ele>342</ele>
        <time>2015-10-31T09:14:42Z</time>
      </trkpt>
      <trkpt lat="44.51347" lon="2.04262">
        <ele>342.3</ele>
        <time>2015-10-31T09:14:43Z</time>
      </trkpt>
      <trkpt lat="44.51346" lon="2.04252">
        <ele>342.4</ele>
        <time>2015-10-31T09:14:44Z</time>
      </trkpt>
      <trkpt lat="44.51346" lon="2.04241">
        <ele>342.7</ele>
        <time>2015-10-31T09:14:45Z</time>
      </trkpt>
      <trkpt lat="44.51347" lon="2.04232">
        <ele>342.9</ele>
        <time>2015-10-31T09:14:46Z</time>
      </trkpt>
      <trkpt lat="44.51348" lon="2.04222">
        <ele>343.1</ele>
        <time>2015-10-31T09:14:47Z</time>
      </trkpt>
      <trkpt lat="44.51348" lon="2.04213">
        <ele>343.3</ele>
        <time>2015-10-31T09:14:48Z</time>
      </trkpt>
      <trkpt lat="44.51348" lon="2.04207">
        <ele>343.4</ele>
        <time>2015-10-31T09:14:49Z</time>
      </trkpt>
      <trkpt lat="44.51348" lon="2.04196">
        <ele>343.9</ele>
        <time>2015-10-31T09:14:50Z</time>
      </trkpt>
      <trkpt lat="44.51348" lon="2.04188">
        <ele>344.3</ele>
        <time>2015-10-31T09:14:51Z</time>
      </trkpt>
      <trkpt lat="44.5135" lon="2.04183">
        <ele>344.6</ele>
        <time>2015-10-31T09:14:52Z</time>
      </trkpt>
      <trkpt lat="44.51352" lon="2.04179">
        <ele>344.9</ele>
        <time>2015-10-31T09:14:53Z</time>
      </trkpt>
      <trkpt lat="44.51351" lon="2.04172">
        <ele>345.2</ele>
        <time>2015-10-31T09:14:54Z</time>
      </trkpt>
      <trkpt lat="44.51351" lon="2.04165">
        <ele>345.5</ele>
        <time>2015-10-31T09:14:55Z</time>
      </trkpt>
      <trkpt lat="44.51351" lon="2.04159">
        <ele>345.8</ele>
        <time>2015-10-31T09:14:56Z</time>
      </trkpt>
      <trkpt lat="44.51351" lon="2.04152">
        <ele>346.1</ele>
        <time>2015-10-31T09:14:57Z</time>
      </trkpt>
      <trkpt lat="44.5135" lon="2.04147">
        <ele>346.3</ele>
        <time>2015-10-31T09:14:58Z</time>
      </trkpt>
      <trkpt lat="44.5135" lon="2.04142">
        <ele>346.6</ele>
        <time>2015-10-31T09:14:59Z</time>
      </trkpt>
      <trkpt lat="44.5135" lon="2.04137">
        <ele>346.8</ele>
        <time>2015-10-31T09:15:00Z</time>
      </trkpt>
      <trkpt lat="44.51347" lon="2.04132">
        <ele>347</ele>
        <time>2015-10-31T09:15:02Z</time>
      </trkpt>
      <trkpt lat="44.51346" lon="2.04127">
        <ele>347.2</ele>
        <time>2015-10-31T09:15:03Z</time>
      </trkpt>
      <trkpt lat="44.51346" lon="2.04123">
        <ele>347.4</ele>
        <time>2015-10-31T09:15:04Z</time>
      </trkpt>
      <trkpt lat="44.51344" lon="2.04116">
        <ele>347.8</ele>
        <time>2015-10-31T09:15:06Z</time>
      </trkpt>
      <trkpt lat="44.51343" lon="2.04111">
        <ele>348</ele>
        <time>2015-10-31T09:15:07Z</time>
      </trkpt>
      <trkpt lat="44.51342" lon="2.04106">
        <ele>348.3</ele>
        <time>2015-10-31T09:15:08Z</time>
      </trkpt>
      <trkpt lat="44.51341" lon="2.04102">
        <ele>348.5</ele>
        <time>2015-10-31T09:15:09Z</time>
      </trkpt>
      <trkpt lat="44.5134" lon="2.04097">
        <ele>348.8</ele>
        <time>2015-10-31T09:15:10Z</time>
      </trkpt>
      <trkpt lat="44.5134" lon="2.04093">
        <ele>349</ele>
        <time>2015-10-31T09:15:11Z</time>
      </trkpt>
      <trkpt lat="44.51339" lon="2.04088">
        <ele>349.3</ele>
        <time>2015-10-31T09:15:12Z</time>
      </trkpt>
      <trkpt lat="44.51339" lon="2.04082">
        <ele>349.6</ele>
        <time>2015-10-31T09:15:13Z</time>
      </trkpt>
      <trkpt lat="44.51337" lon="2.04077">
        <ele>349.9</ele>
        <time>2015-10-31T09:15:14Z</time>
      </trkpt>
      <trkpt lat="44.51336" lon="2.04072">
        <ele>350.2</ele>
        <time>2015-10-31T09:15:15Z</time>
      </trkpt>
      <trkpt lat="44.51335" lon="2.04059">
        <ele>350.9</ele>
        <time>2015-10-31T09:15:16Z</time>
      </trkpt>
      <trkpt lat="44.51335" lon="2.04054">
        <ele>351.3</ele>
        <time>2015-10-31T09:15:17Z</time>
      </trkpt>
      <trkpt lat="44.51334" lon="2.04046">
        <ele>351.7</ele>
        <time>2015-10-31T09:15:19Z</time>
      </trkpt>
      <trkpt lat="44.51331" lon="2.04041">
        <ele>352</ele>
        <time>2015-10-31T09:15:20Z</time>
      </trkpt>
      <trkpt lat="44.5133" lon="2.04037">
        <ele>352.1</ele>
        <time>2015-10-31T09:15:21Z</time>
      </trkpt>
      <trkpt lat="44.51326" lon="2.04027">
        <ele>352.3</ele>
        <time>2015-10-31T09:15:22Z</time>
      </trkpt>
      <trkpt lat="44.51324" lon="2.04021">
        <ele>352.4</ele>
        <time>2015-10-31T09:15:23Z</time>
      </trkpt>
      <trkpt lat="44.5132" lon="2.04015">
        <ele>352.5</ele>
        <time>2015-10-31T09:15:25Z</time>
      </trkpt>
      <trkpt lat="44.51322" lon="2.0401">
        <ele>352.6</ele>
        <time>2015-10-31T09:15:27Z</time>
      </trkpt>
      <trkpt lat="44.5132" lon="2.04006">
        <ele>352.7</ele>
        <time>2015-10-31T09:15:28Z</time>
      </trkpt>
      <trkpt lat="44.5132" lon="2.04001">
        <ele>352.8</ele>
        <time>2015-10-31T09:15:30Z</time>
      </trkpt>
      <trkpt lat="44.51317" lon="2.03996">
        <ele>352.9</ele>
        <time>2015-10-31T09:15:32Z</time>
      </trkpt>
      <trkpt lat="44.51314" lon="2.0399">
        <ele>353.1</ele>
        <time>2015-10-31T09:15:34Z</time>
      </trkpt>
      <trkpt lat="44.51313" lon="2.03986">
        <ele>353.2</ele>
        <time>2015-10-31T09:15:35Z</time>
      </trkpt>
      <trkpt lat="44.51311" lon="2.03979">
        <ele>353.3</ele>
        <time>2015-10-31T09:15:37Z</time>
      </trkpt>
      <trkpt lat="44.51309" lon="2.03975">
        <ele>353.4</ele>
        <time>2015-10-31T09:15:38Z</time>
      </trkpt>
      <trkpt lat="44.51308" lon="2.03972">
        <ele>353.5</ele>
        <time>2015-10-31T09:15:39Z</time>
      </trkpt>
      <trkpt lat="44.51306" lon="2.03968">
        <ele>353.6</ele>
        <time>2015-10-31T09:15:40Z</time>
      </trkpt>
      <trkpt lat="44.51305" lon="2.03964">
        <ele>353.7</ele>
        <time>2015-10-31T09:15:41Z</time>
      </trkpt>
      <trkpt lat="44.51302" lon="2.03959">
        <ele>353.9</ele>
        <time>2015-10-31T09:15:42Z</time>
      </trkpt>
      <trkpt lat="44.513" lon="2.03955">
        <ele>353.9</ele>
        <time>2015-10-31T09:15:43Z</time>
      </trkpt>
      <trkpt lat="44.51298" lon="2.03951">
        <ele>354</ele>
        <time>2015-10-31T09:15:44Z</time>
      </trkpt>
      <trkpt lat="44.51297" lon="2.03946">
        <ele>354.1</ele>
        <time>2015-10-31T09:15:45Z</time>
      </trkpt>
      <trkpt lat="44.51295" lon="2.03942">
        <ele>354.1</ele>
        <time>2015-10-31T09:15:46Z</time>
      </trkpt>
      <trkpt lat="44.51293" lon="2.03937">
        <ele>354.2</ele>
        <time>2015-10-31T09:15:47Z</time>
      </trkpt>
      <trkpt lat="44.51291" lon="2.03933">
        <ele>354.3</ele>
        <time>2015-10-31T09:15:48Z</time>
      </trkpt>
      <trkpt lat="44.51289" lon="2.03928">
        <ele>354.5</ele>
        <time>2015-10-31T09:15:49Z</time>
      </trkpt>
      <trkpt lat="44.51287" lon="2.03924">
        <ele>354.6</ele>
        <time>2015-10-31T09:15:50Z</time>
      </trkpt>
      <trkpt lat="44.51286" lon="2.03919">
        <ele>354.8</ele>
        <time>2015-10-31T09:15:51Z</time>
      </trkpt>
      <trkpt lat="44.51284" lon="2.03915">
        <ele>354.9</ele>
        <time>2015-10-31T09:15:52Z</time>
      </trkpt>
      <trkpt lat="44.51282" lon="2.03909">
        <ele>355.1</ele>
        <time>2015-10-31T09:15:53Z</time>
      </trkpt>
      <trkpt lat="44.51274" lon="2.03896">
        <ele>355.8</ele>
        <time>2015-10-31T09:15:54Z</time>
      </trkpt>
      <trkpt lat="44.51272" lon="2.03891">
        <ele>356</ele>
        <time>2015-10-31T09:15:55Z</time>
      </trkpt>
      <trkpt lat="44.51271" lon="2.03885">
        <ele>356.3</ele>
        <time>2015-10-31T09:15:57Z</time>
      </trkpt>
      <trkpt lat="44.51269" lon="2.03878">
        <ele>356.6</ele>
        <time>2015-10-31T09:15:58Z</time>
      </trkpt>
      <trkpt lat="44.51266" lon="2.03873">
        <ele>356.9</ele>
        <time>2015-10-31T09:15:59Z</time>
      </trkpt>
      <trkpt lat="44.51266" lon="2.03869">
        <ele>357</ele>
        <time>2015-10-31T09:16:00Z</time>
      </trkpt>
      <trkpt lat="44.51265" lon="2.03865">
        <ele>357.2</ele>
        <time>2015-10-31T09:16:01Z</time>
      </trkpt>
      <trkpt lat="44.51262" lon="2.03861">
        <ele>357.5</ele>
        <time>2015-10-31T09:16:02Z</time>
      </trkpt>
      <trkpt lat="44.51262" lon="2.03856">
        <ele>357.7</ele>
        <time>2015-10-31T09:16:03Z</time>
      </trkpt>
      <trkpt lat="44.51258" lon="2.03847">
        <ele>358.2</ele>
        <time>2015-10-31T09:16:05Z</time>
      </trkpt>
      <trkpt lat="44.51256" lon="2.03841">
        <ele>358.6</ele>
        <time>2015-10-31T09:16:06Z</time>
      </trkpt>
      <trkpt lat="44.51251" lon="2.03834">
        <ele>359.1</ele>
        <time>2015-10-31T09:16:07Z</time>
      </trkpt>
      <trkpt lat="44.51249" lon="2.03829">
        <ele>359.5</ele>
        <time>2015-10-31T09:16:08Z</time>
      </trkpt>
      <trkpt lat="44.51246" lon="2.03822">
        <ele>359.9</ele>
        <time>2015-10-31T09:16:10Z</time>
      </trkpt>
      <trkpt lat="44.51245" lon="2.03818">
        <ele>360.1</ele>
        <time>2015-10-31T09:16:11Z</time>
      </trkpt>
      <trkpt lat="44.51244" lon="2.03815">
        <ele>360.3</ele>
        <time>2015-10-31T09:16:12Z</time>
      </trkpt>
      <trkpt lat="44.51243" lon="2.0381">
        <ele>360.6</ele>
        <time>2015-10-31T09:16:13Z</time>
      </trkpt>
      <trkpt lat="44.51241" lon="2.03805">
        <ele>360.8</ele>
        <time>2015-10-31T09:16:15Z</time>
      </trkpt>
      <trkpt lat="44.5124" lon="2.038">
        <ele>361</ele>
        <time>2015-10-31T09:16:16Z</time>
      </trkpt>
      <trkpt lat="44.51238" lon="2.03796">
        <ele>361.4</ele>
        <time>2015-10-31T09:16:18Z</time>
      </trkpt>
      <trkpt lat="44.51236" lon="2.03793">
        <ele>361.6</ele>
        <time>2015-10-31T09:16:19Z</time>
      </trkpt>
      <trkpt lat="44.51234" lon="2.03789">
        <ele>361.8</ele>
        <time>2015-10-31T09:16:20Z</time>
      </trkpt>
      <trkpt lat="44.51233" lon="2.03785">
        <ele>361.9</ele>
        <time>2015-10-31T09:16:21Z</time>
      </trkpt>
      <trkpt lat="44.51231" lon="2.03781">
        <ele>362</ele>
        <time>2015-10-31T09:16:22Z</time>
      </trkpt>
      <trkpt lat="44.51231" lon="2.03775">
        <ele>362</ele>
        <time>2015-10-31T09:16:24Z</time>
      </trkpt>
      <trkpt lat="44.51228" lon="2.03768">
        <ele>362.1</ele>
        <time>2015-10-31T09:16:26Z</time>
      </trkpt>
      <trkpt lat="44.51227" lon="2.03765">
        <ele>362.2</ele>
        <time>2015-10-31T09:16:27Z</time>
      </trkpt>
      <trkpt lat="44.51225" lon="2.03761">
        <ele>362.3</ele>
        <time>2015-10-31T09:16:28Z</time>
      </trkpt>
      <trkpt lat="44.51224" lon="2.03756">
        <ele>362.4</ele>
        <time>2015-10-31T09:16:29Z</time>
      </trkpt>
      <trkpt lat="44.51223" lon="2.03753">
        <ele>362.4</ele>
        <time>2015-10-31T09:16:30Z</time>
      </trkpt>
      <trkpt lat="44.5122" lon="2.03746">
        <ele>362.5</ele>
        <time>2015-10-31T09:16:31Z</time>
      </trkpt>
      <trkpt lat="44.51219" lon="2.03741">
        <ele>362.6</ele>
        <time>2015-10-31T09:16:32Z</time>
      </trkpt>
      <trkpt lat="44.51217" lon="2.03736">
        <ele>362.7</ele>
        <time>2015-10-31T09:16:33Z</time>
      </trkpt>
      <trkpt lat="44.51215" lon="2.03731">
        <ele>362.8</ele>
        <time>2015-10-31T09:16:34Z</time>
      </trkpt>
      <trkpt lat="44.51212" lon="2.03726">
        <ele>362.9</ele>
        <time>2015-10-31T09:16:35Z</time>
      </trkpt>
      <trkpt lat="44.51211" lon="2.03722">
        <ele>363</ele>
        <time>2015-10-31T09:16:36Z</time>
      </trkpt>
      <trkpt lat="44.51209" lon="2.03718">
        <ele>363.1</ele>
        <time>2015-10-31T09:16:37Z</time>
      </trkpt>
      <trkpt lat="44.51207" lon="2.03713">
        <ele>363</ele>
        <time>2015-10-31T09:16:38Z</time>
      </trkpt>
      <trkpt lat="44.51205" lon="2.0371">
        <ele>363</ele>
        <time>2015-10-31T09:16:39Z</time>
      </trkpt>
      <trkpt lat="44.51205" lon="2.03705">
        <ele>362.8</ele>
        <time>2015-10-31T09:16:40Z</time>
      </trkpt>
      <trkpt lat="44.51204" lon="2.037">
        <ele>362.5</ele>
        <time>2015-10-31T09:16:41Z</time>
      </trkpt>
      <trkpt lat="44.51203" lon="2.03695">
        <ele>362.3</ele>
        <time>2015-10-31T09:16:42Z</time>
      </trkpt>
      <trkpt lat="44.51203" lon="2.03688">
        <ele>362</ele>
        <time>2015-10-31T09:16:43Z</time>
      </trkpt>
      <trkpt lat="44.51203" lon="2.03682">
        <ele>361.7</ele>
        <time>2015-10-31T09:16:44Z</time>
      </trkpt>
      <trkpt lat="44.51203" lon="2.03677">
        <ele>361.4</ele>
        <time>2015-10-31T09:16:45Z</time>
      </trkpt>
      <trkpt lat="44.51204" lon="2.03673">
        <ele>361.3</ele>
        <time>2015-10-31T09:16:46Z</time>
      </trkpt>
      <trkpt lat="44.51202" lon="2.03667">
        <ele>361</ele>
        <time>2015-10-31T09:16:47Z</time>
      </trkpt>
      <trkpt lat="44.51204" lon="2.03661">
        <ele>360.7</ele>
        <time>2015-10-31T09:16:48Z</time>
      </trkpt>
      <trkpt lat="44.51204" lon="2.03655">
        <ele>360.4</ele>
        <time>2015-10-31T09:16:49Z</time>
      </trkpt>
      <trkpt lat="44.51202" lon="2.03648">
        <ele>360.1</ele>
        <time>2015-10-31T09:16:50Z</time>
      </trkpt>
      <trkpt lat="44.51201" lon="2.03642">
        <ele>359.8</ele>
        <time>2015-10-31T09:16:51Z</time>
      </trkpt>
      <trkpt lat="44.51201" lon="2.03636">
        <ele>359.5</ele>
        <time>2015-10-31T09:16:52Z</time>
      </trkpt>
      <trkpt lat="44.51201" lon="2.03627">
        <ele>359.1</ele>
        <time>2015-10-31T09:16:53Z</time>
      </trkpt>
      <trkpt lat="44.51201" lon="2.03621">
        <ele>358.8</ele>
        <time>2015-10-31T09:16:54Z</time>
      </trkpt>
      <trkpt lat="44.51203" lon="2.03615">
        <ele>358.5</ele>
        <time>2015-10-31T09:16:55Z</time>
      </trkpt>
      <trkpt lat="44.51201" lon="2.03604">
        <ele>358</ele>
        <time>2015-10-31T09:16:56Z</time>
      </trkpt>
      <trkpt lat="44.51201" lon="2.03597">
        <ele>357.6</ele>
        <time>2015-10-31T09:16:57Z</time>
      </trkpt>
      <trkpt lat="44.51202" lon="2.0359">
        <ele>357.3</ele>
        <time>2015-10-31T09:16:58Z</time>
      </trkpt>
      <trkpt lat="44.51203" lon="2.03583">
        <ele>357</ele>
        <time>2015-10-31T09:16:59Z</time>
      </trkpt>
      <trkpt lat="44.51205" lon="2.03575">
        <ele>356.6</ele>
        <time>2015-10-31T09:17:00Z</time>
      </trkpt>
      <trkpt lat="44.51205" lon="2.03566">
        <ele>356.2</ele>
        <time>2015-10-31T09:17:01Z</time>
      </trkpt>
      <trkpt lat="44.51205" lon="2.03561">
        <ele>355.9</ele>
        <time>2015-10-31T09:17:02Z</time>
      </trkpt>
      <trkpt lat="44.51205" lon="2.0355">
        <ele>355.4</ele>
        <time>2015-10-31T09:17:03Z</time>
      </trkpt>
      <trkpt lat="44.51207" lon="2.03543">
        <ele>355.1</ele>
        <time>2015-10-31T09:17:04Z</time>
      </trkpt>
      <trkpt lat="44.51209" lon="2.03538">
        <ele>354.7</ele>
        <time>2015-10-31T09:17:05Z</time>
      </trkpt>
      <trkpt lat="44.5121" lon="2.03531">
        <ele>354.1</ele>
        <time>2015-10-31T09:17:06Z</time>
      </trkpt>
      <trkpt lat="44.5121" lon="2.03522">
        <ele>353.5</ele>
        <time>2015-10-31T09:17:07Z</time>
      </trkpt>
      <trkpt lat="44.51212" lon="2.03513">
        <ele>352.8</ele>
        <time>2015-10-31T09:17:08Z</time>
      </trkpt>
      <trkpt lat="44.51215" lon="2.03507">
        <ele>352.3</ele>
        <time>2015-10-31T09:17:09Z</time>
      </trkpt>
      <trkpt lat="44.51216" lon="2.03499">
        <ele>351.8</ele>
        <time>2015-10-31T09:17:10Z</time>
      </trkpt>
      <trkpt lat="44.51218" lon="2.03488">
        <ele>351</ele>
        <time>2015-10-31T09:17:11Z</time>
      </trkpt>
      <trkpt lat="44.51221" lon="2.03478">
        <ele>350.2</ele>
        <time>2015-10-31T09:17:12Z</time>
      </trkpt>
      <trkpt lat="44.51223" lon="2.03465">
        <ele>349.3</ele>
        <time>2015-10-31T09:17:13Z</time>
      </trkpt>
      <trkpt lat="44.51225" lon="2.03453">
        <ele>348.7</ele>
        <time>2015-10-31T09:17:14Z</time>
      </trkpt>
      <trkpt lat="44.51227" lon="2.03441">
        <ele>348.5</ele>
        <time>2015-10-31T09:17:15Z</time>
      </trkpt>
      <trkpt lat="44.5123" lon="2.03426">
        <ele>348.3</ele>
        <time>2015-10-31T09:17:16Z</time>
      </trkpt>
      <trkpt lat="44.51234" lon="2.03414">
        <ele>348</ele>
        <time>2015-10-31T09:17:17Z</time>
      </trkpt>
      <trkpt lat="44.51237" lon="2.03401">
        <ele>347.7</ele>
        <time>2015-10-31T09:17:18Z</time>
      </trkpt>
      <trkpt lat="44.5124" lon="2.03385">
        <ele>347.4</ele>
        <time>2015-10-31T09:17:19Z</time>
      </trkpt>
      <trkpt lat="44.51244" lon="2.03373">
        <ele>347.1</ele>
        <time>2015-10-31T09:17:20Z</time>
      </trkpt>
      <trkpt lat="44.51245" lon="2.03359">
        <ele>347</ele>
        <time>2015-10-31T09:17:21Z</time>
      </trkpt>
      <trkpt lat="44.51248" lon="2.03347">
        <ele>346.9</ele>
        <time>2015-10-31T09:17:22Z</time>
      </trkpt>
      <trkpt lat="44.51251" lon="2.03329">
        <ele>346.7</ele>
        <time>2015-10-31T09:17:23Z</time>
      </trkpt>
      <trkpt lat="44.51254" lon="2.03314">
        <ele>346.5</ele>
        <time>2015-10-31T09:17:24Z</time>
      </trkpt>
      <trkpt lat="44.51257" lon="2.03298">
        <ele>346.3</ele>
        <time>2015-10-31T09:17:25Z</time>
      </trkpt>
      <trkpt lat="44.51259" lon="2.03281">
        <ele>345.7</ele>
        <time>2015-10-31T09:17:26Z</time>
      </trkpt>
      <trkpt lat="44.51262" lon="2.03265">
        <ele>344.9</ele>
        <time>2015-10-31T09:17:27Z</time>
      </trkpt>
      <trkpt lat="44.51264" lon="2.03248">
        <ele>344.1</ele>
        <time>2015-10-31T09:17:28Z</time>
      </trkpt>
      <trkpt lat="44.5127" lon="2.03235">
        <ele>343.4</ele>
        <time>2015-10-31T09:17:29Z</time>
      </trkpt>
      <trkpt lat="44.51273" lon="2.0322">
        <ele>342.7</ele>
        <time>2015-10-31T09:17:30Z</time>
      </trkpt>
      <trkpt lat="44.51276" lon="2.03206">
        <ele>342.2</ele>
        <time>2015-10-31T09:17:31Z</time>
      </trkpt>
      <trkpt lat="44.51279" lon="2.03194">
        <ele>342.2</ele>
        <time>2015-10-31T09:17:32Z</time>
      </trkpt>
      <trkpt lat="44.5128" lon="2.03176">
        <ele>342.4</ele>
        <time>2015-10-31T09:17:33Z</time>
      </trkpt>
      <trkpt lat="44.51282" lon="2.03164">
        <ele>342.5</ele>
        <time>2015-10-31T09:17:34Z</time>
      </trkpt>
      <trkpt lat="44.51286" lon="2.03148">
        <ele>342.7</ele>
        <time>2015-10-31T09:17:35Z</time>
      </trkpt>
      <trkpt lat="44.51287" lon="2.03132">
        <ele>342.8</ele>
        <time>2015-10-31T09:17:36Z</time>
      </trkpt>
      <trkpt lat="44.51289" lon="2.03117">
        <ele>342.7</ele>
        <time>2015-10-31T09:17:37Z</time>
      </trkpt>
      <trkpt lat="44.51292" lon="2.03105">
        <ele>342.5</ele>
        <time>2015-10-31T09:17:38Z</time>
      </trkpt>
      <trkpt lat="44.51292" lon="2.03091">
        <ele>342.2</ele>
        <time>2015-10-31T09:17:39Z</time>
      </trkpt>
      <trkpt lat="44.51293" lon="2.03076">
        <ele>341.9</ele>
        <time>2015-10-31T09:17:40Z</time>
      </trkpt>
      <trkpt lat="44.51295" lon="2.03067">
        <ele>341.7</ele>
        <time>2015-10-31T09:17:41Z</time>
      </trkpt>
      <trkpt lat="44.51297" lon="2.03054">
        <ele>341.5</ele>
        <time>2015-10-31T09:17:42Z</time>
      </trkpt>
      <trkpt lat="44.513" lon="2.03042">
        <ele>341.3</ele>
        <time>2015-10-31T09:17:43Z</time>
      </trkpt>
      <trkpt lat="44.51301" lon="2.03027">
        <ele>341.1</ele>
        <time>2015-10-31T09:17:44Z</time>
      </trkpt>
      <trkpt lat="44.51302" lon="2.03015">
        <ele>341</ele>
        <time>2015-10-31T09:17:45Z</time>
      </trkpt>
      <trkpt lat="44.51304" lon="2.03003">
        <ele>340.9</ele>
        <time>2015-10-31T09:17:46Z</time>
      </trkpt>
      <trkpt lat="44.51307" lon="2.02993">
        <ele>340.7</ele>
        <time>2015-10-31T09:17:47Z</time>
      </trkpt>
      <trkpt lat="44.51308" lon="2.02979">
        <ele>340.5</ele>
        <time>2015-10-31T09:17:48Z</time>
      </trkpt>
      <trkpt lat="44.51309" lon="2.02967">
        <ele>340.4</ele>
        <time>2015-10-31T09:17:49Z</time>
      </trkpt>
      <trkpt lat="44.51307" lon="2.02956">
        <ele>340.1</ele>
        <time>2015-10-31T09:17:50Z</time>
      </trkpt>
      <trkpt lat="44.5131" lon="2.02945">
        <ele>339.9</ele>
        <time>2015-10-31T09:17:51Z</time>
      </trkpt>
      <trkpt lat="44.51312" lon="2.02937">
        <ele>339.7</ele>
        <time>2015-10-31T09:17:52Z</time>
      </trkpt>
      <trkpt lat="44.51313" lon="2.0293">
        <ele>339.5</ele>
        <time>2015-10-31T09:17:53Z</time>
      </trkpt>
      <trkpt lat="44.51315" lon="2.02924">
        <ele>339.3</ele>
        <time>2015-10-31T09:17:54Z</time>
      </trkpt>
      <trkpt lat="44.51317" lon="2.02916">
        <ele>339.1</ele>
        <time>2015-10-31T09:17:55Z</time>
      </trkpt>
      <trkpt lat="44.51319" lon="2.02908">
        <ele>338.9</ele>
        <time>2015-10-31T09:17:56Z</time>
      </trkpt>
      <trkpt lat="44.51322" lon="2.02902">
        <ele>338.8</ele>
        <time>2015-10-31T09:17:57Z</time>
      </trkpt>
      <trkpt lat="44.51326" lon="2.02896">
        <ele>338.6</ele>
        <time>2015-10-31T09:17:58Z</time>
      </trkpt>
      <trkpt lat="44.5133" lon="2.0289">
        <ele>338.5</ele>
        <time>2015-10-31T09:17:59Z</time>
      </trkpt>
      <trkpt lat="44.51334" lon="2.02886">
        <ele>338.3</ele>
        <time>2015-10-31T09:18:00Z</time>
      </trkpt>
      <trkpt lat="44.51335" lon="2.02881">
        <ele>338.2</ele>
        <time>2015-10-31T09:18:01Z</time>
      </trkpt>
      <trkpt lat="44.51338" lon="2.02876">
        <ele>338</ele>
        <time>2015-10-31T09:18:03Z</time>
      </trkpt>
      <trkpt lat="44.51343" lon="2.02872">
        <ele>337.9</ele>
        <time>2015-10-31T09:18:05Z</time>
      </trkpt>
      <trkpt lat="44.51346" lon="2.02867">
        <ele>337.8</ele>
        <time>2015-10-31T09:18:07Z</time>
      </trkpt>
      <trkpt lat="44.51347" lon="2.02863">
        <ele>337.7</ele>
        <time>2015-10-31T09:18:08Z</time>
      </trkpt>
      <trkpt lat="44.5135" lon="2.02859">
        <ele>337.6</ele>
        <time>2015-10-31T09:18:09Z</time>
      </trkpt>
      <trkpt lat="44.51354" lon="2.02855">
        <ele>337.5</ele>
        <time>2015-10-31T09:18:10Z</time>
      </trkpt>
      <trkpt lat="44.51353" lon="2.02852">
        <ele>337.4</ele>
        <time>2015-10-31T09:18:11Z</time>
      </trkpt>
      <trkpt lat="44.51354" lon="2.02848">
        <ele>337.3</ele>
        <time>2015-10-31T09:18:12Z</time>
      </trkpt>
      <trkpt lat="44.51355" lon="2.02843">
        <ele>337.2</ele>
        <time>2015-10-31T09:18:13Z</time>
      </trkpt>
      <trkpt lat="44.51355" lon="2.02838">
        <ele>337.1</ele>
        <time>2015-10-31T09:18:14Z</time>
      </trkpt>
      <trkpt lat="44.51354" lon="2.02833">
        <ele>337</ele>
        <time>2015-10-31T09:18:15Z</time>
      </trkpt>
      <trkpt lat="44.51352" lon="2.02828">
        <ele>336.9</ele>
        <time>2015-10-31T09:18:16Z</time>
      </trkpt>
      <trkpt lat="44.5135" lon="2.02823">
        <ele>336.7</ele>
        <time>2015-10-31T09:18:17Z</time>
      </trkpt>
      <trkpt lat="44.51347" lon="2.02818">
        <ele>336.6</ele>
        <time>2015-10-31T09:18:18Z</time>
      </trkpt>
      <trkpt lat="44.51344" lon="2.02813">
        <ele>336.5</ele>
        <time>2015-10-31T09:18:19Z</time>
      </trkpt>
      <trkpt lat="44.51342" lon="2.02808">
        <ele>336.4</ele>
        <time>2015-10-31T09:18:20Z</time>
      </trkpt>
      <trkpt lat="44.51339" lon="2.02802">
        <ele>336.3</ele>
        <time>2015-10-31T09:18:21Z</time>
      </trkpt>
      <trkpt lat="44.51336" lon="2.02797">
        <ele>336.1</ele>
        <time>2015-10-31T09:18:22Z</time>
      </trkpt>
      <trkpt lat="44.51333" lon="2.02792">
        <ele>336</ele>
        <time>2015-10-31T09:18:23Z</time>
      </trkpt>
      <trkpt lat="44.51329" lon="2.02784">
        <ele>335.8</ele>
        <time>2015-10-31T09:18:24Z</time>
      </trkpt>
      <trkpt lat="44.51326" lon="2.02776">
        <ele>335.6</ele>
        <time>2015-10-31T09:18:25Z</time>
      </trkpt>
      <trkpt lat="44.51323" lon="2.0277">
        <ele>335.4</ele>
        <time>2015-10-31T09:18:26Z</time>
      </trkpt>
      <trkpt lat="44.5132" lon="2.02762">
        <ele>335.3</ele>
        <time>2015-10-31T09:18:28Z</time>
      </trkpt>
      <trkpt lat="44.51317" lon="2.02755">
        <ele>335.2</ele>
        <time>2015-10-31T09:18:29Z</time>
      </trkpt>
      <trkpt lat="44.51315" lon="2.02749">
        <ele>335.1</ele>
        <time>2015-10-31T09:18:30Z</time>
      </trkpt>
      <trkpt lat="44.51313" lon="2.02741">
        <ele>335.1</ele>
        <time>2015-10-31T09:18:31Z</time>
      </trkpt>
      <trkpt lat="44.51311" lon="2.02736">
        <ele>335.1</ele>
        <time>2015-10-31T09:18:32Z</time>
      </trkpt>
      <trkpt lat="44.51306" lon="2.02727">
        <ele>335.2</ele>
        <time>2015-10-31T09:18:33Z</time>
      </trkpt>
      <trkpt lat="44.51304" lon="2.0272">
        <ele>335.3</ele>
        <time>2015-10-31T09:18:34Z</time>
      </trkpt>
      <trkpt lat="44.51301" lon="2.02717">
        <ele>335.4</ele>
        <time>2015-10-31T09:18:35Z</time>
      </trkpt>
      <trkpt lat="44.51301" lon="2.0271">
        <ele>335.4</ele>
        <time>2015-10-31T09:18:36Z</time>
      </trkpt>
      <trkpt lat="44.51298" lon="2.02703">
        <ele>335.4</ele>
        <time>2015-10-31T09:18:37Z</time>
      </trkpt>
      <trkpt lat="44.51296" lon="2.02697">
        <ele>335.4</ele>
        <time>2015-10-31T09:18:38Z</time>
      </trkpt>
      <trkpt lat="44.51293" lon="2.02691">
        <ele>335.5</ele>
        <time>2015-10-31T09:18:39Z</time>
      </trkpt>
      <trkpt lat="44.51291" lon="2.02685">
        <ele>335.5</ele>
        <time>2015-10-31T09:18:40Z</time>
      </trkpt>
      <trkpt lat="44.51291" lon="2.0268">
        <ele>335.3</ele>
        <time>2015-10-31T09:18:41Z</time>
      </trkpt>
      <trkpt lat="44.5129" lon="2.02674">
        <ele>335.2</ele>
        <time>2015-10-31T09:18:42Z</time>
      </trkpt>
      <trkpt lat="44.51289" lon="2.02668">
        <ele>335.1</ele>
        <time>2015-10-31T09:18:43Z</time>
      </trkpt>
      <trkpt lat="44.51287" lon="2.02662">
        <ele>335</ele>
        <time>2015-10-31T09:18:44Z</time>
      </trkpt>
      <trkpt lat="44.51286" lon="2.02653">
        <ele>334.8</ele>
        <time>2015-10-31T09:18:45Z</time>
      </trkpt>
      <trkpt lat="44.51284" lon="2.02644">
        <ele>334.7</ele>
        <time>2015-10-31T09:18:46Z</time>
      </trkpt>
      <trkpt lat="44.51283" lon="2.02636">
        <ele>334.5</ele>
        <time>2015-10-31T09:18:47Z</time>
      </trkpt>
      <trkpt lat="44.51283" lon="2.02629">
        <ele>334.4</ele>
        <time>2015-10-31T09:18:48Z</time>
      </trkpt>
      <trkpt lat="44.51283" lon="2.02622">
        <ele>334.3</ele>
        <time>2015-10-31T09:18:49Z</time>
      </trkpt>
      <trkpt lat="44.51281" lon="2.02615">
        <ele>334.5</ele>
        <time>2015-10-31T09:18:50Z</time>
      </trkpt>
      <trkpt lat="44.51281" lon="2.02607">
        <ele>334.6</ele>
        <time>2015-10-31T09:18:51Z</time>
      </trkpt>
      <trkpt lat="44.51279" lon="2.02601">
        <ele>334.7</ele>
        <time>2015-10-31T09:18:52Z</time>
      </trkpt>
      <trkpt lat="44.51278" lon="2.02594">
        <ele>334.8</ele>
        <time>2015-10-31T09:18:53Z</time>
      </trkpt>
      <trkpt lat="44.51278" lon="2.02586">
        <ele>334.9</ele>
        <time>2015-10-31T09:18:54Z</time>
      </trkpt>
      <trkpt lat="44.51279" lon="2.0258">
        <ele>334.9</ele>
        <time>2015-10-31T09:18:55Z</time>
      </trkpt>
      <trkpt lat="44.51279" lon="2.02569">
        <ele>335</ele>
        <time>2015-10-31T09:18:56Z</time>
      </trkpt>
      <trkpt lat="44.51278" lon="2.02561">
        <ele>335.1</ele>
        <time>2015-10-31T09:18:57Z</time>
      </trkpt>
      <trkpt lat="44.51277" lon="2.02553">
        <ele>335.2</ele>
        <time>2015-10-31T09:18:58Z</time>
      </trkpt>
      <trkpt lat="44.51275" lon="2.02545">
        <ele>335.4</ele>
        <time>2015-10-31T09:18:59Z</time>
      </trkpt>
      <trkpt lat="44.51274" lon="2.02537">
        <ele>335.5</ele>
        <time>2015-10-31T09:19:00Z</time>
      </trkpt>
      <trkpt lat="44.51273" lon="2.02529">
        <ele>335.7</ele>
        <time>2015-10-31T09:19:01Z</time>
      </trkpt>
      <trkpt lat="44.5127" lon="2.02521">
        <ele>335.9</ele>
        <time>2015-10-31T09:19:02Z</time>
      </trkpt>
      <trkpt lat="44.51267" lon="2.02512">
        <ele>336.1</ele>
        <time>2015-10-31T09:19:03Z</time>
      </trkpt>
      <trkpt lat="44.51267" lon="2.02505">
        <ele>336.3</ele>
        <time>2015-10-31T09:19:04Z</time>
      </trkpt>
      <trkpt lat="44.51265" lon="2.02498">
        <ele>336.4</ele>
        <time>2015-10-31T09:19:05Z</time>
      </trkpt>
      <trkpt lat="44.51264" lon="2.02491">
        <ele>336.5</ele>
        <time>2015-10-31T09:19:06Z</time>
      </trkpt>
      <trkpt lat="44.5126" lon="2.02485">
        <ele>336.5</ele>
        <time>2015-10-31T09:19:07Z</time>
      </trkpt>
      <trkpt lat="44.51256" lon="2.02479">
        <ele>336.5</ele>
        <time>2015-10-31T09:19:08Z</time>
      </trkpt>
      <trkpt lat="44.51256" lon="2.02471">
        <ele>336.6</ele>
        <time>2015-10-31T09:19:09Z</time>
      </trkpt>
      <trkpt lat="44.51255" lon="2.02466">
        <ele>336.6</ele>
        <time>2015-10-31T09:19:10Z</time>
      </trkpt>
      <trkpt lat="44.51254" lon="2.02461">
        <ele>336.6</ele>
        <time>2015-10-31T09:19:11Z</time>
      </trkpt>
      <trkpt lat="44.5125" lon="2.02455">
        <ele>336.5</ele>
        <time>2015-10-31T09:19:12Z</time>
      </trkpt>
      <trkpt lat="44.51247" lon="2.02449">
        <ele>336.3</ele>
        <time>2015-10-31T09:19:13Z</time>
      </trkpt>
      <trkpt lat="44.51244" lon="2.0244">
        <ele>336.2</ele>
        <time>2015-10-31T09:19:14Z</time>
      </trkpt>
      <trkpt lat="44.51243" lon="2.02434">
        <ele>336.1</ele>
        <time>2015-10-31T09:19:15Z</time>
      </trkpt>
      <trkpt lat="44.51241" lon="2.02431">
        <ele>336</ele>
        <time>2015-10-31T09:19:16Z</time>
      </trkpt>
      <trkpt lat="44.51238" lon="2.02422">
        <ele>335.8</ele>
        <time>2015-10-31T09:19:17Z</time>
      </trkpt>
      <trkpt lat="44.51235" lon="2.02415">
        <ele>335.6</ele>
        <time>2015-10-31T09:19:18Z</time>
      </trkpt>
      <trkpt lat="44.51233" lon="2.02408">
        <ele>335.5</ele>
        <time>2015-10-31T09:19:19Z</time>
      </trkpt>
      <trkpt lat="44.51233" lon="2.02404">
        <ele>335.4</ele>
        <time>2015-10-31T09:19:20Z</time>
      </trkpt>
      <trkpt lat="44.51229" lon="2.02398">
        <ele>335.2</ele>
        <time>2015-10-31T09:19:21Z</time>
      </trkpt>
      <trkpt lat="44.51226" lon="2.02392">
        <ele>335</ele>
        <time>2015-10-31T09:19:22Z</time>
      </trkpt>
      <trkpt lat="44.51222" lon="2.02383">
        <ele>334.7</ele>
        <time>2015-10-31T09:19:23Z</time>
      </trkpt>
      <trkpt lat="44.51219" lon="2.02376">
        <ele>334.5</ele>
        <time>2015-10-31T09:19:24Z</time>
      </trkpt>
      <trkpt lat="44.51217" lon="2.02369">
        <ele>334.4</ele>
        <time>2015-10-31T09:19:25Z</time>
      </trkpt>
      <trkpt lat="44.51215" lon="2.02362">
        <ele>334.3</ele>
        <time>2015-10-31T09:19:26Z</time>
      </trkpt>
      <trkpt lat="44.51215" lon="2.02357">
        <ele>334.2</ele>
        <time>2015-10-31T09:19:27Z</time>
      </trkpt>
      <trkpt lat="44.51212" lon="2.0235">
        <ele>334.1</ele>
        <time>2015-10-31T09:19:28Z</time>
      </trkpt>
      <trkpt lat="44.51212" lon="2.02341">
        <ele>334.1</ele>
        <time>2015-10-31T09:19:29Z</time>
      </trkpt>
      <trkpt lat="44.5121" lon="2.02335">
        <ele>334.1</ele>
        <time>2015-10-31T09:19:30Z</time>
      </trkpt>
      <trkpt lat="44.51209" lon="2.02329">
        <ele>334</ele>
        <time>2015-10-31T09:19:31Z</time>
      </trkpt>
      <trkpt lat="44.51208" lon="2.02322">
        <ele>334</ele>
        <time>2015-10-31T09:19:32Z</time>
      </trkpt>
      <trkpt lat="44.51205" lon="2.02313">
        <ele>334</ele>
        <time>2015-10-31T09:19:33Z</time>
      </trkpt>
      <trkpt lat="44.51202" lon="2.02306">
        <ele>334</ele>
        <time>2015-10-31T09:19:34Z</time>
      </trkpt>
      <trkpt lat="44.512" lon="2.02298">
        <ele>334</ele>
        <time>2015-10-31T09:19:35Z</time>
      </trkpt>
      <trkpt lat="44.51198" lon="2.0229">
        <ele>334</ele>
        <time>2015-10-31T09:19:36Z</time>
      </trkpt>
      <trkpt lat="44.51196" lon="2.02281">
        <ele>334.1</ele>
        <time>2015-10-31T09:19:37Z</time>
      </trkpt>
      <trkpt lat="44.51195" lon="2.02273">
        <ele>334.2</ele>
        <time>2015-10-31T09:19:38Z</time>
      </trkpt>
      <trkpt lat="44.51194" lon="2.02266">
        <ele>334.3</ele>
        <time>2015-10-31T09:19:39Z</time>
      </trkpt>
      <trkpt lat="44.51194" lon="2.02254">
        <ele>334.4</ele>
        <time>2015-10-31T09:19:40Z</time>
      </trkpt>
      <trkpt lat="44.51195" lon="2.02245">
        <ele>334.5</ele>
        <time>2015-10-31T09:19:41Z</time>
      </trkpt>
      <trkpt lat="44.51194" lon="2.02239">
        <ele>334.5</ele>
        <time>2015-10-31T09:19:42Z</time>
      </trkpt>
      <trkpt lat="44.51193" lon="2.02231">
        <ele>334.6</ele>
        <time>2015-10-31T09:19:43Z</time>
      </trkpt>
      <trkpt lat="44.51192" lon="2.02223">
        <ele>334.7</ele>
        <time>2015-10-31T09:19:44Z</time>
      </trkpt>
      <trkpt lat="44.51191" lon="2.02212">
        <ele>334.8</ele>
        <time>2015-10-31T09:19:45Z</time>
      </trkpt>
      <trkpt lat="44.51191" lon="2.02204">
        <ele>334.8</ele>
        <time>2015-10-31T09:19:46Z</time>
      </trkpt>
      <trkpt lat="44.5119" lon="2.02196">
        <ele>335</ele>
        <time>2015-10-31T09:19:47Z</time>
      </trkpt>
      <trkpt lat="44.51189" lon="2.02188">
        <ele>335.1</ele>
        <time>2015-10-31T09:19:48Z</time>
      </trkpt>
      <trkpt lat="44.51187" lon="2.0218">
        <ele>335.2</ele>
        <time>2015-10-31T09:19:49Z</time>
      </trkpt>
      <trkpt lat="44.51187" lon="2.02171">
        <ele>335.3</ele>
        <time>2015-10-31T09:19:50Z</time>
      </trkpt>
      <trkpt lat="44.51186" lon="2.02164">
        <ele>335.4</ele>
        <time>2015-10-31T09:19:51Z</time>
      </trkpt>
      <trkpt lat="44.51184" lon="2.02157">
        <ele>335.5</ele>
        <time>2015-10-31T09:19:52Z</time>
      </trkpt>
      <trkpt lat="44.51183" lon="2.02151">
        <ele>335.6</ele>
        <time>2015-10-31T09:19:53Z</time>
      </trkpt>
      <trkpt lat="44.51183" lon="2.02144">
        <ele>335.7</ele>
        <time>2015-10-31T09:19:54Z</time>
      </trkpt>
      <trkpt lat="44.51183" lon="2.02135">
        <ele>335.8</ele>
        <time>2015-10-31T09:19:55Z</time>
      </trkpt>
      <trkpt lat="44.51181" lon="2.02125">
        <ele>336</ele>
        <time>2015-10-31T09:19:56Z</time>
      </trkpt>
      <trkpt lat="44.5118" lon="2.02116">
        <ele>336.5</ele>
        <time>2015-10-31T09:19:57Z</time>
      </trkpt>
      <trkpt lat="44.51182" lon="2.02112">
        <ele>336.8</ele>
        <time>2015-10-31T09:19:58Z</time>
      </trkpt>
      <trkpt lat="44.5118" lon="2.02104">
        <ele>337.3</ele>
        <time>2015-10-31T09:19:59Z</time>
      </trkpt>
      <trkpt lat="44.51182" lon="2.02098">
        <ele>337.6</ele>
        <time>2015-10-31T09:20:00Z</time>
      </trkpt>
      <trkpt lat="44.51182" lon="2.02093">
        <ele>337.9</ele>
        <time>2015-10-31T09:20:01Z</time>
      </trkpt>
      <trkpt lat="44.51182" lon="2.02087">
        <ele>338.3</ele>
        <time>2015-10-31T09:20:02Z</time>
      </trkpt>
      <trkpt lat="44.5118" lon="2.0208">
        <ele>338.7</ele>
        <time>2015-10-31T09:20:03Z</time>
      </trkpt>
      <trkpt lat="44.5118" lon="2.02072">
        <ele>339.2</ele>
        <time>2015-10-31T09:20:04Z</time>
      </trkpt>
      <trkpt lat="44.51179" lon="2.02067">
        <ele>339.5</ele>
        <time>2015-10-31T09:20:05Z</time>
      </trkpt>
      <trkpt lat="44.5118" lon="2.02061">
        <ele>339.9</ele>
        <time>2015-10-31T09:20:06Z</time>
      </trkpt>
      <trkpt lat="44.51179" lon="2.02056">
        <ele>340.2</ele>
        <time>2015-10-31T09:20:07Z</time>
      </trkpt>
      <trkpt lat="44.51178" lon="2.02051">
        <ele>340.5</ele>
        <time>2015-10-31T09:20:08Z</time>
      </trkpt>
      <trkpt lat="44.5118" lon="2.02046">
        <ele>340.8</ele>
        <time>2015-10-31T09:20:09Z</time>
      </trkpt>
      <trkpt lat="44.51182" lon="2.02043">
        <ele>340.9</ele>
        <time>2015-10-31T09:20:10Z</time>
      </trkpt>
      <trkpt lat="44.51182" lon="2.02037">
        <ele>341.2</ele>
        <time>2015-10-31T09:20:11Z</time>
      </trkpt>
      <trkpt lat="44.5118" lon="2.02029">
        <ele>341.6</ele>
        <time>2015-10-31T09:20:12Z</time>
      </trkpt>
      <trkpt lat="44.5118" lon="2.02022">
        <ele>341.9</ele>
        <time>2015-10-31T09:20:13Z</time>
      </trkpt>
      <trkpt lat="44.51181" lon="2.02016">
        <ele>342.1</ele>
        <time>2015-10-31T09:20:14Z</time>
      </trkpt>
      <trkpt lat="44.51181" lon="2.02011">
        <ele>342.3</ele>
        <time>2015-10-31T09:20:15Z</time>
      </trkpt>
      <trkpt lat="44.51181" lon="2.02005">
        <ele>342.6</ele>
        <time>2015-10-31T09:20:16Z</time>
      </trkpt>
      <trkpt lat="44.5118" lon="2.02">
        <ele>342.8</ele>
        <time>2015-10-31T09:20:17Z</time>
      </trkpt>
      <trkpt lat="44.51181" lon="2.01995">
        <ele>343</ele>
        <time>2015-10-31T09:20:18Z</time>
      </trkpt>
      <trkpt lat="44.51181" lon="2.0199">
        <ele>343.3</ele>
        <time>2015-10-31T09:20:19Z</time>
      </trkpt>
      <trkpt lat="44.51183" lon="2.01986">
        <ele>343.4</ele>
        <time>2015-10-31T09:20:20Z</time>
      </trkpt>
      <trkpt lat="44.51185" lon="2.01982">
        <ele>343.6</ele>
        <time>2015-10-31T09:20:21Z</time>
      </trkpt>
      <trkpt lat="44.51186" lon="2.01978">
        <ele>343.8</ele>
        <time>2015-10-31T09:20:22Z</time>
      </trkpt>
      <trkpt lat="44.51186" lon="2.01971">
        <ele>344.1</ele>
        <time>2015-10-31T09:20:24Z</time>
      </trkpt>
      <trkpt lat="44.51183" lon="2.01969">
        <ele>344.2</ele>
        <time>2015-10-31T09:20:25Z</time>
      </trkpt>
      <trkpt lat="44.51181" lon="2.01963">
        <ele>344.5</ele>
        <time>2015-10-31T09:20:27Z</time>
      </trkpt>
      <trkpt lat="44.51182" lon="2.01958">
        <ele>344.7</ele>
        <time>2015-10-31T09:20:28Z</time>
      </trkpt>
      <trkpt lat="44.51182" lon="2.01952">
        <ele>344.8</ele>
        <time>2015-10-31T09:20:30Z</time>
      </trkpt>
      <trkpt lat="44.51184" lon="2.01947">
        <ele>345</ele>
        <time>2015-10-31T09:20:32Z</time>
      </trkpt>
      <trkpt lat="44.51185" lon="2.01942">
        <ele>345.1</ele>
        <time>2015-10-31T09:20:34Z</time>
      </trkpt>
      <trkpt lat="44.51185" lon="2.01936">
        <ele>345.3</ele>
        <time>2015-10-31T09:20:36Z</time>
      </trkpt>
      <trkpt lat="44.51185" lon="2.0193">
        <ele>345.5</ele>
        <time>2015-10-31T09:20:38Z</time>
      </trkpt>
      <trkpt lat="44.51185" lon="2.01924">
        <ele>345.6</ele>
        <time>2015-10-31T09:20:40Z</time>
      </trkpt>
      <trkpt lat="44.51184" lon="2.01917">
        <ele>345.8</ele>
        <time>2015-10-31T09:20:42Z</time>
      </trkpt>
      <trkpt lat="44.51183" lon="2.01911">
        <ele>345.9</ele>
        <time>2015-10-31T09:20:44Z</time>
      </trkpt>
      <trkpt lat="44.51182" lon="2.01905">
        <ele>346</ele>
        <time>2015-10-31T09:20:46Z</time>
      </trkpt>
      <trkpt lat="44.5118" lon="2.01899">
        <ele>346.1</ele>
        <time>2015-10-31T09:20:48Z</time>
      </trkpt>
      <trkpt lat="44.51177" lon="2.01894">
        <ele>346.1</ele>
        <time>2015-10-31T09:20:50Z</time>
      </trkpt>
      <trkpt lat="44.51177" lon="2.01888">
        <ele>346.2</ele>
        <time>2015-10-31T09:20:52Z</time>
      </trkpt>
      <trkpt lat="44.51178" lon="2.01884">
        <ele>346.3</ele>
        <time>2015-10-31T09:20:53Z</time>
      </trkpt>
      <trkpt lat="44.51176" lon="2.01879">
        <ele>346.4</ele>
        <time>2015-10-31T09:20:55Z</time>
      </trkpt>
      <trkpt lat="44.51173" lon="2.01874">
        <ele>346.3</ele>
        <time>2015-10-31T09:20:57Z</time>
      </trkpt>
      <trkpt lat="44.51171" lon="2.01871">
        <ele>346.1</ele>
        <time>2015-10-31T09:20:58Z</time>
      </trkpt>
      <trkpt lat="44.51167" lon="2.01864">
        <ele>345.9</ele>
        <time>2015-10-31T09:21:00Z</time>
      </trkpt>
      <trkpt lat="44.51165" lon="2.01862">
        <ele>345.8</ele>
        <time>2015-10-31T09:21:01Z</time>
      </trkpt>
      <trkpt lat="44.51162" lon="2.01859">
        <ele>345.6</ele>
        <time>2015-10-31T09:21:02Z</time>
      </trkpt>
      <trkpt lat="44.51159" lon="2.01856">
        <ele>345.5</ele>
        <time>2015-10-31T09:21:03Z</time>
      </trkpt>
      <trkpt lat="44.51157" lon="2.01852">
        <ele>345.3</ele>
        <time>2015-10-31T09:21:04Z</time>
      </trkpt>
      <trkpt lat="44.51155" lon="2.01849">
        <ele>345.2</ele>
        <time>2015-10-31T09:21:05Z</time>
      </trkpt>
      <trkpt lat="44.51153" lon="2.01845">
        <ele>345.1</ele>
        <time>2015-10-31T09:21:06Z</time>
      </trkpt>
      <trkpt lat="44.51151" lon="2.01842">
        <ele>345</ele>
        <time>2015-10-31T09:21:07Z</time>
      </trkpt>
      <trkpt lat="44.51149" lon="2.0184">
        <ele>344.9</ele>
        <time>2015-10-31T09:21:08Z</time>
      </trkpt>
      <trkpt lat="44.51147" lon="2.01837">
        <ele>344.8</ele>
        <time>2015-10-31T09:21:09Z</time>
      </trkpt>
      <trkpt lat="44.51146" lon="2.01833">
        <ele>344.8</ele>
        <time>2015-10-31T09:21:10Z</time>
      </trkpt>
      <trkpt lat="44.51146" lon="2.01829">
        <ele>344.7</ele>
        <time>2015-10-31T09:21:11Z</time>
      </trkpt>
      <trkpt lat="44.51145" lon="2.01825">
        <ele>344.7</ele>
        <time>2015-10-31T09:21:12Z</time>
      </trkpt>
      <trkpt lat="44.51145" lon="2.01821">
        <ele>344.6</ele>
        <time>2015-10-31T09:21:13Z</time>
      </trkpt>
      <trkpt lat="44.51144" lon="2.01817">
        <ele>344.6</ele>
        <time>2015-10-31T09:21:14Z</time>
      </trkpt>
      <trkpt lat="44.51144" lon="2.01813">
        <ele>344.6</ele>
        <time>2015-10-31T09:21:15Z</time>
      </trkpt>
      <trkpt lat="44.51143" lon="2.01806">
        <ele>344.5</ele>
        <time>2015-10-31T09:21:17Z</time>
      </trkpt>
      <trkpt lat="44.51142" lon="2.01798">
        <ele>344.4</ele>
        <time>2015-10-31T09:21:19Z</time>
      </trkpt>
      <trkpt lat="44.51142" lon="2.01794">
        <ele>344.4</ele>
        <time>2015-10-31T09:21:20Z</time>
      </trkpt>
      <trkpt lat="44.51141" lon="2.0179">
        <ele>344.4</ele>
        <time>2015-10-31T09:21:21Z</time>
      </trkpt>
      <trkpt lat="44.51141" lon="2.01786">
        <ele>344.5</ele>
        <time>2015-10-31T09:21:22Z</time>
      </trkpt>
      <trkpt lat="44.51141" lon="2.01782">
        <ele>344.7</ele>
        <time>2015-10-31T09:21:23Z</time>
      </trkpt>
      <trkpt lat="44.51141" lon="2.01778">
        <ele>344.8</ele>
        <time>2015-10-31T09:21:24Z</time>
      </trkpt>
      <trkpt lat="44.51141" lon="2.01774">
        <ele>344.9</ele>
        <time>2015-10-31T09:21:25Z</time>
      </trkpt>
      <trkpt lat="44.51141" lon="2.0177">
        <ele>345</ele>
        <time>2015-10-31T09:21:26Z</time>
      </trkpt>
      <trkpt lat="44.51141" lon="2.01766">
        <ele>345.1</ele>
        <time>2015-10-31T09:21:27Z</time>
      </trkpt>
      <trkpt lat="44.51141" lon="2.01761">
        <ele>345.3</ele>
        <time>2015-10-31T09:21:28Z</time>
      </trkpt>
      <trkpt lat="44.51141" lon="2.01756">
        <ele>345.4</ele>
        <time>2015-10-31T09:21:29Z</time>
      </trkpt>
      <trkpt lat="44.51141" lon="2.01746">
        <ele>345.7</ele>
        <time>2015-10-31T09:21:30Z</time>
      </trkpt>
      <trkpt lat="44.51142" lon="2.01742">
        <ele>345.8</ele>
        <time>2015-10-31T09:21:31Z</time>
      </trkpt>
      <trkpt lat="44.51143" lon="2.01736">
        <ele>346</ele>
        <time>2015-10-31T09:21:32Z</time>
      </trkpt>
      <trkpt lat="44.51143" lon="2.0173">
        <ele>346.2</ele>
        <time>2015-10-31T09:21:33Z</time>
      </trkpt>
      <trkpt lat="44.51143" lon="2.01722">
        <ele>346.4</ele>
        <time>2015-10-31T09:21:34Z</time>
      </trkpt>
      <trkpt lat="44.51143" lon="2.01715">
        <ele>346.6</ele>
        <time>2015-10-31T09:21:35Z</time>
      </trkpt>
      <trkpt lat="44.51143" lon="2.01709">
        <ele>346.8</ele>
        <time>2015-10-31T09:21:36Z</time>
      </trkpt>
      <trkpt lat="44.51145" lon="2.017">
        <ele>346.7</ele>
        <time>2015-10-31T09:21:37Z</time>
      </trkpt>
      <trkpt lat="44.51147" lon="2.01692">
        <ele>346.6</ele>
        <time>2015-10-31T09:21:38Z</time>
      </trkpt>
      <trkpt lat="44.51147" lon="2.01684">
        <ele>346.6</ele>
        <time>2015-10-31T09:21:39Z</time>
      </trkpt>
      <trkpt lat="44.51147" lon="2.01674">
        <ele>346.5</ele>
        <time>2015-10-31T09:21:40Z</time>
      </trkpt>
      <trkpt lat="44.51149" lon="2.01663">
        <ele>346.4</ele>
        <time>2015-10-31T09:21:41Z</time>
      </trkpt>
      <trkpt lat="44.51152" lon="2.01656">
        <ele>346.3</ele>
        <time>2015-10-31T09:21:42Z</time>
      </trkpt>
      <trkpt lat="44.51152" lon="2.01645">
        <ele>346.2</ele>
        <time>2015-10-31T09:21:43Z</time>
      </trkpt>
      <trkpt lat="44.51153" lon="2.01637">
        <ele>346.1</ele>
        <time>2015-10-31T09:21:44Z</time>
      </trkpt>
      <trkpt lat="44.51154" lon="2.01633">
        <ele>346</ele>
        <time>2015-10-31T09:21:45Z</time>
      </trkpt>
      <trkpt lat="44.51154" lon="2.01623">
        <ele>346</ele>
        <time>2015-10-31T09:21:46Z</time>
      </trkpt>
      <trkpt lat="44.51155" lon="2.01614">
        <ele>346.1</ele>
        <time>2015-10-31T09:21:47Z</time>
      </trkpt>
      <trkpt lat="44.51153" lon="2.01607">
        <ele>346.2</ele>
        <time>2015-10-31T09:21:48Z</time>
      </trkpt>
      <trkpt lat="44.51153" lon="2.016">
        <ele>346.3</ele>
        <time>2015-10-31T09:21:49Z</time>
      </trkpt>
      <trkpt lat="44.51155" lon="2.01596">
        <ele>346.3</ele>
        <time>2015-10-31T09:21:50Z</time>
      </trkpt>
      <trkpt lat="44.51154" lon="2.01589">
        <ele>346.4</ele>
        <time>2015-10-31T09:21:51Z</time>
      </trkpt>
      <trkpt lat="44.51154" lon="2.01582">
        <ele>346.5</ele>
        <time>2015-10-31T09:21:52Z</time>
      </trkpt>
      <trkpt lat="44.51153" lon="2.01575">
        <ele>346.6</ele>
        <time>2015-10-31T09:21:53Z</time>
      </trkpt>
      <trkpt lat="44.51151" lon="2.01567">
        <ele>346.7</ele>
        <time>2015-10-31T09:21:54Z</time>
      </trkpt>
      <trkpt lat="44.5115" lon="2.0156">
        <ele>346.8</ele>
        <time>2015-10-31T09:21:55Z</time>
      </trkpt>
      <trkpt lat="44.51148" lon="2.01554">
        <ele>346.9</ele>
        <time>2015-10-31T09:21:56Z</time>
      </trkpt>
      <trkpt lat="44.51147" lon="2.01547">
        <ele>347</ele>
        <time>2015-10-31T09:21:57Z</time>
      </trkpt>
      <trkpt lat="44.51147" lon="2.01539">
        <ele>347.1</ele>
        <time>2015-10-31T09:21:58Z</time>
      </trkpt>
      <trkpt lat="44.51144" lon="2.01532">
        <ele>347.4</ele>
        <time>2015-10-31T09:21:59Z</time>
      </trkpt>
      <trkpt lat="44.51142" lon="2.01523">
        <ele>347.7</ele>
        <time>2015-10-31T09:22:00Z</time>
      </trkpt>
      <trkpt lat="44.51141" lon="2.01517">
        <ele>347.9</ele>
        <time>2015-10-31T09:22:01Z</time>
      </trkpt>
      <trkpt lat="44.5114" lon="2.01512">
        <ele>348.1</ele>
        <time>2015-10-31T09:22:02Z</time>
      </trkpt>
      <trkpt lat="44.5114" lon="2.01505">
        <ele>348.3</ele>
        <time>2015-10-31T09:22:03Z</time>
      </trkpt>
      <trkpt lat="44.5114" lon="2.01499">
        <ele>348.5</ele>
        <time>2015-10-31T09:22:04Z</time>
      </trkpt>
      <trkpt lat="44.51137" lon="2.01493">
        <ele>348.8</ele>
        <time>2015-10-31T09:22:05Z</time>
      </trkpt>
      <trkpt lat="44.51136" lon="2.01487">
        <ele>349</ele>
        <time>2015-10-31T09:22:06Z</time>
      </trkpt>
      <trkpt lat="44.51135" lon="2.01481">
        <ele>349.2</ele>
        <time>2015-10-31T09:22:07Z</time>
      </trkpt>
      <trkpt lat="44.51134" lon="2.01475">
        <ele>349.4</ele>
        <time>2015-10-31T09:22:08Z</time>
      </trkpt>
      <trkpt lat="44.51132" lon="2.01469">
        <ele>349.6</ele>
        <time>2015-10-31T09:22:09Z</time>
      </trkpt>
      <trkpt lat="44.51131" lon="2.01465">
        <ele>349.8</ele>
        <time>2015-10-31T09:22:10Z</time>
      </trkpt>
      <trkpt lat="44.51129" lon="2.01461">
        <ele>349.9</ele>
        <time>2015-10-31T09:22:11Z</time>
      </trkpt>
      <trkpt lat="44.5113" lon="2.01454">
        <ele>349.9</ele>
        <time>2015-10-31T09:22:13Z</time>
      </trkpt>
      <trkpt lat="44.51129" lon="2.0145">
        <ele>349.9</ele>
        <time>2015-10-31T09:22:14Z</time>
      </trkpt>
      <trkpt lat="44.51128" lon="2.01443">
        <ele>349.8</ele>
        <time>2015-10-31T09:22:16Z</time>
      </trkpt>
      <trkpt lat="44.51127" lon="2.0144">
        <ele>349.8</ele>
        <time>2015-10-31T09:22:18Z</time>
      </trkpt>
      <trkpt lat="44.51124" lon="2.01433">
        <ele>349.6</ele>
        <time>2015-10-31T09:23:31Z</time>
      </trkpt>
      <trkpt lat="44.51123" lon="2.01427">
        <ele>349.5</ele>
        <time>2015-10-31T09:23:33Z</time>
      </trkpt>
      <trkpt lat="44.51122" lon="2.01421">
        <ele>349.4</ele>
        <time>2015-10-31T09:23:35Z</time>
      </trkpt>
      <trkpt lat="44.5112" lon="2.01415">
        <ele>349.2</ele>
        <time>2015-10-31T09:23:37Z</time>
      </trkpt>
      <trkpt lat="44.51119" lon="2.01409">
        <ele>349</ele>
        <time>2015-10-31T09:23:39Z</time>
      </trkpt>
      <trkpt lat="44.51118" lon="2.01402">
        <ele>348.9</ele>
        <time>2015-10-31T09:23:41Z</time>
      </trkpt>
      <trkpt lat="44.51117" lon="2.01396">
        <ele>348.8</ele>
        <time>2015-10-31T09:23:43Z</time>
      </trkpt>
      <trkpt lat="44.51116" lon="2.0139">
        <ele>348.6</ele>
        <time>2015-10-31T09:23:45Z</time>
      </trkpt>
      <trkpt lat="44.51114" lon="2.01384">
        <ele>348.5</ele>
        <time>2015-10-31T09:23:47Z</time>
      </trkpt>
      <trkpt lat="44.51113" lon="2.01377">
        <ele>348.3</ele>
        <time>2015-10-31T09:23:49Z</time>
      </trkpt>
      <trkpt lat="44.51112" lon="2.0137">
        <ele>348</ele>
        <time>2015-10-31T09:23:51Z</time>
      </trkpt>
      <trkpt lat="44.51111" lon="2.01364">
        <ele>347.6</ele>
        <time>2015-10-31T09:23:53Z</time>
      </trkpt>
      <trkpt lat="44.51109" lon="2.01357">
        <ele>347.2</ele>
        <time>2015-10-31T09:23:55Z</time>
      </trkpt>
      <trkpt lat="44.51107" lon="2.01353">
        <ele>346.9</ele>
        <time>2015-10-31T09:23:56Z</time>
      </trkpt>
      <trkpt lat="44.51104" lon="2.01344">
        <ele>346.4</ele>
        <time>2015-10-31T09:23:58Z</time>
      </trkpt>
      <trkpt lat="44.51102" lon="2.0134">
        <ele>346.1</ele>
        <time>2015-10-31T09:23:59Z</time>
      </trkpt>
      <trkpt lat="44.51101" lon="2.01336">
        <ele>345.8</ele>
        <time>2015-10-31T09:24:00Z</time>
      </trkpt>
      <trkpt lat="44.51099" lon="2.0133">
        <ele>345.5</ele>
        <time>2015-10-31T09:24:01Z</time>
      </trkpt>
      <trkpt lat="44.51098" lon="2.01326">
        <ele>345.2</ele>
        <time>2015-10-31T09:24:02Z</time>
      </trkpt>
      <trkpt lat="44.51096" lon="2.01321">
        <ele>344.9</ele>
        <time>2015-10-31T09:24:03Z</time>
      </trkpt>
      <trkpt lat="44.51094" lon="2.01317">
        <ele>344.6</ele>
        <time>2015-10-31T09:24:04Z</time>
      </trkpt>
      <trkpt lat="44.51091" lon="2.01311">
        <ele>344.2</ele>
        <time>2015-10-31T09:24:05Z</time>
      </trkpt>
      <trkpt lat="44.51087" lon="2.01302">
        <ele>343.6</ele>
        <time>2015-10-31T09:24:06Z</time>
      </trkpt>
      <trkpt lat="44.51084" lon="2.01296">
        <ele>343.2</ele>
        <time>2015-10-31T09:24:07Z</time>
      </trkpt>
      <trkpt lat="44.51082" lon="2.01289">
        <ele>342.8</ele>
        <time>2015-10-31T09:24:08Z</time>
      </trkpt>
      <trkpt lat="44.51079" lon="2.01282">
        <ele>342.4</ele>
        <time>2015-10-31T09:24:09Z</time>
      </trkpt>
      <trkpt lat="44.51076" lon="2.01275">
        <ele>342.1</ele>
        <time>2015-10-31T09:24:10Z</time>
      </trkpt>
      <trkpt lat="44.51074" lon="2.01268">
        <ele>341.7</ele>
        <time>2015-10-31T09:24:11Z</time>
      </trkpt>
      <trkpt lat="44.51072" lon="2.0126">
        <ele>341.3</ele>
        <time>2015-10-31T09:24:12Z</time>
      </trkpt>
      <trkpt lat="44.51068" lon="2.01253">
        <ele>340.9</ele>
        <time>2015-10-31T09:24:13Z</time>
      </trkpt>
      <trkpt lat="44.51066" lon="2.01244">
        <ele>340.4</ele>
        <time>2015-10-31T09:24:14Z</time>
      </trkpt>
      <trkpt lat="44.51065" lon="2.01234">
        <ele>340</ele>
        <time>2015-10-31T09:24:15Z</time>
      </trkpt>
      <trkpt lat="44.51063" lon="2.01225">
        <ele>339.6</ele>
        <time>2015-10-31T09:24:16Z</time>
      </trkpt>
      <trkpt lat="44.51063" lon="2.01215">
        <ele>339.3</ele>
        <time>2015-10-31T09:24:17Z</time>
      </trkpt>
      <trkpt lat="44.51063" lon="2.01203">
        <ele>338.8</ele>
        <time>2015-10-31T09:24:18Z</time>
      </trkpt>
      <trkpt lat="44.51062" lon="2.01192">
        <ele>338.3</ele>
        <time>2015-10-31T09:24:19Z</time>
      </trkpt>
      <trkpt lat="44.51061" lon="2.0118">
        <ele>337.7</ele>
        <time>2015-10-31T09:24:20Z</time>
      </trkpt>
      <trkpt lat="44.5106" lon="2.01167">
        <ele>337.2</ele>
        <time>2015-10-31T09:24:21Z</time>
      </trkpt>
      <trkpt lat="44.5106" lon="2.01154">
        <ele>336.6</ele>
        <time>2015-10-31T09:24:22Z</time>
      </trkpt>
      <trkpt lat="44.51059" lon="2.01141">
        <ele>336.1</ele>
        <time>2015-10-31T09:24:23Z</time>
      </trkpt>
      <trkpt lat="44.51058" lon="2.01129">
        <ele>335.5</ele>
        <time>2015-10-31T09:24:24Z</time>
      </trkpt>
      <trkpt lat="44.51058" lon="2.01116">
        <ele>335.4</ele>
        <time>2015-10-31T09:24:25Z</time>
      </trkpt>
      <trkpt lat="44.5106" lon="2.01105">
        <ele>335.5</ele>
        <time>2015-10-31T09:24:26Z</time>
      </trkpt>
      <trkpt lat="44.51061" lon="2.01092">
        <ele>335.5</ele>
        <time>2015-10-31T09:24:27Z</time>
      </trkpt>
      <trkpt lat="44.51062" lon="2.01078">
        <ele>335.5</ele>
        <time>2015-10-31T09:24:28Z</time>
      </trkpt>
      <trkpt lat="44.51063" lon="2.01065">
        <ele>335.5</ele>
        <time>2015-10-31T09:24:29Z</time>
      </trkpt>
      <trkpt lat="44.51063" lon="2.01051">
        <ele>335.5</ele>
        <time>2015-10-31T09:24:30Z</time>
      </trkpt>
      <trkpt lat="44.51065" lon="2.01038">
        <ele>335.5</ele>
        <time>2015-10-31T09:24:31Z</time>
      </trkpt>
      <trkpt lat="44.51064" lon="2.01024">
        <ele>335.9</ele>
        <time>2015-10-31T09:24:32Z</time>
      </trkpt>
      <trkpt lat="44.51065" lon="2.01011">
        <ele>336.2</ele>
        <time>2015-10-31T09:24:33Z</time>
      </trkpt>
      <trkpt lat="44.51065" lon="2.00998">
        <ele>336.5</ele>
        <time>2015-10-31T09:24:34Z</time>
      </trkpt>
      <trkpt lat="44.51067" lon="2.00986">
        <ele>336.7</ele>
        <time>2015-10-31T09:24:35Z</time>
      </trkpt>
      <trkpt lat="44.51067" lon="2.00974">
        <ele>337</ele>
        <time>2015-10-31T09:24:36Z</time>
      </trkpt>
      <trkpt lat="44.51067" lon="2.00962">
        <ele>337.3</ele>
        <time>2015-10-31T09:24:37Z</time>
      </trkpt>
      <trkpt lat="44.51067" lon="2.00949">
        <ele>337.7</ele>
        <time>2015-10-31T09:24:38Z</time>
      </trkpt>
      <trkpt lat="44.51067" lon="2.0094">
        <ele>338</ele>
        <time>2015-10-31T09:24:39Z</time>
      </trkpt>
      <trkpt lat="44.51066" lon="2.00929">
        <ele>338.4</ele>
        <time>2015-10-31T09:24:40Z</time>
      </trkpt>
      <trkpt lat="44.51066" lon="2.00918">
        <ele>338.8</ele>
        <time>2015-10-31T09:24:41Z</time>
      </trkpt>
      <trkpt lat="44.51067" lon="2.00909">
        <ele>339.1</ele>
        <time>2015-10-31T09:24:42Z</time>
      </trkpt>
      <trkpt lat="44.51066" lon="2.00902">
        <ele>339.4</ele>
        <time>2015-10-31T09:24:43Z</time>
      </trkpt>
      <trkpt lat="44.51066" lon="2.00894">
        <ele>339.6</ele>
        <time>2015-10-31T09:24:44Z</time>
      </trkpt>
      <trkpt lat="44.51066" lon="2.00885">
        <ele>339.9</ele>
        <time>2015-10-31T09:24:45Z</time>
      </trkpt>
      <trkpt lat="44.51065" lon="2.0088">
        <ele>340.1</ele>
        <time>2015-10-31T09:24:46Z</time>
      </trkpt>
      <trkpt lat="44.51065" lon="2.00875">
        <ele>340.3</ele>
        <time>2015-10-31T09:24:47Z</time>
      </trkpt>
      <trkpt lat="44.51065" lon="2.00869">
        <ele>340.4</ele>
        <time>2015-10-31T09:24:48Z</time>
      </trkpt>
      <trkpt lat="44.51064" lon="2.00861">
        <ele>340.6</ele>
        <time>2015-10-31T09:24:49Z</time>
      </trkpt>
      <trkpt lat="44.51065" lon="2.00854">
        <ele>340.7</ele>
        <time>2015-10-31T09:24:50Z</time>
      </trkpt>
      <trkpt lat="44.51064" lon="2.00848">
        <ele>340.8</ele>
        <time>2015-10-31T09:24:51Z</time>
      </trkpt>
      <trkpt lat="44.51063" lon="2.0084">
        <ele>341</ele>
        <time>2015-10-31T09:24:52Z</time>
      </trkpt>
      <trkpt lat="44.51064" lon="2.00835">
        <ele>341.1</ele>
        <time>2015-10-31T09:24:53Z</time>
      </trkpt>
      <trkpt lat="44.51064" lon="2.00829">
        <ele>341.2</ele>
        <time>2015-10-31T09:24:54Z</time>
      </trkpt>
      <trkpt lat="44.51064" lon="2.00823">
        <ele>341.4</ele>
        <time>2015-10-31T09:24:55Z</time>
      </trkpt>
      <trkpt lat="44.51061" lon="2.00818">
        <ele>341.4</ele>
        <time>2015-10-31T09:24:56Z</time>
      </trkpt>
      <trkpt lat="44.51062" lon="2.00811">
        <ele>341.6</ele>
        <time>2015-10-31T09:24:57Z</time>
      </trkpt>
      <trkpt lat="44.51062" lon="2.00805">
        <ele>341.7</ele>
        <time>2015-10-31T09:24:58Z</time>
      </trkpt>
      <trkpt lat="44.51063" lon="2.00799">
        <ele>341.8</ele>
        <time>2015-10-31T09:24:59Z</time>
      </trkpt>
      <trkpt lat="44.51062" lon="2.00794">
        <ele>342</ele>
        <time>2015-10-31T09:25:00Z</time>
      </trkpt>
      <trkpt lat="44.51062" lon="2.00788">
        <ele>342.1</ele>
        <time>2015-10-31T09:25:01Z</time>
      </trkpt>
      <trkpt lat="44.51062" lon="2.00783">
        <ele>342.2</ele>
        <time>2015-10-31T09:25:02Z</time>
      </trkpt>
      <trkpt lat="44.51063" lon="2.00777">
        <ele>342.3</ele>
        <time>2015-10-31T09:25:03Z</time>
      </trkpt>
      <trkpt lat="44.51063" lon="2.00772">
        <ele>342.5</ele>
        <time>2015-10-31T09:25:04Z</time>
      </trkpt>
      <trkpt lat="44.51063" lon="2.00766">
        <ele>342.6</ele>
        <time>2015-10-31T09:25:05Z</time>
      </trkpt>
      <trkpt lat="44.51062" lon="2.00761">
        <ele>342.7</ele>
        <time>2015-10-31T09:25:06Z</time>
      </trkpt>
      <trkpt lat="44.51063" lon="2.00756">
        <ele>342.9</ele>
        <time>2015-10-31T09:25:07Z</time>
      </trkpt>
      <trkpt lat="44.51063" lon="2.0075">
        <ele>343</ele>
        <time>2015-10-31T09:25:08Z</time>
      </trkpt>
      <trkpt lat="44.51063" lon="2.00744">
        <ele>343.1</ele>
        <time>2015-10-31T09:25:09Z</time>
      </trkpt>
      <trkpt lat="44.51064" lon="2.00738">
        <ele>343.2</ele>
        <time>2015-10-31T09:25:11Z</time>
      </trkpt>
      <trkpt lat="44.51061" lon="2.00735">
        <ele>343.4</ele>
        <time>2015-10-31T09:25:13Z</time>
      </trkpt>
      <trkpt lat="44.51059" lon="2.00739">
        <ele>343.4</ele>
        <time>2015-10-31T09:25:15Z</time>
      </trkpt>
      <trkpt lat="44.5106" lon="2.00746">
        <ele>343.2</ele>
        <time>2015-10-31T09:25:17Z</time>
      </trkpt>
      <trkpt lat="44.5106" lon="2.00747">
        <ele>343.1</ele>
        <time>2015-10-31T09:26:06Z</time>
      </trkpt>
      <trkpt lat="44.51059" lon="2.00741">
        <ele>343.3</ele>
        <time>2015-10-31T09:26:08Z</time>
      </trkpt>
      <trkpt lat="44.51059" lon="2.00737">
        <ele>343.4</ele>
        <time>2015-10-31T09:26:09Z</time>
      </trkpt>
      <trkpt lat="44.51059" lon="2.00731">
        <ele>343.6</ele>
        <time>2015-10-31T09:26:10Z</time>
      </trkpt>
      <trkpt lat="44.51059" lon="2.00726">
        <ele>343.7</ele>
        <time>2015-10-31T09:26:11Z</time>
      </trkpt>
      <trkpt lat="44.5106" lon="2.00721">
        <ele>343.8</ele>
        <time>2015-10-31T09:26:12Z</time>
      </trkpt>
      <trkpt lat="44.5106" lon="2.00715">
        <ele>343.9</ele>
        <time>2015-10-31T09:26:13Z</time>
      </trkpt>
      <trkpt lat="44.51061" lon="2.0071">
        <ele>344.1</ele>
        <time>2015-10-31T09:26:14Z</time>
      </trkpt>
      <trkpt lat="44.5106" lon="2.00705">
        <ele>344.2</ele>
        <time>2015-10-31T09:26:15Z</time>
      </trkpt>
      <trkpt lat="44.5106" lon="2.007">
        <ele>344.4</ele>
        <time>2015-10-31T09:26:16Z</time>
      </trkpt>
      <trkpt lat="44.51059" lon="2.00696">
        <ele>344.6</ele>
        <time>2015-10-31T09:26:17Z</time>
      </trkpt>
      <trkpt lat="44.51059" lon="2.00692">
        <ele>344.8</ele>
        <time>2015-10-31T09:26:18Z</time>
      </trkpt>
      <trkpt lat="44.51058" lon="2.00688">
        <ele>345</ele>
        <time>2015-10-31T09:26:19Z</time>
      </trkpt>
      <trkpt lat="44.51058" lon="2.00684">
        <ele>345.2</ele>
        <time>2015-10-31T09:26:20Z</time>
      </trkpt>
      <trkpt lat="44.51058" lon="2.00679">
        <ele>345.4</ele>
        <time>2015-10-31T09:26:21Z</time>
      </trkpt>
      <trkpt lat="44.51058" lon="2.00674">
        <ele>345.6</ele>
        <time>2015-10-31T09:26:22Z</time>
      </trkpt>
      <trkpt lat="44.51057" lon="2.00669">
        <ele>345.8</ele>
        <time>2015-10-31T09:26:23Z</time>
      </trkpt>
      <trkpt lat="44.51057" lon="2.00664">
        <ele>346</ele>
        <time>2015-10-31T09:26:24Z</time>
      </trkpt>
      <trkpt lat="44.51058" lon="2.00659">
        <ele>346.1</ele>
        <time>2015-10-31T09:26:25Z</time>
      </trkpt>
      <trkpt lat="44.51058" lon="2.00654">
        <ele>346.3</ele>
        <time>2015-10-31T09:26:26Z</time>
      </trkpt>
      <trkpt lat="44.51058" lon="2.0065">
        <ele>346.4</ele>
        <time>2015-10-31T09:26:27Z</time>
      </trkpt>
      <trkpt lat="44.51058" lon="2.00646">
        <ele>346.6</ele>
        <time>2015-10-31T09:26:28Z</time>
      </trkpt>
      <trkpt lat="44.51059" lon="2.00642">
        <ele>346.7</ele>
        <time>2015-10-31T09:26:29Z</time>
      </trkpt>
      <trkpt lat="44.51059" lon="2.00638">
        <ele>346.9</ele>
        <time>2015-10-31T09:26:30Z</time>
      </trkpt>
      <trkpt lat="44.51059" lon="2.00634">
        <ele>347</ele>
        <time>2015-10-31T09:26:31Z</time>
      </trkpt>
      <trkpt lat="44.51059" lon="2.0063">
        <ele>347.2</ele>
        <time>2015-10-31T09:26:32Z</time>
      </trkpt>
      <trkpt lat="44.5106" lon="2.00623">
        <ele>347.4</ele>
        <time>2015-10-31T09:26:34Z</time>
      </trkpt>
      <trkpt lat="44.51059" lon="2.00616">
        <ele>347.7</ele>
        <time>2015-10-31T09:26:36Z</time>
      </trkpt>
      <trkpt lat="44.51058" lon="2.00609">
        <ele>347.9</ele>
        <time>2015-10-31T09:26:38Z</time>
      </trkpt>
      <trkpt lat="44.51058" lon="2.00602">
        <ele>348.1</ele>
        <time>2015-10-31T09:26:40Z</time>
      </trkpt>
      <trkpt lat="44.51057" lon="2.00595">
        <ele>348.4</ele>
        <time>2015-10-31T09:26:42Z</time>
      </trkpt>
      <trkpt lat="44.51056" lon="2.00591">
        <ele>348.5</ele>
        <time>2015-10-31T09:26:43Z</time>
      </trkpt>
      <trkpt lat="44.51055" lon="2.00586">
        <ele>348.7</ele>
        <time>2015-10-31T09:26:44Z</time>
      </trkpt>
      <trkpt lat="44.51055" lon="2.00582">
        <ele>348.8</ele>
        <time>2015-10-31T09:26:45Z</time>
      </trkpt>
      <trkpt lat="44.51055" lon="2.00577">
        <ele>348.9</ele>
        <time>2015-10-31T09:26:46Z</time>
      </trkpt>
      <trkpt lat="44.51055" lon="2.00573">
        <ele>349.1</ele>
        <time>2015-10-31T09:26:47Z</time>
      </trkpt>
      <trkpt lat="44.51055" lon="2.00569">
        <ele>349.2</ele>
        <time>2015-10-31T09:26:48Z</time>
      </trkpt>
      <trkpt lat="44.51055" lon="2.00564">
        <ele>349.3</ele>
        <time>2015-10-31T09:26:49Z</time>
      </trkpt>
      <trkpt lat="44.51055" lon="2.00559">
        <ele>349.5</ele>
        <time>2015-10-31T09:26:50Z</time>
      </trkpt>
      <trkpt lat="44.51055" lon="2.00554">
        <ele>349.6</ele>
        <time>2015-10-31T09:26:51Z</time>
      </trkpt>
      <trkpt lat="44.51054" lon="2.00549">
        <ele>349.8</ele>
        <time>2015-10-31T09:26:52Z</time>
      </trkpt>
      <trkpt lat="44.51054" lon="2.00545">
        <ele>349.9</ele>
        <time>2015-10-31T09:26:53Z</time>
      </trkpt>
      <trkpt lat="44.51054" lon="2.00541">
        <ele>350</ele>
        <time>2015-10-31T09:26:54Z</time>
      </trkpt>
      <trkpt lat="44.51054" lon="2.00536">
        <ele>350</ele>
        <time>2015-10-31T09:26:55Z</time>
      </trkpt>
      <trkpt lat="44.51054" lon="2.00531">
        <ele>349.9</ele>
        <time>2015-10-31T09:26:56Z</time>
      </trkpt>
      <trkpt lat="44.51054" lon="2.00526">
        <ele>349.9</ele>
        <time>2015-10-31T09:26:57Z</time>
      </trkpt>
      <trkpt lat="44.51054" lon="2.00521">
        <ele>349.8</ele>
        <time>2015-10-31T09:26:58Z</time>
      </trkpt>
      <trkpt lat="44.51054" lon="2.00516">
        <ele>349.8</ele>
        <time>2015-10-31T09:26:59Z</time>
      </trkpt>
      <trkpt lat="44.51055" lon="2.00511">
        <ele>349.7</ele>
        <time>2015-10-31T09:27:00Z</time>
      </trkpt>
      <trkpt lat="44.51055" lon="2.00505">
        <ele>349.7</ele>
        <time>2015-10-31T09:27:01Z</time>
      </trkpt>
      <trkpt lat="44.51055" lon="2.005">
        <ele>349.7</ele>
        <time>2015-10-31T09:27:02Z</time>
      </trkpt>
      <trkpt lat="44.51056" lon="2.00495">
        <ele>349.6</ele>
        <time>2015-10-31T09:27:03Z</time>
      </trkpt>
      <trkpt lat="44.51056" lon="2.00491">
        <ele>349.6</ele>
        <time>2015-10-31T09:27:04Z</time>
      </trkpt>
      <trkpt lat="44.51057" lon="2.00487">
        <ele>349.6</ele>
        <time>2015-10-31T09:27:05Z</time>
      </trkpt>
      <trkpt lat="44.51061" lon="2.00486">
        <ele>349.6</ele>
        <time>2015-10-31T09:27:07Z</time>
      </trkpt>
      <trkpt lat="44.51064" lon="2.00488">
        <ele>349.7</ele>
        <time>2015-10-31T09:27:09Z</time>
      </trkpt>
      <trkpt lat="44.51059" lon="2.00488">
        <ele>349.6</ele>
        <time>2015-10-31T09:27:21Z</time>
      </trkpt>
      <trkpt lat="44.51059" lon="2.00484">
        <ele>349.6</ele>
        <time>2015-10-31T09:27:24Z</time>
      </trkpt>
      <trkpt lat="44.51055" lon="2.00483">
        <ele>349.5</ele>
        <time>2015-10-31T09:27:27Z</time>
      </trkpt>
      <trkpt lat="44.51053" lon="2.00486">
        <ele>349.5</ele>
        <time>2015-10-31T09:27:29Z</time>
      </trkpt>
      <trkpt lat="44.51051" lon="2.00488">
        <ele>349.5</ele>
        <time>2015-10-31T09:27:31Z</time>
      </trkpt>
      <trkpt lat="44.51047" lon="2.00491">
        <ele>349.5</ele>
        <time>2015-10-31T09:27:34Z</time>
      </trkpt>
      <trkpt lat="44.51044" lon="2.00491">
        <ele>349.4</ele>
        <time>2015-10-31T09:27:37Z</time>
      </trkpt>
      <trkpt lat="44.51046" lon="2.00486">
        <ele>349.4</ele>
        <time>2015-10-31T09:28:22Z</time>
      </trkpt>
      <trkpt lat="44.51046" lon="2.00477">
        <ele>349.3</ele>
        <time>2015-10-31T09:31:12Z</time>
      </trkpt>
      <trkpt lat="44.51047" lon="2.00473">
        <ele>349.3</ele>
        <time>2015-10-31T09:31:16Z</time>
      </trkpt>
      <trkpt lat="44.51049" lon="2.00468">
        <ele>349.3</ele>
        <time>2015-10-31T09:31:19Z</time>
      </trkpt>
      <trkpt lat="44.5105" lon="2.00465">
        <ele>349.3</ele>
        <time>2015-10-31T09:31:21Z</time>
      </trkpt>
      <trkpt lat="44.51052" lon="2.00461">
        <ele>349.3</ele>
        <time>2015-10-31T09:31:23Z</time>
      </trkpt>
      <trkpt lat="44.51052" lon="2.00456">
        <ele>349.3</ele>
        <time>2015-10-31T09:31:25Z</time>
      </trkpt>
      <trkpt lat="44.51052" lon="2.00452">
        <ele>349.4</ele>
        <time>2015-10-31T09:31:27Z</time>
      </trkpt>
      <trkpt lat="44.51052" lon="2.00447">
        <ele>349.5</ele>
        <time>2015-10-31T09:31:29Z</time>
      </trkpt>
      <trkpt lat="44.5105" lon="2.00442">
        <ele>349.5</ele>
        <time>2015-10-31T09:31:30Z</time>
      </trkpt>
      <trkpt lat="44.5105" lon="2.00435">
        <ele>349.7</ele>
        <time>2015-10-31T09:31:32Z</time>
      </trkpt>
      <trkpt lat="44.51047" lon="2.00429">
        <ele>349.8</ele>
        <time>2015-10-31T09:31:34Z</time>
      </trkpt>
      <trkpt lat="44.51045" lon="2.00425">
        <ele>349.8</ele>
        <time>2015-10-31T09:31:36Z</time>
      </trkpt>
      <trkpt lat="44.51044" lon="2.00421">
        <ele>349.9</ele>
        <time>2015-10-31T09:31:37Z</time>
      </trkpt>
      <trkpt lat="44.51044" lon="2.00417">
        <ele>350</ele>
        <time>2015-10-31T09:31:38Z</time>
      </trkpt>
      <trkpt lat="44.51043" lon="2.00413">
        <ele>350.1</ele>
        <time>2015-10-31T09:31:39Z</time>
      </trkpt>
      <trkpt lat="44.51043" lon="2.00405">
        <ele>350.3</ele>
        <time>2015-10-31T09:31:41Z</time>
      </trkpt>
      <trkpt lat="44.51044" lon="2.00397">
        <ele>350.5</ele>
        <time>2015-10-31T09:31:43Z</time>
      </trkpt>
      <trkpt lat="44.51044" lon="2.00393">
        <ele>350.6</ele>
        <time>2015-10-31T09:31:44Z</time>
      </trkpt>
      <trkpt lat="44.51044" lon="2.00388">
        <ele>350.7</ele>
        <time>2015-10-31T09:31:45Z</time>
      </trkpt>
      <trkpt lat="44.51044" lon="2.00383">
        <ele>350.8</ele>
        <time>2015-10-31T09:31:46Z</time>
      </trkpt>
      <trkpt lat="44.51045" lon="2.00377">
        <ele>350.9</ele>
        <time>2015-10-31T09:31:47Z</time>
      </trkpt>
      <trkpt lat="44.51045" lon="2.00371">
        <ele>351.1</ele>
        <time>2015-10-31T09:31:48Z</time>
      </trkpt>
      <trkpt lat="44.51045" lon="2.00364">
        <ele>351.2</ele>
        <time>2015-10-31T09:31:49Z</time>
      </trkpt>
      <trkpt lat="44.51045" lon="2.00357">
        <ele>351.3</ele>
        <time>2015-10-31T09:31:50Z</time>
      </trkpt>
      <trkpt lat="44.51045" lon="2.00351">
        <ele>351.5</ele>
        <time>2015-10-31T09:31:51Z</time>
      </trkpt>
      <trkpt lat="44.51045" lon="2.00344">
        <ele>351.6</ele>
        <time>2015-10-31T09:31:52Z</time>
      </trkpt>
      <trkpt lat="44.51045" lon="2.00338">
        <ele>351.7</ele>
        <time>2015-10-31T09:31:53Z</time>
      </trkpt>
      <trkpt lat="44.51045" lon="2.00333">
        <ele>351.9</ele>
        <time>2015-10-31T09:31:54Z</time>
      </trkpt>
      <trkpt lat="44.51045" lon="2.00327">
        <ele>352</ele>
        <time>2015-10-31T09:31:55Z</time>
      </trkpt>
      <trkpt lat="44.51045" lon="2.00322">
        <ele>352.1</ele>
        <time>2015-10-31T09:31:56Z</time>
      </trkpt>
      <trkpt lat="44.51045" lon="2.00316">
        <ele>352.2</ele>
        <time>2015-10-31T09:31:57Z</time>
      </trkpt>
      <trkpt lat="44.51045" lon="2.00311">
        <ele>352.3</ele>
        <time>2015-10-31T09:31:58Z</time>
      </trkpt>
      <trkpt lat="44.51045" lon="2.00305">
        <ele>352.4</ele>
        <time>2015-10-31T09:31:59Z</time>
      </trkpt>
      <trkpt lat="44.51045" lon="2.00299">
        <ele>352.5</ele>
        <time>2015-10-31T09:32:00Z</time>
      </trkpt>
      <trkpt lat="44.51045" lon="2.00293">
        <ele>352.7</ele>
        <time>2015-10-31T09:32:01Z</time>
      </trkpt>
      <trkpt lat="44.51045" lon="2.00287">
        <ele>352.8</ele>
        <time>2015-10-31T09:32:02Z</time>
      </trkpt>
      <trkpt lat="44.51044" lon="2.00281">
        <ele>352.9</ele>
        <time>2015-10-31T09:32:03Z</time>
      </trkpt>
      <trkpt lat="44.51043" lon="2.00275">
        <ele>353.1</ele>
        <time>2015-10-31T09:32:04Z</time>
      </trkpt>
      <trkpt lat="44.51042" lon="2.0027">
        <ele>353.2</ele>
        <time>2015-10-31T09:32:05Z</time>
      </trkpt>
      <trkpt lat="44.51041" lon="2.00264">
        <ele>353.3</ele>
        <time>2015-10-31T09:32:06Z</time>
      </trkpt>
      <trkpt lat="44.5104" lon="2.00259">
        <ele>353.4</ele>
        <time>2015-10-31T09:32:07Z</time>
      </trkpt>
      <trkpt lat="44.51037" lon="2.00254">
        <ele>353.5</ele>
        <time>2015-10-31T09:32:08Z</time>
      </trkpt>
      <trkpt lat="44.51036" lon="2.00249">
        <ele>353.5</ele>
        <time>2015-10-31T09:32:09Z</time>
      </trkpt>
      <trkpt lat="44.51032" lon="2.00244">
        <ele>353.6</ele>
        <time>2015-10-31T09:32:10Z</time>
      </trkpt>
      <trkpt lat="44.51029" lon="2.0024">
        <ele>353.6</ele>
        <time>2015-10-31T09:32:11Z</time>
      </trkpt>
      <trkpt lat="44.51026" lon="2.00236">
        <ele>353.7</ele>
        <time>2015-10-31T09:32:12Z</time>
      </trkpt>
      <trkpt lat="44.51024" lon="2.00232">
        <ele>353.7</ele>
        <time>2015-10-31T09:32:13Z</time>
      </trkpt>
      <trkpt lat="44.51021" lon="2.00228">
        <ele>353.8</ele>
        <time>2015-10-31T09:32:14Z</time>
      </trkpt>
      <trkpt lat="44.51019" lon="2.00223">
        <ele>353.8</ele>
        <time>2015-10-31T09:32:15Z</time>
      </trkpt>
      <trkpt lat="44.51019" lon="2.00219">
        <ele>353.9</ele>
        <time>2015-10-31T09:32:16Z</time>
      </trkpt>
      <trkpt lat="44.51019" lon="2.00214">
        <ele>353.9</ele>
        <time>2015-10-31T09:32:17Z</time>
      </trkpt>
      <trkpt lat="44.51021" lon="2.0021">
        <ele>354</ele>
        <time>2015-10-31T09:32:18Z</time>
      </trkpt>
      <trkpt lat="44.51022" lon="2.00206">
        <ele>353.9</ele>
        <time>2015-10-31T09:32:19Z</time>
      </trkpt>
      <trkpt lat="44.51024" lon="2.00201">
        <ele>353.9</ele>
        <time>2015-10-31T09:32:20Z</time>
      </trkpt>
      <trkpt lat="44.51026" lon="2.00197">
        <ele>353.8</ele>
        <time>2015-10-31T09:32:21Z</time>
      </trkpt>
      <trkpt lat="44.51028" lon="2.00193">
        <ele>353.7</ele>
        <time>2015-10-31T09:32:22Z</time>
      </trkpt>
      <trkpt lat="44.5103" lon="2.00188">
        <ele>353.6</ele>
        <time>2015-10-31T09:32:23Z</time>
      </trkpt>
      <trkpt lat="44.51032" lon="2.00183">
        <ele>353.5</ele>
        <time>2015-10-31T09:32:24Z</time>
      </trkpt>
      <trkpt lat="44.51034" lon="2.00179">
        <ele>353.4</ele>
        <time>2015-10-31T09:32:25Z</time>
      </trkpt>
      <trkpt lat="44.51036" lon="2.00174">
        <ele>353.2</ele>
        <time>2015-10-31T09:32:26Z</time>
      </trkpt>
      <trkpt lat="44.51038" lon="2.00169">
        <ele>353.1</ele>
        <time>2015-10-31T09:32:27Z</time>
      </trkpt>
      <trkpt lat="44.5104" lon="2.00165">
        <ele>353</ele>
        <time>2015-10-31T09:32:28Z</time>
      </trkpt>
      <trkpt lat="44.51043" lon="2.00161">
        <ele>352.8</ele>
        <time>2015-10-31T09:32:29Z</time>
      </trkpt>
      <trkpt lat="44.51045" lon="2.00157">
        <ele>352.7</ele>
        <time>2015-10-31T09:32:30Z</time>
      </trkpt>
      <trkpt lat="44.51047" lon="2.00152">
        <ele>352.5</ele>
        <time>2015-10-31T09:32:31Z</time>
      </trkpt>
      <trkpt lat="44.5105" lon="2.00148">
        <ele>352.3</ele>
        <time>2015-10-31T09:32:32Z</time>
      </trkpt>
      <trkpt lat="44.51052" lon="2.00144">
        <ele>352.2</ele>
        <time>2015-10-31T09:32:33Z</time>
      </trkpt>
      <trkpt lat="44.51055" lon="2.00139">
        <ele>352.1</ele>
        <time>2015-10-31T09:32:34Z</time>
      </trkpt>
      <trkpt lat="44.51057" lon="2.00135">
        <ele>352</ele>
        <time>2015-10-31T09:32:35Z</time>
      </trkpt>
      <trkpt lat="44.5106" lon="2.0013">
        <ele>351.9</ele>
        <time>2015-10-31T09:32:36Z</time>
      </trkpt>
      <trkpt lat="44.51062" lon="2.00126">
        <ele>351.8</ele>
        <time>2015-10-31T09:32:37Z</time>
      </trkpt>
      <trkpt lat="44.51065" lon="2.00122">
        <ele>351.7</ele>
        <time>2015-10-31T09:32:38Z</time>
      </trkpt>
      <trkpt lat="44.5107" lon="2.00115">
        <ele>351.6</ele>
        <time>2015-10-31T09:32:39Z</time>
      </trkpt>
      <trkpt lat="44.51072" lon="2.0011">
        <ele>351.6</ele>
        <time>2015-10-31T09:32:40Z</time>
      </trkpt>
      <trkpt lat="44.51072" lon="2.00103">
        <ele>351.5</ele>
        <time>2015-10-31T09:32:41Z</time>
      </trkpt>
      <trkpt lat="44.51076" lon="2.00097">
        <ele>351.5</ele>
        <time>2015-10-31T09:32:42Z</time>
      </trkpt>
      <trkpt lat="44.5108" lon="2.00092">
        <ele>351.4</ele>
        <time>2015-10-31T09:32:43Z</time>
      </trkpt>
      <trkpt lat="44.51084" lon="2.00085">
        <ele>351.3</ele>
        <time>2015-10-31T09:32:44Z</time>
      </trkpt>
      <trkpt lat="44.51086" lon="2.00077">
        <ele>351.2</ele>
        <time>2015-10-31T09:32:45Z</time>
      </trkpt>
      <trkpt lat="44.51089" lon="2.0007">
        <ele>351.1</ele>
        <time>2015-10-31T09:32:46Z</time>
      </trkpt>
      <trkpt lat="44.51093" lon="2.00064">
        <ele>350.9</ele>
        <time>2015-10-31T09:32:47Z</time>
      </trkpt>
      <trkpt lat="44.51096" lon="2.00055">
        <ele>350.8</ele>
        <time>2015-10-31T09:32:48Z</time>
      </trkpt>
      <trkpt lat="44.511" lon="2.00048">
        <ele>350.7</ele>
        <time>2015-10-31T09:32:49Z</time>
      </trkpt>
      <trkpt lat="44.51102" lon="2.0004">
        <ele>350.5</ele>
        <time>2015-10-31T09:32:50Z</time>
      </trkpt>
      <trkpt lat="44.51104" lon="2.00029">
        <ele>350</ele>
        <time>2015-10-31T09:32:51Z</time>
      </trkpt>
      <trkpt lat="44.51106" lon="2.0002">
        <ele>349.6</ele>
        <time>2015-10-31T09:32:52Z</time>
      </trkpt>
      <trkpt lat="44.51106" lon="2.00011">
        <ele>349.2</ele>
        <time>2015-10-31T09:32:53Z</time>
      </trkpt>
      <trkpt lat="44.51108" lon="2">
        <ele>348.7</ele>
        <time>2015-10-31T09:32:54Z</time>
      </trkpt>
      <trkpt lat="44.5111" lon="1.9999">
        <ele>348.3</ele>
        <time>2015-10-31T09:32:55Z</time>
      </trkpt>
      <trkpt lat="44.5111" lon="1.99978">
        <ele>347.8</ele>
        <time>2015-10-31T09:32:56Z</time>
      </trkpt>
      <trkpt lat="44.51111" lon="1.99967">
        <ele>347.3</ele>
        <time>2015-10-31T09:32:57Z</time>
      </trkpt>
      <trkpt lat="44.51112" lon="1.99955">
        <ele>346.9</ele>
        <time>2015-10-31T09:32:58Z</time>
      </trkpt>
      <trkpt lat="44.51113" lon="1.99943">
        <ele>346.4</ele>
        <time>2015-10-31T09:32:59Z</time>
      </trkpt>
      <trkpt lat="44.51114" lon="1.9993">
        <ele>346</ele>
        <time>2015-10-31T09:33:00Z</time>
      </trkpt>
      <trkpt lat="44.51115" lon="1.99917">
        <ele>345.5</ele>
        <time>2015-10-31T09:33:01Z</time>
      </trkpt>
      <trkpt lat="44.51115" lon="1.99906">
        <ele>345.1</ele>
        <time>2015-10-31T09:33:02Z</time>
      </trkpt>
      <trkpt lat="44.51117" lon="1.99895">
        <ele>344.7</ele>
        <time>2015-10-31T09:33:03Z</time>
      </trkpt>
      <trkpt lat="44.51118" lon="1.99886">
        <ele>344.4</ele>
        <time>2015-10-31T09:33:04Z</time>
      </trkpt>
      <trkpt lat="44.51118" lon="1.99876">
        <ele>344</ele>
        <time>2015-10-31T09:33:05Z</time>
      </trkpt>
      <trkpt lat="44.51119" lon="1.99865">
        <ele>343.9</ele>
        <time>2015-10-31T09:33:06Z</time>
      </trkpt>
      <trkpt lat="44.5112" lon="1.99855">
        <ele>343.8</ele>
        <time>2015-10-31T09:33:07Z</time>
      </trkpt>
      <trkpt lat="44.5112" lon="1.99846">
        <ele>343.7</ele>
        <time>2015-10-31T09:33:08Z</time>
      </trkpt>
      <trkpt lat="44.51123" lon="1.99835">
        <ele>343.5</ele>
        <time>2015-10-31T09:33:09Z</time>
      </trkpt>
      <trkpt lat="44.51125" lon="1.99824">
        <ele>343.4</ele>
        <time>2015-10-31T09:33:10Z</time>
      </trkpt>
      <trkpt lat="44.51127" lon="1.99814">
        <ele>343.4</ele>
        <time>2015-10-31T09:33:11Z</time>
      </trkpt>
      <trkpt lat="44.51129" lon="1.99805">
        <ele>343.3</ele>
        <time>2015-10-31T09:33:12Z</time>
      </trkpt>
      <trkpt lat="44.51131" lon="1.99796">
        <ele>343.3</ele>
        <time>2015-10-31T09:33:13Z</time>
      </trkpt>
      <trkpt lat="44.51134" lon="1.99788">
        <ele>343.5</ele>
        <time>2015-10-31T09:33:14Z</time>
      </trkpt>
      <trkpt lat="44.51137" lon="1.99783">
        <ele>343.6</ele>
        <time>2015-10-31T09:33:15Z</time>
      </trkpt>
      <trkpt lat="44.51141" lon="1.99774">
        <ele>343.8</ele>
        <time>2015-10-31T09:33:16Z</time>
      </trkpt>
      <trkpt lat="44.51143" lon="1.99766">
        <ele>344</ele>
        <time>2015-10-31T09:33:17Z</time>
      </trkpt>
      <trkpt lat="44.51146" lon="1.99757">
        <ele>344.1</ele>
        <time>2015-10-31T09:33:18Z</time>
      </trkpt>
      <trkpt lat="44.51148" lon="1.99749">
        <ele>344.2</ele>
        <time>2015-10-31T09:33:19Z</time>
      </trkpt>
      <trkpt lat="44.51153" lon="1.99739">
        <ele>344.3</ele>
        <time>2015-10-31T09:33:20Z</time>
      </trkpt>
      <trkpt lat="44.51156" lon="1.9973">
        <ele>344.4</ele>
        <time>2015-10-31T09:33:21Z</time>
      </trkpt>
      <trkpt lat="44.51159" lon="1.99721">
        <ele>344.4</ele>
        <time>2015-10-31T09:33:22Z</time>
      </trkpt>
      <trkpt lat="44.51163" lon="1.99714">
        <ele>344.5</ele>
        <time>2015-10-31T09:33:23Z</time>
      </trkpt>
      <trkpt lat="44.51165" lon="1.99705">
        <ele>344.5</ele>
        <time>2015-10-31T09:33:24Z</time>
      </trkpt>
      <trkpt lat="44.51168" lon="1.99697">
        <ele>344.6</ele>
        <time>2015-10-31T09:33:25Z</time>
      </trkpt>
      <trkpt lat="44.51172" lon="1.99691">
        <ele>344.7</ele>
        <time>2015-10-31T09:33:26Z</time>
      </trkpt>
      <trkpt lat="44.51175" lon="1.99683">
        <ele>344.7</ele>
        <time>2015-10-31T09:33:27Z</time>
      </trkpt>
      <trkpt lat="44.5118" lon="1.99678">
        <ele>344.8</ele>
        <time>2015-10-31T09:33:28Z</time>
      </trkpt>
      <trkpt lat="44.51182" lon="1.99672">
        <ele>344.8</ele>
        <time>2015-10-31T09:33:29Z</time>
      </trkpt>
      <trkpt lat="44.51184" lon="1.99665">
        <ele>344.9</ele>
        <time>2015-10-31T09:33:30Z</time>
      </trkpt>
      <trkpt lat="44.51188" lon="1.9966">
        <ele>344.9</ele>
        <time>2015-10-31T09:33:31Z</time>
      </trkpt>
      <trkpt lat="44.51191" lon="1.99654">
        <ele>344.9</ele>
        <time>2015-10-31T09:33:32Z</time>
      </trkpt>
      <trkpt lat="44.51194" lon="1.99646">
        <ele>345</ele>
        <time>2015-10-31T09:33:33Z</time>
      </trkpt>
      <trkpt lat="44.51195" lon="1.9964">
        <ele>345</ele>
        <time>2015-10-31T09:33:34Z</time>
      </trkpt>
      <trkpt lat="44.51199" lon="1.99635">
        <ele>345</ele>
        <time>2015-10-31T09:33:35Z</time>
      </trkpt>
      <trkpt lat="44.51201" lon="1.99628">
        <ele>345</ele>
        <time>2015-10-31T09:33:36Z</time>
      </trkpt>
      <trkpt lat="44.51202" lon="1.99622">
        <ele>345</ele>
        <time>2015-10-31T09:33:37Z</time>
      </trkpt>
      <trkpt lat="44.51205" lon="1.99617">
        <ele>345.1</ele>
        <time>2015-10-31T09:33:38Z</time>
      </trkpt>
      <trkpt lat="44.51208" lon="1.99611">
        <ele>345.2</ele>
        <time>2015-10-31T09:33:39Z</time>
      </trkpt>
      <trkpt lat="44.51211" lon="1.99604">
        <ele>345.2</ele>
        <time>2015-10-31T09:33:40Z</time>
      </trkpt>
      <trkpt lat="44.51216" lon="1.99601">
        <ele>345.1</ele>
        <time>2015-10-31T09:33:41Z</time>
      </trkpt>
      <trkpt lat="44.51223" lon="1.99598">
        <ele>345</ele>
        <time>2015-10-31T09:33:42Z</time>
      </trkpt>
      <trkpt lat="44.51228" lon="1.99596">
        <ele>344.9</ele>
        <time>2015-10-31T09:33:43Z</time>
      </trkpt>
      <trkpt lat="44.51233" lon="1.99596">
        <ele>344.8</ele>
        <time>2015-10-31T09:33:44Z</time>
      </trkpt>
      <trkpt lat="44.51238" lon="1.99594">
        <ele>344.7</ele>
        <time>2015-10-31T09:33:45Z</time>
      </trkpt>
      <trkpt lat="44.51244" lon="1.99592">
        <ele>344.6</ele>
        <time>2015-10-31T09:33:46Z</time>
      </trkpt>
      <trkpt lat="44.51249" lon="1.99591">
        <ele>344.5</ele>
        <time>2015-10-31T09:33:47Z</time>
      </trkpt>
      <trkpt lat="44.51255" lon="1.9959">
        <ele>344.4</ele>
        <time>2015-10-31T09:33:48Z</time>
      </trkpt>
      <trkpt lat="44.51276" lon="1.99586">
        <ele>343.9</ele>
        <time>2015-10-31T09:33:52Z</time>
      </trkpt>
      <trkpt lat="44.5128" lon="1.99584">
        <ele>343.8</ele>
        <time>2015-10-31T09:33:53Z</time>
      </trkpt>
      <trkpt lat="44.51287" lon="1.99583">
        <ele>343.6</ele>
        <time>2015-10-31T09:33:54Z</time>
      </trkpt>
      <trkpt lat="44.51292" lon="1.99582">
        <ele>343.5</ele>
        <time>2015-10-31T09:33:55Z</time>
      </trkpt>
      <trkpt lat="44.51297" lon="1.99582">
        <ele>343.4</ele>
        <time>2015-10-31T09:33:56Z</time>
      </trkpt>
      <trkpt lat="44.51302" lon="1.9958">
        <ele>343.3</ele>
        <time>2015-10-31T09:33:57Z</time>
      </trkpt>
      <trkpt lat="44.51307" lon="1.99579">
        <ele>343.1</ele>
        <time>2015-10-31T09:33:58Z</time>
      </trkpt>
      <trkpt lat="44.51312" lon="1.9958">
        <ele>343.1</ele>
        <time>2015-10-31T09:33:59Z</time>
      </trkpt>
      <trkpt lat="44.51318" lon="1.99579">
        <ele>342.9</ele>
        <time>2015-10-31T09:34:00Z</time>
      </trkpt>
      <trkpt lat="44.51324" lon="1.99578">
        <ele>342.8</ele>
        <time>2015-10-31T09:34:01Z</time>
      </trkpt>
      <trkpt lat="44.51329" lon="1.99574">
        <ele>342.6</ele>
        <time>2015-10-31T09:34:02Z</time>
      </trkpt>
      <trkpt lat="44.51333" lon="1.9957">
        <ele>342.3</ele>
        <time>2015-10-31T09:34:03Z</time>
      </trkpt>
      <trkpt lat="44.51335" lon="1.99563">
        <ele>342.1</ele>
        <time>2015-10-31T09:34:04Z</time>
      </trkpt>
      <trkpt lat="44.51338" lon="1.99556">
        <ele>341.8</ele>
        <time>2015-10-31T09:34:05Z</time>
      </trkpt>
      <trkpt lat="44.51339" lon="1.99546">
        <ele>341.5</ele>
        <time>2015-10-31T09:34:06Z</time>
      </trkpt>
      <trkpt lat="44.51339" lon="1.99537">
        <ele>341.3</ele>
        <time>2015-10-31T09:34:07Z</time>
      </trkpt>
      <trkpt lat="44.5134" lon="1.99528">
        <ele>341.2</ele>
        <time>2015-10-31T09:34:08Z</time>
      </trkpt>
      <trkpt lat="44.5134" lon="1.99519">
        <ele>341.1</ele>
        <time>2015-10-31T09:34:09Z</time>
      </trkpt>
      <trkpt lat="44.5134" lon="1.99509">
        <ele>341</ele>
        <time>2015-10-31T09:34:10Z</time>
      </trkpt>
      <trkpt lat="44.51341" lon="1.995">
        <ele>340.9</ele>
        <time>2015-10-31T09:34:11Z</time>
      </trkpt>
      <trkpt lat="44.51341" lon="1.9949">
        <ele>340.9</ele>
        <time>2015-10-31T09:34:12Z</time>
      </trkpt>
      <trkpt lat="44.51342" lon="1.99481">
        <ele>340.8</ele>
        <time>2015-10-31T09:34:13Z</time>
      </trkpt>
      <trkpt lat="44.51343" lon="1.99471">
        <ele>340.6</ele>
        <time>2015-10-31T09:34:14Z</time>
      </trkpt>
      <trkpt lat="44.51343" lon="1.99463">
        <ele>340.5</ele>
        <time>2015-10-31T09:34:15Z</time>
      </trkpt>
      <trkpt lat="44.51344" lon="1.99453">
        <ele>340.3</ele>
        <time>2015-10-31T09:34:16Z</time>
      </trkpt>
      <trkpt lat="44.51345" lon="1.99444">
        <ele>340</ele>
        <time>2015-10-31T09:34:17Z</time>
      </trkpt>
      <trkpt lat="44.51345" lon="1.99434">
        <ele>339.7</ele>
        <time>2015-10-31T09:34:18Z</time>
      </trkpt>
      <trkpt lat="44.51346" lon="1.99425">
        <ele>339.3</ele>
        <time>2015-10-31T09:34:19Z</time>
      </trkpt>
      <trkpt lat="44.51347" lon="1.99415">
        <ele>339</ele>
        <time>2015-10-31T09:34:20Z</time>
      </trkpt>
      <trkpt lat="44.51347" lon="1.99403">
        <ele>338.6</ele>
        <time>2015-10-31T09:34:21Z</time>
      </trkpt>
      <trkpt lat="44.51347" lon="1.99392">
        <ele>338.2</ele>
        <time>2015-10-31T09:34:22Z</time>
      </trkpt>
      <trkpt lat="44.51348" lon="1.9938">
        <ele>337.8</ele>
        <time>2015-10-31T09:34:23Z</time>
      </trkpt>
      <trkpt lat="44.51349" lon="1.99368">
        <ele>337.7</ele>
        <time>2015-10-31T09:34:24Z</time>
      </trkpt>
      <trkpt lat="44.5135" lon="1.99356">
        <ele>337.7</ele>
        <time>2015-10-31T09:34:25Z</time>
      </trkpt>
      <trkpt lat="44.5135" lon="1.99344">
        <ele>337.9</ele>
        <time>2015-10-31T09:34:26Z</time>
      </trkpt>
      <trkpt lat="44.5135" lon="1.99332">
        <ele>338</ele>
        <time>2015-10-31T09:34:27Z</time>
      </trkpt>
      <trkpt lat="44.51351" lon="1.9932">
        <ele>338.1</ele>
        <time>2015-10-31T09:34:28Z</time>
      </trkpt>
      <trkpt lat="44.5135" lon="1.99308">
        <ele>338.3</ele>
        <time>2015-10-31T09:34:29Z</time>
      </trkpt>
      <trkpt lat="44.51349" lon="1.99297">
        <ele>338.5</ele>
        <time>2015-10-31T09:34:30Z</time>
      </trkpt>
      <trkpt lat="44.5135" lon="1.99285">
        <ele>338.6</ele>
        <time>2015-10-31T09:34:31Z</time>
      </trkpt>
      <trkpt lat="44.51349" lon="1.99273">
        <ele>338.8</ele>
        <time>2015-10-31T09:34:32Z</time>
      </trkpt>
      <trkpt lat="44.5135" lon="1.9926">
        <ele>339</ele>
        <time>2015-10-31T09:34:33Z</time>
      </trkpt>
      <trkpt lat="44.51349" lon="1.9925">
        <ele>339.2</ele>
        <time>2015-10-31T09:34:34Z</time>
      </trkpt>
      <trkpt lat="44.51349" lon="1.99239">
        <ele>339.4</ele>
        <time>2015-10-31T09:34:35Z</time>
      </trkpt>
      <trkpt lat="44.51348" lon="1.99227">
        <ele>339.7</ele>
        <time>2015-10-31T09:34:36Z</time>
      </trkpt>
      <trkpt lat="44.51347" lon="1.99216">
        <ele>339.9</ele>
        <time>2015-10-31T09:34:37Z</time>
      </trkpt>
      <trkpt lat="44.51347" lon="1.99206">
        <ele>340</ele>
        <time>2015-10-31T09:34:38Z</time>
      </trkpt>
      <trkpt lat="44.51347" lon="1.99196">
        <ele>340</ele>
        <time>2015-10-31T09:34:39Z</time>
      </trkpt>
      <trkpt lat="44.51347" lon="1.99185">
        <ele>340</ele>
        <time>2015-10-31T09:34:40Z</time>
      </trkpt>
      <trkpt lat="44.51348" lon="1.99178">
        <ele>339.9</ele>
        <time>2015-10-31T09:34:41Z</time>
      </trkpt>
      <trkpt lat="44.51348" lon="1.99167">
        <ele>339.9</ele>
        <time>2015-10-31T09:34:42Z</time>
      </trkpt>
      <trkpt lat="44.5135" lon="1.99156">
        <ele>339.7</ele>
        <time>2015-10-31T09:34:43Z</time>
      </trkpt>
      <trkpt lat="44.51351" lon="1.99146">
        <ele>339.6</ele>
        <time>2015-10-31T09:34:44Z</time>
      </trkpt>
      <trkpt lat="44.51353" lon="1.99136">
        <ele>339.4</ele>
        <time>2015-10-31T09:34:45Z</time>
      </trkpt>
      <trkpt lat="44.51354" lon="1.99127">
        <ele>339.3</ele>
        <time>2015-10-31T09:34:46Z</time>
      </trkpt>
      <trkpt lat="44.51356" lon="1.99118">
        <ele>339.1</ele>
        <time>2015-10-31T09:34:47Z</time>
      </trkpt>
      <trkpt lat="44.51357" lon="1.99108">
        <ele>339</ele>
        <time>2015-10-31T09:34:48Z</time>
      </trkpt>
      <trkpt lat="44.51358" lon="1.99097">
        <ele>339</ele>
        <time>2015-10-31T09:34:49Z</time>
      </trkpt>
      <trkpt lat="44.51359" lon="1.99086">
        <ele>338.9</ele>
        <time>2015-10-31T09:34:50Z</time>
      </trkpt>
      <trkpt lat="44.5136" lon="1.99076">
        <ele>338.9</ele>
        <time>2015-10-31T09:34:51Z</time>
      </trkpt>
      <trkpt lat="44.51362" lon="1.99067">
        <ele>338.8</ele>
        <time>2015-10-31T09:34:52Z</time>
      </trkpt>
      <trkpt lat="44.51363" lon="1.99056">
        <ele>338.8</ele>
        <time>2015-10-31T09:34:53Z</time>
      </trkpt>
      <trkpt lat="44.51364" lon="1.99046">
        <ele>338.8</ele>
        <time>2015-10-31T09:34:54Z</time>
      </trkpt>
      <trkpt lat="44.51364" lon="1.99036">
        <ele>338.3</ele>
        <time>2015-10-31T09:34:55Z</time>
      </trkpt>
      <trkpt lat="44.51365" lon="1.99025">
        <ele>337.4</ele>
        <time>2015-10-31T09:34:56Z</time>
      </trkpt>
      <trkpt lat="44.51367" lon="1.99013">
        <ele>336.3</ele>
        <time>2015-10-31T09:34:57Z</time>
      </trkpt>
      <trkpt lat="44.51368" lon="1.99002">
        <ele>335.2</ele>
        <time>2015-10-31T09:34:58Z</time>
      </trkpt>
      <trkpt lat="44.51369" lon="1.98989">
        <ele>334.1</ele>
        <time>2015-10-31T09:34:59Z</time>
      </trkpt>
      <trkpt lat="44.51371" lon="1.98976">
        <ele>332.9</ele>
        <time>2015-10-31T09:35:00Z</time>
      </trkpt>
      <trkpt lat="44.51373" lon="1.98963">
        <ele>331.6</ele>
        <time>2015-10-31T09:35:01Z</time>
      </trkpt>
      <trkpt lat="44.51374" lon="1.98949">
        <ele>330.8</ele>
        <time>2015-10-31T09:35:02Z</time>
      </trkpt>
      <trkpt lat="44.51377" lon="1.98936">
        <ele>330.5</ele>
        <time>2015-10-31T09:35:03Z</time>
      </trkpt>
      <trkpt lat="44.51381" lon="1.98922">
        <ele>330.1</ele>
        <time>2015-10-31T09:35:04Z</time>
      </trkpt>
      <trkpt lat="44.51384" lon="1.98907">
        <ele>329.7</ele>
        <time>2015-10-31T09:35:05Z</time>
      </trkpt>
      <trkpt lat="44.51389" lon="1.98894">
        <ele>329.4</ele>
        <time>2015-10-31T09:35:06Z</time>
      </trkpt>
      <trkpt lat="44.51392" lon="1.9888">
        <ele>328.9</ele>
        <time>2015-10-31T09:35:07Z</time>
      </trkpt>
      <trkpt lat="44.51398" lon="1.98866">
        <ele>329.4</ele>
        <time>2015-10-31T09:35:08Z</time>
      </trkpt>
      <trkpt lat="44.51403" lon="1.98852">
        <ele>330.3</ele>
        <time>2015-10-31T09:35:09Z</time>
      </trkpt>
      <trkpt lat="44.51408" lon="1.98839">
        <ele>331.1</ele>
        <time>2015-10-31T09:35:10Z</time>
      </trkpt>
      <trkpt lat="44.51415" lon="1.98833">
        <ele>331.3</ele>
        <time>2015-10-31T09:35:11Z</time>
      </trkpt>
      <trkpt lat="44.51421" lon="1.98823">
        <ele>331.8</ele>
        <time>2015-10-31T09:35:12Z</time>
      </trkpt>
      <trkpt lat="44.51429" lon="1.98814">
        <ele>332.1</ele>
        <time>2015-10-31T09:35:13Z</time>
      </trkpt>
      <trkpt lat="44.51433" lon="1.98807">
        <ele>332.3</ele>
        <time>2015-10-31T09:35:14Z</time>
      </trkpt>
      <trkpt lat="44.51438" lon="1.988">
        <ele>332.5</ele>
        <time>2015-10-31T09:35:15Z</time>
      </trkpt>
      <trkpt lat="44.51445" lon="1.98793">
        <ele>332.5</ele>
        <time>2015-10-31T09:35:16Z</time>
      </trkpt>
      <trkpt lat="44.51452" lon="1.98789">
        <ele>332.5</ele>
        <time>2015-10-31T09:35:17Z</time>
      </trkpt>
      <trkpt lat="44.51458" lon="1.98789">
        <ele>332.2</ele>
        <time>2015-10-31T09:35:19Z</time>
      </trkpt>
      <trkpt lat="44.51462" lon="1.98789">
        <ele>332.1</ele>
        <time>2015-10-31T09:35:20Z</time>
      </trkpt>
      <trkpt lat="44.51468" lon="1.98791">
        <ele>331.8</ele>
        <time>2015-10-31T09:35:21Z</time>
      </trkpt>
      <trkpt lat="44.51473" lon="1.98794">
        <ele>331.5</ele>
        <time>2015-10-31T09:35:22Z</time>
      </trkpt>
      <trkpt lat="44.51478" lon="1.98801">
        <ele>331</ele>
        <time>2015-10-31T09:35:23Z</time>
      </trkpt>
      <trkpt lat="44.51482" lon="1.98808">
        <ele>330.5</ele>
        <time>2015-10-31T09:35:24Z</time>
      </trkpt>
      <trkpt lat="44.51482" lon="1.98815">
        <ele>330.1</ele>
        <time>2015-10-31T09:35:25Z</time>
      </trkpt>
      <trkpt lat="44.51482" lon="1.98822">
        <ele>329.7</ele>
        <time>2015-10-31T09:35:26Z</time>
      </trkpt>
      <trkpt lat="44.51482" lon="1.98828">
        <ele>329.3</ele>
        <time>2015-10-31T09:35:27Z</time>
      </trkpt>
      <trkpt lat="44.51481" lon="1.98836">
        <ele>328.9</ele>
        <time>2015-10-31T09:35:28Z</time>
      </trkpt>
      <trkpt lat="44.51484" lon="1.98839">
        <ele>328.6</ele>
        <time>2015-10-31T09:35:29Z</time>
      </trkpt>
      <trkpt lat="44.51485" lon="1.98844">
        <ele>328.3</ele>
        <time>2015-10-31T09:35:30Z</time>
      </trkpt>
      <trkpt lat="44.51489" lon="1.98847">
        <ele>327.9</ele>
        <time>2015-10-31T09:35:32Z</time>
      </trkpt>
      <trkpt lat="44.51492" lon="1.98852">
        <ele>327.4</ele>
        <time>2015-10-31T09:35:34Z</time>
      </trkpt>
      <trkpt lat="44.51494" lon="1.98857">
        <ele>327</ele>
        <time>2015-10-31T09:35:35Z</time>
      </trkpt>
      <trkpt lat="44.51498" lon="1.98862">
        <ele>326.5</ele>
        <time>2015-10-31T09:35:37Z</time>
      </trkpt>
      <trkpt lat="44.51503" lon="1.98871">
        <ele>325.7</ele>
        <time>2015-10-31T09:35:38Z</time>
      </trkpt>
      <trkpt lat="44.51505" lon="1.98875">
        <ele>325.3</ele>
        <time>2015-10-31T09:35:39Z</time>
      </trkpt>
      <trkpt lat="44.51506" lon="1.98879">
        <ele>325.2</ele>
        <time>2015-10-31T09:35:40Z</time>
      </trkpt>
      <trkpt lat="44.51507" lon="1.98888">
        <ele>325.3</ele>
        <time>2015-10-31T09:35:41Z</time>
      </trkpt>
      <trkpt lat="44.51508" lon="1.98894">
        <ele>325.4</ele>
        <time>2015-10-31T09:35:42Z</time>
      </trkpt>
      <trkpt lat="44.51509" lon="1.98903">
        <ele>325.5</ele>
        <time>2015-10-31T09:35:43Z</time>
      </trkpt>
      <trkpt lat="44.51507" lon="1.98912">
        <ele>325.8</ele>
        <time>2015-10-31T09:35:44Z</time>
      </trkpt>
      <trkpt lat="44.51508" lon="1.9892">
        <ele>325.9</ele>
        <time>2015-10-31T09:35:45Z</time>
      </trkpt>
      <trkpt lat="44.51507" lon="1.98927">
        <ele>326.1</ele>
        <time>2015-10-31T09:35:46Z</time>
      </trkpt>
      <trkpt lat="44.51507" lon="1.98936">
        <ele>326.3</ele>
        <time>2015-10-31T09:35:47Z</time>
      </trkpt>
      <trkpt lat="44.5151" lon="1.98945">
        <ele>326.1</ele>
        <time>2015-10-31T09:35:48Z</time>
      </trkpt>
      <trkpt lat="44.51512" lon="1.98955">
        <ele>326.2</ele>
        <time>2015-10-31T09:35:49Z</time>
      </trkpt>
      <trkpt lat="44.51513" lon="1.98965">
        <ele>326.5</ele>
        <time>2015-10-31T09:35:50Z</time>
      </trkpt>
      <trkpt lat="44.51511" lon="1.98974">
        <ele>327.3</ele>
        <time>2015-10-31T09:35:51Z</time>
      </trkpt>
      <trkpt lat="44.51513" lon="1.98982">
        <ele>327.6</ele>
        <time>2015-10-31T09:35:52Z</time>
      </trkpt>
      <trkpt lat="44.5151" lon="1.98989">
        <ele>328.3</ele>
        <time>2015-10-31T09:35:53Z</time>
      </trkpt>
      <trkpt lat="44.51513" lon="1.98995">
        <ele>328.5</ele>
        <time>2015-10-31T09:35:54Z</time>
      </trkpt>
      <trkpt lat="44.51517" lon="1.99004">
        <ele>328.5</ele>
        <time>2015-10-31T09:35:55Z</time>
      </trkpt>
      <trkpt lat="44.51524" lon="1.9901">
        <ele>328.2</ele>
        <time>2015-10-31T09:35:56Z</time>
      </trkpt>
      <trkpt lat="44.5153" lon="1.99017">
        <ele>327.9</ele>
        <time>2015-10-31T09:35:57Z</time>
      </trkpt>
      <trkpt lat="44.51536" lon="1.99024">
        <ele>327.6</ele>
        <time>2015-10-31T09:35:58Z</time>
      </trkpt>
      <trkpt lat="44.51544" lon="1.99026">
        <ele>326.3</ele>
        <time>2015-10-31T09:35:59Z</time>
      </trkpt>
      <trkpt lat="44.51553" lon="1.99027">
        <ele>324.2</ele>
        <time>2015-10-31T09:36:00Z</time>
      </trkpt>
      <trkpt lat="44.51564" lon="1.99029">
        <ele>321.6</ele>
        <time>2015-10-31T09:36:01Z</time>
      </trkpt>
      <trkpt lat="44.51572" lon="1.9903">
        <ele>319.4</ele>
        <time>2015-10-31T09:36:02Z</time>
      </trkpt>
      <trkpt lat="44.51582" lon="1.99029">
        <ele>316.9</ele>
        <time>2015-10-31T09:36:03Z</time>
      </trkpt>
      <trkpt lat="44.51592" lon="1.99026">
        <ele>314</ele>
        <time>2015-10-31T09:36:04Z</time>
      </trkpt>
      <trkpt lat="44.51601" lon="1.99023">
        <ele>311.2</ele>
        <time>2015-10-31T09:36:05Z</time>
      </trkpt>
      <trkpt lat="44.5161" lon="1.99019">
        <ele>308.2</ele>
        <time>2015-10-31T09:36:06Z</time>
      </trkpt>
      <trkpt lat="44.51618" lon="1.99014">
        <ele>305.2</ele>
        <time>2015-10-31T09:36:07Z</time>
      </trkpt>
      <trkpt lat="44.51627" lon="1.99008">
        <ele>302.3</ele>
        <time>2015-10-31T09:36:08Z</time>
      </trkpt>
      <trkpt lat="44.51636" lon="1.99001">
        <ele>301</ele>
        <time>2015-10-31T09:36:09Z</time>
      </trkpt>
      <trkpt lat="44.51643" lon="1.98996">
        <ele>300</ele>
        <time>2015-10-31T09:36:10Z</time>
      </trkpt>
      <trkpt lat="44.51651" lon="1.9899">
        <ele>298.9</ele>
        <time>2015-10-31T09:36:11Z</time>
      </trkpt>
      <trkpt lat="44.51662" lon="1.98985">
        <ele>297.9</ele>
        <time>2015-10-31T09:36:12Z</time>
      </trkpt>
      <trkpt lat="44.51673" lon="1.9898">
        <ele>296.8</ele>
        <time>2015-10-31T09:36:13Z</time>
      </trkpt>
      <trkpt lat="44.51679" lon="1.98978">
        <ele>296.5</ele>
        <time>2015-10-31T09:36:14Z</time>
      </trkpt>
      <trkpt lat="44.51686" lon="1.98975">
        <ele>295.9</ele>
        <time>2015-10-31T09:36:15Z</time>
      </trkpt>
      <trkpt lat="44.51694" lon="1.98978">
        <ele>296.2</ele>
        <time>2015-10-31T09:36:16Z</time>
      </trkpt>
      <trkpt lat="44.51701" lon="1.98974">
        <ele>295.6</ele>
        <time>2015-10-31T09:36:17Z</time>
      </trkpt>
      <trkpt lat="44.5171" lon="1.98972">
        <ele>295</ele>
        <time>2015-10-31T09:36:18Z</time>
      </trkpt>
      <trkpt lat="44.51717" lon="1.98969">
        <ele>294.1</ele>
        <time>2015-10-31T09:36:19Z</time>
      </trkpt>
      <trkpt lat="44.51724" lon="1.98964">
        <ele>292.9</ele>
        <time>2015-10-31T09:36:20Z</time>
      </trkpt>
      <trkpt lat="44.5173" lon="1.98957">
        <ele>291.5</ele>
        <time>2015-10-31T09:36:21Z</time>
      </trkpt>
      <trkpt lat="44.51737" lon="1.98947">
        <ele>289.1</ele>
        <time>2015-10-31T09:36:22Z</time>
      </trkpt>
      <trkpt lat="44.51741" lon="1.98934">
        <ele>286.2</ele>
        <time>2015-10-31T09:36:23Z</time>
      </trkpt>
      <trkpt lat="44.51743" lon="1.98921">
        <ele>283.7</ele>
        <time>2015-10-31T09:36:24Z</time>
      </trkpt>
      <trkpt lat="44.51744" lon="1.9891">
        <ele>281.4</ele>
        <time>2015-10-31T09:36:25Z</time>
      </trkpt>
      <trkpt lat="44.51742" lon="1.989">
        <ele>279.4</ele>
        <time>2015-10-31T09:36:26Z</time>
      </trkpt>
      <trkpt lat="44.51739" lon="1.98891">
        <ele>277.7</ele>
        <time>2015-10-31T09:36:27Z</time>
      </trkpt>
      <trkpt lat="44.51734" lon="1.98885">
        <ele>276.6</ele>
        <time>2015-10-31T09:36:28Z</time>
      </trkpt>
      <trkpt lat="44.51725" lon="1.9888">
        <ele>275.7</ele>
        <time>2015-10-31T09:36:29Z</time>
      </trkpt>
      <trkpt lat="44.51717" lon="1.98878">
        <ele>275.4</ele>
        <time>2015-10-31T09:36:30Z</time>
      </trkpt>
      <trkpt lat="44.51708" lon="1.98877">
        <ele>275.4</ele>
        <time>2015-10-31T09:36:31Z</time>
      </trkpt>
      <trkpt lat="44.51698" lon="1.98878">
        <ele>277.7</ele>
        <time>2015-10-31T09:36:32Z</time>
      </trkpt>
      <trkpt lat="44.5169" lon="1.98879">
        <ele>279.4</ele>
        <time>2015-10-31T09:36:33Z</time>
      </trkpt>
      <trkpt lat="44.51683" lon="1.9888">
        <ele>281</ele>
        <time>2015-10-31T09:36:34Z</time>
      </trkpt>
      <trkpt lat="44.51677" lon="1.98881">
        <ele>282.3</ele>
        <time>2015-10-31T09:36:35Z</time>
      </trkpt>
      <trkpt lat="44.5167" lon="1.98881">
        <ele>283.7</ele>
        <time>2015-10-31T09:36:36Z</time>
      </trkpt>
      <trkpt lat="44.51663" lon="1.98881">
        <ele>284.9</ele>
        <time>2015-10-31T09:36:37Z</time>
      </trkpt>
      <trkpt lat="44.51657" lon="1.98881">
        <ele>286.1</ele>
        <time>2015-10-31T09:36:38Z</time>
      </trkpt>
      <trkpt lat="44.51653" lon="1.98881">
        <ele>286.8</ele>
        <time>2015-10-31T09:36:39Z</time>
      </trkpt>
      <trkpt lat="44.5165" lon="1.9888">
        <ele>287.3</ele>
        <time>2015-10-31T09:36:40Z</time>
      </trkpt>
      <trkpt lat="44.51645" lon="1.98882">
        <ele>288.3</ele>
        <time>2015-10-31T09:37:47Z</time>
      </trkpt>
      <trkpt lat="44.51638" lon="1.98886">
        <ele>290</ele>
        <time>2015-10-31T09:37:49Z</time>
      </trkpt>
      <trkpt lat="44.51633" lon="1.98888">
        <ele>290.9</ele>
        <time>2015-10-31T09:37:50Z</time>
      </trkpt>
      <trkpt lat="44.51629" lon="1.98891">
        <ele>291.7</ele>
        <time>2015-10-31T09:37:51Z</time>
      </trkpt>
      <trkpt lat="44.51625" lon="1.98894">
        <ele>292.4</ele>
        <time>2015-10-31T09:37:52Z</time>
      </trkpt>
      <trkpt lat="44.51621" lon="1.98897">
        <ele>293.9</ele>
        <time>2015-10-31T09:37:53Z</time>
      </trkpt>
      <trkpt lat="44.51617" lon="1.989">
        <ele>295.4</ele>
        <time>2015-10-31T09:37:54Z</time>
      </trkpt>
      <trkpt lat="44.51613" lon="1.98904">
        <ele>297</ele>
        <time>2015-10-31T09:37:55Z</time>
      </trkpt>
      <trkpt lat="44.51607" lon="1.98909">
        <ele>299.4</ele>
        <time>2015-10-31T09:37:56Z</time>
      </trkpt>
      <trkpt lat="44.51603" lon="1.98913">
        <ele>300.8</ele>
        <time>2015-10-31T09:37:57Z</time>
      </trkpt>
      <trkpt lat="44.516" lon="1.98915">
        <ele>301.8</ele>
        <time>2015-10-31T09:37:58Z</time>
      </trkpt>
      <trkpt lat="44.51597" lon="1.98916">
        <ele>303</ele>
        <time>2015-10-31T09:37:59Z</time>
      </trkpt>
      <trkpt lat="44.51593" lon="1.98917">
        <ele>304.5</ele>
        <time>2015-10-31T09:38:00Z</time>
      </trkpt>
      <trkpt lat="44.51588" lon="1.98916">
        <ele>306.2</ele>
        <time>2015-10-31T09:38:01Z</time>
      </trkpt>
      <trkpt lat="44.51585" lon="1.98917">
        <ele>307.4</ele>
        <time>2015-10-31T09:38:02Z</time>
      </trkpt>
      <trkpt lat="44.51583" lon="1.98911">
        <ele>307.9</ele>
        <time>2015-10-31T09:38:03Z</time>
      </trkpt>
      <trkpt lat="44.5158" lon="1.98903">
        <ele>309.2</ele>
        <time>2015-10-31T09:38:05Z</time>
      </trkpt>
      <trkpt lat="44.51579" lon="1.98897">
        <ele>309.5</ele>
        <time>2015-10-31T09:38:06Z</time>
      </trkpt>
      <trkpt lat="44.51577" lon="1.98891">
        <ele>309.9</ele>
        <time>2015-10-31T09:38:07Z</time>
      </trkpt>
      <trkpt lat="44.51575" lon="1.98881">
        <ele>310.8</ele>
        <time>2015-10-31T09:38:08Z</time>
      </trkpt>
      <trkpt lat="44.51578" lon="1.98875">
        <ele>309.6</ele>
        <time>2015-10-31T09:38:09Z</time>
      </trkpt>
      <trkpt lat="44.51577" lon="1.98869">
        <ele>310.6</ele>
        <time>2015-10-31T09:38:10Z</time>
      </trkpt>
      <trkpt lat="44.51581" lon="1.98862">
        <ele>310.4</ele>
        <time>2015-10-31T09:38:11Z</time>
      </trkpt>
      <trkpt lat="44.51585" lon="1.98854">
        <ele>310.3</ele>
        <time>2015-10-31T09:38:12Z</time>
      </trkpt>
      <trkpt lat="44.51589" lon="1.98846">
        <ele>310.1</ele>
        <time>2015-10-31T09:38:13Z</time>
      </trkpt>
      <trkpt lat="44.51595" lon="1.9884">
        <ele>309.3</ele>
        <time>2015-10-31T09:38:14Z</time>
      </trkpt>
      <trkpt lat="44.51599" lon="1.98835">
        <ele>309.1</ele>
        <time>2015-10-31T09:38:15Z</time>
      </trkpt>
      <trkpt lat="44.516" lon="1.9883">
        <ele>309.7</ele>
        <time>2015-10-31T09:38:16Z</time>
      </trkpt>
      <trkpt lat="44.51607" lon="1.98825">
        <ele>308.6</ele>
        <time>2015-10-31T09:38:17Z</time>
      </trkpt>
      <trkpt lat="44.51614" lon="1.98822">
        <ele>307</ele>
        <time>2015-10-31T09:38:18Z</time>
      </trkpt>
      <trkpt lat="44.51621" lon="1.98817">
        <ele>306.3</ele>
        <time>2015-10-31T09:38:19Z</time>
      </trkpt>
      <trkpt lat="44.51625" lon="1.98812">
        <ele>306.2</ele>
        <time>2015-10-31T09:38:20Z</time>
      </trkpt>
      <trkpt lat="44.5163" lon="1.98806">
        <ele>306.2</ele>
        <time>2015-10-31T09:38:21Z</time>
      </trkpt>
      <trkpt lat="44.5164" lon="1.98807">
        <ele>302.7</ele>
        <time>2015-10-31T09:38:22Z</time>
      </trkpt>
      <trkpt lat="44.51646" lon="1.98804">
        <ele>301.2</ele>
        <time>2015-10-31T09:38:23Z</time>
      </trkpt>
      <trkpt lat="44.51651" lon="1.988">
        <ele>300.1</ele>
        <time>2015-10-31T09:38:24Z</time>
      </trkpt>
      <trkpt lat="44.51656" lon="1.98795">
        <ele>299.5</ele>
        <time>2015-10-31T09:38:25Z</time>
      </trkpt>
      <trkpt lat="44.51661" lon="1.98792">
        <ele>298</ele>
        <time>2015-10-31T09:38:26Z</time>
      </trkpt>
      <trkpt lat="44.51669" lon="1.98788">
        <ele>296.2</ele>
        <time>2015-10-31T09:38:27Z</time>
      </trkpt>
      <trkpt lat="44.51675" lon="1.98783">
        <ele>295.8</ele>
        <time>2015-10-31T09:38:28Z</time>
      </trkpt>
      <trkpt lat="44.51681" lon="1.98778">
        <ele>295.3</ele>
        <time>2015-10-31T09:38:29Z</time>
      </trkpt>
      <trkpt lat="44.51688" lon="1.98775">
        <ele>293.8</ele>
        <time>2015-10-31T09:38:30Z</time>
      </trkpt>
      <trkpt lat="44.51692" lon="1.98772">
        <ele>293.9</ele>
        <time>2015-10-31T09:38:31Z</time>
      </trkpt>
      <trkpt lat="44.51697" lon="1.98768">
        <ele>293.2</ele>
        <time>2015-10-31T09:38:32Z</time>
      </trkpt>
      <trkpt lat="44.51703" lon="1.98766">
        <ele>292.2</ele>
        <time>2015-10-31T09:38:33Z</time>
      </trkpt>
      <trkpt lat="44.51709" lon="1.98761">
        <ele>292.2</ele>
        <time>2015-10-31T09:38:34Z</time>
      </trkpt>
      <trkpt lat="44.51715" lon="1.98756">
        <ele>292.7</ele>
        <time>2015-10-31T09:38:35Z</time>
      </trkpt>
      <trkpt lat="44.5172" lon="1.98749">
        <ele>293.6</ele>
        <time>2015-10-31T09:38:36Z</time>
      </trkpt>
      <trkpt lat="44.51726" lon="1.98743">
        <ele>294.1</ele>
        <time>2015-10-31T09:38:37Z</time>
      </trkpt>
      <trkpt lat="44.51732" lon="1.98737">
        <ele>294.6</ele>
        <time>2015-10-31T09:38:38Z</time>
      </trkpt>
      <trkpt lat="44.51738" lon="1.9873">
        <ele>295.1</ele>
        <time>2015-10-31T09:38:39Z</time>
      </trkpt>
      <trkpt lat="44.51745" lon="1.98723">
        <ele>295.2</ele>
        <time>2015-10-31T09:38:40Z</time>
      </trkpt>
      <trkpt lat="44.51751" lon="1.98716">
        <ele>295.3</ele>
        <time>2015-10-31T09:38:41Z</time>
      </trkpt>
      <trkpt lat="44.5176" lon="1.98709">
        <ele>294.5</ele>
        <time>2015-10-31T09:38:42Z</time>
      </trkpt>
      <trkpt lat="44.51766" lon="1.987">
        <ele>295</ele>
        <time>2015-10-31T09:38:43Z</time>
      </trkpt>
      <trkpt lat="44.51774" lon="1.98693">
        <ele>295</ele>
        <time>2015-10-31T09:38:44Z</time>
      </trkpt>
      <trkpt lat="44.51783" lon="1.98684">
        <ele>295.1</ele>
        <time>2015-10-31T09:38:45Z</time>
      </trkpt>
      <trkpt lat="44.51792" lon="1.98676">
        <ele>295.3</ele>
        <time>2015-10-31T09:38:46Z</time>
      </trkpt>
      <trkpt lat="44.518" lon="1.98668">
        <ele>295.4</ele>
        <time>2015-10-31T09:38:47Z</time>
      </trkpt>
      <trkpt lat="44.5181" lon="1.98659">
        <ele>294.9</ele>
        <time>2015-10-31T09:38:48Z</time>
      </trkpt>
      <trkpt lat="44.51819" lon="1.98651">
        <ele>294.4</ele>
        <time>2015-10-31T09:38:49Z</time>
      </trkpt>
      <trkpt lat="44.51828" lon="1.98644">
        <ele>293.5</ele>
        <time>2015-10-31T09:38:50Z</time>
      </trkpt>
      <trkpt lat="44.51837" lon="1.98637">
        <ele>292.2</ele>
        <time>2015-10-31T09:38:51Z</time>
      </trkpt>
      <trkpt lat="44.51845" lon="1.9863">
        <ele>291.6</ele>
        <time>2015-10-31T09:38:52Z</time>
      </trkpt>
      <trkpt lat="44.51855" lon="1.98626">
        <ele>289</ele>
        <time>2015-10-31T09:38:53Z</time>
      </trkpt>
      <trkpt lat="44.51862" lon="1.98619">
        <ele>288.5</ele>
        <time>2015-10-31T09:38:54Z</time>
      </trkpt>
      <trkpt lat="44.51871" lon="1.98615">
        <ele>286.3</ele>
        <time>2015-10-31T09:38:55Z</time>
      </trkpt>
      <trkpt lat="44.51874" lon="1.9861">
        <ele>286.9</ele>
        <time>2015-10-31T09:38:56Z</time>
      </trkpt>
      <trkpt lat="44.51881" lon="1.98603">
        <ele>285.4</ele>
        <time>2015-10-31T09:38:57Z</time>
      </trkpt>
      <trkpt lat="44.51889" lon="1.98594">
        <ele>284.9</ele>
        <time>2015-10-31T09:38:58Z</time>
      </trkpt>
      <trkpt lat="44.51896" lon="1.98583">
        <ele>284.8</ele>
        <time>2015-10-31T09:38:59Z</time>
      </trkpt>
      <trkpt lat="44.51904" lon="1.9857">
        <ele>284.3</ele>
        <time>2015-10-31T09:39:00Z</time>
      </trkpt>
      <trkpt lat="44.5191" lon="1.9856">
        <ele>284.3</ele>
        <time>2015-10-31T09:39:01Z</time>
      </trkpt>
      <trkpt lat="44.51918" lon="1.98547">
        <ele>283.5</ele>
        <time>2015-10-31T09:39:02Z</time>
      </trkpt>
      <trkpt lat="44.51924" lon="1.98537">
        <ele>283.2</ele>
        <time>2015-10-31T09:39:03Z</time>
      </trkpt>
      <trkpt lat="44.5193" lon="1.98526">
        <ele>283.5</ele>
        <time>2015-10-31T09:39:04Z</time>
      </trkpt>
      <trkpt lat="44.51936" lon="1.98516">
        <ele>283.2</ele>
        <time>2015-10-31T09:39:05Z</time>
      </trkpt>
      <trkpt lat="44.51942" lon="1.98509">
        <ele>282.9</ele>
        <time>2015-10-31T09:39:06Z</time>
      </trkpt>
      <trkpt lat="44.5195" lon="1.98503">
        <ele>281.1</ele>
        <time>2015-10-31T09:39:07Z</time>
      </trkpt>
      <trkpt lat="44.51957" lon="1.98497">
        <ele>280.2</ele>
        <time>2015-10-31T09:39:08Z</time>
      </trkpt>
      <trkpt lat="44.51967" lon="1.98496">
        <ele>277.6</ele>
        <time>2015-10-31T09:39:09Z</time>
      </trkpt>
      <trkpt lat="44.51974" lon="1.98491">
        <ele>276.9</ele>
        <time>2015-10-31T09:39:10Z</time>
      </trkpt>
      <trkpt lat="44.51985" lon="1.98492">
        <ele>273.5</ele>
        <time>2015-10-31T09:39:11Z</time>
      </trkpt>
      <trkpt lat="44.51994" lon="1.9849">
        <ele>271.5</ele>
        <time>2015-10-31T09:39:12Z</time>
      </trkpt>
      <trkpt lat="44.52004" lon="1.98488">
        <ele>269.4</ele>
        <time>2015-10-31T09:39:13Z</time>
      </trkpt>
      <trkpt lat="44.52014" lon="1.98482">
        <ele>268.3</ele>
        <time>2015-10-31T09:39:14Z</time>
      </trkpt>
      <trkpt lat="44.52023" lon="1.98477">
        <ele>266.9</ele>
        <time>2015-10-31T09:39:15Z</time>
      </trkpt>
      <trkpt lat="44.52032" lon="1.9847">
        <ele>265.9</ele>
        <time>2015-10-31T09:39:16Z</time>
      </trkpt>
      <trkpt lat="44.52042" lon="1.98464">
        <ele>264.7</ele>
        <time>2015-10-31T09:39:17Z</time>
      </trkpt>
      <trkpt lat="44.52051" lon="1.98456">
        <ele>263.3</ele>
        <time>2015-10-31T09:39:18Z</time>
      </trkpt>
      <trkpt lat="44.52061" lon="1.98449">
        <ele>261.6</ele>
        <time>2015-10-31T09:39:19Z</time>
      </trkpt>
      <trkpt lat="44.52072" lon="1.98442">
        <ele>259.6</ele>
        <time>2015-10-31T09:39:20Z</time>
      </trkpt>
      <trkpt lat="44.52083" lon="1.98436">
        <ele>257.2</ele>
        <time>2015-10-31T09:39:21Z</time>
      </trkpt>
      <trkpt lat="44.52094" lon="1.98431">
        <ele>254.9</ele>
        <time>2015-10-31T09:39:22Z</time>
      </trkpt>
      <trkpt lat="44.52104" lon="1.98425">
        <ele>252.7</ele>
        <time>2015-10-31T09:39:23Z</time>
      </trkpt>
      <trkpt lat="44.52117" lon="1.98421">
        <ele>249.7</ele>
        <time>2015-10-31T09:39:24Z</time>
      </trkpt>
      <trkpt lat="44.52128" lon="1.98417">
        <ele>247.8</ele>
        <time>2015-10-31T09:39:25Z</time>
      </trkpt>
      <trkpt lat="44.52138" lon="1.98414">
        <ele>248</ele>
        <time>2015-10-31T09:39:26Z</time>
      </trkpt>
      <trkpt lat="44.52149" lon="1.98411">
        <ele>248</ele>
        <time>2015-10-31T09:39:27Z</time>
      </trkpt>
      <trkpt lat="44.5216" lon="1.98408">
        <ele>248.4</ele>
        <time>2015-10-31T09:39:28Z</time>
      </trkpt>
      <trkpt lat="44.52171" lon="1.98405">
        <ele>248.6</ele>
        <time>2015-10-31T09:39:29Z</time>
      </trkpt>
      <trkpt lat="44.52181" lon="1.98402">
        <ele>248.8</ele>
        <time>2015-10-31T09:39:30Z</time>
      </trkpt>
      <trkpt lat="44.52192" lon="1.98399">
        <ele>249.1</ele>
        <time>2015-10-31T09:39:31Z</time>
      </trkpt>
      <trkpt lat="44.52204" lon="1.98397">
        <ele>249.2</ele>
        <time>2015-10-31T09:39:32Z</time>
      </trkpt>
      <trkpt lat="44.52214" lon="1.98392">
        <ele>249.6</ele>
        <time>2015-10-31T09:39:33Z</time>
      </trkpt>
      <trkpt lat="44.52226" lon="1.98386">
        <ele>249.3</ele>
        <time>2015-10-31T09:39:34Z</time>
      </trkpt>
      <trkpt lat="44.52237" lon="1.98382">
        <ele>248.6</ele>
        <time>2015-10-31T09:39:35Z</time>
      </trkpt>
      <trkpt lat="44.52247" lon="1.98376">
        <ele>248.4</ele>
        <time>2015-10-31T09:39:36Z</time>
      </trkpt>
      <trkpt lat="44.52256" lon="1.98371">
        <ele>248.3</ele>
        <time>2015-10-31T09:39:37Z</time>
      </trkpt>
      <trkpt lat="44.52266" lon="1.98368">
        <ele>247.7</ele>
        <time>2015-10-31T09:39:38Z</time>
      </trkpt>
      <trkpt lat="44.52276" lon="1.98361">
        <ele>247.9</ele>
        <time>2015-10-31T09:39:39Z</time>
      </trkpt>
      <trkpt lat="44.52285" lon="1.98352">
        <ele>249</ele>
        <time>2015-10-31T09:39:40Z</time>
      </trkpt>
      <trkpt lat="44.52294" lon="1.98346">
        <ele>249.3</ele>
        <time>2015-10-31T09:39:41Z</time>
      </trkpt>
      <trkpt lat="44.52302" lon="1.98339">
        <ele>249.4</ele>
        <time>2015-10-31T09:39:42Z</time>
      </trkpt>
      <trkpt lat="44.52312" lon="1.98331">
        <ele>249.5</ele>
        <time>2015-10-31T09:39:43Z</time>
      </trkpt>
      <trkpt lat="44.52321" lon="1.98321">
        <ele>249.8</ele>
        <time>2015-10-31T09:39:44Z</time>
      </trkpt>
      <trkpt lat="44.5233" lon="1.98312">
        <ele>249.5</ele>
        <time>2015-10-31T09:39:45Z</time>
      </trkpt>
      <trkpt lat="44.52338" lon="1.98305">
        <ele>249.1</ele>
        <time>2015-10-31T09:39:46Z</time>
      </trkpt>
      <trkpt lat="44.52347" lon="1.98294">
        <ele>249</ele>
        <time>2015-10-31T09:39:47Z</time>
      </trkpt>
      <trkpt lat="44.52356" lon="1.98286">
        <ele>248.6</ele>
        <time>2015-10-31T09:39:48Z</time>
      </trkpt>
      <trkpt lat="44.52362" lon="1.9828">
        <ele>248.7</ele>
        <time>2015-10-31T09:39:49Z</time>
      </trkpt>
      <trkpt lat="44.52369" lon="1.98275">
        <ele>248.7</ele>
        <time>2015-10-31T09:39:50Z</time>
      </trkpt>
      <trkpt lat="44.52377" lon="1.98269">
        <ele>248.6</ele>
        <time>2015-10-31T09:39:51Z</time>
      </trkpt>
      <trkpt lat="44.52386" lon="1.98263">
        <ele>248.6</ele>
        <time>2015-10-31T09:39:52Z</time>
      </trkpt>
      <trkpt lat="44.52395" lon="1.98257">
        <ele>249.1</ele>
        <time>2015-10-31T09:39:53Z</time>
      </trkpt>
      <trkpt lat="44.52404" lon="1.98252">
        <ele>248.7</ele>
        <time>2015-10-31T09:39:54Z</time>
      </trkpt>
      <trkpt lat="44.52413" lon="1.98247">
        <ele>248.6</ele>
        <time>2015-10-31T09:39:55Z</time>
      </trkpt>
      <trkpt lat="44.52421" lon="1.98245">
        <ele>247.6</ele>
        <time>2015-10-31T09:39:56Z</time>
      </trkpt>
      <trkpt lat="44.52431" lon="1.98239">
        <ele>247.5</ele>
        <time>2015-10-31T09:39:57Z</time>
      </trkpt>
      <trkpt lat="44.52438" lon="1.98233">
        <ele>247.7</ele>
        <time>2015-10-31T09:39:58Z</time>
      </trkpt>
      <trkpt lat="44.52448" lon="1.98227">
        <ele>247.7</ele>
        <time>2015-10-31T09:39:59Z</time>
      </trkpt>
      <trkpt lat="44.52458" lon="1.9822">
        <ele>247.5</ele>
        <time>2015-10-31T09:40:00Z</time>
      </trkpt>
      <trkpt lat="44.52467" lon="1.98216">
        <ele>245.5</ele>
        <time>2015-10-31T09:40:01Z</time>
      </trkpt>
      <trkpt lat="44.52476" lon="1.98206">
        <ele>245.1</ele>
        <time>2015-10-31T09:40:02Z</time>
      </trkpt>
      <trkpt lat="44.52484" lon="1.98196">
        <ele>245.1</ele>
        <time>2015-10-31T09:40:03Z</time>
      </trkpt>
      <trkpt lat="44.52493" lon="1.98185">
        <ele>245.5</ele>
        <time>2015-10-31T09:40:04Z</time>
      </trkpt>
      <trkpt lat="44.52502" lon="1.98177">
        <ele>245</ele>
        <time>2015-10-31T09:40:05Z</time>
      </trkpt>
      <trkpt lat="44.52511" lon="1.98171">
        <ele>244.1</ele>
        <time>2015-10-31T09:40:06Z</time>
      </trkpt>
      <trkpt lat="44.5252" lon="1.98162">
        <ele>243.6</ele>
        <time>2015-10-31T09:40:07Z</time>
      </trkpt>
      <trkpt lat="44.52528" lon="1.98153">
        <ele>243.7</ele>
        <time>2015-10-31T09:40:08Z</time>
      </trkpt>
      <trkpt lat="44.52538" lon="1.98146">
        <ele>242.6</ele>
        <time>2015-10-31T09:40:09Z</time>
      </trkpt>
      <trkpt lat="44.52548" lon="1.98141">
        <ele>241.5</ele>
        <time>2015-10-31T09:40:10Z</time>
      </trkpt>
      <trkpt lat="44.52558" lon="1.98136">
        <ele>240.7</ele>
        <time>2015-10-31T09:40:11Z</time>
      </trkpt>
      <trkpt lat="44.5257" lon="1.98131">
        <ele>239.3</ele>
        <time>2015-10-31T09:40:12Z</time>
      </trkpt>
      <trkpt lat="44.52581" lon="1.98127">
        <ele>237.7</ele>
        <time>2015-10-31T09:40:13Z</time>
      </trkpt>
      <trkpt lat="44.5259" lon="1.98122">
        <ele>237.1</ele>
        <time>2015-10-31T09:40:14Z</time>
      </trkpt>
      <trkpt lat="44.526" lon="1.98118">
        <ele>235.7</ele>
        <time>2015-10-31T09:40:15Z</time>
      </trkpt>
      <trkpt lat="44.52609" lon="1.98115">
        <ele>234.2</ele>
        <time>2015-10-31T09:40:16Z</time>
      </trkpt>
      <trkpt lat="44.52618" lon="1.98113">
        <ele>233</ele>
        <time>2015-10-31T09:40:17Z</time>
      </trkpt>
      <trkpt lat="44.5263" lon="1.98109">
        <ele>231.6</ele>
        <time>2015-10-31T09:40:18Z</time>
      </trkpt>
      <trkpt lat="44.52642" lon="1.98105">
        <ele>231.1</ele>
        <time>2015-10-31T09:40:19Z</time>
      </trkpt>
      <trkpt lat="44.52652" lon="1.98103">
        <ele>230.1</ele>
        <time>2015-10-31T09:40:20Z</time>
      </trkpt>
      <trkpt lat="44.52664" lon="1.98099">
        <ele>229.4</ele>
        <time>2015-10-31T09:40:21Z</time>
      </trkpt>
      <trkpt lat="44.52674" lon="1.98096">
        <ele>228.7</ele>
        <time>2015-10-31T09:40:22Z</time>
      </trkpt>
      <trkpt lat="44.52684" lon="1.98093">
        <ele>227.7</ele>
        <time>2015-10-31T09:40:23Z</time>
      </trkpt>
      <trkpt lat="44.52696" lon="1.9809">
        <ele>227.1</ele>
        <time>2015-10-31T09:40:24Z</time>
      </trkpt>
      <trkpt lat="44.52706" lon="1.98087">
        <ele>226.3</ele>
        <time>2015-10-31T09:40:25Z</time>
      </trkpt>
      <trkpt lat="44.52716" lon="1.98083">
        <ele>225.4</ele>
        <time>2015-10-31T09:40:26Z</time>
      </trkpt>
      <trkpt lat="44.52727" lon="1.9808">
        <ele>224.2</ele>
        <time>2015-10-31T09:40:27Z</time>
      </trkpt>
      <trkpt lat="44.52738" lon="1.98076">
        <ele>223.2</ele>
        <time>2015-10-31T09:40:28Z</time>
      </trkpt>
      <trkpt lat="44.52748" lon="1.98073">
        <ele>221.9</ele>
        <time>2015-10-31T09:40:29Z</time>
      </trkpt>
      <trkpt lat="44.52759" lon="1.98068">
        <ele>221.4</ele>
        <time>2015-10-31T09:40:30Z</time>
      </trkpt>
      <trkpt lat="44.52767" lon="1.98061">
        <ele>221.7</ele>
        <time>2015-10-31T09:40:31Z</time>
      </trkpt>
      <trkpt lat="44.52777" lon="1.98055">
        <ele>221.3</ele>
        <time>2015-10-31T09:40:32Z</time>
      </trkpt>
      <trkpt lat="44.52787" lon="1.98049">
        <ele>220.9</ele>
        <time>2015-10-31T09:40:33Z</time>
      </trkpt>
      <trkpt lat="44.52795" lon="1.98041">
        <ele>220.8</ele>
        <time>2015-10-31T09:40:34Z</time>
      </trkpt>
      <trkpt lat="44.52805" lon="1.98031">
        <ele>218.5</ele>
        <time>2015-10-31T09:40:35Z</time>
      </trkpt>
      <trkpt lat="44.52814" lon="1.9802">
        <ele>216.8</ele>
        <time>2015-10-31T09:40:36Z</time>
      </trkpt>
      <trkpt lat="44.52819" lon="1.98009">
        <ele>215.9</ele>
        <time>2015-10-31T09:40:37Z</time>
      </trkpt>
      <trkpt lat="44.52827" lon="1.97995">
        <ele>214.4</ele>
        <time>2015-10-31T09:40:38Z</time>
      </trkpt>
      <trkpt lat="44.52831" lon="1.97984">
        <ele>213.6</ele>
        <time>2015-10-31T09:40:39Z</time>
      </trkpt>
      <trkpt lat="44.52835" lon="1.97972">
        <ele>212.7</ele>
        <time>2015-10-31T09:40:40Z</time>
      </trkpt>
      <trkpt lat="44.52837" lon="1.97961">
        <ele>213</ele>
        <time>2015-10-31T09:40:41Z</time>
      </trkpt>
      <trkpt lat="44.52841" lon="1.97949">
        <ele>210.9</ele>
        <time>2015-10-31T09:40:42Z</time>
      </trkpt>
      <trkpt lat="44.52844" lon="1.97937">
        <ele>209</ele>
        <time>2015-10-31T09:40:43Z</time>
      </trkpt>
      <trkpt lat="44.52844" lon="1.97924">
        <ele>208.1</ele>
        <time>2015-10-31T09:40:44Z</time>
      </trkpt>
      <trkpt lat="44.52844" lon="1.97911">
        <ele>207.5</ele>
        <time>2015-10-31T09:40:45Z</time>
      </trkpt>
      <trkpt lat="44.52845" lon="1.97898">
        <ele>206.5</ele>
        <time>2015-10-31T09:40:46Z</time>
      </trkpt>
      <trkpt lat="44.52845" lon="1.97885">
        <ele>205.8</ele>
        <time>2015-10-31T09:40:47Z</time>
      </trkpt>
      <trkpt lat="44.52844" lon="1.9787">
        <ele>204.9</ele>
        <time>2015-10-31T09:40:48Z</time>
      </trkpt>
      <trkpt lat="44.52843" lon="1.97857">
        <ele>203.6</ele>
        <time>2015-10-31T09:40:49Z</time>
      </trkpt>
      <trkpt lat="44.52842" lon="1.97842">
        <ele>202.1</ele>
        <time>2015-10-31T09:40:50Z</time>
      </trkpt>
      <trkpt lat="44.52842" lon="1.97827">
        <ele>200</ele>
        <time>2015-10-31T09:40:51Z</time>
      </trkpt>
      <trkpt lat="44.52842" lon="1.97813">
        <ele>198.1</ele>
        <time>2015-10-31T09:40:52Z</time>
      </trkpt>
      <trkpt lat="44.52841" lon="1.97798">
        <ele>196.3</ele>
        <time>2015-10-31T09:40:53Z</time>
      </trkpt>
      <trkpt lat="44.52842" lon="1.97782">
        <ele>194</ele>
        <time>2015-10-31T09:40:54Z</time>
      </trkpt>
      <trkpt lat="44.52842" lon="1.97767">
        <ele>191.7</ele>
        <time>2015-10-31T09:40:55Z</time>
      </trkpt>
      <trkpt lat="44.52843" lon="1.9775">
        <ele>189</ele>
        <time>2015-10-31T09:40:56Z</time>
      </trkpt>
      <trkpt lat="44.52844" lon="1.97736">
        <ele>186.8</ele>
        <time>2015-10-31T09:40:57Z</time>
      </trkpt>
      <trkpt lat="44.52844" lon="1.97721">
        <ele>184.8</ele>
        <time>2015-10-31T09:40:58Z</time>
      </trkpt>
      <trkpt lat="44.52845" lon="1.97706">
        <ele>182.8</ele>
        <time>2015-10-31T09:40:59Z</time>
      </trkpt>
      <trkpt lat="44.52845" lon="1.97693">
        <ele>182</ele>
        <time>2015-10-31T09:41:00Z</time>
      </trkpt>
      <trkpt lat="44.52847" lon="1.97679">
        <ele>181</ele>
        <time>2015-10-31T09:41:01Z</time>
      </trkpt>
      <trkpt lat="44.52847" lon="1.97666">
        <ele>180.3</ele>
        <time>2015-10-31T09:41:02Z</time>
      </trkpt>
      <trkpt lat="44.52848" lon="1.97653">
        <ele>179.5</ele>
        <time>2015-10-31T09:41:03Z</time>
      </trkpt>
      <trkpt lat="44.5285" lon="1.97639">
        <ele>178.7</ele>
        <time>2015-10-31T09:41:04Z</time>
      </trkpt>
      <trkpt lat="44.52852" lon="1.97624">
        <ele>177.9</ele>
        <time>2015-10-31T09:41:05Z</time>
      </trkpt>
      <trkpt lat="44.52855" lon="1.9761">
        <ele>176.7</ele>
        <time>2015-10-31T09:41:06Z</time>
      </trkpt>
      <trkpt lat="44.52856" lon="1.97596">
        <ele>175.7</ele>
        <time>2015-10-31T09:41:07Z</time>
      </trkpt>
      <trkpt lat="44.52856" lon="1.97583">
        <ele>174.9</ele>
        <time>2015-10-31T09:41:08Z</time>
      </trkpt>
      <trkpt lat="44.52857" lon="1.9757">
        <ele>174</ele>
        <time>2015-10-31T09:41:09Z</time>
      </trkpt>
      <trkpt lat="44.52859" lon="1.97557">
        <ele>173.1</ele>
        <time>2015-10-31T09:41:10Z</time>
      </trkpt>
      <trkpt lat="44.5286" lon="1.97543">
        <ele>172.3</ele>
        <time>2015-10-31T09:41:11Z</time>
      </trkpt>
      <trkpt lat="44.52861" lon="1.97529">
        <ele>171.4</ele>
        <time>2015-10-31T09:41:12Z</time>
      </trkpt>
      <trkpt lat="44.52862" lon="1.97516">
        <ele>170.7</ele>
        <time>2015-10-31T09:41:13Z</time>
      </trkpt>
      <trkpt lat="44.52864" lon="1.97503">
        <ele>170</ele>
        <time>2015-10-31T09:41:14Z</time>
      </trkpt>
      <trkpt lat="44.52865" lon="1.9749">
        <ele>169.3</ele>
        <time>2015-10-31T09:41:15Z</time>
      </trkpt>
      <trkpt lat="44.52863" lon="1.97477">
        <ele>168.6</ele>
        <time>2015-10-31T09:41:16Z</time>
      </trkpt>
      <trkpt lat="44.52861" lon="1.97464">
        <ele>167.8</ele>
        <time>2015-10-31T09:41:17Z</time>
      </trkpt>
      <trkpt lat="44.52857" lon="1.97454">
        <ele>167.2</ele>
        <time>2015-10-31T09:41:18Z</time>
      </trkpt>
      <trkpt lat="44.52854" lon="1.97443">
        <ele>166.6</ele>
        <time>2015-10-31T09:41:19Z</time>
      </trkpt>
      <trkpt lat="44.52853" lon="1.97434">
        <ele>166.2</ele>
        <time>2015-10-31T09:41:20Z</time>
      </trkpt>
      <trkpt lat="44.52849" lon="1.97424">
        <ele>165.7</ele>
        <time>2015-10-31T09:41:21Z</time>
      </trkpt>
      <trkpt lat="44.52847" lon="1.9742">
        <ele>165.5</ele>
        <time>2015-10-31T09:41:22Z</time>
      </trkpt>
      <trkpt lat="44.52844" lon="1.97413">
        <ele>165.1</ele>
        <time>2015-10-31T09:41:23Z</time>
      </trkpt>
      <trkpt lat="44.52841" lon="1.97408">
        <ele>164.7</ele>
        <time>2015-10-31T09:41:24Z</time>
      </trkpt>
      <trkpt lat="44.52837" lon="1.97404">
        <ele>164.4</ele>
        <time>2015-10-31T09:41:25Z</time>
      </trkpt>
      <trkpt lat="44.52834" lon="1.97399">
        <ele>164</ele>
        <time>2015-10-31T09:41:26Z</time>
      </trkpt>
      <trkpt lat="44.52831" lon="1.97391">
        <ele>163.5</ele>
        <time>2015-10-31T09:41:27Z</time>
      </trkpt>
      <trkpt lat="44.52826" lon="1.97383">
        <ele>163</ele>
        <time>2015-10-31T09:41:28Z</time>
      </trkpt>
      <trkpt lat="44.52822" lon="1.97373">
        <ele>162.4</ele>
        <time>2015-10-31T09:41:29Z</time>
      </trkpt>
      <trkpt lat="44.52819" lon="1.97364">
        <ele>162.1</ele>
        <time>2015-10-31T09:41:30Z</time>
      </trkpt>
      <trkpt lat="44.52816" lon="1.97356">
        <ele>161.9</ele>
        <time>2015-10-31T09:41:31Z</time>
      </trkpt>
      <trkpt lat="44.52813" lon="1.97347">
        <ele>161.7</ele>
        <time>2015-10-31T09:41:32Z</time>
      </trkpt>
      <trkpt lat="44.52807" lon="1.97338">
        <ele>161.4</ele>
        <time>2015-10-31T09:41:34Z</time>
      </trkpt>
      <trkpt lat="44.52804" lon="1.9733">
        <ele>161.3</ele>
        <time>2015-10-31T09:41:35Z</time>
      </trkpt>
      <trkpt lat="44.52802" lon="1.97324">
        <ele>161.2</ele>
        <time>2015-10-31T09:41:36Z</time>
      </trkpt>
      <trkpt lat="44.52801" lon="1.97319">
        <ele>161.1</ele>
        <time>2015-10-31T09:41:37Z</time>
      </trkpt>
      <trkpt lat="44.52798" lon="1.97315">
        <ele>161.1</ele>
        <time>2015-10-31T09:41:38Z</time>
      </trkpt>
      <trkpt lat="44.52798" lon="1.97309">
        <ele>161.1</ele>
        <time>2015-10-31T09:41:40Z</time>
      </trkpt>
      <trkpt lat="44.52796" lon="1.97306">
        <ele>161</ele>
        <time>2015-10-31T09:41:41Z</time>
      </trkpt>
      <trkpt lat="44.52791" lon="1.97305">
        <ele>161</ele>
        <time>2015-10-31T09:41:43Z</time>
      </trkpt>
      <trkpt lat="44.52789" lon="1.97307">
        <ele>161.1</ele>
        <time>2015-10-31T09:41:44Z</time>
      </trkpt>
      <trkpt lat="44.52784" lon="1.97308">
        <ele>161.3</ele>
        <time>2015-10-31T09:41:46Z</time>
      </trkpt>
      <trkpt lat="44.52781" lon="1.97308">
        <ele>161.4</ele>
        <time>2015-10-31T09:41:47Z</time>
      </trkpt>
      <trkpt lat="44.52777" lon="1.97307">
        <ele>161.6</ele>
        <time>2015-10-31T09:41:48Z</time>
      </trkpt>
      <trkpt lat="44.52774" lon="1.97307">
        <ele>161.7</ele>
        <time>2015-10-31T09:41:49Z</time>
      </trkpt>
      <trkpt lat="44.5277" lon="1.97307">
        <ele>161.8</ele>
        <time>2015-10-31T09:41:50Z</time>
      </trkpt>
      <trkpt lat="44.52766" lon="1.97306">
        <ele>162</ele>
        <time>2015-10-31T09:41:51Z</time>
      </trkpt>
      <trkpt lat="44.52762" lon="1.97305">
        <ele>162.1</ele>
        <time>2015-10-31T09:41:52Z</time>
      </trkpt>
      <trkpt lat="44.52757" lon="1.97302">
        <ele>162.3</ele>
        <time>2015-10-31T09:41:53Z</time>
      </trkpt>
      <trkpt lat="44.52754" lon="1.97299">
        <ele>162.4</ele>
        <time>2015-10-31T09:41:54Z</time>
      </trkpt>
      <trkpt lat="44.52751" lon="1.97295">
        <ele>162.5</ele>
        <time>2015-10-31T09:41:55Z</time>
      </trkpt>
      <trkpt lat="44.52747" lon="1.9729">
        <ele>162.6</ele>
        <time>2015-10-31T09:41:56Z</time>
      </trkpt>
      <trkpt lat="44.52744" lon="1.97285">
        <ele>162.8</ele>
        <time>2015-10-31T09:41:57Z</time>
      </trkpt>
      <trkpt lat="44.52742" lon="1.97281">
        <ele>163</ele>
        <time>2015-10-31T09:41:58Z</time>
      </trkpt>
      <trkpt lat="44.52739" lon="1.97276">
        <ele>163.1</ele>
        <time>2015-10-31T09:41:59Z</time>
      </trkpt>
      <trkpt lat="44.52736" lon="1.97271">
        <ele>163.2</ele>
        <time>2015-10-31T09:42:00Z</time>
      </trkpt>
      <trkpt lat="44.52733" lon="1.97267">
        <ele>163.4</ele>
        <time>2015-10-31T09:42:01Z</time>
      </trkpt>
      <trkpt lat="44.52731" lon="1.97263">
        <ele>163.5</ele>
        <time>2015-10-31T09:42:02Z</time>
      </trkpt>
      <trkpt lat="44.52727" lon="1.97258">
        <ele>163.6</ele>
        <time>2015-10-31T09:42:03Z</time>
      </trkpt>
      <trkpt lat="44.52724" lon="1.97255">
        <ele>163.7</ele>
        <time>2015-10-31T09:42:04Z</time>
      </trkpt>
      <trkpt lat="44.5272" lon="1.97251">
        <ele>163.8</ele>
        <time>2015-10-31T09:42:05Z</time>
      </trkpt>
      <trkpt lat="44.52717" lon="1.97248">
        <ele>163.9</ele>
        <time>2015-10-31T09:42:06Z</time>
      </trkpt>
      <trkpt lat="44.52713" lon="1.97245">
        <ele>163.9</ele>
        <time>2015-10-31T09:42:07Z</time>
      </trkpt>
      <trkpt lat="44.5271" lon="1.97242">
        <ele>164</ele>
        <time>2015-10-31T09:42:08Z</time>
      </trkpt>
      <trkpt lat="44.52704" lon="1.97238">
        <ele>164</ele>
        <time>2015-10-31T09:42:09Z</time>
      </trkpt>
      <trkpt lat="44.527" lon="1.97236">
        <ele>164</ele>
        <time>2015-10-31T09:42:10Z</time>
      </trkpt>
      <trkpt lat="44.52697" lon="1.97233">
        <ele>164</ele>
        <time>2015-10-31T09:42:11Z</time>
      </trkpt>
      <trkpt lat="44.52691" lon="1.97233">
        <ele>164</ele>
        <time>2015-10-31T09:42:12Z</time>
      </trkpt>
      <trkpt lat="44.52689" lon="1.97229">
        <ele>164</ele>
        <time>2015-10-31T09:42:13Z</time>
      </trkpt>
      <trkpt lat="44.52686" lon="1.97231">
        <ele>164</ele>
        <time>2015-10-31T09:42:14Z</time>
      </trkpt>
      <trkpt lat="44.52683" lon="1.97231">
        <ele>164</ele>
        <time>2015-10-31T09:42:15Z</time>
      </trkpt>
      <trkpt lat="44.52678" lon="1.97232">
        <ele>164</ele>
        <time>2015-10-31T09:42:16Z</time>
      </trkpt>
      <trkpt lat="44.52674" lon="1.97233">
        <ele>164</ele>
        <time>2015-10-31T09:42:17Z</time>
      </trkpt>
      <trkpt lat="44.52671" lon="1.97233">
        <ele>164</ele>
        <time>2015-10-31T09:42:18Z</time>
      </trkpt>
      <trkpt lat="44.52668" lon="1.97233">
        <ele>164</ele>
        <time>2015-10-31T09:42:19Z</time>
      </trkpt>
      <trkpt lat="44.52665" lon="1.97233">
        <ele>164</ele>
        <time>2015-10-31T09:42:20Z</time>
      </trkpt>
      <trkpt lat="44.52661" lon="1.97236">
        <ele>164</ele>
        <time>2015-10-31T09:42:21Z</time>
      </trkpt>
      <trkpt lat="44.52656" lon="1.97238">
        <ele>164</ele>
        <time>2015-10-31T09:42:23Z</time>
      </trkpt>
      <trkpt lat="44.52653" lon="1.97239">
        <ele>164</ele>
        <time>2015-10-31T09:42:24Z</time>
      </trkpt>
      <trkpt lat="44.5265" lon="1.9724">
        <ele>164</ele>
        <time>2015-10-31T09:42:25Z</time>
      </trkpt>
      <trkpt lat="44.52647" lon="1.97241">
        <ele>164</ele>
        <time>2015-10-31T09:42:26Z</time>
      </trkpt>
      <trkpt lat="44.52644" lon="1.97242">
        <ele>164</ele>
        <time>2015-10-31T09:42:27Z</time>
      </trkpt>
      <trkpt lat="44.52641" lon="1.97244">
        <ele>164</ele>
        <time>2015-10-31T09:42:28Z</time>
      </trkpt>
      <trkpt lat="44.52639" lon="1.97245">
        <ele>164</ele>
        <time>2015-10-31T09:42:29Z</time>
      </trkpt>
      <trkpt lat="44.52635" lon="1.97247">
        <ele>164</ele>
        <time>2015-10-31T09:42:31Z</time>
      </trkpt>
      <trkpt lat="44.52631" lon="1.97249">
        <ele>164</ele>
        <time>2015-10-31T09:42:33Z</time>
      </trkpt>
      <trkpt lat="44.52628" lon="1.97252">
        <ele>164</ele>
        <time>2015-10-31T09:42:36Z</time>
      </trkpt>
      <trkpt lat="44.52625" lon="1.97253">
        <ele>164</ele>
        <time>2015-10-31T09:42:39Z</time>
      </trkpt>
      <trkpt lat="44.5261" lon="1.97254">
        <ele>164.3</ele>
        <time>2015-10-31T09:44:13Z</time>
      </trkpt>
      <trkpt lat="44.52607" lon="1.97256">
        <ele>164.3</ele>
        <time>2015-10-31T09:44:15Z</time>
      </trkpt>
      <trkpt lat="44.52603" lon="1.97258">
        <ele>164.4</ele>
        <time>2015-10-31T09:44:17Z</time>
      </trkpt>
      <trkpt lat="44.52599" lon="1.9726">
        <ele>164.5</ele>
        <time>2015-10-31T09:44:19Z</time>
      </trkpt>
      <trkpt lat="44.52594" lon="1.97263">
        <ele>164.6</ele>
        <time>2015-10-31T09:44:21Z</time>
      </trkpt>
      <trkpt lat="44.52592" lon="1.97264">
        <ele>164.7</ele>
        <time>2015-10-31T09:44:22Z</time>
      </trkpt>
      <trkpt lat="44.52589" lon="1.97265">
        <ele>164.7</ele>
        <time>2015-10-31T09:44:23Z</time>
      </trkpt>
      <trkpt lat="44.52586" lon="1.97266">
        <ele>164.8</ele>
        <time>2015-10-31T09:44:24Z</time>
      </trkpt>
      <trkpt lat="44.52583" lon="1.97268">
        <ele>164.9</ele>
        <time>2015-10-31T09:44:25Z</time>
      </trkpt>
      <trkpt lat="44.5258" lon="1.97268">
        <ele>164.9</ele>
        <time>2015-10-31T09:44:26Z</time>
      </trkpt>
      <trkpt lat="44.52577" lon="1.97269">
        <ele>165</ele>
        <time>2015-10-31T09:44:27Z</time>
      </trkpt>
      <trkpt lat="44.52575" lon="1.9727">
        <ele>165</ele>
        <time>2015-10-31T09:44:28Z</time>
      </trkpt>
      <trkpt lat="44.52572" lon="1.97271">
        <ele>165.1</ele>
        <time>2015-10-31T09:44:29Z</time>
      </trkpt>
      <trkpt lat="44.52569" lon="1.97271">
        <ele>165.2</ele>
        <time>2015-10-31T09:44:30Z</time>
      </trkpt>
      <trkpt lat="44.52564" lon="1.97272">
        <ele>165.3</ele>
        <time>2015-10-31T09:44:31Z</time>
      </trkpt>
      <trkpt lat="44.5256" lon="1.97272">
        <ele>165.4</ele>
        <time>2015-10-31T09:44:32Z</time>
      </trkpt>
      <trkpt lat="44.52556" lon="1.97271">
        <ele>165.5</ele>
        <time>2015-10-31T09:44:33Z</time>
      </trkpt>
      <trkpt lat="44.52552" lon="1.9727">
        <ele>165.5</ele>
        <time>2015-10-31T09:44:34Z</time>
      </trkpt>
      <trkpt lat="44.52548" lon="1.9727">
        <ele>165.6</ele>
        <time>2015-10-31T09:44:35Z</time>
      </trkpt>
      <trkpt lat="44.52544" lon="1.97269">
        <ele>165.7</ele>
        <time>2015-10-31T09:44:36Z</time>
      </trkpt>
      <trkpt lat="44.5254" lon="1.97268">
        <ele>165.9</ele>
        <time>2015-10-31T09:44:37Z</time>
      </trkpt>
      <trkpt lat="44.52536" lon="1.97267">
        <ele>166.3</ele>
        <time>2015-10-31T09:44:38Z</time>
      </trkpt>
      <trkpt lat="44.52532" lon="1.97266">
        <ele>166.7</ele>
        <time>2015-10-31T09:44:39Z</time>
      </trkpt>
      <trkpt lat="44.52527" lon="1.97265">
        <ele>167</ele>
        <time>2015-10-31T09:44:40Z</time>
      </trkpt>
      <trkpt lat="44.52523" lon="1.97263">
        <ele>167.5</ele>
        <time>2015-10-31T09:44:41Z</time>
      </trkpt>
      <trkpt lat="44.52518" lon="1.97261">
        <ele>167.9</ele>
        <time>2015-10-31T09:44:42Z</time>
      </trkpt>
      <trkpt lat="44.52513" lon="1.97259">
        <ele>168.4</ele>
        <time>2015-10-31T09:44:43Z</time>
      </trkpt>
      <trkpt lat="44.52509" lon="1.97257">
        <ele>168.8</ele>
        <time>2015-10-31T09:44:44Z</time>
      </trkpt>
      <trkpt lat="44.52505" lon="1.97255">
        <ele>169.2</ele>
        <time>2015-10-31T09:44:45Z</time>
      </trkpt>
      <trkpt lat="44.52501" lon="1.97252">
        <ele>169.6</ele>
        <time>2015-10-31T09:44:46Z</time>
      </trkpt>
      <trkpt lat="44.52498" lon="1.97248">
        <ele>170</ele>
        <time>2015-10-31T09:44:47Z</time>
      </trkpt>
      <trkpt lat="44.52494" lon="1.97244">
        <ele>170.4</ele>
        <time>2015-10-31T09:44:48Z</time>
      </trkpt>
      <trkpt lat="44.52491" lon="1.9724">
        <ele>170.8</ele>
        <time>2015-10-31T09:44:49Z</time>
      </trkpt>
      <trkpt lat="44.52488" lon="1.97235">
        <ele>171.2</ele>
        <time>2015-10-31T09:44:50Z</time>
      </trkpt>
      <trkpt lat="44.52485" lon="1.97231">
        <ele>171.6</ele>
        <time>2015-10-31T09:44:51Z</time>
      </trkpt>
      <trkpt lat="44.52482" lon="1.97227">
        <ele>171.9</ele>
        <time>2015-10-31T09:44:52Z</time>
      </trkpt>
      <trkpt lat="44.52479" lon="1.97223">
        <ele>172.3</ele>
        <time>2015-10-31T09:44:53Z</time>
      </trkpt>
      <trkpt lat="44.52476" lon="1.97219">
        <ele>172.7</ele>
        <time>2015-10-31T09:44:54Z</time>
      </trkpt>
      <trkpt lat="44.52473" lon="1.97215">
        <ele>173.1</ele>
        <time>2015-10-31T09:44:55Z</time>
      </trkpt>
      <trkpt lat="44.52471" lon="1.97211">
        <ele>173.5</ele>
        <time>2015-10-31T09:44:56Z</time>
      </trkpt>
      <trkpt lat="44.52468" lon="1.97207">
        <ele>173.7</ele>
        <time>2015-10-31T09:44:57Z</time>
      </trkpt>
      <trkpt lat="44.52466" lon="1.97203">
        <ele>173.8</ele>
        <time>2015-10-31T09:44:58Z</time>
      </trkpt>
      <trkpt lat="44.52464" lon="1.97199">
        <ele>174</ele>
        <time>2015-10-31T09:44:59Z</time>
      </trkpt>
      <trkpt lat="44.52461" lon="1.97195">
        <ele>174.1</ele>
        <time>2015-10-31T09:45:00Z</time>
      </trkpt>
      <trkpt lat="44.52459" lon="1.97192">
        <ele>174.2</ele>
        <time>2015-10-31T09:45:01Z</time>
      </trkpt>
      <trkpt lat="44.52456" lon="1.97189">
        <ele>174.7</ele>
        <time>2015-10-31T09:45:02Z</time>
      </trkpt>
      <trkpt lat="44.52454" lon="1.97185">
        <ele>175.2</ele>
        <time>2015-10-31T09:45:03Z</time>
      </trkpt>
      <trkpt lat="44.52453" lon="1.97182">
        <ele>175.6</ele>
        <time>2015-10-31T09:45:04Z</time>
      </trkpt>
      <trkpt lat="44.52451" lon="1.97178">
        <ele>175.9</ele>
        <time>2015-10-31T09:45:05Z</time>
      </trkpt>
      <trkpt lat="44.52449" lon="1.97174">
        <ele>176.3</ele>
        <time>2015-10-31T09:45:06Z</time>
      </trkpt>
      <trkpt lat="44.52447" lon="1.97171">
        <ele>176.6</ele>
        <time>2015-10-31T09:45:07Z</time>
      </trkpt>
      <trkpt lat="44.52445" lon="1.97167">
        <ele>176.9</ele>
        <time>2015-10-31T09:45:08Z</time>
      </trkpt>
      <trkpt lat="44.52444" lon="1.97162">
        <ele>177.1</ele>
        <time>2015-10-31T09:45:09Z</time>
      </trkpt>
      <trkpt lat="44.52442" lon="1.97158">
        <ele>177.2</ele>
        <time>2015-10-31T09:45:10Z</time>
      </trkpt>
      <trkpt lat="44.52441" lon="1.97153">
        <ele>177.4</ele>
        <time>2015-10-31T09:45:11Z</time>
      </trkpt>
      <trkpt lat="44.52439" lon="1.97148">
        <ele>177.5</ele>
        <time>2015-10-31T09:45:12Z</time>
      </trkpt>
      <trkpt lat="44.52438" lon="1.97143">
        <ele>177.5</ele>
        <time>2015-10-31T09:45:14Z</time>
      </trkpt>
      <trkpt lat="44.52437" lon="1.97133">
        <ele>177.1</ele>
        <time>2015-10-31T09:45:15Z</time>
      </trkpt>
      <trkpt lat="44.52437" lon="1.97127">
        <ele>176.9</ele>
        <time>2015-10-31T09:45:16Z</time>
      </trkpt>
      <trkpt lat="44.52436" lon="1.97122">
        <ele>176.8</ele>
        <time>2015-10-31T09:45:17Z</time>
      </trkpt>
      <trkpt lat="44.52435" lon="1.97116">
        <ele>176.7</ele>
        <time>2015-10-31T09:45:18Z</time>
      </trkpt>
      <trkpt lat="44.52435" lon="1.97111">
        <ele>176.6</ele>
        <time>2015-10-31T09:45:19Z</time>
      </trkpt>
      <trkpt lat="44.52434" lon="1.97105">
        <ele>176.3</ele>
        <time>2015-10-31T09:45:20Z</time>
      </trkpt>
      <trkpt lat="44.52434" lon="1.97099">
        <ele>176.2</ele>
        <time>2015-10-31T09:45:21Z</time>
      </trkpt>
      <trkpt lat="44.52433" lon="1.97093">
        <ele>176</ele>
        <time>2015-10-31T09:45:22Z</time>
      </trkpt>
      <trkpt lat="44.52432" lon="1.97086">
        <ele>175.9</ele>
        <time>2015-10-31T09:45:23Z</time>
      </trkpt>
      <trkpt lat="44.52431" lon="1.9708">
        <ele>175.7</ele>
        <time>2015-10-31T09:45:24Z</time>
      </trkpt>
      <trkpt lat="44.52431" lon="1.97074">
        <ele>175.5</ele>
        <time>2015-10-31T09:45:25Z</time>
      </trkpt>
      <trkpt lat="44.5243" lon="1.97068">
        <ele>175.3</ele>
        <time>2015-10-31T09:45:26Z</time>
      </trkpt>
      <trkpt lat="44.52429" lon="1.97063">
        <ele>175.1</ele>
        <time>2015-10-31T09:45:27Z</time>
      </trkpt>
      <trkpt lat="44.52428" lon="1.97057">
        <ele>174.9</ele>
        <time>2015-10-31T09:45:28Z</time>
      </trkpt>
      <trkpt lat="44.52427" lon="1.97051">
        <ele>174.7</ele>
        <time>2015-10-31T09:45:29Z</time>
      </trkpt>
      <trkpt lat="44.52427" lon="1.97046">
        <ele>174.4</ele>
        <time>2015-10-31T09:45:30Z</time>
      </trkpt>
      <trkpt lat="44.52426" lon="1.9704">
        <ele>174.1</ele>
        <time>2015-10-31T09:45:31Z</time>
      </trkpt>
      <trkpt lat="44.52425" lon="1.97034">
        <ele>173.9</ele>
        <time>2015-10-31T09:45:32Z</time>
      </trkpt>
      <trkpt lat="44.52424" lon="1.97028">
        <ele>173.7</ele>
        <time>2015-10-31T09:45:33Z</time>
      </trkpt>
      <trkpt lat="44.52423" lon="1.97022">
        <ele>173.4</ele>
        <time>2015-10-31T09:45:34Z</time>
      </trkpt>
      <trkpt lat="44.52423" lon="1.97016">
        <ele>173.1</ele>
        <time>2015-10-31T09:45:35Z</time>
      </trkpt>
      <trkpt lat="44.52423" lon="1.9701">
        <ele>172.8</ele>
        <time>2015-10-31T09:45:36Z</time>
      </trkpt>
      <trkpt lat="44.52422" lon="1.97004">
        <ele>172.5</ele>
        <time>2015-10-31T09:45:37Z</time>
      </trkpt>
      <trkpt lat="44.52421" lon="1.96998">
        <ele>172.2</ele>
        <time>2015-10-31T09:45:38Z</time>
      </trkpt>
      <trkpt lat="44.5242" lon="1.96992">
        <ele>171.9</ele>
        <time>2015-10-31T09:45:39Z</time>
      </trkpt>
      <trkpt lat="44.52419" lon="1.96986">
        <ele>171.7</ele>
        <time>2015-10-31T09:45:40Z</time>
      </trkpt>
      <trkpt lat="44.52418" lon="1.9698">
        <ele>171.4</ele>
        <time>2015-10-31T09:45:41Z</time>
      </trkpt>
      <trkpt lat="44.52417" lon="1.96974">
        <ele>171</ele>
        <time>2015-10-31T09:45:42Z</time>
      </trkpt>
      <trkpt lat="44.52416" lon="1.96968">
        <ele>170.7</ele>
        <time>2015-10-31T09:45:43Z</time>
      </trkpt>
      <trkpt lat="44.52415" lon="1.96963">
        <ele>170.4</ele>
        <time>2015-10-31T09:45:44Z</time>
      </trkpt>
      <trkpt lat="44.52414" lon="1.96957">
        <ele>170.1</ele>
        <time>2015-10-31T09:45:45Z</time>
      </trkpt>
      <trkpt lat="44.52413" lon="1.96951">
        <ele>169.8</ele>
        <time>2015-10-31T09:45:46Z</time>
      </trkpt>
      <trkpt lat="44.52412" lon="1.96945">
        <ele>169.4</ele>
        <time>2015-10-31T09:45:47Z</time>
      </trkpt>
      <trkpt lat="44.5241" lon="1.9694">
        <ele>169.1</ele>
        <time>2015-10-31T09:45:48Z</time>
      </trkpt>
      <trkpt lat="44.52409" lon="1.96934">
        <ele>168.7</ele>
        <time>2015-10-31T09:45:49Z</time>
      </trkpt>
      <trkpt lat="44.52407" lon="1.96926">
        <ele>168.3</ele>
        <time>2015-10-31T09:45:50Z</time>
      </trkpt>
      <trkpt lat="44.52405" lon="1.96919">
        <ele>167.9</ele>
        <time>2015-10-31T09:45:51Z</time>
      </trkpt>
      <trkpt lat="44.52403" lon="1.96912">
        <ele>167.4</ele>
        <time>2015-10-31T09:45:52Z</time>
      </trkpt>
      <trkpt lat="44.524" lon="1.96907">
        <ele>167.2</ele>
        <time>2015-10-31T09:45:53Z</time>
      </trkpt>
      <trkpt lat="44.52399" lon="1.96901">
        <ele>166.9</ele>
        <time>2015-10-31T09:45:54Z</time>
      </trkpt>
      <trkpt lat="44.52397" lon="1.96896">
        <ele>166.6</ele>
        <time>2015-10-31T09:45:55Z</time>
      </trkpt>
      <trkpt lat="44.52394" lon="1.96891">
        <ele>166.3</ele>
        <time>2015-10-31T09:45:56Z</time>
      </trkpt>
      <trkpt lat="44.52393" lon="1.96885">
        <ele>165.9</ele>
        <time>2015-10-31T09:45:57Z</time>
      </trkpt>
      <trkpt lat="44.52391" lon="1.96879">
        <ele>165.6</ele>
        <time>2015-10-31T09:45:58Z</time>
      </trkpt>
      <trkpt lat="44.52388" lon="1.96873">
        <ele>165.3</ele>
        <time>2015-10-31T09:45:59Z</time>
      </trkpt>
      <trkpt lat="44.52386" lon="1.96867">
        <ele>165.2</ele>
        <time>2015-10-31T09:46:00Z</time>
      </trkpt>
      <trkpt lat="44.52384" lon="1.9686">
        <ele>165.1</ele>
        <time>2015-10-31T09:46:01Z</time>
      </trkpt>
      <trkpt lat="44.52381" lon="1.96855">
        <ele>165</ele>
        <time>2015-10-31T09:46:02Z</time>
      </trkpt>
      <trkpt lat="44.52379" lon="1.96849">
        <ele>164.9</ele>
        <time>2015-10-31T09:46:03Z</time>
      </trkpt>
      <trkpt lat="44.52377" lon="1.96843">
        <ele>164.8</ele>
        <time>2015-10-31T09:46:04Z</time>
      </trkpt>
      <trkpt lat="44.52374" lon="1.96837">
        <ele>164.8</ele>
        <time>2015-10-31T09:46:05Z</time>
      </trkpt>
      <trkpt lat="44.5237" lon="1.9683">
        <ele>165.1</ele>
        <time>2015-10-31T09:46:06Z</time>
      </trkpt>
      <trkpt lat="44.52367" lon="1.96824">
        <ele>165.3</ele>
        <time>2015-10-31T09:46:07Z</time>
      </trkpt>
      <trkpt lat="44.52361" lon="1.9682">
        <ele>165.9</ele>
        <time>2015-10-31T09:46:08Z</time>
      </trkpt>
      <trkpt lat="44.52358" lon="1.96814">
        <ele>166.2</ele>
        <time>2015-10-31T09:46:09Z</time>
      </trkpt>
      <trkpt lat="44.52354" lon="1.96807">
        <ele>166.5</ele>
        <time>2015-10-31T09:46:10Z</time>
      </trkpt>
      <trkpt lat="44.52349" lon="1.96801">
        <ele>166.8</ele>
        <time>2015-10-31T09:46:11Z</time>
      </trkpt>
      <trkpt lat="44.52344" lon="1.96793">
        <ele>167.1</ele>
        <time>2015-10-31T09:46:12Z</time>
      </trkpt>
      <trkpt lat="44.52338" lon="1.9679">
        <ele>167.8</ele>
        <time>2015-10-31T09:46:13Z</time>
      </trkpt>
      <trkpt lat="44.52334" lon="1.96788">
        <ele>168.3</ele>
        <time>2015-10-31T09:46:14Z</time>
      </trkpt>
      <trkpt lat="44.52327" lon="1.96785">
        <ele>169</ele>
        <time>2015-10-31T09:46:15Z</time>
      </trkpt>
      <trkpt lat="44.52321" lon="1.96784">
        <ele>169.8</ele>
        <time>2015-10-31T09:46:16Z</time>
      </trkpt>
      <trkpt lat="44.52319" lon="1.96771">
        <ele>169.2</ele>
        <time>2015-10-31T09:46:17Z</time>
      </trkpt>
      <trkpt lat="44.52314" lon="1.96764">
        <ele>169.2</ele>
        <time>2015-10-31T09:46:18Z</time>
      </trkpt>
      <trkpt lat="44.52309" lon="1.96755">
        <ele>169.2</ele>
        <time>2015-10-31T09:46:19Z</time>
      </trkpt>
      <trkpt lat="44.52305" lon="1.9675">
        <ele>169.3</ele>
        <time>2015-10-31T09:46:20Z</time>
      </trkpt>
      <trkpt lat="44.52301" lon="1.96743">
        <ele>169.1</ele>
        <time>2015-10-31T09:46:21Z</time>
      </trkpt>
      <trkpt lat="44.52297" lon="1.96741">
        <ele>169.3</ele>
        <time>2015-10-31T09:46:22Z</time>
      </trkpt>
      <trkpt lat="44.52289" lon="1.96733">
        <ele>169.5</ele>
        <time>2015-10-31T09:46:23Z</time>
      </trkpt>
      <trkpt lat="44.52284" lon="1.96726">
        <ele>169.6</ele>
        <time>2015-10-31T09:46:24Z</time>
      </trkpt>
      <trkpt lat="44.52279" lon="1.96719">
        <ele>169.7</ele>
        <time>2015-10-31T09:46:25Z</time>
      </trkpt>
      <trkpt lat="44.52274" lon="1.96712">
        <ele>169.7</ele>
        <time>2015-10-31T09:46:26Z</time>
      </trkpt>
      <trkpt lat="44.52268" lon="1.96706">
        <ele>170</ele>
        <time>2015-10-31T09:46:27Z</time>
      </trkpt>
      <trkpt lat="44.52262" lon="1.96703">
        <ele>170.5</ele>
        <time>2015-10-31T09:46:28Z</time>
      </trkpt>
      <trkpt lat="44.52259" lon="1.967">
        <ele>170.7</ele>
        <time>2015-10-31T09:46:29Z</time>
      </trkpt>
      <trkpt lat="44.52255" lon="1.96695">
        <ele>170.8</ele>
        <time>2015-10-31T09:46:30Z</time>
      </trkpt>
      <trkpt lat="44.52254" lon="1.96691">
        <ele>170.6</ele>
        <time>2015-10-31T09:46:31Z</time>
      </trkpt>
      <trkpt lat="44.52251" lon="1.96686">
        <ele>170.6</ele>
        <time>2015-10-31T09:46:32Z</time>
      </trkpt>
      <trkpt lat="44.52248" lon="1.96681">
        <ele>170.4</ele>
        <time>2015-10-31T09:46:33Z</time>
      </trkpt>
      <trkpt lat="44.52243" lon="1.96674">
        <ele>170.3</ele>
        <time>2015-10-31T09:46:34Z</time>
      </trkpt>
      <trkpt lat="44.52235" lon="1.96672">
        <ele>170.9</ele>
        <time>2015-10-31T09:46:35Z</time>
      </trkpt>
      <trkpt lat="44.5223" lon="1.96665">
        <ele>170.8</ele>
        <time>2015-10-31T09:46:36Z</time>
      </trkpt>
      <trkpt lat="44.52227" lon="1.96663">
        <ele>170.8</ele>
        <time>2015-10-31T09:46:37Z</time>
      </trkpt>
      <trkpt lat="44.5222" lon="1.96658">
        <ele>170.9</ele>
        <time>2015-10-31T09:46:38Z</time>
      </trkpt>
      <trkpt lat="44.52218" lon="1.96653">
        <ele>170.6</ele>
        <time>2015-10-31T09:46:39Z</time>
      </trkpt>
      <trkpt lat="44.52212" lon="1.96647">
        <ele>170.3</ele>
        <time>2015-10-31T09:46:40Z</time>
      </trkpt>
      <trkpt lat="44.52208" lon="1.96639">
        <ele>169.8</ele>
        <time>2015-10-31T09:46:41Z</time>
      </trkpt>
      <trkpt lat="44.52204" lon="1.96635">
        <ele>169.9</ele>
        <time>2015-10-31T09:46:42Z</time>
      </trkpt>
      <trkpt lat="44.522" lon="1.96629">
        <ele>170</ele>
        <time>2015-10-31T09:46:43Z</time>
      </trkpt>
      <trkpt lat="44.52195" lon="1.96622">
        <ele>170.2</ele>
        <time>2015-10-31T09:46:44Z</time>
      </trkpt>
      <trkpt lat="44.5219" lon="1.96615">
        <ele>170.6</ele>
        <time>2015-10-31T09:46:45Z</time>
      </trkpt>
      <trkpt lat="44.52188" lon="1.96613">
        <ele>171</ele>
        <time>2015-10-31T09:46:46Z</time>
      </trkpt>
      <trkpt lat="44.52184" lon="1.96607">
        <ele>171.2</ele>
        <time>2015-10-31T09:46:47Z</time>
      </trkpt>
      <trkpt lat="44.52181" lon="1.96601">
        <ele>171.5</ele>
        <time>2015-10-31T09:46:48Z</time>
      </trkpt>
      <trkpt lat="44.52177" lon="1.96596">
        <ele>171.8</ele>
        <time>2015-10-31T09:46:49Z</time>
      </trkpt>
      <trkpt lat="44.52176" lon="1.96592">
        <ele>171.7</ele>
        <time>2015-10-31T09:46:50Z</time>
      </trkpt>
      <trkpt lat="44.52171" lon="1.96586">
        <ele>172.1</ele>
        <time>2015-10-31T09:46:51Z</time>
      </trkpt>
      <trkpt lat="44.52169" lon="1.96582">
        <ele>172.3</ele>
        <time>2015-10-31T09:46:52Z</time>
      </trkpt>
      <trkpt lat="44.52167" lon="1.96578">
        <ele>172.4</ele>
        <time>2015-10-31T09:46:53Z</time>
      </trkpt>
      <trkpt lat="44.52163" lon="1.96572">
        <ele>172.7</ele>
        <time>2015-10-31T09:46:54Z</time>
      </trkpt>
      <trkpt lat="44.52158" lon="1.96567">
        <ele>173.1</ele>
        <time>2015-10-31T09:46:55Z</time>
      </trkpt>
      <trkpt lat="44.52154" lon="1.9656">
        <ele>173.3</ele>
        <time>2015-10-31T09:46:56Z</time>
      </trkpt>
      <trkpt lat="44.5215" lon="1.96555">
        <ele>173.8</ele>
        <time>2015-10-31T09:46:57Z</time>
      </trkpt>
      <trkpt lat="44.52146" lon="1.96549">
        <ele>173.9</ele>
        <time>2015-10-31T09:46:58Z</time>
      </trkpt>
      <trkpt lat="44.52145" lon="1.96541">
        <ele>173.6</ele>
        <time>2015-10-31T09:46:59Z</time>
      </trkpt>
      <trkpt lat="44.52142" lon="1.96535">
        <ele>173.8</ele>
        <time>2015-10-31T09:47:00Z</time>
      </trkpt>
      <trkpt lat="44.52139" lon="1.9653">
        <ele>173.8</ele>
        <time>2015-10-31T09:47:01Z</time>
      </trkpt>
      <trkpt lat="44.52138" lon="1.96524">
        <ele>173.7</ele>
        <time>2015-10-31T09:47:02Z</time>
      </trkpt>
      <trkpt lat="44.52135" lon="1.96515">
        <ele>173.6</ele>
        <time>2015-10-31T09:47:03Z</time>
      </trkpt>
      <trkpt lat="44.52134" lon="1.9651">
        <ele>173.4</ele>
        <time>2015-10-31T09:47:04Z</time>
      </trkpt>
      <trkpt lat="44.52132" lon="1.96503">
        <ele>173.2</ele>
        <time>2015-10-31T09:47:05Z</time>
      </trkpt>
      <trkpt lat="44.5213" lon="1.96497">
        <ele>173.1</ele>
        <time>2015-10-31T09:47:06Z</time>
      </trkpt>
      <trkpt lat="44.52129" lon="1.96492">
        <ele>172.9</ele>
        <time>2015-10-31T09:47:07Z</time>
      </trkpt>
      <trkpt lat="44.52128" lon="1.96486">
        <ele>172.6</ele>
        <time>2015-10-31T09:47:08Z</time>
      </trkpt>
      <trkpt lat="44.52127" lon="1.9648">
        <ele>172.3</ele>
        <time>2015-10-31T09:47:09Z</time>
      </trkpt>
      <trkpt lat="44.52126" lon="1.96475">
        <ele>172.1</ele>
        <time>2015-10-31T09:47:10Z</time>
      </trkpt>
      <trkpt lat="44.52124" lon="1.96469">
        <ele>172.2</ele>
        <time>2015-10-31T09:47:11Z</time>
      </trkpt>
      <trkpt lat="44.52123" lon="1.96465">
        <ele>172.2</ele>
        <time>2015-10-31T09:47:12Z</time>
      </trkpt>
      <trkpt lat="44.52122" lon="1.9646">
        <ele>172.3</ele>
        <time>2015-10-31T09:47:13Z</time>
      </trkpt>
      <trkpt lat="44.52119" lon="1.96453">
        <ele>172.8</ele>
        <time>2015-10-31T09:47:14Z</time>
      </trkpt>
      <trkpt lat="44.52119" lon="1.96446">
        <ele>172.8</ele>
        <time>2015-10-31T09:47:15Z</time>
      </trkpt>
      <trkpt lat="44.52118" lon="1.96438">
        <ele>172.8</ele>
        <time>2015-10-31T09:47:16Z</time>
      </trkpt>
      <trkpt lat="44.52116" lon="1.96431">
        <ele>173.2</ele>
        <time>2015-10-31T09:47:17Z</time>
      </trkpt>
      <trkpt lat="44.52115" lon="1.96422">
        <ele>173.1</ele>
        <time>2015-10-31T09:47:18Z</time>
      </trkpt>
      <trkpt lat="44.52111" lon="1.96415">
        <ele>173.7</ele>
        <time>2015-10-31T09:47:19Z</time>
      </trkpt>
      <trkpt lat="44.52109" lon="1.96407">
        <ele>173.7</ele>
        <time>2015-10-31T09:47:20Z</time>
      </trkpt>
      <trkpt lat="44.52108" lon="1.96402">
        <ele>173.7</ele>
        <time>2015-10-31T09:47:21Z</time>
      </trkpt>
      <trkpt lat="44.52106" lon="1.96397">
        <ele>174.1</ele>
        <time>2015-10-31T09:47:22Z</time>
      </trkpt>
      <trkpt lat="44.52102" lon="1.9639">
        <ele>174.4</ele>
        <time>2015-10-31T09:47:23Z</time>
      </trkpt>
      <trkpt lat="44.52101" lon="1.96382">
        <ele>174.1</ele>
        <time>2015-10-31T09:47:24Z</time>
      </trkpt>
      <trkpt lat="44.52099" lon="1.96377">
        <ele>174.1</ele>
        <time>2015-10-31T09:47:25Z</time>
      </trkpt>
      <trkpt lat="44.52096" lon="1.96374">
        <ele>174.6</ele>
        <time>2015-10-31T09:47:26Z</time>
      </trkpt>
      <trkpt lat="44.52093" lon="1.96365">
        <ele>174.7</ele>
        <time>2015-10-31T09:47:27Z</time>
      </trkpt>
      <trkpt lat="44.52096" lon="1.9636">
        <ele>174</ele>
        <time>2015-10-31T09:47:28Z</time>
      </trkpt>
      <trkpt lat="44.52099" lon="1.96357">
        <ele>173.4</ele>
        <time>2015-10-31T09:47:29Z</time>
      </trkpt>
      <trkpt lat="44.52087" lon="1.96333">
        <ele>174</ele>
        <time>2015-10-31T09:47:31Z</time>
      </trkpt>
      <trkpt lat="44.52079" lon="1.9633">
        <ele>174.9</ele>
        <time>2015-10-31T09:47:32Z</time>
      </trkpt>
      <trkpt lat="44.52073" lon="1.96325">
        <ele>175.3</ele>
        <time>2015-10-31T09:47:33Z</time>
      </trkpt>
      <trkpt lat="44.5207" lon="1.96321">
        <ele>175.4</ele>
        <time>2015-10-31T09:47:34Z</time>
      </trkpt>
      <trkpt lat="44.52065" lon="1.96316">
        <ele>175.4</ele>
        <time>2015-10-31T09:47:35Z</time>
      </trkpt>
      <trkpt lat="44.52062" lon="1.96309">
        <ele>175.1</ele>
        <time>2015-10-31T09:47:36Z</time>
      </trkpt>
      <trkpt lat="44.52059" lon="1.96302">
        <ele>174.7</ele>
        <time>2015-10-31T09:47:37Z</time>
      </trkpt>
      <trkpt lat="44.52057" lon="1.96298">
        <ele>174.6</ele>
        <time>2015-10-31T09:47:38Z</time>
      </trkpt>
      <trkpt lat="44.52054" lon="1.96294">
        <ele>174.3</ele>
        <time>2015-10-31T09:47:39Z</time>
      </trkpt>
      <trkpt lat="44.52053" lon="1.96288">
        <ele>173.7</ele>
        <time>2015-10-31T09:47:40Z</time>
      </trkpt>
      <trkpt lat="44.52051" lon="1.96285">
        <ele>173.6</ele>
        <time>2015-10-31T09:47:41Z</time>
      </trkpt>
      <trkpt lat="44.52048" lon="1.96281">
        <ele>173.4</ele>
        <time>2015-10-31T09:47:42Z</time>
      </trkpt>
      <trkpt lat="44.52043" lon="1.96275">
        <ele>173.1</ele>
        <time>2015-10-31T09:47:43Z</time>
      </trkpt>
      <trkpt lat="44.5204" lon="1.96272">
        <ele>173.4</ele>
        <time>2015-10-31T09:47:44Z</time>
      </trkpt>
      <trkpt lat="44.52036" lon="1.96266">
        <ele>173.7</ele>
        <time>2015-10-31T09:47:45Z</time>
      </trkpt>
      <trkpt lat="44.52033" lon="1.9626">
        <ele>174</ele>
        <time>2015-10-31T09:47:46Z</time>
      </trkpt>
      <trkpt lat="44.5203" lon="1.96254">
        <ele>174.1</ele>
        <time>2015-10-31T09:47:47Z</time>
      </trkpt>
      <trkpt lat="44.52027" lon="1.96248">
        <ele>174.2</ele>
        <time>2015-10-31T09:47:48Z</time>
      </trkpt>
      <trkpt lat="44.52022" lon="1.96242">
        <ele>174.5</ele>
        <time>2015-10-31T09:47:49Z</time>
      </trkpt>
      <trkpt lat="44.52019" lon="1.96238">
        <ele>174.6</ele>
        <time>2015-10-31T09:47:50Z</time>
      </trkpt>
      <trkpt lat="44.52017" lon="1.96234">
        <ele>174.4</ele>
        <time>2015-10-31T09:47:51Z</time>
      </trkpt>
      <trkpt lat="44.52011" lon="1.96227">
        <ele>174.9</ele>
        <time>2015-10-31T09:47:52Z</time>
      </trkpt>
      <trkpt lat="44.52006" lon="1.96221">
        <ele>175</ele>
        <time>2015-10-31T09:47:53Z</time>
      </trkpt>
      <trkpt lat="44.52001" lon="1.96212">
        <ele>174.4</ele>
        <time>2015-10-31T09:47:54Z</time>
      </trkpt>
      <trkpt lat="44.51997" lon="1.96207">
        <ele>174.5</ele>
        <time>2015-10-31T09:47:55Z</time>
      </trkpt>
      <trkpt lat="44.51996" lon="1.96198">
        <ele>174</ele>
        <time>2015-10-31T09:47:56Z</time>
      </trkpt>
      <trkpt lat="44.51993" lon="1.96191">
        <ele>174</ele>
        <time>2015-10-31T09:47:57Z</time>
      </trkpt>
      <trkpt lat="44.51994" lon="1.96183">
        <ele>173.3</ele>
        <time>2015-10-31T09:47:58Z</time>
      </trkpt>
      <trkpt lat="44.51992" lon="1.96174">
        <ele>172.9</ele>
        <time>2015-10-31T09:47:59Z</time>
      </trkpt>
      <trkpt lat="44.51988" lon="1.96171">
        <ele>173.3</ele>
        <time>2015-10-31T09:48:00Z</time>
      </trkpt>
      <trkpt lat="44.51985" lon="1.96164">
        <ele>173.4</ele>
        <time>2015-10-31T09:48:01Z</time>
      </trkpt>
      <trkpt lat="44.51981" lon="1.96159">
        <ele>173.4</ele>
        <time>2015-10-31T09:48:02Z</time>
      </trkpt>
      <trkpt lat="44.51976" lon="1.96157">
        <ele>173.9</ele>
        <time>2015-10-31T09:48:03Z</time>
      </trkpt>
      <trkpt lat="44.51973" lon="1.9615">
        <ele>173.7</ele>
        <time>2015-10-31T09:48:04Z</time>
      </trkpt>
      <trkpt lat="44.5197" lon="1.96145">
        <ele>173.7</ele>
        <time>2015-10-31T09:48:05Z</time>
      </trkpt>
      <trkpt lat="44.5197" lon="1.96139">
        <ele>173.1</ele>
        <time>2015-10-31T09:48:06Z</time>
      </trkpt>
      <trkpt lat="44.51968" lon="1.96133">
        <ele>172.7</ele>
        <time>2015-10-31T09:48:07Z</time>
      </trkpt>
      <trkpt lat="44.51965" lon="1.96125">
        <ele>172.3</ele>
        <time>2015-10-31T09:48:08Z</time>
      </trkpt>
      <trkpt lat="44.51966" lon="1.96119">
        <ele>172</ele>
        <time>2015-10-31T09:48:09Z</time>
      </trkpt>
      <trkpt lat="44.5196" lon="1.96112">
        <ele>172.3</ele>
        <time>2015-10-31T09:48:10Z</time>
      </trkpt>
      <trkpt lat="44.51958" lon="1.96106">
        <ele>172.6</ele>
        <time>2015-10-31T09:48:11Z</time>
      </trkpt>
      <trkpt lat="44.51952" lon="1.96101">
        <ele>173.9</ele>
        <time>2015-10-31T09:48:12Z</time>
      </trkpt>
      <trkpt lat="44.51951" lon="1.96092">
        <ele>173.8</ele>
        <time>2015-10-31T09:48:13Z</time>
      </trkpt>
      <trkpt lat="44.51947" lon="1.96086">
        <ele>174.8</ele>
        <time>2015-10-31T09:48:14Z</time>
      </trkpt>
      <trkpt lat="44.51944" lon="1.96079">
        <ele>175.1</ele>
        <time>2015-10-31T09:48:15Z</time>
      </trkpt>
      <trkpt lat="44.51941" lon="1.96072">
        <ele>175.4</ele>
        <time>2015-10-31T09:48:16Z</time>
      </trkpt>
      <trkpt lat="44.51935" lon="1.96066">
        <ele>176.3</ele>
        <time>2015-10-31T09:48:17Z</time>
      </trkpt>
      <trkpt lat="44.51931" lon="1.96059">
        <ele>176.7</ele>
        <time>2015-10-31T09:48:18Z</time>
      </trkpt>
      <trkpt lat="44.51928" lon="1.96055">
        <ele>177</ele>
        <time>2015-10-31T09:48:19Z</time>
      </trkpt>
      <trkpt lat="44.51927" lon="1.9605">
        <ele>176.8</ele>
        <time>2015-10-31T09:48:20Z</time>
      </trkpt>
      <trkpt lat="44.51924" lon="1.96043">
        <ele>176.8</ele>
        <time>2015-10-31T09:48:21Z</time>
      </trkpt>
      <trkpt lat="44.51922" lon="1.96035">
        <ele>176.5</ele>
        <time>2015-10-31T09:48:22Z</time>
      </trkpt>
      <trkpt lat="44.51918" lon="1.9603">
        <ele>176.8</ele>
        <time>2015-10-31T09:48:23Z</time>
      </trkpt>
      <trkpt lat="44.51915" lon="1.96025">
        <ele>177.1</ele>
        <time>2015-10-31T09:48:24Z</time>
      </trkpt>
      <trkpt lat="44.51911" lon="1.96019">
        <ele>177.2</ele>
        <time>2015-10-31T09:48:25Z</time>
      </trkpt>
      <trkpt lat="44.51909" lon="1.96014">
        <ele>177.1</ele>
        <time>2015-10-31T09:48:26Z</time>
      </trkpt>
      <trkpt lat="44.51907" lon="1.96009">
        <ele>177.1</ele>
        <time>2015-10-31T09:48:27Z</time>
      </trkpt>
      <trkpt lat="44.51904" lon="1.96003">
        <ele>177.1</ele>
        <time>2015-10-31T09:48:28Z</time>
      </trkpt>
      <trkpt lat="44.51903" lon="1.95998">
        <ele>176.7</ele>
        <time>2015-10-31T09:48:29Z</time>
      </trkpt>
      <trkpt lat="44.51901" lon="1.95992">
        <ele>176.5</ele>
        <time>2015-10-31T09:48:30Z</time>
      </trkpt>
      <trkpt lat="44.51898" lon="1.95985">
        <ele>176.4</ele>
        <time>2015-10-31T09:48:31Z</time>
      </trkpt>
      <trkpt lat="44.51897" lon="1.95977">
        <ele>175.9</ele>
        <time>2015-10-31T09:48:32Z</time>
      </trkpt>
      <trkpt lat="44.51894" lon="1.9597">
        <ele>175.7</ele>
        <time>2015-10-31T09:48:33Z</time>
      </trkpt>
      <trkpt lat="44.51891" lon="1.95966">
        <ele>175.7</ele>
        <time>2015-10-31T09:48:34Z</time>
      </trkpt>
      <trkpt lat="44.51886" lon="1.95962">
        <ele>175.9</ele>
        <time>2015-10-31T09:48:35Z</time>
      </trkpt>
      <trkpt lat="44.51881" lon="1.95956">
        <ele>176</ele>
        <time>2015-10-31T09:48:36Z</time>
      </trkpt>
      <trkpt lat="44.51882" lon="1.95952">
        <ele>175.4</ele>
        <time>2015-10-31T09:48:37Z</time>
      </trkpt>
      <trkpt lat="44.51878" lon="1.95946">
        <ele>175.5</ele>
        <time>2015-10-31T09:48:38Z</time>
      </trkpt>
      <trkpt lat="44.51876" lon="1.95939">
        <ele>175</ele>
        <time>2015-10-31T09:48:39Z</time>
      </trkpt>
      <trkpt lat="44.51876" lon="1.95933">
        <ele>174.5</ele>
        <time>2015-10-31T09:48:40Z</time>
      </trkpt>
      <trkpt lat="44.51875" lon="1.95925">
        <ele>173.8</ele>
        <time>2015-10-31T09:48:41Z</time>
      </trkpt>
      <trkpt lat="44.51873" lon="1.95918">
        <ele>173.9</ele>
        <time>2015-10-31T09:48:42Z</time>
      </trkpt>
      <trkpt lat="44.5187" lon="1.9591">
        <ele>173.9</ele>
        <time>2015-10-31T09:48:43Z</time>
      </trkpt>
      <trkpt lat="44.51865" lon="1.959">
        <ele>174.5</ele>
        <time>2015-10-31T09:48:44Z</time>
      </trkpt>
      <trkpt lat="44.51864" lon="1.95892">
        <ele>173.9</ele>
        <time>2015-10-31T09:48:45Z</time>
      </trkpt>
      <trkpt lat="44.51862" lon="1.95888">
        <ele>174</ele>
        <time>2015-10-31T09:48:46Z</time>
      </trkpt>
      <trkpt lat="44.51859" lon="1.95884">
        <ele>174.6</ele>
        <time>2015-10-31T09:48:47Z</time>
      </trkpt>
      <trkpt lat="44.51857" lon="1.95879">
        <ele>174.7</ele>
        <time>2015-10-31T09:48:48Z</time>
      </trkpt>
      <trkpt lat="44.51855" lon="1.95873">
        <ele>174.6</ele>
        <time>2015-10-31T09:48:49Z</time>
      </trkpt>
      <trkpt lat="44.51854" lon="1.95868">
        <ele>174.7</ele>
        <time>2015-10-31T09:48:50Z</time>
      </trkpt>
      <trkpt lat="44.51852" lon="1.95861">
        <ele>174.8</ele>
        <time>2015-10-31T09:48:51Z</time>
      </trkpt>
      <trkpt lat="44.51854" lon="1.95857">
        <ele>174.1</ele>
        <time>2015-10-31T09:48:52Z</time>
      </trkpt>
      <trkpt lat="44.51859" lon="1.95854">
        <ele>172.5</ele>
        <time>2015-10-31T09:48:54Z</time>
      </trkpt>
      <trkpt lat="44.51864" lon="1.95852">
        <ele>171.3</ele>
        <time>2015-10-31T09:48:56Z</time>
      </trkpt>
      <trkpt lat="44.51868" lon="1.9585">
        <ele>169.9</ele>
        <time>2015-10-31T09:48:58Z</time>
      </trkpt>
      <trkpt lat="44.51871" lon="1.95848">
        <ele>169.2</ele>
        <time>2015-10-31T09:48:59Z</time>
      </trkpt>
      <trkpt lat="44.51873" lon="1.95846">
        <ele>168.5</ele>
        <time>2015-10-31T09:49:00Z</time>
      </trkpt>
      <trkpt lat="44.51875" lon="1.95843">
        <ele>167.8</ele>
        <time>2015-10-31T09:49:01Z</time>
      </trkpt>
      <trkpt lat="44.51878" lon="1.95841">
        <ele>167.5</ele>
        <time>2015-10-31T09:49:02Z</time>
      </trkpt>
      <trkpt lat="44.5188" lon="1.9584">
        <ele>167.2</ele>
        <time>2015-10-31T09:49:03Z</time>
      </trkpt>
      <trkpt lat="44.51885" lon="1.95837">
        <ele>166.6</ele>
        <time>2015-10-31T09:49:05Z</time>
      </trkpt>
      <trkpt lat="44.51889" lon="1.95834">
        <ele>166.1</ele>
        <time>2015-10-31T09:49:07Z</time>
      </trkpt>
      <trkpt lat="44.51892" lon="1.9583">
        <ele>165.7</ele>
        <time>2015-10-31T09:49:09Z</time>
      </trkpt>
      <trkpt lat="44.51895" lon="1.95828">
        <ele>165.3</ele>
        <time>2015-10-31T09:49:11Z</time>
      </trkpt>
      <trkpt lat="44.51899" lon="1.95824">
        <ele>164.9</ele>
        <time>2015-10-31T09:49:13Z</time>
      </trkpt>
      <trkpt lat="44.51903" lon="1.95822">
        <ele>164.4</ele>
        <time>2015-10-31T09:49:15Z</time>
      </trkpt>
      <trkpt lat="44.51906" lon="1.95821">
        <ele>164.2</ele>
        <time>2015-10-31T09:49:17Z</time>
      </trkpt>
      <trkpt lat="44.51904" lon="1.95817">
        <ele>164.3</ele>
        <time>2015-10-31T09:49:58Z</time>
      </trkpt>
      <trkpt lat="44.51904" lon="1.95823">
        <ele>164.4</ele>
        <time>2015-10-31T09:51:08Z</time>
      </trkpt>
      <trkpt lat="44.51906" lon="1.9582">
        <ele>164.1</ele>
        <time>2015-10-31T09:51:10Z</time>
      </trkpt>
      <trkpt lat="44.51909" lon="1.95819">
        <ele>163.9</ele>
        <time>2015-10-31T09:51:11Z</time>
      </trkpt>
      <trkpt lat="44.51916" lon="1.95814">
        <ele>163.2</ele>
        <time>2015-10-31T09:51:13Z</time>
      </trkpt>
      <trkpt lat="44.51918" lon="1.95812">
        <ele>163</ele>
        <time>2015-10-31T09:51:14Z</time>
      </trkpt>
      <trkpt lat="44.51922" lon="1.95808">
        <ele>162.6</ele>
        <time>2015-10-31T09:51:15Z</time>
      </trkpt>
      <trkpt lat="44.51925" lon="1.95806">
        <ele>162.4</ele>
        <time>2015-10-31T09:51:16Z</time>
      </trkpt>
      <trkpt lat="44.5193" lon="1.95801">
        <ele>162</ele>
        <time>2015-10-31T09:51:17Z</time>
      </trkpt>
      <trkpt lat="44.51934" lon="1.95798">
        <ele>161.7</ele>
        <time>2015-10-31T09:51:18Z</time>
      </trkpt>
      <trkpt lat="44.51939" lon="1.95796">
        <ele>161.4</ele>
        <time>2015-10-31T09:51:19Z</time>
      </trkpt>
      <trkpt lat="44.51943" lon="1.95793">
        <ele>161.1</ele>
        <time>2015-10-31T09:51:20Z</time>
      </trkpt>
      <trkpt lat="44.51947" lon="1.95791">
        <ele>160.8</ele>
        <time>2015-10-31T09:51:21Z</time>
      </trkpt>
      <trkpt lat="44.51951" lon="1.95789">
        <ele>160.5</ele>
        <time>2015-10-31T09:51:22Z</time>
      </trkpt>
      <trkpt lat="44.51955" lon="1.95787">
        <ele>160.3</ele>
        <time>2015-10-31T09:51:23Z</time>
      </trkpt>
      <trkpt lat="44.51958" lon="1.95785">
        <ele>160.1</ele>
        <time>2015-10-31T09:51:24Z</time>
      </trkpt>
      <trkpt lat="44.51962" lon="1.95783">
        <ele>160</ele>
        <time>2015-10-31T09:51:26Z</time>
      </trkpt>
      <trkpt lat="44.51965" lon="1.9578">
        <ele>159.9</ele>
        <time>2015-10-31T09:51:28Z</time>
      </trkpt>
      <trkpt lat="44.5197" lon="1.95777">
        <ele>159.8</ele>
        <time>2015-10-31T09:51:30Z</time>
      </trkpt>
      <trkpt lat="44.51972" lon="1.95775">
        <ele>159.8</ele>
        <time>2015-10-31T09:51:31Z</time>
      </trkpt>
      <trkpt lat="44.51975" lon="1.95773">
        <ele>159.7</ele>
        <time>2015-10-31T09:51:32Z</time>
      </trkpt>
      <trkpt lat="44.51978" lon="1.9577">
        <ele>159.7</ele>
        <time>2015-10-31T09:51:33Z</time>
      </trkpt>
      <trkpt lat="44.51981" lon="1.95768">
        <ele>159.6</ele>
        <time>2015-10-31T09:51:34Z</time>
      </trkpt>
      <trkpt lat="44.51985" lon="1.95765">
        <ele>159.6</ele>
        <time>2015-10-31T09:51:35Z</time>
      </trkpt>
      <trkpt lat="44.51989" lon="1.95763">
        <ele>159.5</ele>
        <time>2015-10-31T09:51:36Z</time>
      </trkpt>
      <trkpt lat="44.51993" lon="1.95759">
        <ele>159.4</ele>
        <time>2015-10-31T09:51:37Z</time>
      </trkpt>
      <trkpt lat="44.51997" lon="1.95755">
        <ele>159.3</ele>
        <time>2015-10-31T09:51:38Z</time>
      </trkpt>
      <trkpt lat="44.52002" lon="1.95747">
        <ele>159.2</ele>
        <time>2015-10-31T09:51:39Z</time>
      </trkpt>
      <trkpt lat="44.52004" lon="1.95743">
        <ele>159.1</ele>
        <time>2015-10-31T09:51:40Z</time>
      </trkpt>
      <trkpt lat="44.52008" lon="1.95738">
        <ele>159</ele>
        <time>2015-10-31T09:51:41Z</time>
      </trkpt>
      <trkpt lat="44.52012" lon="1.95733">
        <ele>158.9</ele>
        <time>2015-10-31T09:51:42Z</time>
      </trkpt>
      <trkpt lat="44.52017" lon="1.95729">
        <ele>158.8</ele>
        <time>2015-10-31T09:51:43Z</time>
      </trkpt>
      <trkpt lat="44.5202" lon="1.95722">
        <ele>158.6</ele>
        <time>2015-10-31T09:51:44Z</time>
      </trkpt>
      <trkpt lat="44.52021" lon="1.95716">
        <ele>158.6</ele>
        <time>2015-10-31T09:51:45Z</time>
      </trkpt>
      <trkpt lat="44.52025" lon="1.9571">
        <ele>158.4</ele>
        <time>2015-10-31T09:51:46Z</time>
      </trkpt>
      <trkpt lat="44.52026" lon="1.95703">
        <ele>158.3</ele>
        <time>2015-10-31T09:51:47Z</time>
      </trkpt>
      <trkpt lat="44.5203" lon="1.95698">
        <ele>158.2</ele>
        <time>2015-10-31T09:51:48Z</time>
      </trkpt>
      <trkpt lat="44.52035" lon="1.95693">
        <ele>158.1</ele>
        <time>2015-10-31T09:51:49Z</time>
      </trkpt>
      <trkpt lat="44.52037" lon="1.95687">
        <ele>158.1</ele>
        <time>2015-10-31T09:51:50Z</time>
      </trkpt>
      <trkpt lat="44.52041" lon="1.95682">
        <ele>158</ele>
        <time>2015-10-31T09:51:51Z</time>
      </trkpt>
      <trkpt lat="44.52044" lon="1.95674">
        <ele>158</ele>
        <time>2015-10-31T09:51:52Z</time>
      </trkpt>
      <trkpt lat="44.52048" lon="1.95668">
        <ele>158</ele>
        <time>2015-10-31T09:51:53Z</time>
      </trkpt>
      <trkpt lat="44.52051" lon="1.95662">
        <ele>158</ele>
        <time>2015-10-31T09:51:54Z</time>
      </trkpt>
      <trkpt lat="44.52055" lon="1.95654">
        <ele>158</ele>
        <time>2015-10-31T09:51:55Z</time>
      </trkpt>
      <trkpt lat="44.52058" lon="1.95648">
        <ele>158.1</ele>
        <time>2015-10-31T09:51:56Z</time>
      </trkpt>
      <trkpt lat="44.52061" lon="1.95642">
        <ele>158.1</ele>
        <time>2015-10-31T09:51:57Z</time>
      </trkpt>
      <trkpt lat="44.52064" lon="1.95635">
        <ele>158.2</ele>
        <time>2015-10-31T09:51:58Z</time>
      </trkpt>
      <trkpt lat="44.52067" lon="1.95629">
        <ele>158.3</ele>
        <time>2015-10-31T09:51:59Z</time>
      </trkpt>
      <trkpt lat="44.52072" lon="1.95628">
        <ele>158.3</ele>
        <time>2015-10-31T09:52:00Z</time>
      </trkpt>
      <trkpt lat="44.52076" lon="1.95623">
        <ele>158.4</ele>
        <time>2015-10-31T09:52:01Z</time>
      </trkpt>
      <trkpt lat="44.52079" lon="1.95616">
        <ele>158.4</ele>
        <time>2015-10-31T09:52:02Z</time>
      </trkpt>
      <trkpt lat="44.5208" lon="1.95611">
        <ele>158.5</ele>
        <time>2015-10-31T09:52:03Z</time>
      </trkpt>
      <trkpt lat="44.52083" lon="1.95605">
        <ele>158.5</ele>
        <time>2015-10-31T09:52:04Z</time>
      </trkpt>
      <trkpt lat="44.52086" lon="1.95597">
        <ele>158.5</ele>
        <time>2015-10-31T09:52:05Z</time>
      </trkpt>
      <trkpt lat="44.52089" lon="1.95592">
        <ele>158.6</ele>
        <time>2015-10-31T09:52:06Z</time>
      </trkpt>
      <trkpt lat="44.52093" lon="1.95587">
        <ele>158.6</ele>
        <time>2015-10-31T09:52:07Z</time>
      </trkpt>
      <trkpt lat="44.52097" lon="1.95582">
        <ele>158.7</ele>
        <time>2015-10-31T09:52:08Z</time>
      </trkpt>
      <trkpt lat="44.52098" lon="1.95577">
        <ele>158.7</ele>
        <time>2015-10-31T09:52:09Z</time>
      </trkpt>
      <trkpt lat="44.52101" lon="1.95571">
        <ele>158.7</ele>
        <time>2015-10-31T09:52:10Z</time>
      </trkpt>
      <trkpt lat="44.52105" lon="1.95567">
        <ele>158.8</ele>
        <time>2015-10-31T09:52:11Z</time>
      </trkpt>
      <trkpt lat="44.52109" lon="1.9556">
        <ele>158.8</ele>
        <time>2015-10-31T09:52:12Z</time>
      </trkpt>
      <trkpt lat="44.52112" lon="1.95556">
        <ele>158.8</ele>
        <time>2015-10-31T09:52:13Z</time>
      </trkpt>
      <trkpt lat="44.52116" lon="1.9555">
        <ele>158.9</ele>
        <time>2015-10-31T09:52:14Z</time>
      </trkpt>
      <trkpt lat="44.52119" lon="1.95544">
        <ele>158.9</ele>
        <time>2015-10-31T09:52:15Z</time>
      </trkpt>
      <trkpt lat="44.52123" lon="1.95538">
        <ele>158.9</ele>
        <time>2015-10-31T09:52:16Z</time>
      </trkpt>
      <trkpt lat="44.52126" lon="1.95533">
        <ele>158.9</ele>
        <time>2015-10-31T09:52:17Z</time>
      </trkpt>
      <trkpt lat="44.52128" lon="1.95527">
        <ele>158.8</ele>
        <time>2015-10-31T09:52:18Z</time>
      </trkpt>
      <trkpt lat="44.5213" lon="1.9552">
        <ele>158.8</ele>
        <time>2015-10-31T09:52:19Z</time>
      </trkpt>
      <trkpt lat="44.52132" lon="1.95512">
        <ele>158.7</ele>
        <time>2015-10-31T09:52:20Z</time>
      </trkpt>
      <trkpt lat="44.52135" lon="1.95509">
        <ele>158.7</ele>
        <time>2015-10-31T09:52:21Z</time>
      </trkpt>
      <trkpt lat="44.52138" lon="1.95504">
        <ele>158.6</ele>
        <time>2015-10-31T09:52:22Z</time>
      </trkpt>
      <trkpt lat="44.52141" lon="1.955">
        <ele>158.6</ele>
        <time>2015-10-31T09:52:23Z</time>
      </trkpt>
      <trkpt lat="44.52147" lon="1.95488">
        <ele>158.5</ele>
        <time>2015-10-31T09:52:25Z</time>
      </trkpt>
      <trkpt lat="44.5215" lon="1.95482">
        <ele>158.5</ele>
        <time>2015-10-31T09:52:26Z</time>
      </trkpt>
      <trkpt lat="44.52152" lon="1.95476">
        <ele>158.5</ele>
        <time>2015-10-31T09:52:27Z</time>
      </trkpt>
      <trkpt lat="44.52162" lon="1.95455">
        <ele>158.4</ele>
        <time>2015-10-31T09:52:31Z</time>
      </trkpt>
      <trkpt lat="44.52164" lon="1.95447">
        <ele>158.5</ele>
        <time>2015-10-31T09:52:32Z</time>
      </trkpt>
      <trkpt lat="44.52166" lon="1.9544">
        <ele>158.5</ele>
        <time>2015-10-31T09:52:33Z</time>
      </trkpt>
      <trkpt lat="44.52168" lon="1.95431">
        <ele>158.5</ele>
        <time>2015-10-31T09:52:34Z</time>
      </trkpt>
      <trkpt lat="44.52169" lon="1.95428">
        <ele>158.5</ele>
        <time>2015-10-31T09:52:35Z</time>
      </trkpt>
      <trkpt lat="44.52171" lon="1.95422">
        <ele>158.5</ele>
        <time>2015-10-31T09:52:36Z</time>
      </trkpt>
      <trkpt lat="44.52173" lon="1.95416">
        <ele>158.5</ele>
        <time>2015-10-31T09:52:37Z</time>
      </trkpt>
      <trkpt lat="44.52176" lon="1.9541">
        <ele>158.5</ele>
        <time>2015-10-31T09:52:38Z</time>
      </trkpt>
      <trkpt lat="44.52179" lon="1.95401">
        <ele>158.4</ele>
        <time>2015-10-31T09:52:40Z</time>
      </trkpt>
      <trkpt lat="44.52183" lon="1.95395">
        <ele>158.4</ele>
        <time>2015-10-31T09:52:41Z</time>
      </trkpt>
      <trkpt lat="44.52187" lon="1.95389">
        <ele>158.3</ele>
        <time>2015-10-31T09:52:42Z</time>
      </trkpt>
      <trkpt lat="44.52189" lon="1.95384">
        <ele>158.3</ele>
        <time>2015-10-31T09:52:43Z</time>
      </trkpt>
      <trkpt lat="44.52192" lon="1.95378">
        <ele>158.2</ele>
        <time>2015-10-31T09:52:44Z</time>
      </trkpt>
      <trkpt lat="44.52195" lon="1.95373">
        <ele>158.2</ele>
        <time>2015-10-31T09:52:45Z</time>
      </trkpt>
      <trkpt lat="44.52198" lon="1.9537">
        <ele>158.1</ele>
        <time>2015-10-31T09:52:46Z</time>
      </trkpt>
      <trkpt lat="44.522" lon="1.95367">
        <ele>158.1</ele>
        <time>2015-10-31T09:52:47Z</time>
      </trkpt>
      <trkpt lat="44.52203" lon="1.95361">
        <ele>158</ele>
        <time>2015-10-31T09:52:48Z</time>
      </trkpt>
      <trkpt lat="44.52206" lon="1.95355">
        <ele>158</ele>
        <time>2015-10-31T09:52:49Z</time>
      </trkpt>
      <trkpt lat="44.52208" lon="1.9535">
        <ele>158</ele>
        <time>2015-10-31T09:52:50Z</time>
      </trkpt>
      <trkpt lat="44.52213" lon="1.95346">
        <ele>158.1</ele>
        <time>2015-10-31T09:52:51Z</time>
      </trkpt>
      <trkpt lat="44.52215" lon="1.95344">
        <ele>158.1</ele>
        <time>2015-10-31T09:52:52Z</time>
      </trkpt>
      <trkpt lat="44.52215" lon="1.9534">
        <ele>158.1</ele>
        <time>2015-10-31T09:52:53Z</time>
      </trkpt>
      <trkpt lat="44.52218" lon="1.95336">
        <ele>158.1</ele>
        <time>2015-10-31T09:52:54Z</time>
      </trkpt>
      <trkpt lat="44.5222" lon="1.95333">
        <ele>158.1</ele>
        <time>2015-10-31T09:52:55Z</time>
      </trkpt>
      <trkpt lat="44.52223" lon="1.95328">
        <ele>158.2</ele>
        <time>2015-10-31T09:52:57Z</time>
      </trkpt>
      <trkpt lat="44.52226" lon="1.9532">
        <ele>158.2</ele>
        <time>2015-10-31T09:53:42Z</time>
      </trkpt>
      <trkpt lat="44.52227" lon="1.95315">
        <ele>158.2</ele>
        <time>2015-10-31T09:53:44Z</time>
      </trkpt>
      <trkpt lat="44.52229" lon="1.95311">
        <ele>158.2</ele>
        <time>2015-10-31T09:53:45Z</time>
      </trkpt>
      <trkpt lat="44.52232" lon="1.95306">
        <ele>158.3</ele>
        <time>2015-10-31T09:53:47Z</time>
      </trkpt>
      <trkpt lat="44.52236" lon="1.95301">
        <ele>158.3</ele>
        <time>2015-10-31T09:53:49Z</time>
      </trkpt>
      <trkpt lat="44.52238" lon="1.95297">
        <ele>158.4</ele>
        <time>2015-10-31T09:53:50Z</time>
      </trkpt>
      <trkpt lat="44.5224" lon="1.95293">
        <ele>158.4</ele>
        <time>2015-10-31T09:53:51Z</time>
      </trkpt>
      <trkpt lat="44.52242" lon="1.9529">
        <ele>158.4</ele>
        <time>2015-10-31T09:53:52Z</time>
      </trkpt>
      <trkpt lat="44.52244" lon="1.95286">
        <ele>158.5</ele>
        <time>2015-10-31T09:53:53Z</time>
      </trkpt>
      <trkpt lat="44.52246" lon="1.95283">
        <ele>158.5</ele>
        <time>2015-10-31T09:53:54Z</time>
      </trkpt>
      <trkpt lat="44.52248" lon="1.95279">
        <ele>158.5</ele>
        <time>2015-10-31T09:53:55Z</time>
      </trkpt>
      <trkpt lat="44.5225" lon="1.95277">
        <ele>158.6</ele>
        <time>2015-10-31T09:53:56Z</time>
      </trkpt>
      <trkpt lat="44.52251" lon="1.95273">
        <ele>158.6</ele>
        <time>2015-10-31T09:53:57Z</time>
      </trkpt>
      <trkpt lat="44.52253" lon="1.9527">
        <ele>158.7</ele>
        <time>2015-10-31T09:53:58Z</time>
      </trkpt>
      <trkpt lat="44.52255" lon="1.95266">
        <ele>158.7</ele>
        <time>2015-10-31T09:53:59Z</time>
      </trkpt>
      <trkpt lat="44.52257" lon="1.95262">
        <ele>158.7</ele>
        <time>2015-10-31T09:54:00Z</time>
      </trkpt>
      <trkpt lat="44.52259" lon="1.95257">
        <ele>158.8</ele>
        <time>2015-10-31T09:54:01Z</time>
      </trkpt>
      <trkpt lat="44.52261" lon="1.95252">
        <ele>158.8</ele>
        <time>2015-10-31T09:54:02Z</time>
      </trkpt>
      <trkpt lat="44.52264" lon="1.95247">
        <ele>158.8</ele>
        <time>2015-10-31T09:54:03Z</time>
      </trkpt>
      <trkpt lat="44.52267" lon="1.95242">
        <ele>158.9</ele>
        <time>2015-10-31T09:54:04Z</time>
      </trkpt>
      <trkpt lat="44.5227" lon="1.95237">
        <ele>158.9</ele>
        <time>2015-10-31T09:54:05Z</time>
      </trkpt>
      <trkpt lat="44.52274" lon="1.95232">
        <ele>158.9</ele>
        <time>2015-10-31T09:54:06Z</time>
      </trkpt>
      <trkpt lat="44.52278" lon="1.95226">
        <ele>159</ele>
        <time>2015-10-31T09:54:07Z</time>
      </trkpt>
      <trkpt lat="44.52281" lon="1.95221">
        <ele>159</ele>
        <time>2015-10-31T09:54:08Z</time>
      </trkpt>
      <trkpt lat="44.52285" lon="1.95215">
        <ele>159</ele>
        <time>2015-10-31T09:54:09Z</time>
      </trkpt>
      <trkpt lat="44.52288" lon="1.95209">
        <ele>159</ele>
        <time>2015-10-31T09:54:10Z</time>
      </trkpt>
      <trkpt lat="44.52292" lon="1.95204">
        <ele>159</ele>
        <time>2015-10-31T09:54:11Z</time>
      </trkpt>
      <trkpt lat="44.52294" lon="1.95199">
        <ele>159</ele>
        <time>2015-10-31T09:54:12Z</time>
      </trkpt>
      <trkpt lat="44.52298" lon="1.95194">
        <ele>159</ele>
        <time>2015-10-31T09:54:13Z</time>
      </trkpt>
      <trkpt lat="44.523" lon="1.9519">
        <ele>159</ele>
        <time>2015-10-31T09:54:14Z</time>
      </trkpt>
      <trkpt lat="44.52304" lon="1.95184">
        <ele>159</ele>
        <time>2015-10-31T09:54:15Z</time>
      </trkpt>
      <trkpt lat="44.52309" lon="1.95178">
        <ele>158.9</ele>
        <time>2015-10-31T09:54:16Z</time>
      </trkpt>
      <trkpt lat="44.52312" lon="1.95176">
        <ele>158.9</ele>
        <time>2015-10-31T09:54:17Z</time>
      </trkpt>
      <trkpt lat="44.52315" lon="1.95173">
        <ele>158.9</ele>
        <time>2015-10-31T09:54:18Z</time>
      </trkpt>
      <trkpt lat="44.52318" lon="1.95169">
        <ele>158.9</ele>
        <time>2015-10-31T09:54:19Z</time>
      </trkpt>
      <trkpt lat="44.52321" lon="1.95165">
        <ele>158.8</ele>
        <time>2015-10-31T09:54:20Z</time>
      </trkpt>
      <trkpt lat="44.52324" lon="1.95163">
        <ele>158.8</ele>
        <time>2015-10-31T09:54:21Z</time>
      </trkpt>
      <trkpt lat="44.52329" lon="1.95159">
        <ele>158.7</ele>
        <time>2015-10-31T09:54:22Z</time>
      </trkpt>
      <trkpt lat="44.52332" lon="1.95156">
        <ele>158.7</ele>
        <time>2015-10-31T09:54:23Z</time>
      </trkpt>
      <trkpt lat="44.52338" lon="1.9515">
        <ele>158.6</ele>
        <time>2015-10-31T09:54:25Z</time>
      </trkpt>
      <trkpt lat="44.52342" lon="1.95145">
        <ele>158.5</ele>
        <time>2015-10-31T09:54:26Z</time>
      </trkpt>
      <trkpt lat="44.52345" lon="1.95142">
        <ele>158.5</ele>
        <time>2015-10-31T09:54:27Z</time>
      </trkpt>
      <trkpt lat="44.52347" lon="1.95139">
        <ele>158.4</ele>
        <time>2015-10-31T09:54:28Z</time>
      </trkpt>
      <trkpt lat="44.5235" lon="1.95135">
        <ele>158.4</ele>
        <time>2015-10-31T09:54:29Z</time>
      </trkpt>
      <trkpt lat="44.52353" lon="1.95131">
        <ele>158.3</ele>
        <time>2015-10-31T09:54:30Z</time>
      </trkpt>
      <trkpt lat="44.52356" lon="1.95128">
        <ele>158.3</ele>
        <time>2015-10-31T09:54:31Z</time>
      </trkpt>
      <trkpt lat="44.52359" lon="1.95124">
        <ele>158.2</ele>
        <time>2015-10-31T09:54:32Z</time>
      </trkpt>
      <trkpt lat="44.52362" lon="1.9512">
        <ele>158.2</ele>
        <time>2015-10-31T09:54:33Z</time>
      </trkpt>
      <trkpt lat="44.52365" lon="1.95117">
        <ele>158.2</ele>
        <time>2015-10-31T09:54:34Z</time>
      </trkpt>
      <trkpt lat="44.52367" lon="1.95113">
        <ele>158.2</ele>
        <time>2015-10-31T09:54:35Z</time>
      </trkpt>
      <trkpt lat="44.5237" lon="1.95109">
        <ele>158.2</ele>
        <time>2015-10-31T09:54:36Z</time>
      </trkpt>
      <trkpt lat="44.52372" lon="1.95105">
        <ele>158.2</ele>
        <time>2015-10-31T09:54:37Z</time>
      </trkpt>
      <trkpt lat="44.52374" lon="1.95102">
        <ele>158.3</ele>
        <time>2015-10-31T09:54:38Z</time>
      </trkpt>
      <trkpt lat="44.52376" lon="1.95099">
        <ele>158.3</ele>
        <time>2015-10-31T09:54:39Z</time>
      </trkpt>
      <trkpt lat="44.52378" lon="1.95096">
        <ele>158.5</ele>
        <time>2015-10-31T09:54:40Z</time>
      </trkpt>
      <trkpt lat="44.5238" lon="1.95093">
        <ele>158.7</ele>
        <time>2015-10-31T09:54:41Z</time>
      </trkpt>
      <trkpt lat="44.52382" lon="1.95091">
        <ele>158.8</ele>
        <time>2015-10-31T09:54:42Z</time>
      </trkpt>
      <trkpt lat="44.52385" lon="1.95087">
        <ele>159</ele>
        <time>2015-10-31T09:54:44Z</time>
      </trkpt>
      <trkpt lat="44.52387" lon="1.95082">
        <ele>159.2</ele>
        <time>2015-10-31T09:54:47Z</time>
      </trkpt>
      <trkpt lat="44.52388" lon="1.95079">
        <ele>159.3</ele>
        <time>2015-10-31T09:54:49Z</time>
      </trkpt>
      <trkpt lat="44.52389" lon="1.95075">
        <ele>159.5</ele>
        <time>2015-10-31T09:54:51Z</time>
      </trkpt>
      <trkpt lat="44.52391" lon="1.95069">
        <ele>159.6</ele>
        <time>2015-10-31T09:54:53Z</time>
      </trkpt>
      <trkpt lat="44.52391" lon="1.95064">
        <ele>159.7</ele>
        <time>2015-10-31T09:54:54Z</time>
      </trkpt>
      <trkpt lat="44.52391" lon="1.9506">
        <ele>159.7</ele>
        <time>2015-10-31T09:54:55Z</time>
      </trkpt>
      <trkpt lat="44.5239" lon="1.95056">
        <ele>159.7</ele>
        <time>2015-10-31T09:54:56Z</time>
      </trkpt>
      <trkpt lat="44.52389" lon="1.95052">
        <ele>159.7</ele>
        <time>2015-10-31T09:54:57Z</time>
      </trkpt>
      <trkpt lat="44.52387" lon="1.95047">
        <ele>159.7</ele>
        <time>2015-10-31T09:54:58Z</time>
      </trkpt>
      <trkpt lat="44.52386" lon="1.95043">
        <ele>159.7</ele>
        <time>2015-10-31T09:54:59Z</time>
      </trkpt>
      <trkpt lat="44.52385" lon="1.95039">
        <ele>159.7</ele>
        <time>2015-10-31T09:55:00Z</time>
      </trkpt>
      <trkpt lat="44.52384" lon="1.95035">
        <ele>159.8</ele>
        <time>2015-10-31T09:55:01Z</time>
      </trkpt>
      <trkpt lat="44.52383" lon="1.9503">
        <ele>159.8</ele>
        <time>2015-10-31T09:55:02Z</time>
      </trkpt>
      <trkpt lat="44.52382" lon="1.95026">
        <ele>159.9</ele>
        <time>2015-10-31T09:55:03Z</time>
      </trkpt>
      <trkpt lat="44.52381" lon="1.95022">
        <ele>159.9</ele>
        <time>2015-10-31T09:55:04Z</time>
      </trkpt>
      <trkpt lat="44.5238" lon="1.95017">
        <ele>159.9</ele>
        <time>2015-10-31T09:55:05Z</time>
      </trkpt>
      <trkpt lat="44.52378" lon="1.95013">
        <ele>160</ele>
        <time>2015-10-31T09:55:06Z</time>
      </trkpt>
      <trkpt lat="44.52377" lon="1.95008">
        <ele>160</ele>
        <time>2015-10-31T09:55:07Z</time>
      </trkpt>
      <trkpt lat="44.52376" lon="1.95003">
        <ele>160</ele>
        <time>2015-10-31T09:55:08Z</time>
      </trkpt>
      <trkpt lat="44.52375" lon="1.94998">
        <ele>160</ele>
        <time>2015-10-31T09:55:09Z</time>
      </trkpt>
      <trkpt lat="44.52374" lon="1.94993">
        <ele>160.1</ele>
        <time>2015-10-31T09:55:10Z</time>
      </trkpt>
      <trkpt lat="44.52373" lon="1.94987">
        <ele>160.2</ele>
        <time>2015-10-31T09:55:11Z</time>
      </trkpt>
      <trkpt lat="44.52372" lon="1.94982">
        <ele>160.3</ele>
        <time>2015-10-31T09:55:12Z</time>
      </trkpt>
      <trkpt lat="44.52371" lon="1.94976">
        <ele>160.4</ele>
        <time>2015-10-31T09:55:13Z</time>
      </trkpt>
      <trkpt lat="44.5237" lon="1.94971">
        <ele>160.5</ele>
        <time>2015-10-31T09:55:14Z</time>
      </trkpt>
      <trkpt lat="44.52369" lon="1.94966">
        <ele>160.5</ele>
        <time>2015-10-31T09:55:15Z</time>
      </trkpt>
      <trkpt lat="44.52367" lon="1.94961">
        <ele>160.6</ele>
        <time>2015-10-31T09:55:16Z</time>
      </trkpt>
      <trkpt lat="44.52366" lon="1.94956">
        <ele>160.8</ele>
        <time>2015-10-31T09:55:17Z</time>
      </trkpt>
      <trkpt lat="44.52364" lon="1.94951">
        <ele>161.2</ele>
        <time>2015-10-31T09:55:18Z</time>
      </trkpt>
      <trkpt lat="44.52363" lon="1.94945">
        <ele>161.6</ele>
        <time>2015-10-31T09:55:19Z</time>
      </trkpt>
      <trkpt lat="44.52361" lon="1.9494">
        <ele>162.1</ele>
        <time>2015-10-31T09:55:20Z</time>
      </trkpt>
      <trkpt lat="44.5236" lon="1.94934">
        <ele>162.5</ele>
        <time>2015-10-31T09:55:21Z</time>
      </trkpt>
      <trkpt lat="44.52359" lon="1.94929">
        <ele>162.9</ele>
        <time>2015-10-31T09:55:22Z</time>
      </trkpt>
      <trkpt lat="44.52357" lon="1.94923">
        <ele>163.3</ele>
        <time>2015-10-31T09:55:23Z</time>
      </trkpt>
      <trkpt lat="44.52356" lon="1.94918">
        <ele>163.7</ele>
        <time>2015-10-31T09:55:24Z</time>
      </trkpt>
      <trkpt lat="44.52354" lon="1.94912">
        <ele>164</ele>
        <time>2015-10-31T09:55:25Z</time>
      </trkpt>
      <trkpt lat="44.52353" lon="1.94907">
        <ele>164.4</ele>
        <time>2015-10-31T09:55:26Z</time>
      </trkpt>
      <trkpt lat="44.52351" lon="1.94901">
        <ele>164.6</ele>
        <time>2015-10-31T09:55:27Z</time>
      </trkpt>
      <trkpt lat="44.52349" lon="1.94896">
        <ele>164.9</ele>
        <time>2015-10-31T09:55:28Z</time>
      </trkpt>
      <trkpt lat="44.52348" lon="1.9489">
        <ele>165.2</ele>
        <time>2015-10-31T09:55:29Z</time>
      </trkpt>
      <trkpt lat="44.52347" lon="1.94885">
        <ele>165.5</ele>
        <time>2015-10-31T09:55:30Z</time>
      </trkpt>
      <trkpt lat="44.52346" lon="1.94879">
        <ele>165.8</ele>
        <time>2015-10-31T09:55:31Z</time>
      </trkpt>
      <trkpt lat="44.52345" lon="1.94873">
        <ele>166.1</ele>
        <time>2015-10-31T09:55:32Z</time>
      </trkpt>
      <trkpt lat="44.52344" lon="1.94867">
        <ele>166.1</ele>
        <time>2015-10-31T09:55:33Z</time>
      </trkpt>
      <trkpt lat="44.52343" lon="1.94862">
        <ele>166.1</ele>
        <time>2015-10-31T09:55:34Z</time>
      </trkpt>
      <trkpt lat="44.52341" lon="1.94856">
        <ele>166.1</ele>
        <time>2015-10-31T09:55:35Z</time>
      </trkpt>
      <trkpt lat="44.5234" lon="1.9485">
        <ele>166</ele>
        <time>2015-10-31T09:55:36Z</time>
      </trkpt>
      <trkpt lat="44.52338" lon="1.94844">
        <ele>165.9</ele>
        <time>2015-10-31T09:55:37Z</time>
      </trkpt>
      <trkpt lat="44.52336" lon="1.94838">
        <ele>165.8</ele>
        <time>2015-10-31T09:55:38Z</time>
      </trkpt>
      <trkpt lat="44.52334" lon="1.94832">
        <ele>165.7</ele>
        <time>2015-10-31T09:55:39Z</time>
      </trkpt>
      <trkpt lat="44.52333" lon="1.94826">
        <ele>165.6</ele>
        <time>2015-10-31T09:55:40Z</time>
      </trkpt>
      <trkpt lat="44.52331" lon="1.9482">
        <ele>165.5</ele>
        <time>2015-10-31T09:55:41Z</time>
      </trkpt>
      <trkpt lat="44.5233" lon="1.94815">
        <ele>165.4</ele>
        <time>2015-10-31T09:55:42Z</time>
      </trkpt>
      <trkpt lat="44.52328" lon="1.94809">
        <ele>165.3</ele>
        <time>2015-10-31T09:55:43Z</time>
      </trkpt>
      <trkpt lat="44.52325" lon="1.94799">
        <ele>165.1</ele>
        <time>2015-10-31T09:55:44Z</time>
      </trkpt>
      <trkpt lat="44.52324" lon="1.94791">
        <ele>165</ele>
        <time>2015-10-31T09:55:45Z</time>
      </trkpt>
      <trkpt lat="44.52321" lon="1.94782">
        <ele>164.5</ele>
        <time>2015-10-31T09:55:46Z</time>
      </trkpt>
      <trkpt lat="44.5232" lon="1.94774">
        <ele>164.3</ele>
        <time>2015-10-31T09:55:47Z</time>
      </trkpt>
      <trkpt lat="44.52315" lon="1.94764">
        <ele>163.4</ele>
        <time>2015-10-31T09:55:48Z</time>
      </trkpt>
      <trkpt lat="44.52311" lon="1.94755">
        <ele>162.7</ele>
        <time>2015-10-31T09:55:49Z</time>
      </trkpt>
      <trkpt lat="44.5231" lon="1.94744">
        <ele>162.3</ele>
        <time>2015-10-31T09:55:50Z</time>
      </trkpt>
      <trkpt lat="44.52308" lon="1.94739">
        <ele>162</ele>
        <time>2015-10-31T09:55:52Z</time>
      </trkpt>
      <trkpt lat="44.52306" lon="1.94729">
        <ele>161.6</ele>
        <time>2015-10-31T09:55:53Z</time>
      </trkpt>
      <trkpt lat="44.52304" lon="1.94723">
        <ele>161.3</ele>
        <time>2015-10-31T09:55:54Z</time>
      </trkpt>
      <trkpt lat="44.52303" lon="1.94716">
        <ele>161</ele>
        <time>2015-10-31T09:55:55Z</time>
      </trkpt>
      <trkpt lat="44.52303" lon="1.94707">
        <ele>161</ele>
        <time>2015-10-31T09:55:56Z</time>
      </trkpt>
      <trkpt lat="44.523" lon="1.94702">
        <ele>160.5</ele>
        <time>2015-10-31T09:55:57Z</time>
      </trkpt>
      <trkpt lat="44.52299" lon="1.94697">
        <ele>160.5</ele>
        <time>2015-10-31T09:55:58Z</time>
      </trkpt>
      <trkpt lat="44.52299" lon="1.9469">
        <ele>160.5</ele>
        <time>2015-10-31T09:55:59Z</time>
      </trkpt>
      <trkpt lat="44.52297" lon="1.94684">
        <ele>160.3</ele>
        <time>2015-10-31T09:56:00Z</time>
      </trkpt>
      <trkpt lat="44.52297" lon="1.94679">
        <ele>160.4</ele>
        <time>2015-10-31T09:56:01Z</time>
      </trkpt>
      <trkpt lat="44.52297" lon="1.94671">
        <ele>160.4</ele>
        <time>2015-10-31T09:56:02Z</time>
      </trkpt>
      <trkpt lat="44.52294" lon="1.94666">
        <ele>160</ele>
        <time>2015-10-31T09:56:03Z</time>
      </trkpt>
      <trkpt lat="44.52292" lon="1.94659">
        <ele>159.7</ele>
        <time>2015-10-31T09:56:04Z</time>
      </trkpt>
      <trkpt lat="44.5229" lon="1.94653">
        <ele>159.6</ele>
        <time>2015-10-31T09:56:05Z</time>
      </trkpt>
      <trkpt lat="44.52288" lon="1.94646">
        <ele>159.7</ele>
        <time>2015-10-31T09:56:06Z</time>
      </trkpt>
      <trkpt lat="44.52286" lon="1.94639">
        <ele>159.7</ele>
        <time>2015-10-31T09:56:07Z</time>
      </trkpt>
      <trkpt lat="44.52286" lon="1.94634">
        <ele>159.7</ele>
        <time>2015-10-31T09:56:08Z</time>
      </trkpt>
      <trkpt lat="44.52285" lon="1.94628">
        <ele>159.8</ele>
        <time>2015-10-31T09:56:09Z</time>
      </trkpt>
      <trkpt lat="44.52283" lon="1.9462">
        <ele>160.1</ele>
        <time>2015-10-31T09:56:10Z</time>
      </trkpt>
      <trkpt lat="44.52283" lon="1.94614">
        <ele>160.5</ele>
        <time>2015-10-31T09:56:11Z</time>
      </trkpt>
      <trkpt lat="44.52282" lon="1.94609">
        <ele>160.8</ele>
        <time>2015-10-31T09:56:12Z</time>
      </trkpt>
      <trkpt lat="44.5228" lon="1.94601">
        <ele>161.3</ele>
        <time>2015-10-31T09:56:13Z</time>
      </trkpt>
      <trkpt lat="44.52278" lon="1.94598">
        <ele>161.4</ele>
        <time>2015-10-31T09:56:14Z</time>
      </trkpt>
      <trkpt lat="44.52278" lon="1.94591">
        <ele>161.9</ele>
        <time>2015-10-31T09:56:15Z</time>
      </trkpt>
      <trkpt lat="44.52278" lon="1.94581">
        <ele>162.5</ele>
        <time>2015-10-31T09:56:16Z</time>
      </trkpt>
      <trkpt lat="44.52274" lon="1.94574">
        <ele>162.7</ele>
        <time>2015-10-31T09:56:17Z</time>
      </trkpt>
      <trkpt lat="44.52273" lon="1.94566">
        <ele>163.2</ele>
        <time>2015-10-31T09:56:18Z</time>
      </trkpt>
      <trkpt lat="44.52269" lon="1.9456">
        <ele>163.3</ele>
        <time>2015-10-31T09:56:19Z</time>
      </trkpt>
      <trkpt lat="44.52268" lon="1.94553">
        <ele>163.6</ele>
        <time>2015-10-31T09:56:20Z</time>
      </trkpt>
      <trkpt lat="44.52267" lon="1.94547">
        <ele>163.9</ele>
        <time>2015-10-31T09:56:21Z</time>
      </trkpt>
      <trkpt lat="44.52265" lon="1.94539">
        <ele>164.2</ele>
        <time>2015-10-31T09:56:22Z</time>
      </trkpt>
      <trkpt lat="44.52259" lon="1.94531">
        <ele>164.1</ele>
        <time>2015-10-31T09:56:24Z</time>
      </trkpt>
      <trkpt lat="44.52256" lon="1.94526">
        <ele>164.1</ele>
        <time>2015-10-31T09:56:25Z</time>
      </trkpt>
      <trkpt lat="44.52254" lon="1.94518">
        <ele>164.2</ele>
        <time>2015-10-31T09:56:26Z</time>
      </trkpt>
      <trkpt lat="44.52251" lon="1.94511">
        <ele>164.2</ele>
        <time>2015-10-31T09:56:27Z</time>
      </trkpt>
      <trkpt lat="44.52249" lon="1.94506">
        <ele>164.2</ele>
        <time>2015-10-31T09:56:28Z</time>
      </trkpt>
      <trkpt lat="44.52247" lon="1.94502">
        <ele>164.2</ele>
        <time>2015-10-31T09:56:29Z</time>
      </trkpt>
      <trkpt lat="44.52246" lon="1.94496">
        <ele>164.3</ele>
        <time>2015-10-31T09:56:30Z</time>
      </trkpt>
      <trkpt lat="44.52243" lon="1.94491">
        <ele>164.2</ele>
        <time>2015-10-31T09:56:31Z</time>
      </trkpt>
      <trkpt lat="44.52241" lon="1.94485">
        <ele>164.2</ele>
        <time>2015-10-31T09:56:32Z</time>
      </trkpt>
      <trkpt lat="44.52238" lon="1.9448">
        <ele>164.1</ele>
        <time>2015-10-31T09:56:33Z</time>
      </trkpt>
      <trkpt lat="44.52236" lon="1.94476">
        <ele>164.1</ele>
        <time>2015-10-31T09:56:34Z</time>
      </trkpt>
      <trkpt lat="44.52234" lon="1.9447">
        <ele>164.1</ele>
        <time>2015-10-31T09:56:35Z</time>
      </trkpt>
      <trkpt lat="44.52233" lon="1.94463">
        <ele>164.2</ele>
        <time>2015-10-31T09:56:36Z</time>
      </trkpt>
      <trkpt lat="44.5223" lon="1.94458">
        <ele>164.2</ele>
        <time>2015-10-31T09:56:37Z</time>
      </trkpt>
      <trkpt lat="44.52228" lon="1.94453">
        <ele>164.3</ele>
        <time>2015-10-31T09:56:38Z</time>
      </trkpt>
      <trkpt lat="44.52226" lon="1.94448">
        <ele>164.6</ele>
        <time>2015-10-31T09:56:39Z</time>
      </trkpt>
      <trkpt lat="44.52224" lon="1.94443">
        <ele>164.8</ele>
        <time>2015-10-31T09:56:40Z</time>
      </trkpt>
      <trkpt lat="44.52222" lon="1.94438">
        <ele>165</ele>
        <time>2015-10-31T09:56:41Z</time>
      </trkpt>
      <trkpt lat="44.5222" lon="1.94433">
        <ele>165.2</ele>
        <time>2015-10-31T09:56:42Z</time>
      </trkpt>
      <trkpt lat="44.52218" lon="1.94428">
        <ele>165.3</ele>
        <time>2015-10-31T09:56:43Z</time>
      </trkpt>
      <trkpt lat="44.52215" lon="1.94423">
        <ele>165.4</ele>
        <time>2015-10-31T09:56:44Z</time>
      </trkpt>
      <trkpt lat="44.52211" lon="1.94416">
        <ele>165.4</ele>
        <time>2015-10-31T09:56:45Z</time>
      </trkpt>
      <trkpt lat="44.5221" lon="1.9441">
        <ele>165.6</ele>
        <time>2015-10-31T09:56:46Z</time>
      </trkpt>
      <trkpt lat="44.52205" lon="1.94406">
        <ele>165.4</ele>
        <time>2015-10-31T09:56:47Z</time>
      </trkpt>
      <trkpt lat="44.522" lon="1.94399">
        <ele>165.3</ele>
        <time>2015-10-31T09:56:48Z</time>
      </trkpt>
      <trkpt lat="44.52197" lon="1.94393">
        <ele>165.3</ele>
        <time>2015-10-31T09:56:49Z</time>
      </trkpt>
      <trkpt lat="44.52194" lon="1.94388">
        <ele>165.1</ele>
        <time>2015-10-31T09:56:50Z</time>
      </trkpt>
      <trkpt lat="44.5219" lon="1.94383">
        <ele>165</ele>
        <time>2015-10-31T09:56:51Z</time>
      </trkpt>
      <trkpt lat="44.52185" lon="1.94379">
        <ele>164.5</ele>
        <time>2015-10-31T09:56:52Z</time>
      </trkpt>
      <trkpt lat="44.52182" lon="1.94375">
        <ele>164.2</ele>
        <time>2015-10-31T09:56:53Z</time>
      </trkpt>
      <trkpt lat="44.52179" lon="1.9437">
        <ele>164.2</ele>
        <time>2015-10-31T09:56:54Z</time>
      </trkpt>
      <trkpt lat="44.52176" lon="1.94365">
        <ele>164.3</ele>
        <time>2015-10-31T09:56:55Z</time>
      </trkpt>
      <trkpt lat="44.52174" lon="1.94359">
        <ele>164.5</ele>
        <time>2015-10-31T09:56:56Z</time>
      </trkpt>
      <trkpt lat="44.52171" lon="1.94356">
        <ele>164.4</ele>
        <time>2015-10-31T09:56:57Z</time>
      </trkpt>
      <trkpt lat="44.52166" lon="1.94352">
        <ele>164</ele>
        <time>2015-10-31T09:56:58Z</time>
      </trkpt>
      <trkpt lat="44.52161" lon="1.94347">
        <ele>163.8</ele>
        <time>2015-10-31T09:56:59Z</time>
      </trkpt>
      <trkpt lat="44.52157" lon="1.94342">
        <ele>163.7</ele>
        <time>2015-10-31T09:57:00Z</time>
      </trkpt>
      <trkpt lat="44.52155" lon="1.94336">
        <ele>163.8</ele>
        <time>2015-10-31T09:57:01Z</time>
      </trkpt>
      <trkpt lat="44.52151" lon="1.94332">
        <ele>163.7</ele>
        <time>2015-10-31T09:57:02Z</time>
      </trkpt>
      <trkpt lat="44.52147" lon="1.94325">
        <ele>163.7</ele>
        <time>2015-10-31T09:57:03Z</time>
      </trkpt>
      <trkpt lat="44.52146" lon="1.94318">
        <ele>164.1</ele>
        <time>2015-10-31T09:57:04Z</time>
      </trkpt>
      <trkpt lat="44.52141" lon="1.94314">
        <ele>163.7</ele>
        <time>2015-10-31T09:57:05Z</time>
      </trkpt>
      <trkpt lat="44.52137" lon="1.94308">
        <ele>163.6</ele>
        <time>2015-10-31T09:57:06Z</time>
      </trkpt>
      <trkpt lat="44.52135" lon="1.94301">
        <ele>163.8</ele>
        <time>2015-10-31T09:57:07Z</time>
      </trkpt>
      <trkpt lat="44.5213" lon="1.94298">
        <ele>163.4</ele>
        <time>2015-10-31T09:57:08Z</time>
      </trkpt>
      <trkpt lat="44.52128" lon="1.94293">
        <ele>163.5</ele>
        <time>2015-10-31T09:57:09Z</time>
      </trkpt>
      <trkpt lat="44.52126" lon="1.94287">
        <ele>163.6</ele>
        <time>2015-10-31T09:57:10Z</time>
      </trkpt>
      <trkpt lat="44.52122" lon="1.94283">
        <ele>163.7</ele>
        <time>2015-10-31T09:57:11Z</time>
      </trkpt>
      <trkpt lat="44.52119" lon="1.94281">
        <ele>163.7</ele>
        <time>2015-10-31T09:57:12Z</time>
      </trkpt>
      <trkpt lat="44.52117" lon="1.94278">
        <ele>163.8</ele>
        <time>2015-10-31T09:57:13Z</time>
      </trkpt>
      <trkpt lat="44.52112" lon="1.9427">
        <ele>164.3</ele>
        <time>2015-10-31T09:57:14Z</time>
      </trkpt>
      <trkpt lat="44.52108" lon="1.94268">
        <ele>164.1</ele>
        <time>2015-10-31T09:57:15Z</time>
      </trkpt>
      <trkpt lat="44.52107" lon="1.94259">
        <ele>164.8</ele>
        <time>2015-10-31T09:57:16Z</time>
      </trkpt>
      <trkpt lat="44.52103" lon="1.94252">
        <ele>165</ele>
        <time>2015-10-31T09:57:17Z</time>
      </trkpt>
      <trkpt lat="44.52099" lon="1.94247">
        <ele>164.9</ele>
        <time>2015-10-31T09:57:18Z</time>
      </trkpt>
      <trkpt lat="44.52096" lon="1.94241">
        <ele>165</ele>
        <time>2015-10-31T09:57:19Z</time>
      </trkpt>
      <trkpt lat="44.52089" lon="1.94235">
        <ele>164.7</ele>
        <time>2015-10-31T09:57:20Z</time>
      </trkpt>
      <trkpt lat="44.52086" lon="1.94229">
        <ele>164.5</ele>
        <time>2015-10-31T09:57:21Z</time>
      </trkpt>
      <trkpt lat="44.52082" lon="1.94226">
        <ele>164.2</ele>
        <time>2015-10-31T09:57:22Z</time>
      </trkpt>
      <trkpt lat="44.52078" lon="1.94221">
        <ele>163.9</ele>
        <time>2015-10-31T09:57:23Z</time>
      </trkpt>
      <trkpt lat="44.52073" lon="1.94217">
        <ele>163.4</ele>
        <time>2015-10-31T09:57:24Z</time>
      </trkpt>
      <trkpt lat="44.5207" lon="1.94212">
        <ele>163.2</ele>
        <time>2015-10-31T09:57:25Z</time>
      </trkpt>
      <trkpt lat="44.52066" lon="1.94206">
        <ele>163</ele>
        <time>2015-10-31T09:57:26Z</time>
      </trkpt>
      <trkpt lat="44.52063" lon="1.94202">
        <ele>163</ele>
        <time>2015-10-31T09:57:27Z</time>
      </trkpt>
      <trkpt lat="44.52058" lon="1.94198">
        <ele>162.7</ele>
        <time>2015-10-31T09:57:28Z</time>
      </trkpt>
      <trkpt lat="44.52054" lon="1.94195">
        <ele>162.3</ele>
        <time>2015-10-31T09:57:29Z</time>
      </trkpt>
      <trkpt lat="44.52051" lon="1.94192">
        <ele>162.1</ele>
        <time>2015-10-31T09:57:30Z</time>
      </trkpt>
      <trkpt lat="44.52048" lon="1.94188">
        <ele>162.1</ele>
        <time>2015-10-31T09:57:31Z</time>
      </trkpt>
      <trkpt lat="44.52045" lon="1.94185">
        <ele>162.1</ele>
        <time>2015-10-31T09:57:32Z</time>
      </trkpt>
      <trkpt lat="44.52041" lon="1.94182">
        <ele>161.8</ele>
        <time>2015-10-31T09:57:33Z</time>
      </trkpt>
      <trkpt lat="44.52039" lon="1.94178">
        <ele>162.1</ele>
        <time>2015-10-31T09:57:34Z</time>
      </trkpt>
      <trkpt lat="44.52036" lon="1.94173">
        <ele>162.5</ele>
        <time>2015-10-31T09:57:35Z</time>
      </trkpt>
      <trkpt lat="44.52033" lon="1.94167">
        <ele>162.9</ele>
        <time>2015-10-31T09:57:36Z</time>
      </trkpt>
      <trkpt lat="44.52028" lon="1.94161">
        <ele>163.2</ele>
        <time>2015-10-31T09:57:37Z</time>
      </trkpt>
      <trkpt lat="44.52025" lon="1.94157">
        <ele>163.4</ele>
        <time>2015-10-31T09:57:38Z</time>
      </trkpt>
      <trkpt lat="44.52021" lon="1.94153">
        <ele>163.5</ele>
        <time>2015-10-31T09:57:39Z</time>
      </trkpt>
      <trkpt lat="44.52019" lon="1.94146">
        <ele>163.9</ele>
        <time>2015-10-31T09:57:40Z</time>
      </trkpt>
      <trkpt lat="44.52017" lon="1.9414">
        <ele>164.3</ele>
        <time>2015-10-31T09:57:41Z</time>
      </trkpt>
      <trkpt lat="44.52013" lon="1.94136">
        <ele>164.3</ele>
        <time>2015-10-31T09:57:42Z</time>
      </trkpt>
      <trkpt lat="44.52011" lon="1.9413">
        <ele>164.6</ele>
        <time>2015-10-31T09:57:43Z</time>
      </trkpt>
      <trkpt lat="44.52006" lon="1.94126">
        <ele>164.5</ele>
        <time>2015-10-31T09:57:44Z</time>
      </trkpt>
      <trkpt lat="44.52003" lon="1.94122">
        <ele>164.7</ele>
        <time>2015-10-31T09:57:45Z</time>
      </trkpt>
      <trkpt lat="44.51999" lon="1.94118">
        <ele>164.9</ele>
        <time>2015-10-31T09:57:46Z</time>
      </trkpt>
      <trkpt lat="44.51997" lon="1.94113">
        <ele>165.5</ele>
        <time>2015-10-31T09:57:47Z</time>
      </trkpt>
      <trkpt lat="44.51994" lon="1.94109">
        <ele>165.6</ele>
        <time>2015-10-31T09:57:48Z</time>
      </trkpt>
      <trkpt lat="44.51991" lon="1.94105">
        <ele>165.9</ele>
        <time>2015-10-31T09:57:49Z</time>
      </trkpt>
      <trkpt lat="44.51987" lon="1.941">
        <ele>166.1</ele>
        <time>2015-10-31T09:57:50Z</time>
      </trkpt>
      <trkpt lat="44.51984" lon="1.94094">
        <ele>166.4</ele>
        <time>2015-10-31T09:57:51Z</time>
      </trkpt>
      <trkpt lat="44.51979" lon="1.94094">
        <ele>165.4</ele>
        <time>2015-10-31T09:57:52Z</time>
      </trkpt>
      <trkpt lat="44.51975" lon="1.9409">
        <ele>165.3</ele>
        <time>2015-10-31T09:57:53Z</time>
      </trkpt>
      <trkpt lat="44.51971" lon="1.94089">
        <ele>164.6</ele>
        <time>2015-10-31T09:57:54Z</time>
      </trkpt>
      <trkpt lat="44.51966" lon="1.94086">
        <ele>164.1</ele>
        <time>2015-10-31T09:57:55Z</time>
      </trkpt>
      <trkpt lat="44.51961" lon="1.94084">
        <ele>163.5</ele>
        <time>2015-10-31T09:57:56Z</time>
      </trkpt>
      <trkpt lat="44.51958" lon="1.9408">
        <ele>163.3</ele>
        <time>2015-10-31T09:57:57Z</time>
      </trkpt>
      <trkpt lat="44.51958" lon="1.94067">
        <ele>164.2</ele>
        <time>2015-10-31T09:57:58Z</time>
      </trkpt>
      <trkpt lat="44.51955" lon="1.9406">
        <ele>164.4</ele>
        <time>2015-10-31T09:57:59Z</time>
      </trkpt>
      <trkpt lat="44.51953" lon="1.94053">
        <ele>164.7</ele>
        <time>2015-10-31T09:58:00Z</time>
      </trkpt>
      <trkpt lat="44.51952" lon="1.94044">
        <ele>165.2</ele>
        <time>2015-10-31T09:58:01Z</time>
      </trkpt>
      <trkpt lat="44.51948" lon="1.94041">
        <ele>165</ele>
        <time>2015-10-31T09:58:02Z</time>
      </trkpt>
      <trkpt lat="44.51943" lon="1.94037">
        <ele>165.2</ele>
        <time>2015-10-31T09:58:03Z</time>
      </trkpt>
      <trkpt lat="44.51938" lon="1.94034">
        <ele>165.1</ele>
        <time>2015-10-31T09:58:04Z</time>
      </trkpt>
      <trkpt lat="44.51934" lon="1.94029">
        <ele>165.5</ele>
        <time>2015-10-31T09:58:05Z</time>
      </trkpt>
      <trkpt lat="44.51933" lon="1.94023">
        <ele>166</ele>
        <time>2015-10-31T09:58:06Z</time>
      </trkpt>
      <trkpt lat="44.5193" lon="1.94015">
        <ele>166.7</ele>
        <time>2015-10-31T09:58:07Z</time>
      </trkpt>
      <trkpt lat="44.51926" lon="1.9401">
        <ele>166.9</ele>
        <time>2015-10-31T09:58:08Z</time>
      </trkpt>
      <trkpt lat="44.51922" lon="1.94007">
        <ele>166.7</ele>
        <time>2015-10-31T09:58:09Z</time>
      </trkpt>
      <trkpt lat="44.51918" lon="1.94001">
        <ele>166.9</ele>
        <time>2015-10-31T09:58:10Z</time>
      </trkpt>
      <trkpt lat="44.51915" lon="1.93994">
        <ele>167.1</ele>
        <time>2015-10-31T09:58:11Z</time>
      </trkpt>
      <trkpt lat="44.51912" lon="1.9399">
        <ele>167.1</ele>
        <time>2015-10-31T09:58:12Z</time>
      </trkpt>
      <trkpt lat="44.51907" lon="1.93985">
        <ele>166.9</ele>
        <time>2015-10-31T09:58:13Z</time>
      </trkpt>
      <trkpt lat="44.51902" lon="1.9398">
        <ele>166.5</ele>
        <time>2015-10-31T09:58:14Z</time>
      </trkpt>
      <trkpt lat="44.519" lon="1.93974">
        <ele>166.6</ele>
        <time>2015-10-31T09:58:15Z</time>
      </trkpt>
      <trkpt lat="44.51896" lon="1.93969">
        <ele>166.3</ele>
        <time>2015-10-31T09:58:16Z</time>
      </trkpt>
      <trkpt lat="44.51893" lon="1.93966">
        <ele>166.1</ele>
        <time>2015-10-31T09:58:17Z</time>
      </trkpt>
      <trkpt lat="44.51891" lon="1.93961">
        <ele>165.9</ele>
        <time>2015-10-31T09:58:18Z</time>
      </trkpt>
      <trkpt lat="44.51887" lon="1.93956">
        <ele>165.6</ele>
        <time>2015-10-31T09:58:19Z</time>
      </trkpt>
      <trkpt lat="44.51884" lon="1.9395">
        <ele>165.4</ele>
        <time>2015-10-31T09:58:20Z</time>
      </trkpt>
      <trkpt lat="44.51881" lon="1.93944">
        <ele>165.1</ele>
        <time>2015-10-31T09:58:21Z</time>
      </trkpt>
      <trkpt lat="44.51876" lon="1.93938">
        <ele>164.5</ele>
        <time>2015-10-31T09:58:22Z</time>
      </trkpt>
      <trkpt lat="44.51872" lon="1.93935">
        <ele>164.3</ele>
        <time>2015-10-31T09:58:23Z</time>
      </trkpt>
      <trkpt lat="44.5187" lon="1.9393">
        <ele>164.4</ele>
        <time>2015-10-31T09:58:24Z</time>
      </trkpt>
      <trkpt lat="44.51866" lon="1.93927">
        <ele>164.4</ele>
        <time>2015-10-31T09:58:25Z</time>
      </trkpt>
      <trkpt lat="44.51862" lon="1.93921">
        <ele>164.5</ele>
        <time>2015-10-31T09:58:26Z</time>
      </trkpt>
      <trkpt lat="44.51859" lon="1.93919">
        <ele>164.5</ele>
        <time>2015-10-31T09:58:27Z</time>
      </trkpt>
      <trkpt lat="44.51857" lon="1.93914">
        <ele>164.7</ele>
        <time>2015-10-31T09:58:28Z</time>
      </trkpt>
      <trkpt lat="44.51854" lon="1.9391">
        <ele>164.7</ele>
        <time>2015-10-31T09:58:29Z</time>
      </trkpt>
      <trkpt lat="44.51849" lon="1.93905">
        <ele>164.7</ele>
        <time>2015-10-31T09:58:30Z</time>
      </trkpt>
      <trkpt lat="44.51844" lon="1.93901">
        <ele>164.7</ele>
        <time>2015-10-31T09:58:31Z</time>
      </trkpt>
      <trkpt lat="44.51835" lon="1.93898">
        <ele>164.3</ele>
        <time>2015-10-31T09:58:32Z</time>
      </trkpt>
      <trkpt lat="44.51833" lon="1.93894">
        <ele>164.4</ele>
        <time>2015-10-31T09:58:33Z</time>
      </trkpt>
      <trkpt lat="44.5183" lon="1.93888">
        <ele>164.6</ele>
        <time>2015-10-31T09:58:34Z</time>
      </trkpt>
      <trkpt lat="44.51826" lon="1.93885">
        <ele>164.5</ele>
        <time>2015-10-31T09:58:35Z</time>
      </trkpt>
      <trkpt lat="44.51823" lon="1.93881">
        <ele>164.5</ele>
        <time>2015-10-31T09:58:36Z</time>
      </trkpt>
      <trkpt lat="44.51818" lon="1.93873">
        <ele>164.6</ele>
        <time>2015-10-31T09:58:38Z</time>
      </trkpt>
      <trkpt lat="44.51816" lon="1.93869">
        <ele>164.5</ele>
        <time>2015-10-31T09:58:39Z</time>
      </trkpt>
      <trkpt lat="44.51811" lon="1.93865">
        <ele>164.3</ele>
        <time>2015-10-31T09:58:40Z</time>
      </trkpt>
      <trkpt lat="44.51809" lon="1.9386">
        <ele>164.1</ele>
        <time>2015-10-31T09:58:41Z</time>
      </trkpt>
      <trkpt lat="44.51806" lon="1.93853">
        <ele>163.9</ele>
        <time>2015-10-31T09:58:42Z</time>
      </trkpt>
      <trkpt lat="44.51801" lon="1.93848">
        <ele>163.5</ele>
        <time>2015-10-31T09:58:43Z</time>
      </trkpt>
      <trkpt lat="44.51798" lon="1.93843">
        <ele>163.2</ele>
        <time>2015-10-31T09:58:44Z</time>
      </trkpt>
      <trkpt lat="44.51794" lon="1.93838">
        <ele>162.7</ele>
        <time>2015-10-31T09:58:45Z</time>
      </trkpt>
      <trkpt lat="44.51791" lon="1.93832">
        <ele>162.5</ele>
        <time>2015-10-31T09:58:46Z</time>
      </trkpt>
      <trkpt lat="44.51788" lon="1.93828">
        <ele>162.2</ele>
        <time>2015-10-31T09:58:47Z</time>
      </trkpt>
      <trkpt lat="44.51783" lon="1.93824">
        <ele>162</ele>
        <time>2015-10-31T09:58:48Z</time>
      </trkpt>
      <trkpt lat="44.51781" lon="1.9382">
        <ele>161.8</ele>
        <time>2015-10-31T09:58:49Z</time>
      </trkpt>
      <trkpt lat="44.51777" lon="1.93813">
        <ele>161.6</ele>
        <time>2015-10-31T09:58:50Z</time>
      </trkpt>
      <trkpt lat="44.51773" lon="1.93807">
        <ele>161.4</ele>
        <time>2015-10-31T09:58:51Z</time>
      </trkpt>
      <trkpt lat="44.5177" lon="1.938">
        <ele>161.2</ele>
        <time>2015-10-31T09:58:52Z</time>
      </trkpt>
      <trkpt lat="44.51766" lon="1.93795">
        <ele>161.1</ele>
        <time>2015-10-31T09:58:53Z</time>
      </trkpt>
      <trkpt lat="44.51763" lon="1.9379">
        <ele>161</ele>
        <time>2015-10-31T09:58:54Z</time>
      </trkpt>
      <trkpt lat="44.51759" lon="1.93785">
        <ele>161</ele>
        <time>2015-10-31T09:58:55Z</time>
      </trkpt>
      <trkpt lat="44.51756" lon="1.9378">
        <ele>161</ele>
        <time>2015-10-31T09:58:56Z</time>
      </trkpt>
      <trkpt lat="44.51752" lon="1.93776">
        <ele>160.9</ele>
        <time>2015-10-31T09:58:57Z</time>
      </trkpt>
      <trkpt lat="44.51748" lon="1.93771">
        <ele>160.9</ele>
        <time>2015-10-31T09:58:58Z</time>
      </trkpt>
      <trkpt lat="44.51744" lon="1.93767">
        <ele>160.9</ele>
        <time>2015-10-31T09:58:59Z</time>
      </trkpt>
      <trkpt lat="44.51741" lon="1.93763">
        <ele>160.9</ele>
        <time>2015-10-31T09:59:00Z</time>
      </trkpt>
      <trkpt lat="44.51737" lon="1.93757">
        <ele>160.9</ele>
        <time>2015-10-31T09:59:01Z</time>
      </trkpt>
      <trkpt lat="44.51734" lon="1.93752">
        <ele>160.9</ele>
        <time>2015-10-31T09:59:02Z</time>
      </trkpt>
      <trkpt lat="44.5173" lon="1.93744">
        <ele>160.9</ele>
        <time>2015-10-31T09:59:03Z</time>
      </trkpt>
      <trkpt lat="44.51726" lon="1.9374">
        <ele>160.9</ele>
        <time>2015-10-31T09:59:04Z</time>
      </trkpt>
      <trkpt lat="44.51721" lon="1.93734">
        <ele>160.9</ele>
        <time>2015-10-31T09:59:05Z</time>
      </trkpt>
      <trkpt lat="44.51719" lon="1.9373">
        <ele>160.9</ele>
        <time>2015-10-31T09:59:06Z</time>
      </trkpt>
      <trkpt lat="44.51715" lon="1.93724">
        <ele>160.9</ele>
        <time>2015-10-31T09:59:07Z</time>
      </trkpt>
      <trkpt lat="44.51711" lon="1.9372">
        <ele>160.8</ele>
        <time>2015-10-31T09:59:08Z</time>
      </trkpt>
      <trkpt lat="44.51709" lon="1.93714">
        <ele>160.9</ele>
        <time>2015-10-31T09:59:09Z</time>
      </trkpt>
      <trkpt lat="44.51706" lon="1.93707">
        <ele>161.1</ele>
        <time>2015-10-31T09:59:10Z</time>
      </trkpt>
      <trkpt lat="44.51702" lon="1.93704">
        <ele>161.4</ele>
        <time>2015-10-31T09:59:11Z</time>
      </trkpt>
      <trkpt lat="44.51698" lon="1.93699">
        <ele>161.9</ele>
        <time>2015-10-31T09:59:12Z</time>
      </trkpt>
      <trkpt lat="44.51694" lon="1.93692">
        <ele>162.5</ele>
        <time>2015-10-31T09:59:13Z</time>
      </trkpt>
      <trkpt lat="44.5169" lon="1.93686">
        <ele>163.1</ele>
        <time>2015-10-31T09:59:14Z</time>
      </trkpt>
      <trkpt lat="44.51687" lon="1.93682">
        <ele>163.5</ele>
        <time>2015-10-31T09:59:15Z</time>
      </trkpt>
      <trkpt lat="44.51683" lon="1.93677">
        <ele>163.9</ele>
        <time>2015-10-31T09:59:16Z</time>
      </trkpt>
      <trkpt lat="44.51679" lon="1.93671">
        <ele>164.4</ele>
        <time>2015-10-31T09:59:17Z</time>
      </trkpt>
      <trkpt lat="44.51675" lon="1.93666">
        <ele>164.9</ele>
        <time>2015-10-31T09:59:18Z</time>
      </trkpt>
      <trkpt lat="44.51672" lon="1.93663">
        <ele>165.1</ele>
        <time>2015-10-31T09:59:19Z</time>
      </trkpt>
      <trkpt lat="44.51668" lon="1.93658">
        <ele>165.6</ele>
        <time>2015-10-31T09:59:20Z</time>
      </trkpt>
      <trkpt lat="44.51664" lon="1.93653">
        <ele>166</ele>
        <time>2015-10-31T09:59:21Z</time>
      </trkpt>
      <trkpt lat="44.51661" lon="1.93648">
        <ele>166.4</ele>
        <time>2015-10-31T09:59:22Z</time>
      </trkpt>
      <trkpt lat="44.51656" lon="1.93646">
        <ele>166.5</ele>
        <time>2015-10-31T09:59:23Z</time>
      </trkpt>
      <trkpt lat="44.51651" lon="1.93645">
        <ele>166.5</ele>
        <time>2015-10-31T09:59:24Z</time>
      </trkpt>
      <trkpt lat="44.51647" lon="1.93644">
        <ele>166.6</ele>
        <time>2015-10-31T09:59:25Z</time>
      </trkpt>
      <trkpt lat="44.51642" lon="1.93644">
        <ele>166.6</ele>
        <time>2015-10-31T09:59:26Z</time>
      </trkpt>
      <trkpt lat="44.51637" lon="1.93642">
        <ele>166.7</ele>
        <time>2015-10-31T09:59:27Z</time>
      </trkpt>
      <trkpt lat="44.51632" lon="1.93642">
        <ele>166.7</ele>
        <time>2015-10-31T09:59:28Z</time>
      </trkpt>
      <trkpt lat="44.51628" lon="1.93637">
        <ele>167</ele>
        <time>2015-10-31T09:59:29Z</time>
      </trkpt>
      <trkpt lat="44.51624" lon="1.93634">
        <ele>167.2</ele>
        <time>2015-10-31T09:59:30Z</time>
      </trkpt>
      <trkpt lat="44.5162" lon="1.93631">
        <ele>167.2</ele>
        <time>2015-10-31T09:59:31Z</time>
      </trkpt>
      <trkpt lat="44.51616" lon="1.93627">
        <ele>167.3</ele>
        <time>2015-10-31T09:59:32Z</time>
      </trkpt>
      <trkpt lat="44.51612" lon="1.93623">
        <ele>167.7</ele>
        <time>2015-10-31T09:59:33Z</time>
      </trkpt>
      <trkpt lat="44.51608" lon="1.93618">
        <ele>168.3</ele>
        <time>2015-10-31T09:59:34Z</time>
      </trkpt>
      <trkpt lat="44.51604" lon="1.93616">
        <ele>168.5</ele>
        <time>2015-10-31T09:59:35Z</time>
      </trkpt>
      <trkpt lat="44.516" lon="1.93612">
        <ele>168.8</ele>
        <time>2015-10-31T09:59:36Z</time>
      </trkpt>
      <trkpt lat="44.51595" lon="1.93609">
        <ele>168.9</ele>
        <time>2015-10-31T09:59:37Z</time>
      </trkpt>
      <trkpt lat="44.51591" lon="1.93606">
        <ele>169.3</ele>
        <time>2015-10-31T09:59:38Z</time>
      </trkpt>
      <trkpt lat="44.51586" lon="1.93603">
        <ele>169.3</ele>
        <time>2015-10-31T09:59:39Z</time>
      </trkpt>
      <trkpt lat="44.51582" lon="1.936">
        <ele>169.5</ele>
        <time>2015-10-31T09:59:40Z</time>
      </trkpt>
      <trkpt lat="44.51579" lon="1.93596">
        <ele>169.7</ele>
        <time>2015-10-31T09:59:41Z</time>
      </trkpt>
      <trkpt lat="44.51574" lon="1.93595">
        <ele>169.4</ele>
        <time>2015-10-31T09:59:42Z</time>
      </trkpt>
      <trkpt lat="44.51569" lon="1.93593">
        <ele>169.3</ele>
        <time>2015-10-31T09:59:43Z</time>
      </trkpt>
      <trkpt lat="44.51565" lon="1.93589">
        <ele>169.4</ele>
        <time>2015-10-31T09:59:44Z</time>
      </trkpt>
      <trkpt lat="44.5156" lon="1.93585">
        <ele>169.3</ele>
        <time>2015-10-31T09:59:45Z</time>
      </trkpt>
      <trkpt lat="44.51556" lon="1.93581">
        <ele>169.4</ele>
        <time>2015-10-31T09:59:46Z</time>
      </trkpt>
      <trkpt lat="44.51552" lon="1.93577">
        <ele>169.5</ele>
        <time>2015-10-31T09:59:47Z</time>
      </trkpt>
      <trkpt lat="44.51547" lon="1.93574">
        <ele>169.2</ele>
        <time>2015-10-31T09:59:48Z</time>
      </trkpt>
      <trkpt lat="44.51542" lon="1.9357">
        <ele>169</ele>
        <time>2015-10-31T09:59:49Z</time>
      </trkpt>
      <trkpt lat="44.51537" lon="1.93567">
        <ele>168.9</ele>
        <time>2015-10-31T09:59:50Z</time>
      </trkpt>
      <trkpt lat="44.51533" lon="1.93565">
        <ele>168.8</ele>
        <time>2015-10-31T09:59:51Z</time>
      </trkpt>
      <trkpt lat="44.51528" lon="1.93563">
        <ele>168.6</ele>
        <time>2015-10-31T09:59:52Z</time>
      </trkpt>
      <trkpt lat="44.51523" lon="1.93559">
        <ele>168.6</ele>
        <time>2015-10-31T09:59:53Z</time>
      </trkpt>
      <trkpt lat="44.51518" lon="1.93555">
        <ele>168.5</ele>
        <time>2015-10-31T09:59:54Z</time>
      </trkpt>
      <trkpt lat="44.51514" lon="1.93553">
        <ele>168.4</ele>
        <time>2015-10-31T09:59:55Z</time>
      </trkpt>
      <trkpt lat="44.51509" lon="1.9355">
        <ele>168.2</ele>
        <time>2015-10-31T09:59:56Z</time>
      </trkpt>
      <trkpt lat="44.51504" lon="1.93547">
        <ele>168</ele>
        <time>2015-10-31T09:59:57Z</time>
      </trkpt>
      <trkpt lat="44.51499" lon="1.93544">
        <ele>167.7</ele>
        <time>2015-10-31T09:59:58Z</time>
      </trkpt>
      <trkpt lat="44.51494" lon="1.93542">
        <ele>167.4</ele>
        <time>2015-10-31T09:59:59Z</time>
      </trkpt>
      <trkpt lat="44.51489" lon="1.9354">
        <ele>167.5</ele>
        <time>2015-10-31T10:00:00Z</time>
      </trkpt>
      <trkpt lat="44.51486" lon="1.93539">
        <ele>167.7</ele>
        <time>2015-10-31T10:00:01Z</time>
      </trkpt>
      <trkpt lat="44.5148" lon="1.93538">
        <ele>167.2</ele>
        <time>2015-10-31T10:00:02Z</time>
      </trkpt>
      <trkpt lat="44.51477" lon="1.93535">
        <ele>168</ele>
        <time>2015-10-31T10:00:03Z</time>
      </trkpt>
      <trkpt lat="44.51474" lon="1.93531">
        <ele>169.2</ele>
        <time>2015-10-31T10:00:04Z</time>
      </trkpt>
      <trkpt lat="44.5147" lon="1.93527">
        <ele>170.1</ele>
        <time>2015-10-31T10:00:05Z</time>
      </trkpt>
      <trkpt lat="44.51466" lon="1.93523">
        <ele>170.8</ele>
        <time>2015-10-31T10:00:06Z</time>
      </trkpt>
      <trkpt lat="44.51462" lon="1.9352">
        <ele>171.5</ele>
        <time>2015-10-31T10:00:07Z</time>
      </trkpt>
      <trkpt lat="44.51457" lon="1.93517">
        <ele>172</ele>
        <time>2015-10-31T10:00:08Z</time>
      </trkpt>
      <trkpt lat="44.51453" lon="1.93514">
        <ele>172.4</ele>
        <time>2015-10-31T10:00:09Z</time>
      </trkpt>
      <trkpt lat="44.51449" lon="1.93511">
        <ele>172.8</ele>
        <time>2015-10-31T10:00:10Z</time>
      </trkpt>
      <trkpt lat="44.51445" lon="1.93507">
        <ele>173.7</ele>
        <time>2015-10-31T10:00:11Z</time>
      </trkpt>
      <trkpt lat="44.51441" lon="1.93503">
        <ele>174.3</ele>
        <time>2015-10-31T10:00:12Z</time>
      </trkpt>
      <trkpt lat="44.51437" lon="1.93501">
        <ele>174.4</ele>
        <time>2015-10-31T10:00:13Z</time>
      </trkpt>
      <trkpt lat="44.51432" lon="1.93499">
        <ele>174.3</ele>
        <time>2015-10-31T10:00:14Z</time>
      </trkpt>
      <trkpt lat="44.51427" lon="1.93496">
        <ele>174.3</ele>
        <time>2015-10-31T10:00:15Z</time>
      </trkpt>
      <trkpt lat="44.51422" lon="1.93494">
        <ele>174.4</ele>
        <time>2015-10-31T10:00:16Z</time>
      </trkpt>
      <trkpt lat="44.51418" lon="1.93491">
        <ele>174.3</ele>
        <time>2015-10-31T10:00:17Z</time>
      </trkpt>
      <trkpt lat="44.51414" lon="1.93488">
        <ele>174.3</ele>
        <time>2015-10-31T10:00:18Z</time>
      </trkpt>
      <trkpt lat="44.51409" lon="1.93484">
        <ele>174.5</ele>
        <time>2015-10-31T10:00:19Z</time>
      </trkpt>
      <trkpt lat="44.51404" lon="1.9348">
        <ele>174.5</ele>
        <time>2015-10-31T10:00:20Z</time>
      </trkpt>
      <trkpt lat="44.51399" lon="1.93477">
        <ele>174.4</ele>
        <time>2015-10-31T10:00:21Z</time>
      </trkpt>
      <trkpt lat="44.51396" lon="1.93474">
        <ele>174.4</ele>
        <time>2015-10-31T10:00:22Z</time>
      </trkpt>
      <trkpt lat="44.51392" lon="1.93471">
        <ele>174.4</ele>
        <time>2015-10-31T10:00:23Z</time>
      </trkpt>
      <trkpt lat="44.51388" lon="1.93468">
        <ele>174.1</ele>
        <time>2015-10-31T10:00:24Z</time>
      </trkpt>
      <trkpt lat="44.51384" lon="1.93464">
        <ele>173.9</ele>
        <time>2015-10-31T10:00:25Z</time>
      </trkpt>
      <trkpt lat="44.5138" lon="1.93458">
        <ele>174.1</ele>
        <time>2015-10-31T10:00:26Z</time>
      </trkpt>
      <trkpt lat="44.51375" lon="1.93457">
        <ele>173.1</ele>
        <time>2015-10-31T10:00:27Z</time>
      </trkpt>
      <trkpt lat="44.5137" lon="1.93453">
        <ele>173</ele>
        <time>2015-10-31T10:00:28Z</time>
      </trkpt>
      <trkpt lat="44.51366" lon="1.9345">
        <ele>172.9</ele>
        <time>2015-10-31T10:00:29Z</time>
      </trkpt>
      <trkpt lat="44.51361" lon="1.93448">
        <ele>172.7</ele>
        <time>2015-10-31T10:00:30Z</time>
      </trkpt>
      <trkpt lat="44.51356" lon="1.93446">
        <ele>172.3</ele>
        <time>2015-10-31T10:00:31Z</time>
      </trkpt>
      <trkpt lat="44.51351" lon="1.93444">
        <ele>172.2</ele>
        <time>2015-10-31T10:00:32Z</time>
      </trkpt>
      <trkpt lat="44.51347" lon="1.93442">
        <ele>172.1</ele>
        <time>2015-10-31T10:00:33Z</time>
      </trkpt>
      <trkpt lat="44.51342" lon="1.93441">
        <ele>171.7</ele>
        <time>2015-10-31T10:00:34Z</time>
      </trkpt>
      <trkpt lat="44.51338" lon="1.93437">
        <ele>171.8</ele>
        <time>2015-10-31T10:00:35Z</time>
      </trkpt>
      <trkpt lat="44.51333" lon="1.93436">
        <ele>171.5</ele>
        <time>2015-10-31T10:00:36Z</time>
      </trkpt>
      <trkpt lat="44.51328" lon="1.93433">
        <ele>171.6</ele>
        <time>2015-10-31T10:00:37Z</time>
      </trkpt>
      <trkpt lat="44.51324" lon="1.93431">
        <ele>171.6</ele>
        <time>2015-10-31T10:00:38Z</time>
      </trkpt>
      <trkpt lat="44.51319" lon="1.9343">
        <ele>171.3</ele>
        <time>2015-10-31T10:00:39Z</time>
      </trkpt>
      <trkpt lat="44.51312" lon="1.9343">
        <ele>170.9</ele>
        <time>2015-10-31T10:00:40Z</time>
      </trkpt>
      <trkpt lat="44.51307" lon="1.9343">
        <ele>170.5</ele>
        <time>2015-10-31T10:00:41Z</time>
      </trkpt>
      <trkpt lat="44.51303" lon="1.93428">
        <ele>170.4</ele>
        <time>2015-10-31T10:00:42Z</time>
      </trkpt>
      <trkpt lat="44.51298" lon="1.93426">
        <ele>170.6</ele>
        <time>2015-10-31T10:00:43Z</time>
      </trkpt>
      <trkpt lat="44.51294" lon="1.93424">
        <ele>170.6</ele>
        <time>2015-10-31T10:00:44Z</time>
      </trkpt>
      <trkpt lat="44.5129" lon="1.93423">
        <ele>170.6</ele>
        <time>2015-10-31T10:00:45Z</time>
      </trkpt>
      <trkpt lat="44.51286" lon="1.93422">
        <ele>170.4</ele>
        <time>2015-10-31T10:00:46Z</time>
      </trkpt>
      <trkpt lat="44.51282" lon="1.93421">
        <ele>170.2</ele>
        <time>2015-10-31T10:00:47Z</time>
      </trkpt>
      <trkpt lat="44.51279" lon="1.93419">
        <ele>170.5</ele>
        <time>2015-10-31T10:00:48Z</time>
      </trkpt>
      <trkpt lat="44.51276" lon="1.93417">
        <ele>170.6</ele>
        <time>2015-10-31T10:00:49Z</time>
      </trkpt>
      <trkpt lat="44.51272" lon="1.93415">
        <ele>170.7</ele>
        <time>2015-10-31T10:00:50Z</time>
      </trkpt>
      <trkpt lat="44.51269" lon="1.93411">
        <ele>171.2</ele>
        <time>2015-10-31T10:00:51Z</time>
      </trkpt>
      <trkpt lat="44.51265" lon="1.93407">
        <ele>171.6</ele>
        <time>2015-10-31T10:00:52Z</time>
      </trkpt>
      <trkpt lat="44.5126" lon="1.93405">
        <ele>171.6</ele>
        <time>2015-10-31T10:00:53Z</time>
      </trkpt>
      <trkpt lat="44.51256" lon="1.93404">
        <ele>171.4</ele>
        <time>2015-10-31T10:00:54Z</time>
      </trkpt>
      <trkpt lat="44.51252" lon="1.93402">
        <ele>171.4</ele>
        <time>2015-10-31T10:00:55Z</time>
      </trkpt>
      <trkpt lat="44.51247" lon="1.93398">
        <ele>171.5</ele>
        <time>2015-10-31T10:00:56Z</time>
      </trkpt>
      <trkpt lat="44.51243" lon="1.93396">
        <ele>171.6</ele>
        <time>2015-10-31T10:00:57Z</time>
      </trkpt>
      <trkpt lat="44.5124" lon="1.93393">
        <ele>171.7</ele>
        <time>2015-10-31T10:00:58Z</time>
      </trkpt>
      <trkpt lat="44.51235" lon="1.9339">
        <ele>171.8</ele>
        <time>2015-10-31T10:00:59Z</time>
      </trkpt>
      <trkpt lat="44.51232" lon="1.93389">
        <ele>171.6</ele>
        <time>2015-10-31T10:01:00Z</time>
      </trkpt>
      <trkpt lat="44.51227" lon="1.93385">
        <ele>171.6</ele>
        <time>2015-10-31T10:01:01Z</time>
      </trkpt>
      <trkpt lat="44.51222" lon="1.93383">
        <ele>171.4</ele>
        <time>2015-10-31T10:01:02Z</time>
      </trkpt>
      <trkpt lat="44.51218" lon="1.93379">
        <ele>171.6</ele>
        <time>2015-10-31T10:01:03Z</time>
      </trkpt>
      <trkpt lat="44.51215" lon="1.93373">
        <ele>172.1</ele>
        <time>2015-10-31T10:01:04Z</time>
      </trkpt>
      <trkpt lat="44.5121" lon="1.9337">
        <ele>172.1</ele>
        <time>2015-10-31T10:01:05Z</time>
      </trkpt>
      <trkpt lat="44.51205" lon="1.93366">
        <ele>172.2</ele>
        <time>2015-10-31T10:01:06Z</time>
      </trkpt>
      <trkpt lat="44.51201" lon="1.93361">
        <ele>172.3</ele>
        <time>2015-10-31T10:01:07Z</time>
      </trkpt>
      <trkpt lat="44.51197" lon="1.93359">
        <ele>172.1</ele>
        <time>2015-10-31T10:01:08Z</time>
      </trkpt>
      <trkpt lat="44.51192" lon="1.93354">
        <ele>172</ele>
        <time>2015-10-31T10:01:09Z</time>
      </trkpt>
      <trkpt lat="44.51188" lon="1.9335">
        <ele>172.1</ele>
        <time>2015-10-31T10:01:10Z</time>
      </trkpt>
      <trkpt lat="44.51184" lon="1.93347">
        <ele>171.8</ele>
        <time>2015-10-31T10:01:11Z</time>
      </trkpt>
      <trkpt lat="44.5118" lon="1.93344">
        <ele>171.7</ele>
        <time>2015-10-31T10:01:12Z</time>
      </trkpt>
      <trkpt lat="44.51175" lon="1.93342">
        <ele>171</ele>
        <time>2015-10-31T10:01:13Z</time>
      </trkpt>
      <trkpt lat="44.51171" lon="1.93337">
        <ele>171.1</ele>
        <time>2015-10-31T10:01:14Z</time>
      </trkpt>
      <trkpt lat="44.51168" lon="1.93332">
        <ele>171.2</ele>
        <time>2015-10-31T10:01:15Z</time>
      </trkpt>
      <trkpt lat="44.51165" lon="1.93324">
        <ele>171.6</ele>
        <time>2015-10-31T10:01:16Z</time>
      </trkpt>
      <trkpt lat="44.5116" lon="1.93321">
        <ele>171.1</ele>
        <time>2015-10-31T10:01:17Z</time>
      </trkpt>
      <trkpt lat="44.51154" lon="1.93318">
        <ele>170.3</ele>
        <time>2015-10-31T10:01:18Z</time>
      </trkpt>
      <trkpt lat="44.5115" lon="1.93314">
        <ele>170</ele>
        <time>2015-10-31T10:01:19Z</time>
      </trkpt>
      <trkpt lat="44.51146" lon="1.9331">
        <ele>169.6</ele>
        <time>2015-10-31T10:01:20Z</time>
      </trkpt>
      <trkpt lat="44.51139" lon="1.93309">
        <ele>168.3</ele>
        <time>2015-10-31T10:01:21Z</time>
      </trkpt>
      <trkpt lat="44.51139" lon="1.93295">
        <ele>169.8</ele>
        <time>2015-10-31T10:01:22Z</time>
      </trkpt>
      <trkpt lat="44.51134" lon="1.93291">
        <ele>169.1</ele>
        <time>2015-10-31T10:01:23Z</time>
      </trkpt>
      <trkpt lat="44.51127" lon="1.9329">
        <ele>167.6</ele>
        <time>2015-10-31T10:01:24Z</time>
      </trkpt>
      <trkpt lat="44.51122" lon="1.93286">
        <ele>167.4</ele>
        <time>2015-10-31T10:01:25Z</time>
      </trkpt>
      <trkpt lat="44.51117" lon="1.93281">
        <ele>167.4</ele>
        <time>2015-10-31T10:01:26Z</time>
      </trkpt>
      <trkpt lat="44.51118" lon="1.93269">
        <ele>168.9</ele>
        <time>2015-10-31T10:01:27Z</time>
      </trkpt>
      <trkpt lat="44.51114" lon="1.93266">
        <ele>168.7</ele>
        <time>2015-10-31T10:01:28Z</time>
      </trkpt>
      <trkpt lat="44.5111" lon="1.93263">
        <ele>168.6</ele>
        <time>2015-10-31T10:01:29Z</time>
      </trkpt>
      <trkpt lat="44.51105" lon="1.93258">
        <ele>168.4</ele>
        <time>2015-10-31T10:01:30Z</time>
      </trkpt>
      <trkpt lat="44.511" lon="1.93252">
        <ele>168.3</ele>
        <time>2015-10-31T10:01:31Z</time>
      </trkpt>
      <trkpt lat="44.51096" lon="1.93246">
        <ele>168.3</ele>
        <time>2015-10-31T10:01:32Z</time>
      </trkpt>
      <trkpt lat="44.5109" lon="1.93251">
        <ele>167.2</ele>
        <time>2015-10-31T10:01:33Z</time>
      </trkpt>
      <trkpt lat="44.51086" lon="1.93246">
        <ele>166.9</ele>
        <time>2015-10-31T10:01:34Z</time>
      </trkpt>
      <trkpt lat="44.51084" lon="1.93238">
        <ele>167.3</ele>
        <time>2015-10-31T10:01:35Z</time>
      </trkpt>
      <trkpt lat="44.51081" lon="1.93234">
        <ele>167.1</ele>
        <time>2015-10-31T10:01:36Z</time>
      </trkpt>
      <trkpt lat="44.51079" lon="1.93227">
        <ele>167.4</ele>
        <time>2015-10-31T10:01:37Z</time>
      </trkpt>
      <trkpt lat="44.51072" lon="1.93223">
        <ele>166.4</ele>
        <time>2015-10-31T10:01:38Z</time>
      </trkpt>
      <trkpt lat="44.51068" lon="1.93217">
        <ele>166.1</ele>
        <time>2015-10-31T10:01:39Z</time>
      </trkpt>
      <trkpt lat="44.51062" lon="1.93214">
        <ele>165.4</ele>
        <time>2015-10-31T10:01:40Z</time>
      </trkpt>
      <trkpt lat="44.51058" lon="1.93208">
        <ele>165</ele>
        <time>2015-10-31T10:01:41Z</time>
      </trkpt>
      <trkpt lat="44.51054" lon="1.93204">
        <ele>164.7</ele>
        <time>2015-10-31T10:01:42Z</time>
      </trkpt>
      <trkpt lat="44.51051" lon="1.93202">
        <ele>164.4</ele>
        <time>2015-10-31T10:01:43Z</time>
      </trkpt>
      <trkpt lat="44.51048" lon="1.93197">
        <ele>164.2</ele>
        <time>2015-10-31T10:01:44Z</time>
      </trkpt>
      <trkpt lat="44.51044" lon="1.93192">
        <ele>164</ele>
        <time>2015-10-31T10:01:45Z</time>
      </trkpt>
      <trkpt lat="44.51039" lon="1.93187">
        <ele>163.9</ele>
        <time>2015-10-31T10:01:46Z</time>
      </trkpt>
      <trkpt lat="44.51037" lon="1.93183">
        <ele>164.1</ele>
        <time>2015-10-31T10:01:47Z</time>
      </trkpt>
      <trkpt lat="44.51035" lon="1.93178">
        <ele>164.4</ele>
        <time>2015-10-31T10:01:48Z</time>
      </trkpt>
      <trkpt lat="44.51032" lon="1.93173">
        <ele>164.5</ele>
        <time>2015-10-31T10:01:49Z</time>
      </trkpt>
      <trkpt lat="44.51029" lon="1.93169">
        <ele>164.6</ele>
        <time>2015-10-31T10:01:50Z</time>
      </trkpt>
      <trkpt lat="44.51027" lon="1.93164">
        <ele>164.8</ele>
        <time>2015-10-31T10:01:51Z</time>
      </trkpt>
      <trkpt lat="44.51023" lon="1.93159">
        <ele>164.8</ele>
        <time>2015-10-31T10:01:52Z</time>
      </trkpt>
      <trkpt lat="44.5102" lon="1.93154">
        <ele>164.9</ele>
        <time>2015-10-31T10:01:53Z</time>
      </trkpt>
      <trkpt lat="44.51018" lon="1.93149">
        <ele>165</ele>
        <time>2015-10-31T10:01:54Z</time>
      </trkpt>
      <trkpt lat="44.51015" lon="1.93145">
        <ele>164.9</ele>
        <time>2015-10-31T10:01:55Z</time>
      </trkpt>
      <trkpt lat="44.51011" lon="1.93139">
        <ele>164.8</ele>
        <time>2015-10-31T10:01:56Z</time>
      </trkpt>
      <trkpt lat="44.51008" lon="1.93133">
        <ele>164.8</ele>
        <time>2015-10-31T10:01:57Z</time>
      </trkpt>
      <trkpt lat="44.51006" lon="1.93128">
        <ele>164.6</ele>
        <time>2015-10-31T10:01:58Z</time>
      </trkpt>
      <trkpt lat="44.51002" lon="1.93122">
        <ele>164.4</ele>
        <time>2015-10-31T10:01:59Z</time>
      </trkpt>
      <trkpt lat="44.50999" lon="1.93115">
        <ele>164.3</ele>
        <time>2015-10-31T10:02:00Z</time>
      </trkpt>
      <trkpt lat="44.50996" lon="1.93108">
        <ele>164.1</ele>
        <time>2015-10-31T10:02:01Z</time>
      </trkpt>
      <trkpt lat="44.50992" lon="1.93103">
        <ele>163.8</ele>
        <time>2015-10-31T10:02:02Z</time>
      </trkpt>
      <trkpt lat="44.50988" lon="1.93097">
        <ele>163.3</ele>
        <time>2015-10-31T10:02:03Z</time>
      </trkpt>
      <trkpt lat="44.50983" lon="1.93091">
        <ele>162.7</ele>
        <time>2015-10-31T10:02:04Z</time>
      </trkpt>
      <trkpt lat="44.50978" lon="1.93084">
        <ele>162.2</ele>
        <time>2015-10-31T10:02:05Z</time>
      </trkpt>
      <trkpt lat="44.50975" lon="1.93076">
        <ele>161.9</ele>
        <time>2015-10-31T10:02:06Z</time>
      </trkpt>
      <trkpt lat="44.50971" lon="1.93071">
        <ele>161.4</ele>
        <time>2015-10-31T10:02:07Z</time>
      </trkpt>
      <trkpt lat="44.50965" lon="1.93065">
        <ele>160.5</ele>
        <time>2015-10-31T10:02:08Z</time>
      </trkpt>
      <trkpt lat="44.50961" lon="1.93058">
        <ele>160.1</ele>
        <time>2015-10-31T10:02:09Z</time>
      </trkpt>
      <trkpt lat="44.50957" lon="1.93051">
        <ele>159.7</ele>
        <time>2015-10-31T10:02:10Z</time>
      </trkpt>
      <trkpt lat="44.50956" lon="1.93045">
        <ele>159.8</ele>
        <time>2015-10-31T10:02:11Z</time>
      </trkpt>
      <trkpt lat="44.50953" lon="1.93038">
        <ele>159.9</ele>
        <time>2015-10-31T10:02:12Z</time>
      </trkpt>
      <trkpt lat="44.50949" lon="1.93031">
        <ele>160</ele>
        <time>2015-10-31T10:02:13Z</time>
      </trkpt>
      <trkpt lat="44.50946" lon="1.93026">
        <ele>160.1</ele>
        <time>2015-10-31T10:02:14Z</time>
      </trkpt>
      <trkpt lat="44.50942" lon="1.93019">
        <ele>160.1</ele>
        <time>2015-10-31T10:02:15Z</time>
      </trkpt>
      <trkpt lat="44.50937" lon="1.93012">
        <ele>160.2</ele>
        <time>2015-10-31T10:02:16Z</time>
      </trkpt>
      <trkpt lat="44.50933" lon="1.93005">
        <ele>160.1</ele>
        <time>2015-10-31T10:02:17Z</time>
      </trkpt>
      <trkpt lat="44.50931" lon="1.92998">
        <ele>160.3</ele>
        <time>2015-10-31T10:02:18Z</time>
      </trkpt>
      <trkpt lat="44.50928" lon="1.9299">
        <ele>160.4</ele>
        <time>2015-10-31T10:02:19Z</time>
      </trkpt>
      <trkpt lat="44.50925" lon="1.92982">
        <ele>160.4</ele>
        <time>2015-10-31T10:02:20Z</time>
      </trkpt>
      <trkpt lat="44.50922" lon="1.92975">
        <ele>160.4</ele>
        <time>2015-10-31T10:02:21Z</time>
      </trkpt>
      <trkpt lat="44.50919" lon="1.92968">
        <ele>160.4</ele>
        <time>2015-10-31T10:02:22Z</time>
      </trkpt>
      <trkpt lat="44.50916" lon="1.92961">
        <ele>160.4</ele>
        <time>2015-10-31T10:02:23Z</time>
      </trkpt>
      <trkpt lat="44.50914" lon="1.92954">
        <ele>160.3</ele>
        <time>2015-10-31T10:02:24Z</time>
      </trkpt>
      <trkpt lat="44.5091" lon="1.92947">
        <ele>160</ele>
        <time>2015-10-31T10:02:25Z</time>
      </trkpt>
      <trkpt lat="44.50908" lon="1.92939">
        <ele>159.9</ele>
        <time>2015-10-31T10:02:26Z</time>
      </trkpt>
      <trkpt lat="44.50905" lon="1.92934">
        <ele>159.7</ele>
        <time>2015-10-31T10:02:27Z</time>
      </trkpt>
      <trkpt lat="44.50904" lon="1.92927">
        <ele>159.5</ele>
        <time>2015-10-31T10:02:28Z</time>
      </trkpt>
      <trkpt lat="44.50902" lon="1.9292">
        <ele>159.4</ele>
        <time>2015-10-31T10:02:29Z</time>
      </trkpt>
      <trkpt lat="44.509" lon="1.92911">
        <ele>159.3</ele>
        <time>2015-10-31T10:02:30Z</time>
      </trkpt>
      <trkpt lat="44.50898" lon="1.92902">
        <ele>159.1</ele>
        <time>2015-10-31T10:02:31Z</time>
      </trkpt>
      <trkpt lat="44.50896" lon="1.92894">
        <ele>159</ele>
        <time>2015-10-31T10:02:32Z</time>
      </trkpt>
      <trkpt lat="44.50894" lon="1.92887">
        <ele>158.8</ele>
        <time>2015-10-31T10:02:33Z</time>
      </trkpt>
      <trkpt lat="44.50893" lon="1.92879">
        <ele>158.7</ele>
        <time>2015-10-31T10:02:34Z</time>
      </trkpt>
      <trkpt lat="44.50892" lon="1.92872">
        <ele>158.7</ele>
        <time>2015-10-31T10:02:35Z</time>
      </trkpt>
      <trkpt lat="44.50891" lon="1.92864">
        <ele>158.7</ele>
        <time>2015-10-31T10:02:36Z</time>
      </trkpt>
      <trkpt lat="44.50889" lon="1.92857">
        <ele>158.6</ele>
        <time>2015-10-31T10:02:37Z</time>
      </trkpt>
      <trkpt lat="44.50887" lon="1.9285">
        <ele>158.5</ele>
        <time>2015-10-31T10:02:38Z</time>
      </trkpt>
      <trkpt lat="44.50886" lon="1.92844">
        <ele>158.5</ele>
        <time>2015-10-31T10:02:39Z</time>
      </trkpt>
      <trkpt lat="44.50885" lon="1.92837">
        <ele>158.5</ele>
        <time>2015-10-31T10:02:40Z</time>
      </trkpt>
      <trkpt lat="44.50884" lon="1.92831">
        <ele>158.5</ele>
        <time>2015-10-31T10:02:41Z</time>
      </trkpt>
      <trkpt lat="44.50882" lon="1.92824">
        <ele>158.4</ele>
        <time>2015-10-31T10:02:42Z</time>
      </trkpt>
      <trkpt lat="44.50881" lon="1.92818">
        <ele>158.4</ele>
        <time>2015-10-31T10:02:43Z</time>
      </trkpt>
      <trkpt lat="44.5088" lon="1.92811">
        <ele>158.4</ele>
        <time>2015-10-31T10:02:44Z</time>
      </trkpt>
      <trkpt lat="44.50879" lon="1.92805">
        <ele>158.3</ele>
        <time>2015-10-31T10:02:45Z</time>
      </trkpt>
      <trkpt lat="44.50881" lon="1.92799">
        <ele>158.6</ele>
        <time>2015-10-31T10:02:46Z</time>
      </trkpt>
      <trkpt lat="44.50883" lon="1.92794">
        <ele>158.9</ele>
        <time>2015-10-31T10:02:47Z</time>
      </trkpt>
      <trkpt lat="44.50884" lon="1.92788">
        <ele>159.1</ele>
        <time>2015-10-31T10:02:48Z</time>
      </trkpt>
      <trkpt lat="44.50885" lon="1.92785">
        <ele>159.2</ele>
        <time>2015-10-31T10:02:49Z</time>
      </trkpt>
      <trkpt lat="44.50885" lon="1.92779">
        <ele>159.3</ele>
        <time>2015-10-31T10:02:50Z</time>
      </trkpt>
      <trkpt lat="44.50886" lon="1.92773">
        <ele>159.6</ele>
        <time>2015-10-31T10:02:51Z</time>
      </trkpt>
      <trkpt lat="44.50886" lon="1.92767">
        <ele>159.6</ele>
        <time>2015-10-31T10:02:52Z</time>
      </trkpt>
      <trkpt lat="44.50886" lon="1.92759">
        <ele>159.7</ele>
        <time>2015-10-31T10:02:53Z</time>
      </trkpt>
      <trkpt lat="44.50885" lon="1.92751">
        <ele>159.7</ele>
        <time>2015-10-31T10:02:54Z</time>
      </trkpt>
      <trkpt lat="44.50884" lon="1.92745">
        <ele>159.6</ele>
        <time>2015-10-31T10:02:55Z</time>
      </trkpt>
      <trkpt lat="44.50882" lon="1.9274">
        <ele>159.5</ele>
        <time>2015-10-31T10:02:56Z</time>
      </trkpt>
      <trkpt lat="44.50885" lon="1.92732">
        <ele>159.9</ele>
        <time>2015-10-31T10:02:57Z</time>
      </trkpt>
      <trkpt lat="44.50885" lon="1.92725">
        <ele>160.1</ele>
        <time>2015-10-31T10:02:58Z</time>
      </trkpt>
      <trkpt lat="44.50886" lon="1.92717">
        <ele>160.3</ele>
        <time>2015-10-31T10:02:59Z</time>
      </trkpt>
      <trkpt lat="44.50886" lon="1.92707">
        <ele>160.5</ele>
        <time>2015-10-31T10:03:00Z</time>
      </trkpt>
      <trkpt lat="44.50886" lon="1.927">
        <ele>160.4</ele>
        <time>2015-10-31T10:03:01Z</time>
      </trkpt>
      <trkpt lat="44.50884" lon="1.92694">
        <ele>160.1</ele>
        <time>2015-10-31T10:03:02Z</time>
      </trkpt>
      <trkpt lat="44.50885" lon="1.92688">
        <ele>160.3</ele>
        <time>2015-10-31T10:03:03Z</time>
      </trkpt>
      <trkpt lat="44.50883" lon="1.9268">
        <ele>159.9</ele>
        <time>2015-10-31T10:03:04Z</time>
      </trkpt>
      <trkpt lat="44.50884" lon="1.92672">
        <ele>160.1</ele>
        <time>2015-10-31T10:03:05Z</time>
      </trkpt>
      <trkpt lat="44.50887" lon="1.92667">
        <ele>160.4</ele>
        <time>2015-10-31T10:03:06Z</time>
      </trkpt>
      <trkpt lat="44.50887" lon="1.92656">
        <ele>160.5</ele>
        <time>2015-10-31T10:03:07Z</time>
      </trkpt>
      <trkpt lat="44.50887" lon="1.92652">
        <ele>160.4</ele>
        <time>2015-10-31T10:03:08Z</time>
      </trkpt>
      <trkpt lat="44.50888" lon="1.92643">
        <ele>160.5</ele>
        <time>2015-10-31T10:03:09Z</time>
      </trkpt>
      <trkpt lat="44.50889" lon="1.92636">
        <ele>160.6</ele>
        <time>2015-10-31T10:03:10Z</time>
      </trkpt>
      <trkpt lat="44.5089" lon="1.92628">
        <ele>160.6</ele>
        <time>2015-10-31T10:03:11Z</time>
      </trkpt>
      <trkpt lat="44.50893" lon="1.9262">
        <ele>160.9</ele>
        <time>2015-10-31T10:03:12Z</time>
      </trkpt>
      <trkpt lat="44.50893" lon="1.92613">
        <ele>160.8</ele>
        <time>2015-10-31T10:03:13Z</time>
      </trkpt>
      <trkpt lat="44.50893" lon="1.92605">
        <ele>160.9</ele>
        <time>2015-10-31T10:03:14Z</time>
      </trkpt>
      <trkpt lat="44.50895" lon="1.926">
        <ele>161</ele>
        <time>2015-10-31T10:03:15Z</time>
      </trkpt>
      <trkpt lat="44.50895" lon="1.92594">
        <ele>160.9</ele>
        <time>2015-10-31T10:03:16Z</time>
      </trkpt>
      <trkpt lat="44.50895" lon="1.92585">
        <ele>160.9</ele>
        <time>2015-10-31T10:03:18Z</time>
      </trkpt>
      <trkpt lat="44.50896" lon="1.9258">
        <ele>161</ele>
        <time>2015-10-31T10:03:19Z</time>
      </trkpt>
      <trkpt lat="44.50894" lon="1.92574">
        <ele>160.7</ele>
        <time>2015-10-31T10:03:20Z</time>
      </trkpt>
      <trkpt lat="44.50895" lon="1.92567">
        <ele>160.8</ele>
        <time>2015-10-31T10:03:21Z</time>
      </trkpt>
      <trkpt lat="44.50893" lon="1.92558">
        <ele>160.5</ele>
        <time>2015-10-31T10:03:22Z</time>
      </trkpt>
      <trkpt lat="44.50893" lon="1.9255">
        <ele>160.5</ele>
        <time>2015-10-31T10:03:23Z</time>
      </trkpt>
      <trkpt lat="44.50894" lon="1.92543">
        <ele>160.5</ele>
        <time>2015-10-31T10:03:24Z</time>
      </trkpt>
      <trkpt lat="44.50896" lon="1.92539">
        <ele>160.8</ele>
        <time>2015-10-31T10:03:25Z</time>
      </trkpt>
      <trkpt lat="44.50897" lon="1.92531">
        <ele>161.1</ele>
        <time>2015-10-31T10:03:26Z</time>
      </trkpt>
      <trkpt lat="44.50896" lon="1.92521">
        <ele>161.3</ele>
        <time>2015-10-31T10:03:27Z</time>
      </trkpt>
      <trkpt lat="44.50895" lon="1.92512">
        <ele>161.4</ele>
        <time>2015-10-31T10:03:28Z</time>
      </trkpt>
      <trkpt lat="44.50893" lon="1.92503">
        <ele>161.4</ele>
        <time>2015-10-31T10:03:29Z</time>
      </trkpt>
      <trkpt lat="44.50896" lon="1.925">
        <ele>161.8</ele>
        <time>2015-10-31T10:03:30Z</time>
      </trkpt>
      <trkpt lat="44.50896" lon="1.92493">
        <ele>161.9</ele>
        <time>2015-10-31T10:03:31Z</time>
      </trkpt>
      <trkpt lat="44.50895" lon="1.92485">
        <ele>162</ele>
        <time>2015-10-31T10:03:32Z</time>
      </trkpt>
      <trkpt lat="44.50894" lon="1.92478">
        <ele>162.1</ele>
        <time>2015-10-31T10:03:33Z</time>
      </trkpt>
      <trkpt lat="44.50893" lon="1.92471">
        <ele>162.2</ele>
        <time>2015-10-31T10:03:34Z</time>
      </trkpt>
      <trkpt lat="44.50893" lon="1.92463">
        <ele>162.4</ele>
        <time>2015-10-31T10:03:35Z</time>
      </trkpt>
      <trkpt lat="44.50893" lon="1.92458">
        <ele>162.5</ele>
        <time>2015-10-31T10:03:36Z</time>
      </trkpt>
      <trkpt lat="44.50892" lon="1.9245">
        <ele>162.3</ele>
        <time>2015-10-31T10:03:37Z</time>
      </trkpt>
      <trkpt lat="44.50891" lon="1.92443">
        <ele>162.2</ele>
        <time>2015-10-31T10:03:38Z</time>
      </trkpt>
      <trkpt lat="44.5089" lon="1.92436">
        <ele>162</ele>
        <time>2015-10-31T10:03:39Z</time>
      </trkpt>
      <trkpt lat="44.50888" lon="1.92429">
        <ele>161.7</ele>
        <time>2015-10-31T10:03:40Z</time>
      </trkpt>
      <trkpt lat="44.50888" lon="1.92422">
        <ele>161.6</ele>
        <time>2015-10-31T10:03:41Z</time>
      </trkpt>
      <trkpt lat="44.50887" lon="1.92416">
        <ele>161.5</ele>
        <time>2015-10-31T10:03:42Z</time>
      </trkpt>
      <trkpt lat="44.50886" lon="1.9241">
        <ele>161.3</ele>
        <time>2015-10-31T10:03:43Z</time>
      </trkpt>
      <trkpt lat="44.50885" lon="1.92404">
        <ele>161.2</ele>
        <time>2015-10-31T10:03:44Z</time>
      </trkpt>
      <trkpt lat="44.50883" lon="1.92399">
        <ele>161</ele>
        <time>2015-10-31T10:03:45Z</time>
      </trkpt>
      <trkpt lat="44.50881" lon="1.92394">
        <ele>160.8</ele>
        <time>2015-10-31T10:03:46Z</time>
      </trkpt>
      <trkpt lat="44.5088" lon="1.92388">
        <ele>160.5</ele>
        <time>2015-10-31T10:03:47Z</time>
      </trkpt>
      <trkpt lat="44.50879" lon="1.92382">
        <ele>160.4</ele>
        <time>2015-10-31T10:03:48Z</time>
      </trkpt>
      <trkpt lat="44.50878" lon="1.92377">
        <ele>160.2</ele>
        <time>2015-10-31T10:03:49Z</time>
      </trkpt>
      <trkpt lat="44.50876" lon="1.92371">
        <ele>160.2</ele>
        <time>2015-10-31T10:03:51Z</time>
      </trkpt>
      <trkpt lat="44.50874" lon="1.92367">
        <ele>160.1</ele>
        <time>2015-10-31T10:03:52Z</time>
      </trkpt>
      <trkpt lat="44.50873" lon="1.92363">
        <ele>160.2</ele>
        <time>2015-10-31T10:03:53Z</time>
      </trkpt>
      <trkpt lat="44.50872" lon="1.92359">
        <ele>160.2</ele>
        <time>2015-10-31T10:03:54Z</time>
      </trkpt>
      <trkpt lat="44.5087" lon="1.92352">
        <ele>160.3</ele>
        <time>2015-10-31T10:03:56Z</time>
      </trkpt>
      <trkpt lat="44.50869" lon="1.92347">
        <ele>160.3</ele>
        <time>2015-10-31T10:03:57Z</time>
      </trkpt>
      <trkpt lat="44.50867" lon="1.92343">
        <ele>160.3</ele>
        <time>2015-10-31T10:03:58Z</time>
      </trkpt>
      <trkpt lat="44.50865" lon="1.92339">
        <ele>160.3</ele>
        <time>2015-10-31T10:03:59Z</time>
      </trkpt>
      <trkpt lat="44.50863" lon="1.92335">
        <ele>160.3</ele>
        <time>2015-10-31T10:04:00Z</time>
      </trkpt>
      <trkpt lat="44.50861" lon="1.9233">
        <ele>160.3</ele>
        <time>2015-10-31T10:04:01Z</time>
      </trkpt>
      <trkpt lat="44.50859" lon="1.92326">
        <ele>160.3</ele>
        <time>2015-10-31T10:04:02Z</time>
      </trkpt>
      <trkpt lat="44.50857" lon="1.92322">
        <ele>160.3</ele>
        <time>2015-10-31T10:04:03Z</time>
      </trkpt>
      <trkpt lat="44.50856" lon="1.92318">
        <ele>160.3</ele>
        <time>2015-10-31T10:04:04Z</time>
      </trkpt>
      <trkpt lat="44.50854" lon="1.92313">
        <ele>160.3</ele>
        <time>2015-10-31T10:04:05Z</time>
      </trkpt>
      <trkpt lat="44.50852" lon="1.92308">
        <ele>160.3</ele>
        <time>2015-10-31T10:04:06Z</time>
      </trkpt>
      <trkpt lat="44.50849" lon="1.92303">
        <ele>160.2</ele>
        <time>2015-10-31T10:04:07Z</time>
      </trkpt>
      <trkpt lat="44.50846" lon="1.92298">
        <ele>160.1</ele>
        <time>2015-10-31T10:04:08Z</time>
      </trkpt>
      <trkpt lat="44.50843" lon="1.92293">
        <ele>160.1</ele>
        <time>2015-10-31T10:04:09Z</time>
      </trkpt>
      <trkpt lat="44.5084" lon="1.92288">
        <ele>160</ele>
        <time>2015-10-31T10:04:10Z</time>
      </trkpt>
      <trkpt lat="44.50834" lon="1.92281">
        <ele>159.8</ele>
        <time>2015-10-31T10:04:11Z</time>
      </trkpt>
      <trkpt lat="44.5083" lon="1.92276">
        <ele>159.7</ele>
        <time>2015-10-31T10:04:12Z</time>
      </trkpt>
      <trkpt lat="44.50828" lon="1.92269">
        <ele>159.7</ele>
        <time>2015-10-31T10:04:13Z</time>
      </trkpt>
      <trkpt lat="44.50825" lon="1.92263">
        <ele>159.7</ele>
        <time>2015-10-31T10:04:14Z</time>
      </trkpt>
      <trkpt lat="44.50821" lon="1.92259">
        <ele>159.5</ele>
        <time>2015-10-31T10:04:15Z</time>
      </trkpt>
      <trkpt lat="44.50817" lon="1.92254">
        <ele>159.4</ele>
        <time>2015-10-31T10:04:16Z</time>
      </trkpt>
      <trkpt lat="44.50814" lon="1.92248">
        <ele>159.4</ele>
        <time>2015-10-31T10:04:17Z</time>
      </trkpt>
      <trkpt lat="44.50811" lon="1.92243">
        <ele>159.3</ele>
        <time>2015-10-31T10:04:18Z</time>
      </trkpt>
      <trkpt lat="44.50808" lon="1.92238">
        <ele>159.3</ele>
        <time>2015-10-31T10:04:19Z</time>
      </trkpt>
      <trkpt lat="44.50804" lon="1.92232">
        <ele>159.2</ele>
        <time>2015-10-31T10:04:20Z</time>
      </trkpt>
      <trkpt lat="44.50802" lon="1.92227">
        <ele>159.1</ele>
        <time>2015-10-31T10:04:21Z</time>
      </trkpt>
      <trkpt lat="44.50799" lon="1.92222">
        <ele>159.1</ele>
        <time>2015-10-31T10:04:22Z</time>
      </trkpt>
      <trkpt lat="44.50796" lon="1.92217">
        <ele>159</ele>
        <time>2015-10-31T10:04:23Z</time>
      </trkpt>
      <trkpt lat="44.50794" lon="1.92213">
        <ele>159</ele>
        <time>2015-10-31T10:04:24Z</time>
      </trkpt>
      <trkpt lat="44.50792" lon="1.92207">
        <ele>159</ele>
        <time>2015-10-31T10:04:25Z</time>
      </trkpt>
      <trkpt lat="44.50789" lon="1.92202">
        <ele>158.9</ele>
        <time>2015-10-31T10:04:26Z</time>
      </trkpt>
      <trkpt lat="44.50787" lon="1.92196">
        <ele>158.8</ele>
        <time>2015-10-31T10:04:27Z</time>
      </trkpt>
      <trkpt lat="44.50784" lon="1.9219">
        <ele>158.7</ele>
        <time>2015-10-31T10:04:28Z</time>
      </trkpt>
      <trkpt lat="44.50783" lon="1.92184">
        <ele>158.6</ele>
        <time>2015-10-31T10:04:29Z</time>
      </trkpt>
      <trkpt lat="44.5078" lon="1.92178">
        <ele>158.5</ele>
        <time>2015-10-31T10:04:30Z</time>
      </trkpt>
      <trkpt lat="44.50779" lon="1.92173">
        <ele>158.4</ele>
        <time>2015-10-31T10:04:31Z</time>
      </trkpt>
      <trkpt lat="44.50778" lon="1.92166">
        <ele>158.4</ele>
        <time>2015-10-31T10:04:32Z</time>
      </trkpt>
      <trkpt lat="44.50776" lon="1.92158">
        <ele>158.4</ele>
        <time>2015-10-31T10:04:33Z</time>
      </trkpt>
      <trkpt lat="44.50775" lon="1.92152">
        <ele>158.3</ele>
        <time>2015-10-31T10:04:34Z</time>
      </trkpt>
      <trkpt lat="44.50773" lon="1.92145">
        <ele>158.3</ele>
        <time>2015-10-31T10:04:35Z</time>
      </trkpt>
      <trkpt lat="44.50773" lon="1.92139">
        <ele>158.3</ele>
        <time>2015-10-31T10:04:36Z</time>
      </trkpt>
      <trkpt lat="44.5077" lon="1.92132">
        <ele>158.2</ele>
        <time>2015-10-31T10:04:37Z</time>
      </trkpt>
      <trkpt lat="44.50771" lon="1.92126">
        <ele>158.2</ele>
        <time>2015-10-31T10:04:38Z</time>
      </trkpt>
      <trkpt lat="44.50768" lon="1.92119">
        <ele>158.2</ele>
        <time>2015-10-31T10:04:39Z</time>
      </trkpt>
      <trkpt lat="44.50768" lon="1.92111">
        <ele>158.4</ele>
        <time>2015-10-31T10:04:40Z</time>
      </trkpt>
      <trkpt lat="44.50767" lon="1.92105">
        <ele>158.5</ele>
        <time>2015-10-31T10:04:41Z</time>
      </trkpt>
      <trkpt lat="44.50766" lon="1.92099">
        <ele>158.5</ele>
        <time>2015-10-31T10:04:42Z</time>
      </trkpt>
      <trkpt lat="44.50765" lon="1.92094">
        <ele>158.5</ele>
        <time>2015-10-31T10:04:43Z</time>
      </trkpt>
      <trkpt lat="44.50764" lon="1.92086">
        <ele>158.6</ele>
        <time>2015-10-31T10:04:44Z</time>
      </trkpt>
      <trkpt lat="44.50763" lon="1.92078">
        <ele>158.7</ele>
        <time>2015-10-31T10:04:45Z</time>
      </trkpt>
      <trkpt lat="44.50761" lon="1.9207">
        <ele>158.7</ele>
        <time>2015-10-31T10:04:46Z</time>
      </trkpt>
      <trkpt lat="44.50758" lon="1.9206">
        <ele>158.7</ele>
        <time>2015-10-31T10:04:48Z</time>
      </trkpt>
      <trkpt lat="44.50757" lon="1.92054">
        <ele>158.8</ele>
        <time>2015-10-31T10:04:49Z</time>
      </trkpt>
      <trkpt lat="44.50757" lon="1.92046">
        <ele>158.8</ele>
        <time>2015-10-31T10:04:50Z</time>
      </trkpt>
      <trkpt lat="44.50757" lon="1.92039">
        <ele>159</ele>
        <time>2015-10-31T10:04:51Z</time>
      </trkpt>
      <trkpt lat="44.50756" lon="1.92033">
        <ele>159</ele>
        <time>2015-10-31T10:04:52Z</time>
      </trkpt>
      <trkpt lat="44.50755" lon="1.92026">
        <ele>159</ele>
        <time>2015-10-31T10:04:53Z</time>
      </trkpt>
      <trkpt lat="44.50754" lon="1.92018">
        <ele>159.1</ele>
        <time>2015-10-31T10:04:54Z</time>
      </trkpt>
      <trkpt lat="44.50752" lon="1.92013">
        <ele>159</ele>
        <time>2015-10-31T10:04:55Z</time>
      </trkpt>
      <trkpt lat="44.50751" lon="1.92006">
        <ele>159</ele>
        <time>2015-10-31T10:04:56Z</time>
      </trkpt>
      <trkpt lat="44.50749" lon="1.92">
        <ele>158.9</ele>
        <time>2015-10-31T10:04:57Z</time>
      </trkpt>
      <trkpt lat="44.50749" lon="1.91993">
        <ele>159</ele>
        <time>2015-10-31T10:04:58Z</time>
      </trkpt>
      <trkpt lat="44.50748" lon="1.91986">
        <ele>159</ele>
        <time>2015-10-31T10:04:59Z</time>
      </trkpt>
      <trkpt lat="44.50745" lon="1.9198">
        <ele>158.8</ele>
        <time>2015-10-31T10:05:00Z</time>
      </trkpt>
      <trkpt lat="44.50745" lon="1.91973">
        <ele>158.8</ele>
        <time>2015-10-31T10:05:01Z</time>
      </trkpt>
      <trkpt lat="44.50743" lon="1.91967">
        <ele>158.6</ele>
        <time>2015-10-31T10:05:02Z</time>
      </trkpt>
      <trkpt lat="44.50742" lon="1.91961">
        <ele>158.6</ele>
        <time>2015-10-31T10:05:03Z</time>
      </trkpt>
      <trkpt lat="44.5074" lon="1.91956">
        <ele>158.4</ele>
        <time>2015-10-31T10:05:04Z</time>
      </trkpt>
      <trkpt lat="44.50739" lon="1.91949">
        <ele>158.4</ele>
        <time>2015-10-31T10:05:05Z</time>
      </trkpt>
      <trkpt lat="44.50737" lon="1.91942">
        <ele>158.4</ele>
        <time>2015-10-31T10:05:06Z</time>
      </trkpt>
      <trkpt lat="44.50736" lon="1.91935">
        <ele>158.3</ele>
        <time>2015-10-31T10:05:07Z</time>
      </trkpt>
      <trkpt lat="44.50735" lon="1.91927">
        <ele>158.4</ele>
        <time>2015-10-31T10:05:08Z</time>
      </trkpt>
      <trkpt lat="44.50732" lon="1.91918">
        <ele>158.1</ele>
        <time>2015-10-31T10:05:09Z</time>
      </trkpt>
      <trkpt lat="44.50738" lon="1.91913">
        <ele>158.9</ele>
        <time>2015-10-31T10:05:10Z</time>
      </trkpt>
      <trkpt lat="44.50738" lon="1.91906">
        <ele>159</ele>
        <time>2015-10-31T10:05:11Z</time>
      </trkpt>
      <trkpt lat="44.50734" lon="1.91899">
        <ele>158.7</ele>
        <time>2015-10-31T10:05:12Z</time>
      </trkpt>
      <trkpt lat="44.50734" lon="1.91892">
        <ele>158.8</ele>
        <time>2015-10-31T10:05:13Z</time>
      </trkpt>
      <trkpt lat="44.50732" lon="1.91885">
        <ele>158.7</ele>
        <time>2015-10-31T10:05:14Z</time>
      </trkpt>
      <trkpt lat="44.50728" lon="1.91879">
        <ele>158.3</ele>
        <time>2015-10-31T10:05:15Z</time>
      </trkpt>
      <trkpt lat="44.50726" lon="1.91872">
        <ele>158.3</ele>
        <time>2015-10-31T10:05:16Z</time>
      </trkpt>
      <trkpt lat="44.50724" lon="1.91863">
        <ele>158.3</ele>
        <time>2015-10-31T10:05:17Z</time>
      </trkpt>
      <trkpt lat="44.50721" lon="1.91855">
        <ele>158.2</ele>
        <time>2015-10-31T10:05:18Z</time>
      </trkpt>
      <trkpt lat="44.50724" lon="1.91848">
        <ele>158.9</ele>
        <time>2015-10-31T10:05:19Z</time>
      </trkpt>
      <trkpt lat="44.50723" lon="1.91841">
        <ele>159.1</ele>
        <time>2015-10-31T10:05:20Z</time>
      </trkpt>
      <trkpt lat="44.50725" lon="1.91835">
        <ele>159.5</ele>
        <time>2015-10-31T10:05:21Z</time>
      </trkpt>
      <trkpt lat="44.50723" lon="1.91828">
        <ele>159.6</ele>
        <time>2015-10-31T10:05:22Z</time>
      </trkpt>
      <trkpt lat="44.50722" lon="1.91821">
        <ele>159.7</ele>
        <time>2015-10-31T10:05:23Z</time>
      </trkpt>
      <trkpt lat="44.50721" lon="1.91815">
        <ele>159.8</ele>
        <time>2015-10-31T10:05:24Z</time>
      </trkpt>
      <trkpt lat="44.5072" lon="1.9181">
        <ele>159.8</ele>
        <time>2015-10-31T10:05:25Z</time>
      </trkpt>
      <trkpt lat="44.50717" lon="1.91804">
        <ele>159.7</ele>
        <time>2015-10-31T10:05:26Z</time>
      </trkpt>
      <trkpt lat="44.50716" lon="1.91798">
        <ele>159.7</ele>
        <time>2015-10-31T10:05:27Z</time>
      </trkpt>
      <trkpt lat="44.50713" lon="1.91793">
        <ele>159.5</ele>
        <time>2015-10-31T10:05:28Z</time>
      </trkpt>
      <trkpt lat="44.50709" lon="1.91789">
        <ele>159.1</ele>
        <time>2015-10-31T10:05:29Z</time>
      </trkpt>
      <trkpt lat="44.50707" lon="1.91785">
        <ele>158.9</ele>
        <time>2015-10-31T10:05:30Z</time>
      </trkpt>
      <trkpt lat="44.50704" lon="1.91781">
        <ele>158.7</ele>
        <time>2015-10-31T10:05:31Z</time>
      </trkpt>
      <trkpt lat="44.50701" lon="1.91778">
        <ele>158.5</ele>
        <time>2015-10-31T10:05:32Z</time>
      </trkpt>
      <trkpt lat="44.50698" lon="1.91773">
        <ele>158.4</ele>
        <time>2015-10-31T10:05:33Z</time>
      </trkpt>
      <trkpt lat="44.50695" lon="1.9177">
        <ele>158.2</ele>
        <time>2015-10-31T10:05:34Z</time>
      </trkpt>
      <trkpt lat="44.50692" lon="1.91765">
        <ele>158</ele>
        <time>2015-10-31T10:05:35Z</time>
      </trkpt>
      <trkpt lat="44.50691" lon="1.91758">
        <ele>158</ele>
        <time>2015-10-31T10:05:36Z</time>
      </trkpt>
      <trkpt lat="44.50691" lon="1.91751">
        <ele>158</ele>
        <time>2015-10-31T10:05:37Z</time>
      </trkpt>
      <trkpt lat="44.50692" lon="1.91745">
        <ele>158</ele>
        <time>2015-10-31T10:05:38Z</time>
      </trkpt>
      <trkpt lat="44.50692" lon="1.91739">
        <ele>158</ele>
        <time>2015-10-31T10:05:39Z</time>
      </trkpt>
      <trkpt lat="44.50692" lon="1.91735">
        <ele>158</ele>
        <time>2015-10-31T10:05:40Z</time>
      </trkpt>
      <trkpt lat="44.50692" lon="1.9173">
        <ele>158</ele>
        <time>2015-10-31T10:05:41Z</time>
      </trkpt>
      <trkpt lat="44.50692" lon="1.91724">
        <ele>158</ele>
        <time>2015-10-31T10:05:43Z</time>
      </trkpt>
      <trkpt lat="44.50689" lon="1.91722">
        <ele>157.8</ele>
        <time>2015-10-31T10:08:14Z</time>
      </trkpt>
      <trkpt lat="44.50688" lon="1.91718">
        <ele>157.8</ele>
        <time>2015-10-31T10:08:15Z</time>
      </trkpt>
      <trkpt lat="44.50688" lon="1.91714">
        <ele>157.7</ele>
        <time>2015-10-31T10:08:16Z</time>
      </trkpt>
      <trkpt lat="44.50687" lon="1.91709">
        <ele>157.7</ele>
        <time>2015-10-31T10:08:17Z</time>
      </trkpt>
      <trkpt lat="44.50687" lon="1.91705">
        <ele>157.9</ele>
        <time>2015-10-31T10:08:18Z</time>
      </trkpt>
      <trkpt lat="44.50686" lon="1.91699">
        <ele>158.1</ele>
        <time>2015-10-31T10:08:19Z</time>
      </trkpt>
      <trkpt lat="44.50685" lon="1.91693">
        <ele>158.4</ele>
        <time>2015-10-31T10:08:20Z</time>
      </trkpt>
      <trkpt lat="44.50685" lon="1.91687">
        <ele>158.6</ele>
        <time>2015-10-31T10:08:21Z</time>
      </trkpt>
      <trkpt lat="44.50684" lon="1.91681">
        <ele>158.8</ele>
        <time>2015-10-31T10:08:22Z</time>
      </trkpt>
      <trkpt lat="44.50683" lon="1.91673">
        <ele>159.1</ele>
        <time>2015-10-31T10:08:23Z</time>
      </trkpt>
      <trkpt lat="44.50681" lon="1.91666">
        <ele>159.2</ele>
        <time>2015-10-31T10:08:24Z</time>
      </trkpt>
      <trkpt lat="44.5068" lon="1.9166">
        <ele>159.4</ele>
        <time>2015-10-31T10:08:25Z</time>
      </trkpt>
      <trkpt lat="44.5068" lon="1.91652">
        <ele>159.7</ele>
        <time>2015-10-31T10:08:26Z</time>
      </trkpt>
      <trkpt lat="44.50679" lon="1.91644">
        <ele>160</ele>
        <time>2015-10-31T10:08:27Z</time>
      </trkpt>
      <trkpt lat="44.50678" lon="1.91635">
        <ele>160.3</ele>
        <time>2015-10-31T10:08:28Z</time>
      </trkpt>
      <trkpt lat="44.50678" lon="1.91627">
        <ele>160.6</ele>
        <time>2015-10-31T10:08:29Z</time>
      </trkpt>
      <trkpt lat="44.50676" lon="1.9162">
        <ele>160.8</ele>
        <time>2015-10-31T10:08:30Z</time>
      </trkpt>
      <trkpt lat="44.50673" lon="1.91613">
        <ele>160.7</ele>
        <time>2015-10-31T10:08:31Z</time>
      </trkpt>
      <trkpt lat="44.50671" lon="1.91606">
        <ele>160.8</ele>
        <time>2015-10-31T10:08:32Z</time>
      </trkpt>
      <trkpt lat="44.50669" lon="1.91597">
        <ele>160.9</ele>
        <time>2015-10-31T10:08:33Z</time>
      </trkpt>
      <trkpt lat="44.50665" lon="1.9159">
        <ele>160.5</ele>
        <time>2015-10-31T10:08:34Z</time>
      </trkpt>
      <trkpt lat="44.50665" lon="1.91585">
        <ele>160.7</ele>
        <time>2015-10-31T10:08:35Z</time>
      </trkpt>
      <trkpt lat="44.50665" lon="1.91576">
        <ele>161</ele>
        <time>2015-10-31T10:08:36Z</time>
      </trkpt>
      <trkpt lat="44.50664" lon="1.91567">
        <ele>161.1</ele>
        <time>2015-10-31T10:08:37Z</time>
      </trkpt>
      <trkpt lat="44.50659" lon="1.9156">
        <ele>160.4</ele>
        <time>2015-10-31T10:08:38Z</time>
      </trkpt>
      <trkpt lat="44.50657" lon="1.91552">
        <ele>160.4</ele>
        <time>2015-10-31T10:08:39Z</time>
      </trkpt>
      <trkpt lat="44.50656" lon="1.91543">
        <ele>160.4</ele>
        <time>2015-10-31T10:08:40Z</time>
      </trkpt>
      <trkpt lat="44.50655" lon="1.91534">
        <ele>160.7</ele>
        <time>2015-10-31T10:08:41Z</time>
      </trkpt>
      <trkpt lat="44.50654" lon="1.91524">
        <ele>161.2</ele>
        <time>2015-10-31T10:08:42Z</time>
      </trkpt>
      <trkpt lat="44.50652" lon="1.91516">
        <ele>161.2</ele>
        <time>2015-10-31T10:08:43Z</time>
      </trkpt>
      <trkpt lat="44.5065" lon="1.91507">
        <ele>161.5</ele>
        <time>2015-10-31T10:08:44Z</time>
      </trkpt>
      <trkpt lat="44.50649" lon="1.91498">
        <ele>161.9</ele>
        <time>2015-10-31T10:08:45Z</time>
      </trkpt>
      <trkpt lat="44.50651" lon="1.91493">
        <ele>162.6</ele>
        <time>2015-10-31T10:08:46Z</time>
      </trkpt>
      <trkpt lat="44.50649" lon="1.91483">
        <ele>162.7</ele>
        <time>2015-10-31T10:08:47Z</time>
      </trkpt>
      <trkpt lat="44.50647" lon="1.91474">
        <ele>162.7</ele>
        <time>2015-10-31T10:08:48Z</time>
      </trkpt>
      <trkpt lat="44.50647" lon="1.91465">
        <ele>163.3</ele>
        <time>2015-10-31T10:08:49Z</time>
      </trkpt>
      <trkpt lat="44.50645" lon="1.91457">
        <ele>163.5</ele>
        <time>2015-10-31T10:08:50Z</time>
      </trkpt>
      <trkpt lat="44.50642" lon="1.91449">
        <ele>164.1</ele>
        <time>2015-10-31T10:08:51Z</time>
      </trkpt>
      <trkpt lat="44.50635" lon="1.91427">
        <ele>165.3</ele>
        <time>2015-10-31T10:08:54Z</time>
      </trkpt>
      <trkpt lat="44.50633" lon="1.91419">
        <ele>166.2</ele>
        <time>2015-10-31T10:08:56Z</time>
      </trkpt>
      <trkpt lat="44.50629" lon="1.91403">
        <ele>167.1</ele>
        <time>2015-10-31T10:08:57Z</time>
      </trkpt>
      <trkpt lat="44.50628" lon="1.91397">
        <ele>167.7</ele>
        <time>2015-10-31T10:08:58Z</time>
      </trkpt>
      <trkpt lat="44.50627" lon="1.91391">
        <ele>168.2</ele>
        <time>2015-10-31T10:08:59Z</time>
      </trkpt>
      <trkpt lat="44.50622" lon="1.91381">
        <ele>168.6</ele>
        <time>2015-10-31T10:09:00Z</time>
      </trkpt>
      <trkpt lat="44.50616" lon="1.91373">
        <ele>169.1</ele>
        <time>2015-10-31T10:09:01Z</time>
      </trkpt>
      <trkpt lat="44.5061" lon="1.91365">
        <ele>169.8</ele>
        <time>2015-10-31T10:09:02Z</time>
      </trkpt>
      <trkpt lat="44.50605" lon="1.91356">
        <ele>171</ele>
        <time>2015-10-31T10:09:03Z</time>
      </trkpt>
      <trkpt lat="44.506" lon="1.91348">
        <ele>171.2</ele>
        <time>2015-10-31T10:09:04Z</time>
      </trkpt>
      <trkpt lat="44.50601" lon="1.91343">
        <ele>172.6</ele>
        <time>2015-10-31T10:09:05Z</time>
      </trkpt>
      <trkpt lat="44.50596" lon="1.91338">
        <ele>172.4</ele>
        <time>2015-10-31T10:09:06Z</time>
      </trkpt>
      <trkpt lat="44.5059" lon="1.91331">
        <ele>172</ele>
        <time>2015-10-31T10:09:07Z</time>
      </trkpt>
      <trkpt lat="44.50587" lon="1.91324">
        <ele>172.4</ele>
        <time>2015-10-31T10:09:08Z</time>
      </trkpt>
      <trkpt lat="44.50584" lon="1.91316">
        <ele>172.8</ele>
        <time>2015-10-31T10:09:09Z</time>
      </trkpt>
      <trkpt lat="44.50581" lon="1.91307">
        <ele>173</ele>
        <time>2015-10-31T10:09:10Z</time>
      </trkpt>
      <trkpt lat="44.50576" lon="1.913">
        <ele>172.3</ele>
        <time>2015-10-31T10:09:11Z</time>
      </trkpt>
      <trkpt lat="44.50571" lon="1.91292">
        <ele>171.6</ele>
        <time>2015-10-31T10:09:12Z</time>
      </trkpt>
      <trkpt lat="44.50569" lon="1.91284">
        <ele>173.3</ele>
        <time>2015-10-31T10:09:13Z</time>
      </trkpt>
      <trkpt lat="44.50563" lon="1.9128">
        <ele>172.8</ele>
        <time>2015-10-31T10:09:14Z</time>
      </trkpt>
      <trkpt lat="44.5056" lon="1.91272">
        <ele>174</ele>
        <time>2015-10-31T10:09:15Z</time>
      </trkpt>
      <trkpt lat="44.50555" lon="1.91267">
        <ele>173.9</ele>
        <time>2015-10-31T10:09:16Z</time>
      </trkpt>
      <trkpt lat="44.50552" lon="1.91261">
        <ele>174.8</ele>
        <time>2015-10-31T10:09:17Z</time>
      </trkpt>
      <trkpt lat="44.50549" lon="1.91257">
        <ele>174.8</ele>
        <time>2015-10-31T10:09:18Z</time>
      </trkpt>
      <trkpt lat="44.50544" lon="1.91249">
        <ele>175.4</ele>
        <time>2015-10-31T10:09:19Z</time>
      </trkpt>
      <trkpt lat="44.50537" lon="1.91243">
        <ele>175.2</ele>
        <time>2015-10-31T10:09:20Z</time>
      </trkpt>
      <trkpt lat="44.50533" lon="1.91237">
        <ele>176.4</ele>
        <time>2015-10-31T10:09:21Z</time>
      </trkpt>
      <trkpt lat="44.50528" lon="1.91231">
        <ele>177</ele>
        <time>2015-10-31T10:09:22Z</time>
      </trkpt>
      <trkpt lat="44.50526" lon="1.91226">
        <ele>177.7</ele>
        <time>2015-10-31T10:09:23Z</time>
      </trkpt>
      <trkpt lat="44.50516" lon="1.91219">
        <ele>176.6</ele>
        <time>2015-10-31T10:09:24Z</time>
      </trkpt>
      <trkpt lat="44.50508" lon="1.91217">
        <ele>174.5</ele>
        <time>2015-10-31T10:09:25Z</time>
      </trkpt>
      <trkpt lat="44.50503" lon="1.91212">
        <ele>173.8</ele>
        <time>2015-10-31T10:09:26Z</time>
      </trkpt>
      <trkpt lat="44.50498" lon="1.91208">
        <ele>173.2</ele>
        <time>2015-10-31T10:09:27Z</time>
      </trkpt>
      <trkpt lat="44.50494" lon="1.91202">
        <ele>174.6</ele>
        <time>2015-10-31T10:09:28Z</time>
      </trkpt>
      <trkpt lat="44.50487" lon="1.91197">
        <ele>174.3</ele>
        <time>2015-10-31T10:09:29Z</time>
      </trkpt>
      <trkpt lat="44.50482" lon="1.9119">
        <ele>175.6</ele>
        <time>2015-10-31T10:09:30Z</time>
      </trkpt>
      <trkpt lat="44.50477" lon="1.91187">
        <ele>174.9</ele>
        <time>2015-10-31T10:09:31Z</time>
      </trkpt>
      <trkpt lat="44.50475" lon="1.91181">
        <ele>176.8</ele>
        <time>2015-10-31T10:09:32Z</time>
      </trkpt>
      <trkpt lat="44.50469" lon="1.9118">
        <ele>175</ele>
        <time>2015-10-31T10:09:33Z</time>
      </trkpt>
      <trkpt lat="44.50464" lon="1.91175">
        <ele>175.2</ele>
        <time>2015-10-31T10:09:34Z</time>
      </trkpt>
      <trkpt lat="44.50458" lon="1.91172">
        <ele>174.4</ele>
        <time>2015-10-31T10:09:35Z</time>
      </trkpt>
      <trkpt lat="44.50451" lon="1.91166">
        <ele>175.8</ele>
        <time>2015-10-31T10:09:36Z</time>
      </trkpt>
      <trkpt lat="44.50447" lon="1.91161">
        <ele>177.5</ele>
        <time>2015-10-31T10:09:37Z</time>
      </trkpt>
      <trkpt lat="44.50443" lon="1.91155">
        <ele>179</ele>
        <time>2015-10-31T10:09:38Z</time>
      </trkpt>
      <trkpt lat="44.50437" lon="1.91152">
        <ele>179.4</ele>
        <time>2015-10-31T10:09:39Z</time>
      </trkpt>
      <trkpt lat="44.50432" lon="1.91148">
        <ele>180.1</ele>
        <time>2015-10-31T10:09:40Z</time>
      </trkpt>
      <trkpt lat="44.50427" lon="1.91142">
        <ele>180.9</ele>
        <time>2015-10-31T10:09:41Z</time>
      </trkpt>
      <trkpt lat="44.50421" lon="1.91139">
        <ele>181</ele>
        <time>2015-10-31T10:09:42Z</time>
      </trkpt>
      <trkpt lat="44.50417" lon="1.91135">
        <ele>181.5</ele>
        <time>2015-10-31T10:09:43Z</time>
      </trkpt>
      <trkpt lat="44.50411" lon="1.91131">
        <ele>181.6</ele>
        <time>2015-10-31T10:09:44Z</time>
      </trkpt>
      <trkpt lat="44.50406" lon="1.91125">
        <ele>182</ele>
        <time>2015-10-31T10:09:45Z</time>
      </trkpt>
      <trkpt lat="44.504" lon="1.91124">
        <ele>181.3</ele>
        <time>2015-10-31T10:09:46Z</time>
      </trkpt>
      <trkpt lat="44.50393" lon="1.91118">
        <ele>183.9</ele>
        <time>2015-10-31T10:09:47Z</time>
      </trkpt>
      <trkpt lat="44.5039" lon="1.91116">
        <ele>184.5</ele>
        <time>2015-10-31T10:09:48Z</time>
      </trkpt>
      <trkpt lat="44.50385" lon="1.9111">
        <ele>187.1</ele>
        <time>2015-10-31T10:09:49Z</time>
      </trkpt>
      <trkpt lat="44.50379" lon="1.91105">
        <ele>189.1</ele>
        <time>2015-10-31T10:09:50Z</time>
      </trkpt>
      <trkpt lat="44.50377" lon="1.91101">
        <ele>191.4</ele>
        <time>2015-10-31T10:09:51Z</time>
      </trkpt>
      <trkpt lat="44.50374" lon="1.91096">
        <ele>194.3</ele>
        <time>2015-10-31T10:09:52Z</time>
      </trkpt>
      <trkpt lat="44.50368" lon="1.91092">
        <ele>195.5</ele>
        <time>2015-10-31T10:09:53Z</time>
      </trkpt>
      <trkpt lat="44.50363" lon="1.91088">
        <ele>197.2</ele>
        <time>2015-10-31T10:09:54Z</time>
      </trkpt>
      <trkpt lat="44.50358" lon="1.91083">
        <ele>200</ele>
        <time>2015-10-31T10:09:55Z</time>
      </trkpt>
      <trkpt lat="44.50353" lon="1.91083">
        <ele>199.2</ele>
        <time>2015-10-31T10:09:56Z</time>
      </trkpt>
      <trkpt lat="44.50346" lon="1.9108">
        <ele>200</ele>
        <time>2015-10-31T10:09:57Z</time>
      </trkpt>
      <trkpt lat="44.50341" lon="1.91077">
        <ele>200.8</ele>
        <time>2015-10-31T10:09:58Z</time>
      </trkpt>
      <trkpt lat="44.50335" lon="1.91077">
        <ele>199.5</ele>
        <time>2015-10-31T10:09:59Z</time>
      </trkpt>
      <trkpt lat="44.50329" lon="1.91076">
        <ele>199.7</ele>
        <time>2015-10-31T10:10:00Z</time>
      </trkpt>
      <trkpt lat="44.50323" lon="1.91074">
        <ele>199.6</ele>
        <time>2015-10-31T10:10:01Z</time>
      </trkpt>
      <trkpt lat="44.50319" lon="1.9107">
        <ele>201.3</ele>
        <time>2015-10-31T10:10:02Z</time>
      </trkpt>
      <trkpt lat="44.50314" lon="1.91067">
        <ele>202.4</ele>
        <time>2015-10-31T10:10:03Z</time>
      </trkpt>
      <trkpt lat="44.50308" lon="1.91066">
        <ele>201.9</ele>
        <time>2015-10-31T10:10:04Z</time>
      </trkpt>
      <trkpt lat="44.50302" lon="1.91065">
        <ele>201.4</ele>
        <time>2015-10-31T10:10:05Z</time>
      </trkpt>
      <trkpt lat="44.50294" lon="1.91067">
        <ele>199</ele>
        <time>2015-10-31T10:10:06Z</time>
      </trkpt>
      <trkpt lat="44.50288" lon="1.91066">
        <ele>199.3</ele>
        <time>2015-10-31T10:10:07Z</time>
      </trkpt>
      <trkpt lat="44.50283" lon="1.91061">
        <ele>201.8</ele>
        <time>2015-10-31T10:10:08Z</time>
      </trkpt>
      <trkpt lat="44.50277" lon="1.91052">
        <ele>206.9</ele>
        <time>2015-10-31T10:10:10Z</time>
      </trkpt>
      <trkpt lat="44.50275" lon="1.9105">
        <ele>208.2</ele>
        <time>2015-10-31T10:10:11Z</time>
      </trkpt>
      <trkpt lat="44.50269" lon="1.91046">
        <ele>210.6</ele>
        <time>2015-10-31T10:10:12Z</time>
      </trkpt>
      <trkpt lat="44.50264" lon="1.91045">
        <ele>210.5</ele>
        <time>2015-10-31T10:10:13Z</time>
      </trkpt>
      <trkpt lat="44.50256" lon="1.9105">
        <ele>207.6</ele>
        <time>2015-10-31T10:10:14Z</time>
      </trkpt>
      <trkpt lat="44.50249" lon="1.91051">
        <ele>206.6</ele>
        <time>2015-10-31T10:10:15Z</time>
      </trkpt>
      <trkpt lat="44.50243" lon="1.91052">
        <ele>205.4</ele>
        <time>2015-10-31T10:10:16Z</time>
      </trkpt>
      <trkpt lat="44.50239" lon="1.91053">
        <ele>204.7</ele>
        <time>2015-10-31T10:10:17Z</time>
      </trkpt>
      <trkpt lat="44.50237" lon="1.91045">
        <ele>209.7</ele>
        <time>2015-10-31T10:10:18Z</time>
      </trkpt>
      <trkpt lat="44.50232" lon="1.91046">
        <ele>208.4</ele>
        <time>2015-10-31T10:10:19Z</time>
      </trkpt>
      <trkpt lat="44.50229" lon="1.91043">
        <ele>210.2</ele>
        <time>2015-10-31T10:10:20Z</time>
      </trkpt>
      <trkpt lat="44.50225" lon="1.9104">
        <ele>212.1</ele>
        <time>2015-10-31T10:10:21Z</time>
      </trkpt>
      <trkpt lat="44.50221" lon="1.91037">
        <ele>214</ele>
        <time>2015-10-31T10:10:22Z</time>
      </trkpt>
      <trkpt lat="44.50216" lon="1.91033">
        <ele>215.8</ele>
        <time>2015-10-31T10:10:23Z</time>
      </trkpt>
      <trkpt lat="44.5021" lon="1.91038">
        <ele>212.6</ele>
        <time>2015-10-31T10:10:24Z</time>
      </trkpt>
      <trkpt lat="44.50204" lon="1.91041">
        <ele>211.1</ele>
        <time>2015-10-31T10:10:25Z</time>
      </trkpt>
      <trkpt lat="44.50201" lon="1.91033">
        <ele>216.6</ele>
        <time>2015-10-31T10:10:26Z</time>
      </trkpt>
      <trkpt lat="44.50197" lon="1.91034">
        <ele>216.7</ele>
        <time>2015-10-31T10:10:27Z</time>
      </trkpt>
      <trkpt lat="44.50196" lon="1.91029">
        <ele>220.1</ele>
        <time>2015-10-31T10:10:28Z</time>
      </trkpt>
      <trkpt lat="44.50193" lon="1.91034">
        <ele>217.6</ele>
        <time>2015-10-31T10:10:30Z</time>
      </trkpt>
      <trkpt lat="44.50195" lon="1.9103">
        <ele>219.6</ele>
        <time>2015-10-31T10:10:33Z</time>
      </trkpt>
      <trkpt lat="44.50195" lon="1.91034">
        <ele>217</ele>
        <time>2015-10-31T10:10:35Z</time>
      </trkpt>
      <trkpt lat="44.50191" lon="1.9104">
        <ele>214.3</ele>
        <time>2015-10-31T10:14:19Z</time>
      </trkpt>
      <trkpt lat="44.50186" lon="1.91039">
        <ele>215.9</ele>
        <time>2015-10-31T10:14:21Z</time>
      </trkpt>
      <trkpt lat="44.50182" lon="1.91037">
        <ele>217.2</ele>
        <time>2015-10-31T10:14:22Z</time>
      </trkpt>
      <trkpt lat="44.50177" lon="1.91037">
        <ele>217.9</ele>
        <time>2015-10-31T10:14:23Z</time>
      </trkpt>
      <trkpt lat="44.50174" lon="1.91037">
        <ele>218.7</ele>
        <time>2015-10-31T10:14:24Z</time>
      </trkpt>
      <trkpt lat="44.5017" lon="1.91036">
        <ele>219.7</ele>
        <time>2015-10-31T10:14:25Z</time>
      </trkpt>
      <trkpt lat="44.50166" lon="1.91036">
        <ele>220.7</ele>
        <time>2015-10-31T10:14:26Z</time>
      </trkpt>
      <trkpt lat="44.50162" lon="1.91034">
        <ele>222</ele>
        <time>2015-10-31T10:14:27Z</time>
      </trkpt>
      <trkpt lat="44.50158" lon="1.91032">
        <ele>223.5</ele>
        <time>2015-10-31T10:14:28Z</time>
      </trkpt>
      <trkpt lat="44.50154" lon="1.91031">
        <ele>224.9</ele>
        <time>2015-10-31T10:14:29Z</time>
      </trkpt>
      <trkpt lat="44.50149" lon="1.91028">
        <ele>226.6</ele>
        <time>2015-10-31T10:14:30Z</time>
      </trkpt>
      <trkpt lat="44.50145" lon="1.91026">
        <ele>228.4</ele>
        <time>2015-10-31T10:14:31Z</time>
      </trkpt>
      <trkpt lat="44.5014" lon="1.91023">
        <ele>230.2</ele>
        <time>2015-10-31T10:14:32Z</time>
      </trkpt>
      <trkpt lat="44.50136" lon="1.91019">
        <ele>232</ele>
        <time>2015-10-31T10:14:33Z</time>
      </trkpt>
      <trkpt lat="44.50131" lon="1.91017">
        <ele>233.2</ele>
        <time>2015-10-31T10:14:34Z</time>
      </trkpt>
      <trkpt lat="44.50126" lon="1.91017">
        <ele>233.8</ele>
        <time>2015-10-31T10:14:35Z</time>
      </trkpt>
      <trkpt lat="44.50121" lon="1.91017">
        <ele>234</ele>
        <time>2015-10-31T10:14:36Z</time>
      </trkpt>
      <trkpt lat="44.50117" lon="1.91018">
        <ele>234.1</ele>
        <time>2015-10-31T10:14:37Z</time>
      </trkpt>
      <trkpt lat="44.50112" lon="1.91017">
        <ele>234.5</ele>
        <time>2015-10-31T10:14:38Z</time>
      </trkpt>
      <trkpt lat="44.50108" lon="1.91018">
        <ele>234.4</ele>
        <time>2015-10-31T10:14:39Z</time>
      </trkpt>
      <trkpt lat="44.50103" lon="1.91019">
        <ele>234.4</ele>
        <time>2015-10-31T10:14:40Z</time>
      </trkpt>
      <trkpt lat="44.50098" lon="1.91021">
        <ele>234.2</ele>
        <time>2015-10-31T10:14:41Z</time>
      </trkpt>
      <trkpt lat="44.50093" lon="1.91022">
        <ele>234.2</ele>
        <time>2015-10-31T10:14:42Z</time>
      </trkpt>
      <trkpt lat="44.50088" lon="1.91023">
        <ele>234.4</ele>
        <time>2015-10-31T10:14:43Z</time>
      </trkpt>
      <trkpt lat="44.50084" lon="1.91024">
        <ele>234.6</ele>
        <time>2015-10-31T10:14:44Z</time>
      </trkpt>
      <trkpt lat="44.50079" lon="1.91025">
        <ele>234.7</ele>
        <time>2015-10-31T10:14:45Z</time>
      </trkpt>
      <trkpt lat="44.50074" lon="1.91026">
        <ele>234.9</ele>
        <time>2015-10-31T10:14:46Z</time>
      </trkpt>
      <trkpt lat="44.50069" lon="1.91027">
        <ele>235.2</ele>
        <time>2015-10-31T10:14:47Z</time>
      </trkpt>
      <trkpt lat="44.50064" lon="1.91027">
        <ele>235.7</ele>
        <time>2015-10-31T10:14:48Z</time>
      </trkpt>
      <trkpt lat="44.50059" lon="1.91028">
        <ele>236</ele>
        <time>2015-10-31T10:14:49Z</time>
      </trkpt>
      <trkpt lat="44.50054" lon="1.91029">
        <ele>236.4</ele>
        <time>2015-10-31T10:14:50Z</time>
      </trkpt>
      <trkpt lat="44.5005" lon="1.9103">
        <ele>236.7</ele>
        <time>2015-10-31T10:14:51Z</time>
      </trkpt>
      <trkpt lat="44.50046" lon="1.9103">
        <ele>237.1</ele>
        <time>2015-10-31T10:14:52Z</time>
      </trkpt>
      <trkpt lat="44.50042" lon="1.91033">
        <ele>237.4</ele>
        <time>2015-10-31T10:14:54Z</time>
      </trkpt>
      <trkpt lat="44.50037" lon="1.91035">
        <ele>237.1</ele>
        <time>2015-10-31T10:14:56Z</time>
      </trkpt>
      <trkpt lat="44.50034" lon="1.91036">
        <ele>237</ele>
        <time>2015-10-31T10:14:57Z</time>
      </trkpt>
      <trkpt lat="44.50029" lon="1.91037">
        <ele>236.8</ele>
        <time>2015-10-31T10:14:59Z</time>
      </trkpt>
      <trkpt lat="44.50025" lon="1.91038">
        <ele>236.7</ele>
        <time>2015-10-31T10:15:00Z</time>
      </trkpt>
      <trkpt lat="44.50022" lon="1.9104">
        <ele>236.5</ele>
        <time>2015-10-31T10:15:01Z</time>
      </trkpt>
      <trkpt lat="44.50018" lon="1.91042">
        <ele>236.4</ele>
        <time>2015-10-31T10:15:02Z</time>
      </trkpt>
      <trkpt lat="44.50014" lon="1.91044">
        <ele>235.9</ele>
        <time>2015-10-31T10:15:03Z</time>
      </trkpt>
      <trkpt lat="44.5001" lon="1.91045">
        <ele>235.4</ele>
        <time>2015-10-31T10:15:04Z</time>
      </trkpt>
      <trkpt lat="44.50007" lon="1.91046">
        <ele>235</ele>
        <time>2015-10-31T10:15:05Z</time>
      </trkpt>
      <trkpt lat="44.50003" lon="1.91048">
        <ele>234.6</ele>
        <time>2015-10-31T10:15:06Z</time>
      </trkpt>
      <trkpt lat="44.5" lon="1.9105">
        <ele>234.2</ele>
        <time>2015-10-31T10:15:07Z</time>
      </trkpt>
      <trkpt lat="44.49998" lon="1.91052">
        <ele>233.6</ele>
        <time>2015-10-31T10:15:08Z</time>
      </trkpt>
      <trkpt lat="44.49994" lon="1.91054">
        <ele>233.2</ele>
        <time>2015-10-31T10:15:09Z</time>
      </trkpt>
      <trkpt lat="44.49991" lon="1.91056">
        <ele>232.8</ele>
        <time>2015-10-31T10:15:10Z</time>
      </trkpt>
      <trkpt lat="44.49987" lon="1.91058">
        <ele>232.6</ele>
        <time>2015-10-31T10:15:11Z</time>
      </trkpt>
      <trkpt lat="44.49984" lon="1.91059">
        <ele>232.3</ele>
        <time>2015-10-31T10:15:12Z</time>
      </trkpt>
      <trkpt lat="44.49981" lon="1.91061">
        <ele>232.1</ele>
        <time>2015-10-31T10:15:13Z</time>
      </trkpt>
      <trkpt lat="44.49978" lon="1.91063">
        <ele>231.9</ele>
        <time>2015-10-31T10:15:14Z</time>
      </trkpt>
      <trkpt lat="44.49974" lon="1.91064">
        <ele>231.8</ele>
        <time>2015-10-31T10:15:15Z</time>
      </trkpt>
      <trkpt lat="44.49971" lon="1.91067">
        <ele>231.5</ele>
        <time>2015-10-31T10:15:16Z</time>
      </trkpt>
      <trkpt lat="44.49968" lon="1.9107">
        <ele>231.2</ele>
        <time>2015-10-31T10:15:17Z</time>
      </trkpt>
      <trkpt lat="44.49964" lon="1.91073">
        <ele>230.9</ele>
        <time>2015-10-31T10:15:18Z</time>
      </trkpt>
      <trkpt lat="44.4996" lon="1.91077">
        <ele>230.7</ele>
        <time>2015-10-31T10:15:19Z</time>
      </trkpt>
      <trkpt lat="44.49955" lon="1.9108">
        <ele>229.9</ele>
        <time>2015-10-31T10:15:20Z</time>
      </trkpt>
      <trkpt lat="44.49951" lon="1.91085">
        <ele>228.8</ele>
        <time>2015-10-31T10:15:21Z</time>
      </trkpt>
      <trkpt lat="44.49946" lon="1.9109">
        <ele>227.8</ele>
        <time>2015-10-31T10:15:22Z</time>
      </trkpt>
      <trkpt lat="44.49943" lon="1.91094">
        <ele>227</ele>
        <time>2015-10-31T10:15:23Z</time>
      </trkpt>
      <trkpt lat="44.49939" lon="1.91097">
        <ele>226.3</ele>
        <time>2015-10-31T10:15:24Z</time>
      </trkpt>
      <trkpt lat="44.49936" lon="1.911">
        <ele>225.7</ele>
        <time>2015-10-31T10:15:25Z</time>
      </trkpt>
      <trkpt lat="44.49932" lon="1.91103">
        <ele>225.1</ele>
        <time>2015-10-31T10:15:26Z</time>
      </trkpt>
      <trkpt lat="44.49928" lon="1.91105">
        <ele>224.6</ele>
        <time>2015-10-31T10:15:27Z</time>
      </trkpt>
      <trkpt lat="44.49924" lon="1.91107">
        <ele>224.2</ele>
        <time>2015-10-31T10:15:28Z</time>
      </trkpt>
      <trkpt lat="44.4992" lon="1.91109">
        <ele>223.7</ele>
        <time>2015-10-31T10:15:29Z</time>
      </trkpt>
      <trkpt lat="44.49916" lon="1.91112">
        <ele>223.3</ele>
        <time>2015-10-31T10:15:30Z</time>
      </trkpt>
      <trkpt lat="44.49912" lon="1.91115">
        <ele>223</ele>
        <time>2015-10-31T10:15:31Z</time>
      </trkpt>
      <trkpt lat="44.49909" lon="1.91117">
        <ele>222.7</ele>
        <time>2015-10-31T10:15:32Z</time>
      </trkpt>
      <trkpt lat="44.49905" lon="1.9112">
        <ele>222.5</ele>
        <time>2015-10-31T10:15:33Z</time>
      </trkpt>
      <trkpt lat="44.499" lon="1.91123">
        <ele>222.2</ele>
        <time>2015-10-31T10:15:35Z</time>
      </trkpt>
      <trkpt lat="44.49898" lon="1.91126">
        <ele>221.7</ele>
        <time>2015-10-31T10:15:36Z</time>
      </trkpt>
      <trkpt lat="44.49895" lon="1.9113">
        <ele>220.6</ele>
        <time>2015-10-31T10:15:37Z</time>
      </trkpt>
      <trkpt lat="44.49891" lon="1.91134">
        <ele>219.5</ele>
        <time>2015-10-31T10:15:38Z</time>
      </trkpt>
      <trkpt lat="44.49888" lon="1.91139">
        <ele>218.5</ele>
        <time>2015-10-31T10:15:39Z</time>
      </trkpt>
      <trkpt lat="44.49885" lon="1.91142">
        <ele>217.8</ele>
        <time>2015-10-31T10:15:40Z</time>
      </trkpt>
      <trkpt lat="44.49882" lon="1.91146">
        <ele>217.2</ele>
        <time>2015-10-31T10:15:41Z</time>
      </trkpt>
      <trkpt lat="44.49879" lon="1.91149">
        <ele>216.8</ele>
        <time>2015-10-31T10:15:42Z</time>
      </trkpt>
      <trkpt lat="44.49876" lon="1.91152">
        <ele>216.4</ele>
        <time>2015-10-31T10:15:43Z</time>
      </trkpt>
      <trkpt lat="44.49873" lon="1.91156">
        <ele>215.5</ele>
        <time>2015-10-31T10:15:44Z</time>
      </trkpt>
      <trkpt lat="44.49869" lon="1.91159">
        <ele>214.4</ele>
        <time>2015-10-31T10:15:45Z</time>
      </trkpt>
      <trkpt lat="44.49866" lon="1.91162">
        <ele>213.4</ele>
        <time>2015-10-31T10:15:46Z</time>
      </trkpt>
      <trkpt lat="44.49863" lon="1.91165">
        <ele>212.5</ele>
        <time>2015-10-31T10:15:47Z</time>
      </trkpt>
      <trkpt lat="44.49862" lon="1.91169">
        <ele>211.7</ele>
        <time>2015-10-31T10:15:48Z</time>
      </trkpt>
      <trkpt lat="44.49862" lon="1.91175">
        <ele>210.9</ele>
        <time>2015-10-31T10:15:49Z</time>
      </trkpt>
      <trkpt lat="44.49861" lon="1.91179">
        <ele>210.1</ele>
        <time>2015-10-31T10:15:50Z</time>
      </trkpt>
      <trkpt lat="44.49859" lon="1.91184">
        <ele>209.2</ele>
        <time>2015-10-31T10:15:51Z</time>
      </trkpt>
      <trkpt lat="44.49857" lon="1.9119">
        <ele>208.2</ele>
        <time>2015-10-31T10:15:52Z</time>
      </trkpt>
      <trkpt lat="44.49855" lon="1.91195">
        <ele>207.4</ele>
        <time>2015-10-31T10:15:53Z</time>
      </trkpt>
      <trkpt lat="44.49853" lon="1.912">
        <ele>206.5</ele>
        <time>2015-10-31T10:15:54Z</time>
      </trkpt>
      <trkpt lat="44.49851" lon="1.91204">
        <ele>205.8</ele>
        <time>2015-10-31T10:15:55Z</time>
      </trkpt>
      <trkpt lat="44.49849" lon="1.91208">
        <ele>205.2</ele>
        <time>2015-10-31T10:15:56Z</time>
      </trkpt>
      <trkpt lat="44.49847" lon="1.91212">
        <ele>204</ele>
        <time>2015-10-31T10:15:57Z</time>
      </trkpt>
      <trkpt lat="44.49844" lon="1.91215">
        <ele>202.9</ele>
        <time>2015-10-31T10:15:58Z</time>
      </trkpt>
      <trkpt lat="44.49841" lon="1.91218">
        <ele>202</ele>
        <time>2015-10-31T10:15:59Z</time>
      </trkpt>
      <trkpt lat="44.49838" lon="1.91221">
        <ele>201</ele>
        <time>2015-10-31T10:16:00Z</time>
      </trkpt>
      <trkpt lat="44.49835" lon="1.91224">
        <ele>200.2</ele>
        <time>2015-10-31T10:16:01Z</time>
      </trkpt>
      <trkpt lat="44.49832" lon="1.91226">
        <ele>199.6</ele>
        <time>2015-10-31T10:16:02Z</time>
      </trkpt>
      <trkpt lat="44.4983" lon="1.91228">
        <ele>199.1</ele>
        <time>2015-10-31T10:16:03Z</time>
      </trkpt>
      <trkpt lat="44.49827" lon="1.91229">
        <ele>198.8</ele>
        <time>2015-10-31T10:16:04Z</time>
      </trkpt>
      <trkpt lat="44.49823" lon="1.91232">
        <ele>198</ele>
        <time>2015-10-31T10:16:06Z</time>
      </trkpt>
      <trkpt lat="44.4982" lon="1.91235">
        <ele>197.2</ele>
        <time>2015-10-31T10:16:08Z</time>
      </trkpt>
      <trkpt lat="44.49815" lon="1.91235">
        <ele>197</ele>
        <time>2015-10-31T10:16:10Z</time>
      </trkpt>
      <trkpt lat="44.49811" lon="1.91236">
        <ele>196.7</ele>
        <time>2015-10-31T10:16:12Z</time>
      </trkpt>
      <trkpt lat="44.49807" lon="1.91238">
        <ele>196.2</ele>
        <time>2015-10-31T10:16:14Z</time>
      </trkpt>
      <trkpt lat="44.49802" lon="1.91238">
        <ele>196.2</ele>
        <time>2015-10-31T10:16:16Z</time>
      </trkpt>
      <trkpt lat="44.49797" lon="1.9124">
        <ele>195.8</ele>
        <time>2015-10-31T10:16:18Z</time>
      </trkpt>
      <trkpt lat="44.49794" lon="1.91241">
        <ele>195.5</ele>
        <time>2015-10-31T10:16:19Z</time>
      </trkpt>
      <trkpt lat="44.49789" lon="1.91243">
        <ele>195.1</ele>
        <time>2015-10-31T10:16:21Z</time>
      </trkpt>
      <trkpt lat="44.49784" lon="1.91243">
        <ele>194.8</ele>
        <time>2015-10-31T10:16:23Z</time>
      </trkpt>
      <trkpt lat="44.49779" lon="1.91245">
        <ele>194.3</ele>
        <time>2015-10-31T10:16:25Z</time>
      </trkpt>
      <trkpt lat="44.49776" lon="1.91246">
        <ele>194</ele>
        <time>2015-10-31T10:16:26Z</time>
      </trkpt>
      <trkpt lat="44.49773" lon="1.91248">
        <ele>193.6</ele>
        <time>2015-10-31T10:16:27Z</time>
      </trkpt>
      <trkpt lat="44.4977" lon="1.9125">
        <ele>193.3</ele>
        <time>2015-10-31T10:16:28Z</time>
      </trkpt>
      <trkpt lat="44.49767" lon="1.91252">
        <ele>192.9</ele>
        <time>2015-10-31T10:16:29Z</time>
      </trkpt>
      <trkpt lat="44.49764" lon="1.91253">
        <ele>192.6</ele>
        <time>2015-10-31T10:16:30Z</time>
      </trkpt>
      <trkpt lat="44.49761" lon="1.91255">
        <ele>192.3</ele>
        <time>2015-10-31T10:16:31Z</time>
      </trkpt>
      <trkpt lat="44.49757" lon="1.91258">
        <ele>191.9</ele>
        <time>2015-10-31T10:16:32Z</time>
      </trkpt>
      <trkpt lat="44.49754" lon="1.9126">
        <ele>191.6</ele>
        <time>2015-10-31T10:16:33Z</time>
      </trkpt>
      <trkpt lat="44.4975" lon="1.91262">
        <ele>191.3</ele>
        <time>2015-10-31T10:16:34Z</time>
      </trkpt>
      <trkpt lat="44.49747" lon="1.91264">
        <ele>191.2</ele>
        <time>2015-10-31T10:16:35Z</time>
      </trkpt>
      <trkpt lat="44.49744" lon="1.91264">
        <ele>191.1</ele>
        <time>2015-10-31T10:16:36Z</time>
      </trkpt>
      <trkpt lat="44.49742" lon="1.91265">
        <ele>191</ele>
        <time>2015-10-31T10:16:37Z</time>
      </trkpt>
      <trkpt lat="44.49738" lon="1.91267">
        <ele>190.8</ele>
        <time>2015-10-31T10:16:38Z</time>
      </trkpt>
      <trkpt lat="44.49735" lon="1.91269">
        <ele>190.7</ele>
        <time>2015-10-31T10:16:39Z</time>
      </trkpt>
      <trkpt lat="44.49732" lon="1.91271">
        <ele>190.5</ele>
        <time>2015-10-31T10:16:40Z</time>
      </trkpt>
      <trkpt lat="44.49728" lon="1.91273">
        <ele>190.4</ele>
        <time>2015-10-31T10:16:41Z</time>
      </trkpt>
      <trkpt lat="44.49725" lon="1.91276">
        <ele>190.2</ele>
        <time>2015-10-31T10:16:42Z</time>
      </trkpt>
      <trkpt lat="44.49721" lon="1.9128">
        <ele>190.1</ele>
        <time>2015-10-31T10:16:43Z</time>
      </trkpt>
      <trkpt lat="44.49718" lon="1.91283">
        <ele>190</ele>
        <time>2015-10-31T10:16:44Z</time>
      </trkpt>
      <trkpt lat="44.49714" lon="1.91285">
        <ele>190</ele>
        <time>2015-10-31T10:16:45Z</time>
      </trkpt>
      <trkpt lat="44.49711" lon="1.91286">
        <ele>190.1</ele>
        <time>2015-10-31T10:16:46Z</time>
      </trkpt>
      <trkpt lat="44.49708" lon="1.91288">
        <ele>190.1</ele>
        <time>2015-10-31T10:16:47Z</time>
      </trkpt>
      <trkpt lat="44.49705" lon="1.9129">
        <ele>189.8</ele>
        <time>2015-10-31T10:16:48Z</time>
      </trkpt>
      <trkpt lat="44.49702" lon="1.91291">
        <ele>189.6</ele>
        <time>2015-10-31T10:16:49Z</time>
      </trkpt>
      <trkpt lat="44.49699" lon="1.91293">
        <ele>189.2</ele>
        <time>2015-10-31T10:16:50Z</time>
      </trkpt>
      <trkpt lat="44.49695" lon="1.91294">
        <ele>188.7</ele>
        <time>2015-10-31T10:16:52Z</time>
      </trkpt>
      <trkpt lat="44.4969" lon="1.91295">
        <ele>188.2</ele>
        <time>2015-10-31T10:16:54Z</time>
      </trkpt>
      <trkpt lat="44.49687" lon="1.91296">
        <ele>187.9</ele>
        <time>2015-10-31T10:16:55Z</time>
      </trkpt>
      <trkpt lat="44.49684" lon="1.91298">
        <ele>187.6</ele>
        <time>2015-10-31T10:16:56Z</time>
      </trkpt>
      <trkpt lat="44.49681" lon="1.913">
        <ele>187.2</ele>
        <time>2015-10-31T10:16:57Z</time>
      </trkpt>
      <trkpt lat="44.49678" lon="1.91302">
        <ele>186.8</ele>
        <time>2015-10-31T10:16:58Z</time>
      </trkpt>
      <trkpt lat="44.49675" lon="1.91305">
        <ele>186.3</ele>
        <time>2015-10-31T10:16:59Z</time>
      </trkpt>
      <trkpt lat="44.49672" lon="1.91309">
        <ele>185.8</ele>
        <time>2015-10-31T10:17:00Z</time>
      </trkpt>
      <trkpt lat="44.49669" lon="1.91312">
        <ele>185.4</ele>
        <time>2015-10-31T10:17:01Z</time>
      </trkpt>
      <trkpt lat="44.49665" lon="1.91315">
        <ele>185</ele>
        <time>2015-10-31T10:17:02Z</time>
      </trkpt>
      <trkpt lat="44.49662" lon="1.91318">
        <ele>184.6</ele>
        <time>2015-10-31T10:17:03Z</time>
      </trkpt>
      <trkpt lat="44.49659" lon="1.9132">
        <ele>184.4</ele>
        <time>2015-10-31T10:17:04Z</time>
      </trkpt>
      <trkpt lat="44.49657" lon="1.91321">
        <ele>184.2</ele>
        <time>2015-10-31T10:17:05Z</time>
      </trkpt>
      <trkpt lat="44.49652" lon="1.91323">
        <ele>184</ele>
        <time>2015-10-31T10:17:07Z</time>
      </trkpt>
      <trkpt lat="44.49648" lon="1.91325">
        <ele>183.8</ele>
        <time>2015-10-31T10:17:08Z</time>
      </trkpt>
      <trkpt lat="44.49645" lon="1.91327">
        <ele>183.6</ele>
        <time>2015-10-31T10:17:09Z</time>
      </trkpt>
      <trkpt lat="44.4964" lon="1.91329">
        <ele>183.4</ele>
        <time>2015-10-31T10:17:10Z</time>
      </trkpt>
      <trkpt lat="44.49636" lon="1.91331">
        <ele>183.2</ele>
        <time>2015-10-31T10:17:11Z</time>
      </trkpt>
      <trkpt lat="44.49633" lon="1.91332">
        <ele>183.1</ele>
        <time>2015-10-31T10:17:12Z</time>
      </trkpt>
      <trkpt lat="44.4963" lon="1.91332">
        <ele>183.1</ele>
        <time>2015-10-31T10:17:13Z</time>
      </trkpt>
      <trkpt lat="44.49626" lon="1.91331">
        <ele>183.1</ele>
        <time>2015-10-31T10:17:14Z</time>
      </trkpt>
      <trkpt lat="44.49623" lon="1.91332">
        <ele>183</ele>
        <time>2015-10-31T10:17:15Z</time>
      </trkpt>
      <trkpt lat="44.4962" lon="1.91333">
        <ele>182.9</ele>
        <time>2015-10-31T10:17:16Z</time>
      </trkpt>
      <trkpt lat="44.49616" lon="1.91335">
        <ele>182.8</ele>
        <time>2015-10-31T10:17:17Z</time>
      </trkpt>
      <trkpt lat="44.49613" lon="1.91336">
        <ele>182.7</ele>
        <time>2015-10-31T10:17:18Z</time>
      </trkpt>
      <trkpt lat="44.4961" lon="1.91337">
        <ele>182.6</ele>
        <time>2015-10-31T10:17:19Z</time>
      </trkpt>
      <trkpt lat="44.49607" lon="1.91338">
        <ele>182.5</ele>
        <time>2015-10-31T10:17:20Z</time>
      </trkpt>
      <trkpt lat="44.49604" lon="1.91339">
        <ele>182.4</ele>
        <time>2015-10-31T10:17:21Z</time>
      </trkpt>
      <trkpt lat="44.496" lon="1.91341">
        <ele>182.3</ele>
        <time>2015-10-31T10:17:22Z</time>
      </trkpt>
      <trkpt lat="44.49597" lon="1.91343">
        <ele>182.2</ele>
        <time>2015-10-31T10:17:23Z</time>
      </trkpt>
      <trkpt lat="44.49593" lon="1.91345">
        <ele>182.1</ele>
        <time>2015-10-31T10:17:24Z</time>
      </trkpt>
      <trkpt lat="44.4959" lon="1.91347">
        <ele>182</ele>
        <time>2015-10-31T10:17:25Z</time>
      </trkpt>
      <trkpt lat="44.49586" lon="1.91349">
        <ele>181.9</ele>
        <time>2015-10-31T10:17:26Z</time>
      </trkpt>
      <trkpt lat="44.49583" lon="1.91352">
        <ele>181.8</ele>
        <time>2015-10-31T10:17:27Z</time>
      </trkpt>
      <trkpt lat="44.49579" lon="1.91354">
        <ele>181.7</ele>
        <time>2015-10-31T10:17:28Z</time>
      </trkpt>
      <trkpt lat="44.49576" lon="1.91357">
        <ele>181.6</ele>
        <time>2015-10-31T10:17:29Z</time>
      </trkpt>
      <trkpt lat="44.49572" lon="1.91359">
        <ele>181.5</ele>
        <time>2015-10-31T10:17:30Z</time>
      </trkpt>
      <trkpt lat="44.49568" lon="1.9136">
        <ele>181.4</ele>
        <time>2015-10-31T10:17:31Z</time>
      </trkpt>
      <trkpt lat="44.49565" lon="1.91362">
        <ele>181.4</ele>
        <time>2015-10-31T10:17:32Z</time>
      </trkpt>
      <trkpt lat="44.49561" lon="1.91364">
        <ele>181.3</ele>
        <time>2015-10-31T10:17:33Z</time>
      </trkpt>
      <trkpt lat="44.49558" lon="1.91366">
        <ele>181.2</ele>
        <time>2015-10-31T10:17:34Z</time>
      </trkpt>
      <trkpt lat="44.49555" lon="1.91367">
        <ele>181.2</ele>
        <time>2015-10-31T10:17:35Z</time>
      </trkpt>
      <trkpt lat="44.49553" lon="1.91368">
        <ele>181.2</ele>
        <time>2015-10-31T10:17:36Z</time>
      </trkpt>
      <trkpt lat="44.49547" lon="1.91369">
        <ele>181.1</ele>
        <time>2015-10-31T10:17:38Z</time>
      </trkpt>
      <trkpt lat="44.49545" lon="1.9137">
        <ele>181</ele>
        <time>2015-10-31T10:17:39Z</time>
      </trkpt>
      <trkpt lat="44.49542" lon="1.91371">
        <ele>181</ele>
        <time>2015-10-31T10:17:40Z</time>
      </trkpt>
      <trkpt lat="44.49539" lon="1.91372">
        <ele>181.1</ele>
        <time>2015-10-31T10:17:41Z</time>
      </trkpt>
      <trkpt lat="44.49536" lon="1.91373">
        <ele>181.1</ele>
        <time>2015-10-31T10:17:42Z</time>
      </trkpt>
      <trkpt lat="44.49533" lon="1.91373">
        <ele>181.2</ele>
        <time>2015-10-31T10:17:43Z</time>
      </trkpt>
      <trkpt lat="44.4953" lon="1.91373">
        <ele>181.3</ele>
        <time>2015-10-31T10:17:44Z</time>
      </trkpt>
      <trkpt lat="44.49527" lon="1.91373">
        <ele>181.3</ele>
        <time>2015-10-31T10:17:45Z</time>
      </trkpt>
      <trkpt lat="44.49524" lon="1.91373">
        <ele>181.4</ele>
        <time>2015-10-31T10:17:46Z</time>
      </trkpt>
      <trkpt lat="44.4952" lon="1.91374">
        <ele>181.5</ele>
        <time>2015-10-31T10:17:47Z</time>
      </trkpt>
      <trkpt lat="44.49517" lon="1.91375">
        <ele>181.6</ele>
        <time>2015-10-31T10:17:48Z</time>
      </trkpt>
      <trkpt lat="44.49514" lon="1.91376">
        <ele>181.5</ele>
        <time>2015-10-31T10:17:49Z</time>
      </trkpt>
      <trkpt lat="44.49511" lon="1.91378">
        <ele>181.5</ele>
        <time>2015-10-31T10:17:50Z</time>
      </trkpt>
      <trkpt lat="44.49508" lon="1.91379">
        <ele>181.4</ele>
        <time>2015-10-31T10:17:51Z</time>
      </trkpt>
      <trkpt lat="44.49505" lon="1.9138">
        <ele>181.4</ele>
        <time>2015-10-31T10:17:52Z</time>
      </trkpt>
      <trkpt lat="44.49502" lon="1.91382">
        <ele>181.4</ele>
        <time>2015-10-31T10:17:53Z</time>
      </trkpt>
      <trkpt lat="44.49498" lon="1.91383">
        <ele>181.4</ele>
        <time>2015-10-31T10:17:54Z</time>
      </trkpt>
      <trkpt lat="44.49494" lon="1.91384">
        <ele>181.4</ele>
        <time>2015-10-31T10:17:55Z</time>
      </trkpt>
      <trkpt lat="44.4949" lon="1.91386">
        <ele>181.5</ele>
        <time>2015-10-31T10:17:56Z</time>
      </trkpt>
      <trkpt lat="44.49486" lon="1.91387">
        <ele>181.5</ele>
        <time>2015-10-31T10:17:57Z</time>
      </trkpt>
      <trkpt lat="44.49483" lon="1.91388">
        <ele>181.6</ele>
        <time>2015-10-31T10:17:58Z</time>
      </trkpt>
      <trkpt lat="44.49479" lon="1.91389">
        <ele>181.7</ele>
        <time>2015-10-31T10:17:59Z</time>
      </trkpt>
      <trkpt lat="44.49476" lon="1.91389">
        <ele>181.8</ele>
        <time>2015-10-31T10:18:00Z</time>
      </trkpt>
      <trkpt lat="44.49473" lon="1.91389">
        <ele>182</ele>
        <time>2015-10-31T10:18:01Z</time>
      </trkpt>
      <trkpt lat="44.4947" lon="1.91389">
        <ele>182.2</ele>
        <time>2015-10-31T10:18:02Z</time>
      </trkpt>
      <trkpt lat="44.49466" lon="1.91387">
        <ele>182.4</ele>
        <time>2015-10-31T10:18:03Z</time>
      </trkpt>
      <trkpt lat="44.49463" lon="1.91386">
        <ele>182.6</ele>
        <time>2015-10-31T10:18:04Z</time>
      </trkpt>
      <trkpt lat="44.49459" lon="1.91384">
        <ele>182.7</ele>
        <time>2015-10-31T10:18:05Z</time>
      </trkpt>
      <trkpt lat="44.49456" lon="1.91382">
        <ele>182.9</ele>
        <time>2015-10-31T10:18:06Z</time>
      </trkpt>
      <trkpt lat="44.49453" lon="1.9138">
        <ele>182.9</ele>
        <time>2015-10-31T10:18:07Z</time>
      </trkpt>
      <trkpt lat="44.49449" lon="1.91378">
        <ele>183</ele>
        <time>2015-10-31T10:18:08Z</time>
      </trkpt>
      <trkpt lat="44.49446" lon="1.91377">
        <ele>183.1</ele>
        <time>2015-10-31T10:18:09Z</time>
      </trkpt>
      <trkpt lat="44.49442" lon="1.91375">
        <ele>183.2</ele>
        <time>2015-10-31T10:18:10Z</time>
      </trkpt>
      <trkpt lat="44.49439" lon="1.91373">
        <ele>183.2</ele>
        <time>2015-10-31T10:18:11Z</time>
      </trkpt>
      <trkpt lat="44.49435" lon="1.91371">
        <ele>183.1</ele>
        <time>2015-10-31T10:18:12Z</time>
      </trkpt>
      <trkpt lat="44.49432" lon="1.91368">
        <ele>183.1</ele>
        <time>2015-10-31T10:18:13Z</time>
      </trkpt>
      <trkpt lat="44.4943" lon="1.91365">
        <ele>183</ele>
        <time>2015-10-31T10:18:14Z</time>
      </trkpt>
      <trkpt lat="44.49427" lon="1.91361">
        <ele>182.9</ele>
        <time>2015-10-31T10:18:15Z</time>
      </trkpt>
      <trkpt lat="44.49425" lon="1.91358">
        <ele>182.9</ele>
        <time>2015-10-31T10:18:16Z</time>
      </trkpt>
      <trkpt lat="44.49424" lon="1.91354">
        <ele>182.8</ele>
        <time>2015-10-31T10:18:17Z</time>
      </trkpt>
      <trkpt lat="44.49422" lon="1.9135">
        <ele>182.7</ele>
        <time>2015-10-31T10:18:18Z</time>
      </trkpt>
      <trkpt lat="44.4942" lon="1.91346">
        <ele>182.6</ele>
        <time>2015-10-31T10:18:19Z</time>
      </trkpt>
      <trkpt lat="44.49418" lon="1.91343">
        <ele>182.5</ele>
        <time>2015-10-31T10:18:20Z</time>
      </trkpt>
      <trkpt lat="44.49415" lon="1.91338">
        <ele>182.4</ele>
        <time>2015-10-31T10:18:21Z</time>
      </trkpt>
      <trkpt lat="44.49414" lon="1.91334">
        <ele>182.3</ele>
        <time>2015-10-31T10:18:22Z</time>
      </trkpt>
      <trkpt lat="44.49412" lon="1.9133">
        <ele>182.2</ele>
        <time>2015-10-31T10:18:23Z</time>
      </trkpt>
      <trkpt lat="44.49411" lon="1.91326">
        <ele>182.1</ele>
        <time>2015-10-31T10:18:24Z</time>
      </trkpt>
      <trkpt lat="44.4941" lon="1.91321">
        <ele>182</ele>
        <time>2015-10-31T10:18:25Z</time>
      </trkpt>
      <trkpt lat="44.4941" lon="1.91316">
        <ele>181.9</ele>
        <time>2015-10-31T10:18:26Z</time>
      </trkpt>
      <trkpt lat="44.49409" lon="1.91311">
        <ele>181.7</ele>
        <time>2015-10-31T10:18:27Z</time>
      </trkpt>
      <trkpt lat="44.49408" lon="1.91306">
        <ele>181.6</ele>
        <time>2015-10-31T10:18:28Z</time>
      </trkpt>
      <trkpt lat="44.49408" lon="1.91302">
        <ele>181.5</ele>
        <time>2015-10-31T10:18:29Z</time>
      </trkpt>
      <trkpt lat="44.49407" lon="1.91297">
        <ele>181.4</ele>
        <time>2015-10-31T10:18:30Z</time>
      </trkpt>
      <trkpt lat="44.49407" lon="1.91292">
        <ele>181.3</ele>
        <time>2015-10-31T10:18:31Z</time>
      </trkpt>
      <trkpt lat="44.49407" lon="1.91288">
        <ele>181.2</ele>
        <time>2015-10-31T10:18:32Z</time>
      </trkpt>
      <trkpt lat="44.49407" lon="1.91283">
        <ele>181.1</ele>
        <time>2015-10-31T10:18:33Z</time>
      </trkpt>
      <trkpt lat="44.49408" lon="1.91278">
        <ele>181</ele>
        <time>2015-10-31T10:18:34Z</time>
      </trkpt>
      <trkpt lat="44.49408" lon="1.91271">
        <ele>180.9</ele>
        <time>2015-10-31T10:18:35Z</time>
      </trkpt>
      <trkpt lat="44.49409" lon="1.91265">
        <ele>180.7</ele>
        <time>2015-10-31T10:18:36Z</time>
      </trkpt>
      <trkpt lat="44.4941" lon="1.91259">
        <ele>180.6</ele>
        <time>2015-10-31T10:18:37Z</time>
      </trkpt>
      <trkpt lat="44.49411" lon="1.91253">
        <ele>180.5</ele>
        <time>2015-10-31T10:18:38Z</time>
      </trkpt>
      <trkpt lat="44.49413" lon="1.91248">
        <ele>180.3</ele>
        <time>2015-10-31T10:18:39Z</time>
      </trkpt>
      <trkpt lat="44.49414" lon="1.91242">
        <ele>180.2</ele>
        <time>2015-10-31T10:18:40Z</time>
      </trkpt>
      <trkpt lat="44.49417" lon="1.91233">
        <ele>179.9</ele>
        <time>2015-10-31T10:18:41Z</time>
      </trkpt>
      <trkpt lat="44.49418" lon="1.91225">
        <ele>179.8</ele>
        <time>2015-10-31T10:18:42Z</time>
      </trkpt>
      <trkpt lat="44.49418" lon="1.9122">
        <ele>179.7</ele>
        <time>2015-10-31T10:18:43Z</time>
      </trkpt>
      <trkpt lat="44.49419" lon="1.91212">
        <ele>179.5</ele>
        <time>2015-10-31T10:18:44Z</time>
      </trkpt>
      <trkpt lat="44.49421" lon="1.91204">
        <ele>179.3</ele>
        <time>2015-10-31T10:18:45Z</time>
      </trkpt>
      <trkpt lat="44.49422" lon="1.91197">
        <ele>179.1</ele>
        <time>2015-10-31T10:18:46Z</time>
      </trkpt>
      <trkpt lat="44.49423" lon="1.91191">
        <ele>179</ele>
        <time>2015-10-31T10:18:47Z</time>
      </trkpt>
      <trkpt lat="44.49424" lon="1.91185">
        <ele>178.9</ele>
        <time>2015-10-31T10:18:48Z</time>
      </trkpt>
      <trkpt lat="44.49427" lon="1.91176">
        <ele>178.7</ele>
        <time>2015-10-31T10:18:49Z</time>
      </trkpt>
      <trkpt lat="44.49429" lon="1.91167">
        <ele>178.5</ele>
        <time>2015-10-31T10:18:50Z</time>
      </trkpt>
      <trkpt lat="44.49432" lon="1.91159">
        <ele>178.4</ele>
        <time>2015-10-31T10:18:51Z</time>
      </trkpt>
      <trkpt lat="44.49433" lon="1.91152">
        <ele>178.3</ele>
        <time>2015-10-31T10:18:52Z</time>
      </trkpt>
      <trkpt lat="44.49437" lon="1.91145">
        <ele>178.2</ele>
        <time>2015-10-31T10:18:53Z</time>
      </trkpt>
      <trkpt lat="44.49438" lon="1.91136">
        <ele>178.1</ele>
        <time>2015-10-31T10:18:54Z</time>
      </trkpt>
      <trkpt lat="44.49439" lon="1.91128">
        <ele>178</ele>
        <time>2015-10-31T10:18:55Z</time>
      </trkpt>
      <trkpt lat="44.49441" lon="1.91122">
        <ele>177.9</ele>
        <time>2015-10-31T10:18:56Z</time>
      </trkpt>
      <trkpt lat="44.49443" lon="1.91115">
        <ele>177.8</ele>
        <time>2015-10-31T10:18:57Z</time>
      </trkpt>
      <trkpt lat="44.49445" lon="1.91106">
        <ele>177.6</ele>
        <time>2015-10-31T10:18:58Z</time>
      </trkpt>
      <trkpt lat="44.49447" lon="1.91096">
        <ele>177.5</ele>
        <time>2015-10-31T10:18:59Z</time>
      </trkpt>
      <trkpt lat="44.4945" lon="1.91084">
        <ele>177.3</ele>
        <time>2015-10-31T10:19:00Z</time>
      </trkpt>
      <trkpt lat="44.49452" lon="1.91074">
        <ele>177.2</ele>
        <time>2015-10-31T10:19:01Z</time>
      </trkpt>
      <trkpt lat="44.49454" lon="1.91064">
        <ele>177.1</ele>
        <time>2015-10-31T10:19:02Z</time>
      </trkpt>
      <trkpt lat="44.49457" lon="1.91051">
        <ele>177.1</ele>
        <time>2015-10-31T10:19:03Z</time>
      </trkpt>
      <trkpt lat="44.4946" lon="1.9104">
        <ele>176.9</ele>
        <time>2015-10-31T10:19:04Z</time>
      </trkpt>
      <trkpt lat="44.49462" lon="1.9103">
        <ele>176</ele>
        <time>2015-10-31T10:19:05Z</time>
      </trkpt>
      <trkpt lat="44.49464" lon="1.91019">
        <ele>175.3</ele>
        <time>2015-10-31T10:19:06Z</time>
      </trkpt>
      <trkpt lat="44.49468" lon="1.91007">
        <ele>174.4</ele>
        <time>2015-10-31T10:19:07Z</time>
      </trkpt>
      <trkpt lat="44.49472" lon="1.90994">
        <ele>173.6</ele>
        <time>2015-10-31T10:19:08Z</time>
      </trkpt>
      <trkpt lat="44.49475" lon="1.90982">
        <ele>172.7</ele>
        <time>2015-10-31T10:19:09Z</time>
      </trkpt>
      <trkpt lat="44.49477" lon="1.90971">
        <ele>172</ele>
        <time>2015-10-31T10:19:10Z</time>
      </trkpt>
      <trkpt lat="44.49479" lon="1.90959">
        <ele>171.3</ele>
        <time>2015-10-31T10:19:11Z</time>
      </trkpt>
      <trkpt lat="44.49482" lon="1.90947">
        <ele>169.7</ele>
        <time>2015-10-31T10:19:12Z</time>
      </trkpt>
      <trkpt lat="44.49485" lon="1.90936">
        <ele>168.2</ele>
        <time>2015-10-31T10:19:13Z</time>
      </trkpt>
      <trkpt lat="44.49489" lon="1.90924">
        <ele>166.6</ele>
        <time>2015-10-31T10:19:14Z</time>
      </trkpt>
      <trkpt lat="44.49494" lon="1.90914">
        <ele>165.3</ele>
        <time>2015-10-31T10:19:15Z</time>
      </trkpt>
      <trkpt lat="44.495" lon="1.90904">
        <ele>164</ele>
        <time>2015-10-31T10:19:16Z</time>
      </trkpt>
      <trkpt lat="44.49506" lon="1.90896">
        <ele>163</ele>
        <time>2015-10-31T10:19:17Z</time>
      </trkpt>
      <trkpt lat="44.49514" lon="1.90889">
        <ele>162.2</ele>
        <time>2015-10-31T10:19:18Z</time>
      </trkpt>
      <trkpt lat="44.49521" lon="1.90885">
        <ele>161.9</ele>
        <time>2015-10-31T10:19:19Z</time>
      </trkpt>
      <trkpt lat="44.49528" lon="1.9088">
        <ele>161.3</ele>
        <time>2015-10-31T10:19:20Z</time>
      </trkpt>
      <trkpt lat="44.49535" lon="1.90875">
        <ele>160.7</ele>
        <time>2015-10-31T10:19:21Z</time>
      </trkpt>
      <trkpt lat="44.49544" lon="1.90877">
        <ele>161.6</ele>
        <time>2015-10-31T10:19:22Z</time>
      </trkpt>
      <trkpt lat="44.49554" lon="1.90871">
        <ele>161.5</ele>
        <time>2015-10-31T10:19:23Z</time>
      </trkpt>
      <trkpt lat="44.49562" lon="1.90871">
        <ele>162</ele>
        <time>2015-10-31T10:19:24Z</time>
      </trkpt>
      <trkpt lat="44.49591" lon="1.90872">
        <ele>164.1</ele>
        <time>2015-10-31T10:19:26Z</time>
      </trkpt>
      <trkpt lat="44.49603" lon="1.90868">
        <ele>164.4</ele>
        <time>2015-10-31T10:19:27Z</time>
      </trkpt>
      <trkpt lat="44.49612" lon="1.90871">
        <ele>165.4</ele>
        <time>2015-10-31T10:19:28Z</time>
      </trkpt>
      <trkpt lat="44.49614" lon="1.90865">
        <ele>164.7</ele>
        <time>2015-10-31T10:19:29Z</time>
      </trkpt>
      <trkpt lat="44.49627" lon="1.90863">
        <ele>165.3</ele>
        <time>2015-10-31T10:19:30Z</time>
      </trkpt>
      <trkpt lat="44.49636" lon="1.90863">
        <ele>165.9</ele>
        <time>2015-10-31T10:19:31Z</time>
      </trkpt>
      <trkpt lat="44.4964" lon="1.90861">
        <ele>165.9</ele>
        <time>2015-10-31T10:19:32Z</time>
      </trkpt>
      <trkpt lat="44.49646" lon="1.90859">
        <ele>166</ele>
        <time>2015-10-31T10:19:33Z</time>
      </trkpt>
      <trkpt lat="44.49651" lon="1.90854">
        <ele>165.3</ele>
        <time>2015-10-31T10:19:34Z</time>
      </trkpt>
      <trkpt lat="44.49658" lon="1.90852">
        <ele>165.4</ele>
        <time>2015-10-31T10:19:35Z</time>
      </trkpt>
      <trkpt lat="44.49665" lon="1.90848">
        <ele>165.3</ele>
        <time>2015-10-31T10:19:36Z</time>
      </trkpt>
      <trkpt lat="44.4967" lon="1.90845">
        <ele>164.9</ele>
        <time>2015-10-31T10:19:37Z</time>
      </trkpt>
      <trkpt lat="44.49675" lon="1.90842">
        <ele>164.6</ele>
        <time>2015-10-31T10:19:38Z</time>
      </trkpt>
      <trkpt lat="44.49685" lon="1.9084">
        <ele>164.8</ele>
        <time>2015-10-31T10:19:39Z</time>
      </trkpt>
      <trkpt lat="44.49692" lon="1.90837">
        <ele>164.5</ele>
        <time>2015-10-31T10:19:40Z</time>
      </trkpt>
      <trkpt lat="44.49699" lon="1.90833">
        <ele>163.9</ele>
        <time>2015-10-31T10:19:41Z</time>
      </trkpt>
      <trkpt lat="44.49708" lon="1.90832">
        <ele>164.2</ele>
        <time>2015-10-31T10:19:42Z</time>
      </trkpt>
      <trkpt lat="44.49717" lon="1.90828">
        <ele>163.7</ele>
        <time>2015-10-31T10:19:43Z</time>
      </trkpt>
      <trkpt lat="44.49722" lon="1.90825">
        <ele>163.3</ele>
        <time>2015-10-31T10:19:44Z</time>
      </trkpt>
      <trkpt lat="44.49728" lon="1.90821">
        <ele>162.7</ele>
        <time>2015-10-31T10:19:45Z</time>
      </trkpt>
      <trkpt lat="44.49737" lon="1.90819">
        <ele>162.8</ele>
        <time>2015-10-31T10:19:46Z</time>
      </trkpt>
      <trkpt lat="44.49744" lon="1.90814">
        <ele>161.9</ele>
        <time>2015-10-31T10:19:47Z</time>
      </trkpt>
      <trkpt lat="44.4975" lon="1.90809">
        <ele>161</ele>
        <time>2015-10-31T10:19:48Z</time>
      </trkpt>
      <trkpt lat="44.49758" lon="1.90805">
        <ele>160.4</ele>
        <time>2015-10-31T10:19:49Z</time>
      </trkpt>
      <trkpt lat="44.49765" lon="1.90801">
        <ele>159.6</ele>
        <time>2015-10-31T10:19:50Z</time>
      </trkpt>
      <trkpt lat="44.49771" lon="1.90798">
        <ele>158.9</ele>
        <time>2015-10-31T10:19:51Z</time>
      </trkpt>
      <trkpt lat="44.49779" lon="1.90794">
        <ele>158.1</ele>
        <time>2015-10-31T10:19:52Z</time>
      </trkpt>
      <trkpt lat="44.49785" lon="1.90791">
        <ele>157.7</ele>
        <time>2015-10-31T10:19:53Z</time>
      </trkpt>
      <trkpt lat="44.49793" lon="1.90789">
        <ele>158</ele>
        <time>2015-10-31T10:19:54Z</time>
      </trkpt>
      <trkpt lat="44.498" lon="1.90785">
        <ele>158.7</ele>
        <time>2015-10-31T10:19:55Z</time>
      </trkpt>
      <trkpt lat="44.49806" lon="1.90781">
        <ele>159.2</ele>
        <time>2015-10-31T10:19:56Z</time>
      </trkpt>
      <trkpt lat="44.49813" lon="1.90778">
        <ele>159.8</ele>
        <time>2015-10-31T10:19:57Z</time>
      </trkpt>
      <trkpt lat="44.49819" lon="1.90776">
        <ele>160.3</ele>
        <time>2015-10-31T10:19:58Z</time>
      </trkpt>
      <trkpt lat="44.49826" lon="1.90774">
        <ele>160.8</ele>
        <time>2015-10-31T10:19:59Z</time>
      </trkpt>
      <trkpt lat="44.49833" lon="1.90772">
        <ele>161.3</ele>
        <time>2015-10-31T10:20:00Z</time>
      </trkpt>
      <trkpt lat="44.49839" lon="1.90769">
        <ele>161.7</ele>
        <time>2015-10-31T10:20:01Z</time>
      </trkpt>
      <trkpt lat="44.49846" lon="1.9077">
        <ele>162.4</ele>
        <time>2015-10-31T10:20:02Z</time>
      </trkpt>
      <trkpt lat="44.49852" lon="1.90768">
        <ele>162.7</ele>
        <time>2015-10-31T10:20:03Z</time>
      </trkpt>
      <trkpt lat="44.4986" lon="1.90765">
        <ele>163.1</ele>
        <time>2015-10-31T10:20:04Z</time>
      </trkpt>
      <trkpt lat="44.49866" lon="1.90763">
        <ele>163.4</ele>
        <time>2015-10-31T10:20:05Z</time>
      </trkpt>
      <trkpt lat="44.49872" lon="1.90762">
        <ele>163.8</ele>
        <time>2015-10-31T10:20:06Z</time>
      </trkpt>
      <trkpt lat="44.49879" lon="1.90759">
        <ele>163.8</ele>
        <time>2015-10-31T10:20:07Z</time>
      </trkpt>
      <trkpt lat="44.49884" lon="1.90757">
        <ele>163.8</ele>
        <time>2015-10-31T10:20:08Z</time>
      </trkpt>
      <trkpt lat="44.49891" lon="1.90755">
        <ele>163.7</ele>
        <time>2015-10-31T10:20:09Z</time>
      </trkpt>
      <trkpt lat="44.49899" lon="1.90754">
        <ele>164.2</ele>
        <time>2015-10-31T10:20:10Z</time>
      </trkpt>
      <trkpt lat="44.49904" lon="1.9075">
        <ele>163.6</ele>
        <time>2015-10-31T10:20:11Z</time>
      </trkpt>
      <trkpt lat="44.49909" lon="1.90745">
        <ele>162.7</ele>
        <time>2015-10-31T10:20:12Z</time>
      </trkpt>
      <trkpt lat="44.49914" lon="1.90741">
        <ele>162</ele>
        <time>2015-10-31T10:20:13Z</time>
      </trkpt>
      <trkpt lat="44.4992" lon="1.9074">
        <ele>161.8</ele>
        <time>2015-10-31T10:20:14Z</time>
      </trkpt>
      <trkpt lat="44.49925" lon="1.90738">
        <ele>161.6</ele>
        <time>2015-10-31T10:20:15Z</time>
      </trkpt>
      <trkpt lat="44.49931" lon="1.90736">
        <ele>161.2</ele>
        <time>2015-10-31T10:20:16Z</time>
      </trkpt>
      <trkpt lat="44.49936" lon="1.9073">
        <ele>159.7</ele>
        <time>2015-10-31T10:20:17Z</time>
      </trkpt>
      <trkpt lat="44.49943" lon="1.90727">
        <ele>158.8</ele>
        <time>2015-10-31T10:20:18Z</time>
      </trkpt>
      <trkpt lat="44.4995" lon="1.90724">
        <ele>158.1</ele>
        <time>2015-10-31T10:20:19Z</time>
      </trkpt>
      <trkpt lat="44.49954" lon="1.90722">
        <ele>157.3</ele>
        <time>2015-10-31T10:20:20Z</time>
      </trkpt>
      <trkpt lat="44.4996" lon="1.90718">
        <ele>156.4</ele>
        <time>2015-10-31T10:20:21Z</time>
      </trkpt>
      <trkpt lat="44.49965" lon="1.90715">
        <ele>156.4</ele>
        <time>2015-10-31T10:20:22Z</time>
      </trkpt>
      <trkpt lat="44.49971" lon="1.90712">
        <ele>156.7</ele>
        <time>2015-10-31T10:20:23Z</time>
      </trkpt>
      <trkpt lat="44.49977" lon="1.90709">
        <ele>157</ele>
        <time>2015-10-31T10:20:24Z</time>
      </trkpt>
      <trkpt lat="44.49981" lon="1.90706">
        <ele>157.2</ele>
        <time>2015-10-31T10:20:25Z</time>
      </trkpt>
      <trkpt lat="44.49985" lon="1.90703">
        <ele>157.8</ele>
        <time>2015-10-31T10:20:26Z</time>
      </trkpt>
      <trkpt lat="44.4999" lon="1.907">
        <ele>158.4</ele>
        <time>2015-10-31T10:20:27Z</time>
      </trkpt>
      <trkpt lat="44.49997" lon="1.90701">
        <ele>159.7</ele>
        <time>2015-10-31T10:20:28Z</time>
      </trkpt>
      <trkpt lat="44.5" lon="1.90697">
        <ele>159.9</ele>
        <time>2015-10-31T10:20:29Z</time>
      </trkpt>
      <trkpt lat="44.50003" lon="1.90693">
        <ele>160.1</ele>
        <time>2015-10-31T10:20:30Z</time>
      </trkpt>
      <trkpt lat="44.50014" lon="1.90685">
        <ele>160.7</ele>
        <time>2015-10-31T10:20:31Z</time>
      </trkpt>
      <trkpt lat="44.50019" lon="1.90678">
        <ele>160.5</ele>
        <time>2015-10-31T10:20:32Z</time>
      </trkpt>
      <trkpt lat="44.50023" lon="1.90679">
        <ele>161.2</ele>
        <time>2015-10-31T10:20:33Z</time>
      </trkpt>
      <trkpt lat="44.50028" lon="1.90677">
        <ele>161.6</ele>
        <time>2015-10-31T10:20:34Z</time>
      </trkpt>
      <trkpt lat="44.50033" lon="1.90675">
        <ele>162</ele>
        <time>2015-10-31T10:20:35Z</time>
      </trkpt>
      <trkpt lat="44.50037" lon="1.90674">
        <ele>162.3</ele>
        <time>2015-10-31T10:20:36Z</time>
      </trkpt>
      <trkpt lat="44.50042" lon="1.90673">
        <ele>162.7</ele>
        <time>2015-10-31T10:20:37Z</time>
      </trkpt>
      <trkpt lat="44.50047" lon="1.9067">
        <ele>163.5</ele>
        <time>2015-10-31T10:20:38Z</time>
      </trkpt>
      <trkpt lat="44.50052" lon="1.90661">
        <ele>162.8</ele>
        <time>2015-10-31T10:20:39Z</time>
      </trkpt>
      <trkpt lat="44.50057" lon="1.90657">
        <ele>163</ele>
        <time>2015-10-31T10:20:40Z</time>
      </trkpt>
      <trkpt lat="44.50063" lon="1.90654">
        <ele>163.6</ele>
        <time>2015-10-31T10:20:41Z</time>
      </trkpt>
      <trkpt lat="44.50068" lon="1.90651">
        <ele>163.7</ele>
        <time>2015-10-31T10:20:42Z</time>
      </trkpt>
      <trkpt lat="44.50074" lon="1.90644">
        <ele>162.9</ele>
        <time>2015-10-31T10:20:43Z</time>
      </trkpt>
      <trkpt lat="44.50081" lon="1.9064">
        <ele>162.8</ele>
        <time>2015-10-31T10:20:44Z</time>
      </trkpt>
      <trkpt lat="44.50085" lon="1.90637">
        <ele>162.7</ele>
        <time>2015-10-31T10:20:45Z</time>
      </trkpt>
      <trkpt lat="44.50088" lon="1.90634">
        <ele>161.9</ele>
        <time>2015-10-31T10:20:46Z</time>
      </trkpt>
      <trkpt lat="44.50093" lon="1.90627">
        <ele>160.3</ele>
        <time>2015-10-31T10:20:47Z</time>
      </trkpt>
      <trkpt lat="44.50098" lon="1.90622">
        <ele>159.9</ele>
        <time>2015-10-31T10:20:48Z</time>
      </trkpt>
      <trkpt lat="44.50103" lon="1.9062">
        <ele>160.3</ele>
        <time>2015-10-31T10:20:49Z</time>
      </trkpt>
      <trkpt lat="44.50108" lon="1.90615">
        <ele>160.4</ele>
        <time>2015-10-31T10:20:50Z</time>
      </trkpt>
      <trkpt lat="44.50112" lon="1.9061">
        <ele>160.6</ele>
        <time>2015-10-31T10:20:51Z</time>
      </trkpt>
      <trkpt lat="44.50117" lon="1.90607">
        <ele>160.7</ele>
        <time>2015-10-31T10:20:52Z</time>
      </trkpt>
      <trkpt lat="44.50122" lon="1.90601">
        <ele>160.7</ele>
        <time>2015-10-31T10:20:53Z</time>
      </trkpt>
      <trkpt lat="44.50126" lon="1.90596">
        <ele>160.8</ele>
        <time>2015-10-31T10:20:54Z</time>
      </trkpt>
      <trkpt lat="44.5013" lon="1.90592">
        <ele>161.8</ele>
        <time>2015-10-31T10:20:55Z</time>
      </trkpt>
      <trkpt lat="44.50136" lon="1.90587">
        <ele>163</ele>
        <time>2015-10-31T10:20:56Z</time>
      </trkpt>
      <trkpt lat="44.50141" lon="1.9058">
        <ele>163</ele>
        <time>2015-10-31T10:20:57Z</time>
      </trkpt>
      <trkpt lat="44.50146" lon="1.90574">
        <ele>163.1</ele>
        <time>2015-10-31T10:20:58Z</time>
      </trkpt>
      <trkpt lat="44.50149" lon="1.90567">
        <ele>162.6</ele>
        <time>2015-10-31T10:20:59Z</time>
      </trkpt>
      <trkpt lat="44.50153" lon="1.90563">
        <ele>162.3</ele>
        <time>2015-10-31T10:21:00Z</time>
      </trkpt>
      <trkpt lat="44.50158" lon="1.90552">
        <ele>160.4</ele>
        <time>2015-10-31T10:21:01Z</time>
      </trkpt>
      <trkpt lat="44.50161" lon="1.90545">
        <ele>158.9</ele>
        <time>2015-10-31T10:21:02Z</time>
      </trkpt>
      <trkpt lat="44.50164" lon="1.90539">
        <ele>158.2</ele>
        <time>2015-10-31T10:21:03Z</time>
      </trkpt>
      <trkpt lat="44.50169" lon="1.90533">
        <ele>158</ele>
        <time>2015-10-31T10:21:04Z</time>
      </trkpt>
      <trkpt lat="44.50174" lon="1.90527">
        <ele>157.8</ele>
        <time>2015-10-31T10:21:05Z</time>
      </trkpt>
      <trkpt lat="44.50178" lon="1.90524">
        <ele>157.6</ele>
        <time>2015-10-31T10:21:06Z</time>
      </trkpt>
      <trkpt lat="44.50185" lon="1.90521">
        <ele>157.5</ele>
        <time>2015-10-31T10:21:07Z</time>
      </trkpt>
      <trkpt lat="44.50191" lon="1.90515">
        <ele>157.1</ele>
        <time>2015-10-31T10:21:08Z</time>
      </trkpt>
      <trkpt lat="44.50196" lon="1.9051">
        <ele>156.6</ele>
        <time>2015-10-31T10:21:09Z</time>
      </trkpt>
      <trkpt lat="44.50201" lon="1.90503">
        <ele>155.8</ele>
        <time>2015-10-31T10:21:10Z</time>
      </trkpt>
      <trkpt lat="44.50205" lon="1.90499">
        <ele>155.4</ele>
        <time>2015-10-31T10:21:11Z</time>
      </trkpt>
      <trkpt lat="44.50207" lon="1.90497">
        <ele>155</ele>
        <time>2015-10-31T10:21:12Z</time>
      </trkpt>
      <trkpt lat="44.50215" lon="1.9049">
        <ele>155.7</ele>
        <time>2015-10-31T10:21:13Z</time>
      </trkpt>
      <trkpt lat="44.5022" lon="1.9048">
        <ele>154.9</ele>
        <time>2015-10-31T10:21:14Z</time>
      </trkpt>
      <trkpt lat="44.50225" lon="1.90474">
        <ele>154.7</ele>
        <time>2015-10-31T10:21:15Z</time>
      </trkpt>
      <trkpt lat="44.50228" lon="1.90468">
        <ele>153.8</ele>
        <time>2015-10-31T10:21:16Z</time>
      </trkpt>
      <trkpt lat="44.50235" lon="1.90462">
        <ele>153.3</ele>
        <time>2015-10-31T10:21:17Z</time>
      </trkpt>
      <trkpt lat="44.50239" lon="1.90458">
        <ele>153</ele>
        <time>2015-10-31T10:21:18Z</time>
      </trkpt>
      <trkpt lat="44.50246" lon="1.90452">
        <ele>153.3</ele>
        <time>2015-10-31T10:21:19Z</time>
      </trkpt>
      <trkpt lat="44.5025" lon="1.90454">
        <ele>153.8</ele>
        <time>2015-10-31T10:21:20Z</time>
      </trkpt>
      <trkpt lat="44.50255" lon="1.90448">
        <ele>153.9</ele>
        <time>2015-10-31T10:21:21Z</time>
      </trkpt>
      <trkpt lat="44.5026" lon="1.90442">
        <ele>154.1</ele>
        <time>2015-10-31T10:21:22Z</time>
      </trkpt>
      <trkpt lat="44.50266" lon="1.90436">
        <ele>154.3</ele>
        <time>2015-10-31T10:21:23Z</time>
      </trkpt>
      <trkpt lat="44.50272" lon="1.90439">
        <ele>154.9</ele>
        <time>2015-10-31T10:21:24Z</time>
      </trkpt>
      <trkpt lat="44.50277" lon="1.90441">
        <ele>155.4</ele>
        <time>2015-10-31T10:21:25Z</time>
      </trkpt>
      <trkpt lat="44.50283" lon="1.9044">
        <ele>155.9</ele>
        <time>2015-10-31T10:21:26Z</time>
      </trkpt>
      <trkpt lat="44.50289" lon="1.90438">
        <ele>156.3</ele>
        <time>2015-10-31T10:21:27Z</time>
      </trkpt>
      <trkpt lat="44.50294" lon="1.90435">
        <ele>157</ele>
        <time>2015-10-31T10:21:28Z</time>
      </trkpt>
      <trkpt lat="44.50299" lon="1.9043">
        <ele>158.1</ele>
        <time>2015-10-31T10:21:29Z</time>
      </trkpt>
      <trkpt lat="44.50305" lon="1.90423">
        <ele>159</ele>
        <time>2015-10-31T10:21:30Z</time>
      </trkpt>
      <trkpt lat="44.50309" lon="1.90414">
        <ele>159.1</ele>
        <time>2015-10-31T10:21:31Z</time>
      </trkpt>
      <trkpt lat="44.50313" lon="1.90406">
        <ele>158.8</ele>
        <time>2015-10-31T10:21:32Z</time>
      </trkpt>
      <trkpt lat="44.50315" lon="1.90399">
        <ele>158.3</ele>
        <time>2015-10-31T10:21:33Z</time>
      </trkpt>
      <trkpt lat="44.5032" lon="1.90393">
        <ele>158</ele>
        <time>2015-10-31T10:21:34Z</time>
      </trkpt>
      <trkpt lat="44.50325" lon="1.90385">
        <ele>157.4</ele>
        <time>2015-10-31T10:21:35Z</time>
      </trkpt>
      <trkpt lat="44.5033" lon="1.90378">
        <ele>156.8</ele>
        <time>2015-10-31T10:21:36Z</time>
      </trkpt>
      <trkpt lat="44.50333" lon="1.90366">
        <ele>156.3</ele>
        <time>2015-10-31T10:21:37Z</time>
      </trkpt>
      <trkpt lat="44.50338" lon="1.90356">
        <ele>156.4</ele>
        <time>2015-10-31T10:21:38Z</time>
      </trkpt>
      <trkpt lat="44.50343" lon="1.90353">
        <ele>156.8</ele>
        <time>2015-10-31T10:21:39Z</time>
      </trkpt>
      <trkpt lat="44.50342" lon="1.90337">
        <ele>156.2</ele>
        <time>2015-10-31T10:21:40Z</time>
      </trkpt>
      <trkpt lat="44.50345" lon="1.90328">
        <ele>156.2</ele>
        <time>2015-10-31T10:21:41Z</time>
      </trkpt>
      <trkpt lat="44.50347" lon="1.90316">
        <ele>155.8</ele>
        <time>2015-10-31T10:21:42Z</time>
      </trkpt>
      <trkpt lat="44.50352" lon="1.90309">
        <ele>155.9</ele>
        <time>2015-10-31T10:21:43Z</time>
      </trkpt>
      <trkpt lat="44.50358" lon="1.90304">
        <ele>155.9</ele>
        <time>2015-10-31T10:21:44Z</time>
      </trkpt>
      <trkpt lat="44.50363" lon="1.90297">
        <ele>155.8</ele>
        <time>2015-10-31T10:21:45Z</time>
      </trkpt>
      <trkpt lat="44.50369" lon="1.90291">
        <ele>155.8</ele>
        <time>2015-10-31T10:21:46Z</time>
      </trkpt>
      <trkpt lat="44.50374" lon="1.90285">
        <ele>156.1</ele>
        <time>2015-10-31T10:21:47Z</time>
      </trkpt>
      <trkpt lat="44.50378" lon="1.90276">
        <ele>156.5</ele>
        <time>2015-10-31T10:21:48Z</time>
      </trkpt>
      <trkpt lat="44.50383" lon="1.90269">
        <ele>156.9</ele>
        <time>2015-10-31T10:21:49Z</time>
      </trkpt>
      <trkpt lat="44.50387" lon="1.90262">
        <ele>157.2</ele>
        <time>2015-10-31T10:21:50Z</time>
      </trkpt>
      <trkpt lat="44.50392" lon="1.90254">
        <ele>157.5</ele>
        <time>2015-10-31T10:21:51Z</time>
      </trkpt>
      <trkpt lat="44.50396" lon="1.90247">
        <ele>157.7</ele>
        <time>2015-10-31T10:21:52Z</time>
      </trkpt>
      <trkpt lat="44.50399" lon="1.90239">
        <ele>157.8</ele>
        <time>2015-10-31T10:21:53Z</time>
      </trkpt>
      <trkpt lat="44.50402" lon="1.90232">
        <ele>157.8</ele>
        <time>2015-10-31T10:21:54Z</time>
      </trkpt>
      <trkpt lat="44.50406" lon="1.90227">
        <ele>157.8</ele>
        <time>2015-10-31T10:21:55Z</time>
      </trkpt>
      <trkpt lat="44.5041" lon="1.9022">
        <ele>157.8</ele>
        <time>2015-10-31T10:21:56Z</time>
      </trkpt>
      <trkpt lat="44.50413" lon="1.90215">
        <ele>157.7</ele>
        <time>2015-10-31T10:21:57Z</time>
      </trkpt>
      <trkpt lat="44.50417" lon="1.90209">
        <ele>157.5</ele>
        <time>2015-10-31T10:21:58Z</time>
      </trkpt>
      <trkpt lat="44.5042" lon="1.90203">
        <ele>157.5</ele>
        <time>2015-10-31T10:21:59Z</time>
      </trkpt>
      <trkpt lat="44.50423" lon="1.90197">
        <ele>157.5</ele>
        <time>2015-10-31T10:22:00Z</time>
      </trkpt>
      <trkpt lat="44.50426" lon="1.90192">
        <ele>157.5</ele>
        <time>2015-10-31T10:22:01Z</time>
      </trkpt>
      <trkpt lat="44.50429" lon="1.90186">
        <ele>157.6</ele>
        <time>2015-10-31T10:22:02Z</time>
      </trkpt>
      <trkpt lat="44.50432" lon="1.90179">
        <ele>157.6</ele>
        <time>2015-10-31T10:22:03Z</time>
      </trkpt>
      <trkpt lat="44.50435" lon="1.90174">
        <ele>157.6</ele>
        <time>2015-10-31T10:22:04Z</time>
      </trkpt>
      <trkpt lat="44.50437" lon="1.90167">
        <ele>157.6</ele>
        <time>2015-10-31T10:22:05Z</time>
      </trkpt>
      <trkpt lat="44.50439" lon="1.90159">
        <ele>157.6</ele>
        <time>2015-10-31T10:22:06Z</time>
      </trkpt>
      <trkpt lat="44.50442" lon="1.90153">
        <ele>157.7</ele>
        <time>2015-10-31T10:22:07Z</time>
      </trkpt>
      <trkpt lat="44.50443" lon="1.90147">
        <ele>157.7</ele>
        <time>2015-10-31T10:22:08Z</time>
      </trkpt>
      <trkpt lat="44.50446" lon="1.90141">
        <ele>157.7</ele>
        <time>2015-10-31T10:22:09Z</time>
      </trkpt>
      <trkpt lat="44.5045" lon="1.90136">
        <ele>157.8</ele>
        <time>2015-10-31T10:22:10Z</time>
      </trkpt>
      <trkpt lat="44.50452" lon="1.90128">
        <ele>157.8</ele>
        <time>2015-10-31T10:22:11Z</time>
      </trkpt>
      <trkpt lat="44.50453" lon="1.90123">
        <ele>157.8</ele>
        <time>2015-10-31T10:22:12Z</time>
      </trkpt>
      <trkpt lat="44.50456" lon="1.90115">
        <ele>157.7</ele>
        <time>2015-10-31T10:22:13Z</time>
      </trkpt>
      <trkpt lat="44.50459" lon="1.90108">
        <ele>157.8</ele>
        <time>2015-10-31T10:22:14Z</time>
      </trkpt>
      <trkpt lat="44.5046" lon="1.90103">
        <ele>158</ele>
        <time>2015-10-31T10:22:15Z</time>
      </trkpt>
      <trkpt lat="44.50462" lon="1.90096">
        <ele>158.3</ele>
        <time>2015-10-31T10:22:16Z</time>
      </trkpt>
      <trkpt lat="44.50464" lon="1.90088">
        <ele>158.7</ele>
        <time>2015-10-31T10:22:17Z</time>
      </trkpt>
      <trkpt lat="44.50466" lon="1.90081">
        <ele>158.9</ele>
        <time>2015-10-31T10:22:18Z</time>
      </trkpt>
      <trkpt lat="44.50469" lon="1.90075">
        <ele>159.3</ele>
        <time>2015-10-31T10:22:19Z</time>
      </trkpt>
      <trkpt lat="44.50471" lon="1.90068">
        <ele>159.3</ele>
        <time>2015-10-31T10:22:20Z</time>
      </trkpt>
      <trkpt lat="44.50473" lon="1.9006">
        <ele>159.5</ele>
        <time>2015-10-31T10:22:21Z</time>
      </trkpt>
      <trkpt lat="44.50476" lon="1.90055">
        <ele>159.7</ele>
        <time>2015-10-31T10:22:22Z</time>
      </trkpt>
      <trkpt lat="44.50479" lon="1.90048">
        <ele>159.8</ele>
        <time>2015-10-31T10:22:23Z</time>
      </trkpt>
      <trkpt lat="44.50482" lon="1.90041">
        <ele>159.6</ele>
        <time>2015-10-31T10:22:24Z</time>
      </trkpt>
      <trkpt lat="44.50481" lon="1.90032">
        <ele>159.3</ele>
        <time>2015-10-31T10:22:25Z</time>
      </trkpt>
      <trkpt lat="44.50486" lon="1.90027">
        <ele>159.7</ele>
        <time>2015-10-31T10:22:26Z</time>
      </trkpt>
      <trkpt lat="44.50491" lon="1.9002">
        <ele>160</ele>
        <time>2015-10-31T10:22:27Z</time>
      </trkpt>
      <trkpt lat="44.50495" lon="1.90012">
        <ele>160</ele>
        <time>2015-10-31T10:22:28Z</time>
      </trkpt>
      <trkpt lat="44.50497" lon="1.90007">
        <ele>159.9</ele>
        <time>2015-10-31T10:22:29Z</time>
      </trkpt>
      <trkpt lat="44.50501" lon="1.90005">
        <ele>160.2</ele>
        <time>2015-10-31T10:22:30Z</time>
      </trkpt>
      <trkpt lat="44.50504" lon="1.89999">
        <ele>160</ele>
        <time>2015-10-31T10:22:31Z</time>
      </trkpt>
      <trkpt lat="44.50509" lon="1.89993">
        <ele>159.9</ele>
        <time>2015-10-31T10:22:32Z</time>
      </trkpt>
      <trkpt lat="44.5051" lon="1.89984">
        <ele>159.2</ele>
        <time>2015-10-31T10:22:34Z</time>
      </trkpt>
      <trkpt lat="44.50513" lon="1.8998">
        <ele>159</ele>
        <time>2015-10-31T10:22:35Z</time>
      </trkpt>
      <trkpt lat="44.50518" lon="1.8997">
        <ele>158.2</ele>
        <time>2015-10-31T10:22:36Z</time>
      </trkpt>
      <trkpt lat="44.50517" lon="1.89953">
        <ele>157</ele>
        <time>2015-10-31T10:22:37Z</time>
      </trkpt>
      <trkpt lat="44.50516" lon="1.89944">
        <ele>157</ele>
        <time>2015-10-31T10:22:39Z</time>
      </trkpt>
      <trkpt lat="44.50518" lon="1.89939">
        <ele>157</ele>
        <time>2015-10-31T10:22:40Z</time>
      </trkpt>
      <trkpt lat="44.50524" lon="1.89932">
        <ele>156.9</ele>
        <time>2015-10-31T10:22:41Z</time>
      </trkpt>
      <trkpt lat="44.5053" lon="1.89932">
        <ele>156.8</ele>
        <time>2015-10-31T10:22:42Z</time>
      </trkpt>
      <trkpt lat="44.50537" lon="1.8992">
        <ele>156.6</ele>
        <time>2015-10-31T10:22:43Z</time>
      </trkpt>
      <trkpt lat="44.50542" lon="1.89923">
        <ele>156.6</ele>
        <time>2015-10-31T10:22:44Z</time>
      </trkpt>
      <trkpt lat="44.50544" lon="1.89921">
        <ele>156.9</ele>
        <time>2015-10-31T10:22:45Z</time>
      </trkpt>
      <trkpt lat="44.50544" lon="1.89913">
        <ele>156.7</ele>
        <time>2015-10-31T10:22:46Z</time>
      </trkpt>
      <trkpt lat="44.50548" lon="1.89908">
        <ele>157.1</ele>
        <time>2015-10-31T10:22:47Z</time>
      </trkpt>
      <trkpt lat="44.50554" lon="1.89897">
        <ele>157.4</ele>
        <time>2015-10-31T10:22:48Z</time>
      </trkpt>
      <trkpt lat="44.50559" lon="1.89897">
        <ele>157.8</ele>
        <time>2015-10-31T10:22:49Z</time>
      </trkpt>
      <trkpt lat="44.50564" lon="1.89895">
        <ele>158.1</ele>
        <time>2015-10-31T10:22:50Z</time>
      </trkpt>
      <trkpt lat="44.50567" lon="1.89893">
        <ele>158.3</ele>
        <time>2015-10-31T10:22:51Z</time>
      </trkpt>
      <trkpt lat="44.5057" lon="1.89888">
        <ele>158.2</ele>
        <time>2015-10-31T10:22:52Z</time>
      </trkpt>
      <trkpt lat="44.50574" lon="1.89885">
        <ele>158.2</ele>
        <time>2015-10-31T10:22:53Z</time>
      </trkpt>
      <trkpt lat="44.50578" lon="1.89882">
        <ele>158.3</ele>
        <time>2015-10-31T10:22:54Z</time>
      </trkpt>
      <trkpt lat="44.50582" lon="1.89879">
        <ele>158.3</ele>
        <time>2015-10-31T10:22:55Z</time>
      </trkpt>
      <trkpt lat="44.50587" lon="1.89875">
        <ele>158.2</ele>
        <time>2015-10-31T10:22:56Z</time>
      </trkpt>
      <trkpt lat="44.50591" lon="1.89868">
        <ele>158.2</ele>
        <time>2015-10-31T10:22:57Z</time>
      </trkpt>
      <trkpt lat="44.50595" lon="1.89862">
        <ele>158.2</ele>
        <time>2015-10-31T10:22:58Z</time>
      </trkpt>
      <trkpt lat="44.50601" lon="1.89858">
        <ele>158.2</ele>
        <time>2015-10-31T10:22:59Z</time>
      </trkpt>
      <trkpt lat="44.50605" lon="1.89855">
        <ele>158.3</ele>
        <time>2015-10-31T10:23:00Z</time>
      </trkpt>
      <trkpt lat="44.50608" lon="1.89847">
        <ele>158</ele>
        <time>2015-10-31T10:23:01Z</time>
      </trkpt>
      <trkpt lat="44.5061" lon="1.8984">
        <ele>157.7</ele>
        <time>2015-10-31T10:23:02Z</time>
      </trkpt>
      <trkpt lat="44.50611" lon="1.89833">
        <ele>157.4</ele>
        <time>2015-10-31T10:23:03Z</time>
      </trkpt>
      <trkpt lat="44.50614" lon="1.89828">
        <ele>157.1</ele>
        <time>2015-10-31T10:23:04Z</time>
      </trkpt>
      <trkpt lat="44.50615" lon="1.89819">
        <ele>156.7</ele>
        <time>2015-10-31T10:23:05Z</time>
      </trkpt>
      <trkpt lat="44.50618" lon="1.89814">
        <ele>156.4</ele>
        <time>2015-10-31T10:23:06Z</time>
      </trkpt>
      <trkpt lat="44.50621" lon="1.89807">
        <ele>156</ele>
        <time>2015-10-31T10:23:07Z</time>
      </trkpt>
      <trkpt lat="44.50621" lon="1.89802">
        <ele>155.7</ele>
        <time>2015-10-31T10:23:08Z</time>
      </trkpt>
      <trkpt lat="44.50624" lon="1.89795">
        <ele>155.3</ele>
        <time>2015-10-31T10:23:09Z</time>
      </trkpt>
      <trkpt lat="44.50625" lon="1.89789">
        <ele>155</ele>
        <time>2015-10-31T10:23:10Z</time>
      </trkpt>
      <trkpt lat="44.50627" lon="1.89785">
        <ele>155.5</ele>
        <time>2015-10-31T10:23:11Z</time>
      </trkpt>
      <trkpt lat="44.50629" lon="1.89778">
        <ele>156.2</ele>
        <time>2015-10-31T10:23:12Z</time>
      </trkpt>
      <trkpt lat="44.50631" lon="1.89772">
        <ele>156.6</ele>
        <time>2015-10-31T10:23:13Z</time>
      </trkpt>
      <trkpt lat="44.50632" lon="1.89765">
        <ele>156.9</ele>
        <time>2015-10-31T10:23:14Z</time>
      </trkpt>
      <trkpt lat="44.50634" lon="1.89759">
        <ele>157.3</ele>
        <time>2015-10-31T10:23:15Z</time>
      </trkpt>
      <trkpt lat="44.50634" lon="1.89753">
        <ele>157.4</ele>
        <time>2015-10-31T10:23:16Z</time>
      </trkpt>
      <trkpt lat="44.50635" lon="1.89748">
        <ele>157.6</ele>
        <time>2015-10-31T10:23:17Z</time>
      </trkpt>
      <trkpt lat="44.50637" lon="1.8974">
        <ele>158.1</ele>
        <time>2015-10-31T10:23:18Z</time>
      </trkpt>
      <trkpt lat="44.50639" lon="1.89733">
        <ele>158.6</ele>
        <time>2015-10-31T10:23:19Z</time>
      </trkpt>
      <trkpt lat="44.50642" lon="1.89726">
        <ele>159.3</ele>
        <time>2015-10-31T10:23:20Z</time>
      </trkpt>
      <trkpt lat="44.50645" lon="1.89716">
        <ele>159.8</ele>
        <time>2015-10-31T10:23:21Z</time>
      </trkpt>
      <trkpt lat="44.50646" lon="1.8971">
        <ele>159.9</ele>
        <time>2015-10-31T10:23:22Z</time>
      </trkpt>
      <trkpt lat="44.50649" lon="1.89704">
        <ele>160.6</ele>
        <time>2015-10-31T10:23:23Z</time>
      </trkpt>
      <trkpt lat="44.50651" lon="1.89698">
        <ele>161</ele>
        <time>2015-10-31T10:23:24Z</time>
      </trkpt>
      <trkpt lat="44.50652" lon="1.89691">
        <ele>160.9</ele>
        <time>2015-10-31T10:23:25Z</time>
      </trkpt>
      <trkpt lat="44.50656" lon="1.89686">
        <ele>161.4</ele>
        <time>2015-10-31T10:23:26Z</time>
      </trkpt>
      <trkpt lat="44.50659" lon="1.89678">
        <ele>161.7</ele>
        <time>2015-10-31T10:23:27Z</time>
      </trkpt>
      <trkpt lat="44.5066" lon="1.8967">
        <ele>161.5</ele>
        <time>2015-10-31T10:23:28Z</time>
      </trkpt>
      <trkpt lat="44.50662" lon="1.89664">
        <ele>161.5</ele>
        <time>2015-10-31T10:23:29Z</time>
      </trkpt>
      <trkpt lat="44.50663" lon="1.8966">
        <ele>161.3</ele>
        <time>2015-10-31T10:23:30Z</time>
      </trkpt>
      <trkpt lat="44.50664" lon="1.89653">
        <ele>161.1</ele>
        <time>2015-10-31T10:23:31Z</time>
      </trkpt>
      <trkpt lat="44.50666" lon="1.89647">
        <ele>160.9</ele>
        <time>2015-10-31T10:23:32Z</time>
      </trkpt>
      <trkpt lat="44.50665" lon="1.89639">
        <ele>160.3</ele>
        <time>2015-10-31T10:23:33Z</time>
      </trkpt>
      <trkpt lat="44.50664" lon="1.89631">
        <ele>159.8</ele>
        <time>2015-10-31T10:23:34Z</time>
      </trkpt>
      <trkpt lat="44.50662" lon="1.89624">
        <ele>159.3</ele>
        <time>2015-10-31T10:23:35Z</time>
      </trkpt>
      <trkpt lat="44.50662" lon="1.89615">
        <ele>158.7</ele>
        <time>2015-10-31T10:23:36Z</time>
      </trkpt>
      <trkpt lat="44.50657" lon="1.89606">
        <ele>158</ele>
        <time>2015-10-31T10:23:37Z</time>
      </trkpt>
      <trkpt lat="44.50662" lon="1.89597">
        <ele>157.5</ele>
        <time>2015-10-31T10:23:39Z</time>
      </trkpt>
      <trkpt lat="44.50667" lon="1.89589">
        <ele>157.1</ele>
        <time>2015-10-31T10:23:40Z</time>
      </trkpt>
      <trkpt lat="44.50668" lon="1.89584">
        <ele>156.8</ele>
        <time>2015-10-31T10:23:41Z</time>
      </trkpt>
      <trkpt lat="44.50672" lon="1.89576">
        <ele>156.4</ele>
        <time>2015-10-31T10:23:42Z</time>
      </trkpt>
      <trkpt lat="44.50679" lon="1.89569">
        <ele>156</ele>
        <time>2015-10-31T10:23:43Z</time>
      </trkpt>
      <trkpt lat="44.50682" lon="1.89564">
        <ele>155.6</ele>
        <time>2015-10-31T10:23:44Z</time>
      </trkpt>
      <trkpt lat="44.50686" lon="1.89557">
        <ele>155.1</ele>
        <time>2015-10-31T10:23:45Z</time>
      </trkpt>
      <trkpt lat="44.50687" lon="1.89549">
        <ele>154.6</ele>
        <time>2015-10-31T10:23:46Z</time>
      </trkpt>
      <trkpt lat="44.5069" lon="1.89541">
        <ele>154</ele>
        <time>2015-10-31T10:23:47Z</time>
      </trkpt>
      <trkpt lat="44.50692" lon="1.89534">
        <ele>153.9</ele>
        <time>2015-10-31T10:23:48Z</time>
      </trkpt>
      <trkpt lat="44.50693" lon="1.89525">
        <ele>153.9</ele>
        <time>2015-10-31T10:23:49Z</time>
      </trkpt>
      <trkpt lat="44.50697" lon="1.89517">
        <ele>153.9</ele>
        <time>2015-10-31T10:23:50Z</time>
      </trkpt>
      <trkpt lat="44.50698" lon="1.8951">
        <ele>153.9</ele>
        <time>2015-10-31T10:23:51Z</time>
      </trkpt>
      <trkpt lat="44.50699" lon="1.89502">
        <ele>153.8</ele>
        <time>2015-10-31T10:23:52Z</time>
      </trkpt>
      <trkpt lat="44.50701" lon="1.89494">
        <ele>153.9</ele>
        <time>2015-10-31T10:23:53Z</time>
      </trkpt>
      <trkpt lat="44.50705" lon="1.89486">
        <ele>153.9</ele>
        <time>2015-10-31T10:23:54Z</time>
      </trkpt>
      <trkpt lat="44.50706" lon="1.89478">
        <ele>153.9</ele>
        <time>2015-10-31T10:23:55Z</time>
      </trkpt>
      <trkpt lat="44.50708" lon="1.89469">
        <ele>154</ele>
        <time>2015-10-31T10:23:56Z</time>
      </trkpt>
      <trkpt lat="44.50709" lon="1.89465">
        <ele>154.4</ele>
        <time>2015-10-31T10:23:57Z</time>
      </trkpt>
      <trkpt lat="44.50712" lon="1.89458">
        <ele>155.4</ele>
        <time>2015-10-31T10:23:58Z</time>
      </trkpt>
      <trkpt lat="44.50713" lon="1.89454">
        <ele>155.6</ele>
        <time>2015-10-31T10:23:59Z</time>
      </trkpt>
      <trkpt lat="44.50713" lon="1.89447">
        <ele>155.9</ele>
        <time>2015-10-31T10:24:00Z</time>
      </trkpt>
      <trkpt lat="44.50717" lon="1.89437">
        <ele>157.3</ele>
        <time>2015-10-31T10:24:01Z</time>
      </trkpt>
      <trkpt lat="44.50719" lon="1.89427">
        <ele>158.3</ele>
        <time>2015-10-31T10:24:02Z</time>
      </trkpt>
      <trkpt lat="44.50719" lon="1.89421">
        <ele>158.3</ele>
        <time>2015-10-31T10:24:03Z</time>
      </trkpt>
      <trkpt lat="44.5072" lon="1.89416">
        <ele>158.6</ele>
        <time>2015-10-31T10:24:04Z</time>
      </trkpt>
      <trkpt lat="44.50719" lon="1.89406">
        <ele>158.3</ele>
        <time>2015-10-31T10:24:05Z</time>
      </trkpt>
      <trkpt lat="44.5072" lon="1.89396">
        <ele>158.7</ele>
        <time>2015-10-31T10:24:06Z</time>
      </trkpt>
      <trkpt lat="44.50721" lon="1.89388">
        <ele>159</ele>
        <time>2015-10-31T10:24:07Z</time>
      </trkpt>
      <trkpt lat="44.50722" lon="1.8938">
        <ele>159.4</ele>
        <time>2015-10-31T10:24:08Z</time>
      </trkpt>
      <trkpt lat="44.50719" lon="1.89374">
        <ele>158.7</ele>
        <time>2015-10-31T10:24:09Z</time>
      </trkpt>
      <trkpt lat="44.5072" lon="1.89368">
        <ele>158.8</ele>
        <time>2015-10-31T10:24:10Z</time>
      </trkpt>
      <trkpt lat="44.50722" lon="1.89356">
        <ele>159.5</ele>
        <time>2015-10-31T10:24:11Z</time>
      </trkpt>
      <trkpt lat="44.50723" lon="1.89345">
        <ele>160</ele>
        <time>2015-10-31T10:24:12Z</time>
      </trkpt>
      <trkpt lat="44.50724" lon="1.89334">
        <ele>160.4</ele>
        <time>2015-10-31T10:24:13Z</time>
      </trkpt>
      <trkpt lat="44.50722" lon="1.89326">
        <ele>159.8</ele>
        <time>2015-10-31T10:24:14Z</time>
      </trkpt>
      <trkpt lat="44.50723" lon="1.8932">
        <ele>160</ele>
        <time>2015-10-31T10:24:15Z</time>
      </trkpt>
      <trkpt lat="44.50723" lon="1.89313">
        <ele>160.2</ele>
        <time>2015-10-31T10:24:16Z</time>
      </trkpt>
      <trkpt lat="44.50722" lon="1.89306">
        <ele>160</ele>
        <time>2015-10-31T10:24:17Z</time>
      </trkpt>
      <trkpt lat="44.50722" lon="1.89296">
        <ele>159.9</ele>
        <time>2015-10-31T10:24:18Z</time>
      </trkpt>
      <trkpt lat="44.50724" lon="1.89291">
        <ele>160.5</ele>
        <time>2015-10-31T10:24:19Z</time>
      </trkpt>
      <trkpt lat="44.50724" lon="1.89283">
        <ele>160.9</ele>
        <time>2015-10-31T10:24:20Z</time>
      </trkpt>
      <trkpt lat="44.50724" lon="1.89278">
        <ele>160.8</ele>
        <time>2015-10-31T10:24:21Z</time>
      </trkpt>
      <trkpt lat="44.5072" lon="1.89269">
        <ele>159.7</ele>
        <time>2015-10-31T10:24:22Z</time>
      </trkpt>
      <trkpt lat="44.50721" lon="1.89261">
        <ele>160.2</ele>
        <time>2015-10-31T10:24:23Z</time>
      </trkpt>
      <trkpt lat="44.5072" lon="1.89251">
        <ele>160</ele>
        <time>2015-10-31T10:24:24Z</time>
      </trkpt>
      <trkpt lat="44.50722" lon="1.89243">
        <ele>160.9</ele>
        <time>2015-10-31T10:24:25Z</time>
      </trkpt>
      <trkpt lat="44.50722" lon="1.89233">
        <ele>161.2</ele>
        <time>2015-10-31T10:24:26Z</time>
      </trkpt>
      <trkpt lat="44.50721" lon="1.89227">
        <ele>160.7</ele>
        <time>2015-10-31T10:24:27Z</time>
      </trkpt>
      <trkpt lat="44.50715" lon="1.89194">
        <ele>159.6</ele>
        <time>2015-10-31T10:24:30Z</time>
      </trkpt>
      <trkpt lat="44.50712" lon="1.89181">
        <ele>158.8</ele>
        <time>2015-10-31T10:24:31Z</time>
      </trkpt>
      <trkpt lat="44.50708" lon="1.89173">
        <ele>157.2</ele>
        <time>2015-10-31T10:24:32Z</time>
      </trkpt>
      <trkpt lat="44.50707" lon="1.89167">
        <ele>157.4</ele>
        <time>2015-10-31T10:24:33Z</time>
      </trkpt>
      <trkpt lat="44.50707" lon="1.89157">
        <ele>157.7</ele>
        <time>2015-10-31T10:24:34Z</time>
      </trkpt>
      <trkpt lat="44.50703" lon="1.8915">
        <ele>157.5</ele>
        <time>2015-10-31T10:24:35Z</time>
      </trkpt>
      <trkpt lat="44.50702" lon="1.89144">
        <ele>157.6</ele>
        <time>2015-10-31T10:24:36Z</time>
      </trkpt>
      <trkpt lat="44.507" lon="1.89136">
        <ele>157.7</ele>
        <time>2015-10-31T10:24:37Z</time>
      </trkpt>
      <trkpt lat="44.50697" lon="1.89127">
        <ele>157.5</ele>
        <time>2015-10-31T10:24:38Z</time>
      </trkpt>
      <trkpt lat="44.50694" lon="1.89116">
        <ele>158.4</ele>
        <time>2015-10-31T10:24:39Z</time>
      </trkpt>
      <trkpt lat="44.50693" lon="1.89111">
        <ele>159</ele>
        <time>2015-10-31T10:24:40Z</time>
      </trkpt>
      <trkpt lat="44.50693" lon="1.89104">
        <ele>160.2</ele>
        <time>2015-10-31T10:24:42Z</time>
      </trkpt>
      <trkpt lat="44.50691" lon="1.89095">
        <ele>161.2</ele>
        <time>2015-10-31T10:24:43Z</time>
      </trkpt>
      <trkpt lat="44.50691" lon="1.89087">
        <ele>162.3</ele>
        <time>2015-10-31T10:24:44Z</time>
      </trkpt>
      <trkpt lat="44.5069" lon="1.89079">
        <ele>163.2</ele>
        <time>2015-10-31T10:24:45Z</time>
      </trkpt>
      <trkpt lat="44.50686" lon="1.89072">
        <ele>163.3</ele>
        <time>2015-10-31T10:24:46Z</time>
      </trkpt>
      <trkpt lat="44.50684" lon="1.89064">
        <ele>163.9</ele>
        <time>2015-10-31T10:24:47Z</time>
      </trkpt>
      <trkpt lat="44.50682" lon="1.8906">
        <ele>164</ele>
        <time>2015-10-31T10:24:48Z</time>
      </trkpt>
      <trkpt lat="44.5068" lon="1.89055">
        <ele>164.2</ele>
        <time>2015-10-31T10:24:49Z</time>
      </trkpt>
      <trkpt lat="44.50679" lon="1.89051">
        <ele>164.3</ele>
        <time>2015-10-31T10:24:50Z</time>
      </trkpt>
      <trkpt lat="44.50678" lon="1.89044">
        <ele>164.8</ele>
        <time>2015-10-31T10:24:51Z</time>
      </trkpt>
      <trkpt lat="44.50676" lon="1.8904">
        <ele>165</ele>
        <time>2015-10-31T10:24:52Z</time>
      </trkpt>
      <trkpt lat="44.50676" lon="1.89033">
        <ele>166.3</ele>
        <time>2015-10-31T10:24:53Z</time>
      </trkpt>
      <trkpt lat="44.50674" lon="1.89027">
        <ele>166.8</ele>
        <time>2015-10-31T10:24:54Z</time>
      </trkpt>
      <trkpt lat="44.50673" lon="1.89021">
        <ele>167.2</ele>
        <time>2015-10-31T10:24:55Z</time>
      </trkpt>
      <trkpt lat="44.50668" lon="1.89016">
        <ele>166.5</ele>
        <time>2015-10-31T10:24:56Z</time>
      </trkpt>
      <trkpt lat="44.50667" lon="1.89009">
        <ele>167.2</ele>
        <time>2015-10-31T10:24:57Z</time>
      </trkpt>
      <trkpt lat="44.50666" lon="1.89002">
        <ele>168</ele>
        <time>2015-10-31T10:24:58Z</time>
      </trkpt>
      <trkpt lat="44.50666" lon="1.88996">
        <ele>168.9</ele>
        <time>2015-10-31T10:24:59Z</time>
      </trkpt>
      <trkpt lat="44.50664" lon="1.88991">
        <ele>168.9</ele>
        <time>2015-10-31T10:25:00Z</time>
      </trkpt>
      <trkpt lat="44.50662" lon="1.88984">
        <ele>168.9</ele>
        <time>2015-10-31T10:25:01Z</time>
      </trkpt>
      <trkpt lat="44.50657" lon="1.88978">
        <ele>167.3</ele>
        <time>2015-10-31T10:25:02Z</time>
      </trkpt>
      <trkpt lat="44.50652" lon="1.88974">
        <ele>165.7</ele>
        <time>2015-10-31T10:25:03Z</time>
      </trkpt>
      <trkpt lat="44.5065" lon="1.88966">
        <ele>165.9</ele>
        <time>2015-10-31T10:25:04Z</time>
      </trkpt>
      <trkpt lat="44.50648" lon="1.88963">
        <ele>165</ele>
        <time>2015-10-31T10:25:05Z</time>
      </trkpt>
      <trkpt lat="44.50643" lon="1.88951">
        <ele>165</ele>
        <time>2015-10-31T10:25:07Z</time>
      </trkpt>
      <trkpt lat="44.50644" lon="1.88945">
        <ele>166.7</ele>
        <time>2015-10-31T10:25:08Z</time>
      </trkpt>
      <trkpt lat="44.50642" lon="1.88938">
        <ele>167.8</ele>
        <time>2015-10-31T10:25:09Z</time>
      </trkpt>
      <trkpt lat="44.5064" lon="1.88933">
        <ele>167.6</ele>
        <time>2015-10-31T10:25:10Z</time>
      </trkpt>
      <trkpt lat="44.50639" lon="1.88926">
        <ele>168.6</ele>
        <time>2015-10-31T10:25:11Z</time>
      </trkpt>
      <trkpt lat="44.50633" lon="1.8892">
        <ele>166.7</ele>
        <time>2015-10-31T10:25:12Z</time>
      </trkpt>
      <trkpt lat="44.50631" lon="1.88914">
        <ele>166.8</ele>
        <time>2015-10-31T10:25:13Z</time>
      </trkpt>
      <trkpt lat="44.5063" lon="1.88909">
        <ele>167.8</ele>
        <time>2015-10-31T10:25:14Z</time>
      </trkpt>
      <trkpt lat="44.50626" lon="1.88903">
        <ele>166.6</ele>
        <time>2015-10-31T10:25:15Z</time>
      </trkpt>
      <trkpt lat="44.50623" lon="1.88898">
        <ele>166.7</ele>
        <time>2015-10-31T10:25:16Z</time>
      </trkpt>
      <trkpt lat="44.5062" lon="1.88894">
        <ele>166.9</ele>
        <time>2015-10-31T10:25:17Z</time>
      </trkpt>
      <trkpt lat="44.50616" lon="1.88889">
        <ele>167.2</ele>
        <time>2015-10-31T10:25:18Z</time>
      </trkpt>
      <trkpt lat="44.50613" lon="1.88883">
        <ele>167.8</ele>
        <time>2015-10-31T10:25:19Z</time>
      </trkpt>
      <trkpt lat="44.50611" lon="1.88878">
        <ele>168.2</ele>
        <time>2015-10-31T10:25:20Z</time>
      </trkpt>
      <trkpt lat="44.50608" lon="1.88872">
        <ele>169.3</ele>
        <time>2015-10-31T10:25:21Z</time>
      </trkpt>
      <trkpt lat="44.50606" lon="1.88869">
        <ele>169.5</ele>
        <time>2015-10-31T10:25:22Z</time>
      </trkpt>
      <trkpt lat="44.50603" lon="1.88865">
        <ele>170.2</ele>
        <time>2015-10-31T10:25:23Z</time>
      </trkpt>
      <trkpt lat="44.506" lon="1.8886">
        <ele>171.1</ele>
        <time>2015-10-31T10:25:24Z</time>
      </trkpt>
      <trkpt lat="44.50593" lon="1.88854">
        <ele>170.9</ele>
        <time>2015-10-31T10:25:25Z</time>
      </trkpt>
      <trkpt lat="44.50589" lon="1.88849">
        <ele>171.3</ele>
        <time>2015-10-31T10:25:26Z</time>
      </trkpt>
      <trkpt lat="44.50584" lon="1.88845">
        <ele>170.6</ele>
        <time>2015-10-31T10:25:27Z</time>
      </trkpt>
      <trkpt lat="44.5058" lon="1.8884">
        <ele>171.1</ele>
        <time>2015-10-31T10:25:28Z</time>
      </trkpt>
      <trkpt lat="44.50577" lon="1.88834">
        <ele>171.4</ele>
        <time>2015-10-31T10:25:29Z</time>
      </trkpt>
      <trkpt lat="44.50575" lon="1.88828">
        <ele>172</ele>
        <time>2015-10-31T10:25:30Z</time>
      </trkpt>
      <trkpt lat="44.50572" lon="1.88823">
        <ele>172.1</ele>
        <time>2015-10-31T10:25:31Z</time>
      </trkpt>
      <trkpt lat="44.5057" lon="1.88818">
        <ele>172.4</ele>
        <time>2015-10-31T10:25:32Z</time>
      </trkpt>
      <trkpt lat="44.5057" lon="1.88811">
        <ele>174.2</ele>
        <time>2015-10-31T10:25:33Z</time>
      </trkpt>
      <trkpt lat="44.50569" lon="1.88806">
        <ele>174.8</ele>
        <time>2015-10-31T10:25:34Z</time>
      </trkpt>
      <trkpt lat="44.50563" lon="1.888">
        <ele>173.5</ele>
        <time>2015-10-31T10:25:35Z</time>
      </trkpt>
      <trkpt lat="44.50561" lon="1.88796">
        <ele>173.6</ele>
        <time>2015-10-31T10:25:36Z</time>
      </trkpt>
      <trkpt lat="44.50557" lon="1.8879">
        <ele>173</ele>
        <time>2015-10-31T10:25:37Z</time>
      </trkpt>
      <trkpt lat="44.50555" lon="1.88787">
        <ele>173</ele>
        <time>2015-10-31T10:25:38Z</time>
      </trkpt>
      <trkpt lat="44.50551" lon="1.88783">
        <ele>172.7</ele>
        <time>2015-10-31T10:25:39Z</time>
      </trkpt>
      <trkpt lat="44.50545" lon="1.88777">
        <ele>171.8</ele>
        <time>2015-10-31T10:25:40Z</time>
      </trkpt>
      <trkpt lat="44.50542" lon="1.88773">
        <ele>171.6</ele>
        <time>2015-10-31T10:25:41Z</time>
      </trkpt>
      <trkpt lat="44.50538" lon="1.88767">
        <ele>172.9</ele>
        <time>2015-10-31T10:25:42Z</time>
      </trkpt>
      <trkpt lat="44.50536" lon="1.88761">
        <ele>174.3</ele>
        <time>2015-10-31T10:25:43Z</time>
      </trkpt>
      <trkpt lat="44.50532" lon="1.88757">
        <ele>174.8</ele>
        <time>2015-10-31T10:25:44Z</time>
      </trkpt>
      <trkpt lat="44.50527" lon="1.88752">
        <ele>175</ele>
        <time>2015-10-31T10:25:45Z</time>
      </trkpt>
      <trkpt lat="44.50521" lon="1.8875">
        <ele>174.1</ele>
        <time>2015-10-31T10:25:46Z</time>
      </trkpt>
      <trkpt lat="44.50519" lon="1.88745">
        <ele>174.5</ele>
        <time>2015-10-31T10:25:47Z</time>
      </trkpt>
      <trkpt lat="44.50515" lon="1.88741">
        <ele>174.5</ele>
        <time>2015-10-31T10:25:48Z</time>
      </trkpt>
      <trkpt lat="44.5051" lon="1.88736">
        <ele>174.2</ele>
        <time>2015-10-31T10:25:49Z</time>
      </trkpt>
      <trkpt lat="44.50507" lon="1.88732">
        <ele>174.2</ele>
        <time>2015-10-31T10:25:50Z</time>
      </trkpt>
      <trkpt lat="44.50503" lon="1.88727">
        <ele>174</ele>
        <time>2015-10-31T10:25:51Z</time>
      </trkpt>
      <trkpt lat="44.50502" lon="1.88722">
        <ele>174.6</ele>
        <time>2015-10-31T10:25:52Z</time>
      </trkpt>
      <trkpt lat="44.50493" lon="1.88716">
        <ele>172.3</ele>
        <time>2015-10-31T10:25:53Z</time>
      </trkpt>
      <trkpt lat="44.50493" lon="1.88708">
        <ele>173.8</ele>
        <time>2015-10-31T10:25:54Z</time>
      </trkpt>
      <trkpt lat="44.50487" lon="1.88703">
        <ele>173.3</ele>
        <time>2015-10-31T10:25:55Z</time>
      </trkpt>
      <trkpt lat="44.5048" lon="1.887">
        <ele>171.5</ele>
        <time>2015-10-31T10:25:56Z</time>
      </trkpt>
      <trkpt lat="44.50477" lon="1.88699">
        <ele>170.5</ele>
        <time>2015-10-31T10:25:57Z</time>
      </trkpt>
      <trkpt lat="44.50477" lon="1.88694">
        <ele>173</ele>
        <time>2015-10-31T10:25:58Z</time>
      </trkpt>
      <trkpt lat="44.50473" lon="1.88686">
        <ele>174.6</ele>
        <time>2015-10-31T10:25:59Z</time>
      </trkpt>
      <trkpt lat="44.5047" lon="1.88681">
        <ele>174.8</ele>
        <time>2015-10-31T10:26:00Z</time>
      </trkpt>
      <trkpt lat="44.50467" lon="1.88676">
        <ele>175.6</ele>
        <time>2015-10-31T10:26:01Z</time>
      </trkpt>
      <trkpt lat="44.50458" lon="1.88673">
        <ele>172.7</ele>
        <time>2015-10-31T10:26:02Z</time>
      </trkpt>
      <trkpt lat="44.50455" lon="1.88666">
        <ele>174.4</ele>
        <time>2015-10-31T10:26:03Z</time>
      </trkpt>
      <trkpt lat="44.50447" lon="1.88662">
        <ele>173.7</ele>
        <time>2015-10-31T10:26:04Z</time>
      </trkpt>
      <trkpt lat="44.50444" lon="1.88656">
        <ele>174.9</ele>
        <time>2015-10-31T10:26:05Z</time>
      </trkpt>
      <trkpt lat="44.50439" lon="1.88652">
        <ele>174.8</ele>
        <time>2015-10-31T10:26:06Z</time>
      </trkpt>
      <trkpt lat="44.50437" lon="1.88648">
        <ele>175.4</ele>
        <time>2015-10-31T10:26:07Z</time>
      </trkpt>
      <trkpt lat="44.50432" lon="1.88643">
        <ele>175.3</ele>
        <time>2015-10-31T10:26:08Z</time>
      </trkpt>
      <trkpt lat="44.50427" lon="1.88636">
        <ele>175.2</ele>
        <time>2015-10-31T10:26:09Z</time>
      </trkpt>
      <trkpt lat="44.50423" lon="1.88629">
        <ele>175.7</ele>
        <time>2015-10-31T10:26:10Z</time>
      </trkpt>
      <trkpt lat="44.50421" lon="1.88623">
        <ele>176.7</ele>
        <time>2015-10-31T10:26:11Z</time>
      </trkpt>
      <trkpt lat="44.50416" lon="1.8862">
        <ele>177</ele>
        <time>2015-10-31T10:26:12Z</time>
      </trkpt>
      <trkpt lat="44.50413" lon="1.88613">
        <ele>179.8</ele>
        <time>2015-10-31T10:26:13Z</time>
      </trkpt>
      <trkpt lat="44.50408" lon="1.88608">
        <ele>180</ele>
        <time>2015-10-31T10:26:14Z</time>
      </trkpt>
      <trkpt lat="44.50403" lon="1.88603">
        <ele>180.7</ele>
        <time>2015-10-31T10:26:15Z</time>
      </trkpt>
      <trkpt lat="44.50395" lon="1.886">
        <ele>178.9</ele>
        <time>2015-10-31T10:26:16Z</time>
      </trkpt>
      <trkpt lat="44.50389" lon="1.88595">
        <ele>178.4</ele>
        <time>2015-10-31T10:26:17Z</time>
      </trkpt>
      <trkpt lat="44.50383" lon="1.88591">
        <ele>177.9</ele>
        <time>2015-10-31T10:26:18Z</time>
      </trkpt>
      <trkpt lat="44.5038" lon="1.88588">
        <ele>178.3</ele>
        <time>2015-10-31T10:26:19Z</time>
      </trkpt>
      <trkpt lat="44.50377" lon="1.88582">
        <ele>179.8</ele>
        <time>2015-10-31T10:26:20Z</time>
      </trkpt>
      <trkpt lat="44.50373" lon="1.8858">
        <ele>179.2</ele>
        <time>2015-10-31T10:26:21Z</time>
      </trkpt>
      <trkpt lat="44.50367" lon="1.88575">
        <ele>180.3</ele>
        <time>2015-10-31T10:26:22Z</time>
      </trkpt>
      <trkpt lat="44.50364" lon="1.8857">
        <ele>181.6</ele>
        <time>2015-10-31T10:26:23Z</time>
      </trkpt>
      <trkpt lat="44.5036" lon="1.88568">
        <ele>181.3</ele>
        <time>2015-10-31T10:26:24Z</time>
      </trkpt>
      <trkpt lat="44.50355" lon="1.88564">
        <ele>181.5</ele>
        <time>2015-10-31T10:26:25Z</time>
      </trkpt>
      <trkpt lat="44.50348" lon="1.88561">
        <ele>180.5</ele>
        <time>2015-10-31T10:26:26Z</time>
      </trkpt>
      <trkpt lat="44.50344" lon="1.88555">
        <ele>181.1</ele>
        <time>2015-10-31T10:26:27Z</time>
      </trkpt>
      <trkpt lat="44.50345" lon="1.88547">
        <ele>184.3</ele>
        <time>2015-10-31T10:26:29Z</time>
      </trkpt>
      <trkpt lat="44.50336" lon="1.88538">
        <ele>185.3</ele>
        <time>2015-10-31T10:26:30Z</time>
      </trkpt>
      <trkpt lat="44.50332" lon="1.88535">
        <ele>185.1</ele>
        <time>2015-10-31T10:26:31Z</time>
      </trkpt>
      <trkpt lat="44.50324" lon="1.88532">
        <ele>183.4</ele>
        <time>2015-10-31T10:26:32Z</time>
      </trkpt>
      <trkpt lat="44.5032" lon="1.88534">
        <ele>180.5</ele>
        <time>2015-10-31T10:26:33Z</time>
      </trkpt>
      <trkpt lat="44.50317" lon="1.8853">
        <ele>181.9</ele>
        <time>2015-10-31T10:26:34Z</time>
      </trkpt>
      <trkpt lat="44.5031" lon="1.88525">
        <ele>181.6</ele>
        <time>2015-10-31T10:26:35Z</time>
      </trkpt>
      <trkpt lat="44.50307" lon="1.88522">
        <ele>182.3</ele>
        <time>2015-10-31T10:26:36Z</time>
      </trkpt>
      <trkpt lat="44.50299" lon="1.88519">
        <ele>181.1</ele>
        <time>2015-10-31T10:26:37Z</time>
      </trkpt>
      <trkpt lat="44.50293" lon="1.88515">
        <ele>180.5</ele>
        <time>2015-10-31T10:26:38Z</time>
      </trkpt>
      <trkpt lat="44.50288" lon="1.8851">
        <ele>182.2</ele>
        <time>2015-10-31T10:26:39Z</time>
      </trkpt>
      <trkpt lat="44.5028" lon="1.88507">
        <ele>181.4</ele>
        <time>2015-10-31T10:26:41Z</time>
      </trkpt>
      <trkpt lat="44.50273" lon="1.88502">
        <ele>181.5</ele>
        <time>2015-10-31T10:26:42Z</time>
      </trkpt>
      <trkpt lat="44.50269" lon="1.88499">
        <ele>181.8</ele>
        <time>2015-10-31T10:26:43Z</time>
      </trkpt>
      <trkpt lat="44.50266" lon="1.88495">
        <ele>183</ele>
        <time>2015-10-31T10:26:44Z</time>
      </trkpt>
      <trkpt lat="44.50259" lon="1.88492">
        <ele>182.2</ele>
        <time>2015-10-31T10:26:45Z</time>
      </trkpt>
      <trkpt lat="44.50253" lon="1.88488">
        <ele>181.3</ele>
        <time>2015-10-31T10:26:46Z</time>
      </trkpt>
      <trkpt lat="44.50249" lon="1.88486">
        <ele>181</ele>
        <time>2015-10-31T10:26:47Z</time>
      </trkpt>
      <trkpt lat="44.50243" lon="1.88485">
        <ele>179.1</ele>
        <time>2015-10-31T10:26:48Z</time>
      </trkpt>
      <trkpt lat="44.50238" lon="1.88483">
        <ele>177.8</ele>
        <time>2015-10-31T10:26:49Z</time>
      </trkpt>
      <trkpt lat="44.50234" lon="1.88478">
        <ele>178</ele>
        <time>2015-10-31T10:26:50Z</time>
      </trkpt>
      <trkpt lat="44.50228" lon="1.88474">
        <ele>177.1</ele>
        <time>2015-10-31T10:26:51Z</time>
      </trkpt>
      <trkpt lat="44.50224" lon="1.88471">
        <ele>176.4</ele>
        <time>2015-10-31T10:26:52Z</time>
      </trkpt>
      <trkpt lat="44.5022" lon="1.88468">
        <ele>175.3</ele>
        <time>2015-10-31T10:26:53Z</time>
      </trkpt>
      <trkpt lat="44.50215" lon="1.88466">
        <ele>174</ele>
        <time>2015-10-31T10:26:54Z</time>
      </trkpt>
      <trkpt lat="44.50208" lon="1.88465">
        <ele>171</ele>
        <time>2015-10-31T10:26:55Z</time>
      </trkpt>
      <trkpt lat="44.50202" lon="1.88461">
        <ele>171.3</ele>
        <time>2015-10-31T10:26:56Z</time>
      </trkpt>
      <trkpt lat="44.50196" lon="1.88459">
        <ele>171</ele>
        <time>2015-10-31T10:26:57Z</time>
      </trkpt>
      <trkpt lat="44.5019" lon="1.88458">
        <ele>170.7</ele>
        <time>2015-10-31T10:26:58Z</time>
      </trkpt>
      <trkpt lat="44.50185" lon="1.88456">
        <ele>171.7</ele>
        <time>2015-10-31T10:26:59Z</time>
      </trkpt>
      <trkpt lat="44.50179" lon="1.88454">
        <ele>172.3</ele>
        <time>2015-10-31T10:27:00Z</time>
      </trkpt>
      <trkpt lat="44.50173" lon="1.88452">
        <ele>172.9</ele>
        <time>2015-10-31T10:27:01Z</time>
      </trkpt>
      <trkpt lat="44.50166" lon="1.8845">
        <ele>173.2</ele>
        <time>2015-10-31T10:27:02Z</time>
      </trkpt>
      <trkpt lat="44.50157" lon="1.88443">
        <ele>176.4</ele>
        <time>2015-10-31T10:27:04Z</time>
      </trkpt>
      <trkpt lat="44.50151" lon="1.88439">
        <ele>177.9</ele>
        <time>2015-10-31T10:27:05Z</time>
      </trkpt>
      <trkpt lat="44.50145" lon="1.88438">
        <ele>177.8</ele>
        <time>2015-10-31T10:27:06Z</time>
      </trkpt>
      <trkpt lat="44.50139" lon="1.88434">
        <ele>178.9</ele>
        <time>2015-10-31T10:27:07Z</time>
      </trkpt>
      <trkpt lat="44.50134" lon="1.88434">
        <ele>178.4</ele>
        <time>2015-10-31T10:27:08Z</time>
      </trkpt>
      <trkpt lat="44.5013" lon="1.8843">
        <ele>179.5</ele>
        <time>2015-10-31T10:27:09Z</time>
      </trkpt>
      <trkpt lat="44.50124" lon="1.88426">
        <ele>180.8</ele>
        <time>2015-10-31T10:27:10Z</time>
      </trkpt>
      <trkpt lat="44.50119" lon="1.88425">
        <ele>181.1</ele>
        <time>2015-10-31T10:27:11Z</time>
      </trkpt>
      <trkpt lat="44.50115" lon="1.88422">
        <ele>181.9</ele>
        <time>2015-10-31T10:27:12Z</time>
      </trkpt>
      <trkpt lat="44.50109" lon="1.88418">
        <ele>182.9</ele>
        <time>2015-10-31T10:27:13Z</time>
      </trkpt>
      <trkpt lat="44.50102" lon="1.88417">
        <ele>182.3</ele>
        <time>2015-10-31T10:27:14Z</time>
      </trkpt>
      <trkpt lat="44.50096" lon="1.88416">
        <ele>182.1</ele>
        <time>2015-10-31T10:27:15Z</time>
      </trkpt>
      <trkpt lat="44.5009" lon="1.88411">
        <ele>183.7</ele>
        <time>2015-10-31T10:27:16Z</time>
      </trkpt>
      <trkpt lat="44.50085" lon="1.88411">
        <ele>182.6</ele>
        <time>2015-10-31T10:27:17Z</time>
      </trkpt>
      <trkpt lat="44.50079" lon="1.88409">
        <ele>182.6</ele>
        <time>2015-10-31T10:27:18Z</time>
      </trkpt>
      <trkpt lat="44.50073" lon="1.88408">
        <ele>182.2</ele>
        <time>2015-10-31T10:27:19Z</time>
      </trkpt>
      <trkpt lat="44.50067" lon="1.88407">
        <ele>181.5</ele>
        <time>2015-10-31T10:27:20Z</time>
      </trkpt>
      <trkpt lat="44.50062" lon="1.88405">
        <ele>181.2</ele>
        <time>2015-10-31T10:27:21Z</time>
      </trkpt>
      <trkpt lat="44.50057" lon="1.88402">
        <ele>181.8</ele>
        <time>2015-10-31T10:27:22Z</time>
      </trkpt>
      <trkpt lat="44.50051" lon="1.884">
        <ele>181.7</ele>
        <time>2015-10-31T10:27:23Z</time>
      </trkpt>
      <trkpt lat="44.50045" lon="1.88398">
        <ele>181.2</ele>
        <time>2015-10-31T10:27:24Z</time>
      </trkpt>
      <trkpt lat="44.50038" lon="1.88396">
        <ele>181.2</ele>
        <time>2015-10-31T10:27:25Z</time>
      </trkpt>
      <trkpt lat="44.50032" lon="1.88393">
        <ele>181.7</ele>
        <time>2015-10-31T10:27:26Z</time>
      </trkpt>
      <trkpt lat="44.50025" lon="1.88391">
        <ele>181.9</ele>
        <time>2015-10-31T10:27:27Z</time>
      </trkpt>
      <trkpt lat="44.50018" lon="1.88394">
        <ele>179.6</ele>
        <time>2015-10-31T10:27:28Z</time>
      </trkpt>
      <trkpt lat="44.50013" lon="1.88389">
        <ele>180.8</ele>
        <time>2015-10-31T10:27:29Z</time>
      </trkpt>
      <trkpt lat="44.50008" lon="1.88386">
        <ele>181.3</ele>
        <time>2015-10-31T10:27:30Z</time>
      </trkpt>
      <trkpt lat="44.50001" lon="1.88384">
        <ele>181.4</ele>
        <time>2015-10-31T10:27:31Z</time>
      </trkpt>
      <trkpt lat="44.49995" lon="1.88377">
        <ele>182.7</ele>
        <time>2015-10-31T10:27:32Z</time>
      </trkpt>
      <trkpt lat="44.49989" lon="1.88375">
        <ele>182.6</ele>
        <time>2015-10-31T10:27:33Z</time>
      </trkpt>
      <trkpt lat="44.49982" lon="1.88376">
        <ele>181</ele>
        <time>2015-10-31T10:27:34Z</time>
      </trkpt>
      <trkpt lat="44.49976" lon="1.88375">
        <ele>180.1</ele>
        <time>2015-10-31T10:27:35Z</time>
      </trkpt>
      <trkpt lat="44.49972" lon="1.88372">
        <ele>181.3</ele>
        <time>2015-10-31T10:27:36Z</time>
      </trkpt>
      <trkpt lat="44.49966" lon="1.8837">
        <ele>181.6</ele>
        <time>2015-10-31T10:27:37Z</time>
      </trkpt>
      <trkpt lat="44.4996" lon="1.88368">
        <ele>181.9</ele>
        <time>2015-10-31T10:27:38Z</time>
      </trkpt>
      <trkpt lat="44.49954" lon="1.88365">
        <ele>182.8</ele>
        <time>2015-10-31T10:27:39Z</time>
      </trkpt>
      <trkpt lat="44.49949" lon="1.88363">
        <ele>183.7</ele>
        <time>2015-10-31T10:27:40Z</time>
      </trkpt>
      <trkpt lat="44.49943" lon="1.8836">
        <ele>185.5</ele>
        <time>2015-10-31T10:27:41Z</time>
      </trkpt>
      <trkpt lat="44.49937" lon="1.88359">
        <ele>185.9</ele>
        <time>2015-10-31T10:27:42Z</time>
      </trkpt>
      <trkpt lat="44.49932" lon="1.88357">
        <ele>186.9</ele>
        <time>2015-10-31T10:27:43Z</time>
      </trkpt>
      <trkpt lat="44.49926" lon="1.88356">
        <ele>187.4</ele>
        <time>2015-10-31T10:27:44Z</time>
      </trkpt>
      <trkpt lat="44.4992" lon="1.88353">
        <ele>189</ele>
        <time>2015-10-31T10:27:45Z</time>
      </trkpt>
      <trkpt lat="44.49915" lon="1.8835">
        <ele>191.1</ele>
        <time>2015-10-31T10:27:46Z</time>
      </trkpt>
      <trkpt lat="44.4991" lon="1.88349">
        <ele>191.4</ele>
        <time>2015-10-31T10:27:47Z</time>
      </trkpt>
      <trkpt lat="44.49903" lon="1.88347">
        <ele>192.5</ele>
        <time>2015-10-31T10:27:48Z</time>
      </trkpt>
      <trkpt lat="44.49898" lon="1.88344">
        <ele>194.2</ele>
        <time>2015-10-31T10:27:49Z</time>
      </trkpt>
      <trkpt lat="44.49891" lon="1.88345">
        <ele>193.1</ele>
        <time>2015-10-31T10:27:50Z</time>
      </trkpt>
      <trkpt lat="44.49887" lon="1.88349">
        <ele>190.3</ele>
        <time>2015-10-31T10:27:51Z</time>
      </trkpt>
      <trkpt lat="44.49881" lon="1.8835">
        <ele>189.7</ele>
        <time>2015-10-31T10:27:52Z</time>
      </trkpt>
      <trkpt lat="44.49875" lon="1.88346">
        <ele>191.9</ele>
        <time>2015-10-31T10:27:53Z</time>
      </trkpt>
      <trkpt lat="44.49868" lon="1.88345">
        <ele>192.4</ele>
        <time>2015-10-31T10:27:54Z</time>
      </trkpt>
      <trkpt lat="44.49863" lon="1.88343">
        <ele>193.6</ele>
        <time>2015-10-31T10:27:55Z</time>
      </trkpt>
      <trkpt lat="44.49857" lon="1.88343">
        <ele>193.5</ele>
        <time>2015-10-31T10:27:56Z</time>
      </trkpt>
      <trkpt lat="44.49851" lon="1.88342">
        <ele>194.2</ele>
        <time>2015-10-31T10:27:57Z</time>
      </trkpt>
      <trkpt lat="44.49844" lon="1.8834">
        <ele>196.2</ele>
        <time>2015-10-31T10:27:58Z</time>
      </trkpt>
      <trkpt lat="44.49838" lon="1.88338">
        <ele>197.3</ele>
        <time>2015-10-31T10:27:59Z</time>
      </trkpt>
      <trkpt lat="44.49833" lon="1.88342">
        <ele>193.9</ele>
        <time>2015-10-31T10:28:00Z</time>
      </trkpt>
      <trkpt lat="44.49827" lon="1.88345">
        <ele>191.4</ele>
        <time>2015-10-31T10:28:01Z</time>
      </trkpt>
      <trkpt lat="44.49822" lon="1.88342">
        <ele>193.7</ele>
        <time>2015-10-31T10:28:02Z</time>
      </trkpt>
      <trkpt lat="44.49817" lon="1.88343">
        <ele>193</ele>
        <time>2015-10-31T10:28:03Z</time>
      </trkpt>
      <trkpt lat="44.49814" lon="1.88341">
        <ele>194.5</ele>
        <time>2015-10-31T10:28:04Z</time>
      </trkpt>
      <trkpt lat="44.49809" lon="1.88339">
        <ele>196.5</ele>
        <time>2015-10-31T10:28:05Z</time>
      </trkpt>
      <trkpt lat="44.49803" lon="1.88338">
        <ele>197.7</ele>
        <time>2015-10-31T10:28:06Z</time>
      </trkpt>
      <trkpt lat="44.49798" lon="1.88337">
        <ele>198</ele>
        <time>2015-10-31T10:28:07Z</time>
      </trkpt>
      <trkpt lat="44.49791" lon="1.88339">
        <ele>196.5</ele>
        <time>2015-10-31T10:28:08Z</time>
      </trkpt>
      <trkpt lat="44.49788" lon="1.88338">
        <ele>197.9</ele>
        <time>2015-10-31T10:28:09Z</time>
      </trkpt>
      <trkpt lat="44.49781" lon="1.88338">
        <ele>198.2</ele>
        <time>2015-10-31T10:28:10Z</time>
      </trkpt>
      <trkpt lat="44.49777" lon="1.88331">
        <ele>204.7</ele>
        <time>2015-10-31T10:28:11Z</time>
      </trkpt>
      <trkpt lat="44.49771" lon="1.88331">
        <ele>204.7</ele>
        <time>2015-10-31T10:28:12Z</time>
      </trkpt>
      <trkpt lat="44.49765" lon="1.88331">
        <ele>204.6</ele>
        <time>2015-10-31T10:28:13Z</time>
      </trkpt>
      <trkpt lat="44.4976" lon="1.88333">
        <ele>203.4</ele>
        <time>2015-10-31T10:28:14Z</time>
      </trkpt>
      <trkpt lat="44.49753" lon="1.88333">
        <ele>203.4</ele>
        <time>2015-10-31T10:28:15Z</time>
      </trkpt>
      <trkpt lat="44.49747" lon="1.88333">
        <ele>204</ele>
        <time>2015-10-31T10:28:16Z</time>
      </trkpt>
      <trkpt lat="44.49742" lon="1.88332">
        <ele>204.7</ele>
        <time>2015-10-31T10:28:17Z</time>
      </trkpt>
      <trkpt lat="44.49736" lon="1.8833">
        <ele>207.1</ele>
        <time>2015-10-31T10:28:18Z</time>
      </trkpt>
      <trkpt lat="44.49729" lon="1.88326">
        <ele>210.6</ele>
        <time>2015-10-31T10:28:19Z</time>
      </trkpt>
      <trkpt lat="44.49725" lon="1.88326">
        <ele>210.2</ele>
        <time>2015-10-31T10:28:20Z</time>
      </trkpt>
      <trkpt lat="44.49722" lon="1.88328">
        <ele>208.9</ele>
        <time>2015-10-31T10:28:21Z</time>
      </trkpt>
      <trkpt lat="44.49714" lon="1.88331">
        <ele>206.8</ele>
        <time>2015-10-31T10:28:22Z</time>
      </trkpt>
      <trkpt lat="44.49707" lon="1.88335">
        <ele>203.5</ele>
        <time>2015-10-31T10:28:23Z</time>
      </trkpt>
      <trkpt lat="44.49701" lon="1.88333">
        <ele>205.3</ele>
        <time>2015-10-31T10:28:24Z</time>
      </trkpt>
      <trkpt lat="44.49696" lon="1.8833">
        <ele>208.1</ele>
        <time>2015-10-31T10:28:25Z</time>
      </trkpt>
      <trkpt lat="44.49691" lon="1.88331">
        <ele>207.3</ele>
        <time>2015-10-31T10:28:26Z</time>
      </trkpt>
      <trkpt lat="44.49684" lon="1.88338">
        <ele>202.4</ele>
        <time>2015-10-31T10:28:27Z</time>
      </trkpt>
      <trkpt lat="44.49676" lon="1.88346">
        <ele>197</ele>
        <time>2015-10-31T10:28:28Z</time>
      </trkpt>
      <trkpt lat="44.49672" lon="1.88346">
        <ele>197.5</ele>
        <time>2015-10-31T10:28:29Z</time>
      </trkpt>
      <trkpt lat="44.49668" lon="1.88348">
        <ele>196.8</ele>
        <time>2015-10-31T10:28:30Z</time>
      </trkpt>
      <trkpt lat="44.49666" lon="1.88344">
        <ele>199.7</ele>
        <time>2015-10-31T10:28:31Z</time>
      </trkpt>
      <trkpt lat="44.49662" lon="1.88343">
        <ele>200.5</ele>
        <time>2015-10-31T10:28:32Z</time>
      </trkpt>
      <trkpt lat="44.49661" lon="1.88338">
        <ele>204.4</ele>
        <time>2015-10-31T10:28:33Z</time>
      </trkpt>
      <trkpt lat="44.49658" lon="1.88336">
        <ele>206.2</ele>
        <time>2015-10-31T10:28:34Z</time>
      </trkpt>
      <trkpt lat="44.49651" lon="1.88347">
        <ele>199.5</ele>
        <time>2015-10-31T10:28:35Z</time>
      </trkpt>
      <trkpt lat="44.49646" lon="1.88342">
        <ele>202.8</ele>
        <time>2015-10-31T10:28:36Z</time>
      </trkpt>
      <trkpt lat="44.49631" lon="1.88356">
        <ele>195.9</ele>
        <time>2015-10-31T10:28:38Z</time>
      </trkpt>
      <trkpt lat="44.49625" lon="1.88362">
        <ele>193.2</ele>
        <time>2015-10-31T10:28:39Z</time>
      </trkpt>
      <trkpt lat="44.49623" lon="1.88357">
        <ele>196.3</ele>
        <time>2015-10-31T10:28:40Z</time>
      </trkpt>
      <trkpt lat="44.49618" lon="1.88356">
        <ele>197.4</ele>
        <time>2015-10-31T10:28:41Z</time>
      </trkpt>
      <trkpt lat="44.49615" lon="1.88356">
        <ele>197.3</ele>
        <time>2015-10-31T10:28:42Z</time>
      </trkpt>
      <trkpt lat="44.49611" lon="1.88359">
        <ele>195.8</ele>
        <time>2015-10-31T10:28:43Z</time>
      </trkpt>
      <trkpt lat="44.49607" lon="1.88357">
        <ele>197.2</ele>
        <time>2015-10-31T10:28:44Z</time>
      </trkpt>
      <trkpt lat="44.49602" lon="1.88358">
        <ele>196.4</ele>
        <time>2015-10-31T10:28:45Z</time>
      </trkpt>
      <trkpt lat="44.49599" lon="1.88359">
        <ele>196.1</ele>
        <time>2015-10-31T10:28:46Z</time>
      </trkpt>
      <trkpt lat="44.49596" lon="1.88355">
        <ele>198.2</ele>
        <time>2015-10-31T10:28:47Z</time>
      </trkpt>
      <trkpt lat="44.4959" lon="1.88347">
        <ele>202.7</ele>
        <time>2015-10-31T10:28:48Z</time>
      </trkpt>
      <trkpt lat="44.49585" lon="1.88344">
        <ele>204.4</ele>
        <time>2015-10-31T10:28:49Z</time>
      </trkpt>
      <trkpt lat="44.49581" lon="1.88343">
        <ele>204.9</ele>
        <time>2015-10-31T10:28:50Z</time>
      </trkpt>
      <trkpt lat="44.49577" lon="1.88347">
        <ele>203.1</ele>
        <time>2015-10-31T10:28:51Z</time>
      </trkpt>
      <trkpt lat="44.49571" lon="1.88352">
        <ele>200.7</ele>
        <time>2015-10-31T10:28:52Z</time>
      </trkpt>
      <trkpt lat="44.49562" lon="1.88363">
        <ele>195.8</ele>
        <time>2015-10-31T10:28:53Z</time>
      </trkpt>
      <trkpt lat="44.49558" lon="1.88365">
        <ele>194.8</ele>
        <time>2015-10-31T10:28:54Z</time>
      </trkpt>
      <trkpt lat="44.49551" lon="1.88367">
        <ele>194.4</ele>
        <time>2015-10-31T10:28:55Z</time>
      </trkpt>
      <trkpt lat="44.49547" lon="1.88366">
        <ele>195.1</ele>
        <time>2015-10-31T10:28:56Z</time>
      </trkpt>
      <trkpt lat="44.49542" lon="1.88358">
        <ele>198.7</ele>
        <time>2015-10-31T10:28:57Z</time>
      </trkpt>
      <trkpt lat="44.49539" lon="1.88355">
        <ele>199.8</ele>
        <time>2015-10-31T10:28:58Z</time>
      </trkpt>
      <trkpt lat="44.49534" lon="1.88357">
        <ele>198.7</ele>
        <time>2015-10-31T10:28:59Z</time>
      </trkpt>
      <trkpt lat="44.49528" lon="1.88368">
        <ele>193.6</ele>
        <time>2015-10-31T10:29:00Z</time>
      </trkpt>
      <trkpt lat="44.49523" lon="1.88365">
        <ele>194.6</ele>
        <time>2015-10-31T10:29:01Z</time>
      </trkpt>
      <trkpt lat="44.49519" lon="1.88362">
        <ele>195.7</ele>
        <time>2015-10-31T10:29:02Z</time>
      </trkpt>
      <trkpt lat="44.49513" lon="1.88366">
        <ele>193.6</ele>
        <time>2015-10-31T10:29:03Z</time>
      </trkpt>
      <trkpt lat="44.49509" lon="1.8837">
        <ele>192.1</ele>
        <time>2015-10-31T10:29:04Z</time>
      </trkpt>
      <trkpt lat="44.49502" lon="1.8837">
        <ele>191.7</ele>
        <time>2015-10-31T10:29:05Z</time>
      </trkpt>
      <trkpt lat="44.49497" lon="1.88372">
        <ele>191.1</ele>
        <time>2015-10-31T10:29:06Z</time>
      </trkpt>
      <trkpt lat="44.49492" lon="1.88378">
        <ele>188.5</ele>
        <time>2015-10-31T10:29:07Z</time>
      </trkpt>
      <trkpt lat="44.49487" lon="1.8837">
        <ele>191.3</ele>
        <time>2015-10-31T10:29:08Z</time>
      </trkpt>
      <trkpt lat="44.49482" lon="1.88372">
        <ele>190.3</ele>
        <time>2015-10-31T10:29:09Z</time>
      </trkpt>
      <trkpt lat="44.49481" lon="1.8838">
        <ele>187.6</ele>
        <time>2015-10-31T10:29:10Z</time>
      </trkpt>
      <trkpt lat="44.49476" lon="1.88382">
        <ele>186.7</ele>
        <time>2015-10-31T10:29:11Z</time>
      </trkpt>
      <trkpt lat="44.49472" lon="1.88378">
        <ele>188.1</ele>
        <time>2015-10-31T10:29:12Z</time>
      </trkpt>
      <trkpt lat="44.49468" lon="1.88376">
        <ele>188.7</ele>
        <time>2015-10-31T10:29:13Z</time>
      </trkpt>
      <trkpt lat="44.49464" lon="1.88373">
        <ele>189.6</ele>
        <time>2015-10-31T10:29:14Z</time>
      </trkpt>
      <trkpt lat="44.49462" lon="1.8837">
        <ele>190.2</ele>
        <time>2015-10-31T10:29:15Z</time>
      </trkpt>
      <trkpt lat="44.49456" lon="1.88369">
        <ele>190</ele>
        <time>2015-10-31T10:29:16Z</time>
      </trkpt>
      <trkpt lat="44.49449" lon="1.88369">
        <ele>189</ele>
        <time>2015-10-31T10:29:17Z</time>
      </trkpt>
      <trkpt lat="44.49443" lon="1.88373">
        <ele>187.4</ele>
        <time>2015-10-31T10:29:18Z</time>
      </trkpt>
      <trkpt lat="44.49435" lon="1.8838">
        <ele>184.3</ele>
        <time>2015-10-31T10:29:19Z</time>
      </trkpt>
      <trkpt lat="44.49431" lon="1.88382">
        <ele>183.3</ele>
        <time>2015-10-31T10:29:20Z</time>
      </trkpt>
      <trkpt lat="44.49426" lon="1.88379">
        <ele>183.6</ele>
        <time>2015-10-31T10:29:21Z</time>
      </trkpt>
      <trkpt lat="44.49421" lon="1.88375">
        <ele>184.1</ele>
        <time>2015-10-31T10:29:22Z</time>
      </trkpt>
      <trkpt lat="44.49416" lon="1.88378">
        <ele>182.5</ele>
        <time>2015-10-31T10:29:23Z</time>
      </trkpt>
      <trkpt lat="44.49412" lon="1.88378">
        <ele>182</ele>
        <time>2015-10-31T10:29:24Z</time>
      </trkpt>
      <trkpt lat="44.49406" lon="1.88377">
        <ele>181.5</ele>
        <time>2015-10-31T10:29:25Z</time>
      </trkpt>
      <trkpt lat="44.49402" lon="1.88374">
        <ele>181.7</ele>
        <time>2015-10-31T10:29:26Z</time>
      </trkpt>
      <trkpt lat="44.49399" lon="1.88367">
        <ele>182</ele>
        <time>2015-10-31T10:29:27Z</time>
      </trkpt>
      <trkpt lat="44.49396" lon="1.88365">
        <ele>181.8</ele>
        <time>2015-10-31T10:29:28Z</time>
      </trkpt>
      <trkpt lat="44.49389" lon="1.88362">
        <ele>181.1</ele>
        <time>2015-10-31T10:29:29Z</time>
      </trkpt>
      <trkpt lat="44.49382" lon="1.88365">
        <ele>179.7</ele>
        <time>2015-10-31T10:29:30Z</time>
      </trkpt>
      <trkpt lat="44.49377" lon="1.88366">
        <ele>178.9</ele>
        <time>2015-10-31T10:29:31Z</time>
      </trkpt>
      <trkpt lat="44.49369" lon="1.8837">
        <ele>177.4</ele>
        <time>2015-10-31T10:29:32Z</time>
      </trkpt>
      <trkpt lat="44.49363" lon="1.88368">
        <ele>176.5</ele>
        <time>2015-10-31T10:29:34Z</time>
      </trkpt>
      <trkpt lat="44.49357" lon="1.88372">
        <ele>175.3</ele>
        <time>2015-10-31T10:29:35Z</time>
      </trkpt>
      <trkpt lat="44.49354" lon="1.88375">
        <ele>174.5</ele>
        <time>2015-10-31T10:29:36Z</time>
      </trkpt>
      <trkpt lat="44.4935" lon="1.88376">
        <ele>173.6</ele>
        <time>2015-10-31T10:29:37Z</time>
      </trkpt>
      <trkpt lat="44.49344" lon="1.88382">
        <ele>171.2</ele>
        <time>2015-10-31T10:29:38Z</time>
      </trkpt>
      <trkpt lat="44.49337" lon="1.88386">
        <ele>169.5</ele>
        <time>2015-10-31T10:29:39Z</time>
      </trkpt>
      <trkpt lat="44.49331" lon="1.88389">
        <ele>168</ele>
        <time>2015-10-31T10:29:40Z</time>
      </trkpt>
      <trkpt lat="44.49321" lon="1.88394">
        <ele>165.7</ele>
        <time>2015-10-31T10:29:42Z</time>
      </trkpt>
      <trkpt lat="44.49316" lon="1.88394">
        <ele>165</ele>
        <time>2015-10-31T10:29:43Z</time>
      </trkpt>
      <trkpt lat="44.4931" lon="1.88396">
        <ele>163.9</ele>
        <time>2015-10-31T10:29:44Z</time>
      </trkpt>
      <trkpt lat="44.49308" lon="1.88383">
        <ele>165.6</ele>
        <time>2015-10-31T10:29:45Z</time>
      </trkpt>
      <trkpt lat="44.49302" lon="1.88388">
        <ele>163.9</ele>
        <time>2015-10-31T10:29:46Z</time>
      </trkpt>
      <trkpt lat="44.49296" lon="1.88389">
        <ele>162.9</ele>
        <time>2015-10-31T10:29:47Z</time>
      </trkpt>
      <trkpt lat="44.49292" lon="1.88391">
        <ele>162.1</ele>
        <time>2015-10-31T10:29:48Z</time>
      </trkpt>
      <trkpt lat="44.49286" lon="1.88392">
        <ele>162.4</ele>
        <time>2015-10-31T10:29:49Z</time>
      </trkpt>
      <trkpt lat="44.49281" lon="1.8839">
        <ele>163</ele>
        <time>2015-10-31T10:29:50Z</time>
      </trkpt>
      <trkpt lat="44.49277" lon="1.8839">
        <ele>163.3</ele>
        <time>2015-10-31T10:29:51Z</time>
      </trkpt>
      <trkpt lat="44.49271" lon="1.88389">
        <ele>163.8</ele>
        <time>2015-10-31T10:29:52Z</time>
      </trkpt>
      <trkpt lat="44.49266" lon="1.88392">
        <ele>163.9</ele>
        <time>2015-10-31T10:29:53Z</time>
      </trkpt>
      <trkpt lat="44.49263" lon="1.88386">
        <ele>164.9</ele>
        <time>2015-10-31T10:29:54Z</time>
      </trkpt>
      <trkpt lat="44.49255" lon="1.88392">
        <ele>164.7</ele>
        <time>2015-10-31T10:29:55Z</time>
      </trkpt>
      <trkpt lat="44.4925" lon="1.88391">
        <ele>165.1</ele>
        <time>2015-10-31T10:29:56Z</time>
      </trkpt>
      <trkpt lat="44.49244" lon="1.88391">
        <ele>165.5</ele>
        <time>2015-10-31T10:29:57Z</time>
      </trkpt>
      <trkpt lat="44.49237" lon="1.88395">
        <ele>165.4</ele>
        <time>2015-10-31T10:29:58Z</time>
      </trkpt>
      <trkpt lat="44.49236" lon="1.88386">
        <ele>166.9</ele>
        <time>2015-10-31T10:29:59Z</time>
      </trkpt>
      <trkpt lat="44.49233" lon="1.88384">
        <ele>167.5</ele>
        <time>2015-10-31T10:30:00Z</time>
      </trkpt>
      <trkpt lat="44.4923" lon="1.8838">
        <ele>168.3</ele>
        <time>2015-10-31T10:30:01Z</time>
      </trkpt>
      <trkpt lat="44.49225" lon="1.88382">
        <ele>168.5</ele>
        <time>2015-10-31T10:30:02Z</time>
      </trkpt>
      <trkpt lat="44.49219" lon="1.88383">
        <ele>168.8</ele>
        <time>2015-10-31T10:30:03Z</time>
      </trkpt>
      <trkpt lat="44.49213" lon="1.88387">
        <ele>168.5</ele>
        <time>2015-10-31T10:30:04Z</time>
      </trkpt>
      <trkpt lat="44.49208" lon="1.88386">
        <ele>169</ele>
        <time>2015-10-31T10:30:05Z</time>
      </trkpt>
      <trkpt lat="44.49204" lon="1.88386">
        <ele>169.4</ele>
        <time>2015-10-31T10:30:06Z</time>
      </trkpt>
      <trkpt lat="44.492" lon="1.88387">
        <ele>169.3</ele>
        <time>2015-10-31T10:30:07Z</time>
      </trkpt>
      <trkpt lat="44.49198" lon="1.88384">
        <ele>170</ele>
        <time>2015-10-31T10:30:08Z</time>
      </trkpt>
      <trkpt lat="44.49195" lon="1.88379">
        <ele>171.1</ele>
        <time>2015-10-31T10:30:09Z</time>
      </trkpt>
      <trkpt lat="44.49184" lon="1.88379">
        <ele>171.8</ele>
        <time>2015-10-31T10:30:11Z</time>
      </trkpt>
      <trkpt lat="44.49177" lon="1.88383">
        <ele>171.5</ele>
        <time>2015-10-31T10:30:12Z</time>
      </trkpt>
      <trkpt lat="44.49172" lon="1.88389">
        <ele>170.8</ele>
        <time>2015-10-31T10:30:13Z</time>
      </trkpt>
      <trkpt lat="44.49168" lon="1.88387">
        <ele>171.4</ele>
        <time>2015-10-31T10:30:14Z</time>
      </trkpt>
      <trkpt lat="44.49164" lon="1.88389">
        <ele>171.1</ele>
        <time>2015-10-31T10:30:15Z</time>
      </trkpt>
      <trkpt lat="44.49159" lon="1.88385">
        <ele>172.2</ele>
        <time>2015-10-31T10:30:17Z</time>
      </trkpt>
      <trkpt lat="44.49157" lon="1.88388">
        <ele>171.8</ele>
        <time>2015-10-31T10:30:18Z</time>
      </trkpt>
      <trkpt lat="44.49152" lon="1.88386">
        <ele>172.4</ele>
        <time>2015-10-31T10:30:19Z</time>
      </trkpt>
      <trkpt lat="44.4914" lon="1.8839">
        <ele>172.6</ele>
        <time>2015-10-31T10:30:20Z</time>
      </trkpt>
      <trkpt lat="44.49133" lon="1.88387">
        <ele>173.5</ele>
        <time>2015-10-31T10:30:21Z</time>
      </trkpt>
      <trkpt lat="44.49127" lon="1.88391">
        <ele>173.1</ele>
        <time>2015-10-31T10:30:22Z</time>
      </trkpt>
      <trkpt lat="44.49123" lon="1.88393">
        <ele>173</ele>
        <time>2015-10-31T10:30:23Z</time>
      </trkpt>
      <trkpt lat="44.49119" lon="1.88394">
        <ele>172.7</ele>
        <time>2015-10-31T10:30:24Z</time>
      </trkpt>
      <trkpt lat="44.49117" lon="1.88397">
        <ele>172.2</ele>
        <time>2015-10-31T10:30:25Z</time>
      </trkpt>
      <trkpt lat="44.49109" lon="1.88403">
        <ele>171.1</ele>
        <time>2015-10-31T10:30:27Z</time>
      </trkpt>
      <trkpt lat="44.49103" lon="1.88404">
        <ele>170.8</ele>
        <time>2015-10-31T10:30:28Z</time>
      </trkpt>
      <trkpt lat="44.49097" lon="1.88408">
        <ele>170.1</ele>
        <time>2015-10-31T10:30:29Z</time>
      </trkpt>
      <trkpt lat="44.49093" lon="1.88401">
        <ele>171</ele>
        <time>2015-10-31T10:30:30Z</time>
      </trkpt>
      <trkpt lat="44.4909" lon="1.88407">
        <ele>170.2</ele>
        <time>2015-10-31T10:30:31Z</time>
      </trkpt>
      <trkpt lat="44.49081" lon="1.88407">
        <ele>170</ele>
        <time>2015-10-31T10:30:32Z</time>
      </trkpt>
      <trkpt lat="44.49077" lon="1.88408">
        <ele>169.9</ele>
        <time>2015-10-31T10:30:33Z</time>
      </trkpt>
      <trkpt lat="44.49068" lon="1.88409">
        <ele>169.6</ele>
        <time>2015-10-31T10:30:35Z</time>
      </trkpt>
      <trkpt lat="44.49065" lon="1.88408">
        <ele>169.8</ele>
        <time>2015-10-31T10:30:36Z</time>
      </trkpt>
      <trkpt lat="44.49062" lon="1.88407">
        <ele>169.8</ele>
        <time>2015-10-31T10:30:37Z</time>
      </trkpt>
      <trkpt lat="44.49056" lon="1.88406">
        <ele>169.8</ele>
        <time>2015-10-31T10:30:38Z</time>
      </trkpt>
      <trkpt lat="44.49049" lon="1.8841">
        <ele>169.3</ele>
        <time>2015-10-31T10:30:40Z</time>
      </trkpt>
      <trkpt lat="44.49046" lon="1.88414">
        <ele>168.8</ele>
        <time>2015-10-31T10:30:41Z</time>
      </trkpt>
      <trkpt lat="44.49039" lon="1.88418">
        <ele>168.2</ele>
        <time>2015-10-31T10:30:43Z</time>
      </trkpt>
      <trkpt lat="44.49036" lon="1.88419">
        <ele>167.9</ele>
        <time>2015-10-31T10:30:44Z</time>
      </trkpt>
      <trkpt lat="44.49033" lon="1.88419">
        <ele>167.6</ele>
        <time>2015-10-31T10:30:45Z</time>
      </trkpt>
      <trkpt lat="44.49029" lon="1.8842">
        <ele>167.3</ele>
        <time>2015-10-31T10:30:46Z</time>
      </trkpt>
      <trkpt lat="44.49025" lon="1.8842">
        <ele>167.1</ele>
        <time>2015-10-31T10:30:47Z</time>
      </trkpt>
      <trkpt lat="44.49022" lon="1.8842">
        <ele>166.9</ele>
        <time>2015-10-31T10:30:48Z</time>
      </trkpt>
      <trkpt lat="44.49018" lon="1.88419">
        <ele>166.7</ele>
        <time>2015-10-31T10:30:49Z</time>
      </trkpt>
      <trkpt lat="44.49014" lon="1.88419">
        <ele>166.4</ele>
        <time>2015-10-31T10:30:50Z</time>
      </trkpt>
      <trkpt lat="44.4901" lon="1.8842">
        <ele>166.1</ele>
        <time>2015-10-31T10:30:51Z</time>
      </trkpt>
      <trkpt lat="44.49005" lon="1.88421">
        <ele>165.7</ele>
        <time>2015-10-31T10:30:52Z</time>
      </trkpt>
      <trkpt lat="44.49001" lon="1.88423">
        <ele>165.4</ele>
        <time>2015-10-31T10:30:53Z</time>
      </trkpt>
      <trkpt lat="44.48997" lon="1.88424">
        <ele>165</ele>
        <time>2015-10-31T10:30:54Z</time>
      </trkpt>
      <trkpt lat="44.48993" lon="1.88425">
        <ele>164.7</ele>
        <time>2015-10-31T10:30:55Z</time>
      </trkpt>
      <trkpt lat="44.4899" lon="1.88427">
        <ele>164.3</ele>
        <time>2015-10-31T10:30:56Z</time>
      </trkpt>
      <trkpt lat="44.48986" lon="1.88428">
        <ele>164</ele>
        <time>2015-10-31T10:30:57Z</time>
      </trkpt>
      <trkpt lat="44.48982" lon="1.8843">
        <ele>163.7</ele>
        <time>2015-10-31T10:30:58Z</time>
      </trkpt>
      <trkpt lat="44.48978" lon="1.88431">
        <ele>163.4</ele>
        <time>2015-10-31T10:30:59Z</time>
      </trkpt>
      <trkpt lat="44.48973" lon="1.88434">
        <ele>162.9</ele>
        <time>2015-10-31T10:31:00Z</time>
      </trkpt>
      <trkpt lat="44.4897" lon="1.88434">
        <ele>162.8</ele>
        <time>2015-10-31T10:31:01Z</time>
      </trkpt>
      <trkpt lat="44.48965" lon="1.88436">
        <ele>162.4</ele>
        <time>2015-10-31T10:31:02Z</time>
      </trkpt>
      <trkpt lat="44.4896" lon="1.88436">
        <ele>162.1</ele>
        <time>2015-10-31T10:31:03Z</time>
      </trkpt>
      <trkpt lat="44.48955" lon="1.88437">
        <ele>161.7</ele>
        <time>2015-10-31T10:31:04Z</time>
      </trkpt>
      <trkpt lat="44.4895" lon="1.88438">
        <ele>161.3</ele>
        <time>2015-10-31T10:31:05Z</time>
      </trkpt>
      <trkpt lat="44.48945" lon="1.88438">
        <ele>160.8</ele>
        <time>2015-10-31T10:31:06Z</time>
      </trkpt>
      <trkpt lat="44.4894" lon="1.88434">
        <ele>160.6</ele>
        <time>2015-10-31T10:31:07Z</time>
      </trkpt>
      <trkpt lat="44.48935" lon="1.88433">
        <ele>160.2</ele>
        <time>2015-10-31T10:31:08Z</time>
      </trkpt>
      <trkpt lat="44.4893" lon="1.88431">
        <ele>159.9</ele>
        <time>2015-10-31T10:31:09Z</time>
      </trkpt>
      <trkpt lat="44.48924" lon="1.88433">
        <ele>159.3</ele>
        <time>2015-10-31T10:31:10Z</time>
      </trkpt>
      <trkpt lat="44.48918" lon="1.88434">
        <ele>158.8</ele>
        <time>2015-10-31T10:31:11Z</time>
      </trkpt>
      <trkpt lat="44.48913" lon="1.88432">
        <ele>158.5</ele>
        <time>2015-10-31T10:31:12Z</time>
      </trkpt>
      <trkpt lat="44.48907" lon="1.8843">
        <ele>158.1</ele>
        <time>2015-10-31T10:31:13Z</time>
      </trkpt>
      <trkpt lat="44.489" lon="1.88431">
        <ele>157.5</ele>
        <time>2015-10-31T10:31:14Z</time>
      </trkpt>
      <trkpt lat="44.48896" lon="1.8843">
        <ele>157.1</ele>
        <time>2015-10-31T10:31:15Z</time>
      </trkpt>
      <trkpt lat="44.4889" lon="1.88429">
        <ele>156.7</ele>
        <time>2015-10-31T10:31:16Z</time>
      </trkpt>
      <trkpt lat="44.48886" lon="1.88426">
        <ele>156.4</ele>
        <time>2015-10-31T10:31:17Z</time>
      </trkpt>
      <trkpt lat="44.4888" lon="1.88426">
        <ele>156</ele>
        <time>2015-10-31T10:31:18Z</time>
      </trkpt>
      <trkpt lat="44.48876" lon="1.88424">
        <ele>155.8</ele>
        <time>2015-10-31T10:31:19Z</time>
      </trkpt>
      <trkpt lat="44.48871" lon="1.88424">
        <ele>155.6</ele>
        <time>2015-10-31T10:31:20Z</time>
      </trkpt>
      <trkpt lat="44.48866" lon="1.88423">
        <ele>155.5</ele>
        <time>2015-10-31T10:31:21Z</time>
      </trkpt>
      <trkpt lat="44.4886" lon="1.88426">
        <ele>155.3</ele>
        <time>2015-10-31T10:31:22Z</time>
      </trkpt>
      <trkpt lat="44.48853" lon="1.88425">
        <ele>155.2</ele>
        <time>2015-10-31T10:31:24Z</time>
      </trkpt>
      <trkpt lat="44.48849" lon="1.88423">
        <ele>155.2</ele>
        <time>2015-10-31T10:31:25Z</time>
      </trkpt>
      <trkpt lat="44.48846" lon="1.88421">
        <ele>155.3</ele>
        <time>2015-10-31T10:31:26Z</time>
      </trkpt>
      <trkpt lat="44.4884" lon="1.88419">
        <ele>155.3</ele>
        <time>2015-10-31T10:31:27Z</time>
      </trkpt>
      <trkpt lat="44.48835" lon="1.88416">
        <ele>155.3</ele>
        <time>2015-10-31T10:31:28Z</time>
      </trkpt>
      <trkpt lat="44.48829" lon="1.88412">
        <ele>155.4</ele>
        <time>2015-10-31T10:31:29Z</time>
      </trkpt>
      <trkpt lat="44.48824" lon="1.88412">
        <ele>155.2</ele>
        <time>2015-10-31T10:31:30Z</time>
      </trkpt>
      <trkpt lat="44.48818" lon="1.8841">
        <ele>155.3</ele>
        <time>2015-10-31T10:31:31Z</time>
      </trkpt>
      <trkpt lat="44.48814" lon="1.88407">
        <ele>155.3</ele>
        <time>2015-10-31T10:31:32Z</time>
      </trkpt>
      <trkpt lat="44.4881" lon="1.88405">
        <ele>155.3</ele>
        <time>2015-10-31T10:31:33Z</time>
      </trkpt>
      <trkpt lat="44.48806" lon="1.88404">
        <ele>155.2</ele>
        <time>2015-10-31T10:31:34Z</time>
      </trkpt>
      <trkpt lat="44.488" lon="1.88403">
        <ele>155.2</ele>
        <time>2015-10-31T10:31:35Z</time>
      </trkpt>
      <trkpt lat="44.48794" lon="1.884">
        <ele>155.2</ele>
        <time>2015-10-31T10:31:36Z</time>
      </trkpt>
      <trkpt lat="44.48789" lon="1.88399">
        <ele>155.1</ele>
        <time>2015-10-31T10:31:37Z</time>
      </trkpt>
      <trkpt lat="44.48783" lon="1.88397">
        <ele>155</ele>
        <time>2015-10-31T10:31:38Z</time>
      </trkpt>
      <trkpt lat="44.48777" lon="1.88396">
        <ele>154.9</ele>
        <time>2015-10-31T10:31:39Z</time>
      </trkpt>
      <trkpt lat="44.48771" lon="1.88394">
        <ele>154.8</ele>
        <time>2015-10-31T10:31:40Z</time>
      </trkpt>
      <trkpt lat="44.48764" lon="1.88393">
        <ele>154.7</ele>
        <time>2015-10-31T10:31:41Z</time>
      </trkpt>
      <trkpt lat="44.48758" lon="1.8839">
        <ele>154.7</ele>
        <time>2015-10-31T10:31:42Z</time>
      </trkpt>
      <trkpt lat="44.48753" lon="1.8839">
        <ele>154.5</ele>
        <time>2015-10-31T10:31:43Z</time>
      </trkpt>
      <trkpt lat="44.48748" lon="1.88387">
        <ele>154.5</ele>
        <time>2015-10-31T10:31:44Z</time>
      </trkpt>
      <trkpt lat="44.48742" lon="1.88387">
        <ele>154.4</ele>
        <time>2015-10-31T10:31:45Z</time>
      </trkpt>
      <trkpt lat="44.48737" lon="1.88385">
        <ele>154.3</ele>
        <time>2015-10-31T10:31:46Z</time>
      </trkpt>
      <trkpt lat="44.48731" lon="1.88384">
        <ele>154.2</ele>
        <time>2015-10-31T10:31:47Z</time>
      </trkpt>
      <trkpt lat="44.48725" lon="1.88383">
        <ele>154.1</ele>
        <time>2015-10-31T10:31:48Z</time>
      </trkpt>
      <trkpt lat="44.48719" lon="1.88382">
        <ele>154</ele>
        <time>2015-10-31T10:31:49Z</time>
      </trkpt>
      <trkpt lat="44.48713" lon="1.88382">
        <ele>153.9</ele>
        <time>2015-10-31T10:31:50Z</time>
      </trkpt>
      <trkpt lat="44.48708" lon="1.88377">
        <ele>153.9</ele>
        <time>2015-10-31T10:31:51Z</time>
      </trkpt>
      <trkpt lat="44.48703" lon="1.88374">
        <ele>153.7</ele>
        <time>2015-10-31T10:31:52Z</time>
      </trkpt>
      <trkpt lat="44.48696" lon="1.8837">
        <ele>153.5</ele>
        <time>2015-10-31T10:31:53Z</time>
      </trkpt>
      <trkpt lat="44.48691" lon="1.88364">
        <ele>153.3</ele>
        <time>2015-10-31T10:31:54Z</time>
      </trkpt>
      <trkpt lat="44.48685" lon="1.8836">
        <ele>153.1</ele>
        <time>2015-10-31T10:31:55Z</time>
      </trkpt>
      <trkpt lat="44.48679" lon="1.88357">
        <ele>152.8</ele>
        <time>2015-10-31T10:31:56Z</time>
      </trkpt>
      <trkpt lat="44.48672" lon="1.88354">
        <ele>152.5</ele>
        <time>2015-10-31T10:31:57Z</time>
      </trkpt>
      <trkpt lat="44.48668" lon="1.8835">
        <ele>152.3</ele>
        <time>2015-10-31T10:31:58Z</time>
      </trkpt>
      <trkpt lat="44.48663" lon="1.88346">
        <ele>152.2</ele>
        <time>2015-10-31T10:31:59Z</time>
      </trkpt>
      <trkpt lat="44.48658" lon="1.88342">
        <ele>152</ele>
        <time>2015-10-31T10:32:00Z</time>
      </trkpt>
      <trkpt lat="44.48653" lon="1.88337">
        <ele>151.8</ele>
        <time>2015-10-31T10:32:01Z</time>
      </trkpt>
      <trkpt lat="44.48648" lon="1.88333">
        <ele>151.6</ele>
        <time>2015-10-31T10:32:02Z</time>
      </trkpt>
      <trkpt lat="44.48644" lon="1.88327">
        <ele>151.5</ele>
        <time>2015-10-31T10:32:03Z</time>
      </trkpt>
      <trkpt lat="44.48641" lon="1.88324">
        <ele>151.4</ele>
        <time>2015-10-31T10:32:04Z</time>
      </trkpt>
      <trkpt lat="44.48637" lon="1.88317">
        <ele>151.3</ele>
        <time>2015-10-31T10:32:05Z</time>
      </trkpt>
      <trkpt lat="44.48633" lon="1.88312">
        <ele>151.1</ele>
        <time>2015-10-31T10:32:06Z</time>
      </trkpt>
      <trkpt lat="44.48631" lon="1.88307">
        <ele>151.1</ele>
        <time>2015-10-31T10:32:07Z</time>
      </trkpt>
      <trkpt lat="44.48628" lon="1.88301">
        <ele>151</ele>
        <time>2015-10-31T10:32:08Z</time>
      </trkpt>
      <trkpt lat="44.48625" lon="1.88295">
        <ele>150.9</ele>
        <time>2015-10-31T10:32:09Z</time>
      </trkpt>
      <trkpt lat="44.48623" lon="1.88288">
        <ele>151</ele>
        <time>2015-10-31T10:32:10Z</time>
      </trkpt>
      <trkpt lat="44.48619" lon="1.8828">
        <ele>150.9</ele>
        <time>2015-10-31T10:32:11Z</time>
      </trkpt>
      <trkpt lat="44.48617" lon="1.88274">
        <ele>150.9</ele>
        <time>2015-10-31T10:32:12Z</time>
      </trkpt>
      <trkpt lat="44.48611" lon="1.88265">
        <ele>150.8</ele>
        <time>2015-10-31T10:32:13Z</time>
      </trkpt>
      <trkpt lat="44.48607" lon="1.88257">
        <ele>150.8</ele>
        <time>2015-10-31T10:32:14Z</time>
      </trkpt>
      <trkpt lat="44.48606" lon="1.88249">
        <ele>150.8</ele>
        <time>2015-10-31T10:32:15Z</time>
      </trkpt>
      <trkpt lat="44.486" lon="1.88241">
        <ele>150.7</ele>
        <time>2015-10-31T10:32:16Z</time>
      </trkpt>
      <trkpt lat="44.48601" lon="1.88237">
        <ele>150.8</ele>
        <time>2015-10-31T10:32:17Z</time>
      </trkpt>
      <trkpt lat="44.486" lon="1.88229">
        <ele>150.8</ele>
        <time>2015-10-31T10:32:18Z</time>
      </trkpt>
      <trkpt lat="44.486" lon="1.8822">
        <ele>151</ele>
        <time>2015-10-31T10:32:19Z</time>
      </trkpt>
      <trkpt lat="44.486" lon="1.88212">
        <ele>151</ele>
        <time>2015-10-31T10:32:20Z</time>
      </trkpt>
      <trkpt lat="44.48599" lon="1.88205">
        <ele>151.1</ele>
        <time>2015-10-31T10:32:21Z</time>
      </trkpt>
      <trkpt lat="44.48599" lon="1.88198">
        <ele>151.1</ele>
        <time>2015-10-31T10:32:22Z</time>
      </trkpt>
      <trkpt lat="44.48601" lon="1.8819">
        <ele>151.2</ele>
        <time>2015-10-31T10:32:23Z</time>
      </trkpt>
      <trkpt lat="44.48601" lon="1.88182">
        <ele>151.2</ele>
        <time>2015-10-31T10:32:24Z</time>
      </trkpt>
      <trkpt lat="44.48601" lon="1.88174">
        <ele>151.3</ele>
        <time>2015-10-31T10:32:25Z</time>
      </trkpt>
      <trkpt lat="44.48601" lon="1.88166">
        <ele>151.3</ele>
        <time>2015-10-31T10:32:26Z</time>
      </trkpt>
      <trkpt lat="44.48601" lon="1.88158">
        <ele>151.3</ele>
        <time>2015-10-31T10:32:27Z</time>
      </trkpt>
      <trkpt lat="44.48601" lon="1.8815">
        <ele>151.3</ele>
        <time>2015-10-31T10:32:28Z</time>
      </trkpt>
      <trkpt lat="44.48601" lon="1.88142">
        <ele>151.4</ele>
        <time>2015-10-31T10:32:29Z</time>
      </trkpt>
      <trkpt lat="44.48603" lon="1.88134">
        <ele>151.4</ele>
        <time>2015-10-31T10:32:30Z</time>
      </trkpt>
      <trkpt lat="44.48602" lon="1.88126">
        <ele>151.5</ele>
        <time>2015-10-31T10:32:31Z</time>
      </trkpt>
      <trkpt lat="44.48603" lon="1.88118">
        <ele>151.5</ele>
        <time>2015-10-31T10:32:32Z</time>
      </trkpt>
      <trkpt lat="44.48603" lon="1.88111">
        <ele>151.5</ele>
        <time>2015-10-31T10:32:33Z</time>
      </trkpt>
      <trkpt lat="44.48603" lon="1.88103">
        <ele>151.5</ele>
        <time>2015-10-31T10:32:34Z</time>
      </trkpt>
      <trkpt lat="44.48603" lon="1.88097">
        <ele>151.5</ele>
        <time>2015-10-31T10:32:35Z</time>
      </trkpt>
      <trkpt lat="44.48603" lon="1.88091">
        <ele>151.5</ele>
        <time>2015-10-31T10:32:36Z</time>
      </trkpt>
      <trkpt lat="44.48604" lon="1.88082">
        <ele>151.5</ele>
        <time>2015-10-31T10:32:37Z</time>
      </trkpt>
      <trkpt lat="44.48605" lon="1.88074">
        <ele>151.5</ele>
        <time>2015-10-31T10:32:38Z</time>
      </trkpt>
      <trkpt lat="44.48606" lon="1.88066">
        <ele>151.5</ele>
        <time>2015-10-31T10:32:39Z</time>
      </trkpt>
      <trkpt lat="44.48606" lon="1.88058">
        <ele>151.5</ele>
        <time>2015-10-31T10:32:40Z</time>
      </trkpt>
      <trkpt lat="44.48606" lon="1.88051">
        <ele>151.5</ele>
        <time>2015-10-31T10:32:41Z</time>
      </trkpt>
      <trkpt lat="44.48606" lon="1.88041">
        <ele>151.5</ele>
        <time>2015-10-31T10:32:42Z</time>
      </trkpt>
      <trkpt lat="44.48605" lon="1.88034">
        <ele>151.5</ele>
        <time>2015-10-31T10:32:43Z</time>
      </trkpt>
      <trkpt lat="44.48606" lon="1.88025">
        <ele>151.5</ele>
        <time>2015-10-31T10:32:44Z</time>
      </trkpt>
      <trkpt lat="44.48607" lon="1.88018">
        <ele>151.6</ele>
        <time>2015-10-31T10:32:45Z</time>
      </trkpt>
      <trkpt lat="44.48607" lon="1.8801">
        <ele>151.6</ele>
        <time>2015-10-31T10:32:46Z</time>
      </trkpt>
      <trkpt lat="44.48607" lon="1.88003">
        <ele>151.6</ele>
        <time>2015-10-31T10:32:47Z</time>
      </trkpt>
      <trkpt lat="44.48607" lon="1.87995">
        <ele>151.6</ele>
        <time>2015-10-31T10:32:48Z</time>
      </trkpt>
      <trkpt lat="44.48608" lon="1.87987">
        <ele>151.6</ele>
        <time>2015-10-31T10:32:49Z</time>
      </trkpt>
      <trkpt lat="44.48609" lon="1.87978">
        <ele>151.6</ele>
        <time>2015-10-31T10:32:50Z</time>
      </trkpt>
      <trkpt lat="44.48609" lon="1.8797">
        <ele>151.6</ele>
        <time>2015-10-31T10:32:51Z</time>
      </trkpt>
      <trkpt lat="44.48609" lon="1.87964">
        <ele>151.6</ele>
        <time>2015-10-31T10:32:52Z</time>
      </trkpt>
      <trkpt lat="44.48609" lon="1.87958">
        <ele>151.6</ele>
        <time>2015-10-31T10:32:53Z</time>
      </trkpt>
      <trkpt lat="44.4861" lon="1.87951">
        <ele>151.6</ele>
        <time>2015-10-31T10:32:54Z</time>
      </trkpt>
      <trkpt lat="44.4861" lon="1.87945">
        <ele>151.6</ele>
        <time>2015-10-31T10:32:55Z</time>
      </trkpt>
      <trkpt lat="44.4861" lon="1.87938">
        <ele>151.6</ele>
        <time>2015-10-31T10:32:56Z</time>
      </trkpt>
      <trkpt lat="44.4861" lon="1.8793">
        <ele>151.6</ele>
        <time>2015-10-31T10:32:57Z</time>
      </trkpt>
      <trkpt lat="44.4861" lon="1.87923">
        <ele>151.6</ele>
        <time>2015-10-31T10:32:58Z</time>
      </trkpt>
      <trkpt lat="44.48611" lon="1.87916">
        <ele>151.7</ele>
        <time>2015-10-31T10:32:59Z</time>
      </trkpt>
      <trkpt lat="44.48612" lon="1.87911">
        <ele>151.7</ele>
        <time>2015-10-31T10:33:00Z</time>
      </trkpt>
      <trkpt lat="44.48612" lon="1.87903">
        <ele>151.7</ele>
        <time>2015-10-31T10:33:01Z</time>
      </trkpt>
      <trkpt lat="44.48613" lon="1.87896">
        <ele>151.7</ele>
        <time>2015-10-31T10:33:02Z</time>
      </trkpt>
      <trkpt lat="44.48613" lon="1.87889">
        <ele>151.7</ele>
        <time>2015-10-31T10:33:03Z</time>
      </trkpt>
      <trkpt lat="44.48614" lon="1.87882">
        <ele>151.7</ele>
        <time>2015-10-31T10:33:04Z</time>
      </trkpt>
      <trkpt lat="44.48614" lon="1.87874">
        <ele>151.7</ele>
        <time>2015-10-31T10:33:05Z</time>
      </trkpt>
      <trkpt lat="44.48616" lon="1.87866">
        <ele>151.7</ele>
        <time>2015-10-31T10:33:06Z</time>
      </trkpt>
      <trkpt lat="44.48616" lon="1.87858">
        <ele>151.6</ele>
        <time>2015-10-31T10:33:07Z</time>
      </trkpt>
      <trkpt lat="44.48617" lon="1.8785">
        <ele>151.5</ele>
        <time>2015-10-31T10:33:08Z</time>
      </trkpt>
      <trkpt lat="44.48619" lon="1.87842">
        <ele>151.5</ele>
        <time>2015-10-31T10:33:09Z</time>
      </trkpt>
      <trkpt lat="44.48621" lon="1.87835">
        <ele>151.4</ele>
        <time>2015-10-31T10:33:10Z</time>
      </trkpt>
      <trkpt lat="44.48622" lon="1.87827">
        <ele>151.3</ele>
        <time>2015-10-31T10:33:11Z</time>
      </trkpt>
      <trkpt lat="44.48623" lon="1.8782">
        <ele>151.3</ele>
        <time>2015-10-31T10:33:12Z</time>
      </trkpt>
      <trkpt lat="44.48624" lon="1.87812">
        <ele>151.2</ele>
        <time>2015-10-31T10:33:13Z</time>
      </trkpt>
      <trkpt lat="44.48627" lon="1.87802">
        <ele>151.2</ele>
        <time>2015-10-31T10:33:14Z</time>
      </trkpt>
      <trkpt lat="44.48632" lon="1.87797">
        <ele>151.5</ele>
        <time>2015-10-31T10:33:15Z</time>
      </trkpt>
      <trkpt lat="44.48634" lon="1.87789">
        <ele>151.6</ele>
        <time>2015-10-31T10:33:16Z</time>
      </trkpt>
      <trkpt lat="44.48637" lon="1.87782">
        <ele>151.7</ele>
        <time>2015-10-31T10:33:17Z</time>
      </trkpt>
      <trkpt lat="44.48638" lon="1.87776">
        <ele>151.7</ele>
        <time>2015-10-31T10:33:18Z</time>
      </trkpt>
      <trkpt lat="44.48639" lon="1.87767">
        <ele>151.7</ele>
        <time>2015-10-31T10:33:19Z</time>
      </trkpt>
      <trkpt lat="44.4864" lon="1.87761">
        <ele>151.7</ele>
        <time>2015-10-31T10:33:20Z</time>
      </trkpt>
      <trkpt lat="44.48641" lon="1.87755">
        <ele>151.6</ele>
        <time>2015-10-31T10:33:21Z</time>
      </trkpt>
      <trkpt lat="44.48642" lon="1.87747">
        <ele>151.6</ele>
        <time>2015-10-31T10:33:22Z</time>
      </trkpt>
      <trkpt lat="44.48644" lon="1.87739">
        <ele>151.6</ele>
        <time>2015-10-31T10:33:23Z</time>
      </trkpt>
      <trkpt lat="44.48645" lon="1.87731">
        <ele>151.5</ele>
        <time>2015-10-31T10:33:24Z</time>
      </trkpt>
      <trkpt lat="44.48647" lon="1.87724">
        <ele>151.6</ele>
        <time>2015-10-31T10:33:25Z</time>
      </trkpt>
      <trkpt lat="44.48648" lon="1.87717">
        <ele>151.5</ele>
        <time>2015-10-31T10:33:26Z</time>
      </trkpt>
      <trkpt lat="44.4865" lon="1.8771">
        <ele>151.5</ele>
        <time>2015-10-31T10:33:27Z</time>
      </trkpt>
      <trkpt lat="44.48651" lon="1.87702">
        <ele>151.5</ele>
        <time>2015-10-31T10:33:28Z</time>
      </trkpt>
      <trkpt lat="44.48653" lon="1.87695">
        <ele>151.4</ele>
        <time>2015-10-31T10:33:29Z</time>
      </trkpt>
      <trkpt lat="44.48654" lon="1.87687">
        <ele>151.3</ele>
        <time>2015-10-31T10:33:30Z</time>
      </trkpt>
      <trkpt lat="44.48657" lon="1.8768">
        <ele>151.3</ele>
        <time>2015-10-31T10:33:31Z</time>
      </trkpt>
      <trkpt lat="44.48657" lon="1.87672">
        <ele>151.2</ele>
        <time>2015-10-31T10:33:32Z</time>
      </trkpt>
      <trkpt lat="44.48659" lon="1.87667">
        <ele>151.1</ele>
        <time>2015-10-31T10:33:33Z</time>
      </trkpt>
      <trkpt lat="44.4866" lon="1.87658">
        <ele>151</ele>
        <time>2015-10-31T10:33:34Z</time>
      </trkpt>
      <trkpt lat="44.48662" lon="1.87651">
        <ele>150.9</ele>
        <time>2015-10-31T10:33:35Z</time>
      </trkpt>
      <trkpt lat="44.48663" lon="1.87644">
        <ele>150.8</ele>
        <time>2015-10-31T10:33:36Z</time>
      </trkpt>
      <trkpt lat="44.48664" lon="1.87636">
        <ele>150.6</ele>
        <time>2015-10-31T10:33:37Z</time>
      </trkpt>
      <trkpt lat="44.48666" lon="1.87627">
        <ele>150.5</ele>
        <time>2015-10-31T10:33:38Z</time>
      </trkpt>
      <trkpt lat="44.48668" lon="1.87621">
        <ele>150.6</ele>
        <time>2015-10-31T10:33:39Z</time>
      </trkpt>
      <trkpt lat="44.48669" lon="1.87613">
        <ele>150.6</ele>
        <time>2015-10-31T10:33:40Z</time>
      </trkpt>
      <trkpt lat="44.48671" lon="1.87606">
        <ele>150.7</ele>
        <time>2015-10-31T10:33:41Z</time>
      </trkpt>
      <trkpt lat="44.48674" lon="1.87599">
        <ele>150.7</ele>
        <time>2015-10-31T10:33:42Z</time>
      </trkpt>
      <trkpt lat="44.48674" lon="1.87592">
        <ele>150.8</ele>
        <time>2015-10-31T10:33:43Z</time>
      </trkpt>
      <trkpt lat="44.48674" lon="1.87586">
        <ele>150.8</ele>
        <time>2015-10-31T10:33:44Z</time>
      </trkpt>
      <trkpt lat="44.48674" lon="1.8758">
        <ele>150.8</ele>
        <time>2015-10-31T10:33:45Z</time>
      </trkpt>
      <trkpt lat="44.48675" lon="1.87573">
        <ele>150.8</ele>
        <time>2015-10-31T10:33:46Z</time>
      </trkpt>
      <trkpt lat="44.48677" lon="1.87566">
        <ele>150.9</ele>
        <time>2015-10-31T10:33:47Z</time>
      </trkpt>
      <trkpt lat="44.48677" lon="1.87559">
        <ele>150.9</ele>
        <time>2015-10-31T10:33:48Z</time>
      </trkpt>
      <trkpt lat="44.48678" lon="1.8755">
        <ele>150.9</ele>
        <time>2015-10-31T10:33:49Z</time>
      </trkpt>
      <trkpt lat="44.4868" lon="1.87542">
        <ele>151</ele>
        <time>2015-10-31T10:33:50Z</time>
      </trkpt>
      <trkpt lat="44.48681" lon="1.87534">
        <ele>151.1</ele>
        <time>2015-10-31T10:33:51Z</time>
      </trkpt>
      <trkpt lat="44.48681" lon="1.87527">
        <ele>151.3</ele>
        <time>2015-10-31T10:33:52Z</time>
      </trkpt>
      <trkpt lat="44.48682" lon="1.8752">
        <ele>151.4</ele>
        <time>2015-10-31T10:33:53Z</time>
      </trkpt>
      <trkpt lat="44.48682" lon="1.87511">
        <ele>151.6</ele>
        <time>2015-10-31T10:33:54Z</time>
      </trkpt>
      <trkpt lat="44.48683" lon="1.87503">
        <ele>151.7</ele>
        <time>2015-10-31T10:33:55Z</time>
      </trkpt>
      <trkpt lat="44.48683" lon="1.87497">
        <ele>151.8</ele>
        <time>2015-10-31T10:33:56Z</time>
      </trkpt>
      <trkpt lat="44.48683" lon="1.87489">
        <ele>152</ele>
        <time>2015-10-31T10:33:57Z</time>
      </trkpt>
      <trkpt lat="44.48682" lon="1.87482">
        <ele>152.1</ele>
        <time>2015-10-31T10:33:58Z</time>
      </trkpt>
      <trkpt lat="44.48683" lon="1.87472">
        <ele>152.2</ele>
        <time>2015-10-31T10:33:59Z</time>
      </trkpt>
      <trkpt lat="44.48683" lon="1.87466">
        <ele>152.4</ele>
        <time>2015-10-31T10:34:00Z</time>
      </trkpt>
      <trkpt lat="44.48684" lon="1.87457">
        <ele>152.6</ele>
        <time>2015-10-31T10:34:01Z</time>
      </trkpt>
      <trkpt lat="44.48685" lon="1.8745">
        <ele>152.6</ele>
        <time>2015-10-31T10:34:02Z</time>
      </trkpt>
      <trkpt lat="44.48687" lon="1.87443">
        <ele>152.8</ele>
        <time>2015-10-31T10:34:03Z</time>
      </trkpt>
      <trkpt lat="44.48688" lon="1.87435">
        <ele>152.8</ele>
        <time>2015-10-31T10:34:04Z</time>
      </trkpt>
      <trkpt lat="44.48689" lon="1.87428">
        <ele>152.9</ele>
        <time>2015-10-31T10:34:05Z</time>
      </trkpt>
      <trkpt lat="44.4869" lon="1.87421">
        <ele>153</ele>
        <time>2015-10-31T10:34:06Z</time>
      </trkpt>
      <trkpt lat="44.4869" lon="1.87413">
        <ele>153</ele>
        <time>2015-10-31T10:34:07Z</time>
      </trkpt>
      <trkpt lat="44.48691" lon="1.87405">
        <ele>153.1</ele>
        <time>2015-10-31T10:34:08Z</time>
      </trkpt>
      <trkpt lat="44.48692" lon="1.87397">
        <ele>153.1</ele>
        <time>2015-10-31T10:34:09Z</time>
      </trkpt>
      <trkpt lat="44.48692" lon="1.87389">
        <ele>153.2</ele>
        <time>2015-10-31T10:34:10Z</time>
      </trkpt>
      <trkpt lat="44.48693" lon="1.8738">
        <ele>153.3</ele>
        <time>2015-10-31T10:34:11Z</time>
      </trkpt>
      <trkpt lat="44.48693" lon="1.87373">
        <ele>153.3</ele>
        <time>2015-10-31T10:34:12Z</time>
      </trkpt>
      <trkpt lat="44.48694" lon="1.87364">
        <ele>153.3</ele>
        <time>2015-10-31T10:34:13Z</time>
      </trkpt>
      <trkpt lat="44.48695" lon="1.87356">
        <ele>153.3</ele>
        <time>2015-10-31T10:34:14Z</time>
      </trkpt>
      <trkpt lat="44.48695" lon="1.87347">
        <ele>153.3</ele>
        <time>2015-10-31T10:34:15Z</time>
      </trkpt>
      <trkpt lat="44.48695" lon="1.8734">
        <ele>153.4</ele>
        <time>2015-10-31T10:34:16Z</time>
      </trkpt>
      <trkpt lat="44.48695" lon="1.87331">
        <ele>153.4</ele>
        <time>2015-10-31T10:34:17Z</time>
      </trkpt>
      <trkpt lat="44.48695" lon="1.87324">
        <ele>153.4</ele>
        <time>2015-10-31T10:34:18Z</time>
      </trkpt>
      <trkpt lat="44.48695" lon="1.87316">
        <ele>153.4</ele>
        <time>2015-10-31T10:34:19Z</time>
      </trkpt>
      <trkpt lat="44.48696" lon="1.87308">
        <ele>153.4</ele>
        <time>2015-10-31T10:34:20Z</time>
      </trkpt>
      <trkpt lat="44.48697" lon="1.873">
        <ele>153.5</ele>
        <time>2015-10-31T10:34:21Z</time>
      </trkpt>
      <trkpt lat="44.48697" lon="1.87292">
        <ele>153.5</ele>
        <time>2015-10-31T10:34:22Z</time>
      </trkpt>
      <trkpt lat="44.48698" lon="1.87285">
        <ele>153.5</ele>
        <time>2015-10-31T10:34:23Z</time>
      </trkpt>
      <trkpt lat="44.48699" lon="1.87278">
        <ele>153.5</ele>
        <time>2015-10-31T10:34:24Z</time>
      </trkpt>
      <trkpt lat="44.487" lon="1.87271">
        <ele>153.6</ele>
        <time>2015-10-31T10:34:25Z</time>
      </trkpt>
      <trkpt lat="44.48701" lon="1.87263">
        <ele>153.6</ele>
        <time>2015-10-31T10:34:26Z</time>
      </trkpt>
      <trkpt lat="44.48701" lon="1.87255">
        <ele>153.7</ele>
        <time>2015-10-31T10:34:27Z</time>
      </trkpt>
      <trkpt lat="44.48702" lon="1.87248">
        <ele>153.7</ele>
        <time>2015-10-31T10:34:28Z</time>
      </trkpt>
      <trkpt lat="44.48702" lon="1.8724">
        <ele>153.7</ele>
        <time>2015-10-31T10:34:29Z</time>
      </trkpt>
      <trkpt lat="44.48702" lon="1.87231">
        <ele>153.7</ele>
        <time>2015-10-31T10:34:30Z</time>
      </trkpt>
      <trkpt lat="44.48701" lon="1.87224">
        <ele>153.7</ele>
        <time>2015-10-31T10:34:31Z</time>
      </trkpt>
      <trkpt lat="44.48703" lon="1.87217">
        <ele>153.7</ele>
        <time>2015-10-31T10:34:32Z</time>
      </trkpt>
      <trkpt lat="44.48705" lon="1.8721">
        <ele>153.8</ele>
        <time>2015-10-31T10:34:33Z</time>
      </trkpt>
      <trkpt lat="44.48705" lon="1.87202">
        <ele>153.6</ele>
        <time>2015-10-31T10:34:34Z</time>
      </trkpt>
      <trkpt lat="44.48705" lon="1.87194">
        <ele>153.3</ele>
        <time>2015-10-31T10:34:35Z</time>
      </trkpt>
      <trkpt lat="44.48706" lon="1.87187">
        <ele>153.1</ele>
        <time>2015-10-31T10:34:36Z</time>
      </trkpt>
      <trkpt lat="44.48705" lon="1.8718">
        <ele>152.8</ele>
        <time>2015-10-31T10:34:37Z</time>
      </trkpt>
      <trkpt lat="44.48706" lon="1.87172">
        <ele>152.6</ele>
        <time>2015-10-31T10:34:38Z</time>
      </trkpt>
      <trkpt lat="44.48706" lon="1.87166">
        <ele>152.4</ele>
        <time>2015-10-31T10:34:39Z</time>
      </trkpt>
      <trkpt lat="44.48706" lon="1.8716">
        <ele>152.2</ele>
        <time>2015-10-31T10:34:40Z</time>
      </trkpt>
      <trkpt lat="44.48706" lon="1.87153">
        <ele>151.9</ele>
        <time>2015-10-31T10:34:41Z</time>
      </trkpt>
      <trkpt lat="44.48707" lon="1.87146">
        <ele>151.7</ele>
        <time>2015-10-31T10:34:42Z</time>
      </trkpt>
      <trkpt lat="44.48708" lon="1.87138">
        <ele>151.5</ele>
        <time>2015-10-31T10:34:43Z</time>
      </trkpt>
      <trkpt lat="44.48709" lon="1.87131">
        <ele>151.3</ele>
        <time>2015-10-31T10:34:44Z</time>
      </trkpt>
      <trkpt lat="44.4871" lon="1.87126">
        <ele>151.5</ele>
        <time>2015-10-31T10:34:45Z</time>
      </trkpt>
      <trkpt lat="44.48709" lon="1.87118">
        <ele>151.2</ele>
        <time>2015-10-31T10:34:46Z</time>
      </trkpt>
      <trkpt lat="44.48709" lon="1.87111">
        <ele>151.3</ele>
        <time>2015-10-31T10:34:47Z</time>
      </trkpt>
      <trkpt lat="44.4871" lon="1.87103">
        <ele>151.6</ele>
        <time>2015-10-31T10:34:48Z</time>
      </trkpt>
      <trkpt lat="44.48712" lon="1.87095">
        <ele>152.2</ele>
        <time>2015-10-31T10:34:49Z</time>
      </trkpt>
      <trkpt lat="44.48712" lon="1.87088">
        <ele>152.2</ele>
        <time>2015-10-31T10:34:50Z</time>
      </trkpt>
      <trkpt lat="44.48712" lon="1.87081">
        <ele>152.3</ele>
        <time>2015-10-31T10:34:51Z</time>
      </trkpt>
      <trkpt lat="44.48712" lon="1.87072">
        <ele>152.5</ele>
        <time>2015-10-31T10:34:52Z</time>
      </trkpt>
      <trkpt lat="44.48714" lon="1.87065">
        <ele>153</ele>
        <time>2015-10-31T10:34:53Z</time>
      </trkpt>
      <trkpt lat="44.48715" lon="1.8706">
        <ele>153.3</ele>
        <time>2015-10-31T10:34:54Z</time>
      </trkpt>
      <trkpt lat="44.48715" lon="1.87053">
        <ele>153.3</ele>
        <time>2015-10-31T10:34:55Z</time>
      </trkpt>
      <trkpt lat="44.48715" lon="1.87045">
        <ele>153.4</ele>
        <time>2015-10-31T10:34:56Z</time>
      </trkpt>
      <trkpt lat="44.48717" lon="1.87038">
        <ele>154</ele>
        <time>2015-10-31T10:34:57Z</time>
      </trkpt>
      <trkpt lat="44.48718" lon="1.87031">
        <ele>154.4</ele>
        <time>2015-10-31T10:34:58Z</time>
      </trkpt>
      <trkpt lat="44.48719" lon="1.87024">
        <ele>154.9</ele>
        <time>2015-10-31T10:34:59Z</time>
      </trkpt>
      <trkpt lat="44.48721" lon="1.87017">
        <ele>155.5</ele>
        <time>2015-10-31T10:35:00Z</time>
      </trkpt>
      <trkpt lat="44.48721" lon="1.87009">
        <ele>155.4</ele>
        <time>2015-10-31T10:35:01Z</time>
      </trkpt>
      <trkpt lat="44.4872" lon="1.87002">
        <ele>155.3</ele>
        <time>2015-10-31T10:35:02Z</time>
      </trkpt>
      <trkpt lat="44.48721" lon="1.86995">
        <ele>155.6</ele>
        <time>2015-10-31T10:35:03Z</time>
      </trkpt>
      <trkpt lat="44.48722" lon="1.86986">
        <ele>155.9</ele>
        <time>2015-10-31T10:35:04Z</time>
      </trkpt>
      <trkpt lat="44.48722" lon="1.86982">
        <ele>155.9</ele>
        <time>2015-10-31T10:35:05Z</time>
      </trkpt>
      <trkpt lat="44.48722" lon="1.86974">
        <ele>155.8</ele>
        <time>2015-10-31T10:35:06Z</time>
      </trkpt>
      <trkpt lat="44.48722" lon="1.86968">
        <ele>156</ele>
        <time>2015-10-31T10:35:07Z</time>
      </trkpt>
      <trkpt lat="44.48723" lon="1.8696">
        <ele>156.3</ele>
        <time>2015-10-31T10:35:08Z</time>
      </trkpt>
      <trkpt lat="44.48725" lon="1.86952">
        <ele>156.5</ele>
        <time>2015-10-31T10:35:09Z</time>
      </trkpt>
      <trkpt lat="44.48727" lon="1.86944">
        <ele>156.7</ele>
        <time>2015-10-31T10:35:10Z</time>
      </trkpt>
      <trkpt lat="44.48728" lon="1.86937">
        <ele>156.8</ele>
        <time>2015-10-31T10:35:11Z</time>
      </trkpt>
      <trkpt lat="44.48727" lon="1.86929">
        <ele>156.2</ele>
        <time>2015-10-31T10:35:12Z</time>
      </trkpt>
      <trkpt lat="44.48728" lon="1.86922">
        <ele>156.3</ele>
        <time>2015-10-31T10:35:13Z</time>
      </trkpt>
      <trkpt lat="44.48729" lon="1.86914">
        <ele>156.1</ele>
        <time>2015-10-31T10:35:14Z</time>
      </trkpt>
      <trkpt lat="44.4873" lon="1.86905">
        <ele>155.9</ele>
        <time>2015-10-31T10:35:15Z</time>
      </trkpt>
      <trkpt lat="44.4873" lon="1.86898">
        <ele>155.7</ele>
        <time>2015-10-31T10:35:16Z</time>
      </trkpt>
      <trkpt lat="44.48731" lon="1.8689">
        <ele>155.6</ele>
        <time>2015-10-31T10:35:17Z</time>
      </trkpt>
      <trkpt lat="44.48731" lon="1.86883">
        <ele>155.4</ele>
        <time>2015-10-31T10:35:18Z</time>
      </trkpt>
      <trkpt lat="44.48731" lon="1.86877">
        <ele>155.1</ele>
        <time>2015-10-31T10:35:19Z</time>
      </trkpt>
      <trkpt lat="44.48731" lon="1.8687">
        <ele>155</ele>
        <time>2015-10-31T10:35:20Z</time>
      </trkpt>
      <trkpt lat="44.48732" lon="1.86863">
        <ele>155.2</ele>
        <time>2015-10-31T10:35:21Z</time>
      </trkpt>
      <trkpt lat="44.48734" lon="1.86856">
        <ele>155.4</ele>
        <time>2015-10-31T10:35:22Z</time>
      </trkpt>
      <trkpt lat="44.48735" lon="1.86849">
        <ele>155.6</ele>
        <time>2015-10-31T10:35:23Z</time>
      </trkpt>
      <trkpt lat="44.48736" lon="1.86841">
        <ele>155.8</ele>
        <time>2015-10-31T10:35:24Z</time>
      </trkpt>
      <trkpt lat="44.48737" lon="1.86833">
        <ele>156.1</ele>
        <time>2015-10-31T10:35:25Z</time>
      </trkpt>
      <trkpt lat="44.48738" lon="1.86826">
        <ele>156.1</ele>
        <time>2015-10-31T10:35:26Z</time>
      </trkpt>
      <trkpt lat="44.48739" lon="1.8682">
        <ele>156.4</ele>
        <time>2015-10-31T10:35:27Z</time>
      </trkpt>
      <trkpt lat="44.4874" lon="1.86813">
        <ele>156.4</ele>
        <time>2015-10-31T10:35:28Z</time>
      </trkpt>
      <trkpt lat="44.48741" lon="1.86805">
        <ele>156.6</ele>
        <time>2015-10-31T10:35:29Z</time>
      </trkpt>
      <trkpt lat="44.48742" lon="1.86797">
        <ele>156.7</ele>
        <time>2015-10-31T10:35:30Z</time>
      </trkpt>
      <trkpt lat="44.48742" lon="1.86789">
        <ele>156.6</ele>
        <time>2015-10-31T10:35:31Z</time>
      </trkpt>
      <trkpt lat="44.48744" lon="1.86781">
        <ele>156.7</ele>
        <time>2015-10-31T10:35:32Z</time>
      </trkpt>
      <trkpt lat="44.48745" lon="1.86774">
        <ele>156.6</ele>
        <time>2015-10-31T10:35:33Z</time>
      </trkpt>
      <trkpt lat="44.48746" lon="1.86764">
        <ele>156.5</ele>
        <time>2015-10-31T10:35:34Z</time>
      </trkpt>
      <trkpt lat="44.48748" lon="1.86756">
        <ele>156.5</ele>
        <time>2015-10-31T10:35:35Z</time>
      </trkpt>
      <trkpt lat="44.48749" lon="1.86749">
        <ele>156.5</ele>
        <time>2015-10-31T10:35:36Z</time>
      </trkpt>
      <trkpt lat="44.4875" lon="1.86741">
        <ele>156.4</ele>
        <time>2015-10-31T10:35:37Z</time>
      </trkpt>
      <trkpt lat="44.48752" lon="1.86733">
        <ele>156.4</ele>
        <time>2015-10-31T10:35:38Z</time>
      </trkpt>
      <trkpt lat="44.48752" lon="1.86726">
        <ele>156.2</ele>
        <time>2015-10-31T10:35:39Z</time>
      </trkpt>
      <trkpt lat="44.48753" lon="1.86718">
        <ele>155.9</ele>
        <time>2015-10-31T10:35:40Z</time>
      </trkpt>
      <trkpt lat="44.48754" lon="1.86711">
        <ele>155.8</ele>
        <time>2015-10-31T10:35:41Z</time>
      </trkpt>
      <trkpt lat="44.48755" lon="1.86702">
        <ele>155.8</ele>
        <time>2015-10-31T10:35:42Z</time>
      </trkpt>
      <trkpt lat="44.48756" lon="1.86695">
        <ele>155.8</ele>
        <time>2015-10-31T10:35:43Z</time>
      </trkpt>
      <trkpt lat="44.48757" lon="1.86688">
        <ele>155.9</ele>
        <time>2015-10-31T10:35:44Z</time>
      </trkpt>
      <trkpt lat="44.48759" lon="1.86681">
        <ele>156</ele>
        <time>2015-10-31T10:35:45Z</time>
      </trkpt>
      <trkpt lat="44.4876" lon="1.86672">
        <ele>156.1</ele>
        <time>2015-10-31T10:35:46Z</time>
      </trkpt>
      <trkpt lat="44.48762" lon="1.86665">
        <ele>156.1</ele>
        <time>2015-10-31T10:35:47Z</time>
      </trkpt>
      <trkpt lat="44.48764" lon="1.86657">
        <ele>156.2</ele>
        <time>2015-10-31T10:35:48Z</time>
      </trkpt>
      <trkpt lat="44.48766" lon="1.86651">
        <ele>156.4</ele>
        <time>2015-10-31T10:35:49Z</time>
      </trkpt>
      <trkpt lat="44.48768" lon="1.86642">
        <ele>156.4</ele>
        <time>2015-10-31T10:35:50Z</time>
      </trkpt>
      <trkpt lat="44.4877" lon="1.86635">
        <ele>156.4</ele>
        <time>2015-10-31T10:35:51Z</time>
      </trkpt>
      <trkpt lat="44.48771" lon="1.86628">
        <ele>156.4</ele>
        <time>2015-10-31T10:35:52Z</time>
      </trkpt>
      <trkpt lat="44.48772" lon="1.86621">
        <ele>156.3</ele>
        <time>2015-10-31T10:35:53Z</time>
      </trkpt>
      <trkpt lat="44.48774" lon="1.86613">
        <ele>156.3</ele>
        <time>2015-10-31T10:35:54Z</time>
      </trkpt>
      <trkpt lat="44.48775" lon="1.86605">
        <ele>156.2</ele>
        <time>2015-10-31T10:35:55Z</time>
      </trkpt>
      <trkpt lat="44.48776" lon="1.86596">
        <ele>156</ele>
        <time>2015-10-31T10:35:56Z</time>
      </trkpt>
      <trkpt lat="44.48777" lon="1.86588">
        <ele>155.9</ele>
        <time>2015-10-31T10:35:57Z</time>
      </trkpt>
      <trkpt lat="44.48778" lon="1.86581">
        <ele>155.8</ele>
        <time>2015-10-31T10:35:58Z</time>
      </trkpt>
      <trkpt lat="44.48779" lon="1.86573">
        <ele>155.6</ele>
        <time>2015-10-31T10:35:59Z</time>
      </trkpt>
      <trkpt lat="44.48778" lon="1.86564">
        <ele>155.3</ele>
        <time>2015-10-31T10:36:00Z</time>
      </trkpt>
      <trkpt lat="44.48778" lon="1.86558">
        <ele>155</ele>
        <time>2015-10-31T10:36:01Z</time>
      </trkpt>
      <trkpt lat="44.48778" lon="1.86549">
        <ele>154.7</ele>
        <time>2015-10-31T10:36:02Z</time>
      </trkpt>
      <trkpt lat="44.48778" lon="1.8654">
        <ele>154.5</ele>
        <time>2015-10-31T10:36:03Z</time>
      </trkpt>
      <trkpt lat="44.48779" lon="1.86532">
        <ele>154.5</ele>
        <time>2015-10-31T10:36:04Z</time>
      </trkpt>
      <trkpt lat="44.4878" lon="1.86524">
        <ele>154.5</ele>
        <time>2015-10-31T10:36:05Z</time>
      </trkpt>
      <trkpt lat="44.48778" lon="1.86516">
        <ele>154.4</ele>
        <time>2015-10-31T10:36:06Z</time>
      </trkpt>
      <trkpt lat="44.48779" lon="1.86508">
        <ele>154.4</ele>
        <time>2015-10-31T10:36:07Z</time>
      </trkpt>
      <trkpt lat="44.4878" lon="1.86499">
        <ele>154.4</ele>
        <time>2015-10-31T10:36:08Z</time>
      </trkpt>
      <trkpt lat="44.48781" lon="1.86491">
        <ele>154.4</ele>
        <time>2015-10-31T10:36:09Z</time>
      </trkpt>
      <trkpt lat="44.48782" lon="1.86483">
        <ele>154.4</ele>
        <time>2015-10-31T10:36:10Z</time>
      </trkpt>
      <trkpt lat="44.48782" lon="1.86476">
        <ele>154.4</ele>
        <time>2015-10-31T10:36:11Z</time>
      </trkpt>
      <trkpt lat="44.48784" lon="1.86468">
        <ele>154.4</ele>
        <time>2015-10-31T10:36:12Z</time>
      </trkpt>
      <trkpt lat="44.48784" lon="1.8646">
        <ele>154.4</ele>
        <time>2015-10-31T10:36:13Z</time>
      </trkpt>
      <trkpt lat="44.48782" lon="1.86452">
        <ele>154.1</ele>
        <time>2015-10-31T10:36:14Z</time>
      </trkpt>
      <trkpt lat="44.48783" lon="1.86444">
        <ele>153.7</ele>
        <time>2015-10-31T10:36:15Z</time>
      </trkpt>
      <trkpt lat="44.48784" lon="1.86435">
        <ele>153.4</ele>
        <time>2015-10-31T10:36:16Z</time>
      </trkpt>
      <trkpt lat="44.48785" lon="1.86425">
        <ele>153.1</ele>
        <time>2015-10-31T10:36:17Z</time>
      </trkpt>
      <trkpt lat="44.48784" lon="1.86417">
        <ele>152.7</ele>
        <time>2015-10-31T10:36:18Z</time>
      </trkpt>
      <trkpt lat="44.48784" lon="1.86408">
        <ele>152.3</ele>
        <time>2015-10-31T10:36:19Z</time>
      </trkpt>
      <trkpt lat="44.48785" lon="1.86399">
        <ele>152</ele>
        <time>2015-10-31T10:36:20Z</time>
      </trkpt>
      <trkpt lat="44.48786" lon="1.86391">
        <ele>151.6</ele>
        <time>2015-10-31T10:36:21Z</time>
      </trkpt>
      <trkpt lat="44.48786" lon="1.86383">
        <ele>151.3</ele>
        <time>2015-10-31T10:36:22Z</time>
      </trkpt>
      <trkpt lat="44.48786" lon="1.86374">
        <ele>150.9</ele>
        <time>2015-10-31T10:36:23Z</time>
      </trkpt>
      <trkpt lat="44.48787" lon="1.86366">
        <ele>150.5</ele>
        <time>2015-10-31T10:36:24Z</time>
      </trkpt>
      <trkpt lat="44.48788" lon="1.86357">
        <ele>150.1</ele>
        <time>2015-10-31T10:36:25Z</time>
      </trkpt>
      <trkpt lat="44.4879" lon="1.86349">
        <ele>149.8</ele>
        <time>2015-10-31T10:36:26Z</time>
      </trkpt>
      <trkpt lat="44.48789" lon="1.8634">
        <ele>149.4</ele>
        <time>2015-10-31T10:36:27Z</time>
      </trkpt>
      <trkpt lat="44.48792" lon="1.86332">
        <ele>148.9</ele>
        <time>2015-10-31T10:36:28Z</time>
      </trkpt>
      <trkpt lat="44.48792" lon="1.86324">
        <ele>148.7</ele>
        <time>2015-10-31T10:36:29Z</time>
      </trkpt>
      <trkpt lat="44.48794" lon="1.86315">
        <ele>148.8</ele>
        <time>2015-10-31T10:36:30Z</time>
      </trkpt>
      <trkpt lat="44.48795" lon="1.86307">
        <ele>148.7</ele>
        <time>2015-10-31T10:36:31Z</time>
      </trkpt>
      <trkpt lat="44.48797" lon="1.86297">
        <ele>148.5</ele>
        <time>2015-10-31T10:36:32Z</time>
      </trkpt>
      <trkpt lat="44.48799" lon="1.86288">
        <ele>148.8</ele>
        <time>2015-10-31T10:36:33Z</time>
      </trkpt>
      <trkpt lat="44.488" lon="1.8628">
        <ele>149</ele>
        <time>2015-10-31T10:36:34Z</time>
      </trkpt>
      <trkpt lat="44.48801" lon="1.8627">
        <ele>149.2</ele>
        <time>2015-10-31T10:36:35Z</time>
      </trkpt>
      <trkpt lat="44.48803" lon="1.86262">
        <ele>149.5</ele>
        <time>2015-10-31T10:36:36Z</time>
      </trkpt>
      <trkpt lat="44.48804" lon="1.86253">
        <ele>149.7</ele>
        <time>2015-10-31T10:36:37Z</time>
      </trkpt>
      <trkpt lat="44.48806" lon="1.86246">
        <ele>150.1</ele>
        <time>2015-10-31T10:36:38Z</time>
      </trkpt>
      <trkpt lat="44.48807" lon="1.86238">
        <ele>150.1</ele>
        <time>2015-10-31T10:36:39Z</time>
      </trkpt>
      <trkpt lat="44.48808" lon="1.8623">
        <ele>150.2</ele>
        <time>2015-10-31T10:36:40Z</time>
      </trkpt>
      <trkpt lat="44.48809" lon="1.86222">
        <ele>150.2</ele>
        <time>2015-10-31T10:36:41Z</time>
      </trkpt>
      <trkpt lat="44.4881" lon="1.86213">
        <ele>150.3</ele>
        <time>2015-10-31T10:36:42Z</time>
      </trkpt>
      <trkpt lat="44.48809" lon="1.86204">
        <ele>150.5</ele>
        <time>2015-10-31T10:36:43Z</time>
      </trkpt>
      <trkpt lat="44.48808" lon="1.86195">
        <ele>151</ele>
        <time>2015-10-31T10:36:44Z</time>
      </trkpt>
      <trkpt lat="44.48809" lon="1.86187">
        <ele>151.7</ele>
        <time>2015-10-31T10:36:45Z</time>
      </trkpt>
      <trkpt lat="44.4881" lon="1.86179">
        <ele>152.5</ele>
        <time>2015-10-31T10:36:46Z</time>
      </trkpt>
      <trkpt lat="44.4881" lon="1.86171">
        <ele>153.3</ele>
        <time>2015-10-31T10:36:47Z</time>
      </trkpt>
      <trkpt lat="44.48811" lon="1.86163">
        <ele>154</ele>
        <time>2015-10-31T10:36:48Z</time>
      </trkpt>
      <trkpt lat="44.48809" lon="1.86155">
        <ele>154.2</ele>
        <time>2015-10-31T10:36:49Z</time>
      </trkpt>
      <trkpt lat="44.4881" lon="1.86147">
        <ele>155</ele>
        <time>2015-10-31T10:36:50Z</time>
      </trkpt>
      <trkpt lat="44.48811" lon="1.8614">
        <ele>155.9</ele>
        <time>2015-10-31T10:36:51Z</time>
      </trkpt>
      <trkpt lat="44.4881" lon="1.86131">
        <ele>156.3</ele>
        <time>2015-10-31T10:36:52Z</time>
      </trkpt>
      <trkpt lat="44.48809" lon="1.86123">
        <ele>156.7</ele>
        <time>2015-10-31T10:36:53Z</time>
      </trkpt>
      <trkpt lat="44.48809" lon="1.86116">
        <ele>156.9</ele>
        <time>2015-10-31T10:36:54Z</time>
      </trkpt>
      <trkpt lat="44.48809" lon="1.86108">
        <ele>157.3</ele>
        <time>2015-10-31T10:36:55Z</time>
      </trkpt>
      <trkpt lat="44.48809" lon="1.861">
        <ele>157.8</ele>
        <time>2015-10-31T10:36:56Z</time>
      </trkpt>
      <trkpt lat="44.48808" lon="1.86091">
        <ele>158</ele>
        <time>2015-10-31T10:36:57Z</time>
      </trkpt>
      <trkpt lat="44.48808" lon="1.86082">
        <ele>158.3</ele>
        <time>2015-10-31T10:36:58Z</time>
      </trkpt>
      <trkpt lat="44.48807" lon="1.86076">
        <ele>158.1</ele>
        <time>2015-10-31T10:36:59Z</time>
      </trkpt>
      <trkpt lat="44.48807" lon="1.86068">
        <ele>158.4</ele>
        <time>2015-10-31T10:37:00Z</time>
      </trkpt>
      <trkpt lat="44.48804" lon="1.86058">
        <ele>157.8</ele>
        <time>2015-10-31T10:37:01Z</time>
      </trkpt>
      <trkpt lat="44.48795" lon="1.86052">
        <ele>154.3</ele>
        <time>2015-10-31T10:37:02Z</time>
      </trkpt>
      <trkpt lat="44.48793" lon="1.86046">
        <ele>153.6</ele>
        <time>2015-10-31T10:37:03Z</time>
      </trkpt>
      <trkpt lat="44.48794" lon="1.86037">
        <ele>154.4</ele>
        <time>2015-10-31T10:37:04Z</time>
      </trkpt>
      <trkpt lat="44.48795" lon="1.86027">
        <ele>155.2</ele>
        <time>2015-10-31T10:37:05Z</time>
      </trkpt>
      <trkpt lat="44.48794" lon="1.86018">
        <ele>155.2</ele>
        <time>2015-10-31T10:37:06Z</time>
      </trkpt>
      <trkpt lat="44.48794" lon="1.86009">
        <ele>155.7</ele>
        <time>2015-10-31T10:37:07Z</time>
      </trkpt>
      <trkpt lat="44.48795" lon="1.86002">
        <ele>156.5</ele>
        <time>2015-10-31T10:37:08Z</time>
      </trkpt>
      <trkpt lat="44.48794" lon="1.85992">
        <ele>156.7</ele>
        <time>2015-10-31T10:37:09Z</time>
      </trkpt>
      <trkpt lat="44.48795" lon="1.85983">
        <ele>157.3</ele>
        <time>2015-10-31T10:37:10Z</time>
      </trkpt>
      <trkpt lat="44.48794" lon="1.85974">
        <ele>157.3</ele>
        <time>2015-10-31T10:37:11Z</time>
      </trkpt>
      <trkpt lat="44.48796" lon="1.85966">
        <ele>158.8</ele>
        <time>2015-10-31T10:37:12Z</time>
      </trkpt>
      <trkpt lat="44.48795" lon="1.85957">
        <ele>158.8</ele>
        <time>2015-10-31T10:37:13Z</time>
      </trkpt>
      <trkpt lat="44.48794" lon="1.85949">
        <ele>158.9</ele>
        <time>2015-10-31T10:37:14Z</time>
      </trkpt>
      <trkpt lat="44.48793" lon="1.85941">
        <ele>159.2</ele>
        <time>2015-10-31T10:37:15Z</time>
      </trkpt>
      <trkpt lat="44.48793" lon="1.85934">
        <ele>160.2</ele>
        <time>2015-10-31T10:37:16Z</time>
      </trkpt>
      <trkpt lat="44.48792" lon="1.85925">
        <ele>160.5</ele>
        <time>2015-10-31T10:37:17Z</time>
      </trkpt>
      <trkpt lat="44.48791" lon="1.85917">
        <ele>160.9</ele>
        <time>2015-10-31T10:37:18Z</time>
      </trkpt>
      <trkpt lat="44.4879" lon="1.85908">
        <ele>161.6</ele>
        <time>2015-10-31T10:37:19Z</time>
      </trkpt>
      <trkpt lat="44.48788" lon="1.859">
        <ele>162.2</ele>
        <time>2015-10-31T10:37:20Z</time>
      </trkpt>
      <trkpt lat="44.48785" lon="1.85891">
        <ele>162.6</ele>
        <time>2015-10-31T10:37:21Z</time>
      </trkpt>
      <trkpt lat="44.48783" lon="1.85882">
        <ele>163.1</ele>
        <time>2015-10-31T10:37:22Z</time>
      </trkpt>
      <trkpt lat="44.48781" lon="1.85874">
        <ele>163.5</ele>
        <time>2015-10-31T10:37:23Z</time>
      </trkpt>
      <trkpt lat="44.48779" lon="1.85866">
        <ele>163.9</ele>
        <time>2015-10-31T10:37:24Z</time>
      </trkpt>
      <trkpt lat="44.48777" lon="1.85858">
        <ele>164.4</ele>
        <time>2015-10-31T10:37:25Z</time>
      </trkpt>
      <trkpt lat="44.48773" lon="1.85849">
        <ele>164.5</ele>
        <time>2015-10-31T10:37:26Z</time>
      </trkpt>
      <trkpt lat="44.4877" lon="1.85841">
        <ele>164.6</ele>
        <time>2015-10-31T10:37:27Z</time>
      </trkpt>
      <trkpt lat="44.48765" lon="1.85832">
        <ele>164.4</ele>
        <time>2015-10-31T10:37:28Z</time>
      </trkpt>
      <trkpt lat="44.48762" lon="1.85823">
        <ele>164.3</ele>
        <time>2015-10-31T10:37:29Z</time>
      </trkpt>
      <trkpt lat="44.48758" lon="1.85814">
        <ele>164.1</ele>
        <time>2015-10-31T10:37:30Z</time>
      </trkpt>
      <trkpt lat="44.48757" lon="1.85806">
        <ele>164.3</ele>
        <time>2015-10-31T10:37:31Z</time>
      </trkpt>
      <trkpt lat="44.48753" lon="1.85798">
        <ele>163.9</ele>
        <time>2015-10-31T10:37:32Z</time>
      </trkpt>
      <trkpt lat="44.4875" lon="1.8579">
        <ele>163.7</ele>
        <time>2015-10-31T10:37:33Z</time>
      </trkpt>
      <trkpt lat="44.48746" lon="1.85782">
        <ele>163.4</ele>
        <time>2015-10-31T10:37:34Z</time>
      </trkpt>
      <trkpt lat="44.48743" lon="1.85774">
        <ele>163.3</ele>
        <time>2015-10-31T10:37:35Z</time>
      </trkpt>
      <trkpt lat="44.48741" lon="1.85766">
        <ele>163.5</ele>
        <time>2015-10-31T10:37:36Z</time>
      </trkpt>
      <trkpt lat="44.48739" lon="1.85758">
        <ele>163.6</ele>
        <time>2015-10-31T10:37:37Z</time>
      </trkpt>
      <trkpt lat="44.48735" lon="1.85749">
        <ele>163</ele>
        <time>2015-10-31T10:37:38Z</time>
      </trkpt>
      <trkpt lat="44.48731" lon="1.8574">
        <ele>162.4</ele>
        <time>2015-10-31T10:37:39Z</time>
      </trkpt>
      <trkpt lat="44.48729" lon="1.85729">
        <ele>162.8</ele>
        <time>2015-10-31T10:37:40Z</time>
      </trkpt>
      <trkpt lat="44.48727" lon="1.8572">
        <ele>162.6</ele>
        <time>2015-10-31T10:37:41Z</time>
      </trkpt>
      <trkpt lat="44.48723" lon="1.85712">
        <ele>161.9</ele>
        <time>2015-10-31T10:37:42Z</time>
      </trkpt>
      <trkpt lat="44.48721" lon="1.85702">
        <ele>161.9</ele>
        <time>2015-10-31T10:37:43Z</time>
      </trkpt>
      <trkpt lat="44.48718" lon="1.85694">
        <ele>161.5</ele>
        <time>2015-10-31T10:37:44Z</time>
      </trkpt>
      <trkpt lat="44.48717" lon="1.85685">
        <ele>161.6</ele>
        <time>2015-10-31T10:37:45Z</time>
      </trkpt>
      <trkpt lat="44.48715" lon="1.85675">
        <ele>161.6</ele>
        <time>2015-10-31T10:37:46Z</time>
      </trkpt>
      <trkpt lat="44.48709" lon="1.85666">
        <ele>160.4</ele>
        <time>2015-10-31T10:37:47Z</time>
      </trkpt>
      <trkpt lat="44.48708" lon="1.85657">
        <ele>160.6</ele>
        <time>2015-10-31T10:37:48Z</time>
      </trkpt>
      <trkpt lat="44.48705" lon="1.85647">
        <ele>160.9</ele>
        <time>2015-10-31T10:37:49Z</time>
      </trkpt>
      <trkpt lat="44.48702" lon="1.85638">
        <ele>161.1</ele>
        <time>2015-10-31T10:37:50Z</time>
      </trkpt>
      <trkpt lat="44.48699" lon="1.85628">
        <ele>161.1</ele>
        <time>2015-10-31T10:37:51Z</time>
      </trkpt>
      <trkpt lat="44.48694" lon="1.8562">
        <ele>160.4</ele>
        <time>2015-10-31T10:37:52Z</time>
      </trkpt>
      <trkpt lat="44.4869" lon="1.8561">
        <ele>160</ele>
        <time>2015-10-31T10:37:53Z</time>
      </trkpt>
      <trkpt lat="44.48688" lon="1.85601">
        <ele>159.7</ele>
        <time>2015-10-31T10:37:54Z</time>
      </trkpt>
      <trkpt lat="44.48686" lon="1.85594">
        <ele>159.4</ele>
        <time>2015-10-31T10:37:55Z</time>
      </trkpt>
      <trkpt lat="44.48685" lon="1.85584">
        <ele>159.4</ele>
        <time>2015-10-31T10:37:56Z</time>
      </trkpt>
      <trkpt lat="44.48683" lon="1.85575">
        <ele>159.2</ele>
        <time>2015-10-31T10:37:57Z</time>
      </trkpt>
      <trkpt lat="44.48682" lon="1.85567">
        <ele>159.2</ele>
        <time>2015-10-31T10:37:58Z</time>
      </trkpt>
      <trkpt lat="44.48682" lon="1.85558">
        <ele>159.3</ele>
        <time>2015-10-31T10:37:59Z</time>
      </trkpt>
      <trkpt lat="44.48681" lon="1.8555">
        <ele>159.2</ele>
        <time>2015-10-31T10:38:00Z</time>
      </trkpt>
      <trkpt lat="44.48674" lon="1.85541">
        <ele>158.3</ele>
        <time>2015-10-31T10:38:01Z</time>
      </trkpt>
      <trkpt lat="44.48675" lon="1.85533">
        <ele>159</ele>
        <time>2015-10-31T10:38:02Z</time>
      </trkpt>
      <trkpt lat="44.48674" lon="1.85526">
        <ele>159.4</ele>
        <time>2015-10-31T10:38:03Z</time>
      </trkpt>
      <trkpt lat="44.48672" lon="1.85517">
        <ele>159.7</ele>
        <time>2015-10-31T10:38:04Z</time>
      </trkpt>
      <trkpt lat="44.4867" lon="1.8551">
        <ele>159.9</ele>
        <time>2015-10-31T10:38:05Z</time>
      </trkpt>
      <trkpt lat="44.48668" lon="1.85501">
        <ele>160.1</ele>
        <time>2015-10-31T10:38:06Z</time>
      </trkpt>
      <trkpt lat="44.48665" lon="1.85493">
        <ele>160.1</ele>
        <time>2015-10-31T10:38:07Z</time>
      </trkpt>
      <trkpt lat="44.48661" lon="1.85485">
        <ele>160</ele>
        <time>2015-10-31T10:38:08Z</time>
      </trkpt>
      <trkpt lat="44.48655" lon="1.85476">
        <ele>159.4</ele>
        <time>2015-10-31T10:38:09Z</time>
      </trkpt>
      <trkpt lat="44.48655" lon="1.85467">
        <ele>160</ele>
        <time>2015-10-31T10:38:10Z</time>
      </trkpt>
      <trkpt lat="44.48654" lon="1.85462">
        <ele>160</ele>
        <time>2015-10-31T10:38:11Z</time>
      </trkpt>
      <trkpt lat="44.48652" lon="1.85454">
        <ele>159.8</ele>
        <time>2015-10-31T10:38:12Z</time>
      </trkpt>
      <trkpt lat="44.4865" lon="1.85447">
        <ele>159.5</ele>
        <time>2015-10-31T10:38:13Z</time>
      </trkpt>
      <trkpt lat="44.48647" lon="1.85439">
        <ele>158.9</ele>
        <time>2015-10-31T10:38:14Z</time>
      </trkpt>
      <trkpt lat="44.48643" lon="1.8543">
        <ele>158</ele>
        <time>2015-10-31T10:38:15Z</time>
      </trkpt>
      <trkpt lat="44.48638" lon="1.85422">
        <ele>157.1</ele>
        <time>2015-10-31T10:38:16Z</time>
      </trkpt>
      <trkpt lat="44.48635" lon="1.85414">
        <ele>156.4</ele>
        <time>2015-10-31T10:38:17Z</time>
      </trkpt>
      <trkpt lat="44.48634" lon="1.85407">
        <ele>156.2</ele>
        <time>2015-10-31T10:38:18Z</time>
      </trkpt>
      <trkpt lat="44.48633" lon="1.854">
        <ele>155.9</ele>
        <time>2015-10-31T10:38:19Z</time>
      </trkpt>
      <trkpt lat="44.4863" lon="1.85391">
        <ele>155.2</ele>
        <time>2015-10-31T10:38:20Z</time>
      </trkpt>
      <trkpt lat="44.48627" lon="1.85384">
        <ele>154.5</ele>
        <time>2015-10-31T10:38:21Z</time>
      </trkpt>
      <trkpt lat="44.48621" lon="1.85377">
        <ele>153.7</ele>
        <time>2015-10-31T10:38:22Z</time>
      </trkpt>
      <trkpt lat="44.48619" lon="1.85369">
        <ele>153.6</ele>
        <time>2015-10-31T10:38:23Z</time>
      </trkpt>
      <trkpt lat="44.48618" lon="1.85361">
        <ele>153.6</ele>
        <time>2015-10-31T10:38:24Z</time>
      </trkpt>
      <trkpt lat="44.48615" lon="1.85353">
        <ele>153.5</ele>
        <time>2015-10-31T10:38:25Z</time>
      </trkpt>
      <trkpt lat="44.48612" lon="1.85348">
        <ele>153.4</ele>
        <time>2015-10-31T10:38:26Z</time>
      </trkpt>
      <trkpt lat="44.48612" lon="1.85338">
        <ele>153.4</ele>
        <time>2015-10-31T10:38:27Z</time>
      </trkpt>
      <trkpt lat="44.48614" lon="1.8533">
        <ele>153.5</ele>
        <time>2015-10-31T10:38:28Z</time>
      </trkpt>
      <trkpt lat="44.48614" lon="1.85323">
        <ele>153.6</ele>
        <time>2015-10-31T10:38:29Z</time>
      </trkpt>
      <trkpt lat="44.48615" lon="1.85316">
        <ele>153.7</ele>
        <time>2015-10-31T10:38:30Z</time>
      </trkpt>
      <trkpt lat="44.48616" lon="1.85309">
        <ele>153.7</ele>
        <time>2015-10-31T10:38:31Z</time>
      </trkpt>
      <trkpt lat="44.48616" lon="1.85301">
        <ele>153.7</ele>
        <time>2015-10-31T10:38:32Z</time>
      </trkpt>
      <trkpt lat="44.48614" lon="1.85294">
        <ele>153.7</ele>
        <time>2015-10-31T10:38:33Z</time>
      </trkpt>
      <trkpt lat="44.48613" lon="1.85289">
        <ele>153.8</ele>
        <time>2015-10-31T10:38:34Z</time>
      </trkpt>
      <trkpt lat="44.4861" lon="1.85281">
        <ele>153.8</ele>
        <time>2015-10-31T10:38:35Z</time>
      </trkpt>
      <trkpt lat="44.48606" lon="1.85273">
        <ele>153.8</ele>
        <time>2015-10-31T10:38:36Z</time>
      </trkpt>
      <trkpt lat="44.48604" lon="1.85264">
        <ele>153.8</ele>
        <time>2015-10-31T10:38:37Z</time>
      </trkpt>
      <trkpt lat="44.48604" lon="1.85256">
        <ele>153.9</ele>
        <time>2015-10-31T10:38:38Z</time>
      </trkpt>
      <trkpt lat="44.486" lon="1.85241">
        <ele>153.9</ele>
        <time>2015-10-31T10:38:39Z</time>
      </trkpt>
      <trkpt lat="44.48597" lon="1.85237">
        <ele>153.8</ele>
        <time>2015-10-31T10:38:40Z</time>
      </trkpt>
      <trkpt lat="44.48597" lon="1.8523">
        <ele>153.8</ele>
        <time>2015-10-31T10:38:41Z</time>
      </trkpt>
      <trkpt lat="44.48594" lon="1.85219">
        <ele>153.7</ele>
        <time>2015-10-31T10:38:42Z</time>
      </trkpt>
      <trkpt lat="44.48594" lon="1.85212">
        <ele>153.8</ele>
        <time>2015-10-31T10:38:43Z</time>
      </trkpt>
      <trkpt lat="44.48595" lon="1.85203">
        <ele>153.7</ele>
        <time>2015-10-31T10:38:44Z</time>
      </trkpt>
      <trkpt lat="44.4859" lon="1.85195">
        <ele>153.2</ele>
        <time>2015-10-31T10:38:45Z</time>
      </trkpt>
      <trkpt lat="44.48591" lon="1.85188">
        <ele>153</ele>
        <time>2015-10-31T10:38:46Z</time>
      </trkpt>
      <trkpt lat="44.48592" lon="1.85181">
        <ele>152.9</ele>
        <time>2015-10-31T10:38:47Z</time>
      </trkpt>
      <trkpt lat="44.48591" lon="1.85175">
        <ele>152.7</ele>
        <time>2015-10-31T10:38:48Z</time>
      </trkpt>
      <trkpt lat="44.4859" lon="1.85167">
        <ele>152.5</ele>
        <time>2015-10-31T10:38:49Z</time>
      </trkpt>
      <trkpt lat="44.48589" lon="1.8516">
        <ele>152.2</ele>
        <time>2015-10-31T10:38:50Z</time>
      </trkpt>
      <trkpt lat="44.48587" lon="1.85153">
        <ele>151.9</ele>
        <time>2015-10-31T10:38:51Z</time>
      </trkpt>
      <trkpt lat="44.48585" lon="1.85144">
        <ele>151.6</ele>
        <time>2015-10-31T10:38:52Z</time>
      </trkpt>
      <trkpt lat="44.48587" lon="1.8514">
        <ele>151.6</ele>
        <time>2015-10-31T10:38:53Z</time>
      </trkpt>
      <trkpt lat="44.48586" lon="1.85133">
        <ele>151.4</ele>
        <time>2015-10-31T10:38:54Z</time>
      </trkpt>
      <trkpt lat="44.48584" lon="1.85126">
        <ele>151.1</ele>
        <time>2015-10-31T10:38:55Z</time>
      </trkpt>
      <trkpt lat="44.48586" lon="1.8512">
        <ele>151.3</ele>
        <time>2015-10-31T10:38:56Z</time>
      </trkpt>
      <trkpt lat="44.48587" lon="1.85113">
        <ele>151.4</ele>
        <time>2015-10-31T10:38:57Z</time>
      </trkpt>
      <trkpt lat="44.48586" lon="1.85106">
        <ele>151.5</ele>
        <time>2015-10-31T10:38:58Z</time>
      </trkpt>
      <trkpt lat="44.48584" lon="1.85099">
        <ele>151.5</ele>
        <time>2015-10-31T10:38:59Z</time>
      </trkpt>
      <trkpt lat="44.48583" lon="1.8509">
        <ele>151.6</ele>
        <time>2015-10-31T10:39:00Z</time>
      </trkpt>
      <trkpt lat="44.48583" lon="1.85081">
        <ele>151.8</ele>
        <time>2015-10-31T10:39:01Z</time>
      </trkpt>
      <trkpt lat="44.48582" lon="1.85073">
        <ele>151.9</ele>
        <time>2015-10-31T10:39:02Z</time>
      </trkpt>
      <trkpt lat="44.48584" lon="1.85069">
        <ele>152</ele>
        <time>2015-10-31T10:39:03Z</time>
      </trkpt>
      <trkpt lat="44.48585" lon="1.85062">
        <ele>152.2</ele>
        <time>2015-10-31T10:39:04Z</time>
      </trkpt>
      <trkpt lat="44.48585" lon="1.85054">
        <ele>152.3</ele>
        <time>2015-10-31T10:39:05Z</time>
      </trkpt>
      <trkpt lat="44.48582" lon="1.85045">
        <ele>152.4</ele>
        <time>2015-10-31T10:39:06Z</time>
      </trkpt>
      <trkpt lat="44.48582" lon="1.85037">
        <ele>152.4</ele>
        <time>2015-10-31T10:39:07Z</time>
      </trkpt>
      <trkpt lat="44.48581" lon="1.85027">
        <ele>152.1</ele>
        <time>2015-10-31T10:39:08Z</time>
      </trkpt>
      <trkpt lat="44.48579" lon="1.8502">
        <ele>152</ele>
        <time>2015-10-31T10:39:09Z</time>
      </trkpt>
      <trkpt lat="44.48579" lon="1.85011">
        <ele>151.8</ele>
        <time>2015-10-31T10:39:10Z</time>
      </trkpt>
      <trkpt lat="44.48579" lon="1.85002">
        <ele>151.7</ele>
        <time>2015-10-31T10:39:11Z</time>
      </trkpt>
      <trkpt lat="44.48578" lon="1.84994">
        <ele>151.5</ele>
        <time>2015-10-31T10:39:12Z</time>
      </trkpt>
      <trkpt lat="44.48577" lon="1.84985">
        <ele>151.3</ele>
        <time>2015-10-31T10:39:13Z</time>
      </trkpt>
      <trkpt lat="44.48577" lon="1.84975">
        <ele>151.1</ele>
        <time>2015-10-31T10:39:14Z</time>
      </trkpt>
      <trkpt lat="44.48575" lon="1.84968">
        <ele>151</ele>
        <time>2015-10-31T10:39:15Z</time>
      </trkpt>
      <trkpt lat="44.48574" lon="1.84961">
        <ele>150.8</ele>
        <time>2015-10-31T10:39:16Z</time>
      </trkpt>
      <trkpt lat="44.48573" lon="1.84954">
        <ele>150.8</ele>
        <time>2015-10-31T10:39:17Z</time>
      </trkpt>
      <trkpt lat="44.48575" lon="1.84947">
        <ele>151</ele>
        <time>2015-10-31T10:39:18Z</time>
      </trkpt>
      <trkpt lat="44.48577" lon="1.84939">
        <ele>151.1</ele>
        <time>2015-10-31T10:39:19Z</time>
      </trkpt>
      <trkpt lat="44.48578" lon="1.84931">
        <ele>151.2</ele>
        <time>2015-10-31T10:39:20Z</time>
      </trkpt>
      <trkpt lat="44.4858" lon="1.84924">
        <ele>151.4</ele>
        <time>2015-10-31T10:39:21Z</time>
      </trkpt>
      <trkpt lat="44.48583" lon="1.84917">
        <ele>151.5</ele>
        <time>2015-10-31T10:39:22Z</time>
      </trkpt>
      <trkpt lat="44.48585" lon="1.8491">
        <ele>151.6</ele>
        <time>2015-10-31T10:39:23Z</time>
      </trkpt>
      <trkpt lat="44.48585" lon="1.84903">
        <ele>151.7</ele>
        <time>2015-10-31T10:39:24Z</time>
      </trkpt>
      <trkpt lat="44.48586" lon="1.84898">
        <ele>151.7</ele>
        <time>2015-10-31T10:39:25Z</time>
      </trkpt>
      <trkpt lat="44.48585" lon="1.8489">
        <ele>151.8</ele>
        <time>2015-10-31T10:39:26Z</time>
      </trkpt>
      <trkpt lat="44.48583" lon="1.84882">
        <ele>151.9</ele>
        <time>2015-10-31T10:39:27Z</time>
      </trkpt>
      <trkpt lat="44.48582" lon="1.84875">
        <ele>152</ele>
        <time>2015-10-31T10:39:28Z</time>
      </trkpt>
      <trkpt lat="44.48581" lon="1.84868">
        <ele>152</ele>
        <time>2015-10-31T10:39:29Z</time>
      </trkpt>
      <trkpt lat="44.48577" lon="1.84863">
        <ele>151.9</ele>
        <time>2015-10-31T10:39:30Z</time>
      </trkpt>
      <trkpt lat="44.48576" lon="1.84856">
        <ele>151.9</ele>
        <time>2015-10-31T10:39:31Z</time>
      </trkpt>
      <trkpt lat="44.48576" lon="1.84849">
        <ele>151.8</ele>
        <time>2015-10-31T10:39:32Z</time>
      </trkpt>
      <trkpt lat="44.48578" lon="1.84841">
        <ele>151.8</ele>
        <time>2015-10-31T10:39:33Z</time>
      </trkpt>
      <trkpt lat="44.48578" lon="1.84834">
        <ele>151.7</ele>
        <time>2015-10-31T10:39:34Z</time>
      </trkpt>
      <trkpt lat="44.48577" lon="1.84828">
        <ele>151.7</ele>
        <time>2015-10-31T10:39:35Z</time>
      </trkpt>
      <trkpt lat="44.48577" lon="1.84821">
        <ele>151.6</ele>
        <time>2015-10-31T10:39:36Z</time>
      </trkpt>
      <trkpt lat="44.48579" lon="1.84814">
        <ele>151.6</ele>
        <time>2015-10-31T10:39:37Z</time>
      </trkpt>
      <trkpt lat="44.48579" lon="1.84807">
        <ele>151.5</ele>
        <time>2015-10-31T10:39:38Z</time>
      </trkpt>
      <trkpt lat="44.48578" lon="1.84802">
        <ele>151.5</ele>
        <time>2015-10-31T10:39:39Z</time>
      </trkpt>
      <trkpt lat="44.48577" lon="1.84796">
        <ele>151.4</ele>
        <time>2015-10-31T10:39:40Z</time>
      </trkpt>
      <trkpt lat="44.48577" lon="1.84788">
        <ele>151.4</ele>
        <time>2015-10-31T10:39:41Z</time>
      </trkpt>
      <trkpt lat="44.48577" lon="1.84781">
        <ele>151.5</ele>
        <time>2015-10-31T10:39:42Z</time>
      </trkpt>
      <trkpt lat="44.48579" lon="1.84775">
        <ele>151.6</ele>
        <time>2015-10-31T10:39:43Z</time>
      </trkpt>
      <trkpt lat="44.48579" lon="1.84767">
        <ele>151.6</ele>
        <time>2015-10-31T10:39:44Z</time>
      </trkpt>
      <trkpt lat="44.48579" lon="1.84761">
        <ele>151.7</ele>
        <time>2015-10-31T10:39:45Z</time>
      </trkpt>
      <trkpt lat="44.48579" lon="1.84754">
        <ele>151.7</ele>
        <time>2015-10-31T10:39:46Z</time>
      </trkpt>
      <trkpt lat="44.48578" lon="1.84749">
        <ele>151.7</ele>
        <time>2015-10-31T10:39:47Z</time>
      </trkpt>
      <trkpt lat="44.4858" lon="1.84739">
        <ele>151.8</ele>
        <time>2015-10-31T10:39:48Z</time>
      </trkpt>
      <trkpt lat="44.4858" lon="1.8473">
        <ele>151.9</ele>
        <time>2015-10-31T10:39:49Z</time>
      </trkpt>
      <trkpt lat="44.48581" lon="1.84725">
        <ele>151.9</ele>
        <time>2015-10-31T10:39:50Z</time>
      </trkpt>
      <trkpt lat="44.48581" lon="1.84718">
        <ele>151.9</ele>
        <time>2015-10-31T10:39:51Z</time>
      </trkpt>
      <trkpt lat="44.48581" lon="1.84713">
        <ele>152</ele>
        <time>2015-10-31T10:39:52Z</time>
      </trkpt>
      <trkpt lat="44.48581" lon="1.84706">
        <ele>152</ele>
        <time>2015-10-31T10:39:53Z</time>
      </trkpt>
      <trkpt lat="44.48581" lon="1.84698">
        <ele>152</ele>
        <time>2015-10-31T10:39:54Z</time>
      </trkpt>
      <trkpt lat="44.48581" lon="1.8469">
        <ele>152</ele>
        <time>2015-10-31T10:39:55Z</time>
      </trkpt>
      <trkpt lat="44.48581" lon="1.84685">
        <ele>152</ele>
        <time>2015-10-31T10:39:56Z</time>
      </trkpt>
      <trkpt lat="44.48581" lon="1.84676">
        <ele>152</ele>
        <time>2015-10-31T10:39:57Z</time>
      </trkpt>
      <trkpt lat="44.48582" lon="1.84667">
        <ele>152</ele>
        <time>2015-10-31T10:39:58Z</time>
      </trkpt>
      <trkpt lat="44.48582" lon="1.8466">
        <ele>152</ele>
        <time>2015-10-31T10:39:59Z</time>
      </trkpt>
      <trkpt lat="44.48582" lon="1.84652">
        <ele>152</ele>
        <time>2015-10-31T10:40:00Z</time>
      </trkpt>
      <trkpt lat="44.48581" lon="1.84645">
        <ele>152</ele>
        <time>2015-10-31T10:40:01Z</time>
      </trkpt>
      <trkpt lat="44.48581" lon="1.84638">
        <ele>152</ele>
        <time>2015-10-31T10:40:02Z</time>
      </trkpt>
      <trkpt lat="44.48581" lon="1.84632">
        <ele>152</ele>
        <time>2015-10-31T10:40:03Z</time>
      </trkpt>
      <trkpt lat="44.4858" lon="1.84625">
        <ele>152</ele>
        <time>2015-10-31T10:40:04Z</time>
      </trkpt>
      <trkpt lat="44.48581" lon="1.84618">
        <ele>152</ele>
        <time>2015-10-31T10:40:05Z</time>
      </trkpt>
      <trkpt lat="44.4858" lon="1.84609">
        <ele>151.9</ele>
        <time>2015-10-31T10:40:06Z</time>
      </trkpt>
      <trkpt lat="44.48578" lon="1.84602">
        <ele>151.9</ele>
        <time>2015-10-31T10:40:07Z</time>
      </trkpt>
      <trkpt lat="44.4858" lon="1.84595">
        <ele>151.8</ele>
        <time>2015-10-31T10:40:08Z</time>
      </trkpt>
      <trkpt lat="44.48581" lon="1.84589">
        <ele>151.8</ele>
        <time>2015-10-31T10:40:09Z</time>
      </trkpt>
      <trkpt lat="44.4858" lon="1.8458">
        <ele>151.8</ele>
        <time>2015-10-31T10:40:10Z</time>
      </trkpt>
      <trkpt lat="44.48581" lon="1.84574">
        <ele>151.7</ele>
        <time>2015-10-31T10:40:11Z</time>
      </trkpt>
      <trkpt lat="44.48581" lon="1.84568">
        <ele>151.7</ele>
        <time>2015-10-31T10:40:12Z</time>
      </trkpt>
      <trkpt lat="44.4858" lon="1.84561">
        <ele>151.6</ele>
        <time>2015-10-31T10:40:13Z</time>
      </trkpt>
      <trkpt lat="44.48579" lon="1.84557">
        <ele>151.6</ele>
        <time>2015-10-31T10:40:14Z</time>
      </trkpt>
      <trkpt lat="44.48579" lon="1.8455">
        <ele>151.6</ele>
        <time>2015-10-31T10:40:15Z</time>
      </trkpt>
      <trkpt lat="44.4858" lon="1.84544">
        <ele>151.6</ele>
        <time>2015-10-31T10:40:16Z</time>
      </trkpt>
      <trkpt lat="44.4858" lon="1.84538">
        <ele>151.6</ele>
        <time>2015-10-31T10:40:17Z</time>
      </trkpt>
      <trkpt lat="44.48579" lon="1.84531">
        <ele>151.8</ele>
        <time>2015-10-31T10:40:18Z</time>
      </trkpt>
      <trkpt lat="44.4858" lon="1.84524">
        <ele>152</ele>
        <time>2015-10-31T10:40:19Z</time>
      </trkpt>
      <trkpt lat="44.48579" lon="1.84518">
        <ele>152.1</ele>
        <time>2015-10-31T10:40:20Z</time>
      </trkpt>
      <trkpt lat="44.48579" lon="1.84512">
        <ele>152.3</ele>
        <time>2015-10-31T10:40:21Z</time>
      </trkpt>
      <trkpt lat="44.48579" lon="1.84505">
        <ele>152.4</ele>
        <time>2015-10-31T10:40:22Z</time>
      </trkpt>
      <trkpt lat="44.4858" lon="1.84499">
        <ele>152.6</ele>
        <time>2015-10-31T10:40:23Z</time>
      </trkpt>
      <trkpt lat="44.48582" lon="1.84495">
        <ele>152.6</ele>
        <time>2015-10-31T10:40:24Z</time>
      </trkpt>
      <trkpt lat="44.48582" lon="1.84489">
        <ele>152.8</ele>
        <time>2015-10-31T10:40:25Z</time>
      </trkpt>
      <trkpt lat="44.48582" lon="1.84484">
        <ele>152.9</ele>
        <time>2015-10-31T10:40:26Z</time>
      </trkpt>
      <trkpt lat="44.48582" lon="1.84478">
        <ele>153.1</ele>
        <time>2015-10-31T10:40:27Z</time>
      </trkpt>
      <trkpt lat="44.48582" lon="1.84472">
        <ele>153.2</ele>
        <time>2015-10-31T10:40:28Z</time>
      </trkpt>
      <trkpt lat="44.48583" lon="1.84467">
        <ele>153.3</ele>
        <time>2015-10-31T10:40:29Z</time>
      </trkpt>
      <trkpt lat="44.48583" lon="1.84461">
        <ele>153.4</ele>
        <time>2015-10-31T10:40:30Z</time>
      </trkpt>
      <trkpt lat="44.48584" lon="1.84456">
        <ele>153.6</ele>
        <time>2015-10-31T10:40:31Z</time>
      </trkpt>
      <trkpt lat="44.48584" lon="1.8445">
        <ele>153.8</ele>
        <time>2015-10-31T10:40:32Z</time>
      </trkpt>
      <trkpt lat="44.48584" lon="1.84444">
        <ele>154</ele>
        <time>2015-10-31T10:40:33Z</time>
      </trkpt>
      <trkpt lat="44.48583" lon="1.84438">
        <ele>154.3</ele>
        <time>2015-10-31T10:40:34Z</time>
      </trkpt>
      <trkpt lat="44.48582" lon="1.84432">
        <ele>154.5</ele>
        <time>2015-10-31T10:40:35Z</time>
      </trkpt>
      <trkpt lat="44.4858" lon="1.84426">
        <ele>154.7</ele>
        <time>2015-10-31T10:40:36Z</time>
      </trkpt>
      <trkpt lat="44.48578" lon="1.84422">
        <ele>154.8</ele>
        <time>2015-10-31T10:40:37Z</time>
      </trkpt>
      <trkpt lat="44.48576" lon="1.84418">
        <ele>155</ele>
        <time>2015-10-31T10:40:38Z</time>
      </trkpt>
      <trkpt lat="44.48573" lon="1.84413">
        <ele>155.1</ele>
        <time>2015-10-31T10:40:39Z</time>
      </trkpt>
      <trkpt lat="44.48571" lon="1.84409">
        <ele>155.3</ele>
        <time>2015-10-31T10:40:40Z</time>
      </trkpt>
      <trkpt lat="44.4857" lon="1.84404">
        <ele>155.4</ele>
        <time>2015-10-31T10:40:41Z</time>
      </trkpt>
      <trkpt lat="44.48567" lon="1.844">
        <ele>155.5</ele>
        <time>2015-10-31T10:40:42Z</time>
      </trkpt>
      <trkpt lat="44.48564" lon="1.84397">
        <ele>155.6</ele>
        <time>2015-10-31T10:40:43Z</time>
      </trkpt>
      <trkpt lat="44.48562" lon="1.84394">
        <ele>155.7</ele>
        <time>2015-10-31T10:40:44Z</time>
      </trkpt>
      <trkpt lat="44.48561" lon="1.8439">
        <ele>155.8</ele>
        <time>2015-10-31T10:40:45Z</time>
      </trkpt>
      <trkpt lat="44.48561" lon="1.84385">
        <ele>155.9</ele>
        <time>2015-10-31T10:40:46Z</time>
      </trkpt>
      <trkpt lat="44.48562" lon="1.84381">
        <ele>156.1</ele>
        <time>2015-10-31T10:40:47Z</time>
      </trkpt>
      <trkpt lat="44.48563" lon="1.84377">
        <ele>156.2</ele>
        <time>2015-10-31T10:40:48Z</time>
      </trkpt>
      <trkpt lat="44.48563" lon="1.84381">
        <ele>156.1</ele>
        <time>2015-10-31T10:40:52Z</time>
      </trkpt>
      <trkpt lat="44.48565" lon="1.84384">
        <ele>156</ele>
        <time>2015-10-31T10:40:56Z</time>
      </trkpt>
      <trkpt lat="44.48568" lon="1.8438">
        <ele>156.2</ele>
        <time>2015-10-31T10:41:03Z</time>
      </trkpt>
      <trkpt lat="44.4857" lon="1.84375">
        <ele>156.3</ele>
        <time>2015-10-31T10:41:05Z</time>
      </trkpt>
      <trkpt lat="44.48574" lon="1.84371">
        <ele>156.4</ele>
        <time>2015-10-31T10:41:07Z</time>
      </trkpt>
      <trkpt lat="44.48576" lon="1.8437">
        <ele>156.4</ele>
        <time>2015-10-31T10:41:08Z</time>
      </trkpt>
      <trkpt lat="44.48581" lon="1.84366">
        <ele>156.5</ele>
        <time>2015-10-31T10:41:10Z</time>
      </trkpt>
      <trkpt lat="44.48584" lon="1.84363">
        <ele>156.6</ele>
        <time>2015-10-31T10:41:11Z</time>
      </trkpt>
      <trkpt lat="44.48586" lon="1.84361">
        <ele>156.6</ele>
        <time>2015-10-31T10:41:12Z</time>
      </trkpt>
      <trkpt lat="44.48588" lon="1.84357">
        <ele>156.7</ele>
        <time>2015-10-31T10:41:13Z</time>
      </trkpt>
      <trkpt lat="44.48589" lon="1.84354">
        <ele>156.7</ele>
        <time>2015-10-31T10:41:14Z</time>
      </trkpt>
      <trkpt lat="44.4859" lon="1.84351">
        <ele>156.8</ele>
        <time>2015-10-31T10:41:15Z</time>
      </trkpt>
      <trkpt lat="44.48593" lon="1.84345">
        <ele>156.8</ele>
        <time>2015-10-31T10:41:17Z</time>
      </trkpt>
      <trkpt lat="44.48596" lon="1.84342">
        <ele>156.9</ele>
        <time>2015-10-31T10:41:19Z</time>
      </trkpt>
      <trkpt lat="44.48599" lon="1.84339">
        <ele>157</ele>
        <time>2015-10-31T10:41:21Z</time>
      </trkpt>
      <trkpt lat="44.48602" lon="1.84338">
        <ele>157</ele>
        <time>2015-10-31T10:41:24Z</time>
      </trkpt>
      <trkpt lat="44.48614" lon="1.84345">
        <ele>157.2</ele>
        <time>2015-10-31T10:43:55Z</time>
      </trkpt>
      <trkpt lat="44.48617" lon="1.84343">
        <ele>157.3</ele>
        <time>2015-10-31T10:43:56Z</time>
      </trkpt>
      <trkpt lat="44.48619" lon="1.8434">
        <ele>157.3</ele>
        <time>2015-10-31T10:43:57Z</time>
      </trkpt>
      <trkpt lat="44.48622" lon="1.84338">
        <ele>157.4</ele>
        <time>2015-10-31T10:43:58Z</time>
      </trkpt>
      <trkpt lat="44.48626" lon="1.84334">
        <ele>157.5</ele>
        <time>2015-10-31T10:44:00Z</time>
      </trkpt>
      <trkpt lat="44.4863" lon="1.84329">
        <ele>157.3</ele>
        <time>2015-10-31T10:44:02Z</time>
      </trkpt>
      <trkpt lat="44.48633" lon="1.84325">
        <ele>157.2</ele>
        <time>2015-10-31T10:44:04Z</time>
      </trkpt>
      <trkpt lat="44.48636" lon="1.84321">
        <ele>157.1</ele>
        <time>2015-10-31T10:44:06Z</time>
      </trkpt>
      <trkpt lat="44.48639" lon="1.84317">
        <ele>157</ele>
        <time>2015-10-31T10:44:08Z</time>
      </trkpt>
      <trkpt lat="44.48643" lon="1.84313">
        <ele>156.9</ele>
        <time>2015-10-31T10:44:10Z</time>
      </trkpt>
      <trkpt lat="44.48647" lon="1.8431">
        <ele>156.7</ele>
        <time>2015-10-31T10:44:12Z</time>
      </trkpt>
      <trkpt lat="44.48651" lon="1.84308">
        <ele>156.6</ele>
        <time>2015-10-31T10:44:14Z</time>
      </trkpt>
      <trkpt lat="44.48654" lon="1.84309">
        <ele>156.4</ele>
        <time>2015-10-31T10:44:16Z</time>
      </trkpt>
      <trkpt lat="44.48655" lon="1.84312">
        <ele>156.3</ele>
        <time>2015-10-31T10:44:21Z</time>
      </trkpt>
      <trkpt lat="44.48655" lon="1.84316">
        <ele>156.3</ele>
        <time>2015-10-31T10:44:26Z</time>
      </trkpt>
      <trkpt lat="44.48655" lon="1.843">
        <ele>156.5</ele>
        <time>2015-10-31T10:45:24Z</time>
      </trkpt>
      <trkpt lat="44.48676" lon="1.84329">
        <ele>155.1</ele>
        <time>2015-10-31T10:45:27Z</time>
      </trkpt>
      <trkpt lat="44.48679" lon="1.84324">
        <ele>155</ele>
        <time>2015-10-31T10:45:28Z</time>
      </trkpt>
      <trkpt lat="44.48659" lon="1.84331">
        <ele>155.9</ele>
        <time>2015-10-31T10:45:30Z</time>
      </trkpt>
      <trkpt lat="44.48662" lon="1.84335">
        <ele>155.7</ele>
        <time>2015-10-31T10:45:32Z</time>
      </trkpt>
      <trkpt lat="44.48664" lon="1.84339">
        <ele>155.6</ele>
        <time>2015-10-31T10:45:35Z</time>
      </trkpt>
      <trkpt lat="44.48661" lon="1.84337">
        <ele>155.8</ele>
        <time>2015-10-31T10:45:42Z</time>
      </trkpt>
      <trkpt lat="44.48664" lon="1.84338">
        <ele>155.6</ele>
        <time>2015-10-31T10:45:48Z</time>
      </trkpt>
      <trkpt lat="44.48663" lon="1.84335">
        <ele>155.7</ele>
        <time>2015-10-31T10:45:54Z</time>
      </trkpt>
      <trkpt lat="44.48661" lon="1.84325">
        <ele>155.9</ele>
        <time>2015-10-31T10:51:27Z</time>
      </trkpt>
      <trkpt lat="44.48665" lon="1.84328">
        <ele>155.7</ele>
        <time>2015-10-31T10:51:29Z</time>
      </trkpt>
      <trkpt lat="44.48653" lon="1.8432">
        <ele>156.3</ele>
        <time>2015-10-31T10:51:44Z</time>
      </trkpt>
      <trkpt lat="44.48651" lon="1.84319">
        <ele>156.4</ele>
        <time>2015-10-31T10:51:46Z</time>
      </trkpt>
      <trkpt lat="44.48648" lon="1.84321">
        <ele>156.5</ele>
        <time>2015-10-31T10:51:51Z</time>
      </trkpt>
      <trkpt lat="44.48648" lon="1.84328">
        <ele>156.5</ele>
        <time>2015-10-31T10:51:54Z</time>
      </trkpt>
      <trkpt lat="44.48647" lon="1.84333">
        <ele>156.4</ele>
        <time>2015-10-31T10:51:56Z</time>
      </trkpt>
      <trkpt lat="44.48642" lon="1.84328">
        <ele>156.7</ele>
        <time>2015-10-31T10:51:59Z</time>
      </trkpt>
      <trkpt lat="44.4864" lon="1.84325">
        <ele>156.9</ele>
        <time>2015-10-31T10:52:01Z</time>
      </trkpt>
      <trkpt lat="44.4864" lon="1.84321">
        <ele>156.9</ele>
        <time>2015-10-31T10:52:04Z</time>
      </trkpt>
      <trkpt lat="44.48642" lon="1.84316">
        <ele>156.9</ele>
        <time>2015-10-31T10:52:07Z</time>
      </trkpt>
      <trkpt lat="44.48641" lon="1.84313">
        <ele>157</ele>
        <time>2015-10-31T10:52:10Z</time>
      </trkpt>
      <trkpt lat="44.48643" lon="1.84309">
        <ele>156.9</ele>
        <time>2015-10-31T10:52:13Z</time>
      </trkpt>
      <trkpt lat="44.48647" lon="1.84307">
        <ele>156.8</ele>
        <time>2015-10-31T10:52:15Z</time>
      </trkpt>
      <trkpt lat="44.4865" lon="1.84306">
        <ele>156.6</ele>
        <time>2015-10-31T10:52:17Z</time>
      </trkpt>
      <trkpt lat="44.48648" lon="1.84309">
        <ele>156.7</ele>
        <time>2015-10-31T10:52:22Z</time>
      </trkpt>
      <trkpt lat="44.48651" lon="1.8431">
        <ele>156.6</ele>
        <time>2015-10-31T10:52:29Z</time>
      </trkpt>
      <trkpt lat="44.48653" lon="1.84309">
        <ele>156.4</ele>
        <time>2015-10-31T10:52:33Z</time>
      </trkpt>
      <trkpt lat="44.48656" lon="1.84314">
        <ele>156.2</ele>
        <time>2015-10-31T10:52:43Z</time>
      </trkpt>
      <trkpt lat="44.48653" lon="1.84311">
        <ele>156.4</ele>
        <time>2015-10-31T10:52:52Z</time>
      </trkpt>
      <trkpt lat="44.48648" lon="1.8431">
        <ele>156.7</ele>
        <time>2015-10-31T10:53:44Z</time>
      </trkpt>
      <trkpt lat="44.48645" lon="1.84313">
        <ele>156.8</ele>
        <time>2015-10-31T10:53:46Z</time>
      </trkpt>
      <trkpt lat="44.48642" lon="1.84316">
        <ele>156.9</ele>
        <time>2015-10-31T10:53:48Z</time>
      </trkpt>
      <trkpt lat="44.48639" lon="1.84319">
        <ele>157</ele>
        <time>2015-10-31T10:53:50Z</time>
      </trkpt>
      <trkpt lat="44.48636" lon="1.84324">
        <ele>157.1</ele>
        <time>2015-10-31T10:53:52Z</time>
      </trkpt>
      <trkpt lat="44.48634" lon="1.84327">
        <ele>157.2</ele>
        <time>2015-10-31T10:53:54Z</time>
      </trkpt>
      <trkpt lat="44.4863" lon="1.8433">
        <ele>157.3</ele>
        <time>2015-10-31T10:53:56Z</time>
      </trkpt>
      <trkpt lat="44.48627" lon="1.84333">
        <ele>157.4</ele>
        <time>2015-10-31T10:53:58Z</time>
      </trkpt>
      <trkpt lat="44.48623" lon="1.84337">
        <ele>157.4</ele>
        <time>2015-10-31T10:54:00Z</time>
      </trkpt>
      <trkpt lat="44.48619" lon="1.84341">
        <ele>157.3</ele>
        <time>2015-10-31T10:54:02Z</time>
      </trkpt>
      <trkpt lat="44.48614" lon="1.84344">
        <ele>157.2</ele>
        <time>2015-10-31T10:54:04Z</time>
      </trkpt>
      <trkpt lat="44.48611" lon="1.84345">
        <ele>157.1</ele>
        <time>2015-10-31T10:54:05Z</time>
      </trkpt>
      <trkpt lat="44.48608" lon="1.84347">
        <ele>157.1</ele>
        <time>2015-10-31T10:54:06Z</time>
      </trkpt>
      <trkpt lat="44.48606" lon="1.84349">
        <ele>157</ele>
        <time>2015-10-31T10:54:07Z</time>
      </trkpt>
      <trkpt lat="44.48603" lon="1.84351">
        <ele>156.9</ele>
        <time>2015-10-31T10:54:08Z</time>
      </trkpt>
      <trkpt lat="44.48601" lon="1.84354">
        <ele>156.9</ele>
        <time>2015-10-31T10:54:09Z</time>
      </trkpt>
      <trkpt lat="44.48598" lon="1.84356">
        <ele>156.8</ele>
        <time>2015-10-31T10:54:10Z</time>
      </trkpt>
      <trkpt lat="44.48593" lon="1.84359">
        <ele>156.7</ele>
        <time>2015-10-31T10:54:12Z</time>
      </trkpt>
      <trkpt lat="44.48591" lon="1.84361">
        <ele>156.7</ele>
        <time>2015-10-31T10:54:13Z</time>
      </trkpt>
      <trkpt lat="44.48588" lon="1.84362">
        <ele>156.6</ele>
        <time>2015-10-31T10:54:14Z</time>
      </trkpt>
      <trkpt lat="44.48581" lon="1.84366">
        <ele>156.5</ele>
        <time>2015-10-31T10:54:16Z</time>
      </trkpt>
      <trkpt lat="44.48575" lon="1.84369">
        <ele>156.4</ele>
        <time>2015-10-31T10:54:18Z</time>
      </trkpt>
      <trkpt lat="44.48572" lon="1.8437">
        <ele>156.4</ele>
        <time>2015-10-31T10:54:19Z</time>
      </trkpt>
      <trkpt lat="44.48566" lon="1.84374">
        <ele>156.3</ele>
        <time>2015-10-31T10:54:21Z</time>
      </trkpt>
      <trkpt lat="44.48564" lon="1.84377">
        <ele>156.2</ele>
        <time>2015-10-31T10:54:22Z</time>
      </trkpt>
      <trkpt lat="44.48562" lon="1.8438">
        <ele>156.1</ele>
        <time>2015-10-31T10:54:23Z</time>
      </trkpt>
      <trkpt lat="44.48559" lon="1.84382">
        <ele>156</ele>
        <time>2015-10-31T10:54:25Z</time>
      </trkpt>
      <trkpt lat="44.48561" lon="1.84386">
        <ele>155.9</ele>
        <time>2015-10-31T10:54:28Z</time>
      </trkpt>
      <trkpt lat="44.48559" lon="1.84388">
        <ele>155.8</ele>
        <time>2015-10-31T10:54:36Z</time>
      </trkpt>
      <trkpt lat="44.48561" lon="1.84386">
        <ele>155.9</ele>
        <time>2015-10-31T10:54:41Z</time>
      </trkpt>
      <trkpt lat="44.48558" lon="1.84387">
        <ele>155.9</ele>
        <time>2015-10-31T10:54:43Z</time>
      </trkpt>
      <trkpt lat="44.48555" lon="1.84381">
        <ele>156</ele>
        <time>2015-10-31T10:55:00Z</time>
      </trkpt>
      <trkpt lat="44.4856" lon="1.84384">
        <ele>156</ele>
        <time>2015-10-31T10:55:33Z</time>
      </trkpt>
      <trkpt lat="44.48555" lon="1.8438">
        <ele>156</ele>
        <time>2015-10-31T10:55:42Z</time>
      </trkpt>
      <trkpt lat="44.48563" lon="1.84382">
        <ele>156</ele>
        <time>2015-10-31T11:16:13Z</time>
      </trkpt>
      <trkpt lat="44.48565" lon="1.8438">
        <ele>156.1</ele>
        <time>2015-10-31T11:16:16Z</time>
      </trkpt>
      <trkpt lat="44.48568" lon="1.84378">
        <ele>156.2</ele>
        <time>2015-10-31T11:16:18Z</time>
      </trkpt>
      <trkpt lat="44.48571" lon="1.84377">
        <ele>156.3</ele>
        <time>2015-10-31T11:16:20Z</time>
      </trkpt>
      <trkpt lat="44.48576" lon="1.84374">
        <ele>156.4</ele>
        <time>2015-10-31T11:16:22Z</time>
      </trkpt>
      <trkpt lat="44.48581" lon="1.84372">
        <ele>156.5</ele>
        <time>2015-10-31T11:16:24Z</time>
      </trkpt>
      <trkpt lat="44.48583" lon="1.8437">
        <ele>156.5</ele>
        <time>2015-10-31T11:16:25Z</time>
      </trkpt>
      <trkpt lat="44.48585" lon="1.84367">
        <ele>156.6</ele>
        <time>2015-10-31T11:16:26Z</time>
      </trkpt>
      <trkpt lat="44.48588" lon="1.84364">
        <ele>156.6</ele>
        <time>2015-10-31T11:16:27Z</time>
      </trkpt>
      <trkpt lat="44.4859" lon="1.84361">
        <ele>156.7</ele>
        <time>2015-10-31T11:16:28Z</time>
      </trkpt>
      <trkpt lat="44.48592" lon="1.84358">
        <ele>156.7</ele>
        <time>2015-10-31T11:16:29Z</time>
      </trkpt>
      <trkpt lat="44.48595" lon="1.84354">
        <ele>156.8</ele>
        <time>2015-10-31T11:16:30Z</time>
      </trkpt>
      <trkpt lat="44.48598" lon="1.84351">
        <ele>156.9</ele>
        <time>2015-10-31T11:16:31Z</time>
      </trkpt>
      <trkpt lat="44.486" lon="1.84348">
        <ele>156.9</ele>
        <time>2015-10-31T11:16:32Z</time>
      </trkpt>
      <trkpt lat="44.48605" lon="1.84342">
        <ele>157.1</ele>
        <time>2015-10-31T11:16:34Z</time>
      </trkpt>
      <trkpt lat="44.48609" lon="1.84338">
        <ele>157.2</ele>
        <time>2015-10-31T11:16:35Z</time>
      </trkpt>
      <trkpt lat="44.48611" lon="1.84336">
        <ele>157.2</ele>
        <time>2015-10-31T11:16:36Z</time>
      </trkpt>
      <trkpt lat="44.48614" lon="1.84333">
        <ele>157.3</ele>
        <time>2015-10-31T11:16:37Z</time>
      </trkpt>
      <trkpt lat="44.48616" lon="1.8433">
        <ele>157.4</ele>
        <time>2015-10-31T11:16:38Z</time>
      </trkpt>
      <trkpt lat="44.48618" lon="1.84327">
        <ele>157.5</ele>
        <time>2015-10-31T11:16:39Z</time>
      </trkpt>
      <trkpt lat="44.48621" lon="1.84324">
        <ele>157.5</ele>
        <time>2015-10-31T11:16:40Z</time>
      </trkpt>
      <trkpt lat="44.48623" lon="1.84321">
        <ele>157.6</ele>
        <time>2015-10-31T11:16:41Z</time>
      </trkpt>
      <trkpt lat="44.48626" lon="1.84319">
        <ele>157.6</ele>
        <time>2015-10-31T11:16:42Z</time>
      </trkpt>
      <trkpt lat="44.4863" lon="1.84318">
        <ele>157.5</ele>
        <time>2015-10-31T11:16:43Z</time>
      </trkpt>
      <trkpt lat="44.48634" lon="1.84317">
        <ele>157.3</ele>
        <time>2015-10-31T11:16:44Z</time>
      </trkpt>
      <trkpt lat="44.48638" lon="1.84316">
        <ele>157.1</ele>
        <time>2015-10-31T11:16:45Z</time>
      </trkpt>
      <trkpt lat="44.48641" lon="1.84314">
        <ele>157</ele>
        <time>2015-10-31T11:16:46Z</time>
      </trkpt>
      <trkpt lat="44.48645" lon="1.84311">
        <ele>156.8</ele>
        <time>2015-10-31T11:16:47Z</time>
      </trkpt>
      <trkpt lat="44.48648" lon="1.84308">
        <ele>156.7</ele>
        <time>2015-10-31T11:16:48Z</time>
      </trkpt>
      <trkpt lat="44.48651" lon="1.84305">
        <ele>156.6</ele>
        <time>2015-10-31T11:16:49Z</time>
      </trkpt>
      <trkpt lat="44.48654" lon="1.84303">
        <ele>156.5</ele>
        <time>2015-10-31T11:16:50Z</time>
      </trkpt>
      <trkpt lat="44.48657" lon="1.843">
        <ele>156.4</ele>
        <time>2015-10-31T11:16:51Z</time>
      </trkpt>
      <trkpt lat="44.48661" lon="1.84299">
        <ele>156.2</ele>
        <time>2015-10-31T11:16:52Z</time>
      </trkpt>
      <trkpt lat="44.48665" lon="1.84298">
        <ele>156</ele>
        <time>2015-10-31T11:16:53Z</time>
      </trkpt>
      <trkpt lat="44.48669" lon="1.84297">
        <ele>155.8</ele>
        <time>2015-10-31T11:16:54Z</time>
      </trkpt>
      <trkpt lat="44.48672" lon="1.84295">
        <ele>155.7</ele>
        <time>2015-10-31T11:16:55Z</time>
      </trkpt>
      <trkpt lat="44.48676" lon="1.84293">
        <ele>155.5</ele>
        <time>2015-10-31T11:16:56Z</time>
      </trkpt>
      <trkpt lat="44.48679" lon="1.84289">
        <ele>155.3</ele>
        <time>2015-10-31T11:16:57Z</time>
      </trkpt>
      <trkpt lat="44.48681" lon="1.84287">
        <ele>155.1</ele>
        <time>2015-10-31T11:16:58Z</time>
      </trkpt>
      <trkpt lat="44.48684" lon="1.84283">
        <ele>154.9</ele>
        <time>2015-10-31T11:16:59Z</time>
      </trkpt>
      <trkpt lat="44.48687" lon="1.84281">
        <ele>154.7</ele>
        <time>2015-10-31T11:17:00Z</time>
      </trkpt>
      <trkpt lat="44.4869" lon="1.84279">
        <ele>154.5</ele>
        <time>2015-10-31T11:17:01Z</time>
      </trkpt>
      <trkpt lat="44.48692" lon="1.84276">
        <ele>154.3</ele>
        <time>2015-10-31T11:17:02Z</time>
      </trkpt>
      <trkpt lat="44.48695" lon="1.84274">
        <ele>154.2</ele>
        <time>2015-10-31T11:17:03Z</time>
      </trkpt>
      <trkpt lat="44.48698" lon="1.84271">
        <ele>153.9</ele>
        <time>2015-10-31T11:17:05Z</time>
      </trkpt>
      <trkpt lat="44.48701" lon="1.84268">
        <ele>153.7</ele>
        <time>2015-10-31T11:17:07Z</time>
      </trkpt>
      <trkpt lat="44.487" lon="1.84263">
        <ele>153.6</ele>
        <time>2015-10-31T11:17:09Z</time>
      </trkpt>
      <trkpt lat="44.48698" lon="1.84258">
        <ele>153.6</ele>
        <time>2015-10-31T11:17:11Z</time>
      </trkpt>
      <trkpt lat="44.48694" lon="1.84251">
        <ele>153.6</ele>
        <time>2015-10-31T11:17:13Z</time>
      </trkpt>
      <trkpt lat="44.48691" lon="1.84248">
        <ele>153.6</ele>
        <time>2015-10-31T11:17:14Z</time>
      </trkpt>
      <trkpt lat="44.48688" lon="1.84244">
        <ele>153.5</ele>
        <time>2015-10-31T11:17:15Z</time>
      </trkpt>
      <trkpt lat="44.48685" lon="1.8424">
        <ele>153.5</ele>
        <time>2015-10-31T11:17:16Z</time>
      </trkpt>
      <trkpt lat="44.48682" lon="1.84236">
        <ele>153.5</ele>
        <time>2015-10-31T11:17:17Z</time>
      </trkpt>
      <trkpt lat="44.48679" lon="1.84232">
        <ele>153.5</ele>
        <time>2015-10-31T11:17:18Z</time>
      </trkpt>
      <trkpt lat="44.48676" lon="1.84229">
        <ele>153.4</ele>
        <time>2015-10-31T11:17:19Z</time>
      </trkpt>
      <trkpt lat="44.48673" lon="1.84225">
        <ele>153.4</ele>
        <time>2015-10-31T11:17:20Z</time>
      </trkpt>
      <trkpt lat="44.48671" lon="1.84221">
        <ele>153.3</ele>
        <time>2015-10-31T11:17:21Z</time>
      </trkpt>
      <trkpt lat="44.48668" lon="1.84217">
        <ele>153.3</ele>
        <time>2015-10-31T11:17:22Z</time>
      </trkpt>
      <trkpt lat="44.48665" lon="1.84213">
        <ele>153.2</ele>
        <time>2015-10-31T11:17:23Z</time>
      </trkpt>
      <trkpt lat="44.48662" lon="1.84209">
        <ele>153.2</ele>
        <time>2015-10-31T11:17:24Z</time>
      </trkpt>
      <trkpt lat="44.48659" lon="1.84206">
        <ele>153.1</ele>
        <time>2015-10-31T11:17:25Z</time>
      </trkpt>
      <trkpt lat="44.48655" lon="1.84202">
        <ele>153.2</ele>
        <time>2015-10-31T11:17:26Z</time>
      </trkpt>
      <trkpt lat="44.48652" lon="1.842">
        <ele>153.2</ele>
        <time>2015-10-31T11:17:27Z</time>
      </trkpt>
      <trkpt lat="44.48649" lon="1.84197">
        <ele>153.2</ele>
        <time>2015-10-31T11:17:28Z</time>
      </trkpt>
      <trkpt lat="44.48645" lon="1.84194">
        <ele>153.2</ele>
        <time>2015-10-31T11:17:29Z</time>
      </trkpt>
      <trkpt lat="44.48642" lon="1.84191">
        <ele>153.2</ele>
        <time>2015-10-31T11:17:30Z</time>
      </trkpt>
      <trkpt lat="44.4864" lon="1.84188">
        <ele>153.2</ele>
        <time>2015-10-31T11:17:31Z</time>
      </trkpt>
      <trkpt lat="44.48637" lon="1.84186">
        <ele>153.2</ele>
        <time>2015-10-31T11:17:32Z</time>
      </trkpt>
      <trkpt lat="44.48634" lon="1.84183">
        <ele>153.2</ele>
        <time>2015-10-31T11:17:33Z</time>
      </trkpt>
      <trkpt lat="44.4863" lon="1.8418">
        <ele>153.2</ele>
        <time>2015-10-31T11:17:34Z</time>
      </trkpt>
      <trkpt lat="44.48626" lon="1.8418">
        <ele>153.3</ele>
        <time>2015-10-31T11:17:35Z</time>
      </trkpt>
      <trkpt lat="44.48622" lon="1.84179">
        <ele>153.3</ele>
        <time>2015-10-31T11:17:36Z</time>
      </trkpt>
      <trkpt lat="44.48618" lon="1.84178">
        <ele>153.3</ele>
        <time>2015-10-31T11:17:37Z</time>
      </trkpt>
      <trkpt lat="44.48614" lon="1.84177">
        <ele>153.2</ele>
        <time>2015-10-31T11:17:38Z</time>
      </trkpt>
      <trkpt lat="44.48611" lon="1.84176">
        <ele>153.2</ele>
        <time>2015-10-31T11:17:39Z</time>
      </trkpt>
      <trkpt lat="44.48606" lon="1.84176">
        <ele>153.1</ele>
        <time>2015-10-31T11:17:40Z</time>
      </trkpt>
      <trkpt lat="44.48602" lon="1.84175">
        <ele>153.1</ele>
        <time>2015-10-31T11:17:41Z</time>
      </trkpt>
      <trkpt lat="44.48599" lon="1.84175">
        <ele>153.1</ele>
        <time>2015-10-31T11:17:42Z</time>
      </trkpt>
      <trkpt lat="44.48595" lon="1.84174">
        <ele>153</ele>
        <time>2015-10-31T11:17:43Z</time>
      </trkpt>
      <trkpt lat="44.48591" lon="1.84172">
        <ele>152.9</ele>
        <time>2015-10-31T11:17:44Z</time>
      </trkpt>
      <trkpt lat="44.48588" lon="1.84169">
        <ele>152.8</ele>
        <time>2015-10-31T11:17:45Z</time>
      </trkpt>
      <trkpt lat="44.48584" lon="1.84165">
        <ele>152.7</ele>
        <time>2015-10-31T11:17:46Z</time>
      </trkpt>
      <trkpt lat="44.48582" lon="1.84161">
        <ele>152.6</ele>
        <time>2015-10-31T11:17:47Z</time>
      </trkpt>
      <trkpt lat="44.48579" lon="1.84157">
        <ele>152.4</ele>
        <time>2015-10-31T11:17:48Z</time>
      </trkpt>
      <trkpt lat="44.48579" lon="1.8415">
        <ele>152.2</ele>
        <time>2015-10-31T11:17:49Z</time>
      </trkpt>
      <trkpt lat="44.48579" lon="1.84144">
        <ele>152</ele>
        <time>2015-10-31T11:17:50Z</time>
      </trkpt>
      <trkpt lat="44.48579" lon="1.84139">
        <ele>151.9</ele>
        <time>2015-10-31T11:17:51Z</time>
      </trkpt>
      <trkpt lat="44.4858" lon="1.84133">
        <ele>151.7</ele>
        <time>2015-10-31T11:17:52Z</time>
      </trkpt>
      <trkpt lat="44.4858" lon="1.84127">
        <ele>151.5</ele>
        <time>2015-10-31T11:17:53Z</time>
      </trkpt>
      <trkpt lat="44.48581" lon="1.84119">
        <ele>151.5</ele>
        <time>2015-10-31T11:17:54Z</time>
      </trkpt>
      <trkpt lat="44.48581" lon="1.84114">
        <ele>151.5</ele>
        <time>2015-10-31T11:17:55Z</time>
      </trkpt>
      <trkpt lat="44.48581" lon="1.84108">
        <ele>151.5</ele>
        <time>2015-10-31T11:17:56Z</time>
      </trkpt>
      <trkpt lat="44.4858" lon="1.84102">
        <ele>151.4</ele>
        <time>2015-10-31T11:17:57Z</time>
      </trkpt>
      <trkpt lat="44.4858" lon="1.84096">
        <ele>151.4</ele>
        <time>2015-10-31T11:17:58Z</time>
      </trkpt>
      <trkpt lat="44.4858" lon="1.8409">
        <ele>151.4</ele>
        <time>2015-10-31T11:17:59Z</time>
      </trkpt>
      <trkpt lat="44.48581" lon="1.84083">
        <ele>151.4</ele>
        <time>2015-10-31T11:18:00Z</time>
      </trkpt>
      <trkpt lat="44.48582" lon="1.84079">
        <ele>151.5</ele>
        <time>2015-10-31T11:18:01Z</time>
      </trkpt>
      <trkpt lat="44.48583" lon="1.84072">
        <ele>151.5</ele>
        <time>2015-10-31T11:18:02Z</time>
      </trkpt>
      <trkpt lat="44.48584" lon="1.84065">
        <ele>151.5</ele>
        <time>2015-10-31T11:18:03Z</time>
      </trkpt>
      <trkpt lat="44.48583" lon="1.84059">
        <ele>151.5</ele>
        <time>2015-10-31T11:18:04Z</time>
      </trkpt>
      <trkpt lat="44.48584" lon="1.84053">
        <ele>151.5</ele>
        <time>2015-10-31T11:18:05Z</time>
      </trkpt>
      <trkpt lat="44.48584" lon="1.84047">
        <ele>151.5</ele>
        <time>2015-10-31T11:18:06Z</time>
      </trkpt>
      <trkpt lat="44.48584" lon="1.84041">
        <ele>151.5</ele>
        <time>2015-10-31T11:18:07Z</time>
      </trkpt>
      <trkpt lat="44.48583" lon="1.84035">
        <ele>151.6</ele>
        <time>2015-10-31T11:18:08Z</time>
      </trkpt>
      <trkpt lat="44.48583" lon="1.8403">
        <ele>151.8</ele>
        <time>2015-10-31T11:18:09Z</time>
      </trkpt>
      <trkpt lat="44.48583" lon="1.84024">
        <ele>151.9</ele>
        <time>2015-10-31T11:18:10Z</time>
      </trkpt>
      <trkpt lat="44.48583" lon="1.8402">
        <ele>152</ele>
        <time>2015-10-31T11:18:11Z</time>
      </trkpt>
      <trkpt lat="44.48583" lon="1.84015">
        <ele>152.1</ele>
        <time>2015-10-31T11:18:12Z</time>
      </trkpt>
      <trkpt lat="44.48583" lon="1.8401">
        <ele>152.2</ele>
        <time>2015-10-31T11:18:13Z</time>
      </trkpt>
      <trkpt lat="44.48583" lon="1.84005">
        <ele>152.4</ele>
        <time>2015-10-31T11:18:14Z</time>
      </trkpt>
      <trkpt lat="44.48584" lon="1.84">
        <ele>152.5</ele>
        <time>2015-10-31T11:18:15Z</time>
      </trkpt>
      <trkpt lat="44.48585" lon="1.83996">
        <ele>152.7</ele>
        <time>2015-10-31T11:18:16Z</time>
      </trkpt>
      <trkpt lat="44.48586" lon="1.83992">
        <ele>152.8</ele>
        <time>2015-10-31T11:18:17Z</time>
      </trkpt>
      <trkpt lat="44.48586" lon="1.83987">
        <ele>152.9</ele>
        <time>2015-10-31T11:18:18Z</time>
      </trkpt>
      <trkpt lat="44.48586" lon="1.83983">
        <ele>153</ele>
        <time>2015-10-31T11:18:19Z</time>
      </trkpt>
      <trkpt lat="44.48586" lon="1.83978">
        <ele>153.1</ele>
        <time>2015-10-31T11:18:20Z</time>
      </trkpt>
      <trkpt lat="44.48587" lon="1.83973">
        <ele>153.3</ele>
        <time>2015-10-31T11:18:21Z</time>
      </trkpt>
      <trkpt lat="44.48588" lon="1.83968">
        <ele>153.4</ele>
        <time>2015-10-31T11:18:22Z</time>
      </trkpt>
      <trkpt lat="44.48588" lon="1.83964">
        <ele>153.6</ele>
        <time>2015-10-31T11:18:23Z</time>
      </trkpt>
      <trkpt lat="44.48589" lon="1.83959">
        <ele>153.7</ele>
        <time>2015-10-31T11:18:24Z</time>
      </trkpt>
      <trkpt lat="44.48589" lon="1.83954">
        <ele>154.4</ele>
        <time>2015-10-31T11:18:25Z</time>
      </trkpt>
      <trkpt lat="44.48589" lon="1.83949">
        <ele>155.1</ele>
        <time>2015-10-31T11:18:26Z</time>
      </trkpt>
      <trkpt lat="44.48589" lon="1.83945">
        <ele>155.9</ele>
        <time>2015-10-31T11:18:27Z</time>
      </trkpt>
      <trkpt lat="44.48589" lon="1.8394">
        <ele>156.6</ele>
        <time>2015-10-31T11:18:28Z</time>
      </trkpt>
      <trkpt lat="44.48588" lon="1.83935">
        <ele>157.4</ele>
        <time>2015-10-31T11:18:29Z</time>
      </trkpt>
      <trkpt lat="44.48587" lon="1.8393">
        <ele>158.1</ele>
        <time>2015-10-31T11:18:30Z</time>
      </trkpt>
      <trkpt lat="44.48586" lon="1.83925">
        <ele>158.9</ele>
        <time>2015-10-31T11:18:31Z</time>
      </trkpt>
      <trkpt lat="44.48586" lon="1.83921">
        <ele>159.6</ele>
        <time>2015-10-31T11:18:32Z</time>
      </trkpt>
      <trkpt lat="44.48586" lon="1.83914">
        <ele>160.8</ele>
        <time>2015-10-31T11:18:34Z</time>
      </trkpt>
      <trkpt lat="44.48586" lon="1.83906">
        <ele>162</ele>
        <time>2015-10-31T11:18:36Z</time>
      </trkpt>
      <trkpt lat="44.48586" lon="1.83899">
        <ele>163.1</ele>
        <time>2015-10-31T11:18:38Z</time>
      </trkpt>
      <trkpt lat="44.48585" lon="1.83892">
        <ele>164.2</ele>
        <time>2015-10-31T11:18:40Z</time>
      </trkpt>
      <trkpt lat="44.48583" lon="1.83886">
        <ele>165.3</ele>
        <time>2015-10-31T11:18:42Z</time>
      </trkpt>
      <trkpt lat="44.48579" lon="1.83881">
        <ele>166.2</ele>
        <time>2015-10-31T11:18:44Z</time>
      </trkpt>
      <trkpt lat="44.48576" lon="1.83876">
        <ele>167</ele>
        <time>2015-10-31T11:18:46Z</time>
      </trkpt>
      <trkpt lat="44.48572" lon="1.83872">
        <ele>168.4</ele>
        <time>2015-10-31T11:18:48Z</time>
      </trkpt>
      <trkpt lat="44.48568" lon="1.83868">
        <ele>170</ele>
        <time>2015-10-31T11:18:50Z</time>
      </trkpt>
      <trkpt lat="44.48563" lon="1.83864">
        <ele>171.4</ele>
        <time>2015-10-31T11:18:52Z</time>
      </trkpt>
      <trkpt lat="44.48559" lon="1.8386">
        <ele>172.8</ele>
        <time>2015-10-31T11:18:54Z</time>
      </trkpt>
      <trkpt lat="44.48554" lon="1.83856">
        <ele>174.2</ele>
        <time>2015-10-31T11:18:56Z</time>
      </trkpt>
      <trkpt lat="44.4855" lon="1.83854">
        <ele>175.2</ele>
        <time>2015-10-31T11:18:58Z</time>
      </trkpt>
      <trkpt lat="44.48546" lon="1.83851">
        <ele>176.3</ele>
        <time>2015-10-31T11:19:00Z</time>
      </trkpt>
      <trkpt lat="44.48541" lon="1.83848">
        <ele>177.2</ele>
        <time>2015-10-31T11:19:02Z</time>
      </trkpt>
      <trkpt lat="44.48537" lon="1.83846">
        <ele>177.5</ele>
        <time>2015-10-31T11:19:04Z</time>
      </trkpt>
      <trkpt lat="44.48532" lon="1.83843">
        <ele>178</ele>
        <time>2015-10-31T11:19:06Z</time>
      </trkpt>
      <trkpt lat="44.48529" lon="1.83841">
        <ele>178.3</ele>
        <time>2015-10-31T11:19:07Z</time>
      </trkpt>
      <trkpt lat="44.48526" lon="1.8384">
        <ele>178.6</ele>
        <time>2015-10-31T11:19:08Z</time>
      </trkpt>
      <trkpt lat="44.48524" lon="1.83838">
        <ele>178.8</ele>
        <time>2015-10-31T11:19:09Z</time>
      </trkpt>
      <trkpt lat="44.48519" lon="1.83836">
        <ele>179.1</ele>
        <time>2015-10-31T11:19:11Z</time>
      </trkpt>
      <trkpt lat="44.48514" lon="1.83834">
        <ele>179.2</ele>
        <time>2015-10-31T11:19:13Z</time>
      </trkpt>
      <trkpt lat="44.48508" lon="1.83833">
        <ele>179.1</ele>
        <time>2015-10-31T11:19:15Z</time>
      </trkpt>
      <trkpt lat="44.48505" lon="1.83832">
        <ele>179</ele>
        <time>2015-10-31T11:19:16Z</time>
      </trkpt>
      <trkpt lat="44.48502" lon="1.83831">
        <ele>179</ele>
        <time>2015-10-31T11:19:17Z</time>
      </trkpt>
      <trkpt lat="44.48499" lon="1.8383">
        <ele>179</ele>
        <time>2015-10-31T11:19:18Z</time>
      </trkpt>
      <trkpt lat="44.48496" lon="1.83829">
        <ele>179.1</ele>
        <time>2015-10-31T11:19:19Z</time>
      </trkpt>
      <trkpt lat="44.48493" lon="1.83828">
        <ele>179.1</ele>
        <time>2015-10-31T11:19:20Z</time>
      </trkpt>
      <trkpt lat="44.4849" lon="1.83827">
        <ele>179.1</ele>
        <time>2015-10-31T11:19:21Z</time>
      </trkpt>
      <trkpt lat="44.48486" lon="1.83826">
        <ele>179.1</ele>
        <time>2015-10-31T11:19:22Z</time>
      </trkpt>
      <trkpt lat="44.48483" lon="1.83825">
        <ele>178.9</ele>
        <time>2015-10-31T11:19:23Z</time>
      </trkpt>
      <trkpt lat="44.4848" lon="1.83825">
        <ele>178.7</ele>
        <time>2015-10-31T11:19:24Z</time>
      </trkpt>
      <trkpt lat="44.48477" lon="1.83825">
        <ele>178.4</ele>
        <time>2015-10-31T11:19:25Z</time>
      </trkpt>
      <trkpt lat="44.48474" lon="1.83825">
        <ele>178.3</ele>
        <time>2015-10-31T11:19:26Z</time>
      </trkpt>
      <trkpt lat="44.48471" lon="1.83824">
        <ele>178.1</ele>
        <time>2015-10-31T11:19:27Z</time>
      </trkpt>
      <trkpt lat="44.48468" lon="1.83824">
        <ele>177.9</ele>
        <time>2015-10-31T11:19:28Z</time>
      </trkpt>
      <trkpt lat="44.48465" lon="1.83823">
        <ele>177.8</ele>
        <time>2015-10-31T11:19:29Z</time>
      </trkpt>
      <trkpt lat="44.48461" lon="1.83822">
        <ele>177.7</ele>
        <time>2015-10-31T11:19:30Z</time>
      </trkpt>
      <trkpt lat="44.48458" lon="1.83821">
        <ele>177.8</ele>
        <time>2015-10-31T11:19:31Z</time>
      </trkpt>
      <trkpt lat="44.48455" lon="1.8382">
        <ele>177.8</ele>
        <time>2015-10-31T11:19:32Z</time>
      </trkpt>
      <trkpt lat="44.48452" lon="1.83818">
        <ele>178</ele>
        <time>2015-10-31T11:19:33Z</time>
      </trkpt>
      <trkpt lat="44.48449" lon="1.83817">
        <ele>178.1</ele>
        <time>2015-10-31T11:19:34Z</time>
      </trkpt>
      <trkpt lat="44.48446" lon="1.83815">
        <ele>178.3</ele>
        <time>2015-10-31T11:19:35Z</time>
      </trkpt>
      <trkpt lat="44.48443" lon="1.83814">
        <ele>178.4</ele>
        <time>2015-10-31T11:19:36Z</time>
      </trkpt>
      <trkpt lat="44.48439" lon="1.83812">
        <ele>178.5</ele>
        <time>2015-10-31T11:19:37Z</time>
      </trkpt>
      <trkpt lat="44.48436" lon="1.83811">
        <ele>178.5</ele>
        <time>2015-10-31T11:19:38Z</time>
      </trkpt>
      <trkpt lat="44.48433" lon="1.8381">
        <ele>178.5</ele>
        <time>2015-10-31T11:19:39Z</time>
      </trkpt>
      <trkpt lat="44.4843" lon="1.83808">
        <ele>178.6</ele>
        <time>2015-10-31T11:19:40Z</time>
      </trkpt>
      <trkpt lat="44.48427" lon="1.83807">
        <ele>178.6</ele>
        <time>2015-10-31T11:19:41Z</time>
      </trkpt>
      <trkpt lat="44.48424" lon="1.83805">
        <ele>178.8</ele>
        <time>2015-10-31T11:19:42Z</time>
      </trkpt>
      <trkpt lat="44.48421" lon="1.83804">
        <ele>178.9</ele>
        <time>2015-10-31T11:19:43Z</time>
      </trkpt>
      <trkpt lat="44.48418" lon="1.83802">
        <ele>179</ele>
        <time>2015-10-31T11:19:44Z</time>
      </trkpt>
      <trkpt lat="44.48415" lon="1.83801">
        <ele>179</ele>
        <time>2015-10-31T11:19:45Z</time>
      </trkpt>
      <trkpt lat="44.48412" lon="1.83799">
        <ele>179</ele>
        <time>2015-10-31T11:19:46Z</time>
      </trkpt>
      <trkpt lat="44.48409" lon="1.83798">
        <ele>179</ele>
        <time>2015-10-31T11:19:47Z</time>
      </trkpt>
      <trkpt lat="44.48406" lon="1.83797">
        <ele>178.9</ele>
        <time>2015-10-31T11:19:48Z</time>
      </trkpt>
      <trkpt lat="44.48403" lon="1.83795">
        <ele>179</ele>
        <time>2015-10-31T11:19:49Z</time>
      </trkpt>
      <trkpt lat="44.48399" lon="1.83793">
        <ele>179.1</ele>
        <time>2015-10-31T11:19:50Z</time>
      </trkpt>
      <trkpt lat="44.48396" lon="1.83792">
        <ele>179.1</ele>
        <time>2015-10-31T11:19:51Z</time>
      </trkpt>
      <trkpt lat="44.48393" lon="1.8379">
        <ele>179.4</ele>
        <time>2015-10-31T11:19:52Z</time>
      </trkpt>
      <trkpt lat="44.4839" lon="1.83789">
        <ele>179.7</ele>
        <time>2015-10-31T11:19:53Z</time>
      </trkpt>
      <trkpt lat="44.48387" lon="1.83787">
        <ele>180</ele>
        <time>2015-10-31T11:19:54Z</time>
      </trkpt>
      <trkpt lat="44.48384" lon="1.83786">
        <ele>180.3</ele>
        <time>2015-10-31T11:19:55Z</time>
      </trkpt>
      <trkpt lat="44.4838" lon="1.83785">
        <ele>180.5</ele>
        <time>2015-10-31T11:19:56Z</time>
      </trkpt>
      <trkpt lat="44.48377" lon="1.83783">
        <ele>180.8</ele>
        <time>2015-10-31T11:19:57Z</time>
      </trkpt>
      <trkpt lat="44.48374" lon="1.83782">
        <ele>181.1</ele>
        <time>2015-10-31T11:19:58Z</time>
      </trkpt>
      <trkpt lat="44.48371" lon="1.8378">
        <ele>181.4</ele>
        <time>2015-10-31T11:19:59Z</time>
      </trkpt>
      <trkpt lat="44.48368" lon="1.83779">
        <ele>181.5</ele>
        <time>2015-10-31T11:20:00Z</time>
      </trkpt>
      <trkpt lat="44.48365" lon="1.83778">
        <ele>181.5</ele>
        <time>2015-10-31T11:20:01Z</time>
      </trkpt>
      <trkpt lat="44.48362" lon="1.83776">
        <ele>181.5</ele>
        <time>2015-10-31T11:20:02Z</time>
      </trkpt>
      <trkpt lat="44.48359" lon="1.83775">
        <ele>181.5</ele>
        <time>2015-10-31T11:20:03Z</time>
      </trkpt>
      <trkpt lat="44.48356" lon="1.83774">
        <ele>181.5</ele>
        <time>2015-10-31T11:20:04Z</time>
      </trkpt>
      <trkpt lat="44.48352" lon="1.83773">
        <ele>181.6</ele>
        <time>2015-10-31T11:20:05Z</time>
      </trkpt>
      <trkpt lat="44.48349" lon="1.83771">
        <ele>181.9</ele>
        <time>2015-10-31T11:20:06Z</time>
      </trkpt>
      <trkpt lat="44.48346" lon="1.83769">
        <ele>182.3</ele>
        <time>2015-10-31T11:20:07Z</time>
      </trkpt>
      <trkpt lat="44.48342" lon="1.83767">
        <ele>182.7</ele>
        <time>2015-10-31T11:20:08Z</time>
      </trkpt>
      <trkpt lat="44.48338" lon="1.83765">
        <ele>183</ele>
        <time>2015-10-31T11:20:09Z</time>
      </trkpt>
      <trkpt lat="44.48335" lon="1.83763">
        <ele>183.2</ele>
        <time>2015-10-31T11:20:10Z</time>
      </trkpt>
      <trkpt lat="44.48331" lon="1.83761">
        <ele>183.6</ele>
        <time>2015-10-31T11:20:11Z</time>
      </trkpt>
      <trkpt lat="44.48327" lon="1.83759">
        <ele>184</ele>
        <time>2015-10-31T11:20:12Z</time>
      </trkpt>
      <trkpt lat="44.48324" lon="1.83757">
        <ele>184.5</ele>
        <time>2015-10-31T11:20:13Z</time>
      </trkpt>
      <trkpt lat="44.4832" lon="1.83755">
        <ele>185</ele>
        <time>2015-10-31T11:20:14Z</time>
      </trkpt>
      <trkpt lat="44.48316" lon="1.83753">
        <ele>185.3</ele>
        <time>2015-10-31T11:20:15Z</time>
      </trkpt>
      <trkpt lat="44.48312" lon="1.83751">
        <ele>185.9</ele>
        <time>2015-10-31T11:20:16Z</time>
      </trkpt>
      <trkpt lat="44.48308" lon="1.83749">
        <ele>186.4</ele>
        <time>2015-10-31T11:20:17Z</time>
      </trkpt>
      <trkpt lat="44.48304" lon="1.83746">
        <ele>187</ele>
        <time>2015-10-31T11:20:18Z</time>
      </trkpt>
      <trkpt lat="44.483" lon="1.83744">
        <ele>187.4</ele>
        <time>2015-10-31T11:20:19Z</time>
      </trkpt>
      <trkpt lat="44.48296" lon="1.83742">
        <ele>187.7</ele>
        <time>2015-10-31T11:20:20Z</time>
      </trkpt>
      <trkpt lat="44.48292" lon="1.8374">
        <ele>188</ele>
        <time>2015-10-31T11:20:21Z</time>
      </trkpt>
      <trkpt lat="44.48288" lon="1.83739">
        <ele>188.5</ele>
        <time>2015-10-31T11:20:22Z</time>
      </trkpt>
      <trkpt lat="44.48284" lon="1.83737">
        <ele>189.1</ele>
        <time>2015-10-31T11:20:23Z</time>
      </trkpt>
      <trkpt lat="44.48279" lon="1.83735">
        <ele>189.7</ele>
        <time>2015-10-31T11:20:24Z</time>
      </trkpt>
      <trkpt lat="44.48275" lon="1.83733">
        <ele>190.4</ele>
        <time>2015-10-31T11:20:25Z</time>
      </trkpt>
      <trkpt lat="44.48271" lon="1.83731">
        <ele>191</ele>
        <time>2015-10-31T11:20:26Z</time>
      </trkpt>
      <trkpt lat="44.48267" lon="1.83729">
        <ele>191.6</ele>
        <time>2015-10-31T11:20:27Z</time>
      </trkpt>
      <trkpt lat="44.48263" lon="1.83728">
        <ele>192.1</ele>
        <time>2015-10-31T11:20:28Z</time>
      </trkpt>
      <trkpt lat="44.4826" lon="1.83726">
        <ele>192.6</ele>
        <time>2015-10-31T11:20:29Z</time>
      </trkpt>
      <trkpt lat="44.48256" lon="1.83725">
        <ele>192.8</ele>
        <time>2015-10-31T11:20:30Z</time>
      </trkpt>
      <trkpt lat="44.48252" lon="1.83724">
        <ele>193</ele>
        <time>2015-10-31T11:20:31Z</time>
      </trkpt>
      <trkpt lat="44.48248" lon="1.83722">
        <ele>193.5</ele>
        <time>2015-10-31T11:20:32Z</time>
      </trkpt>
      <trkpt lat="44.48245" lon="1.8372">
        <ele>193.9</ele>
        <time>2015-10-31T11:20:33Z</time>
      </trkpt>
      <trkpt lat="44.48241" lon="1.83719">
        <ele>194.3</ele>
        <time>2015-10-31T11:20:34Z</time>
      </trkpt>
      <trkpt lat="44.48238" lon="1.83718">
        <ele>194.3</ele>
        <time>2015-10-31T11:20:35Z</time>
      </trkpt>
      <trkpt lat="44.48234" lon="1.83718">
        <ele>194.2</ele>
        <time>2015-10-31T11:20:36Z</time>
      </trkpt>
      <trkpt lat="44.48231" lon="1.83717">
        <ele>194.1</ele>
        <time>2015-10-31T11:20:37Z</time>
      </trkpt>
      <trkpt lat="44.48228" lon="1.83717">
        <ele>193.9</ele>
        <time>2015-10-31T11:20:38Z</time>
      </trkpt>
      <trkpt lat="44.48225" lon="1.83716">
        <ele>193.9</ele>
        <time>2015-10-31T11:20:39Z</time>
      </trkpt>
      <trkpt lat="44.48221" lon="1.83716">
        <ele>193.8</ele>
        <time>2015-10-31T11:20:40Z</time>
      </trkpt>
      <trkpt lat="44.48218" lon="1.83715">
        <ele>193.8</ele>
        <time>2015-10-31T11:20:41Z</time>
      </trkpt>
      <trkpt lat="44.48215" lon="1.83714">
        <ele>193.7</ele>
        <time>2015-10-31T11:20:42Z</time>
      </trkpt>
      <trkpt lat="44.48211" lon="1.83714">
        <ele>193.7</ele>
        <time>2015-10-31T11:20:43Z</time>
      </trkpt>
      <trkpt lat="44.48208" lon="1.83712">
        <ele>193.8</ele>
        <time>2015-10-31T11:20:44Z</time>
      </trkpt>
      <trkpt lat="44.48204" lon="1.83711">
        <ele>193.9</ele>
        <time>2015-10-31T11:20:45Z</time>
      </trkpt>
      <trkpt lat="44.482" lon="1.8371">
        <ele>193.9</ele>
        <time>2015-10-31T11:20:46Z</time>
      </trkpt>
      <trkpt lat="44.48197" lon="1.8371">
        <ele>193.7</ele>
        <time>2015-10-31T11:20:47Z</time>
      </trkpt>
      <trkpt lat="44.48193" lon="1.83709">
        <ele>193.5</ele>
        <time>2015-10-31T11:20:48Z</time>
      </trkpt>
      <trkpt lat="44.4819" lon="1.83709">
        <ele>193.2</ele>
        <time>2015-10-31T11:20:49Z</time>
      </trkpt>
      <trkpt lat="44.48186" lon="1.83708">
        <ele>193.1</ele>
        <time>2015-10-31T11:20:50Z</time>
      </trkpt>
      <trkpt lat="44.48183" lon="1.83708">
        <ele>192.9</ele>
        <time>2015-10-31T11:20:51Z</time>
      </trkpt>
      <trkpt lat="44.4818" lon="1.83707">
        <ele>192.8</ele>
        <time>2015-10-31T11:20:52Z</time>
      </trkpt>
      <trkpt lat="44.48176" lon="1.83707">
        <ele>192.8</ele>
        <time>2015-10-31T11:20:53Z</time>
      </trkpt>
      <trkpt lat="44.48173" lon="1.83706">
        <ele>193</ele>
        <time>2015-10-31T11:20:54Z</time>
      </trkpt>
      <trkpt lat="44.48169" lon="1.83705">
        <ele>193.3</ele>
        <time>2015-10-31T11:20:55Z</time>
      </trkpt>
      <trkpt lat="44.48166" lon="1.83704">
        <ele>193.4</ele>
        <time>2015-10-31T11:20:56Z</time>
      </trkpt>
      <trkpt lat="44.48163" lon="1.83703">
        <ele>193.5</ele>
        <time>2015-10-31T11:20:57Z</time>
      </trkpt>
      <trkpt lat="44.48159" lon="1.83703">
        <ele>193.2</ele>
        <time>2015-10-31T11:20:58Z</time>
      </trkpt>
      <trkpt lat="44.48156" lon="1.83702">
        <ele>193.2</ele>
        <time>2015-10-31T11:20:59Z</time>
      </trkpt>
      <trkpt lat="44.48153" lon="1.83701">
        <ele>193.5</ele>
        <time>2015-10-31T11:21:00Z</time>
      </trkpt>
      <trkpt lat="44.48149" lon="1.837">
        <ele>193.7</ele>
        <time>2015-10-31T11:21:01Z</time>
      </trkpt>
      <trkpt lat="44.48146" lon="1.83699">
        <ele>194</ele>
        <time>2015-10-31T11:21:02Z</time>
      </trkpt>
      <trkpt lat="44.48143" lon="1.83698">
        <ele>194.3</ele>
        <time>2015-10-31T11:21:03Z</time>
      </trkpt>
      <trkpt lat="44.4814" lon="1.83698">
        <ele>194.2</ele>
        <time>2015-10-31T11:21:04Z</time>
      </trkpt>
      <trkpt lat="44.48137" lon="1.83697">
        <ele>194.3</ele>
        <time>2015-10-31T11:21:05Z</time>
      </trkpt>
      <trkpt lat="44.48131" lon="1.83696">
        <ele>194.4</ele>
        <time>2015-10-31T11:21:07Z</time>
      </trkpt>
      <trkpt lat="44.48126" lon="1.83695">
        <ele>194.6</ele>
        <time>2015-10-31T11:21:09Z</time>
      </trkpt>
      <trkpt lat="44.48124" lon="1.83694">
        <ele>194.9</ele>
        <time>2015-10-31T11:21:10Z</time>
      </trkpt>
      <trkpt lat="44.48121" lon="1.83692">
        <ele>195.3</ele>
        <time>2015-10-31T11:21:11Z</time>
      </trkpt>
      <trkpt lat="44.48118" lon="1.83691">
        <ele>196</ele>
        <time>2015-10-31T11:21:12Z</time>
      </trkpt>
      <trkpt lat="44.48115" lon="1.83689">
        <ele>196.5</ele>
        <time>2015-10-31T11:21:13Z</time>
      </trkpt>
      <trkpt lat="44.48112" lon="1.83688">
        <ele>196.7</ele>
        <time>2015-10-31T11:21:14Z</time>
      </trkpt>
      <trkpt lat="44.48109" lon="1.83687">
        <ele>197</ele>
        <time>2015-10-31T11:21:15Z</time>
      </trkpt>
      <trkpt lat="44.48106" lon="1.83686">
        <ele>197.1</ele>
        <time>2015-10-31T11:21:16Z</time>
      </trkpt>
      <trkpt lat="44.48103" lon="1.83684">
        <ele>197.6</ele>
        <time>2015-10-31T11:21:17Z</time>
      </trkpt>
      <trkpt lat="44.48099" lon="1.83683">
        <ele>197.9</ele>
        <time>2015-10-31T11:21:18Z</time>
      </trkpt>
      <trkpt lat="44.48096" lon="1.83681">
        <ele>198.4</ele>
        <time>2015-10-31T11:21:19Z</time>
      </trkpt>
      <trkpt lat="44.48093" lon="1.8368">
        <ele>198.3</ele>
        <time>2015-10-31T11:21:20Z</time>
      </trkpt>
      <trkpt lat="44.48089" lon="1.83679">
        <ele>198.2</ele>
        <time>2015-10-31T11:21:21Z</time>
      </trkpt>
      <trkpt lat="44.48086" lon="1.83678">
        <ele>198.1</ele>
        <time>2015-10-31T11:21:22Z</time>
      </trkpt>
      <trkpt lat="44.48083" lon="1.83677">
        <ele>198.1</ele>
        <time>2015-10-31T11:21:23Z</time>
      </trkpt>
      <trkpt lat="44.4808" lon="1.83676">
        <ele>198.1</ele>
        <time>2015-10-31T11:21:24Z</time>
      </trkpt>
      <trkpt lat="44.48076" lon="1.83675">
        <ele>198</ele>
        <time>2015-10-31T11:21:25Z</time>
      </trkpt>
      <trkpt lat="44.48073" lon="1.83674">
        <ele>198</ele>
        <time>2015-10-31T11:21:26Z</time>
      </trkpt>
      <trkpt lat="44.4807" lon="1.83673">
        <ele>198</ele>
        <time>2015-10-31T11:21:27Z</time>
      </trkpt>
      <trkpt lat="44.48067" lon="1.83673">
        <ele>197.9</ele>
        <time>2015-10-31T11:21:28Z</time>
      </trkpt>
      <trkpt lat="44.48064" lon="1.83672">
        <ele>197.9</ele>
        <time>2015-10-31T11:21:29Z</time>
      </trkpt>
      <trkpt lat="44.48061" lon="1.8367">
        <ele>198.1</ele>
        <time>2015-10-31T11:21:30Z</time>
      </trkpt>
      <trkpt lat="44.48058" lon="1.83669">
        <ele>198.5</ele>
        <time>2015-10-31T11:21:31Z</time>
      </trkpt>
      <trkpt lat="44.48055" lon="1.83668">
        <ele>198.6</ele>
        <time>2015-10-31T11:21:32Z</time>
      </trkpt>
      <trkpt lat="44.48052" lon="1.83667">
        <ele>198.6</ele>
        <time>2015-10-31T11:21:33Z</time>
      </trkpt>
      <trkpt lat="44.48049" lon="1.83666">
        <ele>198.5</ele>
        <time>2015-10-31T11:21:34Z</time>
      </trkpt>
      <trkpt lat="44.48046" lon="1.83665">
        <ele>198.2</ele>
        <time>2015-10-31T11:21:35Z</time>
      </trkpt>
      <trkpt lat="44.48043" lon="1.83664">
        <ele>198.1</ele>
        <time>2015-10-31T11:21:36Z</time>
      </trkpt>
      <trkpt lat="44.4804" lon="1.83664">
        <ele>198</ele>
        <time>2015-10-31T11:21:37Z</time>
      </trkpt>
      <trkpt lat="44.48037" lon="1.83663">
        <ele>198</ele>
        <time>2015-10-31T11:21:38Z</time>
      </trkpt>
      <trkpt lat="44.48033" lon="1.8366">
        <ele>198.9</ele>
        <time>2015-10-31T11:21:40Z</time>
      </trkpt>
      <trkpt lat="44.4803" lon="1.83659">
        <ele>199.4</ele>
        <time>2015-10-31T11:21:41Z</time>
      </trkpt>
      <trkpt lat="44.48028" lon="1.83658">
        <ele>199.9</ele>
        <time>2015-10-31T11:21:42Z</time>
      </trkpt>
      <trkpt lat="44.48025" lon="1.83656">
        <ele>200.5</ele>
        <time>2015-10-31T11:21:43Z</time>
      </trkpt>
      <trkpt lat="44.48023" lon="1.83655">
        <ele>201</ele>
        <time>2015-10-31T11:21:44Z</time>
      </trkpt>
      <trkpt lat="44.4802" lon="1.83653">
        <ele>201.4</ele>
        <time>2015-10-31T11:21:45Z</time>
      </trkpt>
      <trkpt lat="44.48017" lon="1.83652">
        <ele>201.7</ele>
        <time>2015-10-31T11:21:46Z</time>
      </trkpt>
      <trkpt lat="44.48014" lon="1.83651">
        <ele>201.9</ele>
        <time>2015-10-31T11:21:47Z</time>
      </trkpt>
      <trkpt lat="44.48012" lon="1.8365">
        <ele>202.1</ele>
        <time>2015-10-31T11:21:48Z</time>
      </trkpt>
      <trkpt lat="44.48009" lon="1.83649">
        <ele>202.4</ele>
        <time>2015-10-31T11:21:49Z</time>
      </trkpt>
      <trkpt lat="44.48006" lon="1.83647">
        <ele>203</ele>
        <time>2015-10-31T11:21:50Z</time>
      </trkpt>
      <trkpt lat="44.48004" lon="1.83645">
        <ele>203.8</ele>
        <time>2015-10-31T11:21:51Z</time>
      </trkpt>
      <trkpt lat="44.48001" lon="1.83643">
        <ele>204.7</ele>
        <time>2015-10-31T11:21:52Z</time>
      </trkpt>
      <trkpt lat="44.47999" lon="1.8364">
        <ele>205.6</ele>
        <time>2015-10-31T11:21:53Z</time>
      </trkpt>
      <trkpt lat="44.47996" lon="1.83639">
        <ele>206.2</ele>
        <time>2015-10-31T11:21:54Z</time>
      </trkpt>
      <trkpt lat="44.47993" lon="1.83638">
        <ele>206.1</ele>
        <time>2015-10-31T11:21:55Z</time>
      </trkpt>
      <trkpt lat="44.4799" lon="1.83637">
        <ele>205.9</ele>
        <time>2015-10-31T11:21:56Z</time>
      </trkpt>
      <trkpt lat="44.47987" lon="1.83637">
        <ele>205.6</ele>
        <time>2015-10-31T11:21:57Z</time>
      </trkpt>
      <trkpt lat="44.47984" lon="1.83636">
        <ele>205.3</ele>
        <time>2015-10-31T11:21:58Z</time>
      </trkpt>
      <trkpt lat="44.47981" lon="1.83635">
        <ele>205.2</ele>
        <time>2015-10-31T11:21:59Z</time>
      </trkpt>
      <trkpt lat="44.47978" lon="1.83635">
        <ele>204.9</ele>
        <time>2015-10-31T11:22:00Z</time>
      </trkpt>
      <trkpt lat="44.47975" lon="1.83634">
        <ele>204.5</ele>
        <time>2015-10-31T11:22:01Z</time>
      </trkpt>
      <trkpt lat="44.47972" lon="1.83634">
        <ele>204.2</ele>
        <time>2015-10-31T11:22:02Z</time>
      </trkpt>
      <trkpt lat="44.47969" lon="1.83634">
        <ele>203.6</ele>
        <time>2015-10-31T11:22:03Z</time>
      </trkpt>
      <trkpt lat="44.47966" lon="1.83633">
        <ele>203.5</ele>
        <time>2015-10-31T11:22:04Z</time>
      </trkpt>
      <trkpt lat="44.47964" lon="1.83632">
        <ele>203.4</ele>
        <time>2015-10-31T11:22:05Z</time>
      </trkpt>
      <trkpt lat="44.47961" lon="1.83631">
        <ele>203.3</ele>
        <time>2015-10-31T11:22:06Z</time>
      </trkpt>
      <trkpt lat="44.47958" lon="1.8363">
        <ele>203.1</ele>
        <time>2015-10-31T11:22:07Z</time>
      </trkpt>
      <trkpt lat="44.47955" lon="1.83629">
        <ele>203.4</ele>
        <time>2015-10-31T11:22:08Z</time>
      </trkpt>
      <trkpt lat="44.47952" lon="1.83629">
        <ele>203.6</ele>
        <time>2015-10-31T11:22:09Z</time>
      </trkpt>
      <trkpt lat="44.4795" lon="1.83628">
        <ele>203.8</ele>
        <time>2015-10-31T11:22:10Z</time>
      </trkpt>
      <trkpt lat="44.47947" lon="1.83628">
        <ele>203.9</ele>
        <time>2015-10-31T11:22:11Z</time>
      </trkpt>
      <trkpt lat="44.47944" lon="1.83627">
        <ele>204.1</ele>
        <time>2015-10-31T11:22:12Z</time>
      </trkpt>
      <trkpt lat="44.47941" lon="1.83627">
        <ele>204.2</ele>
        <time>2015-10-31T11:22:13Z</time>
      </trkpt>
      <trkpt lat="44.47939" lon="1.83626">
        <ele>204.2</ele>
        <time>2015-10-31T11:22:14Z</time>
      </trkpt>
      <trkpt lat="44.47936" lon="1.83626">
        <ele>204.4</ele>
        <time>2015-10-31T11:22:15Z</time>
      </trkpt>
      <trkpt lat="44.47933" lon="1.83625">
        <ele>204.4</ele>
        <time>2015-10-31T11:22:16Z</time>
      </trkpt>
      <trkpt lat="44.4793" lon="1.83625">
        <ele>204.3</ele>
        <time>2015-10-31T11:22:17Z</time>
      </trkpt>
      <trkpt lat="44.47926" lon="1.83625">
        <ele>204.1</ele>
        <time>2015-10-31T11:22:18Z</time>
      </trkpt>
      <trkpt lat="44.47923" lon="1.83625">
        <ele>203.9</ele>
        <time>2015-10-31T11:22:19Z</time>
      </trkpt>
      <trkpt lat="44.4792" lon="1.83624">
        <ele>203.8</ele>
        <time>2015-10-31T11:22:20Z</time>
      </trkpt>
      <trkpt lat="44.47916" lon="1.83624">
        <ele>203.6</ele>
        <time>2015-10-31T11:22:21Z</time>
      </trkpt>
      <trkpt lat="44.47913" lon="1.83624">
        <ele>203.5</ele>
        <time>2015-10-31T11:22:22Z</time>
      </trkpt>
      <trkpt lat="44.4791" lon="1.83623">
        <ele>203.4</ele>
        <time>2015-10-31T11:22:23Z</time>
      </trkpt>
      <trkpt lat="44.47907" lon="1.83622">
        <ele>203.4</ele>
        <time>2015-10-31T11:22:24Z</time>
      </trkpt>
      <trkpt lat="44.47904" lon="1.83621">
        <ele>203.3</ele>
        <time>2015-10-31T11:22:25Z</time>
      </trkpt>
      <trkpt lat="44.47901" lon="1.8362">
        <ele>203.2</ele>
        <time>2015-10-31T11:22:26Z</time>
      </trkpt>
      <trkpt lat="44.47898" lon="1.83619">
        <ele>203</ele>
        <time>2015-10-31T11:22:27Z</time>
      </trkpt>
      <trkpt lat="44.47894" lon="1.83619">
        <ele>202.9</ele>
        <time>2015-10-31T11:22:28Z</time>
      </trkpt>
      <trkpt lat="44.47891" lon="1.83619">
        <ele>202.7</ele>
        <time>2015-10-31T11:22:29Z</time>
      </trkpt>
      <trkpt lat="44.47888" lon="1.83618">
        <ele>202.5</ele>
        <time>2015-10-31T11:22:30Z</time>
      </trkpt>
      <trkpt lat="44.47885" lon="1.83617">
        <ele>202.4</ele>
        <time>2015-10-31T11:22:31Z</time>
      </trkpt>
      <trkpt lat="44.47882" lon="1.83616">
        <ele>202.2</ele>
        <time>2015-10-31T11:22:32Z</time>
      </trkpt>
      <trkpt lat="44.47879" lon="1.83615">
        <ele>202.1</ele>
        <time>2015-10-31T11:22:33Z</time>
      </trkpt>
      <trkpt lat="44.47876" lon="1.83615">
        <ele>202</ele>
        <time>2015-10-31T11:22:34Z</time>
      </trkpt>
      <trkpt lat="44.47873" lon="1.83614">
        <ele>201.7</ele>
        <time>2015-10-31T11:22:35Z</time>
      </trkpt>
      <trkpt lat="44.4787" lon="1.83615">
        <ele>201.3</ele>
        <time>2015-10-31T11:22:36Z</time>
      </trkpt>
      <trkpt lat="44.47867" lon="1.83615">
        <ele>200.9</ele>
        <time>2015-10-31T11:22:37Z</time>
      </trkpt>
      <trkpt lat="44.47863" lon="1.83614">
        <ele>200.6</ele>
        <time>2015-10-31T11:22:39Z</time>
      </trkpt>
      <trkpt lat="44.47856" lon="1.83612">
        <ele>199.9</ele>
        <time>2015-10-31T11:23:31Z</time>
      </trkpt>
      <trkpt lat="44.47853" lon="1.83611">
        <ele>199.6</ele>
        <time>2015-10-31T11:23:32Z</time>
      </trkpt>
      <trkpt lat="44.47849" lon="1.83609">
        <ele>199.2</ele>
        <time>2015-10-31T11:23:34Z</time>
      </trkpt>
      <trkpt lat="44.47846" lon="1.83607">
        <ele>199</ele>
        <time>2015-10-31T11:23:35Z</time>
      </trkpt>
      <trkpt lat="44.47843" lon="1.83606">
        <ele>198.8</ele>
        <time>2015-10-31T11:23:36Z</time>
      </trkpt>
      <trkpt lat="44.4784" lon="1.83605">
        <ele>198.4</ele>
        <time>2015-10-31T11:23:37Z</time>
      </trkpt>
      <trkpt lat="44.47837" lon="1.83606">
        <ele>198</ele>
        <time>2015-10-31T11:23:38Z</time>
      </trkpt>
      <trkpt lat="44.47833" lon="1.83606">
        <ele>197.5</ele>
        <time>2015-10-31T11:23:39Z</time>
      </trkpt>
      <trkpt lat="44.47829" lon="1.83606">
        <ele>197</ele>
        <time>2015-10-31T11:23:40Z</time>
      </trkpt>
      <trkpt lat="44.47825" lon="1.83607">
        <ele>196.5</ele>
        <time>2015-10-31T11:23:41Z</time>
      </trkpt>
      <trkpt lat="44.47821" lon="1.83608">
        <ele>196</ele>
        <time>2015-10-31T11:23:42Z</time>
      </trkpt>
      <trkpt lat="44.47817" lon="1.83608">
        <ele>195.4</ele>
        <time>2015-10-31T11:23:43Z</time>
      </trkpt>
      <trkpt lat="44.47813" lon="1.83609">
        <ele>194.9</ele>
        <time>2015-10-31T11:23:44Z</time>
      </trkpt>
      <trkpt lat="44.47809" lon="1.83609">
        <ele>194.5</ele>
        <time>2015-10-31T11:23:45Z</time>
      </trkpt>
      <trkpt lat="44.47806" lon="1.83609">
        <ele>194</ele>
        <time>2015-10-31T11:23:46Z</time>
      </trkpt>
      <trkpt lat="44.47802" lon="1.83609">
        <ele>193.6</ele>
        <time>2015-10-31T11:23:47Z</time>
      </trkpt>
      <trkpt lat="44.47798" lon="1.8361">
        <ele>193.1</ele>
        <time>2015-10-31T11:23:48Z</time>
      </trkpt>
      <trkpt lat="44.47794" lon="1.83611">
        <ele>192.6</ele>
        <time>2015-10-31T11:23:49Z</time>
      </trkpt>
      <trkpt lat="44.47791" lon="1.83611">
        <ele>192.2</ele>
        <time>2015-10-31T11:23:50Z</time>
      </trkpt>
      <trkpt lat="44.47787" lon="1.83611">
        <ele>191.9</ele>
        <time>2015-10-31T11:23:51Z</time>
      </trkpt>
      <trkpt lat="44.47783" lon="1.83613">
        <ele>191.5</ele>
        <time>2015-10-31T11:23:52Z</time>
      </trkpt>
      <trkpt lat="44.4778" lon="1.83615">
        <ele>191.1</ele>
        <time>2015-10-31T11:23:53Z</time>
      </trkpt>
      <trkpt lat="44.47776" lon="1.83617">
        <ele>190.7</ele>
        <time>2015-10-31T11:23:54Z</time>
      </trkpt>
      <trkpt lat="44.47773" lon="1.8362">
        <ele>190.3</ele>
        <time>2015-10-31T11:23:55Z</time>
      </trkpt>
      <trkpt lat="44.47769" lon="1.83622">
        <ele>189.9</ele>
        <time>2015-10-31T11:23:56Z</time>
      </trkpt>
      <trkpt lat="44.47766" lon="1.83624">
        <ele>189.5</ele>
        <time>2015-10-31T11:23:57Z</time>
      </trkpt>
      <trkpt lat="44.47763" lon="1.83626">
        <ele>189.1</ele>
        <time>2015-10-31T11:23:58Z</time>
      </trkpt>
      <trkpt lat="44.47759" lon="1.83627">
        <ele>188.5</ele>
        <time>2015-10-31T11:23:59Z</time>
      </trkpt>
      <trkpt lat="44.47756" lon="1.83629">
        <ele>188</ele>
        <time>2015-10-31T11:24:00Z</time>
      </trkpt>
      <trkpt lat="44.47753" lon="1.8363">
        <ele>187.5</ele>
        <time>2015-10-31T11:24:01Z</time>
      </trkpt>
      <trkpt lat="44.4775" lon="1.83632">
        <ele>186.9</ele>
        <time>2015-10-31T11:24:02Z</time>
      </trkpt>
      <trkpt lat="44.47747" lon="1.83634">
        <ele>186.4</ele>
        <time>2015-10-31T11:24:03Z</time>
      </trkpt>
      <trkpt lat="44.47744" lon="1.83635">
        <ele>186</ele>
        <time>2015-10-31T11:24:04Z</time>
      </trkpt>
      <trkpt lat="44.4774" lon="1.83636">
        <ele>185.6</ele>
        <time>2015-10-31T11:24:05Z</time>
      </trkpt>
      <trkpt lat="44.47737" lon="1.83638">
        <ele>185.2</ele>
        <time>2015-10-31T11:24:06Z</time>
      </trkpt>
      <trkpt lat="44.47734" lon="1.83639">
        <ele>184.9</ele>
        <time>2015-10-31T11:24:07Z</time>
      </trkpt>
      <trkpt lat="44.47731" lon="1.83639">
        <ele>184.6</ele>
        <time>2015-10-31T11:24:08Z</time>
      </trkpt>
      <trkpt lat="44.47728" lon="1.8364">
        <ele>184.4</ele>
        <time>2015-10-31T11:24:09Z</time>
      </trkpt>
      <trkpt lat="44.47724" lon="1.8364">
        <ele>184.2</ele>
        <time>2015-10-31T11:24:10Z</time>
      </trkpt>
      <trkpt lat="44.47721" lon="1.83641">
        <ele>183.9</ele>
        <time>2015-10-31T11:24:11Z</time>
      </trkpt>
      <trkpt lat="44.47718" lon="1.83641">
        <ele>183.7</ele>
        <time>2015-10-31T11:24:12Z</time>
      </trkpt>
      <trkpt lat="44.47715" lon="1.83641">
        <ele>183.6</ele>
        <time>2015-10-31T11:24:13Z</time>
      </trkpt>
      <trkpt lat="44.47712" lon="1.83642">
        <ele>183.4</ele>
        <time>2015-10-31T11:24:14Z</time>
      </trkpt>
      <trkpt lat="44.47709" lon="1.83641">
        <ele>183.2</ele>
        <time>2015-10-31T11:24:15Z</time>
      </trkpt>
      <trkpt lat="44.47706" lon="1.83642">
        <ele>183.2</ele>
        <time>2015-10-31T11:24:16Z</time>
      </trkpt>
      <trkpt lat="44.47703" lon="1.83642">
        <ele>183.1</ele>
        <time>2015-10-31T11:24:17Z</time>
      </trkpt>
      <trkpt lat="44.477" lon="1.83643">
        <ele>183.1</ele>
        <time>2015-10-31T11:24:18Z</time>
      </trkpt>
      <trkpt lat="44.47697" lon="1.83643">
        <ele>183.1</ele>
        <time>2015-10-31T11:24:19Z</time>
      </trkpt>
      <trkpt lat="44.47694" lon="1.83643">
        <ele>183.1</ele>
        <time>2015-10-31T11:24:20Z</time>
      </trkpt>
      <trkpt lat="44.4769" lon="1.83643">
        <ele>183</ele>
        <time>2015-10-31T11:24:21Z</time>
      </trkpt>
      <trkpt lat="44.47687" lon="1.83642">
        <ele>183</ele>
        <time>2015-10-31T11:24:22Z</time>
      </trkpt>
      <trkpt lat="44.47684" lon="1.8364">
        <ele>183.1</ele>
        <time>2015-10-31T11:24:23Z</time>
      </trkpt>
      <trkpt lat="44.47681" lon="1.83638">
        <ele>183.1</ele>
        <time>2015-10-31T11:24:24Z</time>
      </trkpt>
      <trkpt lat="44.47678" lon="1.83637">
        <ele>183.1</ele>
        <time>2015-10-31T11:24:25Z</time>
      </trkpt>
      <trkpt lat="44.47675" lon="1.83636">
        <ele>183.1</ele>
        <time>2015-10-31T11:24:26Z</time>
      </trkpt>
      <trkpt lat="44.47673" lon="1.83634">
        <ele>183</ele>
        <time>2015-10-31T11:24:27Z</time>
      </trkpt>
      <trkpt lat="44.4767" lon="1.83632">
        <ele>183</ele>
        <time>2015-10-31T11:24:28Z</time>
      </trkpt>
      <trkpt lat="44.47667" lon="1.8363">
        <ele>183</ele>
        <time>2015-10-31T11:24:29Z</time>
      </trkpt>
      <trkpt lat="44.47665" lon="1.83628">
        <ele>182.9</ele>
        <time>2015-10-31T11:24:30Z</time>
      </trkpt>
      <trkpt lat="44.47662" lon="1.83626">
        <ele>182.9</ele>
        <time>2015-10-31T11:24:31Z</time>
      </trkpt>
      <trkpt lat="44.47659" lon="1.83624">
        <ele>182.9</ele>
        <time>2015-10-31T11:24:32Z</time>
      </trkpt>
      <trkpt lat="44.47657" lon="1.83622">
        <ele>182.8</ele>
        <time>2015-10-31T11:24:33Z</time>
      </trkpt>
      <trkpt lat="44.47652" lon="1.83619">
        <ele>182.8</ele>
        <time>2015-10-31T11:24:35Z</time>
      </trkpt>
      <trkpt lat="44.47649" lon="1.83618">
        <ele>182.8</ele>
        <time>2015-10-31T11:24:36Z</time>
      </trkpt>
      <trkpt lat="44.47647" lon="1.83616">
        <ele>182.7</ele>
        <time>2015-10-31T11:24:37Z</time>
      </trkpt>
      <trkpt lat="44.47644" lon="1.83614">
        <ele>182.7</ele>
        <time>2015-10-31T11:24:38Z</time>
      </trkpt>
      <trkpt lat="44.47641" lon="1.83611">
        <ele>182.7</ele>
        <time>2015-10-31T11:24:39Z</time>
      </trkpt>
      <trkpt lat="44.47639" lon="1.83608">
        <ele>182.7</ele>
        <time>2015-10-31T11:24:40Z</time>
      </trkpt>
      <trkpt lat="44.47636" lon="1.83606">
        <ele>182.7</ele>
        <time>2015-10-31T11:24:41Z</time>
      </trkpt>
      <trkpt lat="44.47633" lon="1.83603">
        <ele>182.7</ele>
        <time>2015-10-31T11:24:42Z</time>
      </trkpt>
      <trkpt lat="44.47631" lon="1.83601">
        <ele>182.7</ele>
        <time>2015-10-31T11:24:43Z</time>
      </trkpt>
      <trkpt lat="44.47628" lon="1.83599">
        <ele>182.7</ele>
        <time>2015-10-31T11:24:44Z</time>
      </trkpt>
      <trkpt lat="44.47625" lon="1.83596">
        <ele>182.7</ele>
        <time>2015-10-31T11:24:45Z</time>
      </trkpt>
      <trkpt lat="44.47623" lon="1.83593">
        <ele>182.7</ele>
        <time>2015-10-31T11:24:46Z</time>
      </trkpt>
      <trkpt lat="44.47621" lon="1.8359">
        <ele>182.6</ele>
        <time>2015-10-31T11:24:47Z</time>
      </trkpt>
      <trkpt lat="44.47618" lon="1.83587">
        <ele>182.6</ele>
        <time>2015-10-31T11:24:48Z</time>
      </trkpt>
      <trkpt lat="44.47616" lon="1.83584">
        <ele>182.6</ele>
        <time>2015-10-31T11:24:49Z</time>
      </trkpt>
      <trkpt lat="44.47614" lon="1.83581">
        <ele>182.5</ele>
        <time>2015-10-31T11:24:50Z</time>
      </trkpt>
      <trkpt lat="44.47612" lon="1.83577">
        <ele>182.5</ele>
        <time>2015-10-31T11:24:51Z</time>
      </trkpt>
      <trkpt lat="44.4761" lon="1.83574">
        <ele>182.4</ele>
        <time>2015-10-31T11:24:52Z</time>
      </trkpt>
      <trkpt lat="44.47608" lon="1.8357">
        <ele>182.4</ele>
        <time>2015-10-31T11:24:53Z</time>
      </trkpt>
      <trkpt lat="44.47606" lon="1.83567">
        <ele>182.3</ele>
        <time>2015-10-31T11:24:54Z</time>
      </trkpt>
      <trkpt lat="44.47604" lon="1.83563">
        <ele>182.2</ele>
        <time>2015-10-31T11:24:55Z</time>
      </trkpt>
      <trkpt lat="44.47602" lon="1.8356">
        <ele>182.1</ele>
        <time>2015-10-31T11:24:56Z</time>
      </trkpt>
      <trkpt lat="44.476" lon="1.83556">
        <ele>182</ele>
        <time>2015-10-31T11:24:57Z</time>
      </trkpt>
      <trkpt lat="44.47598" lon="1.83553">
        <ele>181.9</ele>
        <time>2015-10-31T11:24:58Z</time>
      </trkpt>
      <trkpt lat="44.47595" lon="1.83548">
        <ele>181.8</ele>
        <time>2015-10-31T11:24:59Z</time>
      </trkpt>
      <trkpt lat="44.47592" lon="1.83544">
        <ele>181.6</ele>
        <time>2015-10-31T11:25:00Z</time>
      </trkpt>
      <trkpt lat="44.4759" lon="1.8354">
        <ele>181.4</ele>
        <time>2015-10-31T11:25:01Z</time>
      </trkpt>
      <trkpt lat="44.47588" lon="1.83535">
        <ele>181.1</ele>
        <time>2015-10-31T11:25:02Z</time>
      </trkpt>
      <trkpt lat="44.47586" lon="1.83531">
        <ele>180.7</ele>
        <time>2015-10-31T11:25:03Z</time>
      </trkpt>
      <trkpt lat="44.47584" lon="1.83527">
        <ele>180.4</ele>
        <time>2015-10-31T11:25:04Z</time>
      </trkpt>
      <trkpt lat="44.47582" lon="1.83523">
        <ele>180.1</ele>
        <time>2015-10-31T11:25:05Z</time>
      </trkpt>
      <trkpt lat="44.4758" lon="1.83519">
        <ele>179.7</ele>
        <time>2015-10-31T11:25:06Z</time>
      </trkpt>
      <trkpt lat="44.47578" lon="1.83516">
        <ele>179.4</ele>
        <time>2015-10-31T11:25:07Z</time>
      </trkpt>
      <trkpt lat="44.47576" lon="1.83513">
        <ele>179.1</ele>
        <time>2015-10-31T11:25:08Z</time>
      </trkpt>
      <trkpt lat="44.47574" lon="1.8351">
        <ele>178.8</ele>
        <time>2015-10-31T11:25:09Z</time>
      </trkpt>
      <trkpt lat="44.47573" lon="1.83506">
        <ele>178.5</ele>
        <time>2015-10-31T11:25:10Z</time>
      </trkpt>
      <trkpt lat="44.47571" lon="1.83503">
        <ele>178.1</ele>
        <time>2015-10-31T11:25:11Z</time>
      </trkpt>
      <trkpt lat="44.47569" lon="1.83499">
        <ele>177.7</ele>
        <time>2015-10-31T11:25:12Z</time>
      </trkpt>
      <trkpt lat="44.47567" lon="1.83496">
        <ele>177.3</ele>
        <time>2015-10-31T11:25:13Z</time>
      </trkpt>
      <trkpt lat="44.47564" lon="1.83492">
        <ele>176.9</ele>
        <time>2015-10-31T11:25:14Z</time>
      </trkpt>
      <trkpt lat="44.47562" lon="1.83489">
        <ele>176.4</ele>
        <time>2015-10-31T11:25:15Z</time>
      </trkpt>
      <trkpt lat="44.4756" lon="1.83485">
        <ele>176</ele>
        <time>2015-10-31T11:25:16Z</time>
      </trkpt>
      <trkpt lat="44.47557" lon="1.83481">
        <ele>175.5</ele>
        <time>2015-10-31T11:25:17Z</time>
      </trkpt>
      <trkpt lat="44.47555" lon="1.83478">
        <ele>175</ele>
        <time>2015-10-31T11:25:18Z</time>
      </trkpt>
      <trkpt lat="44.47553" lon="1.83474">
        <ele>174.5</ele>
        <time>2015-10-31T11:25:19Z</time>
      </trkpt>
      <trkpt lat="44.47551" lon="1.8347">
        <ele>173.9</ele>
        <time>2015-10-31T11:25:20Z</time>
      </trkpt>
      <trkpt lat="44.47548" lon="1.83467">
        <ele>173.4</ele>
        <time>2015-10-31T11:25:21Z</time>
      </trkpt>
      <trkpt lat="44.47546" lon="1.83463">
        <ele>172.8</ele>
        <time>2015-10-31T11:25:22Z</time>
      </trkpt>
      <trkpt lat="44.47543" lon="1.83459">
        <ele>172.3</ele>
        <time>2015-10-31T11:25:23Z</time>
      </trkpt>
      <trkpt lat="44.47541" lon="1.83455">
        <ele>171.1</ele>
        <time>2015-10-31T11:25:24Z</time>
      </trkpt>
      <trkpt lat="44.47538" lon="1.8345">
        <ele>169.8</ele>
        <time>2015-10-31T11:25:25Z</time>
      </trkpt>
      <trkpt lat="44.47536" lon="1.83446">
        <ele>168.5</ele>
        <time>2015-10-31T11:25:26Z</time>
      </trkpt>
      <trkpt lat="44.47534" lon="1.83441">
        <ele>167.3</ele>
        <time>2015-10-31T11:25:27Z</time>
      </trkpt>
      <trkpt lat="44.47532" lon="1.83435">
        <ele>166</ele>
        <time>2015-10-31T11:25:28Z</time>
      </trkpt>
      <trkpt lat="44.47531" lon="1.8343">
        <ele>164.8</ele>
        <time>2015-10-31T11:25:29Z</time>
      </trkpt>
      <trkpt lat="44.4753" lon="1.83424">
        <ele>163.7</ele>
        <time>2015-10-31T11:25:30Z</time>
      </trkpt>
      <trkpt lat="44.4753" lon="1.83418">
        <ele>162.7</ele>
        <time>2015-10-31T11:25:31Z</time>
      </trkpt>
      <trkpt lat="44.4753" lon="1.83412">
        <ele>161.7</ele>
        <time>2015-10-31T11:25:32Z</time>
      </trkpt>
      <trkpt lat="44.4753" lon="1.83406">
        <ele>160.8</ele>
        <time>2015-10-31T11:25:33Z</time>
      </trkpt>
      <trkpt lat="44.47531" lon="1.834">
        <ele>160</ele>
        <time>2015-10-31T11:25:34Z</time>
      </trkpt>
      <trkpt lat="44.47533" lon="1.83395">
        <ele>159.3</ele>
        <time>2015-10-31T11:25:35Z</time>
      </trkpt>
      <trkpt lat="44.47535" lon="1.83389">
        <ele>158.7</ele>
        <time>2015-10-31T11:25:36Z</time>
      </trkpt>
      <trkpt lat="44.47538" lon="1.83384">
        <ele>158.2</ele>
        <time>2015-10-31T11:25:37Z</time>
      </trkpt>
      <trkpt lat="44.47541" lon="1.8338">
        <ele>157.7</ele>
        <time>2015-10-31T11:25:38Z</time>
      </trkpt>
      <trkpt lat="44.47544" lon="1.83375">
        <ele>157.2</ele>
        <time>2015-10-31T11:25:39Z</time>
      </trkpt>
      <trkpt lat="44.47547" lon="1.83371">
        <ele>157</ele>
        <time>2015-10-31T11:25:40Z</time>
      </trkpt>
      <trkpt lat="44.47551" lon="1.83366">
        <ele>156.7</ele>
        <time>2015-10-31T11:25:41Z</time>
      </trkpt>
      <trkpt lat="44.47554" lon="1.83361">
        <ele>156.5</ele>
        <time>2015-10-31T11:25:42Z</time>
      </trkpt>
      <trkpt lat="44.47558" lon="1.83357">
        <ele>156.3</ele>
        <time>2015-10-31T11:25:43Z</time>
      </trkpt>
      <trkpt lat="44.47561" lon="1.83353">
        <ele>156.2</ele>
        <time>2015-10-31T11:25:44Z</time>
      </trkpt>
      <trkpt lat="44.47565" lon="1.8335">
        <ele>156</ele>
        <time>2015-10-31T11:25:45Z</time>
      </trkpt>
      <trkpt lat="44.47568" lon="1.83347">
        <ele>155.9</ele>
        <time>2015-10-31T11:25:46Z</time>
      </trkpt>
      <trkpt lat="44.47572" lon="1.83345">
        <ele>155.8</ele>
        <time>2015-10-31T11:25:47Z</time>
      </trkpt>
      <trkpt lat="44.47575" lon="1.83342">
        <ele>155.7</ele>
        <time>2015-10-31T11:25:48Z</time>
      </trkpt>
      <trkpt lat="44.47579" lon="1.83339">
        <ele>155.6</ele>
        <time>2015-10-31T11:25:49Z</time>
      </trkpt>
      <trkpt lat="44.47582" lon="1.83335">
        <ele>155.4</ele>
        <time>2015-10-31T11:25:50Z</time>
      </trkpt>
      <trkpt lat="44.47586" lon="1.83332">
        <ele>155.2</ele>
        <time>2015-10-31T11:25:51Z</time>
      </trkpt>
      <trkpt lat="44.47589" lon="1.83328">
        <ele>154.9</ele>
        <time>2015-10-31T11:25:52Z</time>
      </trkpt>
      <trkpt lat="44.47593" lon="1.83324">
        <ele>154.6</ele>
        <time>2015-10-31T11:25:53Z</time>
      </trkpt>
      <trkpt lat="44.47596" lon="1.8332">
        <ele>154.4</ele>
        <time>2015-10-31T11:25:54Z</time>
      </trkpt>
      <trkpt lat="44.476" lon="1.83317">
        <ele>154.1</ele>
        <time>2015-10-31T11:25:55Z</time>
      </trkpt>
      <trkpt lat="44.47603" lon="1.83313">
        <ele>153.8</ele>
        <time>2015-10-31T11:25:56Z</time>
      </trkpt>
      <trkpt lat="44.47607" lon="1.83309">
        <ele>153.5</ele>
        <time>2015-10-31T11:25:57Z</time>
      </trkpt>
      <trkpt lat="44.4761" lon="1.83306">
        <ele>153.3</ele>
        <time>2015-10-31T11:25:58Z</time>
      </trkpt>
      <trkpt lat="44.47615" lon="1.83303">
        <ele>153.1</ele>
        <time>2015-10-31T11:25:59Z</time>
      </trkpt>
      <trkpt lat="44.47619" lon="1.83301">
        <ele>152.9</ele>
        <time>2015-10-31T11:26:00Z</time>
      </trkpt>
      <trkpt lat="44.47623" lon="1.83299">
        <ele>152.8</ele>
        <time>2015-10-31T11:26:01Z</time>
      </trkpt>
      <trkpt lat="44.47629" lon="1.83297">
        <ele>153.4</ele>
        <time>2015-10-31T11:26:02Z</time>
      </trkpt>
      <trkpt lat="44.47634" lon="1.83296">
        <ele>154</ele>
        <time>2015-10-31T11:26:03Z</time>
      </trkpt>
      <trkpt lat="44.4764" lon="1.83295">
        <ele>155</ele>
        <time>2015-10-31T11:26:04Z</time>
      </trkpt>
      <trkpt lat="44.47645" lon="1.83295">
        <ele>155.7</ele>
        <time>2015-10-31T11:26:05Z</time>
      </trkpt>
      <trkpt lat="44.4765" lon="1.83295">
        <ele>156.6</ele>
        <time>2015-10-31T11:26:06Z</time>
      </trkpt>
      <trkpt lat="44.47654" lon="1.83295">
        <ele>157.3</ele>
        <time>2015-10-31T11:26:07Z</time>
      </trkpt>
      <trkpt lat="44.47659" lon="1.83294">
        <ele>158.1</ele>
        <time>2015-10-31T11:26:08Z</time>
      </trkpt>
      <trkpt lat="44.47664" lon="1.83294">
        <ele>158.9</ele>
        <time>2015-10-31T11:26:09Z</time>
      </trkpt>
      <trkpt lat="44.47669" lon="1.83294">
        <ele>159.7</ele>
        <time>2015-10-31T11:26:10Z</time>
      </trkpt>
      <trkpt lat="44.47674" lon="1.83293">
        <ele>160.4</ele>
        <time>2015-10-31T11:26:11Z</time>
      </trkpt>
      <trkpt lat="44.47679" lon="1.83293">
        <ele>161.2</ele>
        <time>2015-10-31T11:26:12Z</time>
      </trkpt>
      <trkpt lat="44.47684" lon="1.83293">
        <ele>162.2</ele>
        <time>2015-10-31T11:26:13Z</time>
      </trkpt>
      <trkpt lat="44.47689" lon="1.83294">
        <ele>163.1</ele>
        <time>2015-10-31T11:26:14Z</time>
      </trkpt>
      <trkpt lat="44.47694" lon="1.83294">
        <ele>163.9</ele>
        <time>2015-10-31T11:26:15Z</time>
      </trkpt>
      <trkpt lat="44.47699" lon="1.83293">
        <ele>164.7</ele>
        <time>2015-10-31T11:26:16Z</time>
      </trkpt>
      <trkpt lat="44.47704" lon="1.83294">
        <ele>165.5</ele>
        <time>2015-10-31T11:26:17Z</time>
      </trkpt>
      <trkpt lat="44.47709" lon="1.83293">
        <ele>166.2</ele>
        <time>2015-10-31T11:26:18Z</time>
      </trkpt>
      <trkpt lat="44.47714" lon="1.83292">
        <ele>166.7</ele>
        <time>2015-10-31T11:26:19Z</time>
      </trkpt>
      <trkpt lat="44.47719" lon="1.83293">
        <ele>167.4</ele>
        <time>2015-10-31T11:26:20Z</time>
      </trkpt>
      <trkpt lat="44.47723" lon="1.83293">
        <ele>167.8</ele>
        <time>2015-10-31T11:26:21Z</time>
      </trkpt>
      <trkpt lat="44.47727" lon="1.83292">
        <ele>168.1</ele>
        <time>2015-10-31T11:26:22Z</time>
      </trkpt>
      <trkpt lat="44.47732" lon="1.8329">
        <ele>168.2</ele>
        <time>2015-10-31T11:26:23Z</time>
      </trkpt>
      <trkpt lat="44.47736" lon="1.83287">
        <ele>168.2</ele>
        <time>2015-10-31T11:26:24Z</time>
      </trkpt>
      <trkpt lat="44.4774" lon="1.83284">
        <ele>168.2</ele>
        <time>2015-10-31T11:26:25Z</time>
      </trkpt>
      <trkpt lat="44.47744" lon="1.83283">
        <ele>168.4</ele>
        <time>2015-10-31T11:26:26Z</time>
      </trkpt>
      <trkpt lat="44.47748" lon="1.83279">
        <ele>168.3</ele>
        <time>2015-10-31T11:26:27Z</time>
      </trkpt>
      <trkpt lat="44.47753" lon="1.83274">
        <ele>168.2</ele>
        <time>2015-10-31T11:26:28Z</time>
      </trkpt>
      <trkpt lat="44.47757" lon="1.8327">
        <ele>168.3</ele>
        <time>2015-10-31T11:26:29Z</time>
      </trkpt>
      <trkpt lat="44.47761" lon="1.83266">
        <ele>168.3</ele>
        <time>2015-10-31T11:26:30Z</time>
      </trkpt>
      <trkpt lat="44.47765" lon="1.8326">
        <ele>168</ele>
        <time>2015-10-31T11:26:31Z</time>
      </trkpt>
      <trkpt lat="44.47768" lon="1.83254">
        <ele>167.6</ele>
        <time>2015-10-31T11:26:32Z</time>
      </trkpt>
      <trkpt lat="44.47771" lon="1.83248">
        <ele>167.4</ele>
        <time>2015-10-31T11:26:33Z</time>
      </trkpt>
      <trkpt lat="44.47774" lon="1.83242">
        <ele>167.2</ele>
        <time>2015-10-31T11:26:34Z</time>
      </trkpt>
      <trkpt lat="44.47776" lon="1.83236">
        <ele>166.8</ele>
        <time>2015-10-31T11:26:35Z</time>
      </trkpt>
      <trkpt lat="44.47778" lon="1.83228">
        <ele>166.3</ele>
        <time>2015-10-31T11:26:36Z</time>
      </trkpt>
      <trkpt lat="44.4778" lon="1.83222">
        <ele>165.9</ele>
        <time>2015-10-31T11:26:37Z</time>
      </trkpt>
      <trkpt lat="44.47781" lon="1.83215">
        <ele>165.3</ele>
        <time>2015-10-31T11:26:38Z</time>
      </trkpt>
      <trkpt lat="44.47782" lon="1.83208">
        <ele>165</ele>
        <time>2015-10-31T11:26:39Z</time>
      </trkpt>
      <trkpt lat="44.47784" lon="1.832">
        <ele>164.5</ele>
        <time>2015-10-31T11:26:40Z</time>
      </trkpt>
      <trkpt lat="44.47785" lon="1.83192">
        <ele>164</ele>
        <time>2015-10-31T11:26:41Z</time>
      </trkpt>
      <trkpt lat="44.47786" lon="1.83184">
        <ele>163.4</ele>
        <time>2015-10-31T11:26:42Z</time>
      </trkpt>
      <trkpt lat="44.47786" lon="1.83175">
        <ele>162.6</ele>
        <time>2015-10-31T11:26:43Z</time>
      </trkpt>
      <trkpt lat="44.47787" lon="1.83168">
        <ele>162.1</ele>
        <time>2015-10-31T11:26:44Z</time>
      </trkpt>
      <trkpt lat="44.47788" lon="1.83162">
        <ele>161.7</ele>
        <time>2015-10-31T11:26:45Z</time>
      </trkpt>
      <trkpt lat="44.47789" lon="1.83156">
        <ele>161.4</ele>
        <time>2015-10-31T11:26:46Z</time>
      </trkpt>
      <trkpt lat="44.47789" lon="1.83149">
        <ele>160.8</ele>
        <time>2015-10-31T11:26:47Z</time>
      </trkpt>
      <trkpt lat="44.4779" lon="1.83143">
        <ele>160.3</ele>
        <time>2015-10-31T11:26:48Z</time>
      </trkpt>
      <trkpt lat="44.4779" lon="1.83136">
        <ele>159.8</ele>
        <time>2015-10-31T11:26:49Z</time>
      </trkpt>
      <trkpt lat="44.47791" lon="1.8313">
        <ele>159.3</ele>
        <time>2015-10-31T11:26:50Z</time>
      </trkpt>
      <trkpt lat="44.47791" lon="1.83122">
        <ele>158.8</ele>
        <time>2015-10-31T11:26:51Z</time>
      </trkpt>
      <trkpt lat="44.47792" lon="1.83116">
        <ele>158.6</ele>
        <time>2015-10-31T11:26:52Z</time>
      </trkpt>
      <trkpt lat="44.47793" lon="1.83108">
        <ele>158.7</ele>
        <time>2015-10-31T11:26:53Z</time>
      </trkpt>
      <trkpt lat="44.47794" lon="1.83101">
        <ele>158.8</ele>
        <time>2015-10-31T11:26:54Z</time>
      </trkpt>
      <trkpt lat="44.47795" lon="1.83095">
        <ele>158.8</ele>
        <time>2015-10-31T11:26:55Z</time>
      </trkpt>
      <trkpt lat="44.47796" lon="1.83088">
        <ele>158.8</ele>
        <time>2015-10-31T11:26:56Z</time>
      </trkpt>
      <trkpt lat="44.47796" lon="1.83082">
        <ele>158.5</ele>
        <time>2015-10-31T11:26:57Z</time>
      </trkpt>
      <trkpt lat="44.47796" lon="1.83075">
        <ele>158.4</ele>
        <time>2015-10-31T11:26:58Z</time>
      </trkpt>
      <trkpt lat="44.47797" lon="1.83068">
        <ele>158.5</ele>
        <time>2015-10-31T11:26:59Z</time>
      </trkpt>
      <trkpt lat="44.47799" lon="1.83062">
        <ele>159</ele>
        <time>2015-10-31T11:27:00Z</time>
      </trkpt>
      <trkpt lat="44.47799" lon="1.83054">
        <ele>158.9</ele>
        <time>2015-10-31T11:27:01Z</time>
      </trkpt>
      <trkpt lat="44.47799" lon="1.83046">
        <ele>158.5</ele>
        <time>2015-10-31T11:27:02Z</time>
      </trkpt>
      <trkpt lat="44.478" lon="1.8304">
        <ele>158.6</ele>
        <time>2015-10-31T11:27:03Z</time>
      </trkpt>
      <trkpt lat="44.47802" lon="1.83034">
        <ele>159.3</ele>
        <time>2015-10-31T11:27:04Z</time>
      </trkpt>
      <trkpt lat="44.47801" lon="1.83028">
        <ele>159.2</ele>
        <time>2015-10-31T11:27:05Z</time>
      </trkpt>
      <trkpt lat="44.47801" lon="1.83021">
        <ele>159.1</ele>
        <time>2015-10-31T11:27:06Z</time>
      </trkpt>
      <trkpt lat="44.47802" lon="1.83015">
        <ele>159.3</ele>
        <time>2015-10-31T11:27:07Z</time>
      </trkpt>
      <trkpt lat="44.47803" lon="1.83008">
        <ele>159.6</ele>
        <time>2015-10-31T11:27:08Z</time>
      </trkpt>
      <trkpt lat="44.47803" lon="1.83">
        <ele>159.8</ele>
        <time>2015-10-31T11:27:09Z</time>
      </trkpt>
      <trkpt lat="44.47805" lon="1.82994">
        <ele>160.3</ele>
        <time>2015-10-31T11:27:10Z</time>
      </trkpt>
      <trkpt lat="44.47805" lon="1.82988">
        <ele>160.7</ele>
        <time>2015-10-31T11:27:11Z</time>
      </trkpt>
      <trkpt lat="44.47805" lon="1.82982">
        <ele>160.6</ele>
        <time>2015-10-31T11:27:12Z</time>
      </trkpt>
      <trkpt lat="44.47805" lon="1.82976">
        <ele>160.5</ele>
        <time>2015-10-31T11:27:13Z</time>
      </trkpt>
      <trkpt lat="44.47805" lon="1.82971">
        <ele>160.3</ele>
        <time>2015-10-31T11:27:14Z</time>
      </trkpt>
      <trkpt lat="44.47806" lon="1.82964">
        <ele>160.7</ele>
        <time>2015-10-31T11:27:15Z</time>
      </trkpt>
      <trkpt lat="44.47807" lon="1.82959">
        <ele>161.2</ele>
        <time>2015-10-31T11:27:16Z</time>
      </trkpt>
      <trkpt lat="44.47808" lon="1.82952">
        <ele>161.4</ele>
        <time>2015-10-31T11:27:17Z</time>
      </trkpt>
      <trkpt lat="44.47809" lon="1.82944">
        <ele>162.3</ele>
        <time>2015-10-31T11:27:18Z</time>
      </trkpt>
      <trkpt lat="44.47811" lon="1.82938">
        <ele>162.8</ele>
        <time>2015-10-31T11:27:19Z</time>
      </trkpt>
      <trkpt lat="44.47812" lon="1.82931">
        <ele>163.3</ele>
        <time>2015-10-31T11:27:20Z</time>
      </trkpt>
      <trkpt lat="44.47812" lon="1.82922">
        <ele>163.7</ele>
        <time>2015-10-31T11:27:21Z</time>
      </trkpt>
      <trkpt lat="44.47813" lon="1.82918">
        <ele>164.3</ele>
        <time>2015-10-31T11:27:22Z</time>
      </trkpt>
      <trkpt lat="44.47814" lon="1.82909">
        <ele>164.5</ele>
        <time>2015-10-31T11:27:23Z</time>
      </trkpt>
      <trkpt lat="44.47813" lon="1.82901">
        <ele>164.4</ele>
        <time>2015-10-31T11:27:24Z</time>
      </trkpt>
      <trkpt lat="44.47814" lon="1.82896">
        <ele>164.7</ele>
        <time>2015-10-31T11:27:25Z</time>
      </trkpt>
      <trkpt lat="44.47816" lon="1.82891">
        <ele>165.6</ele>
        <time>2015-10-31T11:27:26Z</time>
      </trkpt>
      <trkpt lat="44.47816" lon="1.82884">
        <ele>166</ele>
        <time>2015-10-31T11:27:27Z</time>
      </trkpt>
      <trkpt lat="44.47817" lon="1.82874">
        <ele>166.4</ele>
        <time>2015-10-31T11:27:29Z</time>
      </trkpt>
      <trkpt lat="44.47817" lon="1.82867">
        <ele>166.4</ele>
        <time>2015-10-31T11:27:30Z</time>
      </trkpt>
      <trkpt lat="44.47817" lon="1.82861">
        <ele>167.1</ele>
        <time>2015-10-31T11:27:31Z</time>
      </trkpt>
      <trkpt lat="44.47818" lon="1.82856">
        <ele>167.7</ele>
        <time>2015-10-31T11:27:32Z</time>
      </trkpt>
      <trkpt lat="44.47819" lon="1.8285">
        <ele>168.3</ele>
        <time>2015-10-31T11:27:33Z</time>
      </trkpt>
      <trkpt lat="44.47816" lon="1.82843">
        <ele>167.3</ele>
        <time>2015-10-31T11:27:34Z</time>
      </trkpt>
      <trkpt lat="44.47816" lon="1.82833">
        <ele>167.5</ele>
        <time>2015-10-31T11:27:35Z</time>
      </trkpt>
      <trkpt lat="44.47814" lon="1.82816">
        <ele>167.1</ele>
        <time>2015-10-31T11:27:37Z</time>
      </trkpt>
      <trkpt lat="44.47814" lon="1.82809">
        <ele>167.3</ele>
        <time>2015-10-31T11:27:39Z</time>
      </trkpt>
      <trkpt lat="44.47816" lon="1.82799">
        <ele>168.7</ele>
        <time>2015-10-31T11:27:40Z</time>
      </trkpt>
      <trkpt lat="44.47816" lon="1.82789">
        <ele>169.2</ele>
        <time>2015-10-31T11:27:42Z</time>
      </trkpt>
      <trkpt lat="44.47817" lon="1.82778">
        <ele>169.4</ele>
        <time>2015-10-31T11:27:44Z</time>
      </trkpt>
      <trkpt lat="44.47817" lon="1.82769">
        <ele>169.7</ele>
        <time>2015-10-31T11:27:45Z</time>
      </trkpt>
      <trkpt lat="44.47819" lon="1.82762">
        <ele>170.5</ele>
        <time>2015-10-31T11:27:46Z</time>
      </trkpt>
      <trkpt lat="44.47819" lon="1.82754">
        <ele>170.7</ele>
        <time>2015-10-31T11:27:47Z</time>
      </trkpt>
      <trkpt lat="44.47821" lon="1.82747">
        <ele>171.6</ele>
        <time>2015-10-31T11:27:48Z</time>
      </trkpt>
      <trkpt lat="44.47821" lon="1.82741">
        <ele>171.9</ele>
        <time>2015-10-31T11:27:49Z</time>
      </trkpt>
      <trkpt lat="44.47818" lon="1.82732">
        <ele>170.2</ele>
        <time>2015-10-31T11:27:50Z</time>
      </trkpt>
      <trkpt lat="44.4782" lon="1.82728">
        <ele>171.1</ele>
        <time>2015-10-31T11:27:51Z</time>
      </trkpt>
      <trkpt lat="44.47818" lon="1.8272">
        <ele>169.6</ele>
        <time>2015-10-31T11:27:52Z</time>
      </trkpt>
      <trkpt lat="44.47813" lon="1.82704">
        <ele>166.9</ele>
        <time>2015-10-31T11:27:53Z</time>
      </trkpt>
      <trkpt lat="44.47812" lon="1.82694">
        <ele>166.8</ele>
        <time>2015-10-31T11:27:54Z</time>
      </trkpt>
      <trkpt lat="44.47815" lon="1.82697">
        <ele>168.4</ele>
        <time>2015-10-31T11:27:55Z</time>
      </trkpt>
      <trkpt lat="44.47815" lon="1.82691">
        <ele>169.2</ele>
        <time>2015-10-31T11:27:56Z</time>
      </trkpt>
      <trkpt lat="44.47813" lon="1.8268">
        <ele>168.4</ele>
        <time>2015-10-31T11:27:57Z</time>
      </trkpt>
      <trkpt lat="44.4781" lon="1.82674">
        <ele>167</ele>
        <time>2015-10-31T11:27:58Z</time>
      </trkpt>
      <trkpt lat="44.4781" lon="1.82669">
        <ele>167.1</ele>
        <time>2015-10-31T11:27:59Z</time>
      </trkpt>
      <trkpt lat="44.47809" lon="1.82658">
        <ele>166.8</ele>
        <time>2015-10-31T11:28:00Z</time>
      </trkpt>
      <trkpt lat="44.47807" lon="1.82652">
        <ele>166.2</ele>
        <time>2015-10-31T11:28:01Z</time>
      </trkpt>
      <trkpt lat="44.47806" lon="1.82643">
        <ele>165.5</ele>
        <time>2015-10-31T11:28:02Z</time>
      </trkpt>
      <trkpt lat="44.47804" lon="1.82633">
        <ele>165.1</ele>
        <time>2015-10-31T11:28:03Z</time>
      </trkpt>
      <trkpt lat="44.47803" lon="1.82623">
        <ele>164.8</ele>
        <time>2015-10-31T11:28:04Z</time>
      </trkpt>
      <trkpt lat="44.47802" lon="1.82614">
        <ele>164.5</ele>
        <time>2015-10-31T11:28:05Z</time>
      </trkpt>
      <trkpt lat="44.47801" lon="1.82604">
        <ele>164.5</ele>
        <time>2015-10-31T11:28:06Z</time>
      </trkpt>
      <trkpt lat="44.47805" lon="1.82603">
        <ele>167.8</ele>
        <time>2015-10-31T11:28:07Z</time>
      </trkpt>
      <trkpt lat="44.47805" lon="1.82595">
        <ele>168</ele>
        <time>2015-10-31T11:28:08Z</time>
      </trkpt>
      <trkpt lat="44.47805" lon="1.82585">
        <ele>168.6</ele>
        <time>2015-10-31T11:28:09Z</time>
      </trkpt>
      <trkpt lat="44.47805" lon="1.82577">
        <ele>169.3</ele>
        <time>2015-10-31T11:28:10Z</time>
      </trkpt>
      <trkpt lat="44.47801" lon="1.82566">
        <ele>167.1</ele>
        <time>2015-10-31T11:28:11Z</time>
      </trkpt>
      <trkpt lat="44.478" lon="1.82559">
        <ele>167.4</ele>
        <time>2015-10-31T11:28:12Z</time>
      </trkpt>
      <trkpt lat="44.478" lon="1.82555">
        <ele>167.4</ele>
        <time>2015-10-31T11:28:13Z</time>
      </trkpt>
      <trkpt lat="44.47798" lon="1.82546">
        <ele>167.1</ele>
        <time>2015-10-31T11:28:14Z</time>
      </trkpt>
      <trkpt lat="44.47797" lon="1.8254">
        <ele>166.6</ele>
        <time>2015-10-31T11:28:15Z</time>
      </trkpt>
      <trkpt lat="44.47796" lon="1.8253">
        <ele>165.4</ele>
        <time>2015-10-31T11:28:16Z</time>
      </trkpt>
      <trkpt lat="44.47797" lon="1.82525">
        <ele>166</ele>
        <time>2015-10-31T11:28:17Z</time>
      </trkpt>
      <trkpt lat="44.47796" lon="1.82519">
        <ele>165.4</ele>
        <time>2015-10-31T11:28:18Z</time>
      </trkpt>
      <trkpt lat="44.47796" lon="1.82514">
        <ele>165.3</ele>
        <time>2015-10-31T11:28:19Z</time>
      </trkpt>
      <trkpt lat="44.47797" lon="1.8251">
        <ele>166.4</ele>
        <time>2015-10-31T11:28:20Z</time>
      </trkpt>
      <trkpt lat="44.47796" lon="1.82501">
        <ele>165.4</ele>
        <time>2015-10-31T11:28:21Z</time>
      </trkpt>
      <trkpt lat="44.47794" lon="1.82493">
        <ele>163.9</ele>
        <time>2015-10-31T11:28:22Z</time>
      </trkpt>
      <trkpt lat="44.47793" lon="1.82482">
        <ele>163.1</ele>
        <time>2015-10-31T11:28:24Z</time>
      </trkpt>
      <trkpt lat="44.47791" lon="1.82473">
        <ele>162</ele>
        <time>2015-10-31T11:28:25Z</time>
      </trkpt>
      <trkpt lat="44.47792" lon="1.82464">
        <ele>162.2</ele>
        <time>2015-10-31T11:28:26Z</time>
      </trkpt>
      <trkpt lat="44.47793" lon="1.82459">
        <ele>163.2</ele>
        <time>2015-10-31T11:28:27Z</time>
      </trkpt>
      <trkpt lat="44.47793" lon="1.82452">
        <ele>163.3</ele>
        <time>2015-10-31T11:28:28Z</time>
      </trkpt>
      <trkpt lat="44.47792" lon="1.82444">
        <ele>162.8</ele>
        <time>2015-10-31T11:28:29Z</time>
      </trkpt>
      <trkpt lat="44.4779" lon="1.82437">
        <ele>163</ele>
        <time>2015-10-31T11:28:30Z</time>
      </trkpt>
      <trkpt lat="44.47794" lon="1.82436">
        <ele>164.8</ele>
        <time>2015-10-31T11:28:31Z</time>
      </trkpt>
      <trkpt lat="44.47793" lon="1.82428">
        <ele>164.5</ele>
        <time>2015-10-31T11:28:32Z</time>
      </trkpt>
      <trkpt lat="44.47791" lon="1.82419">
        <ele>164.2</ele>
        <time>2015-10-31T11:28:33Z</time>
      </trkpt>
      <trkpt lat="44.47791" lon="1.82412">
        <ele>164.6</ele>
        <time>2015-10-31T11:28:34Z</time>
      </trkpt>
      <trkpt lat="44.47791" lon="1.82405">
        <ele>165</ele>
        <time>2015-10-31T11:28:35Z</time>
      </trkpt>
      <trkpt lat="44.47789" lon="1.82399">
        <ele>165</ele>
        <time>2015-10-31T11:28:36Z</time>
      </trkpt>
      <trkpt lat="44.47787" lon="1.82392">
        <ele>165</ele>
        <time>2015-10-31T11:28:37Z</time>
      </trkpt>
      <trkpt lat="44.47787" lon="1.82385">
        <ele>165.4</ele>
        <time>2015-10-31T11:28:38Z</time>
      </trkpt>
      <trkpt lat="44.47787" lon="1.82379">
        <ele>165.7</ele>
        <time>2015-10-31T11:28:39Z</time>
      </trkpt>
      <trkpt lat="44.47786" lon="1.82372">
        <ele>165.9</ele>
        <time>2015-10-31T11:28:40Z</time>
      </trkpt>
      <trkpt lat="44.47785" lon="1.82367">
        <ele>166.4</ele>
        <time>2015-10-31T11:28:41Z</time>
      </trkpt>
      <trkpt lat="44.47784" lon="1.8236">
        <ele>166.9</ele>
        <time>2015-10-31T11:28:42Z</time>
      </trkpt>
      <trkpt lat="44.47782" lon="1.82351">
        <ele>167.4</ele>
        <time>2015-10-31T11:28:43Z</time>
      </trkpt>
      <trkpt lat="44.47781" lon="1.82344">
        <ele>167.7</ele>
        <time>2015-10-31T11:28:44Z</time>
      </trkpt>
      <trkpt lat="44.47779" lon="1.82335">
        <ele>168.2</ele>
        <time>2015-10-31T11:28:45Z</time>
      </trkpt>
      <trkpt lat="44.47777" lon="1.82328">
        <ele>168.4</ele>
        <time>2015-10-31T11:28:46Z</time>
      </trkpt>
      <trkpt lat="44.47775" lon="1.82318">
        <ele>168.7</ele>
        <time>2015-10-31T11:28:47Z</time>
      </trkpt>
      <trkpt lat="44.47774" lon="1.82309">
        <ele>169.1</ele>
        <time>2015-10-31T11:28:48Z</time>
      </trkpt>
      <trkpt lat="44.47772" lon="1.82301">
        <ele>169.2</ele>
        <time>2015-10-31T11:28:49Z</time>
      </trkpt>
      <trkpt lat="44.47772" lon="1.82294">
        <ele>169.8</ele>
        <time>2015-10-31T11:28:50Z</time>
      </trkpt>
      <trkpt lat="44.4777" lon="1.82287">
        <ele>170</ele>
        <time>2015-10-31T11:28:51Z</time>
      </trkpt>
      <trkpt lat="44.47769" lon="1.82278">
        <ele>170</ele>
        <time>2015-10-31T11:28:52Z</time>
      </trkpt>
      <trkpt lat="44.47767" lon="1.82269">
        <ele>170</ele>
        <time>2015-10-31T11:28:53Z</time>
      </trkpt>
      <trkpt lat="44.47766" lon="1.82262">
        <ele>170.1</ele>
        <time>2015-10-31T11:28:54Z</time>
      </trkpt>
      <trkpt lat="44.47764" lon="1.82254">
        <ele>170.1</ele>
        <time>2015-10-31T11:28:55Z</time>
      </trkpt>
      <trkpt lat="44.47763" lon="1.82246">
        <ele>170.3</ele>
        <time>2015-10-31T11:28:56Z</time>
      </trkpt>
      <trkpt lat="44.47762" lon="1.82238">
        <ele>170.3</ele>
        <time>2015-10-31T11:28:57Z</time>
      </trkpt>
      <trkpt lat="44.47761" lon="1.8223">
        <ele>170.5</ele>
        <time>2015-10-31T11:28:58Z</time>
      </trkpt>
      <trkpt lat="44.4776" lon="1.8222">
        <ele>170.8</ele>
        <time>2015-10-31T11:28:59Z</time>
      </trkpt>
      <trkpt lat="44.47758" lon="1.82213">
        <ele>170.6</ele>
        <time>2015-10-31T11:29:00Z</time>
      </trkpt>
      <trkpt lat="44.47757" lon="1.82206">
        <ele>170.7</ele>
        <time>2015-10-31T11:29:01Z</time>
      </trkpt>
      <trkpt lat="44.47755" lon="1.82199">
        <ele>170.7</ele>
        <time>2015-10-31T11:29:02Z</time>
      </trkpt>
      <trkpt lat="44.47753" lon="1.82192">
        <ele>170.8</ele>
        <time>2015-10-31T11:29:03Z</time>
      </trkpt>
      <trkpt lat="44.47753" lon="1.82183">
        <ele>171.4</ele>
        <time>2015-10-31T11:29:04Z</time>
      </trkpt>
      <trkpt lat="44.47751" lon="1.82176">
        <ele>171.7</ele>
        <time>2015-10-31T11:29:05Z</time>
      </trkpt>
      <trkpt lat="44.4775" lon="1.82168">
        <ele>171.9</ele>
        <time>2015-10-31T11:29:06Z</time>
      </trkpt>
      <trkpt lat="44.47749" lon="1.82161">
        <ele>172.4</ele>
        <time>2015-10-31T11:29:07Z</time>
      </trkpt>
      <trkpt lat="44.47749" lon="1.82154">
        <ele>173</ele>
        <time>2015-10-31T11:29:08Z</time>
      </trkpt>
      <trkpt lat="44.47749" lon="1.82147">
        <ele>173.5</ele>
        <time>2015-10-31T11:29:09Z</time>
      </trkpt>
      <trkpt lat="44.47748" lon="1.82139">
        <ele>173.8</ele>
        <time>2015-10-31T11:29:10Z</time>
      </trkpt>
      <trkpt lat="44.47746" lon="1.82131">
        <ele>174.1</ele>
        <time>2015-10-31T11:29:11Z</time>
      </trkpt>
      <trkpt lat="44.47745" lon="1.82124">
        <ele>174.1</ele>
        <time>2015-10-31T11:29:12Z</time>
      </trkpt>
      <trkpt lat="44.47743" lon="1.82117">
        <ele>174.4</ele>
        <time>2015-10-31T11:29:13Z</time>
      </trkpt>
      <trkpt lat="44.47743" lon="1.8211">
        <ele>174.9</ele>
        <time>2015-10-31T11:29:14Z</time>
      </trkpt>
      <trkpt lat="44.47742" lon="1.82103">
        <ele>175.5</ele>
        <time>2015-10-31T11:29:15Z</time>
      </trkpt>
      <trkpt lat="44.47741" lon="1.82096">
        <ele>175.6</ele>
        <time>2015-10-31T11:29:16Z</time>
      </trkpt>
      <trkpt lat="44.47739" lon="1.82089">
        <ele>175.9</ele>
        <time>2015-10-31T11:29:17Z</time>
      </trkpt>
      <trkpt lat="44.47738" lon="1.8208">
        <ele>176.3</ele>
        <time>2015-10-31T11:29:18Z</time>
      </trkpt>
      <trkpt lat="44.47737" lon="1.82072">
        <ele>176.5</ele>
        <time>2015-10-31T11:29:19Z</time>
      </trkpt>
      <trkpt lat="44.47735" lon="1.82065">
        <ele>176.1</ele>
        <time>2015-10-31T11:29:20Z</time>
      </trkpt>
      <trkpt lat="44.47733" lon="1.82059">
        <ele>175.7</ele>
        <time>2015-10-31T11:29:21Z</time>
      </trkpt>
      <trkpt lat="44.4773" lon="1.82052">
        <ele>174.8</ele>
        <time>2015-10-31T11:29:22Z</time>
      </trkpt>
      <trkpt lat="44.47727" lon="1.82045">
        <ele>173.8</ele>
        <time>2015-10-31T11:29:23Z</time>
      </trkpt>
      <trkpt lat="44.47724" lon="1.82038">
        <ele>173.2</ele>
        <time>2015-10-31T11:29:24Z</time>
      </trkpt>
      <trkpt lat="44.47721" lon="1.82031">
        <ele>172.7</ele>
        <time>2015-10-31T11:29:25Z</time>
      </trkpt>
      <trkpt lat="44.4772" lon="1.82025">
        <ele>173.7</ele>
        <time>2015-10-31T11:29:26Z</time>
      </trkpt>
      <trkpt lat="44.47716" lon="1.82021">
        <ele>172.3</ele>
        <time>2015-10-31T11:29:27Z</time>
      </trkpt>
      <trkpt lat="44.47717" lon="1.82011">
        <ele>175</ele>
        <time>2015-10-31T11:29:28Z</time>
      </trkpt>
      <trkpt lat="44.47712" lon="1.82005">
        <ele>173.9</ele>
        <time>2015-10-31T11:29:29Z</time>
      </trkpt>
      <trkpt lat="44.4771" lon="1.81999">
        <ele>173.7</ele>
        <time>2015-10-31T11:29:30Z</time>
      </trkpt>
      <trkpt lat="44.47706" lon="1.81992">
        <ele>173.9</ele>
        <time>2015-10-31T11:29:31Z</time>
      </trkpt>
      <trkpt lat="44.47702" lon="1.81984">
        <ele>174.5</ele>
        <time>2015-10-31T11:29:32Z</time>
      </trkpt>
      <trkpt lat="44.47699" lon="1.81977">
        <ele>175.1</ele>
        <time>2015-10-31T11:29:33Z</time>
      </trkpt>
      <trkpt lat="44.47695" lon="1.8197">
        <ele>175.4</ele>
        <time>2015-10-31T11:29:34Z</time>
      </trkpt>
      <trkpt lat="44.47693" lon="1.81963">
        <ele>175.8</ele>
        <time>2015-10-31T11:29:35Z</time>
      </trkpt>
      <trkpt lat="44.47689" lon="1.81955">
        <ele>176.4</ele>
        <time>2015-10-31T11:29:36Z</time>
      </trkpt>
      <trkpt lat="44.47687" lon="1.81949">
        <ele>177.3</ele>
        <time>2015-10-31T11:29:37Z</time>
      </trkpt>
      <trkpt lat="44.47685" lon="1.81943">
        <ele>177.8</ele>
        <time>2015-10-31T11:29:38Z</time>
      </trkpt>
      <trkpt lat="44.47681" lon="1.81936">
        <ele>178</ele>
        <time>2015-10-31T11:29:39Z</time>
      </trkpt>
      <trkpt lat="44.47677" lon="1.8193">
        <ele>177.9</ele>
        <time>2015-10-31T11:29:40Z</time>
      </trkpt>
      <trkpt lat="44.47673" lon="1.81924">
        <ele>177.7</ele>
        <time>2015-10-31T11:29:41Z</time>
      </trkpt>
      <trkpt lat="44.4767" lon="1.81918">
        <ele>177.5</ele>
        <time>2015-10-31T11:29:42Z</time>
      </trkpt>
      <trkpt lat="44.47667" lon="1.81912">
        <ele>177.3</ele>
        <time>2015-10-31T11:29:43Z</time>
      </trkpt>
      <trkpt lat="44.47664" lon="1.81906">
        <ele>177.3</ele>
        <time>2015-10-31T11:29:44Z</time>
      </trkpt>
      <trkpt lat="44.47661" lon="1.819">
        <ele>177.4</ele>
        <time>2015-10-31T11:29:45Z</time>
      </trkpt>
      <trkpt lat="44.47658" lon="1.81893">
        <ele>177.1</ele>
        <time>2015-10-31T11:29:46Z</time>
      </trkpt>
      <trkpt lat="44.47654" lon="1.81888">
        <ele>176.4</ele>
        <time>2015-10-31T11:29:47Z</time>
      </trkpt>
      <trkpt lat="44.47652" lon="1.81879">
        <ele>177.1</ele>
        <time>2015-10-31T11:29:48Z</time>
      </trkpt>
      <trkpt lat="44.47649" lon="1.81872">
        <ele>176.8</ele>
        <time>2015-10-31T11:29:49Z</time>
      </trkpt>
      <trkpt lat="44.47646" lon="1.81868">
        <ele>176.2</ele>
        <time>2015-10-31T11:29:50Z</time>
      </trkpt>
      <trkpt lat="44.47643" lon="1.81861">
        <ele>176.2</ele>
        <time>2015-10-31T11:29:51Z</time>
      </trkpt>
      <trkpt lat="44.47639" lon="1.81856">
        <ele>175.6</ele>
        <time>2015-10-31T11:29:52Z</time>
      </trkpt>
      <trkpt lat="44.47637" lon="1.8185">
        <ele>175.6</ele>
        <time>2015-10-31T11:29:53Z</time>
      </trkpt>
      <trkpt lat="44.47634" lon="1.81842">
        <ele>176.4</ele>
        <time>2015-10-31T11:29:54Z</time>
      </trkpt>
      <trkpt lat="44.47634" lon="1.81832">
        <ele>178.5</ele>
        <time>2015-10-31T11:29:55Z</time>
      </trkpt>
      <trkpt lat="44.47631" lon="1.81825">
        <ele>178.7</ele>
        <time>2015-10-31T11:29:56Z</time>
      </trkpt>
      <trkpt lat="44.47628" lon="1.81818">
        <ele>179.2</ele>
        <time>2015-10-31T11:29:57Z</time>
      </trkpt>
      <trkpt lat="44.47625" lon="1.81813">
        <ele>178.6</ele>
        <time>2015-10-31T11:29:58Z</time>
      </trkpt>
      <trkpt lat="44.4762" lon="1.81806">
        <ele>178.8</ele>
        <time>2015-10-31T11:29:59Z</time>
      </trkpt>
      <trkpt lat="44.47616" lon="1.81798">
        <ele>179.2</ele>
        <time>2015-10-31T11:30:00Z</time>
      </trkpt>
      <trkpt lat="44.47612" lon="1.81794">
        <ele>179</ele>
        <time>2015-10-31T11:30:01Z</time>
      </trkpt>
      <trkpt lat="44.47608" lon="1.81788">
        <ele>178.8</ele>
        <time>2015-10-31T11:30:02Z</time>
      </trkpt>
      <trkpt lat="44.47604" lon="1.81782">
        <ele>178.9</ele>
        <time>2015-10-31T11:30:03Z</time>
      </trkpt>
      <trkpt lat="44.476" lon="1.81778">
        <ele>178.3</ele>
        <time>2015-10-31T11:30:04Z</time>
      </trkpt>
      <trkpt lat="44.47594" lon="1.81772">
        <ele>177.3</ele>
        <time>2015-10-31T11:30:05Z</time>
      </trkpt>
      <trkpt lat="44.47589" lon="1.81767">
        <ele>176.7</ele>
        <time>2015-10-31T11:30:06Z</time>
      </trkpt>
      <trkpt lat="44.47585" lon="1.81761">
        <ele>176.6</ele>
        <time>2015-10-31T11:30:07Z</time>
      </trkpt>
      <trkpt lat="44.47582" lon="1.81753">
        <ele>177.1</ele>
        <time>2015-10-31T11:30:08Z</time>
      </trkpt>
      <trkpt lat="44.47578" lon="1.81747">
        <ele>176.8</ele>
        <time>2015-10-31T11:30:09Z</time>
      </trkpt>
      <trkpt lat="44.47573" lon="1.81742">
        <ele>176.1</ele>
        <time>2015-10-31T11:30:10Z</time>
      </trkpt>
      <trkpt lat="44.47569" lon="1.81737">
        <ele>175.7</ele>
        <time>2015-10-31T11:30:11Z</time>
      </trkpt>
      <trkpt lat="44.47566" lon="1.81731">
        <ele>175.7</ele>
        <time>2015-10-31T11:30:12Z</time>
      </trkpt>
      <trkpt lat="44.47565" lon="1.81721">
        <ele>177.3</ele>
        <time>2015-10-31T11:30:13Z</time>
      </trkpt>
      <trkpt lat="44.4756" lon="1.81716">
        <ele>176.6</ele>
        <time>2015-10-31T11:30:14Z</time>
      </trkpt>
      <trkpt lat="44.47558" lon="1.8171">
        <ele>176.8</ele>
        <time>2015-10-31T11:30:15Z</time>
      </trkpt>
      <trkpt lat="44.47553" lon="1.81703">
        <ele>176</ele>
        <time>2015-10-31T11:30:16Z</time>
      </trkpt>
      <trkpt lat="44.47548" lon="1.81697">
        <ele>174.7</ele>
        <time>2015-10-31T11:30:17Z</time>
      </trkpt>
      <trkpt lat="44.47542" lon="1.81694">
        <ele>173.2</ele>
        <time>2015-10-31T11:30:18Z</time>
      </trkpt>
      <trkpt lat="44.47536" lon="1.81691">
        <ele>172.1</ele>
        <time>2015-10-31T11:30:19Z</time>
      </trkpt>
      <trkpt lat="44.47531" lon="1.81688">
        <ele>171.4</ele>
        <time>2015-10-31T11:30:20Z</time>
      </trkpt>
      <trkpt lat="44.47526" lon="1.81687">
        <ele>170.3</ele>
        <time>2015-10-31T11:30:21Z</time>
      </trkpt>
      <trkpt lat="44.47521" lon="1.81683">
        <ele>169.8</ele>
        <time>2015-10-31T11:30:22Z</time>
      </trkpt>
      <trkpt lat="44.47516" lon="1.81681">
        <ele>169.2</ele>
        <time>2015-10-31T11:30:23Z</time>
      </trkpt>
      <trkpt lat="44.47511" lon="1.81676">
        <ele>168.7</ele>
        <time>2015-10-31T11:30:24Z</time>
      </trkpt>
      <trkpt lat="44.47507" lon="1.8167">
        <ele>168.7</ele>
        <time>2015-10-31T11:30:25Z</time>
      </trkpt>
      <trkpt lat="44.47504" lon="1.81662">
        <ele>169.2</ele>
        <time>2015-10-31T11:30:26Z</time>
      </trkpt>
      <trkpt lat="44.47499" lon="1.81656">
        <ele>169.3</ele>
        <time>2015-10-31T11:30:27Z</time>
      </trkpt>
      <trkpt lat="44.47496" lon="1.81648">
        <ele>169.7</ele>
        <time>2015-10-31T11:30:28Z</time>
      </trkpt>
      <trkpt lat="44.47494" lon="1.8164">
        <ele>170.5</ele>
        <time>2015-10-31T11:30:29Z</time>
      </trkpt>
      <trkpt lat="44.47491" lon="1.81633">
        <ele>170.9</ele>
        <time>2015-10-31T11:30:30Z</time>
      </trkpt>
      <trkpt lat="44.47488" lon="1.81626">
        <ele>171.5</ele>
        <time>2015-10-31T11:30:31Z</time>
      </trkpt>
      <trkpt lat="44.47486" lon="1.81618">
        <ele>172</ele>
        <time>2015-10-31T11:30:32Z</time>
      </trkpt>
      <trkpt lat="44.47485" lon="1.8161">
        <ele>172.5</ele>
        <time>2015-10-31T11:30:33Z</time>
      </trkpt>
      <trkpt lat="44.47485" lon="1.816">
        <ele>173.3</ele>
        <time>2015-10-31T11:30:34Z</time>
      </trkpt>
      <trkpt lat="44.47483" lon="1.81591">
        <ele>173.9</ele>
        <time>2015-10-31T11:30:35Z</time>
      </trkpt>
      <trkpt lat="44.47482" lon="1.81584">
        <ele>174.4</ele>
        <time>2015-10-31T11:30:36Z</time>
      </trkpt>
      <trkpt lat="44.47481" lon="1.81576">
        <ele>175.1</ele>
        <time>2015-10-31T11:30:37Z</time>
      </trkpt>
      <trkpt lat="44.4748" lon="1.81567">
        <ele>175.9</ele>
        <time>2015-10-31T11:30:38Z</time>
      </trkpt>
      <trkpt lat="44.4748" lon="1.81559">
        <ele>176.6</ele>
        <time>2015-10-31T11:30:39Z</time>
      </trkpt>
      <trkpt lat="44.47479" lon="1.81551">
        <ele>177.3</ele>
        <time>2015-10-31T11:30:40Z</time>
      </trkpt>
      <trkpt lat="44.47479" lon="1.81543">
        <ele>178.1</ele>
        <time>2015-10-31T11:30:41Z</time>
      </trkpt>
      <trkpt lat="44.47479" lon="1.81535">
        <ele>178.4</ele>
        <time>2015-10-31T11:30:42Z</time>
      </trkpt>
      <trkpt lat="44.47478" lon="1.81527">
        <ele>178.6</ele>
        <time>2015-10-31T11:30:43Z</time>
      </trkpt>
      <trkpt lat="44.47478" lon="1.81519">
        <ele>178.9</ele>
        <time>2015-10-31T11:30:44Z</time>
      </trkpt>
      <trkpt lat="44.47479" lon="1.81511">
        <ele>179.2</ele>
        <time>2015-10-31T11:30:45Z</time>
      </trkpt>
      <trkpt lat="44.4748" lon="1.81503">
        <ele>179.5</ele>
        <time>2015-10-31T11:30:46Z</time>
      </trkpt>
      <trkpt lat="44.47481" lon="1.81493">
        <ele>179.7</ele>
        <time>2015-10-31T11:30:47Z</time>
      </trkpt>
      <trkpt lat="44.47482" lon="1.81485">
        <ele>180</ele>
        <time>2015-10-31T11:30:48Z</time>
      </trkpt>
      <trkpt lat="44.47483" lon="1.81477">
        <ele>180.2</ele>
        <time>2015-10-31T11:30:49Z</time>
      </trkpt>
      <trkpt lat="44.47485" lon="1.81468">
        <ele>180.4</ele>
        <time>2015-10-31T11:30:50Z</time>
      </trkpt>
      <trkpt lat="44.47486" lon="1.81461">
        <ele>180.6</ele>
        <time>2015-10-31T11:30:51Z</time>
      </trkpt>
      <trkpt lat="44.47488" lon="1.81454">
        <ele>180.5</ele>
        <time>2015-10-31T11:30:52Z</time>
      </trkpt>
      <trkpt lat="44.47491" lon="1.81446">
        <ele>180.2</ele>
        <time>2015-10-31T11:30:53Z</time>
      </trkpt>
      <trkpt lat="44.47494" lon="1.81439">
        <ele>180</ele>
        <time>2015-10-31T11:30:54Z</time>
      </trkpt>
      <trkpt lat="44.47497" lon="1.81432">
        <ele>179.7</ele>
        <time>2015-10-31T11:30:55Z</time>
      </trkpt>
      <trkpt lat="44.47499" lon="1.81424">
        <ele>179.5</ele>
        <time>2015-10-31T11:30:56Z</time>
      </trkpt>
      <trkpt lat="44.47502" lon="1.81418">
        <ele>179.3</ele>
        <time>2015-10-31T11:30:57Z</time>
      </trkpt>
      <trkpt lat="44.47505" lon="1.81411">
        <ele>179</ele>
        <time>2015-10-31T11:30:58Z</time>
      </trkpt>
      <trkpt lat="44.47508" lon="1.81404">
        <ele>178.8</ele>
        <time>2015-10-31T11:30:59Z</time>
      </trkpt>
      <trkpt lat="44.47511" lon="1.81398">
        <ele>178.7</ele>
        <time>2015-10-31T11:31:00Z</time>
      </trkpt>
      <trkpt lat="44.47516" lon="1.81391">
        <ele>178.5</ele>
        <time>2015-10-31T11:31:01Z</time>
      </trkpt>
      <trkpt lat="44.47519" lon="1.81387">
        <ele>178.3</ele>
        <time>2015-10-31T11:31:02Z</time>
      </trkpt>
      <trkpt lat="44.47523" lon="1.8138">
        <ele>178.1</ele>
        <time>2015-10-31T11:31:03Z</time>
      </trkpt>
      <trkpt lat="44.47527" lon="1.81374">
        <ele>178</ele>
        <time>2015-10-31T11:31:04Z</time>
      </trkpt>
      <trkpt lat="44.47529" lon="1.81371">
        <ele>177.9</ele>
        <time>2015-10-31T11:31:05Z</time>
      </trkpt>
      <trkpt lat="44.47534" lon="1.81368">
        <ele>177.8</ele>
        <time>2015-10-31T11:31:06Z</time>
      </trkpt>
      <trkpt lat="44.4754" lon="1.81364">
        <ele>177.7</ele>
        <time>2015-10-31T11:31:07Z</time>
      </trkpt>
      <trkpt lat="44.47545" lon="1.81362">
        <ele>177.7</ele>
        <time>2015-10-31T11:31:08Z</time>
      </trkpt>
      <trkpt lat="44.4755" lon="1.81361">
        <ele>177.7</ele>
        <time>2015-10-31T11:31:09Z</time>
      </trkpt>
      <trkpt lat="44.47556" lon="1.81361">
        <ele>177.7</ele>
        <time>2015-10-31T11:31:10Z</time>
      </trkpt>
      <trkpt lat="44.47563" lon="1.81358">
        <ele>177.7</ele>
        <time>2015-10-31T11:31:11Z</time>
      </trkpt>
      <trkpt lat="44.47568" lon="1.81359">
        <ele>177.7</ele>
        <time>2015-10-31T11:31:12Z</time>
      </trkpt>
      <trkpt lat="44.47572" lon="1.8136">
        <ele>177.8</ele>
        <time>2015-10-31T11:31:13Z</time>
      </trkpt>
      <trkpt lat="44.47579" lon="1.8136">
        <ele>177.8</ele>
        <time>2015-10-31T11:31:14Z</time>
      </trkpt>
      <trkpt lat="44.47585" lon="1.81361">
        <ele>177.9</ele>
        <time>2015-10-31T11:31:15Z</time>
      </trkpt>
      <trkpt lat="44.47591" lon="1.81361">
        <ele>177.9</ele>
        <time>2015-10-31T11:31:16Z</time>
      </trkpt>
      <trkpt lat="44.47598" lon="1.81361">
        <ele>178</ele>
        <time>2015-10-31T11:31:17Z</time>
      </trkpt>
      <trkpt lat="44.47604" lon="1.81358">
        <ele>177.9</ele>
        <time>2015-10-31T11:31:18Z</time>
      </trkpt>
      <trkpt lat="44.47611" lon="1.81358">
        <ele>177.9</ele>
        <time>2015-10-31T11:31:19Z</time>
      </trkpt>
      <trkpt lat="44.47613" lon="1.81352">
        <ele>177.6</ele>
        <time>2015-10-31T11:31:20Z</time>
      </trkpt>
      <trkpt lat="44.47618" lon="1.81351">
        <ele>177.5</ele>
        <time>2015-10-31T11:31:21Z</time>
      </trkpt>
      <trkpt lat="44.47622" lon="1.81349">
        <ele>177.4</ele>
        <time>2015-10-31T11:31:22Z</time>
      </trkpt>
      <trkpt lat="44.47627" lon="1.81345">
        <ele>177.2</ele>
        <time>2015-10-31T11:31:23Z</time>
      </trkpt>
      <trkpt lat="44.47631" lon="1.81342">
        <ele>177.1</ele>
        <time>2015-10-31T11:31:24Z</time>
      </trkpt>
      <trkpt lat="44.47635" lon="1.8134">
        <ele>177</ele>
        <time>2015-10-31T11:31:25Z</time>
      </trkpt>
      <trkpt lat="44.4764" lon="1.81336">
        <ele>176.9</ele>
        <time>2015-10-31T11:31:26Z</time>
      </trkpt>
      <trkpt lat="44.47645" lon="1.81333">
        <ele>176.8</ele>
        <time>2015-10-31T11:31:27Z</time>
      </trkpt>
      <trkpt lat="44.47649" lon="1.8133">
        <ele>176.8</ele>
        <time>2015-10-31T11:31:28Z</time>
      </trkpt>
      <trkpt lat="44.47655" lon="1.81326">
        <ele>176.7</ele>
        <time>2015-10-31T11:31:29Z</time>
      </trkpt>
      <trkpt lat="44.47659" lon="1.81322">
        <ele>176.6</ele>
        <time>2015-10-31T11:31:30Z</time>
      </trkpt>
      <trkpt lat="44.47663" lon="1.81318">
        <ele>176.5</ele>
        <time>2015-10-31T11:31:31Z</time>
      </trkpt>
      <trkpt lat="44.47668" lon="1.81315">
        <ele>176.5</ele>
        <time>2015-10-31T11:31:32Z</time>
      </trkpt>
      <trkpt lat="44.47671" lon="1.8131">
        <ele>176.4</ele>
        <time>2015-10-31T11:31:33Z</time>
      </trkpt>
      <trkpt lat="44.47674" lon="1.81305">
        <ele>176.3</ele>
        <time>2015-10-31T11:31:34Z</time>
      </trkpt>
      <trkpt lat="44.47676" lon="1.81298">
        <ele>176.1</ele>
        <time>2015-10-31T11:31:35Z</time>
      </trkpt>
      <trkpt lat="44.4768" lon="1.81294">
        <ele>176.1</ele>
        <time>2015-10-31T11:31:36Z</time>
      </trkpt>
      <trkpt lat="44.47683" lon="1.8129">
        <ele>176.1</ele>
        <time>2015-10-31T11:31:37Z</time>
      </trkpt>
      <trkpt lat="44.47686" lon="1.81282">
        <ele>176.4</ele>
        <time>2015-10-31T11:31:38Z</time>
      </trkpt>
      <trkpt lat="44.47691" lon="1.81281">
        <ele>176.7</ele>
        <time>2015-10-31T11:31:39Z</time>
      </trkpt>
      <trkpt lat="44.47692" lon="1.81276">
        <ele>176.9</ele>
        <time>2015-10-31T11:31:40Z</time>
      </trkpt>
      <trkpt lat="44.47693" lon="1.8127">
        <ele>177</ele>
        <time>2015-10-31T11:31:41Z</time>
      </trkpt>
      <trkpt lat="44.47693" lon="1.81265">
        <ele>177.2</ele>
        <time>2015-10-31T11:31:42Z</time>
      </trkpt>
      <trkpt lat="44.47694" lon="1.81261">
        <ele>177.4</ele>
        <time>2015-10-31T11:31:43Z</time>
      </trkpt>
      <trkpt lat="44.47694" lon="1.81255">
        <ele>177.5</ele>
        <time>2015-10-31T11:31:44Z</time>
      </trkpt>
      <trkpt lat="44.47693" lon="1.8125">
        <ele>177.6</ele>
        <time>2015-10-31T11:31:45Z</time>
      </trkpt>
      <trkpt lat="44.47692" lon="1.81243">
        <ele>177.7</ele>
        <time>2015-10-31T11:31:46Z</time>
      </trkpt>
      <trkpt lat="44.47689" lon="1.81238">
        <ele>177.6</ele>
        <time>2015-10-31T11:31:47Z</time>
      </trkpt>
      <trkpt lat="44.47686" lon="1.81231">
        <ele>177.4</ele>
        <time>2015-10-31T11:31:49Z</time>
      </trkpt>
      <trkpt lat="44.47686" lon="1.81226">
        <ele>177.5</ele>
        <time>2015-10-31T11:31:50Z</time>
      </trkpt>
      <trkpt lat="44.47685" lon="1.8122">
        <ele>177.5</ele>
        <time>2015-10-31T11:31:51Z</time>
      </trkpt>
      <trkpt lat="44.47684" lon="1.81215">
        <ele>177.4</ele>
        <time>2015-10-31T11:31:52Z</time>
      </trkpt>
      <trkpt lat="44.47683" lon="1.81205">
        <ele>177.5</ele>
        <time>2015-10-31T11:31:53Z</time>
      </trkpt>
      <trkpt lat="44.47682" lon="1.81198">
        <ele>177.7</ele>
        <time>2015-10-31T11:31:54Z</time>
      </trkpt>
      <trkpt lat="44.47682" lon="1.81193">
        <ele>177.9</ele>
        <time>2015-10-31T11:31:55Z</time>
      </trkpt>
      <trkpt lat="44.47681" lon="1.81188">
        <ele>178</ele>
        <time>2015-10-31T11:31:56Z</time>
      </trkpt>
      <trkpt lat="44.4768" lon="1.81176">
        <ele>178.3</ele>
        <time>2015-10-31T11:31:58Z</time>
      </trkpt>
      <trkpt lat="44.47677" lon="1.81171">
        <ele>178</ele>
        <time>2015-10-31T11:31:59Z</time>
      </trkpt>
      <trkpt lat="44.47676" lon="1.81165">
        <ele>178.1</ele>
        <time>2015-10-31T11:32:00Z</time>
      </trkpt>
      <trkpt lat="44.47674" lon="1.81155">
        <ele>178</ele>
        <time>2015-10-31T11:32:02Z</time>
      </trkpt>
      <trkpt lat="44.47673" lon="1.8115">
        <ele>177.9</ele>
        <time>2015-10-31T11:32:03Z</time>
      </trkpt>
      <trkpt lat="44.47671" lon="1.81146">
        <ele>177.8</ele>
        <time>2015-10-31T11:32:04Z</time>
      </trkpt>
      <trkpt lat="44.4767" lon="1.81141">
        <ele>177.7</ele>
        <time>2015-10-31T11:32:05Z</time>
      </trkpt>
      <trkpt lat="44.47669" lon="1.81136">
        <ele>177.6</ele>
        <time>2015-10-31T11:32:06Z</time>
      </trkpt>
      <trkpt lat="44.47668" lon="1.81131">
        <ele>177.5</ele>
        <time>2015-10-31T11:32:07Z</time>
      </trkpt>
      <trkpt lat="44.47666" lon="1.81127">
        <ele>177.3</ele>
        <time>2015-10-31T11:32:08Z</time>
      </trkpt>
      <trkpt lat="44.47664" lon="1.81121">
        <ele>176.9</ele>
        <time>2015-10-31T11:32:09Z</time>
      </trkpt>
      <trkpt lat="44.47662" lon="1.81112">
        <ele>176.3</ele>
        <time>2015-10-31T11:32:10Z</time>
      </trkpt>
      <trkpt lat="44.47659" lon="1.81106">
        <ele>175.8</ele>
        <time>2015-10-31T11:32:11Z</time>
      </trkpt>
      <trkpt lat="44.47657" lon="1.81099">
        <ele>175.1</ele>
        <time>2015-10-31T11:32:12Z</time>
      </trkpt>
      <trkpt lat="44.47655" lon="1.81091">
        <ele>174.8</ele>
        <time>2015-10-31T11:32:13Z</time>
      </trkpt>
      <trkpt lat="44.47654" lon="1.81083">
        <ele>174.3</ele>
        <time>2015-10-31T11:32:14Z</time>
      </trkpt>
      <trkpt lat="44.47652" lon="1.81076">
        <ele>174</ele>
        <time>2015-10-31T11:32:15Z</time>
      </trkpt>
      <trkpt lat="44.47652" lon="1.81069">
        <ele>173.8</ele>
        <time>2015-10-31T11:32:16Z</time>
      </trkpt>
      <trkpt lat="44.47651" lon="1.81062">
        <ele>173.7</ele>
        <time>2015-10-31T11:32:17Z</time>
      </trkpt>
      <trkpt lat="44.4765" lon="1.81055">
        <ele>173.5</ele>
        <time>2015-10-31T11:32:18Z</time>
      </trkpt>
      <trkpt lat="44.4765" lon="1.81048">
        <ele>173.4</ele>
        <time>2015-10-31T11:32:19Z</time>
      </trkpt>
      <trkpt lat="44.4765" lon="1.81042">
        <ele>173.2</ele>
        <time>2015-10-31T11:32:20Z</time>
      </trkpt>
      <trkpt lat="44.4765" lon="1.81036">
        <ele>173.2</ele>
        <time>2015-10-31T11:32:21Z</time>
      </trkpt>
      <trkpt lat="44.4765" lon="1.81028">
        <ele>173.1</ele>
        <time>2015-10-31T11:32:22Z</time>
      </trkpt>
      <trkpt lat="44.4765" lon="1.81022">
        <ele>173.1</ele>
        <time>2015-10-31T11:32:23Z</time>
      </trkpt>
      <trkpt lat="44.4765" lon="1.81015">
        <ele>173.1</ele>
        <time>2015-10-31T11:32:24Z</time>
      </trkpt>
      <trkpt lat="44.47651" lon="1.81008">
        <ele>173.1</ele>
        <time>2015-10-31T11:32:25Z</time>
      </trkpt>
      <trkpt lat="44.47652" lon="1.81003">
        <ele>173.3</ele>
        <time>2015-10-31T11:32:26Z</time>
      </trkpt>
      <trkpt lat="44.47653" lon="1.80996">
        <ele>173.4</ele>
        <time>2015-10-31T11:32:27Z</time>
      </trkpt>
      <trkpt lat="44.47653" lon="1.80989">
        <ele>173.5</ele>
        <time>2015-10-31T11:32:28Z</time>
      </trkpt>
      <trkpt lat="44.47653" lon="1.80981">
        <ele>173.4</ele>
        <time>2015-10-31T11:32:29Z</time>
      </trkpt>
      <trkpt lat="44.47654" lon="1.80974">
        <ele>173.4</ele>
        <time>2015-10-31T11:32:30Z</time>
      </trkpt>
      <trkpt lat="44.47654" lon="1.80967">
        <ele>173.4</ele>
        <time>2015-10-31T11:32:31Z</time>
      </trkpt>
      <trkpt lat="44.47654" lon="1.8096">
        <ele>173.4</ele>
        <time>2015-10-31T11:32:32Z</time>
      </trkpt>
      <trkpt lat="44.47655" lon="1.80952">
        <ele>173.5</ele>
        <time>2015-10-31T11:32:33Z</time>
      </trkpt>
      <trkpt lat="44.47655" lon="1.80946">
        <ele>173.5</ele>
        <time>2015-10-31T11:32:34Z</time>
      </trkpt>
      <trkpt lat="44.47655" lon="1.80939">
        <ele>173.3</ele>
        <time>2015-10-31T11:32:35Z</time>
      </trkpt>
      <trkpt lat="44.47656" lon="1.80933">
        <ele>173.5</ele>
        <time>2015-10-31T11:32:36Z</time>
      </trkpt>
      <trkpt lat="44.47657" lon="1.80927">
        <ele>173.5</ele>
        <time>2015-10-31T11:32:37Z</time>
      </trkpt>
      <trkpt lat="44.47657" lon="1.80921">
        <ele>173.5</ele>
        <time>2015-10-31T11:32:38Z</time>
      </trkpt>
      <trkpt lat="44.47657" lon="1.80916">
        <ele>173.5</ele>
        <time>2015-10-31T11:32:39Z</time>
      </trkpt>
      <trkpt lat="44.47656" lon="1.80907">
        <ele>173.2</ele>
        <time>2015-10-31T11:32:40Z</time>
      </trkpt>
      <trkpt lat="44.47657" lon="1.80902">
        <ele>173.2</ele>
        <time>2015-10-31T11:32:41Z</time>
      </trkpt>
      <trkpt lat="44.47657" lon="1.80897">
        <ele>173.3</ele>
        <time>2015-10-31T11:32:42Z</time>
      </trkpt>
      <trkpt lat="44.47658" lon="1.80891">
        <ele>173.4</ele>
        <time>2015-10-31T11:32:43Z</time>
      </trkpt>
      <trkpt lat="44.47659" lon="1.80886">
        <ele>173.5</ele>
        <time>2015-10-31T11:32:44Z</time>
      </trkpt>
      <trkpt lat="44.4766" lon="1.80878">
        <ele>173.5</ele>
        <time>2015-10-31T11:32:45Z</time>
      </trkpt>
      <trkpt lat="44.4766" lon="1.80872">
        <ele>173.2</ele>
        <time>2015-10-31T11:32:46Z</time>
      </trkpt>
      <trkpt lat="44.47661" lon="1.80867">
        <ele>173.1</ele>
        <time>2015-10-31T11:32:47Z</time>
      </trkpt>
      <trkpt lat="44.4766" lon="1.80857">
        <ele>172.4</ele>
        <time>2015-10-31T11:32:48Z</time>
      </trkpt>
      <trkpt lat="44.47661" lon="1.8085">
        <ele>172</ele>
        <time>2015-10-31T11:32:49Z</time>
      </trkpt>
      <trkpt lat="44.47662" lon="1.80842">
        <ele>171.7</ele>
        <time>2015-10-31T11:32:50Z</time>
      </trkpt>
      <trkpt lat="44.47664" lon="1.80834">
        <ele>171.4</ele>
        <time>2015-10-31T11:32:51Z</time>
      </trkpt>
      <trkpt lat="44.47663" lon="1.80825">
        <ele>170.6</ele>
        <time>2015-10-31T11:32:52Z</time>
      </trkpt>
      <trkpt lat="44.47665" lon="1.80818">
        <ele>170.6</ele>
        <time>2015-10-31T11:32:53Z</time>
      </trkpt>
      <trkpt lat="44.47666" lon="1.80813">
        <ele>170.4</ele>
        <time>2015-10-31T11:32:54Z</time>
      </trkpt>
      <trkpt lat="44.47668" lon="1.80806">
        <ele>170.4</ele>
        <time>2015-10-31T11:32:55Z</time>
      </trkpt>
      <trkpt lat="44.47671" lon="1.808">
        <ele>170.4</ele>
        <time>2015-10-31T11:32:56Z</time>
      </trkpt>
      <trkpt lat="44.47672" lon="1.80792">
        <ele>170.1</ele>
        <time>2015-10-31T11:32:57Z</time>
      </trkpt>
      <trkpt lat="44.47673" lon="1.80786">
        <ele>169.8</ele>
        <time>2015-10-31T11:32:58Z</time>
      </trkpt>
      <trkpt lat="44.47674" lon="1.8078">
        <ele>169.4</ele>
        <time>2015-10-31T11:32:59Z</time>
      </trkpt>
      <trkpt lat="44.47677" lon="1.80773">
        <ele>169.1</ele>
        <time>2015-10-31T11:33:00Z</time>
      </trkpt>
      <trkpt lat="44.47678" lon="1.80767">
        <ele>168.8</ele>
        <time>2015-10-31T11:33:01Z</time>
      </trkpt>
      <trkpt lat="44.47681" lon="1.8076">
        <ele>168.5</ele>
        <time>2015-10-31T11:33:02Z</time>
      </trkpt>
      <trkpt lat="44.47683" lon="1.80754">
        <ele>168.1</ele>
        <time>2015-10-31T11:33:03Z</time>
      </trkpt>
      <trkpt lat="44.47686" lon="1.80752">
        <ele>168.5</ele>
        <time>2015-10-31T11:33:04Z</time>
      </trkpt>
      <trkpt lat="44.47689" lon="1.80749">
        <ele>168.8</ele>
        <time>2015-10-31T11:33:05Z</time>
      </trkpt>
      <trkpt lat="44.47691" lon="1.8074">
        <ele>168</ele>
        <time>2015-10-31T11:33:06Z</time>
      </trkpt>
      <trkpt lat="44.47694" lon="1.80732">
        <ele>167.6</ele>
        <time>2015-10-31T11:33:07Z</time>
      </trkpt>
      <trkpt lat="44.47696" lon="1.80725">
        <ele>167.2</ele>
        <time>2015-10-31T11:33:08Z</time>
      </trkpt>
      <trkpt lat="44.47699" lon="1.80721">
        <ele>167</ele>
        <time>2015-10-31T11:33:09Z</time>
      </trkpt>
      <trkpt lat="44.477" lon="1.80714">
        <ele>166.4</ele>
        <time>2015-10-31T11:33:10Z</time>
      </trkpt>
      <trkpt lat="44.47701" lon="1.80707">
        <ele>165.6</ele>
        <time>2015-10-31T11:33:11Z</time>
      </trkpt>
      <trkpt lat="44.47704" lon="1.80701">
        <ele>165.3</ele>
        <time>2015-10-31T11:33:12Z</time>
      </trkpt>
      <trkpt lat="44.47708" lon="1.80697">
        <ele>165.3</ele>
        <time>2015-10-31T11:33:13Z</time>
      </trkpt>
      <trkpt lat="44.47712" lon="1.80691">
        <ele>165.5</ele>
        <time>2015-10-31T11:33:14Z</time>
      </trkpt>
      <trkpt lat="44.47716" lon="1.80687">
        <ele>165.9</ele>
        <time>2015-10-31T11:33:15Z</time>
      </trkpt>
      <trkpt lat="44.47719" lon="1.8068">
        <ele>165.9</ele>
        <time>2015-10-31T11:33:16Z</time>
      </trkpt>
      <trkpt lat="44.47723" lon="1.80674">
        <ele>165.8</ele>
        <time>2015-10-31T11:33:17Z</time>
      </trkpt>
      <trkpt lat="44.47726" lon="1.80673">
        <ele>166.5</ele>
        <time>2015-10-31T11:33:18Z</time>
      </trkpt>
      <trkpt lat="44.47732" lon="1.80667">
        <ele>167.1</ele>
        <time>2015-10-31T11:33:19Z</time>
      </trkpt>
      <trkpt lat="44.47737" lon="1.80661">
        <ele>167.2</ele>
        <time>2015-10-31T11:33:20Z</time>
      </trkpt>
      <trkpt lat="44.47742" lon="1.80658">
        <ele>168</ele>
        <time>2015-10-31T11:33:21Z</time>
      </trkpt>
      <trkpt lat="44.47745" lon="1.8065">
        <ele>167.2</ele>
        <time>2015-10-31T11:33:22Z</time>
      </trkpt>
      <trkpt lat="44.4775" lon="1.80651">
        <ele>168.4</ele>
        <time>2015-10-31T11:33:23Z</time>
      </trkpt>
      <trkpt lat="44.47753" lon="1.80648">
        <ele>168.6</ele>
        <time>2015-10-31T11:33:24Z</time>
      </trkpt>
      <trkpt lat="44.47757" lon="1.80644">
        <ele>168.7</ele>
        <time>2015-10-31T11:33:25Z</time>
      </trkpt>
      <trkpt lat="44.47761" lon="1.8064">
        <ele>168.9</ele>
        <time>2015-10-31T11:33:26Z</time>
      </trkpt>
      <trkpt lat="44.47764" lon="1.80636">
        <ele>168.6</ele>
        <time>2015-10-31T11:33:27Z</time>
      </trkpt>
      <trkpt lat="44.47767" lon="1.80626">
        <ele>167.3</ele>
        <time>2015-10-31T11:33:28Z</time>
      </trkpt>
      <trkpt lat="44.4777" lon="1.80616">
        <ele>166.2</ele>
        <time>2015-10-31T11:33:29Z</time>
      </trkpt>
      <trkpt lat="44.47773" lon="1.80607">
        <ele>165.2</ele>
        <time>2015-10-31T11:33:30Z</time>
      </trkpt>
      <trkpt lat="44.47778" lon="1.80604">
        <ele>165.7</ele>
        <time>2015-10-31T11:33:31Z</time>
      </trkpt>
      <trkpt lat="44.47781" lon="1.80599">
        <ele>165.5</ele>
        <time>2015-10-31T11:33:32Z</time>
      </trkpt>
      <trkpt lat="44.47786" lon="1.80596">
        <ele>165.9</ele>
        <time>2015-10-31T11:33:33Z</time>
      </trkpt>
      <trkpt lat="44.47791" lon="1.80591">
        <ele>165.7</ele>
        <time>2015-10-31T11:33:34Z</time>
      </trkpt>
      <trkpt lat="44.47795" lon="1.80585">
        <ele>165.6</ele>
        <time>2015-10-31T11:33:35Z</time>
      </trkpt>
      <trkpt lat="44.47798" lon="1.80578">
        <ele>165.1</ele>
        <time>2015-10-31T11:33:36Z</time>
      </trkpt>
      <trkpt lat="44.47801" lon="1.8057">
        <ele>164.3</ele>
        <time>2015-10-31T11:33:37Z</time>
      </trkpt>
      <trkpt lat="44.47804" lon="1.80564">
        <ele>164.3</ele>
        <time>2015-10-31T11:33:38Z</time>
      </trkpt>
      <trkpt lat="44.47808" lon="1.80558">
        <ele>163.9</ele>
        <time>2015-10-31T11:33:39Z</time>
      </trkpt>
      <trkpt lat="44.47811" lon="1.8055">
        <ele>163.3</ele>
        <time>2015-10-31T11:33:40Z</time>
      </trkpt>
      <trkpt lat="44.47815" lon="1.80544">
        <ele>163.1</ele>
        <time>2015-10-31T11:33:41Z</time>
      </trkpt>
      <trkpt lat="44.47818" lon="1.80539">
        <ele>162.9</ele>
        <time>2015-10-31T11:33:42Z</time>
      </trkpt>
      <trkpt lat="44.47823" lon="1.80534">
        <ele>163.1</ele>
        <time>2015-10-31T11:33:43Z</time>
      </trkpt>
      <trkpt lat="44.47826" lon="1.80529">
        <ele>163.2</ele>
        <time>2015-10-31T11:33:44Z</time>
      </trkpt>
      <trkpt lat="44.4783" lon="1.80524">
        <ele>163.1</ele>
        <time>2015-10-31T11:33:45Z</time>
      </trkpt>
      <trkpt lat="44.47832" lon="1.80518">
        <ele>162.7</ele>
        <time>2015-10-31T11:33:46Z</time>
      </trkpt>
      <trkpt lat="44.47844" lon="1.80502">
        <ele>162.2</ele>
        <time>2015-10-31T11:33:49Z</time>
      </trkpt>
      <trkpt lat="44.47847" lon="1.80497">
        <ele>161.8</ele>
        <time>2015-10-31T11:33:50Z</time>
      </trkpt>
      <trkpt lat="44.47852" lon="1.80491">
        <ele>161.7</ele>
        <time>2015-10-31T11:33:51Z</time>
      </trkpt>
      <trkpt lat="44.47855" lon="1.80485">
        <ele>161.2</ele>
        <time>2015-10-31T11:33:52Z</time>
      </trkpt>
      <trkpt lat="44.47859" lon="1.80479">
        <ele>160.6</ele>
        <time>2015-10-31T11:33:53Z</time>
      </trkpt>
      <trkpt lat="44.47862" lon="1.80476">
        <ele>160.6</ele>
        <time>2015-10-31T11:33:54Z</time>
      </trkpt>
      <trkpt lat="44.47865" lon="1.80472">
        <ele>160.4</ele>
        <time>2015-10-31T11:33:55Z</time>
      </trkpt>
      <trkpt lat="44.47869" lon="1.80466">
        <ele>159.7</ele>
        <time>2015-10-31T11:33:56Z</time>
      </trkpt>
      <trkpt lat="44.47873" lon="1.80458">
        <ele>158.6</ele>
        <time>2015-10-31T11:33:57Z</time>
      </trkpt>
      <trkpt lat="44.47877" lon="1.80453">
        <ele>159.1</ele>
        <time>2015-10-31T11:33:58Z</time>
      </trkpt>
      <trkpt lat="44.47882" lon="1.8045">
        <ele>160.4</ele>
        <time>2015-10-31T11:33:59Z</time>
      </trkpt>
      <trkpt lat="44.47884" lon="1.80446">
        <ele>160.7</ele>
        <time>2015-10-31T11:34:00Z</time>
      </trkpt>
      <trkpt lat="44.47887" lon="1.80442">
        <ele>161.1</ele>
        <time>2015-10-31T11:34:01Z</time>
      </trkpt>
      <trkpt lat="44.47889" lon="1.80437">
        <ele>161.1</ele>
        <time>2015-10-31T11:34:02Z</time>
      </trkpt>
      <trkpt lat="44.47892" lon="1.80432">
        <ele>161.4</ele>
        <time>2015-10-31T11:34:03Z</time>
      </trkpt>
      <trkpt lat="44.47896" lon="1.80428">
        <ele>162.1</ele>
        <time>2015-10-31T11:34:04Z</time>
      </trkpt>
      <trkpt lat="44.47899" lon="1.8042">
        <ele>161.9</ele>
        <time>2015-10-31T11:34:05Z</time>
      </trkpt>
      <trkpt lat="44.479" lon="1.80414">
        <ele>161.6</ele>
        <time>2015-10-31T11:34:06Z</time>
      </trkpt>
      <trkpt lat="44.47902" lon="1.80408">
        <ele>161.3</ele>
        <time>2015-10-31T11:34:07Z</time>
      </trkpt>
      <trkpt lat="44.47905" lon="1.80402">
        <ele>161.3</ele>
        <time>2015-10-31T11:34:08Z</time>
      </trkpt>
      <trkpt lat="44.47908" lon="1.80395">
        <ele>161.3</ele>
        <time>2015-10-31T11:34:09Z</time>
      </trkpt>
      <trkpt lat="44.47911" lon="1.80389">
        <ele>161.2</ele>
        <time>2015-10-31T11:34:10Z</time>
      </trkpt>
      <trkpt lat="44.47913" lon="1.80383">
        <ele>161.2</ele>
        <time>2015-10-31T11:34:11Z</time>
      </trkpt>
      <trkpt lat="44.47916" lon="1.80375">
        <ele>160.6</ele>
        <time>2015-10-31T11:34:12Z</time>
      </trkpt>
      <trkpt lat="44.47918" lon="1.80371">
        <ele>160.8</ele>
        <time>2015-10-31T11:34:13Z</time>
      </trkpt>
      <trkpt lat="44.4792" lon="1.80367">
        <ele>161</ele>
        <time>2015-10-31T11:34:14Z</time>
      </trkpt>
      <trkpt lat="44.47922" lon="1.80364">
        <ele>161.2</ele>
        <time>2015-10-31T11:34:15Z</time>
      </trkpt>
      <trkpt lat="44.47924" lon="1.80358">
        <ele>160.8</ele>
        <time>2015-10-31T11:34:16Z</time>
      </trkpt>
      <trkpt lat="44.47927" lon="1.80353">
        <ele>160.9</ele>
        <time>2015-10-31T11:34:17Z</time>
      </trkpt>
      <trkpt lat="44.47929" lon="1.80348">
        <ele>160.7</ele>
        <time>2015-10-31T11:34:18Z</time>
      </trkpt>
      <trkpt lat="44.47932" lon="1.8034">
        <ele>160.1</ele>
        <time>2015-10-31T11:34:19Z</time>
      </trkpt>
      <trkpt lat="44.47933" lon="1.80334">
        <ele>159.6</ele>
        <time>2015-10-31T11:34:20Z</time>
      </trkpt>
      <trkpt lat="44.47936" lon="1.80331">
        <ele>159.7</ele>
        <time>2015-10-31T11:34:21Z</time>
      </trkpt>
      <trkpt lat="44.47938" lon="1.80323">
        <ele>158.7</ele>
        <time>2015-10-31T11:34:22Z</time>
      </trkpt>
      <trkpt lat="44.47941" lon="1.80319">
        <ele>158.5</ele>
        <time>2015-10-31T11:34:23Z</time>
      </trkpt>
      <trkpt lat="44.47943" lon="1.80316">
        <ele>158.3</ele>
        <time>2015-10-31T11:34:24Z</time>
      </trkpt>
      <trkpt lat="44.47945" lon="1.80312">
        <ele>158.1</ele>
        <time>2015-10-31T11:34:25Z</time>
      </trkpt>
      <trkpt lat="44.47947" lon="1.8031">
        <ele>158</ele>
        <time>2015-10-31T11:34:26Z</time>
      </trkpt>
      <trkpt lat="44.47951" lon="1.803">
        <ele>156.6</ele>
        <time>2015-10-31T11:34:27Z</time>
      </trkpt>
      <trkpt lat="44.47953" lon="1.80287">
        <ele>154.8</ele>
        <time>2015-10-31T11:34:28Z</time>
      </trkpt>
      <trkpt lat="44.47954" lon="1.80282">
        <ele>154.4</ele>
        <time>2015-10-31T11:34:29Z</time>
      </trkpt>
      <trkpt lat="44.47955" lon="1.80276">
        <ele>153.9</ele>
        <time>2015-10-31T11:34:30Z</time>
      </trkpt>
      <trkpt lat="44.47957" lon="1.80269">
        <ele>153.4</ele>
        <time>2015-10-31T11:34:31Z</time>
      </trkpt>
      <trkpt lat="44.47961" lon="1.80263">
        <ele>154</ele>
        <time>2015-10-31T11:34:32Z</time>
      </trkpt>
      <trkpt lat="44.47965" lon="1.80256">
        <ele>155.2</ele>
        <time>2015-10-31T11:34:33Z</time>
      </trkpt>
      <trkpt lat="44.47967" lon="1.8025">
        <ele>155.4</ele>
        <time>2015-10-31T11:34:34Z</time>
      </trkpt>
      <trkpt lat="44.4797" lon="1.80246">
        <ele>156.2</ele>
        <time>2015-10-31T11:34:35Z</time>
      </trkpt>
      <trkpt lat="44.47972" lon="1.80242">
        <ele>156.9</ele>
        <time>2015-10-31T11:34:36Z</time>
      </trkpt>
      <trkpt lat="44.47975" lon="1.80237">
        <ele>157.5</ele>
        <time>2015-10-31T11:34:37Z</time>
      </trkpt>
      <trkpt lat="44.47979" lon="1.80227">
        <ele>157.8</ele>
        <time>2015-10-31T11:34:38Z</time>
      </trkpt>
      <trkpt lat="44.47982" lon="1.8022">
        <ele>158</ele>
        <time>2015-10-31T11:34:39Z</time>
      </trkpt>
      <trkpt lat="44.47985" lon="1.80213">
        <ele>158.4</ele>
        <time>2015-10-31T11:34:40Z</time>
      </trkpt>
      <trkpt lat="44.47986" lon="1.80208">
        <ele>157.8</ele>
        <time>2015-10-31T11:34:41Z</time>
      </trkpt>
      <trkpt lat="44.47988" lon="1.8019">
        <ele>158.2</ele>
        <time>2015-10-31T11:34:42Z</time>
      </trkpt>
      <trkpt lat="44.47991" lon="1.80184">
        <ele>159.1</ele>
        <time>2015-10-31T11:34:43Z</time>
      </trkpt>
      <trkpt lat="44.47994" lon="1.80188">
        <ele>160.3</ele>
        <time>2015-10-31T11:34:44Z</time>
      </trkpt>
      <trkpt lat="44.47996" lon="1.80179">
        <ele>160.6</ele>
        <time>2015-10-31T11:34:45Z</time>
      </trkpt>
      <trkpt lat="44.47998" lon="1.80174">
        <ele>161.1</ele>
        <time>2015-10-31T11:34:46Z</time>
      </trkpt>
      <trkpt lat="44.48001" lon="1.80167">
        <ele>161.5</ele>
        <time>2015-10-31T11:34:47Z</time>
      </trkpt>
      <trkpt lat="44.48003" lon="1.80163">
        <ele>161.9</ele>
        <time>2015-10-31T11:34:48Z</time>
      </trkpt>
      <trkpt lat="44.48004" lon="1.80171">
        <ele>162.7</ele>
        <time>2015-10-31T11:34:49Z</time>
      </trkpt>
      <trkpt lat="44.48007" lon="1.80168">
        <ele>163.5</ele>
        <time>2015-10-31T11:34:50Z</time>
      </trkpt>
      <trkpt lat="44.48011" lon="1.80159">
        <ele>163.9</ele>
        <time>2015-10-31T11:34:51Z</time>
      </trkpt>
      <trkpt lat="44.48011" lon="1.80152">
        <ele>163.4</ele>
        <time>2015-10-31T11:34:52Z</time>
      </trkpt>
      <trkpt lat="44.48014" lon="1.80143">
        <ele>163.2</ele>
        <time>2015-10-31T11:34:53Z</time>
      </trkpt>
      <trkpt lat="44.48016" lon="1.80138">
        <ele>163.2</ele>
        <time>2015-10-31T11:34:54Z</time>
      </trkpt>
      <trkpt lat="44.48018" lon="1.80131">
        <ele>163.1</ele>
        <time>2015-10-31T11:34:55Z</time>
      </trkpt>
      <trkpt lat="44.4802" lon="1.80123">
        <ele>162.7</ele>
        <time>2015-10-31T11:34:56Z</time>
      </trkpt>
      <trkpt lat="44.48021" lon="1.80117">
        <ele>162.6</ele>
        <time>2015-10-31T11:34:57Z</time>
      </trkpt>
      <trkpt lat="44.48022" lon="1.8011">
        <ele>162.4</ele>
        <time>2015-10-31T11:34:58Z</time>
      </trkpt>
      <trkpt lat="44.48024" lon="1.80104">
        <ele>162.4</ele>
        <time>2015-10-31T11:34:59Z</time>
      </trkpt>
      <trkpt lat="44.48026" lon="1.80097">
        <ele>162.4</ele>
        <time>2015-10-31T11:35:00Z</time>
      </trkpt>
      <trkpt lat="44.48026" lon="1.8009">
        <ele>162.1</ele>
        <time>2015-10-31T11:35:01Z</time>
      </trkpt>
      <trkpt lat="44.48027" lon="1.80083">
        <ele>161.8</ele>
        <time>2015-10-31T11:35:02Z</time>
      </trkpt>
      <trkpt lat="44.48027" lon="1.80076">
        <ele>161.6</ele>
        <time>2015-10-31T11:35:03Z</time>
      </trkpt>
      <trkpt lat="44.48028" lon="1.80069">
        <ele>161.4</ele>
        <time>2015-10-31T11:35:04Z</time>
      </trkpt>
      <trkpt lat="44.4803" lon="1.80064">
        <ele>161.4</ele>
        <time>2015-10-31T11:35:05Z</time>
      </trkpt>
      <trkpt lat="44.48031" lon="1.80057">
        <ele>161.3</ele>
        <time>2015-10-31T11:35:06Z</time>
      </trkpt>
      <trkpt lat="44.48032" lon="1.80049">
        <ele>161.2</ele>
        <time>2015-10-31T11:35:07Z</time>
      </trkpt>
      <trkpt lat="44.48033" lon="1.80043">
        <ele>161</ele>
        <time>2015-10-31T11:35:08Z</time>
      </trkpt>
      <trkpt lat="44.48034" lon="1.80036">
        <ele>161.1</ele>
        <time>2015-10-31T11:35:09Z</time>
      </trkpt>
      <trkpt lat="44.48036" lon="1.8003">
        <ele>161.1</ele>
        <time>2015-10-31T11:35:10Z</time>
      </trkpt>
      <trkpt lat="44.48036" lon="1.80023">
        <ele>161</ele>
        <time>2015-10-31T11:35:11Z</time>
      </trkpt>
      <trkpt lat="44.48038" lon="1.80017">
        <ele>160.9</ele>
        <time>2015-10-31T11:35:12Z</time>
      </trkpt>
      <trkpt lat="44.48038" lon="1.80012">
        <ele>160.9</ele>
        <time>2015-10-31T11:35:13Z</time>
      </trkpt>
      <trkpt lat="44.48039" lon="1.80005">
        <ele>160.8</ele>
        <time>2015-10-31T11:35:14Z</time>
      </trkpt>
      <trkpt lat="44.48041" lon="1.79998">
        <ele>160.7</ele>
        <time>2015-10-31T11:35:15Z</time>
      </trkpt>
      <trkpt lat="44.48041" lon="1.79991">
        <ele>160.5</ele>
        <time>2015-10-31T11:35:16Z</time>
      </trkpt>
      <trkpt lat="44.48042" lon="1.79984">
        <ele>160.2</ele>
        <time>2015-10-31T11:35:17Z</time>
      </trkpt>
      <trkpt lat="44.48042" lon="1.79977">
        <ele>159.9</ele>
        <time>2015-10-31T11:35:18Z</time>
      </trkpt>
      <trkpt lat="44.48042" lon="1.79969">
        <ele>159.8</ele>
        <time>2015-10-31T11:35:19Z</time>
      </trkpt>
      <trkpt lat="44.48042" lon="1.79963">
        <ele>159.2</ele>
        <time>2015-10-31T11:35:20Z</time>
      </trkpt>
      <trkpt lat="44.48041" lon="1.79956">
        <ele>159.2</ele>
        <time>2015-10-31T11:35:21Z</time>
      </trkpt>
      <trkpt lat="44.48041" lon="1.79948">
        <ele>160.2</ele>
        <time>2015-10-31T11:35:22Z</time>
      </trkpt>
      <trkpt lat="44.4804" lon="1.79942">
        <ele>161</ele>
        <time>2015-10-31T11:35:23Z</time>
      </trkpt>
      <trkpt lat="44.48039" lon="1.79935">
        <ele>161.7</ele>
        <time>2015-10-31T11:35:24Z</time>
      </trkpt>
      <trkpt lat="44.48037" lon="1.7993">
        <ele>162</ele>
        <time>2015-10-31T11:35:25Z</time>
      </trkpt>
      <trkpt lat="44.48036" lon="1.79924">
        <ele>162.5</ele>
        <time>2015-10-31T11:35:26Z</time>
      </trkpt>
      <trkpt lat="44.48033" lon="1.79917">
        <ele>162.8</ele>
        <time>2015-10-31T11:35:27Z</time>
      </trkpt>
      <trkpt lat="44.48032" lon="1.79911">
        <ele>163.3</ele>
        <time>2015-10-31T11:35:28Z</time>
      </trkpt>
      <trkpt lat="44.48031" lon="1.79905">
        <ele>163.8</ele>
        <time>2015-10-31T11:35:29Z</time>
      </trkpt>
      <trkpt lat="44.4803" lon="1.79898">
        <ele>164.3</ele>
        <time>2015-10-31T11:35:30Z</time>
      </trkpt>
      <trkpt lat="44.48029" lon="1.79892">
        <ele>164.8</ele>
        <time>2015-10-31T11:35:31Z</time>
      </trkpt>
      <trkpt lat="44.48027" lon="1.79885">
        <ele>165.1</ele>
        <time>2015-10-31T11:35:32Z</time>
      </trkpt>
      <trkpt lat="44.48026" lon="1.79879">
        <ele>165.6</ele>
        <time>2015-10-31T11:35:33Z</time>
      </trkpt>
      <trkpt lat="44.48025" lon="1.79872">
        <ele>166.6</ele>
        <time>2015-10-31T11:35:34Z</time>
      </trkpt>
      <trkpt lat="44.48025" lon="1.79865">
        <ele>168.3</ele>
        <time>2015-10-31T11:35:35Z</time>
      </trkpt>
      <trkpt lat="44.48024" lon="1.79859">
        <ele>169.9</ele>
        <time>2015-10-31T11:35:36Z</time>
      </trkpt>
      <trkpt lat="44.48023" lon="1.79852">
        <ele>171</ele>
        <time>2015-10-31T11:35:37Z</time>
      </trkpt>
      <trkpt lat="44.48021" lon="1.79845">
        <ele>172</ele>
        <time>2015-10-31T11:35:38Z</time>
      </trkpt>
      <trkpt lat="44.48021" lon="1.79836">
        <ele>174.8</ele>
        <time>2015-10-31T11:35:39Z</time>
      </trkpt>
      <trkpt lat="44.48021" lon="1.79829">
        <ele>176.4</ele>
        <time>2015-10-31T11:35:40Z</time>
      </trkpt>
      <trkpt lat="44.4802" lon="1.79822">
        <ele>177.5</ele>
        <time>2015-10-31T11:35:41Z</time>
      </trkpt>
      <trkpt lat="44.48019" lon="1.79815">
        <ele>178.8</ele>
        <time>2015-10-31T11:35:42Z</time>
      </trkpt>
      <trkpt lat="44.48016" lon="1.79805">
        <ele>179.3</ele>
        <time>2015-10-31T11:35:44Z</time>
      </trkpt>
      <trkpt lat="44.48015" lon="1.79796">
        <ele>181.3</ele>
        <time>2015-10-31T11:35:45Z</time>
      </trkpt>
      <trkpt lat="44.48015" lon="1.79789">
        <ele>182.9</ele>
        <time>2015-10-31T11:35:46Z</time>
      </trkpt>
      <trkpt lat="44.48012" lon="1.79782">
        <ele>182.8</ele>
        <time>2015-10-31T11:35:47Z</time>
      </trkpt>
      <trkpt lat="44.48009" lon="1.79774">
        <ele>183.7</ele>
        <time>2015-10-31T11:35:48Z</time>
      </trkpt>
      <trkpt lat="44.48008" lon="1.79766">
        <ele>184.6</ele>
        <time>2015-10-31T11:35:49Z</time>
      </trkpt>
      <trkpt lat="44.48005" lon="1.79759">
        <ele>185.1</ele>
        <time>2015-10-31T11:35:50Z</time>
      </trkpt>
      <trkpt lat="44.48003" lon="1.79752">
        <ele>185.9</ele>
        <time>2015-10-31T11:35:51Z</time>
      </trkpt>
      <trkpt lat="44.48001" lon="1.79744">
        <ele>186.3</ele>
        <time>2015-10-31T11:35:52Z</time>
      </trkpt>
      <trkpt lat="44.47999" lon="1.79739">
        <ele>186.2</ele>
        <time>2015-10-31T11:35:53Z</time>
      </trkpt>
      <trkpt lat="44.47995" lon="1.79731">
        <ele>185.7</ele>
        <time>2015-10-31T11:35:54Z</time>
      </trkpt>
      <trkpt lat="44.47991" lon="1.79725">
        <ele>184</ele>
        <time>2015-10-31T11:35:55Z</time>
      </trkpt>
      <trkpt lat="44.47988" lon="1.79718">
        <ele>183.9</ele>
        <time>2015-10-31T11:35:56Z</time>
      </trkpt>
      <trkpt lat="44.47986" lon="1.7971">
        <ele>183.7</ele>
        <time>2015-10-31T11:35:57Z</time>
      </trkpt>
      <trkpt lat="44.47982" lon="1.79702">
        <ele>183.7</ele>
        <time>2015-10-31T11:35:58Z</time>
      </trkpt>
      <trkpt lat="44.47982" lon="1.79693">
        <ele>186.8</ele>
        <time>2015-10-31T11:35:59Z</time>
      </trkpt>
      <trkpt lat="44.4798" lon="1.79685">
        <ele>188.6</ele>
        <time>2015-10-31T11:36:00Z</time>
      </trkpt>
      <trkpt lat="44.47979" lon="1.79678">
        <ele>189.8</ele>
        <time>2015-10-31T11:36:01Z</time>
      </trkpt>
      <trkpt lat="44.47976" lon="1.79672">
        <ele>189.9</ele>
        <time>2015-10-31T11:36:02Z</time>
      </trkpt>
      <trkpt lat="44.47973" lon="1.79665">
        <ele>190.1</ele>
        <time>2015-10-31T11:36:03Z</time>
      </trkpt>
      <trkpt lat="44.47967" lon="1.79661">
        <ele>187.2</ele>
        <time>2015-10-31T11:36:04Z</time>
      </trkpt>
      <trkpt lat="44.47963" lon="1.79657">
        <ele>185.4</ele>
        <time>2015-10-31T11:36:05Z</time>
      </trkpt>
      <trkpt lat="44.47959" lon="1.7965">
        <ele>184.7</ele>
        <time>2015-10-31T11:36:06Z</time>
      </trkpt>
      <trkpt lat="44.47954" lon="1.79643">
        <ele>185.3</ele>
        <time>2015-10-31T11:36:07Z</time>
      </trkpt>
      <trkpt lat="44.47949" lon="1.79637">
        <ele>185.2</ele>
        <time>2015-10-31T11:36:08Z</time>
      </trkpt>
      <trkpt lat="44.47944" lon="1.79629">
        <ele>185.9</ele>
        <time>2015-10-31T11:36:09Z</time>
      </trkpt>
      <trkpt lat="44.4794" lon="1.79622">
        <ele>186.9</ele>
        <time>2015-10-31T11:36:10Z</time>
      </trkpt>
      <trkpt lat="44.47937" lon="1.79615">
        <ele>189.1</ele>
        <time>2015-10-31T11:36:11Z</time>
      </trkpt>
      <trkpt lat="44.47932" lon="1.79608">
        <ele>190</ele>
        <time>2015-10-31T11:36:12Z</time>
      </trkpt>
      <trkpt lat="44.47928" lon="1.79602">
        <ele>191</ele>
        <time>2015-10-31T11:36:13Z</time>
      </trkpt>
      <trkpt lat="44.47925" lon="1.79597">
        <ele>192.1</ele>
        <time>2015-10-31T11:36:14Z</time>
      </trkpt>
      <trkpt lat="44.47922" lon="1.79589">
        <ele>194.6</ele>
        <time>2015-10-31T11:36:15Z</time>
      </trkpt>
      <trkpt lat="44.4792" lon="1.79581">
        <ele>196.7</ele>
        <time>2015-10-31T11:36:17Z</time>
      </trkpt>
      <trkpt lat="44.47908" lon="1.79571">
        <ele>196</ele>
        <time>2015-10-31T11:36:18Z</time>
      </trkpt>
      <trkpt lat="44.47905" lon="1.79564">
        <ele>197.6</ele>
        <time>2015-10-31T11:36:19Z</time>
      </trkpt>
      <trkpt lat="44.479" lon="1.79559">
        <ele>197.1</ele>
        <time>2015-10-31T11:36:20Z</time>
      </trkpt>
      <trkpt lat="44.47895" lon="1.79551">
        <ele>198.4</ele>
        <time>2015-10-31T11:36:21Z</time>
      </trkpt>
      <trkpt lat="44.4789" lon="1.79544">
        <ele>199.1</ele>
        <time>2015-10-31T11:36:22Z</time>
      </trkpt>
      <trkpt lat="44.47886" lon="1.79537">
        <ele>200.6</ele>
        <time>2015-10-31T11:36:23Z</time>
      </trkpt>
      <trkpt lat="44.47881" lon="1.79531">
        <ele>201.2</ele>
        <time>2015-10-31T11:36:24Z</time>
      </trkpt>
      <trkpt lat="44.47879" lon="1.79524">
        <ele>204</ele>
        <time>2015-10-31T11:36:25Z</time>
      </trkpt>
      <trkpt lat="44.47878" lon="1.79518">
        <ele>207.3</ele>
        <time>2015-10-31T11:36:26Z</time>
      </trkpt>
      <trkpt lat="44.47875" lon="1.79512">
        <ele>209.2</ele>
        <time>2015-10-31T11:36:27Z</time>
      </trkpt>
      <trkpt lat="44.47871" lon="1.79507">
        <ele>210.4</ele>
        <time>2015-10-31T11:36:28Z</time>
      </trkpt>
      <trkpt lat="44.47857" lon="1.79496">
        <ele>211.2</ele>
        <time>2015-10-31T11:36:31Z</time>
      </trkpt>
      <trkpt lat="44.47852" lon="1.79493">
        <ele>211.2</ele>
        <time>2015-10-31T11:36:32Z</time>
      </trkpt>
      <trkpt lat="44.47847" lon="1.79491">
        <ele>210.3</ele>
        <time>2015-10-31T11:36:33Z</time>
      </trkpt>
      <trkpt lat="44.47842" lon="1.79489">
        <ele>209.4</ele>
        <time>2015-10-31T11:36:34Z</time>
      </trkpt>
      <trkpt lat="44.47837" lon="1.79486">
        <ele>209.2</ele>
        <time>2015-10-31T11:36:35Z</time>
      </trkpt>
      <trkpt lat="44.47833" lon="1.79484">
        <ele>208.6</ele>
        <time>2015-10-31T11:36:36Z</time>
      </trkpt>
      <trkpt lat="44.47829" lon="1.79482">
        <ele>208.1</ele>
        <time>2015-10-31T11:36:37Z</time>
      </trkpt>
      <trkpt lat="44.47824" lon="1.79479">
        <ele>207.8</ele>
        <time>2015-10-31T11:36:38Z</time>
      </trkpt>
      <trkpt lat="44.47818" lon="1.79479">
        <ele>205.6</ele>
        <time>2015-10-31T11:36:39Z</time>
      </trkpt>
      <trkpt lat="44.47812" lon="1.79478">
        <ele>204</ele>
        <time>2015-10-31T11:36:40Z</time>
      </trkpt>
      <trkpt lat="44.47807" lon="1.79476">
        <ele>202.7</ele>
        <time>2015-10-31T11:36:41Z</time>
      </trkpt>
      <trkpt lat="44.47801" lon="1.79477">
        <ele>199.7</ele>
        <time>2015-10-31T11:36:42Z</time>
      </trkpt>
      <trkpt lat="44.47795" lon="1.79478">
        <ele>197.4</ele>
        <time>2015-10-31T11:36:43Z</time>
      </trkpt>
      <trkpt lat="44.4779" lon="1.79477">
        <ele>195.7</ele>
        <time>2015-10-31T11:36:44Z</time>
      </trkpt>
      <trkpt lat="44.47784" lon="1.79475">
        <ele>194</ele>
        <time>2015-10-31T11:36:45Z</time>
      </trkpt>
      <trkpt lat="44.47778" lon="1.79473">
        <ele>192.6</ele>
        <time>2015-10-31T11:36:46Z</time>
      </trkpt>
      <trkpt lat="44.47772" lon="1.79473">
        <ele>189.8</ele>
        <time>2015-10-31T11:36:47Z</time>
      </trkpt>
      <trkpt lat="44.47766" lon="1.79472">
        <ele>188.4</ele>
        <time>2015-10-31T11:36:48Z</time>
      </trkpt>
      <trkpt lat="44.47761" lon="1.7947">
        <ele>186.9</ele>
        <time>2015-10-31T11:36:49Z</time>
      </trkpt>
      <trkpt lat="44.47756" lon="1.79467">
        <ele>185.9</ele>
        <time>2015-10-31T11:36:50Z</time>
      </trkpt>
      <trkpt lat="44.47751" lon="1.79462">
        <ele>186</ele>
        <time>2015-10-31T11:36:51Z</time>
      </trkpt>
      <trkpt lat="44.47747" lon="1.7946">
        <ele>184.7</ele>
        <time>2015-10-31T11:36:52Z</time>
      </trkpt>
      <trkpt lat="44.47742" lon="1.79454">
        <ele>185.7</ele>
        <time>2015-10-31T11:36:53Z</time>
      </trkpt>
      <trkpt lat="44.47737" lon="1.79451">
        <ele>184.9</ele>
        <time>2015-10-31T11:36:54Z</time>
      </trkpt>
      <trkpt lat="44.47734" lon="1.79446">
        <ele>185.9</ele>
        <time>2015-10-31T11:36:55Z</time>
      </trkpt>
      <trkpt lat="44.47731" lon="1.79442">
        <ele>186.7</ele>
        <time>2015-10-31T11:36:56Z</time>
      </trkpt>
      <trkpt lat="44.47727" lon="1.79438">
        <ele>187.1</ele>
        <time>2015-10-31T11:36:57Z</time>
      </trkpt>
      <trkpt lat="44.47724" lon="1.79434">
        <ele>187.8</ele>
        <time>2015-10-31T11:36:58Z</time>
      </trkpt>
      <trkpt lat="44.47721" lon="1.79429">
        <ele>188.6</ele>
        <time>2015-10-31T11:36:59Z</time>
      </trkpt>
      <trkpt lat="44.47718" lon="1.79426">
        <ele>188.5</ele>
        <time>2015-10-31T11:37:00Z</time>
      </trkpt>
      <trkpt lat="44.47714" lon="1.79422">
        <ele>189</ele>
        <time>2015-10-31T11:37:01Z</time>
      </trkpt>
      <trkpt lat="44.4771" lon="1.79418">
        <ele>188.8</ele>
        <time>2015-10-31T11:37:02Z</time>
      </trkpt>
      <trkpt lat="44.47706" lon="1.79414">
        <ele>189.7</ele>
        <time>2015-10-31T11:37:03Z</time>
      </trkpt>
      <trkpt lat="44.47703" lon="1.79411">
        <ele>190.7</ele>
        <time>2015-10-31T11:37:04Z</time>
      </trkpt>
      <trkpt lat="44.47699" lon="1.79408">
        <ele>191.3</ele>
        <time>2015-10-31T11:37:05Z</time>
      </trkpt>
      <trkpt lat="44.47696" lon="1.79405">
        <ele>192.2</ele>
        <time>2015-10-31T11:37:06Z</time>
      </trkpt>
      <trkpt lat="44.47692" lon="1.79401">
        <ele>193.1</ele>
        <time>2015-10-31T11:37:07Z</time>
      </trkpt>
      <trkpt lat="44.47688" lon="1.79398">
        <ele>193.9</ele>
        <time>2015-10-31T11:37:08Z</time>
      </trkpt>
      <trkpt lat="44.47683" lon="1.79394">
        <ele>194.7</ele>
        <time>2015-10-31T11:37:09Z</time>
      </trkpt>
      <trkpt lat="44.47678" lon="1.7939">
        <ele>195.2</ele>
        <time>2015-10-31T11:37:10Z</time>
      </trkpt>
      <trkpt lat="44.47674" lon="1.79385">
        <ele>196.3</ele>
        <time>2015-10-31T11:37:11Z</time>
      </trkpt>
      <trkpt lat="44.4767" lon="1.79381">
        <ele>197.3</ele>
        <time>2015-10-31T11:37:12Z</time>
      </trkpt>
      <trkpt lat="44.47665" lon="1.79377">
        <ele>197.9</ele>
        <time>2015-10-31T11:37:13Z</time>
      </trkpt>
      <trkpt lat="44.4766" lon="1.79373">
        <ele>198.4</ele>
        <time>2015-10-31T11:37:14Z</time>
      </trkpt>
      <trkpt lat="44.47656" lon="1.79369">
        <ele>198.9</ele>
        <time>2015-10-31T11:37:15Z</time>
      </trkpt>
      <trkpt lat="44.4765" lon="1.79366">
        <ele>199.3</ele>
        <time>2015-10-31T11:37:16Z</time>
      </trkpt>
      <trkpt lat="44.47645" lon="1.79363">
        <ele>199.5</ele>
        <time>2015-10-31T11:37:17Z</time>
      </trkpt>
      <trkpt lat="44.4764" lon="1.7936">
        <ele>199.5</ele>
        <time>2015-10-31T11:37:18Z</time>
      </trkpt>
      <trkpt lat="44.47634" lon="1.79358">
        <ele>198.7</ele>
        <time>2015-10-31T11:37:19Z</time>
      </trkpt>
      <trkpt lat="44.47628" lon="1.79355">
        <ele>198.5</ele>
        <time>2015-10-31T11:37:20Z</time>
      </trkpt>
      <trkpt lat="44.47623" lon="1.79352">
        <ele>198.5</ele>
        <time>2015-10-31T11:37:21Z</time>
      </trkpt>
      <trkpt lat="44.47619" lon="1.7935">
        <ele>199</ele>
        <time>2015-10-31T11:37:22Z</time>
      </trkpt>
      <trkpt lat="44.47613" lon="1.79348">
        <ele>198.4</ele>
        <time>2015-10-31T11:37:23Z</time>
      </trkpt>
      <trkpt lat="44.47609" lon="1.79344">
        <ele>199.8</ele>
        <time>2015-10-31T11:37:24Z</time>
      </trkpt>
      <trkpt lat="44.47603" lon="1.79343">
        <ele>198.9</ele>
        <time>2015-10-31T11:37:25Z</time>
      </trkpt>
      <trkpt lat="44.47598" lon="1.79343">
        <ele>198.1</ele>
        <time>2015-10-31T11:37:26Z</time>
      </trkpt>
      <trkpt lat="44.47592" lon="1.79341">
        <ele>198.1</ele>
        <time>2015-10-31T11:37:27Z</time>
      </trkpt>
      <trkpt lat="44.47587" lon="1.7934">
        <ele>197.1</ele>
        <time>2015-10-31T11:37:28Z</time>
      </trkpt>
      <trkpt lat="44.47581" lon="1.79338">
        <ele>197</ele>
        <time>2015-10-31T11:37:29Z</time>
      </trkpt>
      <trkpt lat="44.47575" lon="1.79335">
        <ele>197.8</ele>
        <time>2015-10-31T11:37:30Z</time>
      </trkpt>
      <trkpt lat="44.47569" lon="1.79332">
        <ele>197.9</ele>
        <time>2015-10-31T11:37:31Z</time>
      </trkpt>
      <trkpt lat="44.47564" lon="1.7933">
        <ele>197.9</ele>
        <time>2015-10-31T11:37:32Z</time>
      </trkpt>
      <trkpt lat="44.47558" lon="1.79329">
        <ele>197.3</ele>
        <time>2015-10-31T11:37:33Z</time>
      </trkpt>
      <trkpt lat="44.47552" lon="1.79328">
        <ele>196.6</ele>
        <time>2015-10-31T11:37:34Z</time>
      </trkpt>
      <trkpt lat="44.47546" lon="1.79327">
        <ele>196</ele>
        <time>2015-10-31T11:37:35Z</time>
      </trkpt>
      <trkpt lat="44.4754" lon="1.79325">
        <ele>196</ele>
        <time>2015-10-31T11:37:36Z</time>
      </trkpt>
      <trkpt lat="44.47534" lon="1.79323">
        <ele>196.3</ele>
        <time>2015-10-31T11:37:37Z</time>
      </trkpt>
      <trkpt lat="44.47528" lon="1.79322">
        <ele>196.1</ele>
        <time>2015-10-31T11:37:38Z</time>
      </trkpt>
      <trkpt lat="44.47524" lon="1.79319">
        <ele>197.2</ele>
        <time>2015-10-31T11:37:39Z</time>
      </trkpt>
      <trkpt lat="44.47518" lon="1.79317">
        <ele>197.8</ele>
        <time>2015-10-31T11:37:40Z</time>
      </trkpt>
      <trkpt lat="44.47512" lon="1.79315">
        <ele>198</ele>
        <time>2015-10-31T11:37:41Z</time>
      </trkpt>
      <trkpt lat="44.47507" lon="1.79313">
        <ele>198.5</ele>
        <time>2015-10-31T11:37:42Z</time>
      </trkpt>
      <trkpt lat="44.47502" lon="1.7931">
        <ele>199.2</ele>
        <time>2015-10-31T11:37:43Z</time>
      </trkpt>
      <trkpt lat="44.47497" lon="1.79309">
        <ele>199.2</ele>
        <time>2015-10-31T11:37:44Z</time>
      </trkpt>
      <trkpt lat="44.47492" lon="1.79307">
        <ele>199.4</ele>
        <time>2015-10-31T11:37:45Z</time>
      </trkpt>
      <trkpt lat="44.47486" lon="1.79305">
        <ele>199.8</ele>
        <time>2015-10-31T11:37:46Z</time>
      </trkpt>
      <trkpt lat="44.47483" lon="1.79303">
        <ele>200.9</ele>
        <time>2015-10-31T11:37:47Z</time>
      </trkpt>
      <trkpt lat="44.47478" lon="1.79301">
        <ele>201.2</ele>
        <time>2015-10-31T11:37:48Z</time>
      </trkpt>
      <trkpt lat="44.47474" lon="1.793">
        <ele>201.3</ele>
        <time>2015-10-31T11:37:49Z</time>
      </trkpt>
      <trkpt lat="44.47469" lon="1.79299">
        <ele>201.4</ele>
        <time>2015-10-31T11:37:50Z</time>
      </trkpt>
      <trkpt lat="44.47464" lon="1.79299">
        <ele>200.7</ele>
        <time>2015-10-31T11:37:51Z</time>
      </trkpt>
      <trkpt lat="44.47458" lon="1.79299">
        <ele>200.1</ele>
        <time>2015-10-31T11:37:52Z</time>
      </trkpt>
      <trkpt lat="44.47452" lon="1.79296">
        <ele>200.8</ele>
        <time>2015-10-31T11:37:53Z</time>
      </trkpt>
      <trkpt lat="44.47446" lon="1.79294">
        <ele>201.3</ele>
        <time>2015-10-31T11:37:54Z</time>
      </trkpt>
      <trkpt lat="44.47441" lon="1.79292">
        <ele>201.8</ele>
        <time>2015-10-31T11:37:55Z</time>
      </trkpt>
      <trkpt lat="44.47436" lon="1.7929">
        <ele>202.2</ele>
        <time>2015-10-31T11:37:56Z</time>
      </trkpt>
      <trkpt lat="44.4743" lon="1.79288">
        <ele>202.5</ele>
        <time>2015-10-31T11:37:57Z</time>
      </trkpt>
      <trkpt lat="44.47425" lon="1.79287">
        <ele>202.5</ele>
        <time>2015-10-31T11:37:58Z</time>
      </trkpt>
      <trkpt lat="44.47419" lon="1.79286">
        <ele>202.1</ele>
        <time>2015-10-31T11:37:59Z</time>
      </trkpt>
      <trkpt lat="44.47413" lon="1.79286">
        <ele>202</ele>
        <time>2015-10-31T11:38:00Z</time>
      </trkpt>
      <trkpt lat="44.47408" lon="1.79284">
        <ele>202.2</ele>
        <time>2015-10-31T11:38:01Z</time>
      </trkpt>
      <trkpt lat="44.47402" lon="1.79284">
        <ele>201.7</ele>
        <time>2015-10-31T11:38:02Z</time>
      </trkpt>
      <trkpt lat="44.47397" lon="1.79283">
        <ele>201.4</ele>
        <time>2015-10-31T11:38:03Z</time>
      </trkpt>
      <trkpt lat="44.47392" lon="1.79282">
        <ele>201.2</ele>
        <time>2015-10-31T11:38:04Z</time>
      </trkpt>
      <trkpt lat="44.47386" lon="1.79281">
        <ele>201.2</ele>
        <time>2015-10-31T11:38:05Z</time>
      </trkpt>
      <trkpt lat="44.47379" lon="1.79281">
        <ele>200.1</ele>
        <time>2015-10-31T11:38:06Z</time>
      </trkpt>
      <trkpt lat="44.47373" lon="1.79281">
        <ele>199.1</ele>
        <time>2015-10-31T11:38:07Z</time>
      </trkpt>
      <trkpt lat="44.47368" lon="1.79281">
        <ele>198.5</ele>
        <time>2015-10-31T11:38:08Z</time>
      </trkpt>
      <trkpt lat="44.47361" lon="1.79282">
        <ele>197</ele>
        <time>2015-10-31T11:38:09Z</time>
      </trkpt>
      <trkpt lat="44.47357" lon="1.79281">
        <ele>196.4</ele>
        <time>2015-10-31T11:38:10Z</time>
      </trkpt>
      <trkpt lat="44.47353" lon="1.79281">
        <ele>195.8</ele>
        <time>2015-10-31T11:38:11Z</time>
      </trkpt>
      <trkpt lat="44.47345" lon="1.79281">
        <ele>194.7</ele>
        <time>2015-10-31T11:38:12Z</time>
      </trkpt>
      <trkpt lat="44.4734" lon="1.7928">
        <ele>194.6</ele>
        <time>2015-10-31T11:38:13Z</time>
      </trkpt>
      <trkpt lat="44.47336" lon="1.79281">
        <ele>193.1</ele>
        <time>2015-10-31T11:38:14Z</time>
      </trkpt>
      <trkpt lat="44.4733" lon="1.7928">
        <ele>192.5</ele>
        <time>2015-10-31T11:38:15Z</time>
      </trkpt>
      <trkpt lat="44.47325" lon="1.7928">
        <ele>191.9</ele>
        <time>2015-10-31T11:38:16Z</time>
      </trkpt>
      <trkpt lat="44.4732" lon="1.79281">
        <ele>190.5</ele>
        <time>2015-10-31T11:38:17Z</time>
      </trkpt>
      <trkpt lat="44.47315" lon="1.7928">
        <ele>189.9</ele>
        <time>2015-10-31T11:38:18Z</time>
      </trkpt>
      <trkpt lat="44.47309" lon="1.79281">
        <ele>189</ele>
        <time>2015-10-31T11:38:19Z</time>
      </trkpt>
      <trkpt lat="44.47303" lon="1.7928">
        <ele>188.3</ele>
        <time>2015-10-31T11:38:20Z</time>
      </trkpt>
      <trkpt lat="44.47298" lon="1.7928">
        <ele>187.3</ele>
        <time>2015-10-31T11:38:21Z</time>
      </trkpt>
      <trkpt lat="44.47293" lon="1.79279">
        <ele>187.1</ele>
        <time>2015-10-31T11:38:22Z</time>
      </trkpt>
      <trkpt lat="44.47287" lon="1.79276">
        <ele>187.9</ele>
        <time>2015-10-31T11:38:23Z</time>
      </trkpt>
      <trkpt lat="44.47284" lon="1.79275">
        <ele>188.2</ele>
        <time>2015-10-31T11:38:24Z</time>
      </trkpt>
      <trkpt lat="44.47279" lon="1.79272">
        <ele>188.9</ele>
        <time>2015-10-31T11:38:25Z</time>
      </trkpt>
      <trkpt lat="44.47275" lon="1.79271">
        <ele>188.9</ele>
        <time>2015-10-31T11:38:26Z</time>
      </trkpt>
      <trkpt lat="44.47269" lon="1.79269">
        <ele>189</ele>
        <time>2015-10-31T11:38:27Z</time>
      </trkpt>
      <trkpt lat="44.47263" lon="1.79268">
        <ele>188.7</ele>
        <time>2015-10-31T11:38:28Z</time>
      </trkpt>
      <trkpt lat="44.47258" lon="1.79265">
        <ele>189.7</ele>
        <time>2015-10-31T11:38:29Z</time>
      </trkpt>
      <trkpt lat="44.47254" lon="1.79262">
        <ele>190.4</ele>
        <time>2015-10-31T11:38:30Z</time>
      </trkpt>
      <trkpt lat="44.47249" lon="1.79261">
        <ele>190.4</ele>
        <time>2015-10-31T11:38:31Z</time>
      </trkpt>
      <trkpt lat="44.47244" lon="1.79261">
        <ele>189.8</ele>
        <time>2015-10-31T11:38:32Z</time>
      </trkpt>
      <trkpt lat="44.47239" lon="1.79258">
        <ele>190.2</ele>
        <time>2015-10-31T11:38:33Z</time>
      </trkpt>
      <trkpt lat="44.47233" lon="1.79255">
        <ele>190.8</ele>
        <time>2015-10-31T11:38:34Z</time>
      </trkpt>
      <trkpt lat="44.47227" lon="1.79252">
        <ele>191.1</ele>
        <time>2015-10-31T11:38:35Z</time>
      </trkpt>
      <trkpt lat="44.4722" lon="1.79249">
        <ele>191.2</ele>
        <time>2015-10-31T11:38:36Z</time>
      </trkpt>
      <trkpt lat="44.47215" lon="1.79249">
        <ele>190.6</ele>
        <time>2015-10-31T11:38:37Z</time>
      </trkpt>
      <trkpt lat="44.47208" lon="1.79248">
        <ele>189.7</ele>
        <time>2015-10-31T11:38:38Z</time>
      </trkpt>
      <trkpt lat="44.47202" lon="1.79247">
        <ele>189.2</ele>
        <time>2015-10-31T11:38:39Z</time>
      </trkpt>
      <trkpt lat="44.47195" lon="1.79245">
        <ele>189.1</ele>
        <time>2015-10-31T11:38:40Z</time>
      </trkpt>
      <trkpt lat="44.4719" lon="1.79243">
        <ele>189.1</ele>
        <time>2015-10-31T11:38:41Z</time>
      </trkpt>
      <trkpt lat="44.47183" lon="1.79244">
        <ele>187.6</ele>
        <time>2015-10-31T11:38:42Z</time>
      </trkpt>
      <trkpt lat="44.47177" lon="1.79244">
        <ele>186.4</ele>
        <time>2015-10-31T11:38:43Z</time>
      </trkpt>
      <trkpt lat="44.47171" lon="1.79245">
        <ele>184.8</ele>
        <time>2015-10-31T11:38:44Z</time>
      </trkpt>
      <trkpt lat="44.47165" lon="1.79244">
        <ele>184.4</ele>
        <time>2015-10-31T11:38:45Z</time>
      </trkpt>
      <trkpt lat="44.4716" lon="1.79244">
        <ele>183.7</ele>
        <time>2015-10-31T11:38:46Z</time>
      </trkpt>
      <trkpt lat="44.47154" lon="1.79244">
        <ele>182.8</ele>
        <time>2015-10-31T11:38:47Z</time>
      </trkpt>
      <trkpt lat="44.47148" lon="1.79243">
        <ele>182.3</ele>
        <time>2015-10-31T11:38:48Z</time>
      </trkpt>
      <trkpt lat="44.47142" lon="1.79242">
        <ele>181.5</ele>
        <time>2015-10-31T11:38:49Z</time>
      </trkpt>
      <trkpt lat="44.47137" lon="1.79241">
        <ele>180.9</ele>
        <time>2015-10-31T11:38:50Z</time>
      </trkpt>
      <trkpt lat="44.47132" lon="1.79239">
        <ele>180.9</ele>
        <time>2015-10-31T11:38:51Z</time>
      </trkpt>
      <trkpt lat="44.47125" lon="1.79239">
        <ele>179.7</ele>
        <time>2015-10-31T11:38:52Z</time>
      </trkpt>
      <trkpt lat="44.47119" lon="1.79237">
        <ele>179.5</ele>
        <time>2015-10-31T11:38:53Z</time>
      </trkpt>
      <trkpt lat="44.47113" lon="1.79235">
        <ele>179.2</ele>
        <time>2015-10-31T11:38:54Z</time>
      </trkpt>
      <trkpt lat="44.47108" lon="1.79234">
        <ele>178.8</ele>
        <time>2015-10-31T11:38:55Z</time>
      </trkpt>
      <trkpt lat="44.47102" lon="1.79231">
        <ele>178.5</ele>
        <time>2015-10-31T11:38:56Z</time>
      </trkpt>
      <trkpt lat="44.47097" lon="1.79229">
        <ele>178.5</ele>
        <time>2015-10-31T11:38:57Z</time>
      </trkpt>
      <trkpt lat="44.47092" lon="1.79226">
        <ele>178.4</ele>
        <time>2015-10-31T11:38:58Z</time>
      </trkpt>
      <trkpt lat="44.47086" lon="1.79224">
        <ele>178.2</ele>
        <time>2015-10-31T11:38:59Z</time>
      </trkpt>
      <trkpt lat="44.47081" lon="1.79222">
        <ele>177.6</ele>
        <time>2015-10-31T11:39:00Z</time>
      </trkpt>
      <trkpt lat="44.47076" lon="1.79221">
        <ele>177.1</ele>
        <time>2015-10-31T11:39:01Z</time>
      </trkpt>
      <trkpt lat="44.47071" lon="1.7922">
        <ele>176.5</ele>
        <time>2015-10-31T11:39:02Z</time>
      </trkpt>
      <trkpt lat="44.47066" lon="1.79219">
        <ele>175.8</ele>
        <time>2015-10-31T11:39:03Z</time>
      </trkpt>
      <trkpt lat="44.47061" lon="1.79216">
        <ele>175.5</ele>
        <time>2015-10-31T11:39:04Z</time>
      </trkpt>
      <trkpt lat="44.47055" lon="1.79214">
        <ele>175</ele>
        <time>2015-10-31T11:39:05Z</time>
      </trkpt>
      <trkpt lat="44.4705" lon="1.79211">
        <ele>174.9</ele>
        <time>2015-10-31T11:39:06Z</time>
      </trkpt>
      <trkpt lat="44.47044" lon="1.79209">
        <ele>174.3</ele>
        <time>2015-10-31T11:39:07Z</time>
      </trkpt>
      <trkpt lat="44.47039" lon="1.79208">
        <ele>173.6</ele>
        <time>2015-10-31T11:39:08Z</time>
      </trkpt>
      <trkpt lat="44.47034" lon="1.79206">
        <ele>172.8</ele>
        <time>2015-10-31T11:39:09Z</time>
      </trkpt>
      <trkpt lat="44.47029" lon="1.79203">
        <ele>172.2</ele>
        <time>2015-10-31T11:39:10Z</time>
      </trkpt>
      <trkpt lat="44.47024" lon="1.79202">
        <ele>171.5</ele>
        <time>2015-10-31T11:39:11Z</time>
      </trkpt>
      <trkpt lat="44.47019" lon="1.79199">
        <ele>171</ele>
        <time>2015-10-31T11:39:12Z</time>
      </trkpt>
      <trkpt lat="44.47014" lon="1.79197">
        <ele>170.4</ele>
        <time>2015-10-31T11:39:13Z</time>
      </trkpt>
      <trkpt lat="44.47009" lon="1.79196">
        <ele>169.7</ele>
        <time>2015-10-31T11:39:14Z</time>
      </trkpt>
      <trkpt lat="44.47004" lon="1.79193">
        <ele>169.1</ele>
        <time>2015-10-31T11:39:15Z</time>
      </trkpt>
      <trkpt lat="44.46999" lon="1.7919">
        <ele>168.7</ele>
        <time>2015-10-31T11:39:16Z</time>
      </trkpt>
      <trkpt lat="44.46993" lon="1.79186">
        <ele>168.3</ele>
        <time>2015-10-31T11:39:17Z</time>
      </trkpt>
      <trkpt lat="44.46988" lon="1.79181">
        <ele>168.2</ele>
        <time>2015-10-31T11:39:18Z</time>
      </trkpt>
      <trkpt lat="44.46983" lon="1.79177">
        <ele>168.1</ele>
        <time>2015-10-31T11:39:19Z</time>
      </trkpt>
      <trkpt lat="44.46977" lon="1.79174">
        <ele>167.7</ele>
        <time>2015-10-31T11:39:20Z</time>
      </trkpt>
      <trkpt lat="44.46972" lon="1.7917">
        <ele>167.6</ele>
        <time>2015-10-31T11:39:21Z</time>
      </trkpt>
      <trkpt lat="44.46967" lon="1.79164">
        <ele>167.9</ele>
        <time>2015-10-31T11:39:22Z</time>
      </trkpt>
      <trkpt lat="44.46962" lon="1.79158">
        <ele>168.3</ele>
        <time>2015-10-31T11:39:23Z</time>
      </trkpt>
      <trkpt lat="44.46956" lon="1.79154">
        <ele>168.5</ele>
        <time>2015-10-31T11:39:24Z</time>
      </trkpt>
      <trkpt lat="44.4695" lon="1.79149">
        <ele>168.8</ele>
        <time>2015-10-31T11:39:25Z</time>
      </trkpt>
      <trkpt lat="44.46945" lon="1.79146">
        <ele>168.9</ele>
        <time>2015-10-31T11:39:26Z</time>
      </trkpt>
      <trkpt lat="44.4694" lon="1.7914">
        <ele>169.4</ele>
        <time>2015-10-31T11:39:27Z</time>
      </trkpt>
      <trkpt lat="44.46935" lon="1.79136">
        <ele>169.9</ele>
        <time>2015-10-31T11:39:28Z</time>
      </trkpt>
      <trkpt lat="44.4693" lon="1.79132">
        <ele>170</ele>
        <time>2015-10-31T11:39:29Z</time>
      </trkpt>
      <trkpt lat="44.46924" lon="1.79128">
        <ele>170.1</ele>
        <time>2015-10-31T11:39:30Z</time>
      </trkpt>
      <trkpt lat="44.46919" lon="1.79123">
        <ele>170</ele>
        <time>2015-10-31T11:39:31Z</time>
      </trkpt>
      <trkpt lat="44.46913" lon="1.7912">
        <ele>169.6</ele>
        <time>2015-10-31T11:39:32Z</time>
      </trkpt>
      <trkpt lat="44.46908" lon="1.79118">
        <ele>169</ele>
        <time>2015-10-31T11:39:34Z</time>
      </trkpt>
      <trkpt lat="44.46903" lon="1.79117">
        <ele>168.3</ele>
        <time>2015-10-31T11:39:35Z</time>
      </trkpt>
      <trkpt lat="44.46894" lon="1.79108">
        <ele>168.2</ele>
        <time>2015-10-31T11:39:36Z</time>
      </trkpt>
      <trkpt lat="44.46887" lon="1.79101">
        <ele>168.1</ele>
        <time>2015-10-31T11:39:37Z</time>
      </trkpt>
      <trkpt lat="44.46882" lon="1.79097">
        <ele>167.9</ele>
        <time>2015-10-31T11:39:38Z</time>
      </trkpt>
      <trkpt lat="44.46879" lon="1.79097">
        <ele>167.6</ele>
        <time>2015-10-31T11:39:39Z</time>
      </trkpt>
      <trkpt lat="44.46876" lon="1.79094">
        <ele>167.6</ele>
        <time>2015-10-31T11:39:40Z</time>
      </trkpt>
      <trkpt lat="44.46869" lon="1.79088">
        <ele>167.8</ele>
        <time>2015-10-31T11:39:41Z</time>
      </trkpt>
      <trkpt lat="44.46863" lon="1.79086">
        <ele>167.6</ele>
        <time>2015-10-31T11:39:42Z</time>
      </trkpt>
      <trkpt lat="44.4686" lon="1.79083">
        <ele>167.6</ele>
        <time>2015-10-31T11:39:43Z</time>
      </trkpt>
      <trkpt lat="44.46855" lon="1.79081">
        <ele>167.6</ele>
        <time>2015-10-31T11:39:44Z</time>
      </trkpt>
      <trkpt lat="44.4685" lon="1.79078">
        <ele>167.6</ele>
        <time>2015-10-31T11:39:45Z</time>
      </trkpt>
      <trkpt lat="44.46843" lon="1.79074">
        <ele>167.7</ele>
        <time>2015-10-31T11:39:46Z</time>
      </trkpt>
      <trkpt lat="44.46837" lon="1.79071">
        <ele>167.5</ele>
        <time>2015-10-31T11:39:47Z</time>
      </trkpt>
      <trkpt lat="44.46832" lon="1.79066">
        <ele>168</ele>
        <time>2015-10-31T11:39:48Z</time>
      </trkpt>
      <trkpt lat="44.46826" lon="1.79063">
        <ele>168</ele>
        <time>2015-10-31T11:39:49Z</time>
      </trkpt>
      <trkpt lat="44.46822" lon="1.79062">
        <ele>167.9</ele>
        <time>2015-10-31T11:39:50Z</time>
      </trkpt>
      <trkpt lat="44.46817" lon="1.7906">
        <ele>167.7</ele>
        <time>2015-10-31T11:39:51Z</time>
      </trkpt>
      <trkpt lat="44.46812" lon="1.79057">
        <ele>167.9</ele>
        <time>2015-10-31T11:39:52Z</time>
      </trkpt>
      <trkpt lat="44.46807" lon="1.79056">
        <ele>167.6</ele>
        <time>2015-10-31T11:39:53Z</time>
      </trkpt>
      <trkpt lat="44.46802" lon="1.79052">
        <ele>167.8</ele>
        <time>2015-10-31T11:39:54Z</time>
      </trkpt>
      <trkpt lat="44.46797" lon="1.79051">
        <ele>167.7</ele>
        <time>2015-10-31T11:39:55Z</time>
      </trkpt>
      <trkpt lat="44.46792" lon="1.79049">
        <ele>167.7</ele>
        <time>2015-10-31T11:39:56Z</time>
      </trkpt>
      <trkpt lat="44.46786" lon="1.79047">
        <ele>167.8</ele>
        <time>2015-10-31T11:39:57Z</time>
      </trkpt>
      <trkpt lat="44.46781" lon="1.79044">
        <ele>168.2</ele>
        <time>2015-10-31T11:39:58Z</time>
      </trkpt>
      <trkpt lat="44.46778" lon="1.79042">
        <ele>168.4</ele>
        <time>2015-10-31T11:39:59Z</time>
      </trkpt>
      <trkpt lat="44.46773" lon="1.79039">
        <ele>168.5</ele>
        <time>2015-10-31T11:40:00Z</time>
      </trkpt>
      <trkpt lat="44.46768" lon="1.79037">
        <ele>168.5</ele>
        <time>2015-10-31T11:40:01Z</time>
      </trkpt>
      <trkpt lat="44.46764" lon="1.79036">
        <ele>168.5</ele>
        <time>2015-10-31T11:40:02Z</time>
      </trkpt>
      <trkpt lat="44.46758" lon="1.79033">
        <ele>168.5</ele>
        <time>2015-10-31T11:40:03Z</time>
      </trkpt>
      <trkpt lat="44.46754" lon="1.7903">
        <ele>168.7</ele>
        <time>2015-10-31T11:40:04Z</time>
      </trkpt>
      <trkpt lat="44.46748" lon="1.79026">
        <ele>169</ele>
        <time>2015-10-31T11:40:05Z</time>
      </trkpt>
      <trkpt lat="44.46744" lon="1.79024">
        <ele>169</ele>
        <time>2015-10-31T11:40:06Z</time>
      </trkpt>
      <trkpt lat="44.4674" lon="1.79021">
        <ele>169.2</ele>
        <time>2015-10-31T11:40:07Z</time>
      </trkpt>
      <trkpt lat="44.46735" lon="1.79018">
        <ele>169.4</ele>
        <time>2015-10-31T11:40:08Z</time>
      </trkpt>
      <trkpt lat="44.46732" lon="1.79017">
        <ele>169.5</ele>
        <time>2015-10-31T11:40:09Z</time>
      </trkpt>
      <trkpt lat="44.46728" lon="1.79016">
        <ele>169.5</ele>
        <time>2015-10-31T11:40:10Z</time>
      </trkpt>
      <trkpt lat="44.46723" lon="1.79013">
        <ele>169.8</ele>
        <time>2015-10-31T11:40:11Z</time>
      </trkpt>
      <trkpt lat="44.46718" lon="1.79011">
        <ele>169.9</ele>
        <time>2015-10-31T11:40:12Z</time>
      </trkpt>
      <trkpt lat="44.46714" lon="1.7901">
        <ele>169.9</ele>
        <time>2015-10-31T11:40:13Z</time>
      </trkpt>
      <trkpt lat="44.46709" lon="1.79009">
        <ele>169.9</ele>
        <time>2015-10-31T11:40:14Z</time>
      </trkpt>
      <trkpt lat="44.46702" lon="1.79008">
        <ele>169.5</ele>
        <time>2015-10-31T11:40:15Z</time>
      </trkpt>
      <trkpt lat="44.46697" lon="1.79008">
        <ele>168.9</ele>
        <time>2015-10-31T11:40:16Z</time>
      </trkpt>
      <trkpt lat="44.4669" lon="1.79007">
        <ele>168.3</ele>
        <time>2015-10-31T11:40:17Z</time>
      </trkpt>
      <trkpt lat="44.46685" lon="1.79002">
        <ele>168.3</ele>
        <time>2015-10-31T11:40:18Z</time>
      </trkpt>
      <trkpt lat="44.46681" lon="1.79">
        <ele>168.1</ele>
        <time>2015-10-31T11:40:19Z</time>
      </trkpt>
      <trkpt lat="44.46678" lon="1.78995">
        <ele>168.2</ele>
        <time>2015-10-31T11:40:20Z</time>
      </trkpt>
      <trkpt lat="44.46672" lon="1.78996">
        <ele>167.5</ele>
        <time>2015-10-31T11:40:21Z</time>
      </trkpt>
      <trkpt lat="44.46666" lon="1.78993">
        <ele>167.1</ele>
        <time>2015-10-31T11:40:22Z</time>
      </trkpt>
      <trkpt lat="44.4666" lon="1.78993">
        <ele>166.4</ele>
        <time>2015-10-31T11:40:23Z</time>
      </trkpt>
      <trkpt lat="44.46654" lon="1.7899">
        <ele>166</ele>
        <time>2015-10-31T11:40:24Z</time>
      </trkpt>
      <trkpt lat="44.46647" lon="1.78987">
        <ele>165.4</ele>
        <time>2015-10-31T11:40:25Z</time>
      </trkpt>
      <trkpt lat="44.46639" lon="1.78986">
        <ele>164.7</ele>
        <time>2015-10-31T11:40:26Z</time>
      </trkpt>
      <trkpt lat="44.46633" lon="1.78985">
        <ele>164</ele>
        <time>2015-10-31T11:40:27Z</time>
      </trkpt>
      <trkpt lat="44.46627" lon="1.78983">
        <ele>163.4</ele>
        <time>2015-10-31T11:40:28Z</time>
      </trkpt>
      <trkpt lat="44.46621" lon="1.78981">
        <ele>163.1</ele>
        <time>2015-10-31T11:40:29Z</time>
      </trkpt>
      <trkpt lat="44.46615" lon="1.78978">
        <ele>162.9</ele>
        <time>2015-10-31T11:40:30Z</time>
      </trkpt>
      <trkpt lat="44.4661" lon="1.78978">
        <ele>162.6</ele>
        <time>2015-10-31T11:40:31Z</time>
      </trkpt>
      <trkpt lat="44.46605" lon="1.78975">
        <ele>162.5</ele>
        <time>2015-10-31T11:40:32Z</time>
      </trkpt>
      <trkpt lat="44.46599" lon="1.78975">
        <ele>162.1</ele>
        <time>2015-10-31T11:40:33Z</time>
      </trkpt>
      <trkpt lat="44.46592" lon="1.78973">
        <ele>161.8</ele>
        <time>2015-10-31T11:40:34Z</time>
      </trkpt>
      <trkpt lat="44.46586" lon="1.78972">
        <ele>161.6</ele>
        <time>2015-10-31T11:40:35Z</time>
      </trkpt>
      <trkpt lat="44.4658" lon="1.7897">
        <ele>161.3</ele>
        <time>2015-10-31T11:40:36Z</time>
      </trkpt>
      <trkpt lat="44.46574" lon="1.78969">
        <ele>161</ele>
        <time>2015-10-31T11:40:37Z</time>
      </trkpt>
      <trkpt lat="44.46568" lon="1.78968">
        <ele>160.7</ele>
        <time>2015-10-31T11:40:38Z</time>
      </trkpt>
      <trkpt lat="44.46561" lon="1.78968">
        <ele>160.3</ele>
        <time>2015-10-31T11:40:39Z</time>
      </trkpt>
      <trkpt lat="44.46555" lon="1.78967">
        <ele>160.1</ele>
        <time>2015-10-31T11:40:40Z</time>
      </trkpt>
      <trkpt lat="44.46548" lon="1.78965">
        <ele>159.8</ele>
        <time>2015-10-31T11:40:41Z</time>
      </trkpt>
      <trkpt lat="44.46541" lon="1.78961">
        <ele>159.7</ele>
        <time>2015-10-31T11:40:42Z</time>
      </trkpt>
      <trkpt lat="44.46535" lon="1.7896">
        <ele>159.7</ele>
        <time>2015-10-31T11:40:43Z</time>
      </trkpt>
      <trkpt lat="44.46529" lon="1.78958">
        <ele>159.7</ele>
        <time>2015-10-31T11:40:44Z</time>
      </trkpt>
      <trkpt lat="44.46523" lon="1.78957">
        <ele>159.7</ele>
        <time>2015-10-31T11:40:45Z</time>
      </trkpt>
      <trkpt lat="44.46517" lon="1.78954">
        <ele>159.7</ele>
        <time>2015-10-31T11:40:46Z</time>
      </trkpt>
      <trkpt lat="44.4651" lon="1.78952">
        <ele>159.6</ele>
        <time>2015-10-31T11:40:47Z</time>
      </trkpt>
      <trkpt lat="44.46503" lon="1.7895">
        <ele>159.6</ele>
        <time>2015-10-31T11:40:48Z</time>
      </trkpt>
      <trkpt lat="44.46496" lon="1.78949">
        <ele>159.5</ele>
        <time>2015-10-31T11:40:49Z</time>
      </trkpt>
      <trkpt lat="44.4649" lon="1.78946">
        <ele>159.5</ele>
        <time>2015-10-31T11:40:50Z</time>
      </trkpt>
      <trkpt lat="44.46484" lon="1.78945">
        <ele>159.5</ele>
        <time>2015-10-31T11:40:51Z</time>
      </trkpt>
      <trkpt lat="44.46477" lon="1.78944">
        <ele>159.4</ele>
        <time>2015-10-31T11:40:52Z</time>
      </trkpt>
      <trkpt lat="44.4647" lon="1.78942">
        <ele>159.4</ele>
        <time>2015-10-31T11:40:53Z</time>
      </trkpt>
      <trkpt lat="44.46464" lon="1.78941">
        <ele>159.3</ele>
        <time>2015-10-31T11:40:54Z</time>
      </trkpt>
      <trkpt lat="44.46458" lon="1.7894">
        <ele>159.2</ele>
        <time>2015-10-31T11:40:55Z</time>
      </trkpt>
      <trkpt lat="44.46452" lon="1.7894">
        <ele>158.7</ele>
        <time>2015-10-31T11:40:56Z</time>
      </trkpt>
      <trkpt lat="44.46446" lon="1.78939">
        <ele>158</ele>
        <time>2015-10-31T11:40:57Z</time>
      </trkpt>
      <trkpt lat="44.46439" lon="1.78939">
        <ele>157.3</ele>
        <time>2015-10-31T11:40:58Z</time>
      </trkpt>
      <trkpt lat="44.46434" lon="1.78938">
        <ele>156.9</ele>
        <time>2015-10-31T11:40:59Z</time>
      </trkpt>
      <trkpt lat="44.46429" lon="1.78936">
        <ele>156.4</ele>
        <time>2015-10-31T11:41:00Z</time>
      </trkpt>
      <trkpt lat="44.46424" lon="1.78935">
        <ele>156</ele>
        <time>2015-10-31T11:41:01Z</time>
      </trkpt>
      <trkpt lat="44.4642" lon="1.78933">
        <ele>155.6</ele>
        <time>2015-10-31T11:41:02Z</time>
      </trkpt>
      <trkpt lat="44.46413" lon="1.78932">
        <ele>155</ele>
        <time>2015-10-31T11:41:03Z</time>
      </trkpt>
      <trkpt lat="44.46407" lon="1.78932">
        <ele>154.4</ele>
        <time>2015-10-31T11:41:04Z</time>
      </trkpt>
      <trkpt lat="44.46402" lon="1.78931">
        <ele>153.8</ele>
        <time>2015-10-31T11:41:05Z</time>
      </trkpt>
      <trkpt lat="44.46398" lon="1.78929">
        <ele>153.6</ele>
        <time>2015-10-31T11:41:06Z</time>
      </trkpt>
      <trkpt lat="44.46394" lon="1.78927">
        <ele>153.3</ele>
        <time>2015-10-31T11:41:07Z</time>
      </trkpt>
      <trkpt lat="44.46389" lon="1.78924">
        <ele>153</ele>
        <time>2015-10-31T11:41:08Z</time>
      </trkpt>
      <trkpt lat="44.46384" lon="1.7892">
        <ele>152.7</ele>
        <time>2015-10-31T11:41:09Z</time>
      </trkpt>
      <trkpt lat="44.46379" lon="1.78917">
        <ele>152.4</ele>
        <time>2015-10-31T11:41:10Z</time>
      </trkpt>
      <trkpt lat="44.46374" lon="1.78915">
        <ele>152</ele>
        <time>2015-10-31T11:41:11Z</time>
      </trkpt>
      <trkpt lat="44.46369" lon="1.7891">
        <ele>151.9</ele>
        <time>2015-10-31T11:41:12Z</time>
      </trkpt>
      <trkpt lat="44.46363" lon="1.78904">
        <ele>151.8</ele>
        <time>2015-10-31T11:41:13Z</time>
      </trkpt>
      <trkpt lat="44.46357" lon="1.789">
        <ele>151.4</ele>
        <time>2015-10-31T11:41:14Z</time>
      </trkpt>
      <trkpt lat="44.46351" lon="1.78893">
        <ele>151.2</ele>
        <time>2015-10-31T11:41:15Z</time>
      </trkpt>
      <trkpt lat="44.46351" lon="1.78884">
        <ele>151.7</ele>
        <time>2015-10-31T11:41:16Z</time>
      </trkpt>
      <trkpt lat="44.46349" lon="1.78877">
        <ele>151.8</ele>
        <time>2015-10-31T11:41:17Z</time>
      </trkpt>
      <trkpt lat="44.46344" lon="1.7887">
        <ele>151.1</ele>
        <time>2015-10-31T11:41:18Z</time>
      </trkpt>
      <trkpt lat="44.46342" lon="1.78862">
        <ele>150.6</ele>
        <time>2015-10-31T11:41:19Z</time>
      </trkpt>
      <trkpt lat="44.46338" lon="1.78856">
        <ele>150</ele>
        <time>2015-10-31T11:41:20Z</time>
      </trkpt>
      <trkpt lat="44.46336" lon="1.78849">
        <ele>149.5</ele>
        <time>2015-10-31T11:41:21Z</time>
      </trkpt>
      <trkpt lat="44.46334" lon="1.78842">
        <ele>149.1</ele>
        <time>2015-10-31T11:41:22Z</time>
      </trkpt>
      <trkpt lat="44.46333" lon="1.78835">
        <ele>148.7</ele>
        <time>2015-10-31T11:41:23Z</time>
      </trkpt>
      <trkpt lat="44.46331" lon="1.78826">
        <ele>148.3</ele>
        <time>2015-10-31T11:41:24Z</time>
      </trkpt>
      <trkpt lat="44.46331" lon="1.78817">
        <ele>148</ele>
        <time>2015-10-31T11:41:25Z</time>
      </trkpt>
      <trkpt lat="44.46331" lon="1.78809">
        <ele>147.8</ele>
        <time>2015-10-31T11:41:26Z</time>
      </trkpt>
      <trkpt lat="44.46331" lon="1.78799">
        <ele>147.5</ele>
        <time>2015-10-31T11:41:27Z</time>
      </trkpt>
      <trkpt lat="44.46332" lon="1.7879">
        <ele>147.3</ele>
        <time>2015-10-31T11:41:28Z</time>
      </trkpt>
      <trkpt lat="44.46332" lon="1.78782">
        <ele>147.1</ele>
        <time>2015-10-31T11:41:29Z</time>
      </trkpt>
      <trkpt lat="44.46334" lon="1.78773">
        <ele>146.8</ele>
        <time>2015-10-31T11:41:30Z</time>
      </trkpt>
      <trkpt lat="44.46334" lon="1.78764">
        <ele>146.6</ele>
        <time>2015-10-31T11:41:31Z</time>
      </trkpt>
      <trkpt lat="44.46336" lon="1.78758">
        <ele>146.5</ele>
        <time>2015-10-31T11:41:32Z</time>
      </trkpt>
      <trkpt lat="44.46337" lon="1.78749">
        <ele>146.3</ele>
        <time>2015-10-31T11:41:33Z</time>
      </trkpt>
      <trkpt lat="44.46339" lon="1.7874">
        <ele>146.1</ele>
        <time>2015-10-31T11:41:34Z</time>
      </trkpt>
      <trkpt lat="44.46341" lon="1.78732">
        <ele>145.9</ele>
        <time>2015-10-31T11:41:35Z</time>
      </trkpt>
      <trkpt lat="44.46344" lon="1.78724">
        <ele>145.8</ele>
        <time>2015-10-31T11:41:36Z</time>
      </trkpt>
      <trkpt lat="44.46345" lon="1.78716">
        <ele>145.6</ele>
        <time>2015-10-31T11:41:37Z</time>
      </trkpt>
      <trkpt lat="44.46348" lon="1.78709">
        <ele>145.4</ele>
        <time>2015-10-31T11:41:38Z</time>
      </trkpt>
      <trkpt lat="44.46349" lon="1.78701">
        <ele>145.2</ele>
        <time>2015-10-31T11:41:39Z</time>
      </trkpt>
      <trkpt lat="44.46353" lon="1.78694">
        <ele>145.1</ele>
        <time>2015-10-31T11:41:40Z</time>
      </trkpt>
      <trkpt lat="44.46356" lon="1.78688">
        <ele>144.9</ele>
        <time>2015-10-31T11:41:41Z</time>
      </trkpt>
      <trkpt lat="44.4636" lon="1.7868">
        <ele>144.8</ele>
        <time>2015-10-31T11:41:42Z</time>
      </trkpt>
      <trkpt lat="44.46364" lon="1.78673">
        <ele>144.5</ele>
        <time>2015-10-31T11:41:43Z</time>
      </trkpt>
      <trkpt lat="44.46368" lon="1.78666">
        <ele>144.3</ele>
        <time>2015-10-31T11:41:44Z</time>
      </trkpt>
      <trkpt lat="44.46374" lon="1.7866">
        <ele>144.1</ele>
        <time>2015-10-31T11:41:45Z</time>
      </trkpt>
      <trkpt lat="44.4638" lon="1.78655">
        <ele>144.2</ele>
        <time>2015-10-31T11:41:46Z</time>
      </trkpt>
      <trkpt lat="44.46385" lon="1.78651">
        <ele>144.5</ele>
        <time>2015-10-31T11:41:47Z</time>
      </trkpt>
      <trkpt lat="44.46391" lon="1.78648">
        <ele>144.8</ele>
        <time>2015-10-31T11:41:48Z</time>
      </trkpt>
      <trkpt lat="44.46397" lon="1.78645">
        <ele>145.1</ele>
        <time>2015-10-31T11:41:49Z</time>
      </trkpt>
      <trkpt lat="44.46403" lon="1.78641">
        <ele>145.3</ele>
        <time>2015-10-31T11:41:50Z</time>
      </trkpt>
      <trkpt lat="44.46409" lon="1.78638">
        <ele>145.6</ele>
        <time>2015-10-31T11:41:51Z</time>
      </trkpt>
      <trkpt lat="44.46415" lon="1.78634">
        <ele>145.7</ele>
        <time>2015-10-31T11:41:52Z</time>
      </trkpt>
      <trkpt lat="44.4642" lon="1.78629">
        <ele>145.6</ele>
        <time>2015-10-31T11:41:53Z</time>
      </trkpt>
      <trkpt lat="44.46426" lon="1.78625">
        <ele>145.6</ele>
        <time>2015-10-31T11:41:54Z</time>
      </trkpt>
      <trkpt lat="44.46432" lon="1.78623">
        <ele>146</ele>
        <time>2015-10-31T11:41:55Z</time>
      </trkpt>
      <trkpt lat="44.46437" lon="1.78619">
        <ele>146.2</ele>
        <time>2015-10-31T11:41:56Z</time>
      </trkpt>
      <trkpt lat="44.46442" lon="1.78617">
        <ele>146.3</ele>
        <time>2015-10-31T11:41:57Z</time>
      </trkpt>
      <trkpt lat="44.46448" lon="1.78617">
        <ele>146.7</ele>
        <time>2015-10-31T11:41:58Z</time>
      </trkpt>
      <trkpt lat="44.46453" lon="1.78614">
        <ele>146.9</ele>
        <time>2015-10-31T11:41:59Z</time>
      </trkpt>
      <trkpt lat="44.4646" lon="1.78612">
        <ele>147.2</ele>
        <time>2015-10-31T11:42:00Z</time>
      </trkpt>
      <trkpt lat="44.46466" lon="1.78608">
        <ele>147.3</ele>
        <time>2015-10-31T11:42:01Z</time>
      </trkpt>
      <trkpt lat="44.4647" lon="1.78604">
        <ele>147.3</ele>
        <time>2015-10-31T11:42:02Z</time>
      </trkpt>
      <trkpt lat="44.46476" lon="1.78598">
        <ele>147.3</ele>
        <time>2015-10-31T11:42:03Z</time>
      </trkpt>
      <trkpt lat="44.46482" lon="1.78594">
        <ele>147.3</ele>
        <time>2015-10-31T11:42:04Z</time>
      </trkpt>
      <trkpt lat="44.46487" lon="1.78591">
        <ele>147.4</ele>
        <time>2015-10-31T11:42:05Z</time>
      </trkpt>
      <trkpt lat="44.46492" lon="1.78587">
        <ele>147.3</ele>
        <time>2015-10-31T11:42:06Z</time>
      </trkpt>
      <trkpt lat="44.46497" lon="1.78582">
        <ele>147.2</ele>
        <time>2015-10-31T11:42:07Z</time>
      </trkpt>
      <trkpt lat="44.46503" lon="1.78577">
        <ele>147.1</ele>
        <time>2015-10-31T11:42:08Z</time>
      </trkpt>
      <trkpt lat="44.46509" lon="1.78573">
        <ele>147</ele>
        <time>2015-10-31T11:42:09Z</time>
      </trkpt>
      <trkpt lat="44.46515" lon="1.7857">
        <ele>147</ele>
        <time>2015-10-31T11:42:10Z</time>
      </trkpt>
      <trkpt lat="44.4652" lon="1.78567">
        <ele>147</ele>
        <time>2015-10-31T11:42:11Z</time>
      </trkpt>
      <trkpt lat="44.46525" lon="1.78563">
        <ele>146.7</ele>
        <time>2015-10-31T11:42:12Z</time>
      </trkpt>
      <trkpt lat="44.46531" lon="1.78558">
        <ele>146.5</ele>
        <time>2015-10-31T11:42:13Z</time>
      </trkpt>
      <trkpt lat="44.46537" lon="1.78556">
        <ele>146.5</ele>
        <time>2015-10-31T11:42:14Z</time>
      </trkpt>
      <trkpt lat="44.46542" lon="1.78553">
        <ele>146.4</ele>
        <time>2015-10-31T11:42:15Z</time>
      </trkpt>
      <trkpt lat="44.46547" lon="1.78549">
        <ele>146.1</ele>
        <time>2015-10-31T11:42:16Z</time>
      </trkpt>
      <trkpt lat="44.46552" lon="1.78544">
        <ele>145.7</ele>
        <time>2015-10-31T11:42:17Z</time>
      </trkpt>
      <trkpt lat="44.46559" lon="1.7854">
        <ele>145.5</ele>
        <time>2015-10-31T11:42:18Z</time>
      </trkpt>
      <trkpt lat="44.46564" lon="1.78538">
        <ele>145.6</ele>
        <time>2015-10-31T11:42:19Z</time>
      </trkpt>
      <trkpt lat="44.46569" lon="1.78537">
        <ele>145.8</ele>
        <time>2015-10-31T11:42:20Z</time>
      </trkpt>
      <trkpt lat="44.46575" lon="1.78534">
        <ele>145.8</ele>
        <time>2015-10-31T11:42:21Z</time>
      </trkpt>
      <trkpt lat="44.4658" lon="1.78528">
        <ele>145.7</ele>
        <time>2015-10-31T11:42:22Z</time>
      </trkpt>
      <trkpt lat="44.46586" lon="1.78528">
        <ele>145.8</ele>
        <time>2015-10-31T11:42:23Z</time>
      </trkpt>
      <trkpt lat="44.46591" lon="1.78524">
        <ele>145.8</ele>
        <time>2015-10-31T11:42:24Z</time>
      </trkpt>
      <trkpt lat="44.46595" lon="1.78521">
        <ele>145.8</ele>
        <time>2015-10-31T11:42:25Z</time>
      </trkpt>
      <trkpt lat="44.46602" lon="1.78517">
        <ele>145.8</ele>
        <time>2015-10-31T11:42:26Z</time>
      </trkpt>
      <trkpt lat="44.46607" lon="1.78515">
        <ele>145.8</ele>
        <time>2015-10-31T11:42:27Z</time>
      </trkpt>
      <trkpt lat="44.46612" lon="1.78513">
        <ele>145.8</ele>
        <time>2015-10-31T11:42:28Z</time>
      </trkpt>
      <trkpt lat="44.46617" lon="1.7851">
        <ele>145.8</ele>
        <time>2015-10-31T11:42:29Z</time>
      </trkpt>
      <trkpt lat="44.46621" lon="1.78507">
        <ele>145.8</ele>
        <time>2015-10-31T11:42:30Z</time>
      </trkpt>
      <trkpt lat="44.46626" lon="1.78506">
        <ele>145.9</ele>
        <time>2015-10-31T11:42:31Z</time>
      </trkpt>
      <trkpt lat="44.46632" lon="1.78502">
        <ele>146.1</ele>
        <time>2015-10-31T11:42:32Z</time>
      </trkpt>
      <trkpt lat="44.46637" lon="1.78499">
        <ele>146.2</ele>
        <time>2015-10-31T11:42:33Z</time>
      </trkpt>
      <trkpt lat="44.46643" lon="1.78495">
        <ele>146.1</ele>
        <time>2015-10-31T11:42:34Z</time>
      </trkpt>
      <trkpt lat="44.46648" lon="1.7849">
        <ele>146.1</ele>
        <time>2015-10-31T11:42:35Z</time>
      </trkpt>
      <trkpt lat="44.46653" lon="1.78487">
        <ele>146</ele>
        <time>2015-10-31T11:42:36Z</time>
      </trkpt>
      <trkpt lat="44.46658" lon="1.78484">
        <ele>146.1</ele>
        <time>2015-10-31T11:42:37Z</time>
      </trkpt>
      <trkpt lat="44.46663" lon="1.7848">
        <ele>145.9</ele>
        <time>2015-10-31T11:42:38Z</time>
      </trkpt>
      <trkpt lat="44.46668" lon="1.78476">
        <ele>145.8</ele>
        <time>2015-10-31T11:42:39Z</time>
      </trkpt>
      <trkpt lat="44.46674" lon="1.78473">
        <ele>145.7</ele>
        <time>2015-10-31T11:42:40Z</time>
      </trkpt>
      <trkpt lat="44.46679" lon="1.78468">
        <ele>145.3</ele>
        <time>2015-10-31T11:42:41Z</time>
      </trkpt>
      <trkpt lat="44.46683" lon="1.78466">
        <ele>145.3</ele>
        <time>2015-10-31T11:42:42Z</time>
      </trkpt>
      <trkpt lat="44.46689" lon="1.78465">
        <ele>145.3</ele>
        <time>2015-10-31T11:42:43Z</time>
      </trkpt>
      <trkpt lat="44.46697" lon="1.78463">
        <ele>145.3</ele>
        <time>2015-10-31T11:42:44Z</time>
      </trkpt>
      <trkpt lat="44.46703" lon="1.78461">
        <ele>145.3</ele>
        <time>2015-10-31T11:42:45Z</time>
      </trkpt>
      <trkpt lat="44.46707" lon="1.7846">
        <ele>145.1</ele>
        <time>2015-10-31T11:42:46Z</time>
      </trkpt>
      <trkpt lat="44.46713" lon="1.7846">
        <ele>145.3</ele>
        <time>2015-10-31T11:42:47Z</time>
      </trkpt>
      <trkpt lat="44.4672" lon="1.7846">
        <ele>145.3</ele>
        <time>2015-10-31T11:42:48Z</time>
      </trkpt>
      <trkpt lat="44.46726" lon="1.78459">
        <ele>145.3</ele>
        <time>2015-10-31T11:42:49Z</time>
      </trkpt>
      <trkpt lat="44.46732" lon="1.78456">
        <ele>145.2</ele>
        <time>2015-10-31T11:42:50Z</time>
      </trkpt>
      <trkpt lat="44.46739" lon="1.78457">
        <ele>145.3</ele>
        <time>2015-10-31T11:42:51Z</time>
      </trkpt>
      <trkpt lat="44.46745" lon="1.78454">
        <ele>145.2</ele>
        <time>2015-10-31T11:42:52Z</time>
      </trkpt>
      <trkpt lat="44.46751" lon="1.78454">
        <ele>145.3</ele>
        <time>2015-10-31T11:42:53Z</time>
      </trkpt>
      <trkpt lat="44.46757" lon="1.78453">
        <ele>145.3</ele>
        <time>2015-10-31T11:42:54Z</time>
      </trkpt>
      <trkpt lat="44.46762" lon="1.78456">
        <ele>145.5</ele>
        <time>2015-10-31T11:42:55Z</time>
      </trkpt>
      <trkpt lat="44.46767" lon="1.78453">
        <ele>145.4</ele>
        <time>2015-10-31T11:42:56Z</time>
      </trkpt>
      <trkpt lat="44.46772" lon="1.78452">
        <ele>145.4</ele>
        <time>2015-10-31T11:42:57Z</time>
      </trkpt>
      <trkpt lat="44.46777" lon="1.78453">
        <ele>145.5</ele>
        <time>2015-10-31T11:42:58Z</time>
      </trkpt>
      <trkpt lat="44.46783" lon="1.78453">
        <ele>145.6</ele>
        <time>2015-10-31T11:42:59Z</time>
      </trkpt>
      <trkpt lat="44.46788" lon="1.78453">
        <ele>145.6</ele>
        <time>2015-10-31T11:43:00Z</time>
      </trkpt>
      <trkpt lat="44.46794" lon="1.78453">
        <ele>145.6</ele>
        <time>2015-10-31T11:43:01Z</time>
      </trkpt>
      <trkpt lat="44.46801" lon="1.78452">
        <ele>145.4</ele>
        <time>2015-10-31T11:43:02Z</time>
      </trkpt>
      <trkpt lat="44.46808" lon="1.78453">
        <ele>145.3</ele>
        <time>2015-10-31T11:43:03Z</time>
      </trkpt>
      <trkpt lat="44.46814" lon="1.78452">
        <ele>145.1</ele>
        <time>2015-10-31T11:43:04Z</time>
      </trkpt>
      <trkpt lat="44.46821" lon="1.78453">
        <ele>145</ele>
        <time>2015-10-31T11:43:05Z</time>
      </trkpt>
      <trkpt lat="44.46827" lon="1.78455">
        <ele>145</ele>
        <time>2015-10-31T11:43:06Z</time>
      </trkpt>
      <trkpt lat="44.46833" lon="1.78455">
        <ele>144.8</ele>
        <time>2015-10-31T11:43:07Z</time>
      </trkpt>
      <trkpt lat="44.4684" lon="1.78454">
        <ele>144.6</ele>
        <time>2015-10-31T11:43:08Z</time>
      </trkpt>
      <trkpt lat="44.46847" lon="1.78454">
        <ele>144.5</ele>
        <time>2015-10-31T11:43:09Z</time>
      </trkpt>
      <trkpt lat="44.46853" lon="1.78451">
        <ele>144.2</ele>
        <time>2015-10-31T11:43:10Z</time>
      </trkpt>
      <trkpt lat="44.4686" lon="1.78454">
        <ele>144.1</ele>
        <time>2015-10-31T11:43:11Z</time>
      </trkpt>
      <trkpt lat="44.46866" lon="1.78456">
        <ele>144.1</ele>
        <time>2015-10-31T11:43:12Z</time>
      </trkpt>
      <trkpt lat="44.46872" lon="1.78453">
        <ele>143.8</ele>
        <time>2015-10-31T11:43:13Z</time>
      </trkpt>
      <trkpt lat="44.46879" lon="1.78456">
        <ele>143.9</ele>
        <time>2015-10-31T11:43:14Z</time>
      </trkpt>
      <trkpt lat="44.46884" lon="1.78456">
        <ele>144</ele>
        <time>2015-10-31T11:43:15Z</time>
      </trkpt>
      <trkpt lat="44.46891" lon="1.78456">
        <ele>144.1</ele>
        <time>2015-10-31T11:43:16Z</time>
      </trkpt>
      <trkpt lat="44.46898" lon="1.78456">
        <ele>144.2</ele>
        <time>2015-10-31T11:43:17Z</time>
      </trkpt>
      <trkpt lat="44.46904" lon="1.78456">
        <ele>144.3</ele>
        <time>2015-10-31T11:43:18Z</time>
      </trkpt>
      <trkpt lat="44.46909" lon="1.78455">
        <ele>144.3</ele>
        <time>2015-10-31T11:43:19Z</time>
      </trkpt>
      <trkpt lat="44.46915" lon="1.78454">
        <ele>144.3</ele>
        <time>2015-10-31T11:43:20Z</time>
      </trkpt>
      <trkpt lat="44.46922" lon="1.78453">
        <ele>144.4</ele>
        <time>2015-10-31T11:43:21Z</time>
      </trkpt>
      <trkpt lat="44.46928" lon="1.78452">
        <ele>144.4</ele>
        <time>2015-10-31T11:43:22Z</time>
      </trkpt>
      <trkpt lat="44.46934" lon="1.78451">
        <ele>144.4</ele>
        <time>2015-10-31T11:43:23Z</time>
      </trkpt>
      <trkpt lat="44.4694" lon="1.7845">
        <ele>144.5</ele>
        <time>2015-10-31T11:43:24Z</time>
      </trkpt>
      <trkpt lat="44.46947" lon="1.78449">
        <ele>144.5</ele>
        <time>2015-10-31T11:43:25Z</time>
      </trkpt>
      <trkpt lat="44.46953" lon="1.78448">
        <ele>144.5</ele>
        <time>2015-10-31T11:43:26Z</time>
      </trkpt>
      <trkpt lat="44.46959" lon="1.78448">
        <ele>144.6</ele>
        <time>2015-10-31T11:43:27Z</time>
      </trkpt>
      <trkpt lat="44.46965" lon="1.78448">
        <ele>144.8</ele>
        <time>2015-10-31T11:43:28Z</time>
      </trkpt>
      <trkpt lat="44.46971" lon="1.78449">
        <ele>144.9</ele>
        <time>2015-10-31T11:43:29Z</time>
      </trkpt>
      <trkpt lat="44.46977" lon="1.78448">
        <ele>145</ele>
        <time>2015-10-31T11:43:30Z</time>
      </trkpt>
      <trkpt lat="44.46982" lon="1.78448">
        <ele>145</ele>
        <time>2015-10-31T11:43:31Z</time>
      </trkpt>
      <trkpt lat="44.46987" lon="1.78446">
        <ele>145.1</ele>
        <time>2015-10-31T11:43:32Z</time>
      </trkpt>
      <trkpt lat="44.46993" lon="1.78445">
        <ele>145.1</ele>
        <time>2015-10-31T11:43:33Z</time>
      </trkpt>
      <trkpt lat="44.46999" lon="1.78443">
        <ele>145.1</ele>
        <time>2015-10-31T11:43:34Z</time>
      </trkpt>
      <trkpt lat="44.47005" lon="1.78444">
        <ele>145.2</ele>
        <time>2015-10-31T11:43:35Z</time>
      </trkpt>
      <trkpt lat="44.47011" lon="1.78443">
        <ele>145.2</ele>
        <time>2015-10-31T11:43:36Z</time>
      </trkpt>
      <trkpt lat="44.47016" lon="1.78442">
        <ele>145.2</ele>
        <time>2015-10-31T11:43:37Z</time>
      </trkpt>
      <trkpt lat="44.47022" lon="1.78441">
        <ele>145.3</ele>
        <time>2015-10-31T11:43:38Z</time>
      </trkpt>
      <trkpt lat="44.47028" lon="1.78441">
        <ele>145.3</ele>
        <time>2015-10-31T11:43:39Z</time>
      </trkpt>
      <trkpt lat="44.47035" lon="1.78438">
        <ele>145.2</ele>
        <time>2015-10-31T11:43:40Z</time>
      </trkpt>
      <trkpt lat="44.4704" lon="1.78437">
        <ele>145.2</ele>
        <time>2015-10-31T11:43:41Z</time>
      </trkpt>
      <trkpt lat="44.47046" lon="1.78434">
        <ele>145.1</ele>
        <time>2015-10-31T11:43:42Z</time>
      </trkpt>
      <trkpt lat="44.47051" lon="1.78433">
        <ele>145.3</ele>
        <time>2015-10-31T11:43:43Z</time>
      </trkpt>
      <trkpt lat="44.47056" lon="1.78431">
        <ele>145.3</ele>
        <time>2015-10-31T11:43:44Z</time>
      </trkpt>
      <trkpt lat="44.47062" lon="1.78431">
        <ele>145.5</ele>
        <time>2015-10-31T11:43:45Z</time>
      </trkpt>
      <trkpt lat="44.47068" lon="1.78428">
        <ele>145.5</ele>
        <time>2015-10-31T11:43:46Z</time>
      </trkpt>
      <trkpt lat="44.47073" lon="1.78428">
        <ele>145.6</ele>
        <time>2015-10-31T11:43:47Z</time>
      </trkpt>
      <trkpt lat="44.47079" lon="1.78426">
        <ele>145.6</ele>
        <time>2015-10-31T11:43:48Z</time>
      </trkpt>
      <trkpt lat="44.47084" lon="1.78423">
        <ele>145.5</ele>
        <time>2015-10-31T11:43:49Z</time>
      </trkpt>
      <trkpt lat="44.47089" lon="1.78423">
        <ele>145.6</ele>
        <time>2015-10-31T11:43:50Z</time>
      </trkpt>
      <trkpt lat="44.47094" lon="1.78422">
        <ele>145.7</ele>
        <time>2015-10-31T11:43:51Z</time>
      </trkpt>
      <trkpt lat="44.47099" lon="1.78419">
        <ele>145.5</ele>
        <time>2015-10-31T11:43:52Z</time>
      </trkpt>
      <trkpt lat="44.47105" lon="1.78417">
        <ele>145.4</ele>
        <time>2015-10-31T11:43:53Z</time>
      </trkpt>
      <trkpt lat="44.4711" lon="1.78416">
        <ele>145.4</ele>
        <time>2015-10-31T11:43:54Z</time>
      </trkpt>
      <trkpt lat="44.47114" lon="1.78414">
        <ele>145.3</ele>
        <time>2015-10-31T11:43:55Z</time>
      </trkpt>
      <trkpt lat="44.47119" lon="1.78413">
        <ele>145.2</ele>
        <time>2015-10-31T11:43:56Z</time>
      </trkpt>
      <trkpt lat="44.47124" lon="1.78411">
        <ele>145.2</ele>
        <time>2015-10-31T11:43:57Z</time>
      </trkpt>
      <trkpt lat="44.4713" lon="1.78408">
        <ele>145.1</ele>
        <time>2015-10-31T11:43:58Z</time>
      </trkpt>
      <trkpt lat="44.47134" lon="1.78404">
        <ele>144.6</ele>
        <time>2015-10-31T11:43:59Z</time>
      </trkpt>
      <trkpt lat="44.4714" lon="1.78402">
        <ele>144.5</ele>
        <time>2015-10-31T11:44:00Z</time>
      </trkpt>
      <trkpt lat="44.47145" lon="1.78398">
        <ele>144.1</ele>
        <time>2015-10-31T11:44:01Z</time>
      </trkpt>
      <trkpt lat="44.4715" lon="1.78396">
        <ele>144.1</ele>
        <time>2015-10-31T11:44:02Z</time>
      </trkpt>
      <trkpt lat="44.47156" lon="1.78393">
        <ele>143.8</ele>
        <time>2015-10-31T11:44:03Z</time>
      </trkpt>
      <trkpt lat="44.47163" lon="1.7839">
        <ele>143.6</ele>
        <time>2015-10-31T11:44:04Z</time>
      </trkpt>
      <trkpt lat="44.47169" lon="1.78386">
        <ele>143.1</ele>
        <time>2015-10-31T11:44:05Z</time>
      </trkpt>
      <trkpt lat="44.47174" lon="1.78383">
        <ele>142.6</ele>
        <time>2015-10-31T11:44:06Z</time>
      </trkpt>
      <trkpt lat="44.47179" lon="1.7838">
        <ele>142.2</ele>
        <time>2015-10-31T11:44:07Z</time>
      </trkpt>
      <trkpt lat="44.47184" lon="1.78381">
        <ele>142.5</ele>
        <time>2015-10-31T11:44:08Z</time>
      </trkpt>
      <trkpt lat="44.47189" lon="1.7838">
        <ele>142.6</ele>
        <time>2015-10-31T11:44:09Z</time>
      </trkpt>
      <trkpt lat="44.47194" lon="1.78381">
        <ele>142.8</ele>
        <time>2015-10-31T11:44:10Z</time>
      </trkpt>
      <trkpt lat="44.47198" lon="1.78378">
        <ele>142.3</ele>
        <time>2015-10-31T11:44:11Z</time>
      </trkpt>
      <trkpt lat="44.47203" lon="1.78375">
        <ele>141.9</ele>
        <time>2015-10-31T11:44:12Z</time>
      </trkpt>
      <trkpt lat="44.47208" lon="1.78374">
        <ele>142</ele>
        <time>2015-10-31T11:44:13Z</time>
      </trkpt>
      <trkpt lat="44.47213" lon="1.78371">
        <ele>142.2</ele>
        <time>2015-10-31T11:44:14Z</time>
      </trkpt>
      <trkpt lat="44.47217" lon="1.78369">
        <ele>142.5</ele>
        <time>2015-10-31T11:44:15Z</time>
      </trkpt>
      <trkpt lat="44.47221" lon="1.78365">
        <ele>142.7</ele>
        <time>2015-10-31T11:44:16Z</time>
      </trkpt>
      <trkpt lat="44.47226" lon="1.78363">
        <ele>143</ele>
        <time>2015-10-31T11:44:17Z</time>
      </trkpt>
      <trkpt lat="44.47233" lon="1.78361">
        <ele>143.4</ele>
        <time>2015-10-31T11:44:18Z</time>
      </trkpt>
      <trkpt lat="44.47237" lon="1.78357">
        <ele>143.5</ele>
        <time>2015-10-31T11:44:19Z</time>
      </trkpt>
      <trkpt lat="44.47242" lon="1.78358">
        <ele>143.9</ele>
        <time>2015-10-31T11:44:20Z</time>
      </trkpt>
      <trkpt lat="44.47247" lon="1.78353">
        <ele>144.1</ele>
        <time>2015-10-31T11:44:21Z</time>
      </trkpt>
      <trkpt lat="44.47252" lon="1.78352">
        <ele>144.5</ele>
        <time>2015-10-31T11:44:22Z</time>
      </trkpt>
      <trkpt lat="44.47257" lon="1.78344">
        <ele>144.6</ele>
        <time>2015-10-31T11:44:23Z</time>
      </trkpt>
      <trkpt lat="44.47263" lon="1.78342">
        <ele>144.8</ele>
        <time>2015-10-31T11:44:24Z</time>
      </trkpt>
      <trkpt lat="44.47267" lon="1.78341">
        <ele>145.1</ele>
        <time>2015-10-31T11:44:25Z</time>
      </trkpt>
      <trkpt lat="44.47271" lon="1.78339">
        <ele>145.3</ele>
        <time>2015-10-31T11:44:26Z</time>
      </trkpt>
      <trkpt lat="44.47275" lon="1.78337">
        <ele>145.5</ele>
        <time>2015-10-31T11:44:27Z</time>
      </trkpt>
      <trkpt lat="44.4728" lon="1.78332">
        <ele>145.7</ele>
        <time>2015-10-31T11:44:28Z</time>
      </trkpt>
      <trkpt lat="44.47285" lon="1.78326">
        <ele>145.8</ele>
        <time>2015-10-31T11:44:29Z</time>
      </trkpt>
      <trkpt lat="44.47288" lon="1.7832">
        <ele>145.8</ele>
        <time>2015-10-31T11:44:30Z</time>
      </trkpt>
      <trkpt lat="44.47291" lon="1.78311">
        <ele>145.6</ele>
        <time>2015-10-31T11:44:31Z</time>
      </trkpt>
      <trkpt lat="44.47292" lon="1.78305">
        <ele>145.6</ele>
        <time>2015-10-31T11:44:32Z</time>
      </trkpt>
      <trkpt lat="44.47293" lon="1.78297">
        <ele>145.4</ele>
        <time>2015-10-31T11:44:33Z</time>
      </trkpt>
      <trkpt lat="44.47295" lon="1.7829">
        <ele>145.4</ele>
        <time>2015-10-31T11:44:34Z</time>
      </trkpt>
      <trkpt lat="44.47295" lon="1.78283">
        <ele>145.1</ele>
        <time>2015-10-31T11:44:35Z</time>
      </trkpt>
      <trkpt lat="44.47296" lon="1.78277">
        <ele>145</ele>
        <time>2015-10-31T11:44:36Z</time>
      </trkpt>
      <trkpt lat="44.47296" lon="1.7827">
        <ele>144.9</ele>
        <time>2015-10-31T11:44:37Z</time>
      </trkpt>
      <trkpt lat="44.47299" lon="1.78264">
        <ele>145</ele>
        <time>2015-10-31T11:44:38Z</time>
      </trkpt>
      <trkpt lat="44.47301" lon="1.78258">
        <ele>145</ele>
        <time>2015-10-31T11:44:39Z</time>
      </trkpt>
      <trkpt lat="44.47304" lon="1.78251">
        <ele>145.1</ele>
        <time>2015-10-31T11:44:40Z</time>
      </trkpt>
      <trkpt lat="44.47307" lon="1.78245">
        <ele>145.2</ele>
        <time>2015-10-31T11:44:41Z</time>
      </trkpt>
      <trkpt lat="44.4731" lon="1.78239">
        <ele>145.3</ele>
        <time>2015-10-31T11:44:42Z</time>
      </trkpt>
      <trkpt lat="44.47313" lon="1.78233">
        <ele>145.3</ele>
        <time>2015-10-31T11:44:43Z</time>
      </trkpt>
      <trkpt lat="44.47317" lon="1.78227">
        <ele>145.4</ele>
        <time>2015-10-31T11:44:44Z</time>
      </trkpt>
      <trkpt lat="44.4732" lon="1.78222">
        <ele>145.4</ele>
        <time>2015-10-31T11:44:45Z</time>
      </trkpt>
      <trkpt lat="44.47323" lon="1.78217">
        <ele>145.5</ele>
        <time>2015-10-31T11:44:46Z</time>
      </trkpt>
      <trkpt lat="44.47326" lon="1.78213">
        <ele>145.6</ele>
        <time>2015-10-31T11:44:47Z</time>
      </trkpt>
      <trkpt lat="44.4733" lon="1.78209">
        <ele>145.7</ele>
        <time>2015-10-31T11:44:48Z</time>
      </trkpt>
      <trkpt lat="44.47334" lon="1.78204">
        <ele>145.9</ele>
        <time>2015-10-31T11:44:49Z</time>
      </trkpt>
      <trkpt lat="44.47337" lon="1.78199">
        <ele>146</ele>
        <time>2015-10-31T11:44:50Z</time>
      </trkpt>
      <trkpt lat="44.47341" lon="1.78194">
        <ele>146.2</ele>
        <time>2015-10-31T11:44:51Z</time>
      </trkpt>
      <trkpt lat="44.47344" lon="1.78191">
        <ele>146.3</ele>
        <time>2015-10-31T11:44:52Z</time>
      </trkpt>
      <trkpt lat="44.47346" lon="1.78186">
        <ele>146.4</ele>
        <time>2015-10-31T11:44:53Z</time>
      </trkpt>
      <trkpt lat="44.4735" lon="1.78183">
        <ele>146.6</ele>
        <time>2015-10-31T11:44:54Z</time>
      </trkpt>
      <trkpt lat="44.47357" lon="1.78176">
        <ele>146.8</ele>
        <time>2015-10-31T11:44:56Z</time>
      </trkpt>
      <trkpt lat="44.4736" lon="1.78173">
        <ele>146.9</ele>
        <time>2015-10-31T11:44:57Z</time>
      </trkpt>
      <trkpt lat="44.47365" lon="1.78171">
        <ele>147</ele>
        <time>2015-10-31T11:44:58Z</time>
      </trkpt>
      <trkpt lat="44.47368" lon="1.78167">
        <ele>147</ele>
        <time>2015-10-31T11:45:00Z</time>
      </trkpt>
      <trkpt lat="44.47374" lon="1.78158">
        <ele>146.9</ele>
        <time>2015-10-31T11:45:01Z</time>
      </trkpt>
      <trkpt lat="44.47377" lon="1.7815">
        <ele>146.9</ele>
        <time>2015-10-31T11:45:02Z</time>
      </trkpt>
      <trkpt lat="44.4738" lon="1.78144">
        <ele>147</ele>
        <time>2015-10-31T11:45:03Z</time>
      </trkpt>
      <trkpt lat="44.47382" lon="1.78137">
        <ele>147</ele>
        <time>2015-10-31T11:45:04Z</time>
      </trkpt>
      <trkpt lat="44.47385" lon="1.78132">
        <ele>147.2</ele>
        <time>2015-10-31T11:45:05Z</time>
      </trkpt>
      <trkpt lat="44.47389" lon="1.78127">
        <ele>147.5</ele>
        <time>2015-10-31T11:45:06Z</time>
      </trkpt>
      <trkpt lat="44.47391" lon="1.78122">
        <ele>147.5</ele>
        <time>2015-10-31T11:45:07Z</time>
      </trkpt>
      <trkpt lat="44.47393" lon="1.78115">
        <ele>147.3</ele>
        <time>2015-10-31T11:45:08Z</time>
      </trkpt>
      <trkpt lat="44.47397" lon="1.78112">
        <ele>147.6</ele>
        <time>2015-10-31T11:45:09Z</time>
      </trkpt>
      <trkpt lat="44.47399" lon="1.78107">
        <ele>147.6</ele>
        <time>2015-10-31T11:45:10Z</time>
      </trkpt>
      <trkpt lat="44.47403" lon="1.78103">
        <ele>147.7</ele>
        <time>2015-10-31T11:45:11Z</time>
      </trkpt>
      <trkpt lat="44.47405" lon="1.78098">
        <ele>147.6</ele>
        <time>2015-10-31T11:45:12Z</time>
      </trkpt>
      <trkpt lat="44.47408" lon="1.78093">
        <ele>147.5</ele>
        <time>2015-10-31T11:45:13Z</time>
      </trkpt>
      <trkpt lat="44.4741" lon="1.78089">
        <ele>147.4</ele>
        <time>2015-10-31T11:45:14Z</time>
      </trkpt>
      <trkpt lat="44.47414" lon="1.78087">
        <ele>147.6</ele>
        <time>2015-10-31T11:45:15Z</time>
      </trkpt>
      <trkpt lat="44.47417" lon="1.78084">
        <ele>147.5</ele>
        <time>2015-10-31T11:45:16Z</time>
      </trkpt>
      <trkpt lat="44.47419" lon="1.7808">
        <ele>147.4</ele>
        <time>2015-10-31T11:45:17Z</time>
      </trkpt>
      <trkpt lat="44.47421" lon="1.78075">
        <ele>147.1</ele>
        <time>2015-10-31T11:45:18Z</time>
      </trkpt>
      <trkpt lat="44.47424" lon="1.78071">
        <ele>146.7</ele>
        <time>2015-10-31T11:45:19Z</time>
      </trkpt>
      <trkpt lat="44.47426" lon="1.78066">
        <ele>146.4</ele>
        <time>2015-10-31T11:45:20Z</time>
      </trkpt>
      <trkpt lat="44.47427" lon="1.78061">
        <ele>145.8</ele>
        <time>2015-10-31T11:45:21Z</time>
      </trkpt>
      <trkpt lat="44.47426" lon="1.78056">
        <ele>145.2</ele>
        <time>2015-10-31T11:45:22Z</time>
      </trkpt>
      <trkpt lat="44.47425" lon="1.7805">
        <ele>144.5</ele>
        <time>2015-10-31T11:45:23Z</time>
      </trkpt>
      <trkpt lat="44.47423" lon="1.78046">
        <ele>143.8</ele>
        <time>2015-10-31T11:45:24Z</time>
      </trkpt>
      <trkpt lat="44.47421" lon="1.78043">
        <ele>143.3</ele>
        <time>2015-10-31T11:45:25Z</time>
      </trkpt>
      <trkpt lat="44.47418" lon="1.7804">
        <ele>143</ele>
        <time>2015-10-31T11:45:26Z</time>
      </trkpt>
      <trkpt lat="44.47408" lon="1.7803">
        <ele>142.3</ele>
        <time>2015-10-31T11:47:56Z</time>
      </trkpt>
      <trkpt lat="44.47406" lon="1.78027">
        <ele>142.2</ele>
        <time>2015-10-31T11:47:57Z</time>
      </trkpt>
      <trkpt lat="44.47401" lon="1.78023">
        <ele>141.9</ele>
        <time>2015-10-31T11:47:59Z</time>
      </trkpt>
      <trkpt lat="44.47397" lon="1.78019">
        <ele>141.6</ele>
        <time>2015-10-31T11:48:01Z</time>
      </trkpt>
      <trkpt lat="44.47394" lon="1.78017">
        <ele>141.5</ele>
        <time>2015-10-31T11:48:02Z</time>
      </trkpt>
      <trkpt lat="44.47392" lon="1.78014">
        <ele>141.3</ele>
        <time>2015-10-31T11:48:03Z</time>
      </trkpt>
      <trkpt lat="44.47389" lon="1.78012">
        <ele>141.2</ele>
        <time>2015-10-31T11:48:04Z</time>
      </trkpt>
      <trkpt lat="44.47386" lon="1.78008">
        <ele>141</ele>
        <time>2015-10-31T11:48:05Z</time>
      </trkpt>
      <trkpt lat="44.47383" lon="1.78004">
        <ele>140.9</ele>
        <time>2015-10-31T11:48:06Z</time>
      </trkpt>
      <trkpt lat="44.4738" lon="1.78001">
        <ele>140.7</ele>
        <time>2015-10-31T11:48:07Z</time>
      </trkpt>
      <trkpt lat="44.47377" lon="1.77998">
        <ele>140.5</ele>
        <time>2015-10-31T11:48:08Z</time>
      </trkpt>
      <trkpt lat="44.47373" lon="1.77994">
        <ele>140.4</ele>
        <time>2015-10-31T11:48:09Z</time>
      </trkpt>
      <trkpt lat="44.4737" lon="1.77991">
        <ele>140.4</ele>
        <time>2015-10-31T11:48:10Z</time>
      </trkpt>
      <trkpt lat="44.47367" lon="1.77988">
        <ele>140.3</ele>
        <time>2015-10-31T11:48:11Z</time>
      </trkpt>
      <trkpt lat="44.47365" lon="1.77984">
        <ele>140.3</ele>
        <time>2015-10-31T11:48:12Z</time>
      </trkpt>
      <trkpt lat="44.47362" lon="1.77981">
        <ele>140.2</ele>
        <time>2015-10-31T11:48:13Z</time>
      </trkpt>
      <trkpt lat="44.4736" lon="1.77979">
        <ele>140.2</ele>
        <time>2015-10-31T11:48:14Z</time>
      </trkpt>
      <trkpt lat="44.47357" lon="1.77976">
        <ele>140.2</ele>
        <time>2015-10-31T11:48:15Z</time>
      </trkpt>
      <trkpt lat="44.47355" lon="1.77974">
        <ele>140.1</ele>
        <time>2015-10-31T11:48:16Z</time>
      </trkpt>
      <trkpt lat="44.47353" lon="1.77971">
        <ele>140.1</ele>
        <time>2015-10-31T11:48:17Z</time>
      </trkpt>
      <trkpt lat="44.4735" lon="1.77968">
        <ele>140.1</ele>
        <time>2015-10-31T11:48:18Z</time>
      </trkpt>
      <trkpt lat="44.47348" lon="1.77966">
        <ele>140.1</ele>
        <time>2015-10-31T11:48:19Z</time>
      </trkpt>
      <trkpt lat="44.47343" lon="1.77962">
        <ele>140</ele>
        <time>2015-10-31T11:48:21Z</time>
      </trkpt>
      <trkpt lat="44.47341" lon="1.7796">
        <ele>140</ele>
        <time>2015-10-31T11:48:22Z</time>
      </trkpt>
      <trkpt lat="44.47339" lon="1.77957">
        <ele>140</ele>
        <time>2015-10-31T11:48:23Z</time>
      </trkpt>
      <trkpt lat="44.47336" lon="1.77954">
        <ele>140.1</ele>
        <time>2015-10-31T11:48:24Z</time>
      </trkpt>
      <trkpt lat="44.47334" lon="1.77951">
        <ele>140.1</ele>
        <time>2015-10-31T11:48:25Z</time>
      </trkpt>
      <trkpt lat="44.47331" lon="1.77947">
        <ele>140.2</ele>
        <time>2015-10-31T11:48:26Z</time>
      </trkpt>
      <trkpt lat="44.47328" lon="1.77944">
        <ele>140.3</ele>
        <time>2015-10-31T11:48:27Z</time>
      </trkpt>
      <trkpt lat="44.47325" lon="1.77941">
        <ele>140.3</ele>
        <time>2015-10-31T11:48:28Z</time>
      </trkpt>
      <trkpt lat="44.47322" lon="1.77938">
        <ele>140.4</ele>
        <time>2015-10-31T11:48:29Z</time>
      </trkpt>
      <trkpt lat="44.47319" lon="1.77935">
        <ele>140.5</ele>
        <time>2015-10-31T11:48:30Z</time>
      </trkpt>
      <trkpt lat="44.47316" lon="1.77932">
        <ele>140.5</ele>
        <time>2015-10-31T11:48:31Z</time>
      </trkpt>
      <trkpt lat="44.47313" lon="1.7793">
        <ele>140.6</ele>
        <time>2015-10-31T11:48:32Z</time>
      </trkpt>
      <trkpt lat="44.4731" lon="1.77927">
        <ele>140.7</ele>
        <time>2015-10-31T11:48:33Z</time>
      </trkpt>
      <trkpt lat="44.47307" lon="1.77924">
        <ele>140.7</ele>
        <time>2015-10-31T11:48:34Z</time>
      </trkpt>
      <trkpt lat="44.47304" lon="1.77921">
        <ele>140.8</ele>
        <time>2015-10-31T11:48:35Z</time>
      </trkpt>
      <trkpt lat="44.47301" lon="1.77919">
        <ele>140.9</ele>
        <time>2015-10-31T11:48:36Z</time>
      </trkpt>
      <trkpt lat="44.47297" lon="1.77917">
        <ele>141</ele>
        <time>2015-10-31T11:48:37Z</time>
      </trkpt>
      <trkpt lat="44.47293" lon="1.77915">
        <ele>141</ele>
        <time>2015-10-31T11:48:38Z</time>
      </trkpt>
      <trkpt lat="44.47287" lon="1.77913">
        <ele>141.4</ele>
        <time>2015-10-31T11:48:39Z</time>
      </trkpt>
      <trkpt lat="44.47283" lon="1.77911">
        <ele>141.7</ele>
        <time>2015-10-31T11:48:40Z</time>
      </trkpt>
      <trkpt lat="44.47277" lon="1.77911">
        <ele>142</ele>
        <time>2015-10-31T11:48:41Z</time>
      </trkpt>
      <trkpt lat="44.47273" lon="1.77908">
        <ele>142.4</ele>
        <time>2015-10-31T11:48:42Z</time>
      </trkpt>
      <trkpt lat="44.4727" lon="1.77907">
        <ele>142.6</ele>
        <time>2015-10-31T11:48:43Z</time>
      </trkpt>
      <trkpt lat="44.47265" lon="1.77907">
        <ele>142.9</ele>
        <time>2015-10-31T11:48:44Z</time>
      </trkpt>
      <trkpt lat="44.47259" lon="1.77906">
        <ele>143.3</ele>
        <time>2015-10-31T11:48:45Z</time>
      </trkpt>
      <trkpt lat="44.47254" lon="1.77905">
        <ele>143.6</ele>
        <time>2015-10-31T11:48:46Z</time>
      </trkpt>
      <trkpt lat="44.47251" lon="1.77905">
        <ele>143.8</ele>
        <time>2015-10-31T11:48:47Z</time>
      </trkpt>
      <trkpt lat="44.47247" lon="1.77906">
        <ele>144.1</ele>
        <time>2015-10-31T11:48:48Z</time>
      </trkpt>
      <trkpt lat="44.47243" lon="1.77909">
        <ele>144.2</ele>
        <time>2015-10-31T11:48:49Z</time>
      </trkpt>
      <trkpt lat="44.47239" lon="1.7791">
        <ele>144.4</ele>
        <time>2015-10-31T11:48:50Z</time>
      </trkpt>
      <trkpt lat="44.47235" lon="1.77912">
        <ele>144.6</ele>
        <time>2015-10-31T11:48:51Z</time>
      </trkpt>
      <trkpt lat="44.4723" lon="1.77915">
        <ele>144.8</ele>
        <time>2015-10-31T11:48:52Z</time>
      </trkpt>
      <trkpt lat="44.47226" lon="1.77917">
        <ele>144.9</ele>
        <time>2015-10-31T11:48:53Z</time>
      </trkpt>
      <trkpt lat="44.47222" lon="1.7792">
        <ele>145</ele>
        <time>2015-10-31T11:48:54Z</time>
      </trkpt>
      <trkpt lat="44.47218" lon="1.77921">
        <ele>145.2</ele>
        <time>2015-10-31T11:48:55Z</time>
      </trkpt>
      <trkpt lat="44.47214" lon="1.77922">
        <ele>145.4</ele>
        <time>2015-10-31T11:48:56Z</time>
      </trkpt>
      <trkpt lat="44.47209" lon="1.77924">
        <ele>145.6</ele>
        <time>2015-10-31T11:48:57Z</time>
      </trkpt>
      <trkpt lat="44.47205" lon="1.77925">
        <ele>146</ele>
        <time>2015-10-31T11:48:58Z</time>
      </trkpt>
      <trkpt lat="44.47201" lon="1.77923">
        <ele>146.7</ele>
        <time>2015-10-31T11:48:59Z</time>
      </trkpt>
      <trkpt lat="44.47198" lon="1.77926">
        <ele>146.8</ele>
        <time>2015-10-31T11:49:00Z</time>
      </trkpt>
      <trkpt lat="44.47196" lon="1.77931">
        <ele>146.8</ele>
        <time>2015-10-31T11:49:01Z</time>
      </trkpt>
      <trkpt lat="44.47193" lon="1.77932">
        <ele>147.1</ele>
        <time>2015-10-31T11:49:02Z</time>
      </trkpt>
      <trkpt lat="44.47189" lon="1.77934">
        <ele>147.3</ele>
        <time>2015-10-31T11:49:03Z</time>
      </trkpt>
      <trkpt lat="44.47185" lon="1.77937">
        <ele>147.5</ele>
        <time>2015-10-31T11:49:04Z</time>
      </trkpt>
      <trkpt lat="44.47182" lon="1.77939">
        <ele>147.7</ele>
        <time>2015-10-31T11:49:05Z</time>
      </trkpt>
      <trkpt lat="44.47178" lon="1.77941">
        <ele>148</ele>
        <time>2015-10-31T11:49:06Z</time>
      </trkpt>
      <trkpt lat="44.47174" lon="1.77942">
        <ele>148.2</ele>
        <time>2015-10-31T11:49:07Z</time>
      </trkpt>
      <trkpt lat="44.4717" lon="1.77943">
        <ele>148.5</ele>
        <time>2015-10-31T11:49:08Z</time>
      </trkpt>
      <trkpt lat="44.47166" lon="1.77945">
        <ele>148.7</ele>
        <time>2015-10-31T11:49:09Z</time>
      </trkpt>
      <trkpt lat="44.47163" lon="1.77946">
        <ele>148.9</ele>
        <time>2015-10-31T11:49:10Z</time>
      </trkpt>
      <trkpt lat="44.47159" lon="1.77947">
        <ele>149</ele>
        <time>2015-10-31T11:49:11Z</time>
      </trkpt>
      <trkpt lat="44.47155" lon="1.77948">
        <ele>149.2</ele>
        <time>2015-10-31T11:49:12Z</time>
      </trkpt>
      <trkpt lat="44.47152" lon="1.77949">
        <ele>149.5</ele>
        <time>2015-10-31T11:49:13Z</time>
      </trkpt>
      <trkpt lat="44.47148" lon="1.7795">
        <ele>149.6</ele>
        <time>2015-10-31T11:49:14Z</time>
      </trkpt>
      <trkpt lat="44.47144" lon="1.77951">
        <ele>149.8</ele>
        <time>2015-10-31T11:49:15Z</time>
      </trkpt>
      <trkpt lat="44.4714" lon="1.77953">
        <ele>149.9</ele>
        <time>2015-10-31T11:49:16Z</time>
      </trkpt>
      <trkpt lat="44.47137" lon="1.77954">
        <ele>149.9</ele>
        <time>2015-10-31T11:49:17Z</time>
      </trkpt>
      <trkpt lat="44.47133" lon="1.77955">
        <ele>150</ele>
        <time>2015-10-31T11:49:18Z</time>
      </trkpt>
      <trkpt lat="44.47128" lon="1.77956">
        <ele>150.2</ele>
        <time>2015-10-31T11:49:19Z</time>
      </trkpt>
      <trkpt lat="44.47124" lon="1.77956">
        <ele>150.6</ele>
        <time>2015-10-31T11:49:20Z</time>
      </trkpt>
      <trkpt lat="44.4712" lon="1.77956">
        <ele>151.3</ele>
        <time>2015-10-31T11:49:21Z</time>
      </trkpt>
      <trkpt lat="44.47116" lon="1.77956">
        <ele>152</ele>
        <time>2015-10-31T11:49:22Z</time>
      </trkpt>
      <trkpt lat="44.47112" lon="1.77956">
        <ele>152.8</ele>
        <time>2015-10-31T11:49:23Z</time>
      </trkpt>
      <trkpt lat="44.47108" lon="1.77956">
        <ele>153.6</ele>
        <time>2015-10-31T11:49:24Z</time>
      </trkpt>
      <trkpt lat="44.47104" lon="1.77956">
        <ele>154.3</ele>
        <time>2015-10-31T11:49:25Z</time>
      </trkpt>
      <trkpt lat="44.471" lon="1.77954">
        <ele>155.2</ele>
        <time>2015-10-31T11:49:26Z</time>
      </trkpt>
      <trkpt lat="44.47096" lon="1.77952">
        <ele>156.2</ele>
        <time>2015-10-31T11:49:27Z</time>
      </trkpt>
      <trkpt lat="44.47094" lon="1.77949">
        <ele>157.1</ele>
        <time>2015-10-31T11:49:28Z</time>
      </trkpt>
      <trkpt lat="44.47092" lon="1.77945">
        <ele>158.1</ele>
        <time>2015-10-31T11:49:29Z</time>
      </trkpt>
      <trkpt lat="44.47091" lon="1.7794">
        <ele>158.9</ele>
        <time>2015-10-31T11:49:30Z</time>
      </trkpt>
      <trkpt lat="44.47091" lon="1.77936">
        <ele>159.7</ele>
        <time>2015-10-31T11:49:31Z</time>
      </trkpt>
      <trkpt lat="44.4709" lon="1.77932">
        <ele>160.5</ele>
        <time>2015-10-31T11:49:32Z</time>
      </trkpt>
      <trkpt lat="44.47089" lon="1.77927">
        <ele>161.3</ele>
        <time>2015-10-31T11:49:33Z</time>
      </trkpt>
      <trkpt lat="44.47089" lon="1.77922">
        <ele>162.1</ele>
        <time>2015-10-31T11:49:34Z</time>
      </trkpt>
      <trkpt lat="44.4709" lon="1.77918">
        <ele>162.7</ele>
        <time>2015-10-31T11:49:35Z</time>
      </trkpt>
      <trkpt lat="44.47091" lon="1.77913">
        <ele>163.3</ele>
        <time>2015-10-31T11:49:36Z</time>
      </trkpt>
      <trkpt lat="44.47093" lon="1.77909">
        <ele>163.7</ele>
        <time>2015-10-31T11:49:37Z</time>
      </trkpt>
      <trkpt lat="44.47095" lon="1.77904">
        <ele>164.1</ele>
        <time>2015-10-31T11:49:38Z</time>
      </trkpt>
      <trkpt lat="44.47098" lon="1.77899">
        <ele>164.7</ele>
        <time>2015-10-31T11:49:39Z</time>
      </trkpt>
      <trkpt lat="44.471" lon="1.77894">
        <ele>165.2</ele>
        <time>2015-10-31T11:49:40Z</time>
      </trkpt>
      <trkpt lat="44.47103" lon="1.7789">
        <ele>165.6</ele>
        <time>2015-10-31T11:49:41Z</time>
      </trkpt>
      <trkpt lat="44.47105" lon="1.77886">
        <ele>166</ele>
        <time>2015-10-31T11:49:42Z</time>
      </trkpt>
      <trkpt lat="44.47107" lon="1.77883">
        <ele>166.4</ele>
        <time>2015-10-31T11:49:43Z</time>
      </trkpt>
      <trkpt lat="44.47108" lon="1.77879">
        <ele>166.8</ele>
        <time>2015-10-31T11:49:44Z</time>
      </trkpt>
      <trkpt lat="44.47112" lon="1.77874">
        <ele>167.3</ele>
        <time>2015-10-31T11:49:46Z</time>
      </trkpt>
      <trkpt lat="44.47114" lon="1.77871">
        <ele>167.3</ele>
        <time>2015-10-31T11:49:47Z</time>
      </trkpt>
      <trkpt lat="44.47116" lon="1.77868">
        <ele>167.3</ele>
        <time>2015-10-31T11:49:48Z</time>
      </trkpt>
      <trkpt lat="44.47118" lon="1.77865">
        <ele>167.2</ele>
        <time>2015-10-31T11:49:49Z</time>
      </trkpt>
      <trkpt lat="44.47122" lon="1.7786">
        <ele>167.1</ele>
        <time>2015-10-31T11:49:51Z</time>
      </trkpt>
      <trkpt lat="44.47124" lon="1.77857">
        <ele>167.1</ele>
        <time>2015-10-31T11:49:52Z</time>
      </trkpt>
      <trkpt lat="44.47126" lon="1.77854">
        <ele>167</ele>
        <time>2015-10-31T11:49:53Z</time>
      </trkpt>
      <trkpt lat="44.47128" lon="1.7785">
        <ele>166.8</ele>
        <time>2015-10-31T11:49:54Z</time>
      </trkpt>
      <trkpt lat="44.47131" lon="1.77847">
        <ele>166.5</ele>
        <time>2015-10-31T11:49:55Z</time>
      </trkpt>
      <trkpt lat="44.47133" lon="1.77844">
        <ele>166.1</ele>
        <time>2015-10-31T11:49:56Z</time>
      </trkpt>
      <trkpt lat="44.47135" lon="1.77841">
        <ele>165.8</ele>
        <time>2015-10-31T11:49:57Z</time>
      </trkpt>
      <trkpt lat="44.47138" lon="1.77837">
        <ele>165.5</ele>
        <time>2015-10-31T11:49:58Z</time>
      </trkpt>
      <trkpt lat="44.47139" lon="1.77834">
        <ele>165.3</ele>
        <time>2015-10-31T11:49:59Z</time>
      </trkpt>
      <trkpt lat="44.47141" lon="1.7783">
        <ele>165.1</ele>
        <time>2015-10-31T11:50:00Z</time>
      </trkpt>
      <trkpt lat="44.47143" lon="1.77827">
        <ele>164.9</ele>
        <time>2015-10-31T11:50:01Z</time>
      </trkpt>
      <trkpt lat="44.47145" lon="1.77824">
        <ele>164.6</ele>
        <time>2015-10-31T11:50:02Z</time>
      </trkpt>
      <trkpt lat="44.47147" lon="1.77819">
        <ele>164.4</ele>
        <time>2015-10-31T11:50:03Z</time>
      </trkpt>
      <trkpt lat="44.47149" lon="1.77815">
        <ele>164.2</ele>
        <time>2015-10-31T11:50:04Z</time>
      </trkpt>
      <trkpt lat="44.47151" lon="1.77811">
        <ele>164</ele>
        <time>2015-10-31T11:50:05Z</time>
      </trkpt>
      <trkpt lat="44.47153" lon="1.77806">
        <ele>163.8</ele>
        <time>2015-10-31T11:50:06Z</time>
      </trkpt>
      <trkpt lat="44.47154" lon="1.77802">
        <ele>163.7</ele>
        <time>2015-10-31T11:50:07Z</time>
      </trkpt>
      <trkpt lat="44.47156" lon="1.77797">
        <ele>163.7</ele>
        <time>2015-10-31T11:50:08Z</time>
      </trkpt>
      <trkpt lat="44.47157" lon="1.77792">
        <ele>163.7</ele>
        <time>2015-10-31T11:50:09Z</time>
      </trkpt>
      <trkpt lat="44.47158" lon="1.77787">
        <ele>163.1</ele>
        <time>2015-10-31T11:50:10Z</time>
      </trkpt>
      <trkpt lat="44.47158" lon="1.77782">
        <ele>162.4</ele>
        <time>2015-10-31T11:50:11Z</time>
      </trkpt>
      <trkpt lat="44.47159" lon="1.77777">
        <ele>161.8</ele>
        <time>2015-10-31T11:50:12Z</time>
      </trkpt>
      <trkpt lat="44.47159" lon="1.77772">
        <ele>161.3</ele>
        <time>2015-10-31T11:50:13Z</time>
      </trkpt>
      <trkpt lat="44.47159" lon="1.77768">
        <ele>160.9</ele>
        <time>2015-10-31T11:50:14Z</time>
      </trkpt>
      <trkpt lat="44.47158" lon="1.7776">
        <ele>160.2</ele>
        <time>2015-10-31T11:50:16Z</time>
      </trkpt>
      <trkpt lat="44.47158" lon="1.77756">
        <ele>159.8</ele>
        <time>2015-10-31T11:50:17Z</time>
      </trkpt>
      <trkpt lat="44.47158" lon="1.7775">
        <ele>159.3</ele>
        <time>2015-10-31T11:50:19Z</time>
      </trkpt>
      <trkpt lat="44.47156" lon="1.77744">
        <ele>158.9</ele>
        <time>2015-10-31T11:50:21Z</time>
      </trkpt>
      <trkpt lat="44.47154" lon="1.77737">
        <ele>158.8</ele>
        <time>2015-10-31T11:50:23Z</time>
      </trkpt>
      <trkpt lat="44.47152" lon="1.77731">
        <ele>158.6</ele>
        <time>2015-10-31T11:50:25Z</time>
      </trkpt>
      <trkpt lat="44.4715" lon="1.77728">
        <ele>158.5</ele>
        <time>2015-10-31T11:50:26Z</time>
      </trkpt>
      <trkpt lat="44.47149" lon="1.77724">
        <ele>158.4</ele>
        <time>2015-10-31T11:50:27Z</time>
      </trkpt>
      <trkpt lat="44.47147" lon="1.7772">
        <ele>158.4</ele>
        <time>2015-10-31T11:50:28Z</time>
      </trkpt>
      <trkpt lat="44.47145" lon="1.77717">
        <ele>158.4</ele>
        <time>2015-10-31T11:50:29Z</time>
      </trkpt>
      <trkpt lat="44.47143" lon="1.77713">
        <ele>158.4</ele>
        <time>2015-10-31T11:50:30Z</time>
      </trkpt>
      <trkpt lat="44.47141" lon="1.7771">
        <ele>158.4</ele>
        <time>2015-10-31T11:50:31Z</time>
      </trkpt>
      <trkpt lat="44.47138" lon="1.77706">
        <ele>158.3</ele>
        <time>2015-10-31T11:50:32Z</time>
      </trkpt>
      <trkpt lat="44.47136" lon="1.77703">
        <ele>158.1</ele>
        <time>2015-10-31T11:50:33Z</time>
      </trkpt>
      <trkpt lat="44.47133" lon="1.777">
        <ele>158</ele>
        <time>2015-10-31T11:50:34Z</time>
      </trkpt>
      <trkpt lat="44.47131" lon="1.77696">
        <ele>157.7</ele>
        <time>2015-10-31T11:50:35Z</time>
      </trkpt>
      <trkpt lat="44.47128" lon="1.77693">
        <ele>157.5</ele>
        <time>2015-10-31T11:50:36Z</time>
      </trkpt>
      <trkpt lat="44.47126" lon="1.77689">
        <ele>157.2</ele>
        <time>2015-10-31T11:50:37Z</time>
      </trkpt>
      <trkpt lat="44.47123" lon="1.77685">
        <ele>156.6</ele>
        <time>2015-10-31T11:50:38Z</time>
      </trkpt>
      <trkpt lat="44.4712" lon="1.77681">
        <ele>156</ele>
        <time>2015-10-31T11:50:39Z</time>
      </trkpt>
      <trkpt lat="44.47117" lon="1.77676">
        <ele>155.3</ele>
        <time>2015-10-31T11:50:40Z</time>
      </trkpt>
      <trkpt lat="44.47113" lon="1.77672">
        <ele>154.8</ele>
        <time>2015-10-31T11:50:41Z</time>
      </trkpt>
      <trkpt lat="44.4711" lon="1.77668">
        <ele>154</ele>
        <time>2015-10-31T11:50:42Z</time>
      </trkpt>
      <trkpt lat="44.47101" lon="1.77655">
        <ele>152</ele>
        <time>2015-10-31T11:50:43Z</time>
      </trkpt>
      <trkpt lat="44.47096" lon="1.77648">
        <ele>150.8</ele>
        <time>2015-10-31T11:50:44Z</time>
      </trkpt>
      <trkpt lat="44.47091" lon="1.77644">
        <ele>150.1</ele>
        <time>2015-10-31T11:50:45Z</time>
      </trkpt>
      <trkpt lat="44.47088" lon="1.7764">
        <ele>149.4</ele>
        <time>2015-10-31T11:50:46Z</time>
      </trkpt>
      <trkpt lat="44.47082" lon="1.77635">
        <ele>148.6</ele>
        <time>2015-10-31T11:50:47Z</time>
      </trkpt>
      <trkpt lat="44.47075" lon="1.7763">
        <ele>147.9</ele>
        <time>2015-10-31T11:50:48Z</time>
      </trkpt>
      <trkpt lat="44.47071" lon="1.77627">
        <ele>147.3</ele>
        <time>2015-10-31T11:50:49Z</time>
      </trkpt>
      <trkpt lat="44.47066" lon="1.77622">
        <ele>146.8</ele>
        <time>2015-10-31T11:50:50Z</time>
      </trkpt>
      <trkpt lat="44.47058" lon="1.77615">
        <ele>146.5</ele>
        <time>2015-10-31T11:50:51Z</time>
      </trkpt>
      <trkpt lat="44.47053" lon="1.77611">
        <ele>146.3</ele>
        <time>2015-10-31T11:50:52Z</time>
      </trkpt>
      <trkpt lat="44.47047" lon="1.77605">
        <ele>145.9</ele>
        <time>2015-10-31T11:50:53Z</time>
      </trkpt>
      <trkpt lat="44.47042" lon="1.77603">
        <ele>145.9</ele>
        <time>2015-10-31T11:50:54Z</time>
      </trkpt>
      <trkpt lat="44.47037" lon="1.77601">
        <ele>145.8</ele>
        <time>2015-10-31T11:50:55Z</time>
      </trkpt>
      <trkpt lat="44.4703" lon="1.77596">
        <ele>145.3</ele>
        <time>2015-10-31T11:50:56Z</time>
      </trkpt>
      <trkpt lat="44.47024" lon="1.77592">
        <ele>144.9</ele>
        <time>2015-10-31T11:50:57Z</time>
      </trkpt>
      <trkpt lat="44.47017" lon="1.77588">
        <ele>144.6</ele>
        <time>2015-10-31T11:50:58Z</time>
      </trkpt>
      <trkpt lat="44.47008" lon="1.77579">
        <ele>143.8</ele>
        <time>2015-10-31T11:50:59Z</time>
      </trkpt>
      <trkpt lat="44.46998" lon="1.7757">
        <ele>143.1</ele>
        <time>2015-10-31T11:51:00Z</time>
      </trkpt>
      <trkpt lat="44.46993" lon="1.77569">
        <ele>143</ele>
        <time>2015-10-31T11:51:01Z</time>
      </trkpt>
      <trkpt lat="44.46987" lon="1.77566">
        <ele>142.8</ele>
        <time>2015-10-31T11:51:02Z</time>
      </trkpt>
      <trkpt lat="44.4698" lon="1.77565">
        <ele>142.8</ele>
        <time>2015-10-31T11:51:03Z</time>
      </trkpt>
      <trkpt lat="44.46974" lon="1.77564">
        <ele>142.7</ele>
        <time>2015-10-31T11:51:04Z</time>
      </trkpt>
      <trkpt lat="44.46967" lon="1.77563">
        <ele>142.7</ele>
        <time>2015-10-31T11:51:05Z</time>
      </trkpt>
      <trkpt lat="44.4696" lon="1.77562">
        <ele>142.7</ele>
        <time>2015-10-31T11:51:06Z</time>
      </trkpt>
      <trkpt lat="44.46953" lon="1.77559">
        <ele>142.4</ele>
        <time>2015-10-31T11:51:07Z</time>
      </trkpt>
      <trkpt lat="44.46946" lon="1.77557">
        <ele>142.1</ele>
        <time>2015-10-31T11:51:08Z</time>
      </trkpt>
      <trkpt lat="44.46939" lon="1.77556">
        <ele>141.8</ele>
        <time>2015-10-31T11:51:09Z</time>
      </trkpt>
      <trkpt lat="44.46932" lon="1.77556">
        <ele>141.7</ele>
        <time>2015-10-31T11:51:10Z</time>
      </trkpt>
      <trkpt lat="44.46926" lon="1.77557">
        <ele>141.7</ele>
        <time>2015-10-31T11:51:11Z</time>
      </trkpt>
      <trkpt lat="44.46918" lon="1.77558">
        <ele>141.7</ele>
        <time>2015-10-31T11:51:12Z</time>
      </trkpt>
      <trkpt lat="44.46911" lon="1.77559">
        <ele>141.6</ele>
        <time>2015-10-31T11:51:13Z</time>
      </trkpt>
      <trkpt lat="44.46906" lon="1.77559">
        <ele>141.6</ele>
        <time>2015-10-31T11:51:14Z</time>
      </trkpt>
      <trkpt lat="44.469" lon="1.77561">
        <ele>141.6</ele>
        <time>2015-10-31T11:51:15Z</time>
      </trkpt>
      <trkpt lat="44.46894" lon="1.77561">
        <ele>141.5</ele>
        <time>2015-10-31T11:51:16Z</time>
      </trkpt>
      <trkpt lat="44.46888" lon="1.77562">
        <ele>141.4</ele>
        <time>2015-10-31T11:51:17Z</time>
      </trkpt>
      <trkpt lat="44.46884" lon="1.77564">
        <ele>141.5</ele>
        <time>2015-10-31T11:51:18Z</time>
      </trkpt>
      <trkpt lat="44.46878" lon="1.77564">
        <ele>141.4</ele>
        <time>2015-10-31T11:51:19Z</time>
      </trkpt>
      <trkpt lat="44.46874" lon="1.77566">
        <ele>141.5</ele>
        <time>2015-10-31T11:51:20Z</time>
      </trkpt>
      <trkpt lat="44.46868" lon="1.77567">
        <ele>141.6</ele>
        <time>2015-10-31T11:51:21Z</time>
      </trkpt>
      <trkpt lat="44.46861" lon="1.77568">
        <ele>141.7</ele>
        <time>2015-10-31T11:51:22Z</time>
      </trkpt>
      <trkpt lat="44.46855" lon="1.7757">
        <ele>141.7</ele>
        <time>2015-10-31T11:51:23Z</time>
      </trkpt>
      <trkpt lat="44.46849" lon="1.77571">
        <ele>141.8</ele>
        <time>2015-10-31T11:51:24Z</time>
      </trkpt>
      <trkpt lat="44.46843" lon="1.77572">
        <ele>141.9</ele>
        <time>2015-10-31T11:51:25Z</time>
      </trkpt>
      <trkpt lat="44.46838" lon="1.77574">
        <ele>142</ele>
        <time>2015-10-31T11:51:26Z</time>
      </trkpt>
      <trkpt lat="44.46832" lon="1.77574">
        <ele>142</ele>
        <time>2015-10-31T11:51:27Z</time>
      </trkpt>
      <trkpt lat="44.46827" lon="1.77574">
        <ele>142</ele>
        <time>2015-10-31T11:51:28Z</time>
      </trkpt>
      <trkpt lat="44.4682" lon="1.77574">
        <ele>142</ele>
        <time>2015-10-31T11:51:29Z</time>
      </trkpt>
      <trkpt lat="44.46814" lon="1.77575">
        <ele>142</ele>
        <time>2015-10-31T11:51:30Z</time>
      </trkpt>
      <trkpt lat="44.46808" lon="1.77576">
        <ele>142</ele>
        <time>2015-10-31T11:51:31Z</time>
      </trkpt>
      <trkpt lat="44.46801" lon="1.77575">
        <ele>142</ele>
        <time>2015-10-31T11:51:32Z</time>
      </trkpt>
      <trkpt lat="44.46793" lon="1.77573">
        <ele>142</ele>
        <time>2015-10-31T11:51:34Z</time>
      </trkpt>
      <trkpt lat="44.46787" lon="1.77573">
        <ele>142</ele>
        <time>2015-10-31T11:51:35Z</time>
      </trkpt>
      <trkpt lat="44.46781" lon="1.77573">
        <ele>141.9</ele>
        <time>2015-10-31T11:51:36Z</time>
      </trkpt>
      <trkpt lat="44.46776" lon="1.77572">
        <ele>141.9</ele>
        <time>2015-10-31T11:51:37Z</time>
      </trkpt>
      <trkpt lat="44.4677" lon="1.7757">
        <ele>141.8</ele>
        <time>2015-10-31T11:51:38Z</time>
      </trkpt>
      <trkpt lat="44.46764" lon="1.77569">
        <ele>141.8</ele>
        <time>2015-10-31T11:51:39Z</time>
      </trkpt>
      <trkpt lat="44.46758" lon="1.77568">
        <ele>141.7</ele>
        <time>2015-10-31T11:51:40Z</time>
      </trkpt>
      <trkpt lat="44.46753" lon="1.77566">
        <ele>141.7</ele>
        <time>2015-10-31T11:51:41Z</time>
      </trkpt>
      <trkpt lat="44.46748" lon="1.77566">
        <ele>141.6</ele>
        <time>2015-10-31T11:51:42Z</time>
      </trkpt>
      <trkpt lat="44.46743" lon="1.77565">
        <ele>141.6</ele>
        <time>2015-10-31T11:51:43Z</time>
      </trkpt>
      <trkpt lat="44.46737" lon="1.77563">
        <ele>141.5</ele>
        <time>2015-10-31T11:51:44Z</time>
      </trkpt>
      <trkpt lat="44.46733" lon="1.77562">
        <ele>141.5</ele>
        <time>2015-10-31T11:51:45Z</time>
      </trkpt>
      <trkpt lat="44.46728" lon="1.7756">
        <ele>141.4</ele>
        <time>2015-10-31T11:51:46Z</time>
      </trkpt>
      <trkpt lat="44.46722" lon="1.77559">
        <ele>141.3</ele>
        <time>2015-10-31T11:51:47Z</time>
      </trkpt>
      <trkpt lat="44.46716" lon="1.77557">
        <ele>141.3</ele>
        <time>2015-10-31T11:51:48Z</time>
      </trkpt>
      <trkpt lat="44.46712" lon="1.77556">
        <ele>141.2</ele>
        <time>2015-10-31T11:51:49Z</time>
      </trkpt>
      <trkpt lat="44.46707" lon="1.77554">
        <ele>141.2</ele>
        <time>2015-10-31T11:51:50Z</time>
      </trkpt>
      <trkpt lat="44.46701" lon="1.77553">
        <ele>141.1</ele>
        <time>2015-10-31T11:51:51Z</time>
      </trkpt>
      <trkpt lat="44.46696" lon="1.77552">
        <ele>141.1</ele>
        <time>2015-10-31T11:51:52Z</time>
      </trkpt>
      <trkpt lat="44.4669" lon="1.7755">
        <ele>141.1</ele>
        <time>2015-10-31T11:51:53Z</time>
      </trkpt>
      <trkpt lat="44.46685" lon="1.77548">
        <ele>141.1</ele>
        <time>2015-10-31T11:51:54Z</time>
      </trkpt>
      <trkpt lat="44.4668" lon="1.77549">
        <ele>141.1</ele>
        <time>2015-10-31T11:51:55Z</time>
      </trkpt>
      <trkpt lat="44.46675" lon="1.77547">
        <ele>141.1</ele>
        <time>2015-10-31T11:51:56Z</time>
      </trkpt>
      <trkpt lat="44.46669" lon="1.77545">
        <ele>141</ele>
        <time>2015-10-31T11:51:57Z</time>
      </trkpt>
      <trkpt lat="44.46664" lon="1.77546">
        <ele>141.1</ele>
        <time>2015-10-31T11:51:58Z</time>
      </trkpt>
      <trkpt lat="44.46659" lon="1.77547">
        <ele>141.1</ele>
        <time>2015-10-31T11:51:59Z</time>
      </trkpt>
      <trkpt lat="44.46653" lon="1.77546">
        <ele>141</ele>
        <time>2015-10-31T11:52:00Z</time>
      </trkpt>
      <trkpt lat="44.46647" lon="1.77545">
        <ele>141</ele>
        <time>2015-10-31T11:52:01Z</time>
      </trkpt>
      <trkpt lat="44.46642" lon="1.77546">
        <ele>141</ele>
        <time>2015-10-31T11:52:02Z</time>
      </trkpt>
      <trkpt lat="44.46637" lon="1.77546">
        <ele>141</ele>
        <time>2015-10-31T11:52:03Z</time>
      </trkpt>
      <trkpt lat="44.46632" lon="1.77545">
        <ele>141</ele>
        <time>2015-10-31T11:52:04Z</time>
      </trkpt>
      <trkpt lat="44.46628" lon="1.77545">
        <ele>141</ele>
        <time>2015-10-31T11:52:05Z</time>
      </trkpt>
      <trkpt lat="44.46621" lon="1.77543">
        <ele>141</ele>
        <time>2015-10-31T11:52:06Z</time>
      </trkpt>
      <trkpt lat="44.46615" lon="1.7754">
        <ele>141</ele>
        <time>2015-10-31T11:52:07Z</time>
      </trkpt>
      <trkpt lat="44.46609" lon="1.77543">
        <ele>141</ele>
        <time>2015-10-31T11:52:08Z</time>
      </trkpt>
      <trkpt lat="44.46602" lon="1.77545">
        <ele>141</ele>
        <time>2015-10-31T11:52:09Z</time>
      </trkpt>
      <trkpt lat="44.46597" lon="1.77546">
        <ele>141.1</ele>
        <time>2015-10-31T11:52:10Z</time>
      </trkpt>
      <trkpt lat="44.46593" lon="1.77549">
        <ele>141.1</ele>
        <time>2015-10-31T11:52:11Z</time>
      </trkpt>
      <trkpt lat="44.4659" lon="1.77551">
        <ele>141.1</ele>
        <time>2015-10-31T11:52:12Z</time>
      </trkpt>
      <trkpt lat="44.46585" lon="1.77553">
        <ele>141.1</ele>
        <time>2015-10-31T11:52:13Z</time>
      </trkpt>
      <trkpt lat="44.46581" lon="1.77556">
        <ele>141.2</ele>
        <time>2015-10-31T11:52:14Z</time>
      </trkpt>
      <trkpt lat="44.46576" lon="1.77556">
        <ele>141.2</ele>
        <time>2015-10-31T11:52:15Z</time>
      </trkpt>
      <trkpt lat="44.4657" lon="1.77562">
        <ele>141.2</ele>
        <time>2015-10-31T11:52:16Z</time>
      </trkpt>
      <trkpt lat="44.46565" lon="1.77564">
        <ele>141.3</ele>
        <time>2015-10-31T11:52:17Z</time>
      </trkpt>
      <trkpt lat="44.4656" lon="1.77566">
        <ele>141.3</ele>
        <time>2015-10-31T11:52:18Z</time>
      </trkpt>
      <trkpt lat="44.46556" lon="1.77568">
        <ele>141.3</ele>
        <time>2015-10-31T11:52:19Z</time>
      </trkpt>
      <trkpt lat="44.46551" lon="1.77572">
        <ele>141.4</ele>
        <time>2015-10-31T11:52:20Z</time>
      </trkpt>
      <trkpt lat="44.46546" lon="1.77575">
        <ele>141.4</ele>
        <time>2015-10-31T11:52:21Z</time>
      </trkpt>
      <trkpt lat="44.4654" lon="1.77575">
        <ele>141.4</ele>
        <time>2015-10-31T11:52:22Z</time>
      </trkpt>
      <trkpt lat="44.46533" lon="1.77575">
        <ele>141.5</ele>
        <time>2015-10-31T11:52:23Z</time>
      </trkpt>
      <trkpt lat="44.46527" lon="1.77576">
        <ele>141.6</ele>
        <time>2015-10-31T11:52:24Z</time>
      </trkpt>
      <trkpt lat="44.46523" lon="1.77577">
        <ele>141.7</ele>
        <time>2015-10-31T11:52:25Z</time>
      </trkpt>
      <trkpt lat="44.46519" lon="1.7758">
        <ele>141.7</ele>
        <time>2015-10-31T11:52:26Z</time>
      </trkpt>
      <trkpt lat="44.46513" lon="1.77584">
        <ele>141.8</ele>
        <time>2015-10-31T11:52:27Z</time>
      </trkpt>
      <trkpt lat="44.46509" lon="1.77585">
        <ele>141.9</ele>
        <time>2015-10-31T11:52:28Z</time>
      </trkpt>
      <trkpt lat="44.46503" lon="1.77588">
        <ele>142</ele>
        <time>2015-10-31T11:52:29Z</time>
      </trkpt>
      <trkpt lat="44.46496" lon="1.77589">
        <ele>142.1</ele>
        <time>2015-10-31T11:52:30Z</time>
      </trkpt>
      <trkpt lat="44.4649" lon="1.77591">
        <ele>142.2</ele>
        <time>2015-10-31T11:52:31Z</time>
      </trkpt>
      <trkpt lat="44.46485" lon="1.77591">
        <ele>142.3</ele>
        <time>2015-10-31T11:52:32Z</time>
      </trkpt>
      <trkpt lat="44.46477" lon="1.7759">
        <ele>142.4</ele>
        <time>2015-10-31T11:52:33Z</time>
      </trkpt>
      <trkpt lat="44.46475" lon="1.77595">
        <ele>142.4</ele>
        <time>2015-10-31T11:52:34Z</time>
      </trkpt>
      <trkpt lat="44.46468" lon="1.77596">
        <ele>142.5</ele>
        <time>2015-10-31T11:52:35Z</time>
      </trkpt>
      <trkpt lat="44.46461" lon="1.77596">
        <ele>142.6</ele>
        <time>2015-10-31T11:52:36Z</time>
      </trkpt>
      <trkpt lat="44.46457" lon="1.77598">
        <ele>142.7</ele>
        <time>2015-10-31T11:52:37Z</time>
      </trkpt>
      <trkpt lat="44.46452" lon="1.77599">
        <ele>142.7</ele>
        <time>2015-10-31T11:52:38Z</time>
      </trkpt>
      <trkpt lat="44.46447" lon="1.77598">
        <ele>142.7</ele>
        <time>2015-10-31T11:52:39Z</time>
      </trkpt>
      <trkpt lat="44.4644" lon="1.77596">
        <ele>142.7</ele>
        <time>2015-10-31T11:52:40Z</time>
      </trkpt>
      <trkpt lat="44.46435" lon="1.77596">
        <ele>142.7</ele>
        <time>2015-10-31T11:52:41Z</time>
      </trkpt>
      <trkpt lat="44.46429" lon="1.77596">
        <ele>142.7</ele>
        <time>2015-10-31T11:52:42Z</time>
      </trkpt>
      <trkpt lat="44.46425" lon="1.77596">
        <ele>142.7</ele>
        <time>2015-10-31T11:52:43Z</time>
      </trkpt>
      <trkpt lat="44.46419" lon="1.77594">
        <ele>142.6</ele>
        <time>2015-10-31T11:52:44Z</time>
      </trkpt>
      <trkpt lat="44.46413" lon="1.77591">
        <ele>142.6</ele>
        <time>2015-10-31T11:52:45Z</time>
      </trkpt>
      <trkpt lat="44.46409" lon="1.7759">
        <ele>142.6</ele>
        <time>2015-10-31T11:52:46Z</time>
      </trkpt>
      <trkpt lat="44.46404" lon="1.77587">
        <ele>142.5</ele>
        <time>2015-10-31T11:52:47Z</time>
      </trkpt>
      <trkpt lat="44.46399" lon="1.77584">
        <ele>142.5</ele>
        <time>2015-10-31T11:52:48Z</time>
      </trkpt>
      <trkpt lat="44.46395" lon="1.77584">
        <ele>142.5</ele>
        <time>2015-10-31T11:52:49Z</time>
      </trkpt>
      <trkpt lat="44.4639" lon="1.77581">
        <ele>142.5</ele>
        <time>2015-10-31T11:52:50Z</time>
      </trkpt>
      <trkpt lat="44.46385" lon="1.77579">
        <ele>142.5</ele>
        <time>2015-10-31T11:52:51Z</time>
      </trkpt>
      <trkpt lat="44.4638" lon="1.77578">
        <ele>142.4</ele>
        <time>2015-10-31T11:52:52Z</time>
      </trkpt>
      <trkpt lat="44.46376" lon="1.77576">
        <ele>142.4</ele>
        <time>2015-10-31T11:52:53Z</time>
      </trkpt>
      <trkpt lat="44.46372" lon="1.77574">
        <ele>142.4</ele>
        <time>2015-10-31T11:52:54Z</time>
      </trkpt>
      <trkpt lat="44.46367" lon="1.77571">
        <ele>142.3</ele>
        <time>2015-10-31T11:52:55Z</time>
      </trkpt>
      <trkpt lat="44.46362" lon="1.77567">
        <ele>142.2</ele>
        <time>2015-10-31T11:52:56Z</time>
      </trkpt>
      <trkpt lat="44.46356" lon="1.77563">
        <ele>142.2</ele>
        <time>2015-10-31T11:52:57Z</time>
      </trkpt>
      <trkpt lat="44.46352" lon="1.77561">
        <ele>142.1</ele>
        <time>2015-10-31T11:52:58Z</time>
      </trkpt>
      <trkpt lat="44.46347" lon="1.77558">
        <ele>142</ele>
        <time>2015-10-31T11:52:59Z</time>
      </trkpt>
      <trkpt lat="44.46342" lon="1.77557">
        <ele>141.9</ele>
        <time>2015-10-31T11:53:00Z</time>
      </trkpt>
      <trkpt lat="44.46339" lon="1.77557">
        <ele>141.9</ele>
        <time>2015-10-31T11:53:01Z</time>
      </trkpt>
      <trkpt lat="44.46334" lon="1.77556">
        <ele>141.9</ele>
        <time>2015-10-31T11:53:02Z</time>
      </trkpt>
      <trkpt lat="44.46328" lon="1.77555">
        <ele>141.8</ele>
        <time>2015-10-31T11:53:03Z</time>
      </trkpt>
      <trkpt lat="44.46322" lon="1.77552">
        <ele>141.7</ele>
        <time>2015-10-31T11:53:04Z</time>
      </trkpt>
      <trkpt lat="44.46317" lon="1.77548">
        <ele>141.5</ele>
        <time>2015-10-31T11:53:05Z</time>
      </trkpt>
      <trkpt lat="44.46313" lon="1.77546">
        <ele>141.4</ele>
        <time>2015-10-31T11:53:06Z</time>
      </trkpt>
      <trkpt lat="44.46308" lon="1.77545">
        <ele>141.3</ele>
        <time>2015-10-31T11:53:07Z</time>
      </trkpt>
      <trkpt lat="44.46302" lon="1.77545">
        <ele>141.2</ele>
        <time>2015-10-31T11:53:08Z</time>
      </trkpt>
      <trkpt lat="44.46297" lon="1.77542">
        <ele>141.1</ele>
        <time>2015-10-31T11:53:09Z</time>
      </trkpt>
      <trkpt lat="44.46291" lon="1.7754">
        <ele>141</ele>
        <time>2015-10-31T11:53:10Z</time>
      </trkpt>
      <trkpt lat="44.46285" lon="1.77539">
        <ele>141.2</ele>
        <time>2015-10-31T11:53:11Z</time>
      </trkpt>
      <trkpt lat="44.4628" lon="1.77537">
        <ele>141.3</ele>
        <time>2015-10-31T11:53:12Z</time>
      </trkpt>
      <trkpt lat="44.46276" lon="1.77535">
        <ele>141.4</ele>
        <time>2015-10-31T11:53:13Z</time>
      </trkpt>
      <trkpt lat="44.46271" lon="1.77532">
        <ele>141.5</ele>
        <time>2015-10-31T11:53:14Z</time>
      </trkpt>
      <trkpt lat="44.46266" lon="1.7753">
        <ele>141.6</ele>
        <time>2015-10-31T11:53:15Z</time>
      </trkpt>
      <trkpt lat="44.46261" lon="1.77528">
        <ele>141.7</ele>
        <time>2015-10-31T11:53:16Z</time>
      </trkpt>
      <trkpt lat="44.46256" lon="1.77525">
        <ele>141.8</ele>
        <time>2015-10-31T11:53:17Z</time>
      </trkpt>
      <trkpt lat="44.46252" lon="1.77521">
        <ele>141.8</ele>
        <time>2015-10-31T11:53:18Z</time>
      </trkpt>
      <trkpt lat="44.46247" lon="1.77517">
        <ele>141.9</ele>
        <time>2015-10-31T11:53:19Z</time>
      </trkpt>
      <trkpt lat="44.46242" lon="1.77513">
        <ele>142</ele>
        <time>2015-10-31T11:53:20Z</time>
      </trkpt>
      <trkpt lat="44.46238" lon="1.77509">
        <ele>142</ele>
        <time>2015-10-31T11:53:21Z</time>
      </trkpt>
      <trkpt lat="44.46233" lon="1.77504">
        <ele>142.1</ele>
        <time>2015-10-31T11:53:22Z</time>
      </trkpt>
      <trkpt lat="44.46228" lon="1.775">
        <ele>142.1</ele>
        <time>2015-10-31T11:53:23Z</time>
      </trkpt>
      <trkpt lat="44.46223" lon="1.77496">
        <ele>142.2</ele>
        <time>2015-10-31T11:53:24Z</time>
      </trkpt>
      <trkpt lat="44.46217" lon="1.77489">
        <ele>142.2</ele>
        <time>2015-10-31T11:53:25Z</time>
      </trkpt>
      <trkpt lat="44.46214" lon="1.77486">
        <ele>142.2</ele>
        <time>2015-10-31T11:53:26Z</time>
      </trkpt>
      <trkpt lat="44.46209" lon="1.77484">
        <ele>142.3</ele>
        <time>2015-10-31T11:53:27Z</time>
      </trkpt>
      <trkpt lat="44.46204" lon="1.77478">
        <ele>142.2</ele>
        <time>2015-10-31T11:53:28Z</time>
      </trkpt>
      <trkpt lat="44.46199" lon="1.77474">
        <ele>142.2</ele>
        <time>2015-10-31T11:53:29Z</time>
      </trkpt>
      <trkpt lat="44.46193" lon="1.7747">
        <ele>142.1</ele>
        <time>2015-10-31T11:53:30Z</time>
      </trkpt>
      <trkpt lat="44.46188" lon="1.77467">
        <ele>142.1</ele>
        <time>2015-10-31T11:53:31Z</time>
      </trkpt>
      <trkpt lat="44.46184" lon="1.77466">
        <ele>142.1</ele>
        <time>2015-10-31T11:53:32Z</time>
      </trkpt>
      <trkpt lat="44.46179" lon="1.77466">
        <ele>142.1</ele>
        <time>2015-10-31T11:53:33Z</time>
      </trkpt>
      <trkpt lat="44.46174" lon="1.77462">
        <ele>142</ele>
        <time>2015-10-31T11:53:34Z</time>
      </trkpt>
      <trkpt lat="44.46172" lon="1.77459">
        <ele>142</ele>
        <time>2015-10-31T11:53:35Z</time>
      </trkpt>
      <trkpt lat="44.46168" lon="1.77455">
        <ele>142</ele>
        <time>2015-10-31T11:53:36Z</time>
      </trkpt>
      <trkpt lat="44.46166" lon="1.7745">
        <ele>141.9</ele>
        <time>2015-10-31T11:53:37Z</time>
      </trkpt>
      <trkpt lat="44.46163" lon="1.77446">
        <ele>141.8</ele>
        <time>2015-10-31T11:53:38Z</time>
      </trkpt>
      <trkpt lat="44.4616" lon="1.77441">
        <ele>141.8</ele>
        <time>2015-10-31T11:53:39Z</time>
      </trkpt>
      <trkpt lat="44.46158" lon="1.77438">
        <ele>141.8</ele>
        <time>2015-10-31T11:53:40Z</time>
      </trkpt>
      <trkpt lat="44.46156" lon="1.77433">
        <ele>141.7</ele>
        <time>2015-10-31T11:53:41Z</time>
      </trkpt>
      <trkpt lat="44.46154" lon="1.77427">
        <ele>141.6</ele>
        <time>2015-10-31T11:53:42Z</time>
      </trkpt>
      <trkpt lat="44.4615" lon="1.77418">
        <ele>141.5</ele>
        <time>2015-10-31T11:53:43Z</time>
      </trkpt>
      <trkpt lat="44.46146" lon="1.77407">
        <ele>141.4</ele>
        <time>2015-10-31T11:53:44Z</time>
      </trkpt>
      <trkpt lat="44.46145" lon="1.77401">
        <ele>141.3</ele>
        <time>2015-10-31T11:53:45Z</time>
      </trkpt>
      <trkpt lat="44.46145" lon="1.77395">
        <ele>141.2</ele>
        <time>2015-10-31T11:53:46Z</time>
      </trkpt>
      <trkpt lat="44.46143" lon="1.77387">
        <ele>141.1</ele>
        <time>2015-10-31T11:53:47Z</time>
      </trkpt>
      <trkpt lat="44.46141" lon="1.77377">
        <ele>141</ele>
        <time>2015-10-31T11:53:48Z</time>
      </trkpt>
      <trkpt lat="44.4614" lon="1.77368">
        <ele>141</ele>
        <time>2015-10-31T11:53:49Z</time>
      </trkpt>
      <trkpt lat="44.46139" lon="1.7736">
        <ele>141</ele>
        <time>2015-10-31T11:53:50Z</time>
      </trkpt>
      <trkpt lat="44.46136" lon="1.77351">
        <ele>141</ele>
        <time>2015-10-31T11:53:51Z</time>
      </trkpt>
      <trkpt lat="44.46135" lon="1.77343">
        <ele>141</ele>
        <time>2015-10-31T11:53:52Z</time>
      </trkpt>
      <trkpt lat="44.46133" lon="1.77336">
        <ele>141</ele>
        <time>2015-10-31T11:53:53Z</time>
      </trkpt>
      <trkpt lat="44.4613" lon="1.7733">
        <ele>141</ele>
        <time>2015-10-31T11:53:54Z</time>
      </trkpt>
      <trkpt lat="44.46127" lon="1.77323">
        <ele>141</ele>
        <time>2015-10-31T11:53:55Z</time>
      </trkpt>
      <trkpt lat="44.46124" lon="1.77315">
        <ele>141</ele>
        <time>2015-10-31T11:53:56Z</time>
      </trkpt>
      <trkpt lat="44.46118" lon="1.77306">
        <ele>141.1</ele>
        <time>2015-10-31T11:53:57Z</time>
      </trkpt>
      <trkpt lat="44.46114" lon="1.77297">
        <ele>141.1</ele>
        <time>2015-10-31T11:53:58Z</time>
      </trkpt>
      <trkpt lat="44.46111" lon="1.7729">
        <ele>141.2</ele>
        <time>2015-10-31T11:53:59Z</time>
      </trkpt>
      <trkpt lat="44.46107" lon="1.77283">
        <ele>141.2</ele>
        <time>2015-10-31T11:54:00Z</time>
      </trkpt>
      <trkpt lat="44.46104" lon="1.77276">
        <ele>141.2</ele>
        <time>2015-10-31T11:54:01Z</time>
      </trkpt>
      <trkpt lat="44.46098" lon="1.77266">
        <ele>141.1</ele>
        <time>2015-10-31T11:54:03Z</time>
      </trkpt>
      <trkpt lat="44.46094" lon="1.77259">
        <ele>141.1</ele>
        <time>2015-10-31T11:54:04Z</time>
      </trkpt>
      <trkpt lat="44.46092" lon="1.77254">
        <ele>141</ele>
        <time>2015-10-31T11:54:05Z</time>
      </trkpt>
      <trkpt lat="44.46088" lon="1.77244">
        <ele>140.9</ele>
        <time>2015-10-31T11:54:06Z</time>
      </trkpt>
      <trkpt lat="44.46083" lon="1.77238">
        <ele>140.9</ele>
        <time>2015-10-31T11:54:07Z</time>
      </trkpt>
      <trkpt lat="44.46077" lon="1.77233">
        <ele>140.8</ele>
        <time>2015-10-31T11:54:08Z</time>
      </trkpt>
      <trkpt lat="44.46074" lon="1.77226">
        <ele>140.7</ele>
        <time>2015-10-31T11:54:09Z</time>
      </trkpt>
      <trkpt lat="44.46072" lon="1.77221">
        <ele>140.6</ele>
        <time>2015-10-31T11:54:10Z</time>
      </trkpt>
      <trkpt lat="44.46067" lon="1.77214">
        <ele>140.4</ele>
        <time>2015-10-31T11:54:11Z</time>
      </trkpt>
      <trkpt lat="44.46063" lon="1.77208">
        <ele>140.3</ele>
        <time>2015-10-31T11:54:12Z</time>
      </trkpt>
      <trkpt lat="44.46059" lon="1.772">
        <ele>140.1</ele>
        <time>2015-10-31T11:54:13Z</time>
      </trkpt>
      <trkpt lat="44.46056" lon="1.77194">
        <ele>140</ele>
        <time>2015-10-31T11:54:14Z</time>
      </trkpt>
      <trkpt lat="44.46053" lon="1.77187">
        <ele>139.9</ele>
        <time>2015-10-31T11:54:15Z</time>
      </trkpt>
      <trkpt lat="44.46049" lon="1.77179">
        <ele>139.7</ele>
        <time>2015-10-31T11:54:16Z</time>
      </trkpt>
      <trkpt lat="44.46045" lon="1.7717">
        <ele>139.6</ele>
        <time>2015-10-31T11:54:17Z</time>
      </trkpt>
      <trkpt lat="44.46042" lon="1.77163">
        <ele>139.5</ele>
        <time>2015-10-31T11:54:18Z</time>
      </trkpt>
      <trkpt lat="44.4604" lon="1.77153">
        <ele>139.3</ele>
        <time>2015-10-31T11:54:19Z</time>
      </trkpt>
      <trkpt lat="44.46039" lon="1.77149">
        <ele>139.3</ele>
        <time>2015-10-31T11:54:20Z</time>
      </trkpt>
      <trkpt lat="44.46037" lon="1.77139">
        <ele>139.1</ele>
        <time>2015-10-31T11:54:21Z</time>
      </trkpt>
      <trkpt lat="44.46035" lon="1.77132">
        <ele>139</ele>
        <time>2015-10-31T11:54:22Z</time>
      </trkpt>
      <trkpt lat="44.46034" lon="1.77124">
        <ele>138.9</ele>
        <time>2015-10-31T11:54:23Z</time>
      </trkpt>
      <trkpt lat="44.46033" lon="1.77115">
        <ele>139</ele>
        <time>2015-10-31T11:54:24Z</time>
      </trkpt>
      <trkpt lat="44.46032" lon="1.77107">
        <ele>139.1</ele>
        <time>2015-10-31T11:54:25Z</time>
      </trkpt>
      <trkpt lat="44.46031" lon="1.77099">
        <ele>139.2</ele>
        <time>2015-10-31T11:54:26Z</time>
      </trkpt>
      <trkpt lat="44.4603" lon="1.7709">
        <ele>139.3</ele>
        <time>2015-10-31T11:54:27Z</time>
      </trkpt>
      <trkpt lat="44.46029" lon="1.77083">
        <ele>139.4</ele>
        <time>2015-10-31T11:54:28Z</time>
      </trkpt>
      <trkpt lat="44.46028" lon="1.77075">
        <ele>139.4</ele>
        <time>2015-10-31T11:54:29Z</time>
      </trkpt>
      <trkpt lat="44.46027" lon="1.77067">
        <ele>139.5</ele>
        <time>2015-10-31T11:54:30Z</time>
      </trkpt>
      <trkpt lat="44.46025" lon="1.77059">
        <ele>139.6</ele>
        <time>2015-10-31T11:54:31Z</time>
      </trkpt>
      <trkpt lat="44.46024" lon="1.77051">
        <ele>139.7</ele>
        <time>2015-10-31T11:54:32Z</time>
      </trkpt>
      <trkpt lat="44.46022" lon="1.77042">
        <ele>139.8</ele>
        <time>2015-10-31T11:54:33Z</time>
      </trkpt>
      <trkpt lat="44.46021" lon="1.77036">
        <ele>139.8</ele>
        <time>2015-10-31T11:54:34Z</time>
      </trkpt>
      <trkpt lat="44.46021" lon="1.77027">
        <ele>139.7</ele>
        <time>2015-10-31T11:54:35Z</time>
      </trkpt>
      <trkpt lat="44.4602" lon="1.77019">
        <ele>139.7</ele>
        <time>2015-10-31T11:54:36Z</time>
      </trkpt>
      <trkpt lat="44.46018" lon="1.7701">
        <ele>139.7</ele>
        <time>2015-10-31T11:54:37Z</time>
      </trkpt>
      <trkpt lat="44.46018" lon="1.77002">
        <ele>139.7</ele>
        <time>2015-10-31T11:54:38Z</time>
      </trkpt>
      <trkpt lat="44.46015" lon="1.76993">
        <ele>139.7</ele>
        <time>2015-10-31T11:54:39Z</time>
      </trkpt>
      <trkpt lat="44.46013" lon="1.76983">
        <ele>139.7</ele>
        <time>2015-10-31T11:54:40Z</time>
      </trkpt>
      <trkpt lat="44.46011" lon="1.76973">
        <ele>139.6</ele>
        <time>2015-10-31T11:54:41Z</time>
      </trkpt>
      <trkpt lat="44.46009" lon="1.76966">
        <ele>139.6</ele>
        <time>2015-10-31T11:54:42Z</time>
      </trkpt>
      <trkpt lat="44.46008" lon="1.76958">
        <ele>139.6</ele>
        <time>2015-10-31T11:54:43Z</time>
      </trkpt>
      <trkpt lat="44.46007" lon="1.7695">
        <ele>139.7</ele>
        <time>2015-10-31T11:54:44Z</time>
      </trkpt>
      <trkpt lat="44.46006" lon="1.76944">
        <ele>139.9</ele>
        <time>2015-10-31T11:54:45Z</time>
      </trkpt>
      <trkpt lat="44.46005" lon="1.76936">
        <ele>140</ele>
        <time>2015-10-31T11:54:46Z</time>
      </trkpt>
      <trkpt lat="44.46003" lon="1.76929">
        <ele>140.1</ele>
        <time>2015-10-31T11:54:47Z</time>
      </trkpt>
      <trkpt lat="44.46002" lon="1.76922">
        <ele>140.2</ele>
        <time>2015-10-31T11:54:48Z</time>
      </trkpt>
      <trkpt lat="44.46002" lon="1.76914">
        <ele>140.3</ele>
        <time>2015-10-31T11:54:49Z</time>
      </trkpt>
      <trkpt lat="44.46001" lon="1.76905">
        <ele>140.5</ele>
        <time>2015-10-31T11:54:50Z</time>
      </trkpt>
      <trkpt lat="44.45998" lon="1.76895">
        <ele>140.6</ele>
        <time>2015-10-31T11:54:51Z</time>
      </trkpt>
      <trkpt lat="44.45997" lon="1.76889">
        <ele>140.7</ele>
        <time>2015-10-31T11:54:53Z</time>
      </trkpt>
      <trkpt lat="44.45994" lon="1.76875">
        <ele>140.9</ele>
        <time>2015-10-31T11:54:54Z</time>
      </trkpt>
      <trkpt lat="44.45993" lon="1.76869">
        <ele>140.8</ele>
        <time>2015-10-31T11:54:55Z</time>
      </trkpt>
      <trkpt lat="44.4599" lon="1.76858">
        <ele>140.7</ele>
        <time>2015-10-31T11:54:56Z</time>
      </trkpt>
      <trkpt lat="44.4599" lon="1.76854">
        <ele>140.7</ele>
        <time>2015-10-31T11:54:57Z</time>
      </trkpt>
      <trkpt lat="44.45988" lon="1.76845">
        <ele>140.6</ele>
        <time>2015-10-31T11:54:58Z</time>
      </trkpt>
      <trkpt lat="44.45987" lon="1.76836">
        <ele>140.5</ele>
        <time>2015-10-31T11:54:59Z</time>
      </trkpt>
      <trkpt lat="44.45986" lon="1.76828">
        <ele>140.5</ele>
        <time>2015-10-31T11:55:00Z</time>
      </trkpt>
      <trkpt lat="44.45985" lon="1.76818">
        <ele>140.4</ele>
        <time>2015-10-31T11:55:01Z</time>
      </trkpt>
      <trkpt lat="44.45984" lon="1.7681">
        <ele>140.4</ele>
        <time>2015-10-31T11:55:02Z</time>
      </trkpt>
      <trkpt lat="44.45986" lon="1.76807">
        <ele>140.4</ele>
        <time>2015-10-31T11:55:03Z</time>
      </trkpt>
      <trkpt lat="44.45983" lon="1.76797">
        <ele>140.3</ele>
        <time>2015-10-31T11:55:04Z</time>
      </trkpt>
      <trkpt lat="44.45981" lon="1.76792">
        <ele>140.3</ele>
        <time>2015-10-31T11:55:05Z</time>
      </trkpt>
      <trkpt lat="44.4598" lon="1.76785">
        <ele>140.1</ele>
        <time>2015-10-31T11:55:06Z</time>
      </trkpt>
      <trkpt lat="44.4598" lon="1.7678">
        <ele>140</ele>
        <time>2015-10-31T11:55:07Z</time>
      </trkpt>
      <trkpt lat="44.45978" lon="1.76771">
        <ele>139.9</ele>
        <time>2015-10-31T11:55:08Z</time>
      </trkpt>
      <trkpt lat="44.45976" lon="1.76761">
        <ele>139.7</ele>
        <time>2015-10-31T11:55:09Z</time>
      </trkpt>
      <trkpt lat="44.45975" lon="1.76754">
        <ele>139.6</ele>
        <time>2015-10-31T11:55:10Z</time>
      </trkpt>
      <trkpt lat="44.45974" lon="1.76747">
        <ele>139.5</ele>
        <time>2015-10-31T11:55:11Z</time>
      </trkpt>
      <trkpt lat="44.45972" lon="1.7674">
        <ele>139.3</ele>
        <time>2015-10-31T11:55:12Z</time>
      </trkpt>
      <trkpt lat="44.45971" lon="1.76731">
        <ele>139.2</ele>
        <time>2015-10-31T11:55:13Z</time>
      </trkpt>
      <trkpt lat="44.4597" lon="1.76722">
        <ele>139.1</ele>
        <time>2015-10-31T11:55:14Z</time>
      </trkpt>
      <trkpt lat="44.45969" lon="1.76717">
        <ele>139</ele>
        <time>2015-10-31T11:55:15Z</time>
      </trkpt>
      <trkpt lat="44.45967" lon="1.7671">
        <ele>138.9</ele>
        <time>2015-10-31T11:55:16Z</time>
      </trkpt>
      <trkpt lat="44.45966" lon="1.76703">
        <ele>138.9</ele>
        <time>2015-10-31T11:55:17Z</time>
      </trkpt>
      <trkpt lat="44.45964" lon="1.76694">
        <ele>138.9</ele>
        <time>2015-10-31T11:55:18Z</time>
      </trkpt>
      <trkpt lat="44.45963" lon="1.76688">
        <ele>139</ele>
        <time>2015-10-31T11:55:19Z</time>
      </trkpt>
      <trkpt lat="44.45962" lon="1.76681">
        <ele>139</ele>
        <time>2015-10-31T11:55:20Z</time>
      </trkpt>
      <trkpt lat="44.45961" lon="1.76674">
        <ele>139</ele>
        <time>2015-10-31T11:55:21Z</time>
      </trkpt>
      <trkpt lat="44.45959" lon="1.76667">
        <ele>139</ele>
        <time>2015-10-31T11:55:22Z</time>
      </trkpt>
      <trkpt lat="44.45959" lon="1.76659">
        <ele>139</ele>
        <time>2015-10-31T11:55:23Z</time>
      </trkpt>
      <trkpt lat="44.4596" lon="1.76651">
        <ele>139</ele>
        <time>2015-10-31T11:55:24Z</time>
      </trkpt>
      <trkpt lat="44.45959" lon="1.76644">
        <ele>139</ele>
        <time>2015-10-31T11:55:25Z</time>
      </trkpt>
      <trkpt lat="44.45959" lon="1.76636">
        <ele>139</ele>
        <time>2015-10-31T11:55:26Z</time>
      </trkpt>
      <trkpt lat="44.45958" lon="1.76628">
        <ele>139</ele>
        <time>2015-10-31T11:55:27Z</time>
      </trkpt>
      <trkpt lat="44.45959" lon="1.76619">
        <ele>138.9</ele>
        <time>2015-10-31T11:55:28Z</time>
      </trkpt>
      <trkpt lat="44.45958" lon="1.7661">
        <ele>138.8</ele>
        <time>2015-10-31T11:55:29Z</time>
      </trkpt>
      <trkpt lat="44.45958" lon="1.76601">
        <ele>138.7</ele>
        <time>2015-10-31T11:55:30Z</time>
      </trkpt>
      <trkpt lat="44.45958" lon="1.76593">
        <ele>138.6</ele>
        <time>2015-10-31T11:55:31Z</time>
      </trkpt>
      <trkpt lat="44.45959" lon="1.76585">
        <ele>138.5</ele>
        <time>2015-10-31T11:55:32Z</time>
      </trkpt>
      <trkpt lat="44.4596" lon="1.76577">
        <ele>138.4</ele>
        <time>2015-10-31T11:55:33Z</time>
      </trkpt>
      <trkpt lat="44.4596" lon="1.76568">
        <ele>138.3</ele>
        <time>2015-10-31T11:55:34Z</time>
      </trkpt>
      <trkpt lat="44.4596" lon="1.76559">
        <ele>138.2</ele>
        <time>2015-10-31T11:55:35Z</time>
      </trkpt>
      <trkpt lat="44.4596" lon="1.76551">
        <ele>138.1</ele>
        <time>2015-10-31T11:55:36Z</time>
      </trkpt>
      <trkpt lat="44.4596" lon="1.76543">
        <ele>138</ele>
        <time>2015-10-31T11:55:37Z</time>
      </trkpt>
      <trkpt lat="44.45961" lon="1.76535">
        <ele>138</ele>
        <time>2015-10-31T11:55:38Z</time>
      </trkpt>
      <trkpt lat="44.45962" lon="1.76527">
        <ele>137.9</ele>
        <time>2015-10-31T11:55:39Z</time>
      </trkpt>
      <trkpt lat="44.45963" lon="1.76518">
        <ele>137.8</ele>
        <time>2015-10-31T11:55:40Z</time>
      </trkpt>
      <trkpt lat="44.45964" lon="1.7651">
        <ele>137.7</ele>
        <time>2015-10-31T11:55:41Z</time>
      </trkpt>
      <trkpt lat="44.45964" lon="1.76504">
        <ele>137.7</ele>
        <time>2015-10-31T11:55:42Z</time>
      </trkpt>
      <trkpt lat="44.45965" lon="1.76496">
        <ele>137.6</ele>
        <time>2015-10-31T11:55:43Z</time>
      </trkpt>
      <trkpt lat="44.45966" lon="1.76488">
        <ele>137.6</ele>
        <time>2015-10-31T11:55:44Z</time>
      </trkpt>
      <trkpt lat="44.45966" lon="1.76481">
        <ele>137.5</ele>
        <time>2015-10-31T11:55:45Z</time>
      </trkpt>
      <trkpt lat="44.45967" lon="1.76472">
        <ele>137.4</ele>
        <time>2015-10-31T11:55:46Z</time>
      </trkpt>
      <trkpt lat="44.45969" lon="1.76464">
        <ele>137.4</ele>
        <time>2015-10-31T11:55:47Z</time>
      </trkpt>
      <trkpt lat="44.4597" lon="1.76457">
        <ele>137.4</ele>
        <time>2015-10-31T11:55:48Z</time>
      </trkpt>
      <trkpt lat="44.45971" lon="1.76449">
        <ele>137.5</ele>
        <time>2015-10-31T11:55:49Z</time>
      </trkpt>
      <trkpt lat="44.45972" lon="1.76441">
        <ele>137.7</ele>
        <time>2015-10-31T11:55:50Z</time>
      </trkpt>
      <trkpt lat="44.45973" lon="1.76433">
        <ele>137.8</ele>
        <time>2015-10-31T11:55:51Z</time>
      </trkpt>
      <trkpt lat="44.45974" lon="1.76425">
        <ele>137.9</ele>
        <time>2015-10-31T11:55:52Z</time>
      </trkpt>
      <trkpt lat="44.45975" lon="1.76417">
        <ele>138</ele>
        <time>2015-10-31T11:55:53Z</time>
      </trkpt>
      <trkpt lat="44.45977" lon="1.7641">
        <ele>138.1</ele>
        <time>2015-10-31T11:55:54Z</time>
      </trkpt>
      <trkpt lat="44.45977" lon="1.76402">
        <ele>138.2</ele>
        <time>2015-10-31T11:55:55Z</time>
      </trkpt>
      <trkpt lat="44.45979" lon="1.76393">
        <ele>138.3</ele>
        <time>2015-10-31T11:55:56Z</time>
      </trkpt>
      <trkpt lat="44.4598" lon="1.76386">
        <ele>138.4</ele>
        <time>2015-10-31T11:55:57Z</time>
      </trkpt>
      <trkpt lat="44.45981" lon="1.76378">
        <ele>138.5</ele>
        <time>2015-10-31T11:55:58Z</time>
      </trkpt>
      <trkpt lat="44.45982" lon="1.76369">
        <ele>138.7</ele>
        <time>2015-10-31T11:55:59Z</time>
      </trkpt>
      <trkpt lat="44.45984" lon="1.76361">
        <ele>138.9</ele>
        <time>2015-10-31T11:56:00Z</time>
      </trkpt>
      <trkpt lat="44.45986" lon="1.76352">
        <ele>139</ele>
        <time>2015-10-31T11:56:01Z</time>
      </trkpt>
      <trkpt lat="44.45987" lon="1.76343">
        <ele>139.2</ele>
        <time>2015-10-31T11:56:02Z</time>
      </trkpt>
      <trkpt lat="44.45988" lon="1.76335">
        <ele>139.3</ele>
        <time>2015-10-31T11:56:03Z</time>
      </trkpt>
      <trkpt lat="44.45989" lon="1.76328">
        <ele>139.4</ele>
        <time>2015-10-31T11:56:04Z</time>
      </trkpt>
      <trkpt lat="44.45991" lon="1.76319">
        <ele>139.6</ele>
        <time>2015-10-31T11:56:05Z</time>
      </trkpt>
      <trkpt lat="44.45993" lon="1.7631">
        <ele>139.7</ele>
        <time>2015-10-31T11:56:06Z</time>
      </trkpt>
      <trkpt lat="44.45994" lon="1.76302">
        <ele>139.9</ele>
        <time>2015-10-31T11:56:07Z</time>
      </trkpt>
      <trkpt lat="44.45996" lon="1.76295">
        <ele>140</ele>
        <time>2015-10-31T11:56:08Z</time>
      </trkpt>
      <trkpt lat="44.45998" lon="1.76286">
        <ele>139.9</ele>
        <time>2015-10-31T11:56:09Z</time>
      </trkpt>
      <trkpt lat="44.45999" lon="1.76278">
        <ele>139.8</ele>
        <time>2015-10-31T11:56:10Z</time>
      </trkpt>
      <trkpt lat="44.46" lon="1.7627">
        <ele>139.7</ele>
        <time>2015-10-31T11:56:11Z</time>
      </trkpt>
      <trkpt lat="44.46001" lon="1.76263">
        <ele>139.7</ele>
        <time>2015-10-31T11:56:12Z</time>
      </trkpt>
      <trkpt lat="44.46002" lon="1.76256">
        <ele>139.6</ele>
        <time>2015-10-31T11:56:13Z</time>
      </trkpt>
      <trkpt lat="44.46003" lon="1.76248">
        <ele>139.5</ele>
        <time>2015-10-31T11:56:14Z</time>
      </trkpt>
      <trkpt lat="44.46005" lon="1.76242">
        <ele>139.4</ele>
        <time>2015-10-31T11:56:15Z</time>
      </trkpt>
      <trkpt lat="44.46005" lon="1.76236">
        <ele>139.3</ele>
        <time>2015-10-31T11:56:16Z</time>
      </trkpt>
      <trkpt lat="44.46006" lon="1.76232">
        <ele>139.3</ele>
        <time>2015-10-31T11:56:17Z</time>
      </trkpt>
      <trkpt lat="44.46004" lon="1.76236">
        <ele>139.3</ele>
        <time>2015-10-31T11:56:21Z</time>
      </trkpt>
      <trkpt lat="44.46002" lon="1.76233">
        <ele>139.3</ele>
        <time>2015-10-31T11:56:30Z</time>
      </trkpt>
      <trkpt lat="44.46006" lon="1.76224">
        <ele>139.2</ele>
        <time>2015-10-31T12:00:11Z</time>
      </trkpt>
      <trkpt lat="44.46006" lon="1.76217">
        <ele>139.1</ele>
        <time>2015-10-31T12:00:13Z</time>
      </trkpt>
      <trkpt lat="44.46007" lon="1.7621">
        <ele>139</ele>
        <time>2015-10-31T12:00:15Z</time>
      </trkpt>
      <trkpt lat="44.46007" lon="1.76203">
        <ele>139.1</ele>
        <time>2015-10-31T12:00:17Z</time>
      </trkpt>
      <trkpt lat="44.46007" lon="1.76199">
        <ele>139.1</ele>
        <time>2015-10-31T12:00:18Z</time>
      </trkpt>
      <trkpt lat="44.46007" lon="1.76194">
        <ele>139.2</ele>
        <time>2015-10-31T12:00:19Z</time>
      </trkpt>
      <trkpt lat="44.46008" lon="1.76189">
        <ele>139.2</ele>
        <time>2015-10-31T12:00:20Z</time>
      </trkpt>
      <trkpt lat="44.46008" lon="1.76183">
        <ele>139.3</ele>
        <time>2015-10-31T12:00:21Z</time>
      </trkpt>
      <trkpt lat="44.46007" lon="1.76178">
        <ele>139.4</ele>
        <time>2015-10-31T12:00:22Z</time>
      </trkpt>
      <trkpt lat="44.46007" lon="1.76172">
        <ele>139.4</ele>
        <time>2015-10-31T12:00:23Z</time>
      </trkpt>
      <trkpt lat="44.46007" lon="1.76167">
        <ele>139.5</ele>
        <time>2015-10-31T12:00:24Z</time>
      </trkpt>
      <trkpt lat="44.46007" lon="1.76161">
        <ele>139.6</ele>
        <time>2015-10-31T12:00:25Z</time>
      </trkpt>
      <trkpt lat="44.46007" lon="1.76155">
        <ele>139.6</ele>
        <time>2015-10-31T12:00:26Z</time>
      </trkpt>
      <trkpt lat="44.46008" lon="1.76149">
        <ele>139.7</ele>
        <time>2015-10-31T12:00:27Z</time>
      </trkpt>
      <trkpt lat="44.46008" lon="1.76143">
        <ele>139.8</ele>
        <time>2015-10-31T12:00:28Z</time>
      </trkpt>
      <trkpt lat="44.46008" lon="1.76137">
        <ele>139.9</ele>
        <time>2015-10-31T12:00:29Z</time>
      </trkpt>
      <trkpt lat="44.46009" lon="1.76131">
        <ele>139.9</ele>
        <time>2015-10-31T12:00:30Z</time>
      </trkpt>
      <trkpt lat="44.46009" lon="1.76125">
        <ele>140</ele>
        <time>2015-10-31T12:00:31Z</time>
      </trkpt>
      <trkpt lat="44.46009" lon="1.76119">
        <ele>139.9</ele>
        <time>2015-10-31T12:00:32Z</time>
      </trkpt>
      <trkpt lat="44.4601" lon="1.76114">
        <ele>139.9</ele>
        <time>2015-10-31T12:00:33Z</time>
      </trkpt>
      <trkpt lat="44.4601" lon="1.76108">
        <ele>139.8</ele>
        <time>2015-10-31T12:00:34Z</time>
      </trkpt>
      <trkpt lat="44.4601" lon="1.76103">
        <ele>139.7</ele>
        <time>2015-10-31T12:00:35Z</time>
      </trkpt>
      <trkpt lat="44.46011" lon="1.76098">
        <ele>139.7</ele>
        <time>2015-10-31T12:00:36Z</time>
      </trkpt>
      <trkpt lat="44.46011" lon="1.76092">
        <ele>139.6</ele>
        <time>2015-10-31T12:00:37Z</time>
      </trkpt>
      <trkpt lat="44.46011" lon="1.76087">
        <ele>139.5</ele>
        <time>2015-10-31T12:00:38Z</time>
      </trkpt>
      <trkpt lat="44.46012" lon="1.76082">
        <ele>139.5</ele>
        <time>2015-10-31T12:00:39Z</time>
      </trkpt>
      <trkpt lat="44.46012" lon="1.76076">
        <ele>139.4</ele>
        <time>2015-10-31T12:00:40Z</time>
      </trkpt>
      <trkpt lat="44.46012" lon="1.7607">
        <ele>139.3</ele>
        <time>2015-10-31T12:00:41Z</time>
      </trkpt>
      <trkpt lat="44.46013" lon="1.76064">
        <ele>139.3</ele>
        <time>2015-10-31T12:00:42Z</time>
      </trkpt>
      <trkpt lat="44.46013" lon="1.76058">
        <ele>139.2</ele>
        <time>2015-10-31T12:00:43Z</time>
      </trkpt>
      <trkpt lat="44.46013" lon="1.76052">
        <ele>139.1</ele>
        <time>2015-10-31T12:00:44Z</time>
      </trkpt>
      <trkpt lat="44.46013" lon="1.76045">
        <ele>139</ele>
        <time>2015-10-31T12:00:45Z</time>
      </trkpt>
      <trkpt lat="44.46012" lon="1.76039">
        <ele>139</ele>
        <time>2015-10-31T12:00:46Z</time>
      </trkpt>
      <trkpt lat="44.46012" lon="1.76033">
        <ele>138.9</ele>
        <time>2015-10-31T12:00:47Z</time>
      </trkpt>
      <trkpt lat="44.46011" lon="1.76027">
        <ele>138.8</ele>
        <time>2015-10-31T12:00:48Z</time>
      </trkpt>
      <trkpt lat="44.4601" lon="1.76021">
        <ele>138.8</ele>
        <time>2015-10-31T12:00:49Z</time>
      </trkpt>
      <trkpt lat="44.46011" lon="1.76016">
        <ele>138.7</ele>
        <time>2015-10-31T12:00:50Z</time>
      </trkpt>
      <trkpt lat="44.46011" lon="1.76009">
        <ele>138.6</ele>
        <time>2015-10-31T12:00:51Z</time>
      </trkpt>
      <trkpt lat="44.46011" lon="1.76002">
        <ele>138.5</ele>
        <time>2015-10-31T12:00:52Z</time>
      </trkpt>
      <trkpt lat="44.46012" lon="1.75995">
        <ele>138.4</ele>
        <time>2015-10-31T12:00:53Z</time>
      </trkpt>
      <trkpt lat="44.46013" lon="1.75989">
        <ele>138.4</ele>
        <time>2015-10-31T12:00:54Z</time>
      </trkpt>
      <trkpt lat="44.46012" lon="1.75984">
        <ele>138.3</ele>
        <time>2015-10-31T12:00:55Z</time>
      </trkpt>
      <trkpt lat="44.46014" lon="1.75976">
        <ele>138.2</ele>
        <time>2015-10-31T12:00:56Z</time>
      </trkpt>
      <trkpt lat="44.46014" lon="1.75968">
        <ele>138.1</ele>
        <time>2015-10-31T12:00:57Z</time>
      </trkpt>
      <trkpt lat="44.46014" lon="1.7596">
        <ele>138</ele>
        <time>2015-10-31T12:00:58Z</time>
      </trkpt>
      <trkpt lat="44.46014" lon="1.75953">
        <ele>138</ele>
        <time>2015-10-31T12:00:59Z</time>
      </trkpt>
      <trkpt lat="44.46014" lon="1.75946">
        <ele>138</ele>
        <time>2015-10-31T12:01:00Z</time>
      </trkpt>
      <trkpt lat="44.46014" lon="1.75939">
        <ele>138</ele>
        <time>2015-10-31T12:01:01Z</time>
      </trkpt>
      <trkpt lat="44.46014" lon="1.75931">
        <ele>138</ele>
        <time>2015-10-31T12:01:02Z</time>
      </trkpt>
      <trkpt lat="44.46014" lon="1.75923">
        <ele>138</ele>
        <time>2015-10-31T12:01:03Z</time>
      </trkpt>
      <trkpt lat="44.46013" lon="1.75915">
        <ele>138</ele>
        <time>2015-10-31T12:01:04Z</time>
      </trkpt>
      <trkpt lat="44.46012" lon="1.75907">
        <ele>138</ele>
        <time>2015-10-31T12:01:05Z</time>
      </trkpt>
      <trkpt lat="44.46011" lon="1.75901">
        <ele>138</ele>
        <time>2015-10-31T12:01:06Z</time>
      </trkpt>
      <trkpt lat="44.46013" lon="1.75894">
        <ele>138</ele>
        <time>2015-10-31T12:01:07Z</time>
      </trkpt>
      <trkpt lat="44.46011" lon="1.75889">
        <ele>138</ele>
        <time>2015-10-31T12:01:08Z</time>
      </trkpt>
      <trkpt lat="44.46008" lon="1.75886">
        <ele>138</ele>
        <time>2015-10-31T12:01:09Z</time>
      </trkpt>
      <trkpt lat="44.46006" lon="1.75877">
        <ele>138</ele>
        <time>2015-10-31T12:01:10Z</time>
      </trkpt>
      <trkpt lat="44.46004" lon="1.75871">
        <ele>138.3</ele>
        <time>2015-10-31T12:01:11Z</time>
      </trkpt>
      <trkpt lat="44.46004" lon="1.75863">
        <ele>138.7</ele>
        <time>2015-10-31T12:01:12Z</time>
      </trkpt>
      <trkpt lat="44.46002" lon="1.75858">
        <ele>139.1</ele>
        <time>2015-10-31T12:01:13Z</time>
      </trkpt>
      <trkpt lat="44.46002" lon="1.75851">
        <ele>139.5</ele>
        <time>2015-10-31T12:01:14Z</time>
      </trkpt>
      <trkpt lat="44.46001" lon="1.75845">
        <ele>140</ele>
        <time>2015-10-31T12:01:15Z</time>
      </trkpt>
      <trkpt lat="44.46001" lon="1.75837">
        <ele>140.5</ele>
        <time>2015-10-31T12:01:16Z</time>
      </trkpt>
      <trkpt lat="44.46" lon="1.75831">
        <ele>140.9</ele>
        <time>2015-10-31T12:01:17Z</time>
      </trkpt>
      <trkpt lat="44.45999" lon="1.75823">
        <ele>141.5</ele>
        <time>2015-10-31T12:01:18Z</time>
      </trkpt>
      <trkpt lat="44.45998" lon="1.75817">
        <ele>142</ele>
        <time>2015-10-31T12:01:19Z</time>
      </trkpt>
      <trkpt lat="44.45997" lon="1.75811">
        <ele>142.6</ele>
        <time>2015-10-31T12:01:20Z</time>
      </trkpt>
      <trkpt lat="44.45996" lon="1.75802">
        <ele>143.3</ele>
        <time>2015-10-31T12:01:21Z</time>
      </trkpt>
      <trkpt lat="44.45996" lon="1.75796">
        <ele>143.7</ele>
        <time>2015-10-31T12:01:22Z</time>
      </trkpt>
      <trkpt lat="44.45995" lon="1.75786">
        <ele>146.5</ele>
        <time>2015-10-31T12:01:24Z</time>
      </trkpt>
      <trkpt lat="44.45993" lon="1.75779">
        <ele>149.1</ele>
        <time>2015-10-31T12:01:25Z</time>
      </trkpt>
      <trkpt lat="44.45993" lon="1.75772">
        <ele>152</ele>
        <time>2015-10-31T12:01:26Z</time>
      </trkpt>
      <trkpt lat="44.45993" lon="1.75767">
        <ele>153.5</ele>
        <time>2015-10-31T12:01:27Z</time>
      </trkpt>
      <trkpt lat="44.45993" lon="1.7576">
        <ele>156.5</ele>
        <time>2015-10-31T12:01:28Z</time>
      </trkpt>
      <trkpt lat="44.45992" lon="1.75752">
        <ele>159.8</ele>
        <time>2015-10-31T12:01:29Z</time>
      </trkpt>
      <trkpt lat="44.45992" lon="1.75744">
        <ele>163</ele>
        <time>2015-10-31T12:01:30Z</time>
      </trkpt>
      <trkpt lat="44.45992" lon="1.75736">
        <ele>165.9</ele>
        <time>2015-10-31T12:01:31Z</time>
      </trkpt>
      <trkpt lat="44.45991" lon="1.75729">
        <ele>169</ele>
        <time>2015-10-31T12:01:32Z</time>
      </trkpt>
      <trkpt lat="44.45991" lon="1.75722">
        <ele>171.4</ele>
        <time>2015-10-31T12:01:33Z</time>
      </trkpt>
      <trkpt lat="44.45991" lon="1.75716">
        <ele>173.7</ele>
        <time>2015-10-31T12:01:34Z</time>
      </trkpt>
      <trkpt lat="44.45992" lon="1.7571">
        <ele>175.6</ele>
        <time>2015-10-31T12:01:35Z</time>
      </trkpt>
      <trkpt lat="44.45993" lon="1.75705">
        <ele>177.9</ele>
        <time>2015-10-31T12:01:36Z</time>
      </trkpt>
      <trkpt lat="44.45994" lon="1.757">
        <ele>180.1</ele>
        <time>2015-10-31T12:01:37Z</time>
      </trkpt>
      <trkpt lat="44.45995" lon="1.75694">
        <ele>183</ele>
        <time>2015-10-31T12:01:38Z</time>
      </trkpt>
      <trkpt lat="44.45998" lon="1.75688">
        <ele>184.8</ele>
        <time>2015-10-31T12:01:39Z</time>
      </trkpt>
      <trkpt lat="44.46" lon="1.75684">
        <ele>186.4</ele>
        <time>2015-10-31T12:01:40Z</time>
      </trkpt>
      <trkpt lat="44.46002" lon="1.75678">
        <ele>188.9</ele>
        <time>2015-10-31T12:01:41Z</time>
      </trkpt>
      <trkpt lat="44.46004" lon="1.75672">
        <ele>190.9</ele>
        <time>2015-10-31T12:01:42Z</time>
      </trkpt>
      <trkpt lat="44.46008" lon="1.75669">
        <ele>191.2</ele>
        <time>2015-10-31T12:01:43Z</time>
      </trkpt>
      <trkpt lat="44.46012" lon="1.75665">
        <ele>191.4</ele>
        <time>2015-10-31T12:01:44Z</time>
      </trkpt>
      <trkpt lat="44.46014" lon="1.75662">
        <ele>192</ele>
        <time>2015-10-31T12:01:45Z</time>
      </trkpt>
      <trkpt lat="44.46017" lon="1.75658">
        <ele>193.1</ele>
        <time>2015-10-31T12:01:46Z</time>
      </trkpt>
      <trkpt lat="44.46019" lon="1.75654">
        <ele>193.8</ele>
        <time>2015-10-31T12:01:47Z</time>
      </trkpt>
      <trkpt lat="44.46021" lon="1.75649">
        <ele>195.5</ele>
        <time>2015-10-31T12:01:48Z</time>
      </trkpt>
      <trkpt lat="44.46023" lon="1.75646">
        <ele>196.1</ele>
        <time>2015-10-31T12:01:49Z</time>
      </trkpt>
      <trkpt lat="44.46028" lon="1.75642">
        <ele>196.1</ele>
        <time>2015-10-31T12:01:50Z</time>
      </trkpt>
      <trkpt lat="44.46034" lon="1.75634">
        <ele>197.4</ele>
        <time>2015-10-31T12:01:52Z</time>
      </trkpt>
      <trkpt lat="44.46038" lon="1.7563">
        <ele>197.5</ele>
        <time>2015-10-31T12:01:53Z</time>
      </trkpt>
      <trkpt lat="44.46041" lon="1.75627">
        <ele>197.6</ele>
        <time>2015-10-31T12:01:54Z</time>
      </trkpt>
      <trkpt lat="44.46044" lon="1.75623">
        <ele>198</ele>
        <time>2015-10-31T12:01:55Z</time>
      </trkpt>
      <trkpt lat="44.46048" lon="1.75621">
        <ele>197.6</ele>
        <time>2015-10-31T12:01:56Z</time>
      </trkpt>
      <trkpt lat="44.46052" lon="1.75618">
        <ele>197.4</ele>
        <time>2015-10-31T12:01:57Z</time>
      </trkpt>
      <trkpt lat="44.46056" lon="1.75615">
        <ele>197.1</ele>
        <time>2015-10-31T12:01:58Z</time>
      </trkpt>
      <trkpt lat="44.4606" lon="1.75613">
        <ele>196.5</ele>
        <time>2015-10-31T12:01:59Z</time>
      </trkpt>
      <trkpt lat="44.46064" lon="1.7561">
        <ele>196.2</ele>
        <time>2015-10-31T12:02:00Z</time>
      </trkpt>
      <trkpt lat="44.46069" lon="1.75608">
        <ele>195.8</ele>
        <time>2015-10-31T12:02:01Z</time>
      </trkpt>
      <trkpt lat="44.46074" lon="1.75605">
        <ele>195.5</ele>
        <time>2015-10-31T12:02:02Z</time>
      </trkpt>
      <trkpt lat="44.46078" lon="1.75601">
        <ele>195.6</ele>
        <time>2015-10-31T12:02:03Z</time>
      </trkpt>
      <trkpt lat="44.46081" lon="1.75598">
        <ele>195.8</ele>
        <time>2015-10-31T12:02:04Z</time>
      </trkpt>
      <trkpt lat="44.46085" lon="1.75595">
        <ele>195.9</ele>
        <time>2015-10-31T12:02:05Z</time>
      </trkpt>
      <trkpt lat="44.46089" lon="1.75593">
        <ele>195.9</ele>
        <time>2015-10-31T12:02:06Z</time>
      </trkpt>
      <trkpt lat="44.46093" lon="1.7559">
        <ele>195.6</ele>
        <time>2015-10-31T12:02:07Z</time>
      </trkpt>
      <trkpt lat="44.46096" lon="1.75588">
        <ele>195.5</ele>
        <time>2015-10-31T12:02:08Z</time>
      </trkpt>
      <trkpt lat="44.461" lon="1.75585">
        <ele>195.6</ele>
        <time>2015-10-31T12:02:09Z</time>
      </trkpt>
      <trkpt lat="44.46104" lon="1.75581">
        <ele>196</ele>
        <time>2015-10-31T12:02:10Z</time>
      </trkpt>
      <trkpt lat="44.46107" lon="1.75578">
        <ele>196.5</ele>
        <time>2015-10-31T12:02:11Z</time>
      </trkpt>
      <trkpt lat="44.46111" lon="1.75575">
        <ele>197</ele>
        <time>2015-10-31T12:02:12Z</time>
      </trkpt>
      <trkpt lat="44.46114" lon="1.75572">
        <ele>197.5</ele>
        <time>2015-10-31T12:02:13Z</time>
      </trkpt>
      <trkpt lat="44.46117" lon="1.75569">
        <ele>198</ele>
        <time>2015-10-31T12:02:14Z</time>
      </trkpt>
      <trkpt lat="44.4612" lon="1.75566">
        <ele>198.4</ele>
        <time>2015-10-31T12:02:15Z</time>
      </trkpt>
      <trkpt lat="44.46123" lon="1.75563">
        <ele>198.5</ele>
        <time>2015-10-31T12:02:16Z</time>
      </trkpt>
      <trkpt lat="44.46127" lon="1.75561">
        <ele>198.8</ele>
        <time>2015-10-31T12:02:17Z</time>
      </trkpt>
      <trkpt lat="44.46131" lon="1.75557">
        <ele>199.5</ele>
        <time>2015-10-31T12:02:18Z</time>
      </trkpt>
      <trkpt lat="44.46135" lon="1.75553">
        <ele>200.3</ele>
        <time>2015-10-31T12:02:19Z</time>
      </trkpt>
      <trkpt lat="44.4614" lon="1.75551">
        <ele>199.6</ele>
        <time>2015-10-31T12:02:20Z</time>
      </trkpt>
      <trkpt lat="44.46145" lon="1.75549">
        <ele>199.1</ele>
        <time>2015-10-31T12:02:21Z</time>
      </trkpt>
      <trkpt lat="44.46152" lon="1.75543">
        <ele>199.7</ele>
        <time>2015-10-31T12:02:22Z</time>
      </trkpt>
      <trkpt lat="44.46158" lon="1.75541">
        <ele>198.9</ele>
        <time>2015-10-31T12:02:23Z</time>
      </trkpt>
      <trkpt lat="44.46165" lon="1.75536">
        <ele>198.5</ele>
        <time>2015-10-31T12:02:24Z</time>
      </trkpt>
      <trkpt lat="44.46171" lon="1.75533">
        <ele>197.6</ele>
        <time>2015-10-31T12:02:25Z</time>
      </trkpt>
      <trkpt lat="44.46176" lon="1.7553">
        <ele>197.6</ele>
        <time>2015-10-31T12:02:26Z</time>
      </trkpt>
      <trkpt lat="44.46183" lon="1.75525">
        <ele>197.5</ele>
        <time>2015-10-31T12:02:27Z</time>
      </trkpt>
      <trkpt lat="44.46185" lon="1.7552">
        <ele>199.2</ele>
        <time>2015-10-31T12:02:28Z</time>
      </trkpt>
      <trkpt lat="44.46189" lon="1.75517">
        <ele>198.9</ele>
        <time>2015-10-31T12:02:29Z</time>
      </trkpt>
      <trkpt lat="44.46194" lon="1.75515">
        <ele>198.1</ele>
        <time>2015-10-31T12:02:30Z</time>
      </trkpt>
      <trkpt lat="44.46198" lon="1.75507">
        <ele>200.4</ele>
        <time>2015-10-31T12:02:31Z</time>
      </trkpt>
      <trkpt lat="44.46201" lon="1.75503">
        <ele>201.2</ele>
        <time>2015-10-31T12:02:32Z</time>
      </trkpt>
      <trkpt lat="44.46204" lon="1.755">
        <ele>201.4</ele>
        <time>2015-10-31T12:02:33Z</time>
      </trkpt>
      <trkpt lat="44.46209" lon="1.75497">
        <ele>201.3</ele>
        <time>2015-10-31T12:02:34Z</time>
      </trkpt>
      <trkpt lat="44.46213" lon="1.75495">
        <ele>200.4</ele>
        <time>2015-10-31T12:02:35Z</time>
      </trkpt>
      <trkpt lat="44.46217" lon="1.75492">
        <ele>199.9</ele>
        <time>2015-10-31T12:02:36Z</time>
      </trkpt>
      <trkpt lat="44.46222" lon="1.75489">
        <ele>199.1</ele>
        <time>2015-10-31T12:02:37Z</time>
      </trkpt>
      <trkpt lat="44.46229" lon="1.75482">
        <ele>199.6</ele>
        <time>2015-10-31T12:02:38Z</time>
      </trkpt>
      <trkpt lat="44.46234" lon="1.75479">
        <ele>198.5</ele>
        <time>2015-10-31T12:02:39Z</time>
      </trkpt>
      <trkpt lat="44.46236" lon="1.75476">
        <ele>198.7</ele>
        <time>2015-10-31T12:02:40Z</time>
      </trkpt>
      <trkpt lat="44.46241" lon="1.75474">
        <ele>197.8</ele>
        <time>2015-10-31T12:02:41Z</time>
      </trkpt>
      <trkpt lat="44.46245" lon="1.75472">
        <ele>196.7</ele>
        <time>2015-10-31T12:02:42Z</time>
      </trkpt>
      <trkpt lat="44.46249" lon="1.75468">
        <ele>196.6</ele>
        <time>2015-10-31T12:02:43Z</time>
      </trkpt>
      <trkpt lat="44.46253" lon="1.75465">
        <ele>196</ele>
        <time>2015-10-31T12:02:44Z</time>
      </trkpt>
      <trkpt lat="44.46257" lon="1.75461">
        <ele>195.8</ele>
        <time>2015-10-31T12:02:45Z</time>
      </trkpt>
      <trkpt lat="44.46262" lon="1.75457">
        <ele>194.8</ele>
        <time>2015-10-31T12:02:46Z</time>
      </trkpt>
      <trkpt lat="44.46265" lon="1.75453">
        <ele>193.7</ele>
        <time>2015-10-31T12:02:47Z</time>
      </trkpt>
      <trkpt lat="44.46271" lon="1.75447">
        <ele>192.1</ele>
        <time>2015-10-31T12:02:48Z</time>
      </trkpt>
      <trkpt lat="44.46275" lon="1.75444">
        <ele>190.9</ele>
        <time>2015-10-31T12:02:49Z</time>
      </trkpt>
      <trkpt lat="44.46278" lon="1.75438">
        <ele>190.6</ele>
        <time>2015-10-31T12:02:50Z</time>
      </trkpt>
      <trkpt lat="44.46282" lon="1.75434">
        <ele>189.6</ele>
        <time>2015-10-31T12:02:51Z</time>
      </trkpt>
      <trkpt lat="44.46285" lon="1.75429">
        <ele>188.8</ele>
        <time>2015-10-31T12:02:52Z</time>
      </trkpt>
      <trkpt lat="44.46291" lon="1.75427">
        <ele>187</ele>
        <time>2015-10-31T12:02:53Z</time>
      </trkpt>
      <trkpt lat="44.46294" lon="1.75425">
        <ele>186.2</ele>
        <time>2015-10-31T12:02:54Z</time>
      </trkpt>
      <trkpt lat="44.46298" lon="1.75422">
        <ele>185.4</ele>
        <time>2015-10-31T12:02:55Z</time>
      </trkpt>
      <trkpt lat="44.46303" lon="1.75419">
        <ele>184</ele>
        <time>2015-10-31T12:02:56Z</time>
      </trkpt>
      <trkpt lat="44.46306" lon="1.75416">
        <ele>183.4</ele>
        <time>2015-10-31T12:02:57Z</time>
      </trkpt>
      <trkpt lat="44.4631" lon="1.75413">
        <ele>182.1</ele>
        <time>2015-10-31T12:02:58Z</time>
      </trkpt>
      <trkpt lat="44.46315" lon="1.75411">
        <ele>180.9</ele>
        <time>2015-10-31T12:02:59Z</time>
      </trkpt>
      <trkpt lat="44.4632" lon="1.75407">
        <ele>179.8</ele>
        <time>2015-10-31T12:03:00Z</time>
      </trkpt>
      <trkpt lat="44.46326" lon="1.75405">
        <ele>178.1</ele>
        <time>2015-10-31T12:03:01Z</time>
      </trkpt>
      <trkpt lat="44.4633" lon="1.75401">
        <ele>177.1</ele>
        <time>2015-10-31T12:03:02Z</time>
      </trkpt>
      <trkpt lat="44.46335" lon="1.75397">
        <ele>176</ele>
        <time>2015-10-31T12:03:03Z</time>
      </trkpt>
      <trkpt lat="44.46338" lon="1.75391">
        <ele>176</ele>
        <time>2015-10-31T12:03:04Z</time>
      </trkpt>
      <trkpt lat="44.46342" lon="1.75388">
        <ele>175.4</ele>
        <time>2015-10-31T12:03:05Z</time>
      </trkpt>
      <trkpt lat="44.46347" lon="1.75384">
        <ele>174.4</ele>
        <time>2015-10-31T12:03:06Z</time>
      </trkpt>
      <trkpt lat="44.46352" lon="1.7538">
        <ele>173.4</ele>
        <time>2015-10-31T12:03:07Z</time>
      </trkpt>
      <trkpt lat="44.46357" lon="1.75374">
        <ele>172.5</ele>
        <time>2015-10-31T12:03:08Z</time>
      </trkpt>
      <trkpt lat="44.46362" lon="1.75369">
        <ele>171</ele>
        <time>2015-10-31T12:03:09Z</time>
      </trkpt>
      <trkpt lat="44.46367" lon="1.75367">
        <ele>169.5</ele>
        <time>2015-10-31T12:03:10Z</time>
      </trkpt>
      <trkpt lat="44.46372" lon="1.75361">
        <ele>168.2</ele>
        <time>2015-10-31T12:03:11Z</time>
      </trkpt>
      <trkpt lat="44.46376" lon="1.75357">
        <ele>167.1</ele>
        <time>2015-10-31T12:03:12Z</time>
      </trkpt>
      <trkpt lat="44.46379" lon="1.75354">
        <ele>166.7</ele>
        <time>2015-10-31T12:03:13Z</time>
      </trkpt>
      <trkpt lat="44.46383" lon="1.75352">
        <ele>166.2</ele>
        <time>2015-10-31T12:03:14Z</time>
      </trkpt>
      <trkpt lat="44.46387" lon="1.75346">
        <ele>165.9</ele>
        <time>2015-10-31T12:03:15Z</time>
      </trkpt>
      <trkpt lat="44.46392" lon="1.75344">
        <ele>165.2</ele>
        <time>2015-10-31T12:03:16Z</time>
      </trkpt>
      <trkpt lat="44.46397" lon="1.75339">
        <ele>164.9</ele>
        <time>2015-10-31T12:03:17Z</time>
      </trkpt>
      <trkpt lat="44.46402" lon="1.75335">
        <ele>164.5</ele>
        <time>2015-10-31T12:03:18Z</time>
      </trkpt>
      <trkpt lat="44.46405" lon="1.7533">
        <ele>164.7</ele>
        <time>2015-10-31T12:03:19Z</time>
      </trkpt>
      <trkpt lat="44.46408" lon="1.75326">
        <ele>164.6</ele>
        <time>2015-10-31T12:03:20Z</time>
      </trkpt>
      <trkpt lat="44.46412" lon="1.75318">
        <ele>165</ele>
        <time>2015-10-31T12:03:21Z</time>
      </trkpt>
      <trkpt lat="44.46414" lon="1.75312">
        <ele>165.5</ele>
        <time>2015-10-31T12:03:22Z</time>
      </trkpt>
      <trkpt lat="44.46419" lon="1.7531">
        <ele>165.2</ele>
        <time>2015-10-31T12:03:23Z</time>
      </trkpt>
      <trkpt lat="44.46421" lon="1.75307">
        <ele>165.3</ele>
        <time>2015-10-31T12:03:24Z</time>
      </trkpt>
      <trkpt lat="44.46424" lon="1.75302">
        <ele>165.7</ele>
        <time>2015-10-31T12:03:25Z</time>
      </trkpt>
      <trkpt lat="44.46427" lon="1.75297">
        <ele>166.1</ele>
        <time>2015-10-31T12:03:26Z</time>
      </trkpt>
      <trkpt lat="44.4643" lon="1.75294">
        <ele>166.4</ele>
        <time>2015-10-31T12:03:27Z</time>
      </trkpt>
      <trkpt lat="44.46432" lon="1.75289">
        <ele>166.7</ele>
        <time>2015-10-31T12:03:28Z</time>
      </trkpt>
      <trkpt lat="44.46435" lon="1.75285">
        <ele>166.6</ele>
        <time>2015-10-31T12:03:29Z</time>
      </trkpt>
      <trkpt lat="44.46438" lon="1.7528">
        <ele>166.7</ele>
        <time>2015-10-31T12:03:30Z</time>
      </trkpt>
      <trkpt lat="44.4644" lon="1.75276">
        <ele>166.7</ele>
        <time>2015-10-31T12:03:31Z</time>
      </trkpt>
      <trkpt lat="44.46444" lon="1.75273">
        <ele>166.7</ele>
        <time>2015-10-31T12:03:32Z</time>
      </trkpt>
      <trkpt lat="44.46447" lon="1.75269">
        <ele>166.7</ele>
        <time>2015-10-31T12:03:33Z</time>
      </trkpt>
      <trkpt lat="44.46451" lon="1.75263">
        <ele>166.8</ele>
        <time>2015-10-31T12:03:34Z</time>
      </trkpt>
      <trkpt lat="44.46453" lon="1.75259">
        <ele>167</ele>
        <time>2015-10-31T12:03:35Z</time>
      </trkpt>
      <trkpt lat="44.46456" lon="1.75256">
        <ele>167.1</ele>
        <time>2015-10-31T12:03:36Z</time>
      </trkpt>
      <trkpt lat="44.46459" lon="1.75252">
        <ele>167.3</ele>
        <time>2015-10-31T12:03:37Z</time>
      </trkpt>
      <trkpt lat="44.46467" lon="1.7524">
        <ele>167.4</ele>
        <time>2015-10-31T12:03:40Z</time>
      </trkpt>
      <trkpt lat="44.46473" lon="1.75232">
        <ele>167.6</ele>
        <time>2015-10-31T12:03:42Z</time>
      </trkpt>
      <trkpt lat="44.46477" lon="1.75229">
        <ele>167.6</ele>
        <time>2015-10-31T12:03:43Z</time>
      </trkpt>
      <trkpt lat="44.46481" lon="1.75225">
        <ele>167.6</ele>
        <time>2015-10-31T12:03:44Z</time>
      </trkpt>
      <trkpt lat="44.46485" lon="1.75222">
        <ele>167.6</ele>
        <time>2015-10-31T12:03:45Z</time>
      </trkpt>
      <trkpt lat="44.46489" lon="1.75219">
        <ele>167.5</ele>
        <time>2015-10-31T12:03:46Z</time>
      </trkpt>
      <trkpt lat="44.46494" lon="1.75216">
        <ele>167.5</ele>
        <time>2015-10-31T12:03:47Z</time>
      </trkpt>
      <trkpt lat="44.46498" lon="1.75213">
        <ele>167.6</ele>
        <time>2015-10-31T12:03:48Z</time>
      </trkpt>
      <trkpt lat="44.46502" lon="1.7521">
        <ele>167.7</ele>
        <time>2015-10-31T12:03:49Z</time>
      </trkpt>
      <trkpt lat="44.46506" lon="1.75207">
        <ele>167.6</ele>
        <time>2015-10-31T12:03:50Z</time>
      </trkpt>
      <trkpt lat="44.4651" lon="1.75204">
        <ele>167.3</ele>
        <time>2015-10-31T12:03:51Z</time>
      </trkpt>
      <trkpt lat="44.46514" lon="1.75201">
        <ele>167</ele>
        <time>2015-10-31T12:03:52Z</time>
      </trkpt>
      <trkpt lat="44.46519" lon="1.75198">
        <ele>166.7</ele>
        <time>2015-10-31T12:03:53Z</time>
      </trkpt>
      <trkpt lat="44.46527" lon="1.75194">
        <ele>166.2</ele>
        <time>2015-10-31T12:03:54Z</time>
      </trkpt>
      <trkpt lat="44.46529" lon="1.75187">
        <ele>166.1</ele>
        <time>2015-10-31T12:03:56Z</time>
      </trkpt>
      <trkpt lat="44.46533" lon="1.75184">
        <ele>166</ele>
        <time>2015-10-31T12:03:57Z</time>
      </trkpt>
      <trkpt lat="44.46537" lon="1.7518">
        <ele>165.9</ele>
        <time>2015-10-31T12:03:58Z</time>
      </trkpt>
      <trkpt lat="44.4654" lon="1.75175">
        <ele>165.8</ele>
        <time>2015-10-31T12:03:59Z</time>
      </trkpt>
      <trkpt lat="44.46543" lon="1.75172">
        <ele>165.7</ele>
        <time>2015-10-31T12:04:00Z</time>
      </trkpt>
      <trkpt lat="44.46546" lon="1.75168">
        <ele>165.3</ele>
        <time>2015-10-31T12:04:01Z</time>
      </trkpt>
      <trkpt lat="44.46549" lon="1.75165">
        <ele>164.9</ele>
        <time>2015-10-31T12:04:02Z</time>
      </trkpt>
      <trkpt lat="44.46552" lon="1.75163">
        <ele>164.5</ele>
        <time>2015-10-31T12:04:03Z</time>
      </trkpt>
      <trkpt lat="44.46556" lon="1.75161">
        <ele>164.1</ele>
        <time>2015-10-31T12:04:04Z</time>
      </trkpt>
      <trkpt lat="44.4656" lon="1.75158">
        <ele>163.7</ele>
        <time>2015-10-31T12:04:05Z</time>
      </trkpt>
      <trkpt lat="44.46564" lon="1.75155">
        <ele>163.4</ele>
        <time>2015-10-31T12:04:06Z</time>
      </trkpt>
      <trkpt lat="44.46568" lon="1.75151">
        <ele>163.1</ele>
        <time>2015-10-31T12:04:07Z</time>
      </trkpt>
      <trkpt lat="44.46575" lon="1.75143">
        <ele>162.9</ele>
        <time>2015-10-31T12:04:08Z</time>
      </trkpt>
      <trkpt lat="44.4658" lon="1.75138">
        <ele>162.9</ele>
        <time>2015-10-31T12:04:09Z</time>
      </trkpt>
      <trkpt lat="44.46585" lon="1.75135">
        <ele>162.8</ele>
        <time>2015-10-31T12:04:10Z</time>
      </trkpt>
      <trkpt lat="44.4659" lon="1.75129">
        <ele>163</ele>
        <time>2015-10-31T12:04:11Z</time>
      </trkpt>
      <trkpt lat="44.46594" lon="1.75126">
        <ele>163</ele>
        <time>2015-10-31T12:04:12Z</time>
      </trkpt>
      <trkpt lat="44.46599" lon="1.75123">
        <ele>162.8</ele>
        <time>2015-10-31T12:04:13Z</time>
      </trkpt>
      <trkpt lat="44.46603" lon="1.75119">
        <ele>162.2</ele>
        <time>2015-10-31T12:04:14Z</time>
      </trkpt>
      <trkpt lat="44.46609" lon="1.75114">
        <ele>161.6</ele>
        <time>2015-10-31T12:04:15Z</time>
      </trkpt>
      <trkpt lat="44.46615" lon="1.75109">
        <ele>160.9</ele>
        <time>2015-10-31T12:04:16Z</time>
      </trkpt>
      <trkpt lat="44.4662" lon="1.75104">
        <ele>160.3</ele>
        <time>2015-10-31T12:04:17Z</time>
      </trkpt>
      <trkpt lat="44.46624" lon="1.75096">
        <ele>159.7</ele>
        <time>2015-10-31T12:04:18Z</time>
      </trkpt>
      <trkpt lat="44.46627" lon="1.75089">
        <ele>158.8</ele>
        <time>2015-10-31T12:04:19Z</time>
      </trkpt>
      <trkpt lat="44.4663" lon="1.75081">
        <ele>157.6</ele>
        <time>2015-10-31T12:04:20Z</time>
      </trkpt>
      <trkpt lat="44.46634" lon="1.75073">
        <ele>156.5</ele>
        <time>2015-10-31T12:04:21Z</time>
      </trkpt>
      <trkpt lat="44.46636" lon="1.75064">
        <ele>155.7</ele>
        <time>2015-10-31T12:04:22Z</time>
      </trkpt>
      <trkpt lat="44.46638" lon="1.75056">
        <ele>155</ele>
        <time>2015-10-31T12:04:23Z</time>
      </trkpt>
      <trkpt lat="44.46638" lon="1.75048">
        <ele>154.7</ele>
        <time>2015-10-31T12:04:24Z</time>
      </trkpt>
      <trkpt lat="44.4664" lon="1.75041">
        <ele>154.1</ele>
        <time>2015-10-31T12:04:25Z</time>
      </trkpt>
      <trkpt lat="44.46638" lon="1.75033">
        <ele>153.5</ele>
        <time>2015-10-31T12:04:26Z</time>
      </trkpt>
      <trkpt lat="44.46639" lon="1.75027">
        <ele>152.6</ele>
        <time>2015-10-31T12:04:27Z</time>
      </trkpt>
      <trkpt lat="44.46639" lon="1.7502">
        <ele>151.9</ele>
        <time>2015-10-31T12:04:28Z</time>
      </trkpt>
      <trkpt lat="44.46637" lon="1.75017">
        <ele>151.9</ele>
        <time>2015-10-31T12:04:29Z</time>
      </trkpt>
      <trkpt lat="44.46637" lon="1.75012">
        <ele>151.4</ele>
        <time>2015-10-31T12:04:30Z</time>
      </trkpt>
      <trkpt lat="44.46638" lon="1.75005">
        <ele>150.3</ele>
        <time>2015-10-31T12:04:31Z</time>
      </trkpt>
      <trkpt lat="44.46638" lon="1.74998">
        <ele>149.5</ele>
        <time>2015-10-31T12:04:32Z</time>
      </trkpt>
      <trkpt lat="44.46637" lon="1.74992">
        <ele>148.9</ele>
        <time>2015-10-31T12:04:33Z</time>
      </trkpt>
      <trkpt lat="44.46638" lon="1.74987">
        <ele>148.2</ele>
        <time>2015-10-31T12:04:34Z</time>
      </trkpt>
      <trkpt lat="44.46638" lon="1.7498">
        <ele>147.5</ele>
        <time>2015-10-31T12:04:35Z</time>
      </trkpt>
      <trkpt lat="44.46638" lon="1.74975">
        <ele>147</ele>
        <time>2015-10-31T12:04:36Z</time>
      </trkpt>
      <trkpt lat="44.46638" lon="1.74969">
        <ele>146.3</ele>
        <time>2015-10-31T12:04:37Z</time>
      </trkpt>
      <trkpt lat="44.46636" lon="1.74964">
        <ele>145.8</ele>
        <time>2015-10-31T12:04:38Z</time>
      </trkpt>
      <trkpt lat="44.46634" lon="1.74958">
        <ele>145.3</ele>
        <time>2015-10-31T12:04:39Z</time>
      </trkpt>
      <trkpt lat="44.46632" lon="1.74953">
        <ele>145.4</ele>
        <time>2015-10-31T12:04:40Z</time>
      </trkpt>
      <trkpt lat="44.4663" lon="1.74948">
        <ele>145.4</ele>
        <time>2015-10-31T12:04:41Z</time>
      </trkpt>
      <trkpt lat="44.46628" lon="1.74942">
        <ele>145.4</ele>
        <time>2015-10-31T12:04:42Z</time>
      </trkpt>
      <trkpt lat="44.46626" lon="1.74936">
        <ele>145.4</ele>
        <time>2015-10-31T12:04:43Z</time>
      </trkpt>
      <trkpt lat="44.46625" lon="1.74929">
        <ele>145.3</ele>
        <time>2015-10-31T12:04:44Z</time>
      </trkpt>
      <trkpt lat="44.46623" lon="1.74923">
        <ele>145.3</ele>
        <time>2015-10-31T12:04:45Z</time>
      </trkpt>
      <trkpt lat="44.46621" lon="1.74918">
        <ele>145.2</ele>
        <time>2015-10-31T12:04:46Z</time>
      </trkpt>
      <trkpt lat="44.46619" lon="1.74913">
        <ele>145.2</ele>
        <time>2015-10-31T12:04:47Z</time>
      </trkpt>
      <trkpt lat="44.46617" lon="1.74908">
        <ele>145.1</ele>
        <time>2015-10-31T12:04:48Z</time>
      </trkpt>
      <trkpt lat="44.46614" lon="1.74903">
        <ele>145.1</ele>
        <time>2015-10-31T12:04:49Z</time>
      </trkpt>
      <trkpt lat="44.46612" lon="1.74898">
        <ele>145</ele>
        <time>2015-10-31T12:04:50Z</time>
      </trkpt>
      <trkpt lat="44.4661" lon="1.74892">
        <ele>144.9</ele>
        <time>2015-10-31T12:04:51Z</time>
      </trkpt>
      <trkpt lat="44.46607" lon="1.74887">
        <ele>144.8</ele>
        <time>2015-10-31T12:04:52Z</time>
      </trkpt>
      <trkpt lat="44.46605" lon="1.74883">
        <ele>144.7</ele>
        <time>2015-10-31T12:04:53Z</time>
      </trkpt>
      <trkpt lat="44.46602" lon="1.74878">
        <ele>144.6</ele>
        <time>2015-10-31T12:04:54Z</time>
      </trkpt>
      <trkpt lat="44.46599" lon="1.74876">
        <ele>144.6</ele>
        <time>2015-10-31T12:04:55Z</time>
      </trkpt>
      <trkpt lat="44.46595" lon="1.74874">
        <ele>144.7</ele>
        <time>2015-10-31T12:04:56Z</time>
      </trkpt>
      <trkpt lat="44.46592" lon="1.74871">
        <ele>144.8</ele>
        <time>2015-10-31T12:04:58Z</time>
      </trkpt>
      <trkpt lat="44.46593" lon="1.74866">
        <ele>144.7</ele>
        <time>2015-10-31T12:04:59Z</time>
      </trkpt>
      <trkpt lat="44.46587" lon="1.74853">
        <ele>144.7</ele>
        <time>2015-10-31T12:05:00Z</time>
      </trkpt>
      <trkpt lat="44.46585" lon="1.74848">
        <ele>144.7</ele>
        <time>2015-10-31T12:05:01Z</time>
      </trkpt>
      <trkpt lat="44.46581" lon="1.74842">
        <ele>144.6</ele>
        <time>2015-10-31T12:05:03Z</time>
      </trkpt>
      <trkpt lat="44.46578" lon="1.74837">
        <ele>144.6</ele>
        <time>2015-10-31T12:05:04Z</time>
      </trkpt>
      <trkpt lat="44.46575" lon="1.74833">
        <ele>144.5</ele>
        <time>2015-10-31T12:05:05Z</time>
      </trkpt>
      <trkpt lat="44.46573" lon="1.74829">
        <ele>144.4</ele>
        <time>2015-10-31T12:05:06Z</time>
      </trkpt>
      <trkpt lat="44.46569" lon="1.74825">
        <ele>144.3</ele>
        <time>2015-10-31T12:05:07Z</time>
      </trkpt>
      <trkpt lat="44.46566" lon="1.74821">
        <ele>144.2</ele>
        <time>2015-10-31T12:05:08Z</time>
      </trkpt>
      <trkpt lat="44.46562" lon="1.74818">
        <ele>144.1</ele>
        <time>2015-10-31T12:05:09Z</time>
      </trkpt>
      <trkpt lat="44.46557" lon="1.74816">
        <ele>144</ele>
        <time>2015-10-31T12:05:10Z</time>
      </trkpt>
      <trkpt lat="44.46553" lon="1.74814">
        <ele>143.9</ele>
        <time>2015-10-31T12:05:11Z</time>
      </trkpt>
      <trkpt lat="44.46549" lon="1.74812">
        <ele>143.8</ele>
        <time>2015-10-31T12:05:12Z</time>
      </trkpt>
      <trkpt lat="44.46545" lon="1.7481">
        <ele>143.7</ele>
        <time>2015-10-31T12:05:13Z</time>
      </trkpt>
      <trkpt lat="44.46541" lon="1.74808">
        <ele>143.6</ele>
        <time>2015-10-31T12:05:14Z</time>
      </trkpt>
      <trkpt lat="44.46537" lon="1.74807">
        <ele>143.7</ele>
        <time>2015-10-31T12:05:15Z</time>
      </trkpt>
      <trkpt lat="44.46533" lon="1.74805">
        <ele>143.8</ele>
        <time>2015-10-31T12:05:16Z</time>
      </trkpt>
      <trkpt lat="44.46529" lon="1.74803">
        <ele>144</ele>
        <time>2015-10-31T12:05:17Z</time>
      </trkpt>
      <trkpt lat="44.46525" lon="1.74801">
        <ele>144.1</ele>
        <time>2015-10-31T12:05:18Z</time>
      </trkpt>
      <trkpt lat="44.46521" lon="1.74799">
        <ele>144.2</ele>
        <time>2015-10-31T12:05:19Z</time>
      </trkpt>
      <trkpt lat="44.46517" lon="1.74798">
        <ele>144.4</ele>
        <time>2015-10-31T12:05:20Z</time>
      </trkpt>
      <trkpt lat="44.46512" lon="1.74797">
        <ele>144.6</ele>
        <time>2015-10-31T12:05:21Z</time>
      </trkpt>
      <trkpt lat="44.46508" lon="1.74797">
        <ele>144.8</ele>
        <time>2015-10-31T12:05:22Z</time>
      </trkpt>
      <trkpt lat="44.46504" lon="1.74798">
        <ele>145</ele>
        <time>2015-10-31T12:05:23Z</time>
      </trkpt>
      <trkpt lat="44.46499" lon="1.74802">
        <ele>145.3</ele>
        <time>2015-10-31T12:05:24Z</time>
      </trkpt>
      <trkpt lat="44.46496" lon="1.74805">
        <ele>145.5</ele>
        <time>2015-10-31T12:05:25Z</time>
      </trkpt>
      <trkpt lat="44.46491" lon="1.74807">
        <ele>145.7</ele>
        <time>2015-10-31T12:05:26Z</time>
      </trkpt>
      <trkpt lat="44.46488" lon="1.7481">
        <ele>146</ele>
        <time>2015-10-31T12:05:27Z</time>
      </trkpt>
      <trkpt lat="44.46484" lon="1.74812">
        <ele>146.2</ele>
        <time>2015-10-31T12:05:28Z</time>
      </trkpt>
      <trkpt lat="44.46481" lon="1.74816">
        <ele>146.4</ele>
        <time>2015-10-31T12:05:29Z</time>
      </trkpt>
      <trkpt lat="44.46477" lon="1.74819">
        <ele>146.6</ele>
        <time>2015-10-31T12:05:30Z</time>
      </trkpt>
      <trkpt lat="44.46472" lon="1.74821">
        <ele>146.8</ele>
        <time>2015-10-31T12:05:31Z</time>
      </trkpt>
      <trkpt lat="44.46469" lon="1.74824">
        <ele>147</ele>
        <time>2015-10-31T12:05:32Z</time>
      </trkpt>
      <trkpt lat="44.46465" lon="1.74827">
        <ele>147.2</ele>
        <time>2015-10-31T12:05:33Z</time>
      </trkpt>
      <trkpt lat="44.46463" lon="1.7483">
        <ele>147.3</ele>
        <time>2015-10-31T12:05:34Z</time>
      </trkpt>
      <trkpt lat="44.4646" lon="1.74832">
        <ele>147.4</ele>
        <time>2015-10-31T12:05:35Z</time>
      </trkpt>
      <trkpt lat="44.46457" lon="1.74835">
        <ele>147.5</ele>
        <time>2015-10-31T12:05:36Z</time>
      </trkpt>
      <trkpt lat="44.46453" lon="1.74838">
        <ele>147.5</ele>
        <time>2015-10-31T12:05:38Z</time>
      </trkpt>
      <trkpt lat="44.4645" lon="1.74841">
        <ele>147.4</ele>
        <time>2015-10-31T12:05:40Z</time>
      </trkpt>
      <trkpt lat="44.46445" lon="1.74844">
        <ele>147.4</ele>
        <time>2015-10-31T12:05:42Z</time>
      </trkpt>
      <trkpt lat="44.46442" lon="1.74845">
        <ele>147.3</ele>
        <time>2015-10-31T12:05:43Z</time>
      </trkpt>
      <trkpt lat="44.46438" lon="1.74847">
        <ele>147.3</ele>
        <time>2015-10-31T12:05:44Z</time>
      </trkpt>
      <trkpt lat="44.46434" lon="1.74849">
        <ele>147.2</ele>
        <time>2015-10-31T12:05:45Z</time>
      </trkpt>
      <trkpt lat="44.4643" lon="1.7485">
        <ele>147.1</ele>
        <time>2015-10-31T12:05:46Z</time>
      </trkpt>
      <trkpt lat="44.46426" lon="1.74852">
        <ele>147.1</ele>
        <time>2015-10-31T12:05:47Z</time>
      </trkpt>
      <trkpt lat="44.46422" lon="1.74853">
        <ele>147</ele>
        <time>2015-10-31T12:05:48Z</time>
      </trkpt>
      <trkpt lat="44.46418" lon="1.74854">
        <ele>146.9</ele>
        <time>2015-10-31T12:05:49Z</time>
      </trkpt>
      <trkpt lat="44.46414" lon="1.74855">
        <ele>146.8</ele>
        <time>2015-10-31T12:05:50Z</time>
      </trkpt>
      <trkpt lat="44.4641" lon="1.74856">
        <ele>146.7</ele>
        <time>2015-10-31T12:05:51Z</time>
      </trkpt>
      <trkpt lat="44.46406" lon="1.74856">
        <ele>146.7</ele>
        <time>2015-10-31T12:05:52Z</time>
      </trkpt>
      <trkpt lat="44.46401" lon="1.74857">
        <ele>146.6</ele>
        <time>2015-10-31T12:05:53Z</time>
      </trkpt>
      <trkpt lat="44.46397" lon="1.74859">
        <ele>146.5</ele>
        <time>2015-10-31T12:05:54Z</time>
      </trkpt>
      <trkpt lat="44.46393" lon="1.7486">
        <ele>146.4</ele>
        <time>2015-10-31T12:05:55Z</time>
      </trkpt>
      <trkpt lat="44.46389" lon="1.74862">
        <ele>146.3</ele>
        <time>2015-10-31T12:05:56Z</time>
      </trkpt>
      <trkpt lat="44.46385" lon="1.74864">
        <ele>146.2</ele>
        <time>2015-10-31T12:05:57Z</time>
      </trkpt>
      <trkpt lat="44.46381" lon="1.74865">
        <ele>146.1</ele>
        <time>2015-10-31T12:05:58Z</time>
      </trkpt>
      <trkpt lat="44.46377" lon="1.74867">
        <ele>146.1</ele>
        <time>2015-10-31T12:05:59Z</time>
      </trkpt>
      <trkpt lat="44.46374" lon="1.74869">
        <ele>146</ele>
        <time>2015-10-31T12:06:00Z</time>
      </trkpt>
      <trkpt lat="44.4637" lon="1.74871">
        <ele>146.1</ele>
        <time>2015-10-31T12:06:01Z</time>
      </trkpt>
      <trkpt lat="44.46366" lon="1.74872">
        <ele>146.2</ele>
        <time>2015-10-31T12:06:02Z</time>
      </trkpt>
      <trkpt lat="44.46362" lon="1.74873">
        <ele>146.3</ele>
        <time>2015-10-31T12:06:03Z</time>
      </trkpt>
      <trkpt lat="44.46358" lon="1.74874">
        <ele>146.4</ele>
        <time>2015-10-31T12:06:04Z</time>
      </trkpt>
      <trkpt lat="44.46354" lon="1.74875">
        <ele>146.5</ele>
        <time>2015-10-31T12:06:05Z</time>
      </trkpt>
      <trkpt lat="44.4635" lon="1.74877">
        <ele>146.7</ele>
        <time>2015-10-31T12:06:06Z</time>
      </trkpt>
      <trkpt lat="44.46346" lon="1.74877">
        <ele>146.9</ele>
        <time>2015-10-31T12:06:07Z</time>
      </trkpt>
      <trkpt lat="44.46342" lon="1.74879">
        <ele>147</ele>
        <time>2015-10-31T12:06:08Z</time>
      </trkpt>
      <trkpt lat="44.46338" lon="1.7488">
        <ele>147.2</ele>
        <time>2015-10-31T12:06:09Z</time>
      </trkpt>
      <trkpt lat="44.46334" lon="1.74882">
        <ele>147.4</ele>
        <time>2015-10-31T12:06:10Z</time>
      </trkpt>
      <trkpt lat="44.4633" lon="1.74883">
        <ele>147.6</ele>
        <time>2015-10-31T12:06:11Z</time>
      </trkpt>
      <trkpt lat="44.46327" lon="1.74886">
        <ele>147.8</ele>
        <time>2015-10-31T12:06:12Z</time>
      </trkpt>
      <trkpt lat="44.46323" lon="1.74888">
        <ele>148</ele>
        <time>2015-10-31T12:06:13Z</time>
      </trkpt>
      <trkpt lat="44.46319" lon="1.74891">
        <ele>148.2</ele>
        <time>2015-10-31T12:06:14Z</time>
      </trkpt>
      <trkpt lat="44.46316" lon="1.74893">
        <ele>148.3</ele>
        <time>2015-10-31T12:06:15Z</time>
      </trkpt>
      <trkpt lat="44.46312" lon="1.74896">
        <ele>148.5</ele>
        <time>2015-10-31T12:06:16Z</time>
      </trkpt>
      <trkpt lat="44.46309" lon="1.74898">
        <ele>148.6</ele>
        <time>2015-10-31T12:06:17Z</time>
      </trkpt>
      <trkpt lat="44.46305" lon="1.749">
        <ele>148.8</ele>
        <time>2015-10-31T12:06:18Z</time>
      </trkpt>
      <trkpt lat="44.46302" lon="1.74902">
        <ele>148.9</ele>
        <time>2015-10-31T12:06:19Z</time>
      </trkpt>
      <trkpt lat="44.46299" lon="1.74905">
        <ele>149</ele>
        <time>2015-10-31T12:06:20Z</time>
      </trkpt>
      <trkpt lat="44.46295" lon="1.74907">
        <ele>149.1</ele>
        <time>2015-10-31T12:06:21Z</time>
      </trkpt>
      <trkpt lat="44.46292" lon="1.7491">
        <ele>149.2</ele>
        <time>2015-10-31T12:06:22Z</time>
      </trkpt>
      <trkpt lat="44.46289" lon="1.74912">
        <ele>149.4</ele>
        <time>2015-10-31T12:06:23Z</time>
      </trkpt>
      <trkpt lat="44.46285" lon="1.74914">
        <ele>149.6</ele>
        <time>2015-10-31T12:06:24Z</time>
      </trkpt>
      <trkpt lat="44.46281" lon="1.74915">
        <ele>149.8</ele>
        <time>2015-10-31T12:06:25Z</time>
      </trkpt>
      <trkpt lat="44.46277" lon="1.74916">
        <ele>149.9</ele>
        <time>2015-10-31T12:06:26Z</time>
      </trkpt>
      <trkpt lat="44.46273" lon="1.74916">
        <ele>150</ele>
        <time>2015-10-31T12:06:27Z</time>
      </trkpt>
      <trkpt lat="44.46268" lon="1.74916">
        <ele>150.2</ele>
        <time>2015-10-31T12:06:28Z</time>
      </trkpt>
      <trkpt lat="44.46264" lon="1.74916">
        <ele>150.3</ele>
        <time>2015-10-31T12:06:29Z</time>
      </trkpt>
      <trkpt lat="44.4626" lon="1.74915">
        <ele>150.4</ele>
        <time>2015-10-31T12:06:30Z</time>
      </trkpt>
      <trkpt lat="44.46257" lon="1.74913">
        <ele>150.4</ele>
        <time>2015-10-31T12:06:31Z</time>
      </trkpt>
      <trkpt lat="44.46254" lon="1.74911">
        <ele>150.4</ele>
        <time>2015-10-31T12:06:32Z</time>
      </trkpt>
      <trkpt lat="44.46252" lon="1.74909">
        <ele>150.4</ele>
        <time>2015-10-31T12:06:33Z</time>
      </trkpt>
      <trkpt lat="44.46248" lon="1.74903">
        <ele>150.2</ele>
        <time>2015-10-31T12:06:35Z</time>
      </trkpt>
      <trkpt lat="44.46247" lon="1.74899">
        <ele>150.1</ele>
        <time>2015-10-31T12:06:36Z</time>
      </trkpt>
      <trkpt lat="44.46245" lon="1.74896">
        <ele>150</ele>
        <time>2015-10-31T12:06:37Z</time>
      </trkpt>
      <trkpt lat="44.46244" lon="1.74893">
        <ele>149.9</ele>
        <time>2015-10-31T12:06:38Z</time>
      </trkpt>
      <trkpt lat="44.46242" lon="1.74889">
        <ele>149.8</ele>
        <time>2015-10-31T12:06:39Z</time>
      </trkpt>
      <trkpt lat="44.4624" lon="1.74883">
        <ele>149.6</ele>
        <time>2015-10-31T12:06:41Z</time>
      </trkpt>
      <trkpt lat="44.46237" lon="1.74876">
        <ele>149.4</ele>
        <time>2015-10-31T12:06:43Z</time>
      </trkpt>
      <trkpt lat="44.46235" lon="1.74873">
        <ele>149.6</ele>
        <time>2015-10-31T12:06:44Z</time>
      </trkpt>
      <trkpt lat="44.46234" lon="1.74869">
        <ele>150</ele>
        <time>2015-10-31T12:06:45Z</time>
      </trkpt>
      <trkpt lat="44.46231" lon="1.74865">
        <ele>150.5</ele>
        <time>2015-10-31T12:06:46Z</time>
      </trkpt>
      <trkpt lat="44.46229" lon="1.74861">
        <ele>150.9</ele>
        <time>2015-10-31T12:06:47Z</time>
      </trkpt>
      <trkpt lat="44.46227" lon="1.74857">
        <ele>151.4</ele>
        <time>2015-10-31T12:06:48Z</time>
      </trkpt>
      <trkpt lat="44.46226" lon="1.74854">
        <ele>151.8</ele>
        <time>2015-10-31T12:06:49Z</time>
      </trkpt>
      <trkpt lat="44.46224" lon="1.74851">
        <ele>152.2</ele>
        <time>2015-10-31T12:06:50Z</time>
      </trkpt>
      <trkpt lat="44.46221" lon="1.74846">
        <ele>152.8</ele>
        <time>2015-10-31T12:06:52Z</time>
      </trkpt>
      <trkpt lat="44.46219" lon="1.74842">
        <ele>153.4</ele>
        <time>2015-10-31T12:06:54Z</time>
      </trkpt>
      <trkpt lat="44.46218" lon="1.74839">
        <ele>153.9</ele>
        <time>2015-10-31T12:06:56Z</time>
      </trkpt>
      <trkpt lat="44.46217" lon="1.74833">
        <ele>154.5</ele>
        <time>2015-10-31T12:06:59Z</time>
      </trkpt>
      <trkpt lat="44.46217" lon="1.74829">
        <ele>154.9</ele>
        <time>2015-10-31T12:07:02Z</time>
      </trkpt>
      <trkpt lat="44.46218" lon="1.74826">
        <ele>155.3</ele>
        <time>2015-10-31T12:07:04Z</time>
      </trkpt>
      <trkpt lat="44.46221" lon="1.74823">
        <ele>155.4</ele>
        <time>2015-10-31T12:07:06Z</time>
      </trkpt>
      <trkpt lat="44.46224" lon="1.7482">
        <ele>155.5</ele>
        <time>2015-10-31T12:07:08Z</time>
      </trkpt>
      <trkpt lat="44.46226" lon="1.74816">
        <ele>155.7</ele>
        <time>2015-10-31T12:07:10Z</time>
      </trkpt>
      <trkpt lat="44.4623" lon="1.74812">
        <ele>155.9</ele>
        <time>2015-10-31T12:07:12Z</time>
      </trkpt>
      <trkpt lat="44.46232" lon="1.7481">
        <ele>155.9</ele>
        <time>2015-10-31T12:07:13Z</time>
      </trkpt>
      <trkpt lat="44.46236" lon="1.74806">
        <ele>156</ele>
        <time>2015-10-31T12:07:15Z</time>
      </trkpt>
      <trkpt lat="44.4624" lon="1.74801">
        <ele>156.1</ele>
        <time>2015-10-31T12:07:17Z</time>
      </trkpt>
      <trkpt lat="44.46243" lon="1.74796">
        <ele>156.3</ele>
        <time>2015-10-31T12:07:19Z</time>
      </trkpt>
      <trkpt lat="44.46247" lon="1.74792">
        <ele>156.3</ele>
        <time>2015-10-31T12:07:21Z</time>
      </trkpt>
      <trkpt lat="44.4625" lon="1.74787">
        <ele>156</ele>
        <time>2015-10-31T12:07:23Z</time>
      </trkpt>
      <trkpt lat="44.46252" lon="1.74783">
        <ele>155.6</ele>
        <time>2015-10-31T12:07:25Z</time>
      </trkpt>
      <trkpt lat="44.46255" lon="1.7478">
        <ele>155.3</ele>
        <time>2015-10-31T12:07:27Z</time>
      </trkpt>
      <trkpt lat="44.46257" lon="1.74776">
        <ele>155</ele>
        <time>2015-10-31T12:07:29Z</time>
      </trkpt>
      <trkpt lat="44.4626" lon="1.74772">
        <ele>154.6</ele>
        <time>2015-10-31T12:07:31Z</time>
      </trkpt>
      <trkpt lat="44.46263" lon="1.74766">
        <ele>154.1</ele>
        <time>2015-10-31T12:07:33Z</time>
      </trkpt>
      <trkpt lat="44.46266" lon="1.7476">
        <ele>153.5</ele>
        <time>2015-10-31T12:07:35Z</time>
      </trkpt>
      <trkpt lat="44.46268" lon="1.74757">
        <ele>153.2</ele>
        <time>2015-10-31T12:07:36Z</time>
      </trkpt>
      <trkpt lat="44.46269" lon="1.74753">
        <ele>152.9</ele>
        <time>2015-10-31T12:07:37Z</time>
      </trkpt>
      <trkpt lat="44.46273" lon="1.74749">
        <ele>152.4</ele>
        <time>2015-10-31T12:07:38Z</time>
      </trkpt>
      <trkpt lat="44.46275" lon="1.74745">
        <ele>151.9</ele>
        <time>2015-10-31T12:07:39Z</time>
      </trkpt>
      <trkpt lat="44.46278" lon="1.74741">
        <ele>151.4</ele>
        <time>2015-10-31T12:07:40Z</time>
      </trkpt>
      <trkpt lat="44.4628" lon="1.74736">
        <ele>150.9</ele>
        <time>2015-10-31T12:07:41Z</time>
      </trkpt>
      <trkpt lat="44.46282" lon="1.74732">
        <ele>150.4</ele>
        <time>2015-10-31T12:07:42Z</time>
      </trkpt>
      <trkpt lat="44.46285" lon="1.74728">
        <ele>150</ele>
        <time>2015-10-31T12:07:43Z</time>
      </trkpt>
      <trkpt lat="44.46286" lon="1.74723">
        <ele>149.5</ele>
        <time>2015-10-31T12:07:44Z</time>
      </trkpt>
      <trkpt lat="44.46287" lon="1.74719">
        <ele>149.1</ele>
        <time>2015-10-31T12:07:45Z</time>
      </trkpt>
      <trkpt lat="44.46289" lon="1.74714">
        <ele>148.7</ele>
        <time>2015-10-31T12:07:46Z</time>
      </trkpt>
      <trkpt lat="44.46289" lon="1.74708">
        <ele>148.4</ele>
        <time>2015-10-31T12:07:47Z</time>
      </trkpt>
      <trkpt lat="44.46289" lon="1.74703">
        <ele>148.2</ele>
        <time>2015-10-31T12:07:48Z</time>
      </trkpt>
      <trkpt lat="44.46289" lon="1.74697">
        <ele>148.1</ele>
        <time>2015-10-31T12:07:49Z</time>
      </trkpt>
      <trkpt lat="44.46289" lon="1.74692">
        <ele>148</ele>
        <time>2015-10-31T12:07:50Z</time>
      </trkpt>
      <trkpt lat="44.46289" lon="1.74687">
        <ele>147.9</ele>
        <time>2015-10-31T12:07:51Z</time>
      </trkpt>
      <trkpt lat="44.46288" lon="1.74681">
        <ele>147.8</ele>
        <time>2015-10-31T12:07:52Z</time>
      </trkpt>
      <trkpt lat="44.46287" lon="1.74676">
        <ele>147.8</ele>
        <time>2015-10-31T12:07:53Z</time>
      </trkpt>
      <trkpt lat="44.46286" lon="1.74671">
        <ele>147.8</ele>
        <time>2015-10-31T12:07:54Z</time>
      </trkpt>
      <trkpt lat="44.46285" lon="1.74665">
        <ele>147.8</ele>
        <time>2015-10-31T12:07:55Z</time>
      </trkpt>
      <trkpt lat="44.46284" lon="1.7466">
        <ele>147.7</ele>
        <time>2015-10-31T12:07:56Z</time>
      </trkpt>
      <trkpt lat="44.46283" lon="1.74655">
        <ele>147.7</ele>
        <time>2015-10-31T12:07:57Z</time>
      </trkpt>
      <trkpt lat="44.46281" lon="1.74651">
        <ele>147.7</ele>
        <time>2015-10-31T12:07:58Z</time>
      </trkpt>
      <trkpt lat="44.4628" lon="1.74646">
        <ele>147.7</ele>
        <time>2015-10-31T12:07:59Z</time>
      </trkpt>
      <trkpt lat="44.46279" lon="1.74642">
        <ele>147.7</ele>
        <time>2015-10-31T12:08:00Z</time>
      </trkpt>
      <trkpt lat="44.46278" lon="1.74637">
        <ele>147.6</ele>
        <time>2015-10-31T12:08:01Z</time>
      </trkpt>
      <trkpt lat="44.46276" lon="1.74632">
        <ele>147.6</ele>
        <time>2015-10-31T12:08:02Z</time>
      </trkpt>
      <trkpt lat="44.46275" lon="1.74628">
        <ele>147.5</ele>
        <time>2015-10-31T12:08:03Z</time>
      </trkpt>
      <trkpt lat="44.46274" lon="1.74623">
        <ele>147.4</ele>
        <time>2015-10-31T12:08:04Z</time>
      </trkpt>
      <trkpt lat="44.46273" lon="1.74618">
        <ele>147.4</ele>
        <time>2015-10-31T12:08:05Z</time>
      </trkpt>
      <trkpt lat="44.46272" lon="1.74612">
        <ele>147.4</ele>
        <time>2015-10-31T12:08:06Z</time>
      </trkpt>
      <trkpt lat="44.4627" lon="1.74607">
        <ele>147.3</ele>
        <time>2015-10-31T12:08:07Z</time>
      </trkpt>
      <trkpt lat="44.46269" lon="1.74602">
        <ele>147.2</ele>
        <time>2015-10-31T12:08:08Z</time>
      </trkpt>
      <trkpt lat="44.46268" lon="1.74597">
        <ele>147.2</ele>
        <time>2015-10-31T12:08:09Z</time>
      </trkpt>
      <trkpt lat="44.46267" lon="1.74593">
        <ele>147.1</ele>
        <time>2015-10-31T12:08:10Z</time>
      </trkpt>
      <trkpt lat="44.46266" lon="1.74588">
        <ele>147</ele>
        <time>2015-10-31T12:08:11Z</time>
      </trkpt>
      <trkpt lat="44.46264" lon="1.74581">
        <ele>146.9</ele>
        <time>2015-10-31T12:08:13Z</time>
      </trkpt>
      <trkpt lat="44.46262" lon="1.74577">
        <ele>146.9</ele>
        <time>2015-10-31T12:08:14Z</time>
      </trkpt>
      <trkpt lat="44.46261" lon="1.74572">
        <ele>146.8</ele>
        <time>2015-10-31T12:08:15Z</time>
      </trkpt>
      <trkpt lat="44.46259" lon="1.74568">
        <ele>146.7</ele>
        <time>2015-10-31T12:08:16Z</time>
      </trkpt>
      <trkpt lat="44.46258" lon="1.74563">
        <ele>146.6</ele>
        <time>2015-10-31T12:08:17Z</time>
      </trkpt>
      <trkpt lat="44.46256" lon="1.74559">
        <ele>146.5</ele>
        <time>2015-10-31T12:08:18Z</time>
      </trkpt>
      <trkpt lat="44.46255" lon="1.74555">
        <ele>146.4</ele>
        <time>2015-10-31T12:08:19Z</time>
      </trkpt>
      <trkpt lat="44.46254" lon="1.74551">
        <ele>146.3</ele>
        <time>2015-10-31T12:08:20Z</time>
      </trkpt>
      <trkpt lat="44.46253" lon="1.74547">
        <ele>146.1</ele>
        <time>2015-10-31T12:08:21Z</time>
      </trkpt>
      <trkpt lat="44.46251" lon="1.74543">
        <ele>146</ele>
        <time>2015-10-31T12:08:22Z</time>
      </trkpt>
      <trkpt lat="44.4625" lon="1.74539">
        <ele>145.9</ele>
        <time>2015-10-31T12:08:23Z</time>
      </trkpt>
      <trkpt lat="44.46249" lon="1.74535">
        <ele>145.8</ele>
        <time>2015-10-31T12:08:24Z</time>
      </trkpt>
      <trkpt lat="44.46248" lon="1.74532">
        <ele>145.6</ele>
        <time>2015-10-31T12:08:25Z</time>
      </trkpt>
      <trkpt lat="44.46246" lon="1.74528">
        <ele>145.5</ele>
        <time>2015-10-31T12:08:26Z</time>
      </trkpt>
      <trkpt lat="44.46246" lon="1.74523">
        <ele>145.3</ele>
        <time>2015-10-31T12:08:27Z</time>
      </trkpt>
      <trkpt lat="44.46245" lon="1.74519">
        <ele>145.1</ele>
        <time>2015-10-31T12:08:28Z</time>
      </trkpt>
      <trkpt lat="44.46244" lon="1.74514">
        <ele>144.9</ele>
        <time>2015-10-31T12:08:29Z</time>
      </trkpt>
      <trkpt lat="44.46243" lon="1.74509">
        <ele>144.6</ele>
        <time>2015-10-31T12:08:30Z</time>
      </trkpt>
      <trkpt lat="44.46241" lon="1.74504">
        <ele>144.4</ele>
        <time>2015-10-31T12:08:31Z</time>
      </trkpt>
      <trkpt lat="44.46239" lon="1.74498">
        <ele>144.1</ele>
        <time>2015-10-31T12:08:32Z</time>
      </trkpt>
      <trkpt lat="44.46238" lon="1.74493">
        <ele>143.8</ele>
        <time>2015-10-31T12:08:33Z</time>
      </trkpt>
      <trkpt lat="44.46236" lon="1.74487">
        <ele>143.5</ele>
        <time>2015-10-31T12:08:34Z</time>
      </trkpt>
      <trkpt lat="44.46235" lon="1.74482">
        <ele>143.2</ele>
        <time>2015-10-31T12:08:35Z</time>
      </trkpt>
      <trkpt lat="44.46235" lon="1.74476">
        <ele>142.9</ele>
        <time>2015-10-31T12:08:36Z</time>
      </trkpt>
      <trkpt lat="44.46234" lon="1.7447">
        <ele>142.6</ele>
        <time>2015-10-31T12:08:37Z</time>
      </trkpt>
      <trkpt lat="44.46232" lon="1.74464">
        <ele>142.2</ele>
        <time>2015-10-31T12:08:38Z</time>
      </trkpt>
      <trkpt lat="44.46231" lon="1.74458">
        <ele>141.8</ele>
        <time>2015-10-31T12:08:39Z</time>
      </trkpt>
      <trkpt lat="44.4623" lon="1.74451">
        <ele>141.5</ele>
        <time>2015-10-31T12:08:40Z</time>
      </trkpt>
      <trkpt lat="44.46229" lon="1.74445">
        <ele>141.3</ele>
        <time>2015-10-31T12:08:41Z</time>
      </trkpt>
      <trkpt lat="44.46228" lon="1.74438">
        <ele>141</ele>
        <time>2015-10-31T12:08:42Z</time>
      </trkpt>
      <trkpt lat="44.46228" lon="1.74431">
        <ele>140.8</ele>
        <time>2015-10-31T12:08:43Z</time>
      </trkpt>
      <trkpt lat="44.46227" lon="1.74425">
        <ele>140.6</ele>
        <time>2015-10-31T12:08:44Z</time>
      </trkpt>
      <trkpt lat="44.46227" lon="1.74419">
        <ele>140.4</ele>
        <time>2015-10-31T12:08:45Z</time>
      </trkpt>
      <trkpt lat="44.46226" lon="1.74413">
        <ele>140.1</ele>
        <time>2015-10-31T12:08:46Z</time>
      </trkpt>
      <trkpt lat="44.46226" lon="1.74407">
        <ele>139.9</ele>
        <time>2015-10-31T12:08:47Z</time>
      </trkpt>
      <trkpt lat="44.46226" lon="1.74401">
        <ele>139.7</ele>
        <time>2015-10-31T12:08:48Z</time>
      </trkpt>
      <trkpt lat="44.46225" lon="1.74395">
        <ele>139.5</ele>
        <time>2015-10-31T12:08:49Z</time>
      </trkpt>
      <trkpt lat="44.46225" lon="1.74388">
        <ele>139.2</ele>
        <time>2015-10-31T12:08:50Z</time>
      </trkpt>
      <trkpt lat="44.46225" lon="1.74373">
        <ele>138.8</ele>
        <time>2015-10-31T12:08:51Z</time>
      </trkpt>
      <trkpt lat="44.46223" lon="1.74367">
        <ele>138.8</ele>
        <time>2015-10-31T12:08:52Z</time>
      </trkpt>
      <trkpt lat="44.46224" lon="1.7436">
        <ele>138.9</ele>
        <time>2015-10-31T12:08:53Z</time>
      </trkpt>
      <trkpt lat="44.46224" lon="1.74352">
        <ele>138.9</ele>
        <time>2015-10-31T12:08:54Z</time>
      </trkpt>
      <trkpt lat="44.46223" lon="1.74348">
        <ele>138.9</ele>
        <time>2015-10-31T12:08:55Z</time>
      </trkpt>
      <trkpt lat="44.46221" lon="1.74344">
        <ele>138.9</ele>
        <time>2015-10-31T12:08:56Z</time>
      </trkpt>
      <trkpt lat="44.4622" lon="1.74336">
        <ele>138.9</ele>
        <time>2015-10-31T12:08:57Z</time>
      </trkpt>
      <trkpt lat="44.46219" lon="1.74331">
        <ele>138.9</ele>
        <time>2015-10-31T12:08:58Z</time>
      </trkpt>
      <trkpt lat="44.46218" lon="1.74324">
        <ele>138.9</ele>
        <time>2015-10-31T12:08:59Z</time>
      </trkpt>
      <trkpt lat="44.46216" lon="1.74317">
        <ele>138.9</ele>
        <time>2015-10-31T12:09:01Z</time>
      </trkpt>
      <trkpt lat="44.46215" lon="1.74312">
        <ele>139</ele>
        <time>2015-10-31T12:09:02Z</time>
      </trkpt>
      <trkpt lat="44.46215" lon="1.74307">
        <ele>139</ele>
        <time>2015-10-31T12:09:03Z</time>
      </trkpt>
      <trkpt lat="44.46213" lon="1.74302">
        <ele>139</ele>
        <time>2015-10-31T12:09:04Z</time>
      </trkpt>
      <trkpt lat="44.46212" lon="1.74296">
        <ele>139</ele>
        <time>2015-10-31T12:09:05Z</time>
      </trkpt>
      <trkpt lat="44.4621" lon="1.74291">
        <ele>139</ele>
        <time>2015-10-31T12:09:06Z</time>
      </trkpt>
      <trkpt lat="44.46209" lon="1.74286">
        <ele>139</ele>
        <time>2015-10-31T12:09:07Z</time>
      </trkpt>
      <trkpt lat="44.46208" lon="1.74281">
        <ele>139</ele>
        <time>2015-10-31T12:09:08Z</time>
      </trkpt>
      <trkpt lat="44.46207" lon="1.74275">
        <ele>139</ele>
        <time>2015-10-31T12:09:09Z</time>
      </trkpt>
      <trkpt lat="44.46206" lon="1.7427">
        <ele>139</ele>
        <time>2015-10-31T12:09:10Z</time>
      </trkpt>
      <trkpt lat="44.46206" lon="1.74265">
        <ele>139</ele>
        <time>2015-10-31T12:09:11Z</time>
      </trkpt>
      <trkpt lat="44.46205" lon="1.7426">
        <ele>139</ele>
        <time>2015-10-31T12:09:12Z</time>
      </trkpt>
      <trkpt lat="44.46205" lon="1.74255">
        <ele>138.9</ele>
        <time>2015-10-31T12:09:13Z</time>
      </trkpt>
      <trkpt lat="44.46204" lon="1.74249">
        <ele>138.9</ele>
        <time>2015-10-31T12:09:14Z</time>
      </trkpt>
      <trkpt lat="44.46203" lon="1.74243">
        <ele>138.9</ele>
        <time>2015-10-31T12:09:15Z</time>
      </trkpt>
      <trkpt lat="44.46202" lon="1.74237">
        <ele>138.9</ele>
        <time>2015-10-31T12:09:16Z</time>
      </trkpt>
      <trkpt lat="44.46202" lon="1.74231">
        <ele>138.9</ele>
        <time>2015-10-31T12:09:17Z</time>
      </trkpt>
      <trkpt lat="44.46202" lon="1.74224">
        <ele>138.9</ele>
        <time>2015-10-31T12:09:18Z</time>
      </trkpt>
      <trkpt lat="44.46204" lon="1.74216">
        <ele>138.9</ele>
        <time>2015-10-31T12:09:19Z</time>
      </trkpt>
      <trkpt lat="44.46205" lon="1.74209">
        <ele>138.9</ele>
        <time>2015-10-31T12:09:20Z</time>
      </trkpt>
      <trkpt lat="44.46207" lon="1.74201">
        <ele>139</ele>
        <time>2015-10-31T12:09:21Z</time>
      </trkpt>
      <trkpt lat="44.46208" lon="1.74194">
        <ele>139.2</ele>
        <time>2015-10-31T12:09:22Z</time>
      </trkpt>
      <trkpt lat="44.46209" lon="1.74187">
        <ele>139.3</ele>
        <time>2015-10-31T12:09:23Z</time>
      </trkpt>
      <trkpt lat="44.4621" lon="1.7418">
        <ele>139.3</ele>
        <time>2015-10-31T12:09:24Z</time>
      </trkpt>
      <trkpt lat="44.46212" lon="1.74174">
        <ele>139.4</ele>
        <time>2015-10-31T12:09:25Z</time>
      </trkpt>
      <trkpt lat="44.46214" lon="1.74168">
        <ele>139.5</ele>
        <time>2015-10-31T12:09:26Z</time>
      </trkpt>
      <trkpt lat="44.46216" lon="1.74162">
        <ele>139.6</ele>
        <time>2015-10-31T12:09:27Z</time>
      </trkpt>
      <trkpt lat="44.46217" lon="1.74156">
        <ele>139.6</ele>
        <time>2015-10-31T12:09:28Z</time>
      </trkpt>
      <trkpt lat="44.46219" lon="1.7415">
        <ele>139.7</ele>
        <time>2015-10-31T12:09:29Z</time>
      </trkpt>
      <trkpt lat="44.46221" lon="1.74144">
        <ele>139.8</ele>
        <time>2015-10-31T12:09:30Z</time>
      </trkpt>
      <trkpt lat="44.46222" lon="1.74138">
        <ele>139.8</ele>
        <time>2015-10-31T12:09:31Z</time>
      </trkpt>
      <trkpt lat="44.46224" lon="1.74133">
        <ele>139.9</ele>
        <time>2015-10-31T12:09:32Z</time>
      </trkpt>
      <trkpt lat="44.46226" lon="1.74127">
        <ele>140</ele>
        <time>2015-10-31T12:09:33Z</time>
      </trkpt>
      <trkpt lat="44.46227" lon="1.74122">
        <ele>140</ele>
        <time>2015-10-31T12:09:34Z</time>
      </trkpt>
      <trkpt lat="44.46229" lon="1.74117">
        <ele>140</ele>
        <time>2015-10-31T12:09:35Z</time>
      </trkpt>
      <trkpt lat="44.4623" lon="1.74112">
        <ele>140</ele>
        <time>2015-10-31T12:09:36Z</time>
      </trkpt>
      <trkpt lat="44.46232" lon="1.74108">
        <ele>140</ele>
        <time>2015-10-31T12:09:37Z</time>
      </trkpt>
      <trkpt lat="44.46233" lon="1.74103">
        <ele>140.1</ele>
        <time>2015-10-31T12:09:38Z</time>
      </trkpt>
      <trkpt lat="44.46235" lon="1.74099">
        <ele>140.1</ele>
        <time>2015-10-31T12:09:39Z</time>
      </trkpt>
      <trkpt lat="44.46237" lon="1.74094">
        <ele>140.1</ele>
        <time>2015-10-31T12:09:40Z</time>
      </trkpt>
      <trkpt lat="44.46238" lon="1.7409">
        <ele>140.2</ele>
        <time>2015-10-31T12:09:41Z</time>
      </trkpt>
      <trkpt lat="44.4624" lon="1.74085">
        <ele>140.2</ele>
        <time>2015-10-31T12:09:42Z</time>
      </trkpt>
      <trkpt lat="44.46242" lon="1.74081">
        <ele>140.3</ele>
        <time>2015-10-31T12:09:43Z</time>
      </trkpt>
      <trkpt lat="44.46243" lon="1.74076">
        <ele>140.4</ele>
        <time>2015-10-31T12:09:44Z</time>
      </trkpt>
      <trkpt lat="44.46245" lon="1.74072">
        <ele>140.5</ele>
        <time>2015-10-31T12:09:45Z</time>
      </trkpt>
      <trkpt lat="44.46246" lon="1.74067">
        <ele>140.6</ele>
        <time>2015-10-31T12:09:46Z</time>
      </trkpt>
      <trkpt lat="44.46248" lon="1.74062">
        <ele>140.7</ele>
        <time>2015-10-31T12:09:47Z</time>
      </trkpt>
      <trkpt lat="44.46249" lon="1.74057">
        <ele>140.8</ele>
        <time>2015-10-31T12:09:48Z</time>
      </trkpt>
      <trkpt lat="44.4625" lon="1.74052">
        <ele>140.9</ele>
        <time>2015-10-31T12:09:49Z</time>
      </trkpt>
      <trkpt lat="44.46252" lon="1.74047">
        <ele>141</ele>
        <time>2015-10-31T12:09:50Z</time>
      </trkpt>
      <trkpt lat="44.46254" lon="1.74043">
        <ele>141.2</ele>
        <time>2015-10-31T12:09:51Z</time>
      </trkpt>
      <trkpt lat="44.46256" lon="1.74038">
        <ele>141.2</ele>
        <time>2015-10-31T12:09:52Z</time>
      </trkpt>
      <trkpt lat="44.46257" lon="1.74033">
        <ele>141.3</ele>
        <time>2015-10-31T12:09:53Z</time>
      </trkpt>
      <trkpt lat="44.46258" lon="1.74029">
        <ele>141.3</ele>
        <time>2015-10-31T12:09:54Z</time>
      </trkpt>
      <trkpt lat="44.4626" lon="1.74024">
        <ele>141.3</ele>
        <time>2015-10-31T12:09:55Z</time>
      </trkpt>
      <trkpt lat="44.46262" lon="1.74021">
        <ele>141.4</ele>
        <time>2015-10-31T12:09:56Z</time>
      </trkpt>
      <trkpt lat="44.46265" lon="1.74019">
        <ele>141.5</ele>
        <time>2015-10-31T12:09:57Z</time>
      </trkpt>
      <trkpt lat="44.46267" lon="1.74016">
        <ele>141.6</ele>
        <time>2015-10-31T12:09:58Z</time>
      </trkpt>
      <trkpt lat="44.46269" lon="1.74013">
        <ele>141.7</ele>
        <time>2015-10-31T12:09:59Z</time>
      </trkpt>
      <trkpt lat="44.4627" lon="1.74009">
        <ele>141.8</ele>
        <time>2015-10-31T12:10:00Z</time>
      </trkpt>
      <trkpt lat="44.46271" lon="1.74005">
        <ele>141.8</ele>
        <time>2015-10-31T12:10:01Z</time>
      </trkpt>
      <trkpt lat="44.4627" lon="1.73998">
        <ele>141.7</ele>
        <time>2015-10-31T12:10:03Z</time>
      </trkpt>
      <trkpt lat="44.46267" lon="1.73992">
        <ele>141.5</ele>
        <time>2015-10-31T12:10:05Z</time>
      </trkpt>
      <trkpt lat="44.46266" lon="1.73988">
        <ele>141.4</ele>
        <time>2015-10-31T12:10:06Z</time>
      </trkpt>
      <trkpt lat="44.46263" lon="1.73982">
        <ele>141.2</ele>
        <time>2015-10-31T12:10:08Z</time>
      </trkpt>
      <trkpt lat="44.46261" lon="1.73975">
        <ele>141</ele>
        <time>2015-10-31T12:10:10Z</time>
      </trkpt>
      <trkpt lat="44.4626" lon="1.73972">
        <ele>140.9</ele>
        <time>2015-10-31T12:10:11Z</time>
      </trkpt>
      <trkpt lat="44.46259" lon="1.73968">
        <ele>140.7</ele>
        <time>2015-10-31T12:10:12Z</time>
      </trkpt>
      <trkpt lat="44.46258" lon="1.73961">
        <ele>140.6</ele>
        <time>2015-10-31T12:10:14Z</time>
      </trkpt>
      <trkpt lat="44.46255" lon="1.73957">
        <ele>140.4</ele>
        <time>2015-10-31T12:10:16Z</time>
      </trkpt>
      <trkpt lat="44.46253" lon="1.73955">
        <ele>140.2</ele>
        <time>2015-10-31T12:10:18Z</time>
      </trkpt>
      <trkpt lat="44.46251" lon="1.73958">
        <ele>140</ele>
        <time>2015-10-31T12:10:21Z</time>
      </trkpt>
      <trkpt lat="44.4625" lon="1.73962">
        <ele>140</ele>
        <time>2015-10-31T12:10:32Z</time>
      </trkpt>
      <trkpt lat="44.46248" lon="1.73968">
        <ele>140</ele>
        <time>2015-10-31T12:10:34Z</time>
      </trkpt>
      <trkpt lat="44.46245" lon="1.73974">
        <ele>139.8</ele>
        <time>2015-10-31T12:10:36Z</time>
      </trkpt>
      <trkpt lat="44.46243" lon="1.73977">
        <ele>139.7</ele>
        <time>2015-10-31T12:10:37Z</time>
      </trkpt>
      <trkpt lat="44.4624" lon="1.73981">
        <ele>139.6</ele>
        <time>2015-10-31T12:10:38Z</time>
      </trkpt>
      <trkpt lat="44.46237" lon="1.73984">
        <ele>139.5</ele>
        <time>2015-10-31T12:10:39Z</time>
      </trkpt>
      <trkpt lat="44.46234" lon="1.7399">
        <ele>139.4</ele>
        <time>2015-10-31T12:10:41Z</time>
      </trkpt>
      <trkpt lat="44.46232" lon="1.73996">
        <ele>139.4</ele>
        <time>2015-10-31T12:10:43Z</time>
      </trkpt>
      <trkpt lat="44.46231" lon="1.74">
        <ele>139.3</ele>
        <time>2015-10-31T12:10:44Z</time>
      </trkpt>
      <trkpt lat="44.46228" lon="1.74006">
        <ele>139.3</ele>
        <time>2015-10-31T12:10:46Z</time>
      </trkpt>
      <trkpt lat="44.46226" lon="1.7401">
        <ele>139.2</ele>
        <time>2015-10-31T12:10:48Z</time>
      </trkpt>
      <trkpt lat="44.46223" lon="1.74013">
        <ele>139.1</ele>
        <time>2015-10-31T12:10:49Z</time>
      </trkpt>
      <trkpt lat="44.46221" lon="1.74015">
        <ele>139.1</ele>
        <time>2015-10-31T12:10:50Z</time>
      </trkpt>
      <trkpt lat="44.46219" lon="1.74018">
        <ele>139</ele>
        <time>2015-10-31T12:10:51Z</time>
      </trkpt>
      <trkpt lat="44.46217" lon="1.7402">
        <ele>138.9</ele>
        <time>2015-10-31T12:10:52Z</time>
      </trkpt>
      <trkpt lat="44.46214" lon="1.74023">
        <ele>138.9</ele>
        <time>2015-10-31T12:10:53Z</time>
      </trkpt>
      <trkpt lat="44.46212" lon="1.74025">
        <ele>138.8</ele>
        <time>2015-10-31T12:10:54Z</time>
      </trkpt>
      <trkpt lat="44.4621" lon="1.74027">
        <ele>138.7</ele>
        <time>2015-10-31T12:10:55Z</time>
      </trkpt>
      <trkpt lat="44.46205" lon="1.7403">
        <ele>138.8</ele>
        <time>2015-10-31T12:10:57Z</time>
      </trkpt>
      <trkpt lat="44.46203" lon="1.74027">
        <ele>138.7</ele>
        <time>2015-10-31T12:11:00Z</time>
      </trkpt>
      <trkpt lat="44.46203" lon="1.74023">
        <ele>138.7</ele>
        <time>2015-10-31T12:11:07Z</time>
      </trkpt>
      <trkpt lat="44.46206" lon="1.74025">
        <ele>138.6</ele>
        <time>2015-10-31T12:11:13Z</time>
      </trkpt>
      <trkpt lat="44.46205" lon="1.74035">
        <ele>138.9</ele>
        <time>2015-10-31T12:11:28Z</time>
      </trkpt>
      <trkpt lat="44.46195" lon="1.74031">
        <ele>139</ele>
        <time>2015-10-31T13:04:59Z</time>
      </trkpt>
      <trkpt lat="44.46196" lon="1.74021">
        <ele>138.7</ele>
        <time>2015-10-31T13:07:12Z</time>
      </trkpt>
      <trkpt lat="44.46199" lon="1.74015">
        <ele>138.6</ele>
        <time>2015-10-31T13:07:14Z</time>
      </trkpt>
      <trkpt lat="44.462" lon="1.74011">
        <ele>138.4</ele>
        <time>2015-10-31T13:07:16Z</time>
      </trkpt>
      <trkpt lat="44.46198" lon="1.74049">
        <ele>139.2</ele>
        <time>2015-10-31T13:07:21Z</time>
      </trkpt>
      <trkpt lat="44.46196" lon="1.74042">
        <ele>139.2</ele>
        <time>2015-10-31T13:07:30Z</time>
      </trkpt>
      <trkpt lat="44.46197" lon="1.74036">
        <ele>139</ele>
        <time>2015-10-31T13:07:33Z</time>
      </trkpt>
      <trkpt lat="44.46199" lon="1.74036">
        <ele>139</ele>
        <time>2015-10-31T13:07:54Z</time>
      </trkpt>
      <trkpt lat="44.46201" lon="1.74032">
        <ele>138.9</ele>
        <time>2015-10-31T13:08:01Z</time>
      </trkpt>
      <trkpt lat="44.46203" lon="1.7403">
        <ele>138.8</ele>
        <time>2015-10-31T13:08:04Z</time>
      </trkpt>
      <trkpt lat="44.46206" lon="1.7403">
        <ele>138.8</ele>
        <time>2015-10-31T13:08:08Z</time>
      </trkpt>
      <trkpt lat="44.46207" lon="1.74017">
        <ele>138.4</ele>
        <time>2015-10-31T13:11:07Z</time>
      </trkpt>
      <trkpt lat="44.46208" lon="1.74012">
        <ele>138.3</ele>
        <time>2015-10-31T13:11:10Z</time>
      </trkpt>
      <trkpt lat="44.4621" lon="1.74008">
        <ele>138.3</ele>
        <time>2015-10-31T13:11:13Z</time>
      </trkpt>
      <trkpt lat="44.46214" lon="1.74006">
        <ele>138.4</ele>
        <time>2015-10-31T13:11:18Z</time>
      </trkpt>
      <trkpt lat="44.46217" lon="1.74003">
        <ele>138.6</ele>
        <time>2015-10-31T13:11:21Z</time>
      </trkpt>
      <trkpt lat="44.4622" lon="1.74001">
        <ele>138.7</ele>
        <time>2015-10-31T13:11:23Z</time>
      </trkpt>
      <trkpt lat="44.46224" lon="1.73997">
        <ele>138.9</ele>
        <time>2015-10-31T13:11:26Z</time>
      </trkpt>
      <trkpt lat="44.46226" lon="1.73994">
        <ele>139</ele>
        <time>2015-10-31T13:11:28Z</time>
      </trkpt>
      <trkpt lat="44.46229" lon="1.73991">
        <ele>139.1</ele>
        <time>2015-10-31T13:11:30Z</time>
      </trkpt>
      <trkpt lat="44.46231" lon="1.73988">
        <ele>139.2</ele>
        <time>2015-10-31T13:11:32Z</time>
      </trkpt>
      <trkpt lat="44.46234" lon="1.73984">
        <ele>139.3</ele>
        <time>2015-10-31T13:11:34Z</time>
      </trkpt>
      <trkpt lat="44.46236" lon="1.73981">
        <ele>139.3</ele>
        <time>2015-10-31T13:11:36Z</time>
      </trkpt>
      <trkpt lat="44.46238" lon="1.73976">
        <ele>139.4</ele>
        <time>2015-10-31T13:11:38Z</time>
      </trkpt>
      <trkpt lat="44.46241" lon="1.73972">
        <ele>139.6</ele>
        <time>2015-10-31T13:11:40Z</time>
      </trkpt>
      <trkpt lat="44.46244" lon="1.73968">
        <ele>139.7</ele>
        <time>2015-10-31T13:11:42Z</time>
      </trkpt>
      <trkpt lat="44.46246" lon="1.73965">
        <ele>139.8</ele>
        <time>2015-10-31T13:11:44Z</time>
      </trkpt>
      <trkpt lat="44.46249" lon="1.73962">
        <ele>139.9</ele>
        <time>2015-10-31T13:11:46Z</time>
      </trkpt>
      <trkpt lat="44.4625" lon="1.73957">
        <ele>140</ele>
        <time>2015-10-31T13:11:49Z</time>
      </trkpt>
      <trkpt lat="44.46252" lon="1.73952">
        <ele>140.1</ele>
        <time>2015-10-31T13:11:52Z</time>
      </trkpt>
      <trkpt lat="44.46251" lon="1.73947">
        <ele>140</ele>
        <time>2015-10-31T13:11:54Z</time>
      </trkpt>
      <trkpt lat="44.46251" lon="1.7394">
        <ele>139.9</ele>
        <time>2015-10-31T13:11:56Z</time>
      </trkpt>
      <trkpt lat="44.46251" lon="1.73929">
        <ele>139.9</ele>
        <time>2015-10-31T13:11:59Z</time>
      </trkpt>
      <trkpt lat="44.46251" lon="1.73922">
        <ele>139.8</ele>
        <time>2015-10-31T13:12:01Z</time>
      </trkpt>
      <trkpt lat="44.4625" lon="1.73915">
        <ele>139.7</ele>
        <time>2015-10-31T13:12:03Z</time>
      </trkpt>
      <trkpt lat="44.46249" lon="1.73908">
        <ele>139.6</ele>
        <time>2015-10-31T13:12:05Z</time>
      </trkpt>
      <trkpt lat="44.4625" lon="1.73904">
        <ele>139.7</ele>
        <time>2015-10-31T13:12:06Z</time>
      </trkpt>
      <trkpt lat="44.46251" lon="1.73896">
        <ele>139.7</ele>
        <time>2015-10-31T13:12:08Z</time>
      </trkpt>
      <trkpt lat="44.46252" lon="1.73889">
        <ele>139.7</ele>
        <time>2015-10-31T13:12:10Z</time>
      </trkpt>
      <trkpt lat="44.46252" lon="1.73885">
        <ele>139.7</ele>
        <time>2015-10-31T13:12:11Z</time>
      </trkpt>
      <trkpt lat="44.46253" lon="1.73881">
        <ele>139.7</ele>
        <time>2015-10-31T13:12:12Z</time>
      </trkpt>
      <trkpt lat="44.46254" lon="1.73874">
        <ele>139.8</ele>
        <time>2015-10-31T13:12:14Z</time>
      </trkpt>
      <trkpt lat="44.46256" lon="1.73866">
        <ele>140</ele>
        <time>2015-10-31T13:12:16Z</time>
      </trkpt>
      <trkpt lat="44.46256" lon="1.73862">
        <ele>140.1</ele>
        <time>2015-10-31T13:12:17Z</time>
      </trkpt>
      <trkpt lat="44.46257" lon="1.73858">
        <ele>140.2</ele>
        <time>2015-10-31T13:12:18Z</time>
      </trkpt>
      <trkpt lat="44.46257" lon="1.7385">
        <ele>140.4</ele>
        <time>2015-10-31T13:12:20Z</time>
      </trkpt>
      <trkpt lat="44.46258" lon="1.73846">
        <ele>140.5</ele>
        <time>2015-10-31T13:12:21Z</time>
      </trkpt>
      <trkpt lat="44.46258" lon="1.73842">
        <ele>140.6</ele>
        <time>2015-10-31T13:12:22Z</time>
      </trkpt>
      <trkpt lat="44.4626" lon="1.73835">
        <ele>140.8</ele>
        <time>2015-10-31T13:12:24Z</time>
      </trkpt>
      <trkpt lat="44.46261" lon="1.73831">
        <ele>140.9</ele>
        <time>2015-10-31T13:12:25Z</time>
      </trkpt>
      <trkpt lat="44.46262" lon="1.73826">
        <ele>141</ele>
        <time>2015-10-31T13:12:26Z</time>
      </trkpt>
      <trkpt lat="44.46263" lon="1.73821">
        <ele>141.1</ele>
        <time>2015-10-31T13:12:27Z</time>
      </trkpt>
      <trkpt lat="44.46264" lon="1.73816">
        <ele>141.3</ele>
        <time>2015-10-31T13:12:28Z</time>
      </trkpt>
      <trkpt lat="44.46265" lon="1.73811">
        <ele>141.4</ele>
        <time>2015-10-31T13:12:29Z</time>
      </trkpt>
      <trkpt lat="44.46266" lon="1.73807">
        <ele>141.5</ele>
        <time>2015-10-31T13:12:30Z</time>
      </trkpt>
      <trkpt lat="44.46267" lon="1.73802">
        <ele>141.7</ele>
        <time>2015-10-31T13:12:31Z</time>
      </trkpt>
      <trkpt lat="44.46268" lon="1.73797">
        <ele>141.8</ele>
        <time>2015-10-31T13:12:32Z</time>
      </trkpt>
      <trkpt lat="44.46269" lon="1.73793">
        <ele>141.9</ele>
        <time>2015-10-31T13:12:33Z</time>
      </trkpt>
      <trkpt lat="44.4627" lon="1.73788">
        <ele>141.9</ele>
        <time>2015-10-31T13:12:34Z</time>
      </trkpt>
      <trkpt lat="44.46272" lon="1.73783">
        <ele>141.9</ele>
        <time>2015-10-31T13:12:35Z</time>
      </trkpt>
      <trkpt lat="44.46274" lon="1.73778">
        <ele>141.9</ele>
        <time>2015-10-31T13:12:36Z</time>
      </trkpt>
      <trkpt lat="44.46275" lon="1.73772">
        <ele>141.9</ele>
        <time>2015-10-31T13:12:37Z</time>
      </trkpt>
      <trkpt lat="44.46277" lon="1.73767">
        <ele>141.8</ele>
        <time>2015-10-31T13:12:38Z</time>
      </trkpt>
      <trkpt lat="44.46278" lon="1.73762">
        <ele>141.8</ele>
        <time>2015-10-31T13:12:39Z</time>
      </trkpt>
      <trkpt lat="44.46279" lon="1.73757">
        <ele>141.8</ele>
        <time>2015-10-31T13:12:40Z</time>
      </trkpt>
      <trkpt lat="44.46281" lon="1.73751">
        <ele>141.7</ele>
        <time>2015-10-31T13:12:41Z</time>
      </trkpt>
      <trkpt lat="44.46282" lon="1.73745">
        <ele>141.6</ele>
        <time>2015-10-31T13:12:42Z</time>
      </trkpt>
      <trkpt lat="44.46283" lon="1.7374">
        <ele>141.5</ele>
        <time>2015-10-31T13:12:43Z</time>
      </trkpt>
      <trkpt lat="44.46285" lon="1.73734">
        <ele>141.5</ele>
        <time>2015-10-31T13:12:44Z</time>
      </trkpt>
      <trkpt lat="44.46286" lon="1.73729">
        <ele>141.4</ele>
        <time>2015-10-31T13:12:45Z</time>
      </trkpt>
      <trkpt lat="44.46287" lon="1.73723">
        <ele>141.3</ele>
        <time>2015-10-31T13:12:46Z</time>
      </trkpt>
      <trkpt lat="44.46289" lon="1.73717">
        <ele>141.2</ele>
        <time>2015-10-31T13:12:47Z</time>
      </trkpt>
      <trkpt lat="44.46292" lon="1.73712">
        <ele>141.1</ele>
        <time>2015-10-31T13:12:48Z</time>
      </trkpt>
      <trkpt lat="44.46294" lon="1.73707">
        <ele>141</ele>
        <time>2015-10-31T13:12:49Z</time>
      </trkpt>
      <trkpt lat="44.46299" lon="1.73701">
        <ele>141</ele>
        <time>2015-10-31T13:12:50Z</time>
      </trkpt>
      <trkpt lat="44.46303" lon="1.73695">
        <ele>141</ele>
        <time>2015-10-31T13:12:51Z</time>
      </trkpt>
      <trkpt lat="44.46305" lon="1.7369">
        <ele>141</ele>
        <time>2015-10-31T13:12:52Z</time>
      </trkpt>
      <trkpt lat="44.46309" lon="1.73683">
        <ele>141.1</ele>
        <time>2015-10-31T13:12:53Z</time>
      </trkpt>
      <trkpt lat="44.46313" lon="1.73677">
        <ele>141.1</ele>
        <time>2015-10-31T13:12:54Z</time>
      </trkpt>
      <trkpt lat="44.46316" lon="1.73672">
        <ele>141.2</ele>
        <time>2015-10-31T13:12:55Z</time>
      </trkpt>
      <trkpt lat="44.46319" lon="1.73666">
        <ele>141.3</ele>
        <time>2015-10-31T13:12:56Z</time>
      </trkpt>
      <trkpt lat="44.46323" lon="1.73661">
        <ele>141.4</ele>
        <time>2015-10-31T13:12:57Z</time>
      </trkpt>
      <trkpt lat="44.46326" lon="1.73656">
        <ele>141.6</ele>
        <time>2015-10-31T13:12:58Z</time>
      </trkpt>
      <trkpt lat="44.46328" lon="1.73649">
        <ele>141.7</ele>
        <time>2015-10-31T13:12:59Z</time>
      </trkpt>
      <trkpt lat="44.46332" lon="1.73646">
        <ele>141.9</ele>
        <time>2015-10-31T13:13:00Z</time>
      </trkpt>
      <trkpt lat="44.46336" lon="1.73641">
        <ele>142.1</ele>
        <time>2015-10-31T13:13:01Z</time>
      </trkpt>
      <trkpt lat="44.46339" lon="1.73636">
        <ele>142.4</ele>
        <time>2015-10-31T13:13:02Z</time>
      </trkpt>
      <trkpt lat="44.46343" lon="1.73631">
        <ele>142.6</ele>
        <time>2015-10-31T13:13:03Z</time>
      </trkpt>
      <trkpt lat="44.46348" lon="1.73626">
        <ele>143.1</ele>
        <time>2015-10-31T13:13:04Z</time>
      </trkpt>
      <trkpt lat="44.46352" lon="1.73622">
        <ele>143.3</ele>
        <time>2015-10-31T13:13:05Z</time>
      </trkpt>
      <trkpt lat="44.46356" lon="1.73617">
        <ele>143.5</ele>
        <time>2015-10-31T13:13:06Z</time>
      </trkpt>
      <trkpt lat="44.46359" lon="1.73612">
        <ele>143.5</ele>
        <time>2015-10-31T13:13:07Z</time>
      </trkpt>
      <trkpt lat="44.46363" lon="1.73608">
        <ele>143.6</ele>
        <time>2015-10-31T13:13:08Z</time>
      </trkpt>
      <trkpt lat="44.46365" lon="1.73604">
        <ele>143.6</ele>
        <time>2015-10-31T13:13:09Z</time>
      </trkpt>
      <trkpt lat="44.4637" lon="1.73599">
        <ele>143.8</ele>
        <time>2015-10-31T13:13:10Z</time>
      </trkpt>
      <trkpt lat="44.46372" lon="1.73595">
        <ele>143.7</ele>
        <time>2015-10-31T13:13:11Z</time>
      </trkpt>
      <trkpt lat="44.46374" lon="1.73591">
        <ele>143.7</ele>
        <time>2015-10-31T13:13:12Z</time>
      </trkpt>
      <trkpt lat="44.46379" lon="1.73586">
        <ele>143.6</ele>
        <time>2015-10-31T13:13:13Z</time>
      </trkpt>
      <trkpt lat="44.46383" lon="1.73584">
        <ele>143.5</ele>
        <time>2015-10-31T13:13:14Z</time>
      </trkpt>
      <trkpt lat="44.46386" lon="1.73578">
        <ele>143.3</ele>
        <time>2015-10-31T13:13:15Z</time>
      </trkpt>
      <trkpt lat="44.46388" lon="1.73573">
        <ele>143.2</ele>
        <time>2015-10-31T13:13:16Z</time>
      </trkpt>
      <trkpt lat="44.46391" lon="1.73568">
        <ele>143</ele>
        <time>2015-10-31T13:13:17Z</time>
      </trkpt>
      <trkpt lat="44.46395" lon="1.73563">
        <ele>142.9</ele>
        <time>2015-10-31T13:13:18Z</time>
      </trkpt>
      <trkpt lat="44.464" lon="1.73557">
        <ele>142.8</ele>
        <time>2015-10-31T13:13:19Z</time>
      </trkpt>
      <trkpt lat="44.46404" lon="1.73552">
        <ele>142.6</ele>
        <time>2015-10-31T13:13:20Z</time>
      </trkpt>
      <trkpt lat="44.46408" lon="1.73546">
        <ele>142.5</ele>
        <time>2015-10-31T13:13:21Z</time>
      </trkpt>
      <trkpt lat="44.46412" lon="1.73541">
        <ele>142.4</ele>
        <time>2015-10-31T13:13:22Z</time>
      </trkpt>
      <trkpt lat="44.46416" lon="1.73536">
        <ele>142.4</ele>
        <time>2015-10-31T13:13:23Z</time>
      </trkpt>
      <trkpt lat="44.46421" lon="1.73533">
        <ele>142.5</ele>
        <time>2015-10-31T13:13:24Z</time>
      </trkpt>
      <trkpt lat="44.46424" lon="1.73529">
        <ele>142.5</ele>
        <time>2015-10-31T13:13:25Z</time>
      </trkpt>
      <trkpt lat="44.46427" lon="1.73524">
        <ele>142.5</ele>
        <time>2015-10-31T13:13:26Z</time>
      </trkpt>
      <trkpt lat="44.46431" lon="1.73519">
        <ele>142.5</ele>
        <time>2015-10-31T13:13:27Z</time>
      </trkpt>
      <trkpt lat="44.46433" lon="1.73512">
        <ele>142.5</ele>
        <time>2015-10-31T13:13:28Z</time>
      </trkpt>
      <trkpt lat="44.46436" lon="1.73505">
        <ele>142.5</ele>
        <time>2015-10-31T13:13:29Z</time>
      </trkpt>
      <trkpt lat="44.46439" lon="1.73501">
        <ele>142.5</ele>
        <time>2015-10-31T13:13:30Z</time>
      </trkpt>
      <trkpt lat="44.46441" lon="1.73495">
        <ele>142.6</ele>
        <time>2015-10-31T13:13:31Z</time>
      </trkpt>
      <trkpt lat="44.46446" lon="1.73491">
        <ele>142.7</ele>
        <time>2015-10-31T13:13:32Z</time>
      </trkpt>
      <trkpt lat="44.46448" lon="1.73486">
        <ele>142.7</ele>
        <time>2015-10-31T13:13:33Z</time>
      </trkpt>
      <trkpt lat="44.46452" lon="1.73482">
        <ele>142.8</ele>
        <time>2015-10-31T13:13:34Z</time>
      </trkpt>
      <trkpt lat="44.46455" lon="1.73478">
        <ele>142.9</ele>
        <time>2015-10-31T13:13:35Z</time>
      </trkpt>
      <trkpt lat="44.46458" lon="1.73473">
        <ele>143</ele>
        <time>2015-10-31T13:13:36Z</time>
      </trkpt>
      <trkpt lat="44.46461" lon="1.73471">
        <ele>143</ele>
        <time>2015-10-31T13:13:37Z</time>
      </trkpt>
      <trkpt lat="44.46463" lon="1.73466">
        <ele>143</ele>
        <time>2015-10-31T13:13:38Z</time>
      </trkpt>
      <trkpt lat="44.46467" lon="1.73463">
        <ele>142.9</ele>
        <time>2015-10-31T13:13:40Z</time>
      </trkpt>
      <trkpt lat="44.4647" lon="1.73458">
        <ele>142.9</ele>
        <time>2015-10-31T13:13:42Z</time>
      </trkpt>
      <trkpt lat="44.46472" lon="1.73456">
        <ele>142.9</ele>
        <time>2015-10-31T13:13:45Z</time>
      </trkpt>
      <trkpt lat="44.46476" lon="1.73455">
        <ele>142.8</ele>
        <time>2015-10-31T13:14:07Z</time>
      </trkpt>
      <trkpt lat="44.4648" lon="1.73452">
        <ele>142.8</ele>
        <time>2015-10-31T13:14:18Z</time>
      </trkpt>
      <trkpt lat="44.46482" lon="1.73447">
        <ele>142.8</ele>
        <time>2015-10-31T13:14:21Z</time>
      </trkpt>
      <trkpt lat="44.46484" lon="1.73445">
        <ele>142.7</ele>
        <time>2015-10-31T13:14:23Z</time>
      </trkpt>
      <trkpt lat="44.46487" lon="1.73442">
        <ele>142.7</ele>
        <time>2015-10-31T13:14:25Z</time>
      </trkpt>
      <trkpt lat="44.46491" lon="1.73437">
        <ele>142.7</ele>
        <time>2015-10-31T13:14:27Z</time>
      </trkpt>
      <trkpt lat="44.46493" lon="1.73435">
        <ele>142.6</ele>
        <time>2015-10-31T13:14:28Z</time>
      </trkpt>
      <trkpt lat="44.46495" lon="1.73432">
        <ele>142.6</ele>
        <time>2015-10-31T13:14:29Z</time>
      </trkpt>
      <trkpt lat="44.46497" lon="1.73428">
        <ele>142.6</ele>
        <time>2015-10-31T13:14:30Z</time>
      </trkpt>
      <trkpt lat="44.46499" lon="1.73425">
        <ele>142.5</ele>
        <time>2015-10-31T13:14:31Z</time>
      </trkpt>
      <trkpt lat="44.46501" lon="1.73421">
        <ele>142.5</ele>
        <time>2015-10-31T13:14:32Z</time>
      </trkpt>
      <trkpt lat="44.46503" lon="1.73418">
        <ele>142.4</ele>
        <time>2015-10-31T13:14:33Z</time>
      </trkpt>
      <trkpt lat="44.46506" lon="1.73415">
        <ele>142.4</ele>
        <time>2015-10-31T13:14:34Z</time>
      </trkpt>
      <trkpt lat="44.46508" lon="1.73411">
        <ele>142.3</ele>
        <time>2015-10-31T13:14:35Z</time>
      </trkpt>
      <trkpt lat="44.4651" lon="1.73407">
        <ele>142.2</ele>
        <time>2015-10-31T13:14:36Z</time>
      </trkpt>
      <trkpt lat="44.46513" lon="1.73403">
        <ele>142.2</ele>
        <time>2015-10-31T13:14:37Z</time>
      </trkpt>
      <trkpt lat="44.46515" lon="1.734">
        <ele>142.1</ele>
        <time>2015-10-31T13:14:38Z</time>
      </trkpt>
      <trkpt lat="44.46517" lon="1.73396">
        <ele>142</ele>
        <time>2015-10-31T13:14:39Z</time>
      </trkpt>
      <trkpt lat="44.46519" lon="1.73392">
        <ele>141.9</ele>
        <time>2015-10-31T13:14:40Z</time>
      </trkpt>
      <trkpt lat="44.46522" lon="1.73389">
        <ele>141.8</ele>
        <time>2015-10-31T13:14:41Z</time>
      </trkpt>
      <trkpt lat="44.46525" lon="1.73385">
        <ele>141.7</ele>
        <time>2015-10-31T13:14:42Z</time>
      </trkpt>
      <trkpt lat="44.46529" lon="1.73381">
        <ele>141.5</ele>
        <time>2015-10-31T13:14:43Z</time>
      </trkpt>
      <trkpt lat="44.46532" lon="1.73376">
        <ele>141.4</ele>
        <time>2015-10-31T13:14:44Z</time>
      </trkpt>
      <trkpt lat="44.46536" lon="1.73371">
        <ele>141.2</ele>
        <time>2015-10-31T13:14:45Z</time>
      </trkpt>
      <trkpt lat="44.46539" lon="1.73367">
        <ele>141.1</ele>
        <time>2015-10-31T13:14:46Z</time>
      </trkpt>
      <trkpt lat="44.46542" lon="1.73363">
        <ele>141</ele>
        <time>2015-10-31T13:14:47Z</time>
      </trkpt>
      <trkpt lat="44.46545" lon="1.73358">
        <ele>141.1</ele>
        <time>2015-10-31T13:14:48Z</time>
      </trkpt>
      <trkpt lat="44.46548" lon="1.73354">
        <ele>141.2</ele>
        <time>2015-10-31T13:14:49Z</time>
      </trkpt>
      <trkpt lat="44.46551" lon="1.73349">
        <ele>141.3</ele>
        <time>2015-10-31T13:14:50Z</time>
      </trkpt>
      <trkpt lat="44.46554" lon="1.73345">
        <ele>141.3</ele>
        <time>2015-10-31T13:14:51Z</time>
      </trkpt>
      <trkpt lat="44.46557" lon="1.7334">
        <ele>141.4</ele>
        <time>2015-10-31T13:14:52Z</time>
      </trkpt>
      <trkpt lat="44.4656" lon="1.73335">
        <ele>141.4</ele>
        <time>2015-10-31T13:14:53Z</time>
      </trkpt>
      <trkpt lat="44.46563" lon="1.73331">
        <ele>141.5</ele>
        <time>2015-10-31T13:14:54Z</time>
      </trkpt>
      <trkpt lat="44.46566" lon="1.73326">
        <ele>141.5</ele>
        <time>2015-10-31T13:14:55Z</time>
      </trkpt>
      <trkpt lat="44.46569" lon="1.73322">
        <ele>141.6</ele>
        <time>2015-10-31T13:14:56Z</time>
      </trkpt>
      <trkpt lat="44.46572" lon="1.73318">
        <ele>141.6</ele>
        <time>2015-10-31T13:14:57Z</time>
      </trkpt>
      <trkpt lat="44.46575" lon="1.73313">
        <ele>141.6</ele>
        <time>2015-10-31T13:14:58Z</time>
      </trkpt>
      <trkpt lat="44.4658" lon="1.73307">
        <ele>141.6</ele>
        <time>2015-10-31T13:14:59Z</time>
      </trkpt>
      <trkpt lat="44.46583" lon="1.73302">
        <ele>141.6</ele>
        <time>2015-10-31T13:15:00Z</time>
      </trkpt>
      <trkpt lat="44.46586" lon="1.73298">
        <ele>141.6</ele>
        <time>2015-10-31T13:15:01Z</time>
      </trkpt>
      <trkpt lat="44.4659" lon="1.73294">
        <ele>141.6</ele>
        <time>2015-10-31T13:15:02Z</time>
      </trkpt>
      <trkpt lat="44.46594" lon="1.73289">
        <ele>141.6</ele>
        <time>2015-10-31T13:15:03Z</time>
      </trkpt>
      <trkpt lat="44.46599" lon="1.73285">
        <ele>141.5</ele>
        <time>2015-10-31T13:15:04Z</time>
      </trkpt>
      <trkpt lat="44.46602" lon="1.73279">
        <ele>141.4</ele>
        <time>2015-10-31T13:15:05Z</time>
      </trkpt>
      <trkpt lat="44.46606" lon="1.73274">
        <ele>141.3</ele>
        <time>2015-10-31T13:15:06Z</time>
      </trkpt>
      <trkpt lat="44.46609" lon="1.73268">
        <ele>141.2</ele>
        <time>2015-10-31T13:15:07Z</time>
      </trkpt>
      <trkpt lat="44.46613" lon="1.73264">
        <ele>141.2</ele>
        <time>2015-10-31T13:15:08Z</time>
      </trkpt>
      <trkpt lat="44.46617" lon="1.73259">
        <ele>141.1</ele>
        <time>2015-10-31T13:15:09Z</time>
      </trkpt>
      <trkpt lat="44.4662" lon="1.73255">
        <ele>141.1</ele>
        <time>2015-10-31T13:15:10Z</time>
      </trkpt>
      <trkpt lat="44.46624" lon="1.73251">
        <ele>141</ele>
        <time>2015-10-31T13:15:11Z</time>
      </trkpt>
      <trkpt lat="44.46628" lon="1.73247">
        <ele>141.1</ele>
        <time>2015-10-31T13:15:12Z</time>
      </trkpt>
      <trkpt lat="44.46632" lon="1.73243">
        <ele>141.2</ele>
        <time>2015-10-31T13:15:13Z</time>
      </trkpt>
      <trkpt lat="44.46636" lon="1.73237">
        <ele>141.2</ele>
        <time>2015-10-31T13:15:14Z</time>
      </trkpt>
      <trkpt lat="44.46639" lon="1.73232">
        <ele>141.2</ele>
        <time>2015-10-31T13:15:15Z</time>
      </trkpt>
      <trkpt lat="44.46643" lon="1.7323">
        <ele>141.3</ele>
        <time>2015-10-31T13:15:16Z</time>
      </trkpt>
      <trkpt lat="44.46646" lon="1.73223">
        <ele>141.2</ele>
        <time>2015-10-31T13:15:17Z</time>
      </trkpt>
      <trkpt lat="44.4665" lon="1.73217">
        <ele>141.2</ele>
        <time>2015-10-31T13:15:18Z</time>
      </trkpt>
      <trkpt lat="44.46653" lon="1.73211">
        <ele>141.1</ele>
        <time>2015-10-31T13:15:19Z</time>
      </trkpt>
      <trkpt lat="44.46657" lon="1.73204">
        <ele>141</ele>
        <time>2015-10-31T13:15:20Z</time>
      </trkpt>
      <trkpt lat="44.4666" lon="1.73197">
        <ele>140.9</ele>
        <time>2015-10-31T13:15:21Z</time>
      </trkpt>
      <trkpt lat="44.46663" lon="1.73193">
        <ele>140.9</ele>
        <time>2015-10-31T13:15:22Z</time>
      </trkpt>
      <trkpt lat="44.46665" lon="1.73186">
        <ele>140.8</ele>
        <time>2015-10-31T13:15:23Z</time>
      </trkpt>
      <trkpt lat="44.46668" lon="1.7318">
        <ele>140.7</ele>
        <time>2015-10-31T13:15:24Z</time>
      </trkpt>
      <trkpt lat="44.46671" lon="1.73174">
        <ele>140.6</ele>
        <time>2015-10-31T13:15:25Z</time>
      </trkpt>
      <trkpt lat="44.46678" lon="1.73159">
        <ele>140.4</ele>
        <time>2015-10-31T13:15:27Z</time>
      </trkpt>
      <trkpt lat="44.46681" lon="1.73155">
        <ele>140.3</ele>
        <time>2015-10-31T13:15:28Z</time>
      </trkpt>
      <trkpt lat="44.46682" lon="1.7315">
        <ele>140.2</ele>
        <time>2015-10-31T13:15:29Z</time>
      </trkpt>
      <trkpt lat="44.46684" lon="1.73143">
        <ele>140</ele>
        <time>2015-10-31T13:15:30Z</time>
      </trkpt>
      <trkpt lat="44.46687" lon="1.73137">
        <ele>139.9</ele>
        <time>2015-10-31T13:15:31Z</time>
      </trkpt>
      <trkpt lat="44.46687" lon="1.7313">
        <ele>139.7</ele>
        <time>2015-10-31T13:15:32Z</time>
      </trkpt>
      <trkpt lat="44.4669" lon="1.73124">
        <ele>139.5</ele>
        <time>2015-10-31T13:15:33Z</time>
      </trkpt>
      <trkpt lat="44.46692" lon="1.73117">
        <ele>139.3</ele>
        <time>2015-10-31T13:15:34Z</time>
      </trkpt>
      <trkpt lat="44.46694" lon="1.73111">
        <ele>139.2</ele>
        <time>2015-10-31T13:15:35Z</time>
      </trkpt>
      <trkpt lat="44.46698" lon="1.73105">
        <ele>139</ele>
        <time>2015-10-31T13:15:36Z</time>
      </trkpt>
      <trkpt lat="44.46701" lon="1.73097">
        <ele>138.8</ele>
        <time>2015-10-31T13:15:37Z</time>
      </trkpt>
      <trkpt lat="44.46705" lon="1.73091">
        <ele>138.7</ele>
        <time>2015-10-31T13:15:38Z</time>
      </trkpt>
      <trkpt lat="44.46708" lon="1.73089">
        <ele>138.7</ele>
        <time>2015-10-31T13:15:39Z</time>
      </trkpt>
      <trkpt lat="44.46712" lon="1.7308">
        <ele>138.7</ele>
        <time>2015-10-31T13:15:40Z</time>
      </trkpt>
      <trkpt lat="44.46712" lon="1.73074">
        <ele>138.4</ele>
        <time>2015-10-31T13:15:41Z</time>
      </trkpt>
      <trkpt lat="44.46713" lon="1.73064">
        <ele>138.2</ele>
        <time>2015-10-31T13:15:42Z</time>
      </trkpt>
      <trkpt lat="44.46715" lon="1.73058">
        <ele>138</ele>
        <time>2015-10-31T13:15:43Z</time>
      </trkpt>
      <trkpt lat="44.46715" lon="1.7305">
        <ele>137.7</ele>
        <time>2015-10-31T13:15:44Z</time>
      </trkpt>
      <trkpt lat="44.46717" lon="1.73039">
        <ele>137.5</ele>
        <time>2015-10-31T13:15:45Z</time>
      </trkpt>
      <trkpt lat="44.4672" lon="1.73032">
        <ele>137.8</ele>
        <time>2015-10-31T13:15:46Z</time>
      </trkpt>
      <trkpt lat="44.46722" lon="1.73023">
        <ele>137.9</ele>
        <time>2015-10-31T13:15:47Z</time>
      </trkpt>
      <trkpt lat="44.46727" lon="1.73023">
        <ele>138.2</ele>
        <time>2015-10-31T13:15:48Z</time>
      </trkpt>
      <trkpt lat="44.4673" lon="1.73016">
        <ele>138.3</ele>
        <time>2015-10-31T13:15:49Z</time>
      </trkpt>
      <trkpt lat="44.46733" lon="1.73012">
        <ele>138.5</ele>
        <time>2015-10-31T13:15:50Z</time>
      </trkpt>
      <trkpt lat="44.46735" lon="1.73007">
        <ele>138.6</ele>
        <time>2015-10-31T13:15:51Z</time>
      </trkpt>
      <trkpt lat="44.46737" lon="1.73001">
        <ele>138.7</ele>
        <time>2015-10-31T13:15:52Z</time>
      </trkpt>
      <trkpt lat="44.4674" lon="1.72995">
        <ele>138.8</ele>
        <time>2015-10-31T13:15:53Z</time>
      </trkpt>
      <trkpt lat="44.46743" lon="1.72991">
        <ele>138.9</ele>
        <time>2015-10-31T13:15:54Z</time>
      </trkpt>
      <trkpt lat="44.46746" lon="1.72986">
        <ele>139</ele>
        <time>2015-10-31T13:15:55Z</time>
      </trkpt>
      <trkpt lat="44.46747" lon="1.72981">
        <ele>139</ele>
        <time>2015-10-31T13:15:56Z</time>
      </trkpt>
      <trkpt lat="44.4675" lon="1.72974">
        <ele>139.1</ele>
        <time>2015-10-31T13:15:57Z</time>
      </trkpt>
      <trkpt lat="44.46752" lon="1.72969">
        <ele>139.1</ele>
        <time>2015-10-31T13:15:58Z</time>
      </trkpt>
      <trkpt lat="44.46755" lon="1.72964">
        <ele>139.2</ele>
        <time>2015-10-31T13:15:59Z</time>
      </trkpt>
      <trkpt lat="44.46761" lon="1.72943">
        <ele>139.4</ele>
        <time>2015-10-31T13:16:02Z</time>
      </trkpt>
      <trkpt lat="44.46764" lon="1.72936">
        <ele>139.5</ele>
        <time>2015-10-31T13:16:03Z</time>
      </trkpt>
      <trkpt lat="44.46765" lon="1.7293">
        <ele>139.6</ele>
        <time>2015-10-31T13:16:04Z</time>
      </trkpt>
      <trkpt lat="44.46767" lon="1.72922">
        <ele>139.7</ele>
        <time>2015-10-31T13:16:05Z</time>
      </trkpt>
      <trkpt lat="44.46769" lon="1.72913">
        <ele>139.7</ele>
        <time>2015-10-31T13:16:06Z</time>
      </trkpt>
      <trkpt lat="44.4677" lon="1.72905">
        <ele>139.8</ele>
        <time>2015-10-31T13:16:07Z</time>
      </trkpt>
      <trkpt lat="44.46773" lon="1.72898">
        <ele>139.9</ele>
        <time>2015-10-31T13:16:08Z</time>
      </trkpt>
      <trkpt lat="44.46775" lon="1.7289">
        <ele>139.9</ele>
        <time>2015-10-31T13:16:09Z</time>
      </trkpt>
      <trkpt lat="44.46777" lon="1.72882">
        <ele>140</ele>
        <time>2015-10-31T13:16:10Z</time>
      </trkpt>
      <trkpt lat="44.46779" lon="1.72875">
        <ele>140</ele>
        <time>2015-10-31T13:16:11Z</time>
      </trkpt>
      <trkpt lat="44.46781" lon="1.72868">
        <ele>139.9</ele>
        <time>2015-10-31T13:16:12Z</time>
      </trkpt>
      <trkpt lat="44.46784" lon="1.7286">
        <ele>139.8</ele>
        <time>2015-10-31T13:16:13Z</time>
      </trkpt>
      <trkpt lat="44.46786" lon="1.72854">
        <ele>139.7</ele>
        <time>2015-10-31T13:16:14Z</time>
      </trkpt>
      <trkpt lat="44.46789" lon="1.72846">
        <ele>139.7</ele>
        <time>2015-10-31T13:16:15Z</time>
      </trkpt>
      <trkpt lat="44.46792" lon="1.72838">
        <ele>139.6</ele>
        <time>2015-10-31T13:16:16Z</time>
      </trkpt>
      <trkpt lat="44.46793" lon="1.72829">
        <ele>139.6</ele>
        <time>2015-10-31T13:16:17Z</time>
      </trkpt>
      <trkpt lat="44.46795" lon="1.72821">
        <ele>139.7</ele>
        <time>2015-10-31T13:16:18Z</time>
      </trkpt>
      <trkpt lat="44.46797" lon="1.72812">
        <ele>139.9</ele>
        <time>2015-10-31T13:16:19Z</time>
      </trkpt>
      <trkpt lat="44.468" lon="1.72805">
        <ele>140</ele>
        <time>2015-10-31T13:16:20Z</time>
      </trkpt>
      <trkpt lat="44.46803" lon="1.728">
        <ele>140.4</ele>
        <time>2015-10-31T13:16:21Z</time>
      </trkpt>
      <trkpt lat="44.46804" lon="1.72795">
        <ele>140.4</ele>
        <time>2015-10-31T13:16:22Z</time>
      </trkpt>
      <trkpt lat="44.46805" lon="1.72786">
        <ele>140.2</ele>
        <time>2015-10-31T13:16:23Z</time>
      </trkpt>
      <trkpt lat="44.46807" lon="1.72779">
        <ele>140</ele>
        <time>2015-10-31T13:16:24Z</time>
      </trkpt>
      <trkpt lat="44.46808" lon="1.72772">
        <ele>139.8</ele>
        <time>2015-10-31T13:16:25Z</time>
      </trkpt>
      <trkpt lat="44.4681" lon="1.72764">
        <ele>139.5</ele>
        <time>2015-10-31T13:16:26Z</time>
      </trkpt>
      <trkpt lat="44.46812" lon="1.72757">
        <ele>139.3</ele>
        <time>2015-10-31T13:16:27Z</time>
      </trkpt>
      <trkpt lat="44.46815" lon="1.72752">
        <ele>139.3</ele>
        <time>2015-10-31T13:16:28Z</time>
      </trkpt>
      <trkpt lat="44.46817" lon="1.72746">
        <ele>139.2</ele>
        <time>2015-10-31T13:16:29Z</time>
      </trkpt>
      <trkpt lat="44.46818" lon="1.72739">
        <ele>138.9</ele>
        <time>2015-10-31T13:16:30Z</time>
      </trkpt>
      <trkpt lat="44.46818" lon="1.72732">
        <ele>138.5</ele>
        <time>2015-10-31T13:16:31Z</time>
      </trkpt>
      <trkpt lat="44.46819" lon="1.72728">
        <ele>138.4</ele>
        <time>2015-10-31T13:16:32Z</time>
      </trkpt>
      <trkpt lat="44.46823" lon="1.72719">
        <ele>138.2</ele>
        <time>2015-10-31T13:16:33Z</time>
      </trkpt>
      <trkpt lat="44.46826" lon="1.72714">
        <ele>138.2</ele>
        <time>2015-10-31T13:16:34Z</time>
      </trkpt>
      <trkpt lat="44.46829" lon="1.72712">
        <ele>138.4</ele>
        <time>2015-10-31T13:16:35Z</time>
      </trkpt>
      <trkpt lat="44.46832" lon="1.72706">
        <ele>138.4</ele>
        <time>2015-10-31T13:16:36Z</time>
      </trkpt>
      <trkpt lat="44.46834" lon="1.727">
        <ele>138.7</ele>
        <time>2015-10-31T13:16:37Z</time>
      </trkpt>
      <trkpt lat="44.46837" lon="1.72695">
        <ele>138.9</ele>
        <time>2015-10-31T13:16:38Z</time>
      </trkpt>
      <trkpt lat="44.46839" lon="1.7269">
        <ele>139.1</ele>
        <time>2015-10-31T13:16:39Z</time>
      </trkpt>
      <trkpt lat="44.46839" lon="1.72681">
        <ele>139.2</ele>
        <time>2015-10-31T13:16:40Z</time>
      </trkpt>
      <trkpt lat="44.46843" lon="1.72668">
        <ele>139.5</ele>
        <time>2015-10-31T13:16:41Z</time>
      </trkpt>
      <trkpt lat="44.46845" lon="1.72661">
        <ele>139.6</ele>
        <time>2015-10-31T13:16:42Z</time>
      </trkpt>
      <trkpt lat="44.46848" lon="1.72653">
        <ele>139.7</ele>
        <time>2015-10-31T13:16:43Z</time>
      </trkpt>
      <trkpt lat="44.4685" lon="1.72646">
        <ele>139.8</ele>
        <time>2015-10-31T13:16:44Z</time>
      </trkpt>
      <trkpt lat="44.46851" lon="1.72636">
        <ele>139.8</ele>
        <time>2015-10-31T13:16:45Z</time>
      </trkpt>
      <trkpt lat="44.46853" lon="1.72628">
        <ele>139.7</ele>
        <time>2015-10-31T13:16:46Z</time>
      </trkpt>
      <trkpt lat="44.46855" lon="1.72621">
        <ele>139.8</ele>
        <time>2015-10-31T13:16:47Z</time>
      </trkpt>
      <trkpt lat="44.46858" lon="1.72612">
        <ele>139.9</ele>
        <time>2015-10-31T13:16:48Z</time>
      </trkpt>
      <trkpt lat="44.46861" lon="1.72606">
        <ele>140</ele>
        <time>2015-10-31T13:16:49Z</time>
      </trkpt>
      <trkpt lat="44.46863" lon="1.72599">
        <ele>140.1</ele>
        <time>2015-10-31T13:16:50Z</time>
      </trkpt>
      <trkpt lat="44.46865" lon="1.72593">
        <ele>140.2</ele>
        <time>2015-10-31T13:16:51Z</time>
      </trkpt>
      <trkpt lat="44.46867" lon="1.72586">
        <ele>140.3</ele>
        <time>2015-10-31T13:16:52Z</time>
      </trkpt>
      <trkpt lat="44.46868" lon="1.72579">
        <ele>140.4</ele>
        <time>2015-10-31T13:16:53Z</time>
      </trkpt>
      <trkpt lat="44.46869" lon="1.72571">
        <ele>140.5</ele>
        <time>2015-10-31T13:16:54Z</time>
      </trkpt>
      <trkpt lat="44.4687" lon="1.72563">
        <ele>140.6</ele>
        <time>2015-10-31T13:16:55Z</time>
      </trkpt>
      <trkpt lat="44.46872" lon="1.72555">
        <ele>140.8</ele>
        <time>2015-10-31T13:16:56Z</time>
      </trkpt>
      <trkpt lat="44.46874" lon="1.7255">
        <ele>140.9</ele>
        <time>2015-10-31T13:16:57Z</time>
      </trkpt>
      <trkpt lat="44.46873" lon="1.72538">
        <ele>141.1</ele>
        <time>2015-10-31T13:16:58Z</time>
      </trkpt>
      <trkpt lat="44.46876" lon="1.72533">
        <ele>141.4</ele>
        <time>2015-10-31T13:16:59Z</time>
      </trkpt>
      <trkpt lat="44.46878" lon="1.72528">
        <ele>141.7</ele>
        <time>2015-10-31T13:17:00Z</time>
      </trkpt>
      <trkpt lat="44.46878" lon="1.72514">
        <ele>142.2</ele>
        <time>2015-10-31T13:17:01Z</time>
      </trkpt>
      <trkpt lat="44.46881" lon="1.72509">
        <ele>142.4</ele>
        <time>2015-10-31T13:17:02Z</time>
      </trkpt>
      <trkpt lat="44.46884" lon="1.725">
        <ele>142.8</ele>
        <time>2015-10-31T13:17:03Z</time>
      </trkpt>
      <trkpt lat="44.46886" lon="1.72492">
        <ele>143</ele>
        <time>2015-10-31T13:17:04Z</time>
      </trkpt>
      <trkpt lat="44.46889" lon="1.72484">
        <ele>143.1</ele>
        <time>2015-10-31T13:17:05Z</time>
      </trkpt>
      <trkpt lat="44.46892" lon="1.7248">
        <ele>143.2</ele>
        <time>2015-10-31T13:17:06Z</time>
      </trkpt>
      <trkpt lat="44.46893" lon="1.72473">
        <ele>143.2</ele>
        <time>2015-10-31T13:17:07Z</time>
      </trkpt>
      <trkpt lat="44.46896" lon="1.72467">
        <ele>143.2</ele>
        <time>2015-10-31T13:17:08Z</time>
      </trkpt>
      <trkpt lat="44.46897" lon="1.7246">
        <ele>143.2</ele>
        <time>2015-10-31T13:17:09Z</time>
      </trkpt>
      <trkpt lat="44.46899" lon="1.72456">
        <ele>143</ele>
        <time>2015-10-31T13:17:10Z</time>
      </trkpt>
      <trkpt lat="44.46901" lon="1.72448">
        <ele>142.8</ele>
        <time>2015-10-31T13:17:11Z</time>
      </trkpt>
      <trkpt lat="44.46903" lon="1.7244">
        <ele>142.5</ele>
        <time>2015-10-31T13:17:12Z</time>
      </trkpt>
      <trkpt lat="44.46906" lon="1.72435">
        <ele>142.2</ele>
        <time>2015-10-31T13:17:13Z</time>
      </trkpt>
      <trkpt lat="44.46909" lon="1.72429">
        <ele>142</ele>
        <time>2015-10-31T13:17:14Z</time>
      </trkpt>
      <trkpt lat="44.46913" lon="1.72416">
        <ele>141.6</ele>
        <time>2015-10-31T13:17:16Z</time>
      </trkpt>
      <trkpt lat="44.46915" lon="1.72412">
        <ele>141.4</ele>
        <time>2015-10-31T13:17:17Z</time>
      </trkpt>
      <trkpt lat="44.46917" lon="1.72403">
        <ele>141.2</ele>
        <time>2015-10-31T13:17:18Z</time>
      </trkpt>
      <trkpt lat="44.46917" lon="1.72393">
        <ele>140.9</ele>
        <time>2015-10-31T13:17:19Z</time>
      </trkpt>
      <trkpt lat="44.46917" lon="1.72383">
        <ele>140.7</ele>
        <time>2015-10-31T13:17:20Z</time>
      </trkpt>
      <trkpt lat="44.46918" lon="1.72377">
        <ele>140.5</ele>
        <time>2015-10-31T13:17:21Z</time>
      </trkpt>
      <trkpt lat="44.4692" lon="1.72369">
        <ele>140.3</ele>
        <time>2015-10-31T13:17:22Z</time>
      </trkpt>
      <trkpt lat="44.46921" lon="1.72363">
        <ele>140</ele>
        <time>2015-10-31T13:17:23Z</time>
      </trkpt>
      <trkpt lat="44.46923" lon="1.72358">
        <ele>139.9</ele>
        <time>2015-10-31T13:17:24Z</time>
      </trkpt>
      <trkpt lat="44.46925" lon="1.72349">
        <ele>139.6</ele>
        <time>2015-10-31T13:17:25Z</time>
      </trkpt>
      <trkpt lat="44.46927" lon="1.72341">
        <ele>139.4</ele>
        <time>2015-10-31T13:17:26Z</time>
      </trkpt>
      <trkpt lat="44.4693" lon="1.72331">
        <ele>139.1</ele>
        <time>2015-10-31T13:17:27Z</time>
      </trkpt>
      <trkpt lat="44.46934" lon="1.72324">
        <ele>139</ele>
        <time>2015-10-31T13:17:28Z</time>
      </trkpt>
      <trkpt lat="44.46935" lon="1.72318">
        <ele>138.8</ele>
        <time>2015-10-31T13:17:29Z</time>
      </trkpt>
      <trkpt lat="44.46937" lon="1.72308">
        <ele>138.6</ele>
        <time>2015-10-31T13:17:30Z</time>
      </trkpt>
      <trkpt lat="44.46938" lon="1.72301">
        <ele>138.5</ele>
        <time>2015-10-31T13:17:31Z</time>
      </trkpt>
      <trkpt lat="44.46938" lon="1.72291">
        <ele>138.3</ele>
        <time>2015-10-31T13:17:32Z</time>
      </trkpt>
      <trkpt lat="44.46937" lon="1.72283">
        <ele>138.4</ele>
        <time>2015-10-31T13:17:33Z</time>
      </trkpt>
      <trkpt lat="44.46939" lon="1.72275">
        <ele>138.6</ele>
        <time>2015-10-31T13:17:34Z</time>
      </trkpt>
      <trkpt lat="44.4694" lon="1.7227">
        <ele>138.7</ele>
        <time>2015-10-31T13:17:35Z</time>
      </trkpt>
      <trkpt lat="44.46941" lon="1.72263">
        <ele>138.9</ele>
        <time>2015-10-31T13:17:36Z</time>
      </trkpt>
      <trkpt lat="44.46941" lon="1.72254">
        <ele>139</ele>
        <time>2015-10-31T13:17:37Z</time>
      </trkpt>
      <trkpt lat="44.46941" lon="1.72246">
        <ele>139.2</ele>
        <time>2015-10-31T13:17:38Z</time>
      </trkpt>
      <trkpt lat="44.46944" lon="1.72239">
        <ele>139.3</ele>
        <time>2015-10-31T13:17:39Z</time>
      </trkpt>
      <trkpt lat="44.46946" lon="1.7223">
        <ele>139.5</ele>
        <time>2015-10-31T13:17:40Z</time>
      </trkpt>
      <trkpt lat="44.46945" lon="1.7222">
        <ele>139.7</ele>
        <time>2015-10-31T13:17:41Z</time>
      </trkpt>
      <trkpt lat="44.46946" lon="1.72211">
        <ele>139.8</ele>
        <time>2015-10-31T13:17:42Z</time>
      </trkpt>
      <trkpt lat="44.46945" lon="1.72203">
        <ele>140.2</ele>
        <time>2015-10-31T13:17:43Z</time>
      </trkpt>
      <trkpt lat="44.46945" lon="1.72195">
        <ele>140.6</ele>
        <time>2015-10-31T13:17:44Z</time>
      </trkpt>
      <trkpt lat="44.46948" lon="1.72189">
        <ele>141.1</ele>
        <time>2015-10-31T13:17:45Z</time>
      </trkpt>
      <trkpt lat="44.46947" lon="1.72183">
        <ele>141.4</ele>
        <time>2015-10-31T13:17:46Z</time>
      </trkpt>
      <trkpt lat="44.46946" lon="1.72175">
        <ele>141.9</ele>
        <time>2015-10-31T13:17:47Z</time>
      </trkpt>
      <trkpt lat="44.46945" lon="1.72167">
        <ele>142.4</ele>
        <time>2015-10-31T13:17:48Z</time>
      </trkpt>
      <trkpt lat="44.46944" lon="1.72158">
        <ele>142.8</ele>
        <time>2015-10-31T13:17:49Z</time>
      </trkpt>
      <trkpt lat="44.46944" lon="1.7215">
        <ele>143.3</ele>
        <time>2015-10-31T13:17:50Z</time>
      </trkpt>
      <trkpt lat="44.46943" lon="1.72141">
        <ele>143.7</ele>
        <time>2015-10-31T13:17:51Z</time>
      </trkpt>
      <trkpt lat="44.46942" lon="1.72134">
        <ele>144.1</ele>
        <time>2015-10-31T13:17:52Z</time>
      </trkpt>
      <trkpt lat="44.46941" lon="1.72125">
        <ele>144.5</ele>
        <time>2015-10-31T13:17:53Z</time>
      </trkpt>
      <trkpt lat="44.46939" lon="1.72118">
        <ele>144.7</ele>
        <time>2015-10-31T13:17:54Z</time>
      </trkpt>
      <trkpt lat="44.46938" lon="1.7211">
        <ele>144.9</ele>
        <time>2015-10-31T13:17:55Z</time>
      </trkpt>
      <trkpt lat="44.46936" lon="1.72103">
        <ele>145.1</ele>
        <time>2015-10-31T13:17:56Z</time>
      </trkpt>
      <trkpt lat="44.46933" lon="1.72095">
        <ele>145.2</ele>
        <time>2015-10-31T13:17:57Z</time>
      </trkpt>
      <trkpt lat="44.46929" lon="1.72088">
        <ele>145.2</ele>
        <time>2015-10-31T13:17:58Z</time>
      </trkpt>
      <trkpt lat="44.46927" lon="1.72081">
        <ele>145.2</ele>
        <time>2015-10-31T13:17:59Z</time>
      </trkpt>
      <trkpt lat="44.46925" lon="1.72075">
        <ele>145.4</ele>
        <time>2015-10-31T13:18:00Z</time>
      </trkpt>
      <trkpt lat="44.46922" lon="1.72068">
        <ele>145.4</ele>
        <time>2015-10-31T13:18:01Z</time>
      </trkpt>
      <trkpt lat="44.46919" lon="1.72061">
        <ele>145.5</ele>
        <time>2015-10-31T13:18:02Z</time>
      </trkpt>
      <trkpt lat="44.46916" lon="1.72054">
        <ele>145.5</ele>
        <time>2015-10-31T13:18:03Z</time>
      </trkpt>
      <trkpt lat="44.46912" lon="1.72048">
        <ele>145.3</ele>
        <time>2015-10-31T13:18:04Z</time>
      </trkpt>
      <trkpt lat="44.46907" lon="1.7204">
        <ele>145.1</ele>
        <time>2015-10-31T13:18:05Z</time>
      </trkpt>
      <trkpt lat="44.46903" lon="1.72031">
        <ele>144.7</ele>
        <time>2015-10-31T13:18:06Z</time>
      </trkpt>
      <trkpt lat="44.46899" lon="1.72024">
        <ele>144.2</ele>
        <time>2015-10-31T13:18:07Z</time>
      </trkpt>
      <trkpt lat="44.46897" lon="1.72018">
        <ele>143.9</ele>
        <time>2015-10-31T13:18:08Z</time>
      </trkpt>
      <trkpt lat="44.46894" lon="1.7201">
        <ele>143.5</ele>
        <time>2015-10-31T13:18:09Z</time>
      </trkpt>
      <trkpt lat="44.46894" lon="1.72003">
        <ele>143.3</ele>
        <time>2015-10-31T13:18:10Z</time>
      </trkpt>
      <trkpt lat="44.4689" lon="1.71993">
        <ele>142.6</ele>
        <time>2015-10-31T13:18:11Z</time>
      </trkpt>
      <trkpt lat="44.46887" lon="1.71985">
        <ele>142</ele>
        <time>2015-10-31T13:18:12Z</time>
      </trkpt>
      <trkpt lat="44.46886" lon="1.7198">
        <ele>141.7</ele>
        <time>2015-10-31T13:18:13Z</time>
      </trkpt>
      <trkpt lat="44.46884" lon="1.71974">
        <ele>141.3</ele>
        <time>2015-10-31T13:18:14Z</time>
      </trkpt>
      <trkpt lat="44.46883" lon="1.71966">
        <ele>140.8</ele>
        <time>2015-10-31T13:18:15Z</time>
      </trkpt>
      <trkpt lat="44.46882" lon="1.71959">
        <ele>140.4</ele>
        <time>2015-10-31T13:18:16Z</time>
      </trkpt>
      <trkpt lat="44.46883" lon="1.71953">
        <ele>140.7</ele>
        <time>2015-10-31T13:18:17Z</time>
      </trkpt>
      <trkpt lat="44.46882" lon="1.71945">
        <ele>140.6</ele>
        <time>2015-10-31T13:18:18Z</time>
      </trkpt>
      <trkpt lat="44.46879" lon="1.71937">
        <ele>140.2</ele>
        <time>2015-10-31T13:18:19Z</time>
      </trkpt>
      <trkpt lat="44.46878" lon="1.71926">
        <ele>140</ele>
        <time>2015-10-31T13:18:20Z</time>
      </trkpt>
      <trkpt lat="44.46876" lon="1.71919">
        <ele>139.8</ele>
        <time>2015-10-31T13:18:21Z</time>
      </trkpt>
      <trkpt lat="44.46874" lon="1.71911">
        <ele>139.6</ele>
        <time>2015-10-31T13:18:22Z</time>
      </trkpt>
      <trkpt lat="44.46872" lon="1.71903">
        <ele>139.6</ele>
        <time>2015-10-31T13:18:23Z</time>
      </trkpt>
      <trkpt lat="44.4687" lon="1.71891">
        <ele>139.7</ele>
        <time>2015-10-31T13:18:24Z</time>
      </trkpt>
      <trkpt lat="44.46867" lon="1.71882">
        <ele>139.8</ele>
        <time>2015-10-31T13:18:25Z</time>
      </trkpt>
      <trkpt lat="44.46867" lon="1.71873">
        <ele>140</ele>
        <time>2015-10-31T13:18:26Z</time>
      </trkpt>
      <trkpt lat="44.46867" lon="1.71867">
        <ele>140.6</ele>
        <time>2015-10-31T13:18:27Z</time>
      </trkpt>
      <trkpt lat="44.46865" lon="1.7186">
        <ele>141.3</ele>
        <time>2015-10-31T13:18:28Z</time>
      </trkpt>
      <trkpt lat="44.46864" lon="1.71854">
        <ele>141.8</ele>
        <time>2015-10-31T13:18:29Z</time>
      </trkpt>
      <trkpt lat="44.46863" lon="1.71845">
        <ele>142.6</ele>
        <time>2015-10-31T13:18:30Z</time>
      </trkpt>
      <trkpt lat="44.46861" lon="1.71836">
        <ele>143.3</ele>
        <time>2015-10-31T13:18:31Z</time>
      </trkpt>
      <trkpt lat="44.46859" lon="1.71828">
        <ele>144</ele>
        <time>2015-10-31T13:18:32Z</time>
      </trkpt>
      <trkpt lat="44.46859" lon="1.71821">
        <ele>144.5</ele>
        <time>2015-10-31T13:18:33Z</time>
      </trkpt>
      <trkpt lat="44.46856" lon="1.71814">
        <ele>145</ele>
        <time>2015-10-31T13:18:34Z</time>
      </trkpt>
      <trkpt lat="44.46853" lon="1.71809">
        <ele>145.1</ele>
        <time>2015-10-31T13:18:35Z</time>
      </trkpt>
      <trkpt lat="44.4685" lon="1.71802">
        <ele>145.4</ele>
        <time>2015-10-31T13:18:36Z</time>
      </trkpt>
      <trkpt lat="44.46848" lon="1.71793">
        <ele>145.9</ele>
        <time>2015-10-31T13:18:37Z</time>
      </trkpt>
      <trkpt lat="44.46846" lon="1.71784">
        <ele>146.9</ele>
        <time>2015-10-31T13:18:38Z</time>
      </trkpt>
      <trkpt lat="44.46845" lon="1.71775">
        <ele>147.8</ele>
        <time>2015-10-31T13:18:39Z</time>
      </trkpt>
      <trkpt lat="44.46842" lon="1.71768">
        <ele>148.4</ele>
        <time>2015-10-31T13:18:40Z</time>
      </trkpt>
      <trkpt lat="44.46839" lon="1.71763">
        <ele>148.5</ele>
        <time>2015-10-31T13:18:41Z</time>
      </trkpt>
      <trkpt lat="44.46835" lon="1.71756">
        <ele>148.7</ele>
        <time>2015-10-31T13:18:42Z</time>
      </trkpt>
      <trkpt lat="44.46831" lon="1.71743">
        <ele>149.4</ele>
        <time>2015-10-31T13:18:43Z</time>
      </trkpt>
      <trkpt lat="44.46826" lon="1.7174">
        <ele>148.6</ele>
        <time>2015-10-31T13:18:44Z</time>
      </trkpt>
      <trkpt lat="44.46825" lon="1.71735">
        <ele>149</ele>
        <time>2015-10-31T13:18:45Z</time>
      </trkpt>
      <trkpt lat="44.46824" lon="1.71723">
        <ele>149.9</ele>
        <time>2015-10-31T13:18:46Z</time>
      </trkpt>
      <trkpt lat="44.4682" lon="1.71714">
        <ele>149.7</ele>
        <time>2015-10-31T13:18:47Z</time>
      </trkpt>
      <trkpt lat="44.46817" lon="1.71708">
        <ele>149.7</ele>
        <time>2015-10-31T13:18:48Z</time>
      </trkpt>
      <trkpt lat="44.46812" lon="1.71704">
        <ele>149.1</ele>
        <time>2015-10-31T13:18:49Z</time>
      </trkpt>
      <trkpt lat="44.46809" lon="1.717">
        <ele>149.1</ele>
        <time>2015-10-31T13:18:50Z</time>
      </trkpt>
      <trkpt lat="44.46803" lon="1.71696">
        <ele>148.7</ele>
        <time>2015-10-31T13:18:51Z</time>
      </trkpt>
      <trkpt lat="44.46797" lon="1.71695">
        <ele>147.3</ele>
        <time>2015-10-31T13:18:52Z</time>
      </trkpt>
      <trkpt lat="44.46793" lon="1.71691">
        <ele>146.9</ele>
        <time>2015-10-31T13:18:53Z</time>
      </trkpt>
      <trkpt lat="44.46788" lon="1.71686">
        <ele>147.5</ele>
        <time>2015-10-31T13:18:54Z</time>
      </trkpt>
      <trkpt lat="44.46785" lon="1.71681">
        <ele>148.3</ele>
        <time>2015-10-31T13:18:55Z</time>
      </trkpt>
      <trkpt lat="44.46782" lon="1.71675">
        <ele>149.1</ele>
        <time>2015-10-31T13:18:56Z</time>
      </trkpt>
      <trkpt lat="44.46777" lon="1.71671">
        <ele>149.3</ele>
        <time>2015-10-31T13:18:57Z</time>
      </trkpt>
      <trkpt lat="44.46777" lon="1.71667">
        <ele>150.2</ele>
        <time>2015-10-31T13:18:58Z</time>
      </trkpt>
      <trkpt lat="44.46772" lon="1.71661">
        <ele>150.6</ele>
        <time>2015-10-31T13:18:59Z</time>
      </trkpt>
      <trkpt lat="44.46768" lon="1.71656">
        <ele>151</ele>
        <time>2015-10-31T13:19:00Z</time>
      </trkpt>
      <trkpt lat="44.46765" lon="1.71652">
        <ele>151</ele>
        <time>2015-10-31T13:19:01Z</time>
      </trkpt>
      <trkpt lat="44.46761" lon="1.71643">
        <ele>152.2</ele>
        <time>2015-10-31T13:19:02Z</time>
      </trkpt>
      <trkpt lat="44.46758" lon="1.71631">
        <ele>153.5</ele>
        <time>2015-10-31T13:19:03Z</time>
      </trkpt>
      <trkpt lat="44.46751" lon="1.71629">
        <ele>152.5</ele>
        <time>2015-10-31T13:19:04Z</time>
      </trkpt>
      <trkpt lat="44.4675" lon="1.71621">
        <ele>153.5</ele>
        <time>2015-10-31T13:19:05Z</time>
      </trkpt>
      <trkpt lat="44.46742" lon="1.71619">
        <ele>152.2</ele>
        <time>2015-10-31T13:19:06Z</time>
      </trkpt>
      <trkpt lat="44.4674" lon="1.7161">
        <ele>152.8</ele>
        <time>2015-10-31T13:19:07Z</time>
      </trkpt>
      <trkpt lat="44.46735" lon="1.71605">
        <ele>152.3</ele>
        <time>2015-10-31T13:19:08Z</time>
      </trkpt>
      <trkpt lat="44.46731" lon="1.71598">
        <ele>152.1</ele>
        <time>2015-10-31T13:19:09Z</time>
      </trkpt>
      <trkpt lat="44.46724" lon="1.71594">
        <ele>151</ele>
        <time>2015-10-31T13:19:10Z</time>
      </trkpt>
      <trkpt lat="44.46719" lon="1.71589">
        <ele>150.3</ele>
        <time>2015-10-31T13:19:11Z</time>
      </trkpt>
      <trkpt lat="44.46714" lon="1.71582">
        <ele>149.6</ele>
        <time>2015-10-31T13:19:12Z</time>
      </trkpt>
      <trkpt lat="44.46713" lon="1.71576">
        <ele>149.8</ele>
        <time>2015-10-31T13:19:13Z</time>
      </trkpt>
      <trkpt lat="44.46708" lon="1.71571">
        <ele>148.9</ele>
        <time>2015-10-31T13:19:14Z</time>
      </trkpt>
      <trkpt lat="44.46705" lon="1.71567">
        <ele>148.8</ele>
        <time>2015-10-31T13:19:15Z</time>
      </trkpt>
      <trkpt lat="44.467" lon="1.7156">
        <ele>148.7</ele>
        <time>2015-10-31T13:19:16Z</time>
      </trkpt>
      <trkpt lat="44.46697" lon="1.71553">
        <ele>148.7</ele>
        <time>2015-10-31T13:19:17Z</time>
      </trkpt>
      <trkpt lat="44.4669" lon="1.71548">
        <ele>148.2</ele>
        <time>2015-10-31T13:19:18Z</time>
      </trkpt>
      <trkpt lat="44.46685" lon="1.71543">
        <ele>147.9</ele>
        <time>2015-10-31T13:19:19Z</time>
      </trkpt>
      <trkpt lat="44.46682" lon="1.71536">
        <ele>147.9</ele>
        <time>2015-10-31T13:19:20Z</time>
      </trkpt>
      <trkpt lat="44.46679" lon="1.71529">
        <ele>148</ele>
        <time>2015-10-31T13:19:21Z</time>
      </trkpt>
      <trkpt lat="44.46676" lon="1.71525">
        <ele>147.7</ele>
        <time>2015-10-31T13:19:22Z</time>
      </trkpt>
      <trkpt lat="44.46673" lon="1.71519">
        <ele>147.6</ele>
        <time>2015-10-31T13:19:23Z</time>
      </trkpt>
      <trkpt lat="44.4667" lon="1.7151">
        <ele>147.7</ele>
        <time>2015-10-31T13:19:24Z</time>
      </trkpt>
      <trkpt lat="44.46668" lon="1.71503">
        <ele>147.8</ele>
        <time>2015-10-31T13:19:25Z</time>
      </trkpt>
      <trkpt lat="44.46666" lon="1.71497">
        <ele>147.8</ele>
        <time>2015-10-31T13:19:26Z</time>
      </trkpt>
      <trkpt lat="44.46663" lon="1.7149">
        <ele>147.7</ele>
        <time>2015-10-31T13:19:27Z</time>
      </trkpt>
      <trkpt lat="44.4666" lon="1.71483">
        <ele>147.5</ele>
        <time>2015-10-31T13:19:28Z</time>
      </trkpt>
      <trkpt lat="44.46657" lon="1.71477">
        <ele>147.2</ele>
        <time>2015-10-31T13:19:29Z</time>
      </trkpt>
      <trkpt lat="44.46655" lon="1.71473">
        <ele>147.2</ele>
        <time>2015-10-31T13:19:30Z</time>
      </trkpt>
      <trkpt lat="44.46652" lon="1.71464">
        <ele>147</ele>
        <time>2015-10-31T13:19:31Z</time>
      </trkpt>
      <trkpt lat="44.46649" lon="1.71454">
        <ele>147.2</ele>
        <time>2015-10-31T13:19:32Z</time>
      </trkpt>
      <trkpt lat="44.46645" lon="1.71445">
        <ele>147.6</ele>
        <time>2015-10-31T13:19:33Z</time>
      </trkpt>
      <trkpt lat="44.46641" lon="1.71438">
        <ele>147.8</ele>
        <time>2015-10-31T13:19:34Z</time>
      </trkpt>
      <trkpt lat="44.46637" lon="1.71432">
        <ele>147.4</ele>
        <time>2015-10-31T13:19:35Z</time>
      </trkpt>
      <trkpt lat="44.46633" lon="1.71426">
        <ele>147.3</ele>
        <time>2015-10-31T13:19:36Z</time>
      </trkpt>
      <trkpt lat="44.4663" lon="1.71418">
        <ele>147.4</ele>
        <time>2015-10-31T13:19:37Z</time>
      </trkpt>
      <trkpt lat="44.46624" lon="1.71408">
        <ele>146.7</ele>
        <time>2015-10-31T13:19:39Z</time>
      </trkpt>
      <trkpt lat="44.46621" lon="1.714">
        <ele>147</ele>
        <time>2015-10-31T13:19:40Z</time>
      </trkpt>
      <trkpt lat="44.46618" lon="1.71391">
        <ele>147.4</ele>
        <time>2015-10-31T13:19:41Z</time>
      </trkpt>
      <trkpt lat="44.46615" lon="1.71384">
        <ele>147.5</ele>
        <time>2015-10-31T13:19:42Z</time>
      </trkpt>
      <trkpt lat="44.46613" lon="1.71377">
        <ele>147.9</ele>
        <time>2015-10-31T13:19:43Z</time>
      </trkpt>
      <trkpt lat="44.46608" lon="1.7137">
        <ele>147.7</ele>
        <time>2015-10-31T13:19:44Z</time>
      </trkpt>
      <trkpt lat="44.46606" lon="1.71365">
        <ele>147.9</ele>
        <time>2015-10-31T13:19:45Z</time>
      </trkpt>
      <trkpt lat="44.46603" lon="1.71357">
        <ele>148.1</ele>
        <time>2015-10-31T13:19:46Z</time>
      </trkpt>
      <trkpt lat="44.46598" lon="1.71352">
        <ele>147.8</ele>
        <time>2015-10-31T13:19:47Z</time>
      </trkpt>
      <trkpt lat="44.46595" lon="1.71348">
        <ele>147.5</ele>
        <time>2015-10-31T13:19:48Z</time>
      </trkpt>
      <trkpt lat="44.46593" lon="1.7134">
        <ele>147.8</ele>
        <time>2015-10-31T13:19:49Z</time>
      </trkpt>
      <trkpt lat="44.46591" lon="1.71334">
        <ele>147.9</ele>
        <time>2015-10-31T13:19:50Z</time>
      </trkpt>
      <trkpt lat="44.46589" lon="1.71325">
        <ele>148.3</ele>
        <time>2015-10-31T13:19:51Z</time>
      </trkpt>
      <trkpt lat="44.46585" lon="1.71319">
        <ele>148.1</ele>
        <time>2015-10-31T13:19:52Z</time>
      </trkpt>
      <trkpt lat="44.46582" lon="1.71314">
        <ele>147.8</ele>
        <time>2015-10-31T13:19:53Z</time>
      </trkpt>
      <trkpt lat="44.4658" lon="1.71304">
        <ele>148.3</ele>
        <time>2015-10-31T13:19:54Z</time>
      </trkpt>
      <trkpt lat="44.46579" lon="1.71296">
        <ele>148.5</ele>
        <time>2015-10-31T13:19:55Z</time>
      </trkpt>
      <trkpt lat="44.46575" lon="1.71291">
        <ele>148.1</ele>
        <time>2015-10-31T13:19:56Z</time>
      </trkpt>
      <trkpt lat="44.46574" lon="1.71286">
        <ele>148.4</ele>
        <time>2015-10-31T13:19:57Z</time>
      </trkpt>
      <trkpt lat="44.46571" lon="1.71282">
        <ele>148.1</ele>
        <time>2015-10-31T13:19:58Z</time>
      </trkpt>
      <trkpt lat="44.46569" lon="1.71275">
        <ele>148.2</ele>
        <time>2015-10-31T13:19:59Z</time>
      </trkpt>
      <trkpt lat="44.46567" lon="1.71268">
        <ele>148.1</ele>
        <time>2015-10-31T13:20:00Z</time>
      </trkpt>
      <trkpt lat="44.46564" lon="1.7126">
        <ele>148.2</ele>
        <time>2015-10-31T13:20:01Z</time>
      </trkpt>
      <trkpt lat="44.46561" lon="1.71253">
        <ele>147.7</ele>
        <time>2015-10-31T13:20:02Z</time>
      </trkpt>
      <trkpt lat="44.46559" lon="1.71247">
        <ele>147.8</ele>
        <time>2015-10-31T13:20:03Z</time>
      </trkpt>
      <trkpt lat="44.46557" lon="1.7124">
        <ele>147.6</ele>
        <time>2015-10-31T13:20:04Z</time>
      </trkpt>
      <trkpt lat="44.46555" lon="1.71234">
        <ele>147.6</ele>
        <time>2015-10-31T13:20:05Z</time>
      </trkpt>
      <trkpt lat="44.46551" lon="1.71227">
        <ele>146.8</ele>
        <time>2015-10-31T13:20:06Z</time>
      </trkpt>
      <trkpt lat="44.46547" lon="1.71221">
        <ele>145.8</ele>
        <time>2015-10-31T13:20:07Z</time>
      </trkpt>
      <trkpt lat="44.46543" lon="1.71215">
        <ele>145</ele>
        <time>2015-10-31T13:20:08Z</time>
      </trkpt>
      <trkpt lat="44.46539" lon="1.71209">
        <ele>144.6</ele>
        <time>2015-10-31T13:20:09Z</time>
      </trkpt>
      <trkpt lat="44.46535" lon="1.712">
        <ele>145.1</ele>
        <time>2015-10-31T13:20:10Z</time>
      </trkpt>
      <trkpt lat="44.46535" lon="1.71193">
        <ele>146.1</ele>
        <time>2015-10-31T13:20:11Z</time>
      </trkpt>
      <trkpt lat="44.46531" lon="1.71186">
        <ele>146.3</ele>
        <time>2015-10-31T13:20:12Z</time>
      </trkpt>
      <trkpt lat="44.46527" lon="1.7118">
        <ele>146.2</ele>
        <time>2015-10-31T13:20:13Z</time>
      </trkpt>
      <trkpt lat="44.46525" lon="1.71172">
        <ele>146.8</ele>
        <time>2015-10-31T13:20:14Z</time>
      </trkpt>
      <trkpt lat="44.46525" lon="1.71165">
        <ele>147.6</ele>
        <time>2015-10-31T13:20:15Z</time>
      </trkpt>
      <trkpt lat="44.46523" lon="1.71158">
        <ele>148</ele>
        <time>2015-10-31T13:20:16Z</time>
      </trkpt>
      <trkpt lat="44.46517" lon="1.71154">
        <ele>147.3</ele>
        <time>2015-10-31T13:20:17Z</time>
      </trkpt>
      <trkpt lat="44.46515" lon="1.71149">
        <ele>147.2</ele>
        <time>2015-10-31T13:20:18Z</time>
      </trkpt>
      <trkpt lat="44.46511" lon="1.71144">
        <ele>146.9</ele>
        <time>2015-10-31T13:20:19Z</time>
      </trkpt>
      <trkpt lat="44.46509" lon="1.71139">
        <ele>146.8</ele>
        <time>2015-10-31T13:20:20Z</time>
      </trkpt>
      <trkpt lat="44.46504" lon="1.71135">
        <ele>146</ele>
        <time>2015-10-31T13:20:21Z</time>
      </trkpt>
      <trkpt lat="44.465" lon="1.71129">
        <ele>145.7</ele>
        <time>2015-10-31T13:20:22Z</time>
      </trkpt>
      <trkpt lat="44.46495" lon="1.71123">
        <ele>145</ele>
        <time>2015-10-31T13:20:23Z</time>
      </trkpt>
      <trkpt lat="44.46491" lon="1.71118">
        <ele>144.5</ele>
        <time>2015-10-31T13:20:24Z</time>
      </trkpt>
      <trkpt lat="44.46489" lon="1.71111">
        <ele>144.4</ele>
        <time>2015-10-31T13:20:25Z</time>
      </trkpt>
      <trkpt lat="44.46486" lon="1.71105">
        <ele>144.1</ele>
        <time>2015-10-31T13:20:26Z</time>
      </trkpt>
      <trkpt lat="44.46483" lon="1.71099">
        <ele>143.7</ele>
        <time>2015-10-31T13:20:27Z</time>
      </trkpt>
      <trkpt lat="44.46481" lon="1.71091">
        <ele>143.6</ele>
        <time>2015-10-31T13:20:28Z</time>
      </trkpt>
      <trkpt lat="44.46478" lon="1.71085">
        <ele>143.2</ele>
        <time>2015-10-31T13:20:29Z</time>
      </trkpt>
      <trkpt lat="44.46474" lon="1.71077">
        <ele>142.8</ele>
        <time>2015-10-31T13:20:30Z</time>
      </trkpt>
      <trkpt lat="44.46472" lon="1.71069">
        <ele>142.6</ele>
        <time>2015-10-31T13:20:31Z</time>
      </trkpt>
      <trkpt lat="44.46469" lon="1.71062">
        <ele>142.1</ele>
        <time>2015-10-31T13:20:32Z</time>
      </trkpt>
      <trkpt lat="44.46466" lon="1.71056">
        <ele>141.7</ele>
        <time>2015-10-31T13:20:33Z</time>
      </trkpt>
      <trkpt lat="44.46463" lon="1.71048">
        <ele>141.1</ele>
        <time>2015-10-31T13:20:34Z</time>
      </trkpt>
      <trkpt lat="44.4646" lon="1.71043">
        <ele>140.6</ele>
        <time>2015-10-31T13:20:35Z</time>
      </trkpt>
      <trkpt lat="44.46458" lon="1.71036">
        <ele>140.5</ele>
        <time>2015-10-31T13:20:36Z</time>
      </trkpt>
      <trkpt lat="44.46455" lon="1.7103">
        <ele>140.8</ele>
        <time>2015-10-31T13:20:37Z</time>
      </trkpt>
      <trkpt lat="44.46452" lon="1.71023">
        <ele>141.1</ele>
        <time>2015-10-31T13:20:38Z</time>
      </trkpt>
      <trkpt lat="44.4645" lon="1.71019">
        <ele>141.3</ele>
        <time>2015-10-31T13:20:39Z</time>
      </trkpt>
      <trkpt lat="44.46447" lon="1.71013">
        <ele>141.5</ele>
        <time>2015-10-31T13:20:40Z</time>
      </trkpt>
      <trkpt lat="44.46445" lon="1.71007">
        <ele>141.7</ele>
        <time>2015-10-31T13:20:41Z</time>
      </trkpt>
      <trkpt lat="44.46444" lon="1.71002">
        <ele>141.9</ele>
        <time>2015-10-31T13:20:42Z</time>
      </trkpt>
      <trkpt lat="44.4644" lon="1.70995">
        <ele>142.1</ele>
        <time>2015-10-31T13:20:43Z</time>
      </trkpt>
      <trkpt lat="44.46435" lon="1.70986">
        <ele>142.1</ele>
        <time>2015-10-31T13:20:44Z</time>
      </trkpt>
      <trkpt lat="44.46433" lon="1.70983">
        <ele>142.1</ele>
        <time>2015-10-31T13:20:45Z</time>
      </trkpt>
      <trkpt lat="44.4643" lon="1.70974">
        <ele>142.3</ele>
        <time>2015-10-31T13:20:46Z</time>
      </trkpt>
      <trkpt lat="44.46426" lon="1.70966">
        <ele>142.3</ele>
        <time>2015-10-31T13:20:47Z</time>
      </trkpt>
      <trkpt lat="44.46424" lon="1.70958">
        <ele>142.4</ele>
        <time>2015-10-31T13:20:48Z</time>
      </trkpt>
      <trkpt lat="44.46418" lon="1.70951">
        <ele>142.4</ele>
        <time>2015-10-31T13:20:50Z</time>
      </trkpt>
      <trkpt lat="44.46416" lon="1.70946">
        <ele>142.6</ele>
        <time>2015-10-31T13:20:51Z</time>
      </trkpt>
      <trkpt lat="44.46412" lon="1.70936">
        <ele>143</ele>
        <time>2015-10-31T13:20:52Z</time>
      </trkpt>
      <trkpt lat="44.4641" lon="1.70932">
        <ele>143</ele>
        <time>2015-10-31T13:20:53Z</time>
      </trkpt>
      <trkpt lat="44.46407" lon="1.70925">
        <ele>143.3</ele>
        <time>2015-10-31T13:20:54Z</time>
      </trkpt>
      <trkpt lat="44.46404" lon="1.70915">
        <ele>143.6</ele>
        <time>2015-10-31T13:20:55Z</time>
      </trkpt>
      <trkpt lat="44.46401" lon="1.70907">
        <ele>143.6</ele>
        <time>2015-10-31T13:20:56Z</time>
      </trkpt>
      <trkpt lat="44.46398" lon="1.709">
        <ele>143.6</ele>
        <time>2015-10-31T13:20:57Z</time>
      </trkpt>
      <trkpt lat="44.46395" lon="1.70892">
        <ele>143.7</ele>
        <time>2015-10-31T13:20:58Z</time>
      </trkpt>
      <trkpt lat="44.46392" lon="1.70885">
        <ele>143.7</ele>
        <time>2015-10-31T13:20:59Z</time>
      </trkpt>
      <trkpt lat="44.4639" lon="1.70878">
        <ele>143.7</ele>
        <time>2015-10-31T13:21:00Z</time>
      </trkpt>
      <trkpt lat="44.46387" lon="1.70873">
        <ele>143.5</ele>
        <time>2015-10-31T13:21:01Z</time>
      </trkpt>
      <trkpt lat="44.46384" lon="1.70868">
        <ele>143.3</ele>
        <time>2015-10-31T13:21:02Z</time>
      </trkpt>
      <trkpt lat="44.46382" lon="1.70861">
        <ele>143.3</ele>
        <time>2015-10-31T13:21:03Z</time>
      </trkpt>
      <trkpt lat="44.4638" lon="1.70853">
        <ele>143.3</ele>
        <time>2015-10-31T13:21:04Z</time>
      </trkpt>
      <trkpt lat="44.46377" lon="1.70845">
        <ele>143.1</ele>
        <time>2015-10-31T13:21:05Z</time>
      </trkpt>
      <trkpt lat="44.46373" lon="1.70839">
        <ele>142.9</ele>
        <time>2015-10-31T13:21:06Z</time>
      </trkpt>
      <trkpt lat="44.46369" lon="1.70834">
        <ele>142.7</ele>
        <time>2015-10-31T13:21:07Z</time>
      </trkpt>
      <trkpt lat="44.46365" lon="1.70828">
        <ele>142.6</ele>
        <time>2015-10-31T13:21:08Z</time>
      </trkpt>
      <trkpt lat="44.4636" lon="1.70823">
        <ele>142.2</ele>
        <time>2015-10-31T13:21:09Z</time>
      </trkpt>
      <trkpt lat="44.46357" lon="1.70818">
        <ele>142.2</ele>
        <time>2015-10-31T13:21:10Z</time>
      </trkpt>
      <trkpt lat="44.46355" lon="1.70811">
        <ele>142.2</ele>
        <time>2015-10-31T13:21:11Z</time>
      </trkpt>
      <trkpt lat="44.46354" lon="1.70805">
        <ele>142.4</ele>
        <time>2015-10-31T13:21:12Z</time>
      </trkpt>
      <trkpt lat="44.46351" lon="1.70796">
        <ele>142.3</ele>
        <time>2015-10-31T13:21:13Z</time>
      </trkpt>
      <trkpt lat="44.4635" lon="1.7079">
        <ele>142.5</ele>
        <time>2015-10-31T13:21:14Z</time>
      </trkpt>
      <trkpt lat="44.46348" lon="1.70784">
        <ele>142.6</ele>
        <time>2015-10-31T13:21:15Z</time>
      </trkpt>
      <trkpt lat="44.46343" lon="1.7078">
        <ele>142.2</ele>
        <time>2015-10-31T13:21:16Z</time>
      </trkpt>
      <trkpt lat="44.4634" lon="1.70774">
        <ele>142.1</ele>
        <time>2015-10-31T13:21:17Z</time>
      </trkpt>
      <trkpt lat="44.46337" lon="1.70765">
        <ele>142.1</ele>
        <time>2015-10-31T13:21:18Z</time>
      </trkpt>
      <trkpt lat="44.46333" lon="1.70756">
        <ele>142.1</ele>
        <time>2015-10-31T13:21:19Z</time>
      </trkpt>
      <trkpt lat="44.46329" lon="1.70749">
        <ele>141.9</ele>
        <time>2015-10-31T13:21:20Z</time>
      </trkpt>
      <trkpt lat="44.46325" lon="1.70743">
        <ele>141.6</ele>
        <time>2015-10-31T13:21:21Z</time>
      </trkpt>
      <trkpt lat="44.46321" lon="1.70735">
        <ele>141.4</ele>
        <time>2015-10-31T13:21:22Z</time>
      </trkpt>
      <trkpt lat="44.46315" lon="1.70728">
        <ele>140.9</ele>
        <time>2015-10-31T13:21:23Z</time>
      </trkpt>
      <trkpt lat="44.46313" lon="1.70723">
        <ele>140.8</ele>
        <time>2015-10-31T13:21:24Z</time>
      </trkpt>
      <trkpt lat="44.46309" lon="1.70711">
        <ele>140.7</ele>
        <time>2015-10-31T13:21:26Z</time>
      </trkpt>
      <trkpt lat="44.46306" lon="1.70705">
        <ele>140.6</ele>
        <time>2015-10-31T13:21:27Z</time>
      </trkpt>
      <trkpt lat="44.46302" lon="1.70696">
        <ele>140.4</ele>
        <time>2015-10-31T13:21:28Z</time>
      </trkpt>
      <trkpt lat="44.463" lon="1.70686">
        <ele>140.5</ele>
        <time>2015-10-31T13:21:29Z</time>
      </trkpt>
      <trkpt lat="44.46298" lon="1.70684">
        <ele>140.2</ele>
        <time>2015-10-31T13:21:30Z</time>
      </trkpt>
      <trkpt lat="44.46297" lon="1.70676">
        <ele>140.5</ele>
        <time>2015-10-31T13:21:31Z</time>
      </trkpt>
      <trkpt lat="44.46295" lon="1.70665">
        <ele>140.6</ele>
        <time>2015-10-31T13:21:32Z</time>
      </trkpt>
      <trkpt lat="44.46291" lon="1.70658">
        <ele>140.4</ele>
        <time>2015-10-31T13:21:33Z</time>
      </trkpt>
      <trkpt lat="44.46285" lon="1.70654">
        <ele>140.2</ele>
        <time>2015-10-31T13:21:34Z</time>
      </trkpt>
      <trkpt lat="44.46285" lon="1.70644">
        <ele>140.6</ele>
        <time>2015-10-31T13:21:35Z</time>
      </trkpt>
      <trkpt lat="44.46282" lon="1.70639">
        <ele>140.7</ele>
        <time>2015-10-31T13:21:36Z</time>
      </trkpt>
      <trkpt lat="44.46278" lon="1.70629">
        <ele>140.8</ele>
        <time>2015-10-31T13:21:37Z</time>
      </trkpt>
      <trkpt lat="44.46276" lon="1.70622">
        <ele>140.9</ele>
        <time>2015-10-31T13:21:38Z</time>
      </trkpt>
      <trkpt lat="44.46274" lon="1.70618">
        <ele>140.9</ele>
        <time>2015-10-31T13:21:39Z</time>
      </trkpt>
      <trkpt lat="44.4627" lon="1.70609">
        <ele>140.9</ele>
        <time>2015-10-31T13:21:40Z</time>
      </trkpt>
      <trkpt lat="44.46268" lon="1.70602">
        <ele>140.9</ele>
        <time>2015-10-31T13:21:41Z</time>
      </trkpt>
      <trkpt lat="44.46265" lon="1.70595">
        <ele>140.9</ele>
        <time>2015-10-31T13:21:42Z</time>
      </trkpt>
      <trkpt lat="44.46262" lon="1.70587">
        <ele>140.9</ele>
        <time>2015-10-31T13:21:43Z</time>
      </trkpt>
      <trkpt lat="44.46261" lon="1.7058">
        <ele>141</ele>
        <time>2015-10-31T13:21:44Z</time>
      </trkpt>
      <trkpt lat="44.46259" lon="1.70574">
        <ele>141.1</ele>
        <time>2015-10-31T13:21:45Z</time>
      </trkpt>
      <trkpt lat="44.46257" lon="1.70567">
        <ele>141</ele>
        <time>2015-10-31T13:21:46Z</time>
      </trkpt>
      <trkpt lat="44.46253" lon="1.70559">
        <ele>140.9</ele>
        <time>2015-10-31T13:21:47Z</time>
      </trkpt>
      <trkpt lat="44.46251" lon="1.70551">
        <ele>140.8</ele>
        <time>2015-10-31T13:21:48Z</time>
      </trkpt>
      <trkpt lat="44.46247" lon="1.70542">
        <ele>140.6</ele>
        <time>2015-10-31T13:21:49Z</time>
      </trkpt>
      <trkpt lat="44.46244" lon="1.70535">
        <ele>140.4</ele>
        <time>2015-10-31T13:21:50Z</time>
      </trkpt>
      <trkpt lat="44.46242" lon="1.70526">
        <ele>140.1</ele>
        <time>2015-10-31T13:21:51Z</time>
      </trkpt>
      <trkpt lat="44.4624" lon="1.70519">
        <ele>139.8</ele>
        <time>2015-10-31T13:21:52Z</time>
      </trkpt>
      <trkpt lat="44.46236" lon="1.70513">
        <ele>139.3</ele>
        <time>2015-10-31T13:21:53Z</time>
      </trkpt>
      <trkpt lat="44.46236" lon="1.70504">
        <ele>139.2</ele>
        <time>2015-10-31T13:21:54Z</time>
      </trkpt>
      <trkpt lat="44.46233" lon="1.70494">
        <ele>138.8</ele>
        <time>2015-10-31T13:21:55Z</time>
      </trkpt>
      <trkpt lat="44.46233" lon="1.70484">
        <ele>138.7</ele>
        <time>2015-10-31T13:21:56Z</time>
      </trkpt>
      <trkpt lat="44.46231" lon="1.70476">
        <ele>138.4</ele>
        <time>2015-10-31T13:21:57Z</time>
      </trkpt>
      <trkpt lat="44.4623" lon="1.70467">
        <ele>138.1</ele>
        <time>2015-10-31T13:21:58Z</time>
      </trkpt>
      <trkpt lat="44.46228" lon="1.70458">
        <ele>137.8</ele>
        <time>2015-10-31T13:21:59Z</time>
      </trkpt>
      <trkpt lat="44.46225" lon="1.7045">
        <ele>137.5</ele>
        <time>2015-10-31T13:22:00Z</time>
      </trkpt>
      <trkpt lat="44.46223" lon="1.70444">
        <ele>137.3</ele>
        <time>2015-10-31T13:22:01Z</time>
      </trkpt>
      <trkpt lat="44.46222" lon="1.70436">
        <ele>137.1</ele>
        <time>2015-10-31T13:22:02Z</time>
      </trkpt>
      <trkpt lat="44.46221" lon="1.70428">
        <ele>136.9</ele>
        <time>2015-10-31T13:22:03Z</time>
      </trkpt>
      <trkpt lat="44.4622" lon="1.70421">
        <ele>136.7</ele>
        <time>2015-10-31T13:22:04Z</time>
      </trkpt>
      <trkpt lat="44.46218" lon="1.70412">
        <ele>136.4</ele>
        <time>2015-10-31T13:22:05Z</time>
      </trkpt>
      <trkpt lat="44.46216" lon="1.70405">
        <ele>136.1</ele>
        <time>2015-10-31T13:22:06Z</time>
      </trkpt>
      <trkpt lat="44.46215" lon="1.70397">
        <ele>135.9</ele>
        <time>2015-10-31T13:22:07Z</time>
      </trkpt>
      <trkpt lat="44.46215" lon="1.70391">
        <ele>135.9</ele>
        <time>2015-10-31T13:22:08Z</time>
      </trkpt>
      <trkpt lat="44.46214" lon="1.70382">
        <ele>135.7</ele>
        <time>2015-10-31T13:22:09Z</time>
      </trkpt>
      <trkpt lat="44.46216" lon="1.70375">
        <ele>135.8</ele>
        <time>2015-10-31T13:22:10Z</time>
      </trkpt>
      <trkpt lat="44.46215" lon="1.70366">
        <ele>135.8</ele>
        <time>2015-10-31T13:22:11Z</time>
      </trkpt>
      <trkpt lat="44.46215" lon="1.70356">
        <ele>136</ele>
        <time>2015-10-31T13:22:12Z</time>
      </trkpt>
      <trkpt lat="44.46214" lon="1.70346">
        <ele>135.9</ele>
        <time>2015-10-31T13:22:13Z</time>
      </trkpt>
      <trkpt lat="44.46212" lon="1.70338">
        <ele>135.9</ele>
        <time>2015-10-31T13:22:14Z</time>
      </trkpt>
      <trkpt lat="44.46211" lon="1.7033">
        <ele>135.8</ele>
        <time>2015-10-31T13:22:15Z</time>
      </trkpt>
      <trkpt lat="44.4621" lon="1.70322">
        <ele>135.8</ele>
        <time>2015-10-31T13:22:16Z</time>
      </trkpt>
      <trkpt lat="44.4621" lon="1.70312">
        <ele>135.9</ele>
        <time>2015-10-31T13:22:17Z</time>
      </trkpt>
      <trkpt lat="44.46208" lon="1.70303">
        <ele>135.9</ele>
        <time>2015-10-31T13:22:18Z</time>
      </trkpt>
      <trkpt lat="44.46209" lon="1.70296">
        <ele>136</ele>
        <time>2015-10-31T13:22:19Z</time>
      </trkpt>
      <trkpt lat="44.46209" lon="1.70288">
        <ele>136.1</ele>
        <time>2015-10-31T13:22:20Z</time>
      </trkpt>
      <trkpt lat="44.46207" lon="1.70282">
        <ele>136.1</ele>
        <time>2015-10-31T13:22:21Z</time>
      </trkpt>
      <trkpt lat="44.46208" lon="1.70275">
        <ele>136.2</ele>
        <time>2015-10-31T13:22:22Z</time>
      </trkpt>
      <trkpt lat="44.46208" lon="1.70266">
        <ele>136.3</ele>
        <time>2015-10-31T13:22:23Z</time>
      </trkpt>
      <trkpt lat="44.4621" lon="1.70258">
        <ele>136.6</ele>
        <time>2015-10-31T13:22:24Z</time>
      </trkpt>
      <trkpt lat="44.46211" lon="1.70251">
        <ele>136.7</ele>
        <time>2015-10-31T13:22:25Z</time>
      </trkpt>
      <trkpt lat="44.46212" lon="1.70246">
        <ele>136.8</ele>
        <time>2015-10-31T13:22:26Z</time>
      </trkpt>
      <trkpt lat="44.46212" lon="1.7024">
        <ele>137</ele>
        <time>2015-10-31T13:22:27Z</time>
      </trkpt>
      <trkpt lat="44.46214" lon="1.70234">
        <ele>137.3</ele>
        <time>2015-10-31T13:22:28Z</time>
      </trkpt>
      <trkpt lat="44.46216" lon="1.70227">
        <ele>137.4</ele>
        <time>2015-10-31T13:22:29Z</time>
      </trkpt>
      <trkpt lat="44.46217" lon="1.70221">
        <ele>137.6</ele>
        <time>2015-10-31T13:22:30Z</time>
      </trkpt>
      <trkpt lat="44.46218" lon="1.70215">
        <ele>137.7</ele>
        <time>2015-10-31T13:22:31Z</time>
      </trkpt>
      <trkpt lat="44.46219" lon="1.70209">
        <ele>137.9</ele>
        <time>2015-10-31T13:22:32Z</time>
      </trkpt>
      <trkpt lat="44.46221" lon="1.70203">
        <ele>138.1</ele>
        <time>2015-10-31T13:22:33Z</time>
      </trkpt>
      <trkpt lat="44.46223" lon="1.70198">
        <ele>138.3</ele>
        <time>2015-10-31T13:22:34Z</time>
      </trkpt>
      <trkpt lat="44.46224" lon="1.70191">
        <ele>138.4</ele>
        <time>2015-10-31T13:22:35Z</time>
      </trkpt>
      <trkpt lat="44.46225" lon="1.70185">
        <ele>138.5</ele>
        <time>2015-10-31T13:22:36Z</time>
      </trkpt>
      <trkpt lat="44.46226" lon="1.70179">
        <ele>138.6</ele>
        <time>2015-10-31T13:22:37Z</time>
      </trkpt>
      <trkpt lat="44.46226" lon="1.70172">
        <ele>138.7</ele>
        <time>2015-10-31T13:22:38Z</time>
      </trkpt>
      <trkpt lat="44.46228" lon="1.70162">
        <ele>138.8</ele>
        <time>2015-10-31T13:22:39Z</time>
      </trkpt>
      <trkpt lat="44.46229" lon="1.70154">
        <ele>138.9</ele>
        <time>2015-10-31T13:22:40Z</time>
      </trkpt>
      <trkpt lat="44.4623" lon="1.70146">
        <ele>139</ele>
        <time>2015-10-31T13:22:41Z</time>
      </trkpt>
      <trkpt lat="44.46232" lon="1.70137">
        <ele>139.1</ele>
        <time>2015-10-31T13:22:42Z</time>
      </trkpt>
      <trkpt lat="44.46235" lon="1.70131">
        <ele>139.3</ele>
        <time>2015-10-31T13:22:43Z</time>
      </trkpt>
      <trkpt lat="44.46237" lon="1.70123">
        <ele>139.3</ele>
        <time>2015-10-31T13:22:44Z</time>
      </trkpt>
      <trkpt lat="44.46238" lon="1.70111">
        <ele>139.2</ele>
        <time>2015-10-31T13:22:45Z</time>
      </trkpt>
      <trkpt lat="44.46238" lon="1.70101">
        <ele>139.1</ele>
        <time>2015-10-31T13:22:46Z</time>
      </trkpt>
      <trkpt lat="44.46239" lon="1.70091">
        <ele>139.1</ele>
        <time>2015-10-31T13:22:47Z</time>
      </trkpt>
      <trkpt lat="44.46241" lon="1.70082">
        <ele>139.1</ele>
        <time>2015-10-31T13:22:48Z</time>
      </trkpt>
      <trkpt lat="44.46243" lon="1.70073">
        <ele>139</ele>
        <time>2015-10-31T13:22:49Z</time>
      </trkpt>
      <trkpt lat="44.46243" lon="1.70066">
        <ele>138.9</ele>
        <time>2015-10-31T13:22:50Z</time>
      </trkpt>
      <trkpt lat="44.46245" lon="1.70059">
        <ele>139</ele>
        <time>2015-10-31T13:22:51Z</time>
      </trkpt>
      <trkpt lat="44.46246" lon="1.70051">
        <ele>138.9</ele>
        <time>2015-10-31T13:22:52Z</time>
      </trkpt>
      <trkpt lat="44.46247" lon="1.70043">
        <ele>138.9</ele>
        <time>2015-10-31T13:22:53Z</time>
      </trkpt>
      <trkpt lat="44.46248" lon="1.70033">
        <ele>138.8</ele>
        <time>2015-10-31T13:22:54Z</time>
      </trkpt>
      <trkpt lat="44.4625" lon="1.70024">
        <ele>138.8</ele>
        <time>2015-10-31T13:22:55Z</time>
      </trkpt>
      <trkpt lat="44.46251" lon="1.70014">
        <ele>138.7</ele>
        <time>2015-10-31T13:22:56Z</time>
      </trkpt>
      <trkpt lat="44.46253" lon="1.70006">
        <ele>138.7</ele>
        <time>2015-10-31T13:22:57Z</time>
      </trkpt>
      <trkpt lat="44.46254" lon="1.69998">
        <ele>138.7</ele>
        <time>2015-10-31T13:22:58Z</time>
      </trkpt>
      <trkpt lat="44.46255" lon="1.6999">
        <ele>138.6</ele>
        <time>2015-10-31T13:22:59Z</time>
      </trkpt>
      <trkpt lat="44.46257" lon="1.69983">
        <ele>138.6</ele>
        <time>2015-10-31T13:23:00Z</time>
      </trkpt>
      <trkpt lat="44.46258" lon="1.69973">
        <ele>138.6</ele>
        <time>2015-10-31T13:23:01Z</time>
      </trkpt>
      <trkpt lat="44.46259" lon="1.69966">
        <ele>138.5</ele>
        <time>2015-10-31T13:23:02Z</time>
      </trkpt>
      <trkpt lat="44.46259" lon="1.69953">
        <ele>138.3</ele>
        <time>2015-10-31T13:23:03Z</time>
      </trkpt>
      <trkpt lat="44.46263" lon="1.69945">
        <ele>138.4</ele>
        <time>2015-10-31T13:23:04Z</time>
      </trkpt>
      <trkpt lat="44.46264" lon="1.69935">
        <ele>138.2</ele>
        <time>2015-10-31T13:23:05Z</time>
      </trkpt>
      <trkpt lat="44.46268" lon="1.69927">
        <ele>138.2</ele>
        <time>2015-10-31T13:23:06Z</time>
      </trkpt>
      <trkpt lat="44.46267" lon="1.69919">
        <ele>138</ele>
        <time>2015-10-31T13:23:07Z</time>
      </trkpt>
      <trkpt lat="44.46276" lon="1.69915">
        <ele>138.3</ele>
        <time>2015-10-31T13:23:08Z</time>
      </trkpt>
      <trkpt lat="44.46278" lon="1.69906">
        <ele>138.2</ele>
        <time>2015-10-31T13:23:09Z</time>
      </trkpt>
      <trkpt lat="44.46279" lon="1.69897">
        <ele>138</ele>
        <time>2015-10-31T13:23:10Z</time>
      </trkpt>
      <trkpt lat="44.46278" lon="1.69886">
        <ele>137.7</ele>
        <time>2015-10-31T13:23:11Z</time>
      </trkpt>
      <trkpt lat="44.46282" lon="1.69877">
        <ele>137.7</ele>
        <time>2015-10-31T13:23:12Z</time>
      </trkpt>
      <trkpt lat="44.46284" lon="1.69866">
        <ele>137.6</ele>
        <time>2015-10-31T13:23:13Z</time>
      </trkpt>
      <trkpt lat="44.46283" lon="1.69859">
        <ele>137.5</ele>
        <time>2015-10-31T13:23:14Z</time>
      </trkpt>
      <trkpt lat="44.46284" lon="1.6985">
        <ele>137.5</ele>
        <time>2015-10-31T13:23:15Z</time>
      </trkpt>
      <trkpt lat="44.46287" lon="1.69844">
        <ele>137.5</ele>
        <time>2015-10-31T13:23:16Z</time>
      </trkpt>
      <trkpt lat="44.46289" lon="1.69838">
        <ele>137.5</ele>
        <time>2015-10-31T13:23:17Z</time>
      </trkpt>
      <trkpt lat="44.46289" lon="1.69827">
        <ele>137.4</ele>
        <time>2015-10-31T13:23:18Z</time>
      </trkpt>
      <trkpt lat="44.46288" lon="1.69818">
        <ele>137.3</ele>
        <time>2015-10-31T13:23:19Z</time>
      </trkpt>
      <trkpt lat="44.46291" lon="1.69813">
        <ele>137.2</ele>
        <time>2015-10-31T13:23:20Z</time>
      </trkpt>
      <trkpt lat="44.46294" lon="1.69807">
        <ele>137.3</ele>
        <time>2015-10-31T13:23:21Z</time>
      </trkpt>
      <trkpt lat="44.46295" lon="1.69797">
        <ele>137.2</ele>
        <time>2015-10-31T13:23:22Z</time>
      </trkpt>
      <trkpt lat="44.46297" lon="1.69786">
        <ele>137.3</ele>
        <time>2015-10-31T13:23:23Z</time>
      </trkpt>
      <trkpt lat="44.46299" lon="1.6978">
        <ele>137.3</ele>
        <time>2015-10-31T13:23:24Z</time>
      </trkpt>
      <trkpt lat="44.463" lon="1.6977">
        <ele>137.4</ele>
        <time>2015-10-31T13:23:25Z</time>
      </trkpt>
      <trkpt lat="44.46301" lon="1.69762">
        <ele>137.5</ele>
        <time>2015-10-31T13:23:26Z</time>
      </trkpt>
      <trkpt lat="44.46303" lon="1.69754">
        <ele>137.6</ele>
        <time>2015-10-31T13:23:27Z</time>
      </trkpt>
      <trkpt lat="44.46306" lon="1.69746">
        <ele>137.8</ele>
        <time>2015-10-31T13:23:28Z</time>
      </trkpt>
      <trkpt lat="44.46306" lon="1.69739">
        <ele>137.8</ele>
        <time>2015-10-31T13:23:29Z</time>
      </trkpt>
      <trkpt lat="44.46307" lon="1.69732">
        <ele>137.8</ele>
        <time>2015-10-31T13:23:30Z</time>
      </trkpt>
      <trkpt lat="44.46308" lon="1.69722">
        <ele>138</ele>
        <time>2015-10-31T13:23:31Z</time>
      </trkpt>
      <trkpt lat="44.46311" lon="1.69713">
        <ele>138.1</ele>
        <time>2015-10-31T13:23:32Z</time>
      </trkpt>
      <trkpt lat="44.46315" lon="1.69703">
        <ele>138.4</ele>
        <time>2015-10-31T13:23:33Z</time>
      </trkpt>
      <trkpt lat="44.46319" lon="1.69698">
        <ele>138.6</ele>
        <time>2015-10-31T13:23:34Z</time>
      </trkpt>
      <trkpt lat="44.46321" lon="1.69692">
        <ele>138.7</ele>
        <time>2015-10-31T13:23:35Z</time>
      </trkpt>
      <trkpt lat="44.46323" lon="1.69684">
        <ele>138.7</ele>
        <time>2015-10-31T13:23:36Z</time>
      </trkpt>
      <trkpt lat="44.46324" lon="1.69671">
        <ele>138.8</ele>
        <time>2015-10-31T13:23:37Z</time>
      </trkpt>
      <trkpt lat="44.46328" lon="1.6966">
        <ele>138.9</ele>
        <time>2015-10-31T13:23:38Z</time>
      </trkpt>
      <trkpt lat="44.46329" lon="1.69651">
        <ele>138.9</ele>
        <time>2015-10-31T13:23:39Z</time>
      </trkpt>
      <trkpt lat="44.46333" lon="1.69639">
        <ele>139.1</ele>
        <time>2015-10-31T13:23:40Z</time>
      </trkpt>
      <trkpt lat="44.46335" lon="1.69631">
        <ele>139.1</ele>
        <time>2015-10-31T13:23:41Z</time>
      </trkpt>
      <trkpt lat="44.46335" lon="1.69622">
        <ele>139.1</ele>
        <time>2015-10-31T13:23:42Z</time>
      </trkpt>
      <trkpt lat="44.46336" lon="1.69613">
        <ele>139.2</ele>
        <time>2015-10-31T13:23:43Z</time>
      </trkpt>
      <trkpt lat="44.46334" lon="1.69605">
        <ele>139.2</ele>
        <time>2015-10-31T13:23:44Z</time>
      </trkpt>
      <trkpt lat="44.46335" lon="1.69597">
        <ele>139.3</ele>
        <time>2015-10-31T13:23:45Z</time>
      </trkpt>
      <trkpt lat="44.46337" lon="1.69587">
        <ele>139.4</ele>
        <time>2015-10-31T13:23:46Z</time>
      </trkpt>
      <trkpt lat="44.4634" lon="1.69583">
        <ele>139.5</ele>
        <time>2015-10-31T13:23:47Z</time>
      </trkpt>
      <trkpt lat="44.46342" lon="1.69572">
        <ele>139.7</ele>
        <time>2015-10-31T13:23:48Z</time>
      </trkpt>
      <trkpt lat="44.46342" lon="1.69563">
        <ele>139.7</ele>
        <time>2015-10-31T13:23:49Z</time>
      </trkpt>
      <trkpt lat="44.46341" lon="1.69555">
        <ele>139.7</ele>
        <time>2015-10-31T13:23:50Z</time>
      </trkpt>
      <trkpt lat="44.46343" lon="1.69544">
        <ele>139.8</ele>
        <time>2015-10-31T13:23:51Z</time>
      </trkpt>
      <trkpt lat="44.46343" lon="1.69535">
        <ele>139.6</ele>
        <time>2015-10-31T13:23:52Z</time>
      </trkpt>
      <trkpt lat="44.46346" lon="1.69527">
        <ele>139.4</ele>
        <time>2015-10-31T13:23:53Z</time>
      </trkpt>
      <trkpt lat="44.46346" lon="1.69519">
        <ele>139.1</ele>
        <time>2015-10-31T13:23:54Z</time>
      </trkpt>
      <trkpt lat="44.46348" lon="1.6951">
        <ele>138.9</ele>
        <time>2015-10-31T13:23:55Z</time>
      </trkpt>
      <trkpt lat="44.46349" lon="1.69501">
        <ele>138.6</ele>
        <time>2015-10-31T13:23:56Z</time>
      </trkpt>
      <trkpt lat="44.46352" lon="1.69491">
        <ele>138.3</ele>
        <time>2015-10-31T13:23:57Z</time>
      </trkpt>
      <trkpt lat="44.46356" lon="1.69483">
        <ele>138.2</ele>
        <time>2015-10-31T13:23:58Z</time>
      </trkpt>
      <trkpt lat="44.4636" lon="1.69473">
        <ele>138</ele>
        <time>2015-10-31T13:23:59Z</time>
      </trkpt>
      <trkpt lat="44.46363" lon="1.69466">
        <ele>137.8</ele>
        <time>2015-10-31T13:24:00Z</time>
      </trkpt>
      <trkpt lat="44.46366" lon="1.69457">
        <ele>137.7</ele>
        <time>2015-10-31T13:24:01Z</time>
      </trkpt>
      <trkpt lat="44.46369" lon="1.69449">
        <ele>137.6</ele>
        <time>2015-10-31T13:24:02Z</time>
      </trkpt>
      <trkpt lat="44.46371" lon="1.69439">
        <ele>137.4</ele>
        <time>2015-10-31T13:24:03Z</time>
      </trkpt>
      <trkpt lat="44.46374" lon="1.69432">
        <ele>137.3</ele>
        <time>2015-10-31T13:24:04Z</time>
      </trkpt>
      <trkpt lat="44.46378" lon="1.69424">
        <ele>137.3</ele>
        <time>2015-10-31T13:24:05Z</time>
      </trkpt>
      <trkpt lat="44.4638" lon="1.69415">
        <ele>137.1</ele>
        <time>2015-10-31T13:24:06Z</time>
      </trkpt>
      <trkpt lat="44.46381" lon="1.69402">
        <ele>136.9</ele>
        <time>2015-10-31T13:24:07Z</time>
      </trkpt>
      <trkpt lat="44.46386" lon="1.69395">
        <ele>136.8</ele>
        <time>2015-10-31T13:24:08Z</time>
      </trkpt>
      <trkpt lat="44.46391" lon="1.69386">
        <ele>136.8</ele>
        <time>2015-10-31T13:24:09Z</time>
      </trkpt>
      <trkpt lat="44.46394" lon="1.6938">
        <ele>136.8</ele>
        <time>2015-10-31T13:24:10Z</time>
      </trkpt>
      <trkpt lat="44.46398" lon="1.69371">
        <ele>136.7</ele>
        <time>2015-10-31T13:24:11Z</time>
      </trkpt>
      <trkpt lat="44.46396" lon="1.69363">
        <ele>136.5</ele>
        <time>2015-10-31T13:24:12Z</time>
      </trkpt>
      <trkpt lat="44.46401" lon="1.69354">
        <ele>136.5</ele>
        <time>2015-10-31T13:24:13Z</time>
      </trkpt>
      <trkpt lat="44.46403" lon="1.69348">
        <ele>136.5</ele>
        <time>2015-10-31T13:24:14Z</time>
      </trkpt>
      <trkpt lat="44.46409" lon="1.69341">
        <ele>136.6</ele>
        <time>2015-10-31T13:24:15Z</time>
      </trkpt>
      <trkpt lat="44.46412" lon="1.69334">
        <ele>136.6</ele>
        <time>2015-10-31T13:24:16Z</time>
      </trkpt>
      <trkpt lat="44.46416" lon="1.69329">
        <ele>136.7</ele>
        <time>2015-10-31T13:24:17Z</time>
      </trkpt>
      <trkpt lat="44.46421" lon="1.69322">
        <ele>136.7</ele>
        <time>2015-10-31T13:24:18Z</time>
      </trkpt>
      <trkpt lat="44.46425" lon="1.69315">
        <ele>136.8</ele>
        <time>2015-10-31T13:24:19Z</time>
      </trkpt>
      <trkpt lat="44.4643" lon="1.6931">
        <ele>136.9</ele>
        <time>2015-10-31T13:24:20Z</time>
      </trkpt>
      <trkpt lat="44.46434" lon="1.69305">
        <ele>137</ele>
        <time>2015-10-31T13:24:21Z</time>
      </trkpt>
      <trkpt lat="44.46439" lon="1.693">
        <ele>137.2</ele>
        <time>2015-10-31T13:24:22Z</time>
      </trkpt>
      <trkpt lat="44.46443" lon="1.69293">
        <ele>137.3</ele>
        <time>2015-10-31T13:24:23Z</time>
      </trkpt>
      <trkpt lat="44.46449" lon="1.69287">
        <ele>137.4</ele>
        <time>2015-10-31T13:24:24Z</time>
      </trkpt>
      <trkpt lat="44.46453" lon="1.69282">
        <ele>137.5</ele>
        <time>2015-10-31T13:24:25Z</time>
      </trkpt>
      <trkpt lat="44.46458" lon="1.69276">
        <ele>137.6</ele>
        <time>2015-10-31T13:24:26Z</time>
      </trkpt>
      <trkpt lat="44.46462" lon="1.69271">
        <ele>137.7</ele>
        <time>2015-10-31T13:24:27Z</time>
      </trkpt>
      <trkpt lat="44.46467" lon="1.69266">
        <ele>137.8</ele>
        <time>2015-10-31T13:24:28Z</time>
      </trkpt>
      <trkpt lat="44.46471" lon="1.6926">
        <ele>137.8</ele>
        <time>2015-10-31T13:24:29Z</time>
      </trkpt>
      <trkpt lat="44.46476" lon="1.69254">
        <ele>137.9</ele>
        <time>2015-10-31T13:24:30Z</time>
      </trkpt>
      <trkpt lat="44.46481" lon="1.6925">
        <ele>138</ele>
        <time>2015-10-31T13:24:31Z</time>
      </trkpt>
      <trkpt lat="44.46486" lon="1.69246">
        <ele>138.1</ele>
        <time>2015-10-31T13:24:32Z</time>
      </trkpt>
      <trkpt lat="44.46492" lon="1.69241">
        <ele>138.2</ele>
        <time>2015-10-31T13:24:33Z</time>
      </trkpt>
      <trkpt lat="44.46497" lon="1.69236">
        <ele>138.2</ele>
        <time>2015-10-31T13:24:34Z</time>
      </trkpt>
      <trkpt lat="44.46502" lon="1.69232">
        <ele>138.3</ele>
        <time>2015-10-31T13:24:35Z</time>
      </trkpt>
      <trkpt lat="44.46508" lon="1.69229">
        <ele>138.4</ele>
        <time>2015-10-31T13:24:36Z</time>
      </trkpt>
      <trkpt lat="44.46513" lon="1.69225">
        <ele>138.5</ele>
        <time>2015-10-31T13:24:37Z</time>
      </trkpt>
      <trkpt lat="44.46519" lon="1.69223">
        <ele>138.7</ele>
        <time>2015-10-31T13:24:38Z</time>
      </trkpt>
      <trkpt lat="44.46525" lon="1.69218">
        <ele>138.7</ele>
        <time>2015-10-31T13:24:39Z</time>
      </trkpt>
      <trkpt lat="44.46528" lon="1.69214">
        <ele>138.7</ele>
        <time>2015-10-31T13:24:40Z</time>
      </trkpt>
      <trkpt lat="44.46534" lon="1.69211">
        <ele>138.8</ele>
        <time>2015-10-31T13:24:41Z</time>
      </trkpt>
      <trkpt lat="44.4654" lon="1.69207">
        <ele>138.9</ele>
        <time>2015-10-31T13:24:42Z</time>
      </trkpt>
      <trkpt lat="44.46546" lon="1.69202">
        <ele>138.7</ele>
        <time>2015-10-31T13:24:43Z</time>
      </trkpt>
      <trkpt lat="44.46554" lon="1.692">
        <ele>138.7</ele>
        <time>2015-10-31T13:24:44Z</time>
      </trkpt>
      <trkpt lat="44.46562" lon="1.69198">
        <ele>138.7</ele>
        <time>2015-10-31T13:24:45Z</time>
      </trkpt>
      <trkpt lat="44.46567" lon="1.69195">
        <ele>138.6</ele>
        <time>2015-10-31T13:24:46Z</time>
      </trkpt>
      <trkpt lat="44.46572" lon="1.6919">
        <ele>138.4</ele>
        <time>2015-10-31T13:24:47Z</time>
      </trkpt>
      <trkpt lat="44.46578" lon="1.69186">
        <ele>138.3</ele>
        <time>2015-10-31T13:24:48Z</time>
      </trkpt>
      <trkpt lat="44.46584" lon="1.69182">
        <ele>138.3</ele>
        <time>2015-10-31T13:24:49Z</time>
      </trkpt>
      <trkpt lat="44.46589" lon="1.69176">
        <ele>138</ele>
        <time>2015-10-31T13:24:50Z</time>
      </trkpt>
      <trkpt lat="44.46595" lon="1.69173">
        <ele>138</ele>
        <time>2015-10-31T13:24:51Z</time>
      </trkpt>
      <trkpt lat="44.466" lon="1.69169">
        <ele>138</ele>
        <time>2015-10-31T13:24:52Z</time>
      </trkpt>
      <trkpt lat="44.46606" lon="1.69164">
        <ele>137.9</ele>
        <time>2015-10-31T13:24:53Z</time>
      </trkpt>
      <trkpt lat="44.4661" lon="1.69158">
        <ele>137.8</ele>
        <time>2015-10-31T13:24:54Z</time>
      </trkpt>
      <trkpt lat="44.46617" lon="1.69152">
        <ele>137.7</ele>
        <time>2015-10-31T13:24:55Z</time>
      </trkpt>
      <trkpt lat="44.46622" lon="1.69146">
        <ele>137.7</ele>
        <time>2015-10-31T13:24:56Z</time>
      </trkpt>
      <trkpt lat="44.46627" lon="1.6914">
        <ele>137.6</ele>
        <time>2015-10-31T13:24:57Z</time>
      </trkpt>
      <trkpt lat="44.46632" lon="1.69134">
        <ele>137.5</ele>
        <time>2015-10-31T13:24:58Z</time>
      </trkpt>
      <trkpt lat="44.46635" lon="1.69128">
        <ele>137.4</ele>
        <time>2015-10-31T13:24:59Z</time>
      </trkpt>
      <trkpt lat="44.4664" lon="1.69123">
        <ele>137.3</ele>
        <time>2015-10-31T13:25:00Z</time>
      </trkpt>
      <trkpt lat="44.46645" lon="1.69117">
        <ele>137.1</ele>
        <time>2015-10-31T13:25:01Z</time>
      </trkpt>
      <trkpt lat="44.46651" lon="1.69114">
        <ele>137.1</ele>
        <time>2015-10-31T13:25:02Z</time>
      </trkpt>
      <trkpt lat="44.46656" lon="1.69112">
        <ele>137.1</ele>
        <time>2015-10-31T13:25:03Z</time>
      </trkpt>
      <trkpt lat="44.46662" lon="1.6911">
        <ele>137.2</ele>
        <time>2015-10-31T13:25:04Z</time>
      </trkpt>
      <trkpt lat="44.46665" lon="1.6911">
        <ele>137.2</ele>
        <time>2015-10-31T13:25:05Z</time>
      </trkpt>
      <trkpt lat="44.46669" lon="1.69111">
        <ele>137.4</ele>
        <time>2015-10-31T13:25:06Z</time>
      </trkpt>
      <trkpt lat="44.46674" lon="1.69113">
        <ele>137.6</ele>
        <time>2015-10-31T13:25:07Z</time>
      </trkpt>
      <trkpt lat="44.46679" lon="1.69114">
        <ele>137.8</ele>
        <time>2015-10-31T13:25:08Z</time>
      </trkpt>
      <trkpt lat="44.46684" lon="1.69115">
        <ele>137.9</ele>
        <time>2015-10-31T13:25:09Z</time>
      </trkpt>
      <trkpt lat="44.46689" lon="1.69113">
        <ele>138</ele>
        <time>2015-10-31T13:25:10Z</time>
      </trkpt>
      <trkpt lat="44.46696" lon="1.69113">
        <ele>138.1</ele>
        <time>2015-10-31T13:25:11Z</time>
      </trkpt>
      <trkpt lat="44.46699" lon="1.69109">
        <ele>138</ele>
        <time>2015-10-31T13:25:12Z</time>
      </trkpt>
      <trkpt lat="44.46705" lon="1.69104">
        <ele>137.9</ele>
        <time>2015-10-31T13:25:13Z</time>
      </trkpt>
      <trkpt lat="44.4671" lon="1.69098">
        <ele>137.7</ele>
        <time>2015-10-31T13:25:14Z</time>
      </trkpt>
      <trkpt lat="44.46715" lon="1.69094">
        <ele>137.6</ele>
        <time>2015-10-31T13:25:15Z</time>
      </trkpt>
      <trkpt lat="44.4672" lon="1.69088">
        <ele>137.3</ele>
        <time>2015-10-31T13:25:16Z</time>
      </trkpt>
      <trkpt lat="44.46724" lon="1.69083">
        <ele>137.2</ele>
        <time>2015-10-31T13:25:17Z</time>
      </trkpt>
      <trkpt lat="44.4673" lon="1.69077">
        <ele>137</ele>
        <time>2015-10-31T13:25:18Z</time>
      </trkpt>
      <trkpt lat="44.46736" lon="1.69074">
        <ele>137</ele>
        <time>2015-10-31T13:25:19Z</time>
      </trkpt>
      <trkpt lat="44.46744" lon="1.69075">
        <ele>137.1</ele>
        <time>2015-10-31T13:25:20Z</time>
      </trkpt>
      <trkpt lat="44.46746" lon="1.69069">
        <ele>136.9</ele>
        <time>2015-10-31T13:25:21Z</time>
      </trkpt>
      <trkpt lat="44.46751" lon="1.69065">
        <ele>136.9</ele>
        <time>2015-10-31T13:25:22Z</time>
      </trkpt>
      <trkpt lat="44.46759" lon="1.69064">
        <ele>136.9</ele>
        <time>2015-10-31T13:25:23Z</time>
      </trkpt>
      <trkpt lat="44.46764" lon="1.6906">
        <ele>136.9</ele>
        <time>2015-10-31T13:25:24Z</time>
      </trkpt>
      <trkpt lat="44.4677" lon="1.69057">
        <ele>136.9</ele>
        <time>2015-10-31T13:25:25Z</time>
      </trkpt>
      <trkpt lat="44.46775" lon="1.69054">
        <ele>137</ele>
        <time>2015-10-31T13:25:26Z</time>
      </trkpt>
      <trkpt lat="44.4678" lon="1.6905">
        <ele>136.9</ele>
        <time>2015-10-31T13:25:27Z</time>
      </trkpt>
      <trkpt lat="44.46785" lon="1.69047">
        <ele>137</ele>
        <time>2015-10-31T13:25:28Z</time>
      </trkpt>
      <trkpt lat="44.46791" lon="1.69042">
        <ele>137</ele>
        <time>2015-10-31T13:25:29Z</time>
      </trkpt>
      <trkpt lat="44.46797" lon="1.69039">
        <ele>137</ele>
        <time>2015-10-31T13:25:30Z</time>
      </trkpt>
      <trkpt lat="44.46802" lon="1.69038">
        <ele>137</ele>
        <time>2015-10-31T13:25:31Z</time>
      </trkpt>
      <trkpt lat="44.46807" lon="1.69036">
        <ele>137</ele>
        <time>2015-10-31T13:25:32Z</time>
      </trkpt>
      <trkpt lat="44.46812" lon="1.69032">
        <ele>136.9</ele>
        <time>2015-10-31T13:25:33Z</time>
      </trkpt>
      <trkpt lat="44.46819" lon="1.69029">
        <ele>136.9</ele>
        <time>2015-10-31T13:25:34Z</time>
      </trkpt>
      <trkpt lat="44.46824" lon="1.69025">
        <ele>136.9</ele>
        <time>2015-10-31T13:25:35Z</time>
      </trkpt>
      <trkpt lat="44.4683" lon="1.69021">
        <ele>136.8</ele>
        <time>2015-10-31T13:25:36Z</time>
      </trkpt>
      <trkpt lat="44.46836" lon="1.69016">
        <ele>136.8</ele>
        <time>2015-10-31T13:25:37Z</time>
      </trkpt>
      <trkpt lat="44.46841" lon="1.69012">
        <ele>136.7</ele>
        <time>2015-10-31T13:25:38Z</time>
      </trkpt>
      <trkpt lat="44.46847" lon="1.69005">
        <ele>136.6</ele>
        <time>2015-10-31T13:25:39Z</time>
      </trkpt>
      <trkpt lat="44.46852" lon="1.69002">
        <ele>136.6</ele>
        <time>2015-10-31T13:25:40Z</time>
      </trkpt>
      <trkpt lat="44.46855" lon="1.68995">
        <ele>136.5</ele>
        <time>2015-10-31T13:25:41Z</time>
      </trkpt>
      <trkpt lat="44.46861" lon="1.68989">
        <ele>136.5</ele>
        <time>2015-10-31T13:25:42Z</time>
      </trkpt>
      <trkpt lat="44.46869" lon="1.68989">
        <ele>136.6</ele>
        <time>2015-10-31T13:25:43Z</time>
      </trkpt>
      <trkpt lat="44.46873" lon="1.68982">
        <ele>136.5</ele>
        <time>2015-10-31T13:25:44Z</time>
      </trkpt>
      <trkpt lat="44.46877" lon="1.68978">
        <ele>136.5</ele>
        <time>2015-10-31T13:25:45Z</time>
      </trkpt>
      <trkpt lat="44.46882" lon="1.68972">
        <ele>136.4</ele>
        <time>2015-10-31T13:25:46Z</time>
      </trkpt>
      <trkpt lat="44.46886" lon="1.68967">
        <ele>136.4</ele>
        <time>2015-10-31T13:25:47Z</time>
      </trkpt>
      <trkpt lat="44.46891" lon="1.68962">
        <ele>136.3</ele>
        <time>2015-10-31T13:25:48Z</time>
      </trkpt>
      <trkpt lat="44.46895" lon="1.68956">
        <ele>136.2</ele>
        <time>2015-10-31T13:25:49Z</time>
      </trkpt>
      <trkpt lat="44.469" lon="1.68951">
        <ele>136.2</ele>
        <time>2015-10-31T13:25:50Z</time>
      </trkpt>
      <trkpt lat="44.46905" lon="1.68945">
        <ele>136.3</ele>
        <time>2015-10-31T13:25:51Z</time>
      </trkpt>
      <trkpt lat="44.46909" lon="1.68938">
        <ele>136.3</ele>
        <time>2015-10-31T13:25:52Z</time>
      </trkpt>
      <trkpt lat="44.46913" lon="1.68929">
        <ele>136.3</ele>
        <time>2015-10-31T13:25:53Z</time>
      </trkpt>
      <trkpt lat="44.46917" lon="1.6892">
        <ele>136.3</ele>
        <time>2015-10-31T13:25:54Z</time>
      </trkpt>
      <trkpt lat="44.46921" lon="1.68915">
        <ele>136.3</ele>
        <time>2015-10-31T13:25:55Z</time>
      </trkpt>
      <trkpt lat="44.46926" lon="1.68909">
        <ele>136.4</ele>
        <time>2015-10-31T13:25:56Z</time>
      </trkpt>
      <trkpt lat="44.4693" lon="1.68901">
        <ele>136.4</ele>
        <time>2015-10-31T13:25:57Z</time>
      </trkpt>
      <trkpt lat="44.46934" lon="1.68892">
        <ele>136.5</ele>
        <time>2015-10-31T13:25:58Z</time>
      </trkpt>
      <trkpt lat="44.46938" lon="1.68885">
        <ele>136.5</ele>
        <time>2015-10-31T13:25:59Z</time>
      </trkpt>
      <trkpt lat="44.46943" lon="1.68879">
        <ele>136.6</ele>
        <time>2015-10-31T13:26:00Z</time>
      </trkpt>
      <trkpt lat="44.46946" lon="1.68874">
        <ele>136.7</ele>
        <time>2015-10-31T13:26:01Z</time>
      </trkpt>
      <trkpt lat="44.4695" lon="1.68867">
        <ele>136.7</ele>
        <time>2015-10-31T13:26:02Z</time>
      </trkpt>
      <trkpt lat="44.46955" lon="1.68858">
        <ele>136.7</ele>
        <time>2015-10-31T13:26:03Z</time>
      </trkpt>
      <trkpt lat="44.46958" lon="1.68852">
        <ele>136.7</ele>
        <time>2015-10-31T13:26:04Z</time>
      </trkpt>
      <trkpt lat="44.46961" lon="1.68845">
        <ele>136.7</ele>
        <time>2015-10-31T13:26:05Z</time>
      </trkpt>
      <trkpt lat="44.46965" lon="1.68838">
        <ele>136.8</ele>
        <time>2015-10-31T13:26:06Z</time>
      </trkpt>
      <trkpt lat="44.46969" lon="1.68833">
        <ele>136.9</ele>
        <time>2015-10-31T13:26:07Z</time>
      </trkpt>
      <trkpt lat="44.46974" lon="1.68826">
        <ele>136.9</ele>
        <time>2015-10-31T13:26:08Z</time>
      </trkpt>
      <trkpt lat="44.46978" lon="1.6882">
        <ele>137</ele>
        <time>2015-10-31T13:26:09Z</time>
      </trkpt>
      <trkpt lat="44.46983" lon="1.68817">
        <ele>137.1</ele>
        <time>2015-10-31T13:26:10Z</time>
      </trkpt>
      <trkpt lat="44.46987" lon="1.68812">
        <ele>137.1</ele>
        <time>2015-10-31T13:26:11Z</time>
      </trkpt>
      <trkpt lat="44.4699" lon="1.68804">
        <ele>137</ele>
        <time>2015-10-31T13:26:12Z</time>
      </trkpt>
      <trkpt lat="44.46994" lon="1.68799">
        <ele>137</ele>
        <time>2015-10-31T13:26:13Z</time>
      </trkpt>
      <trkpt lat="44.47001" lon="1.68793">
        <ele>137</ele>
        <time>2015-10-31T13:26:14Z</time>
      </trkpt>
      <trkpt lat="44.47006" lon="1.6879">
        <ele>137.1</ele>
        <time>2015-10-31T13:26:15Z</time>
      </trkpt>
      <trkpt lat="44.47008" lon="1.68787">
        <ele>137.1</ele>
        <time>2015-10-31T13:26:16Z</time>
      </trkpt>
      <trkpt lat="44.47012" lon="1.68778">
        <ele>136.9</ele>
        <time>2015-10-31T13:26:17Z</time>
      </trkpt>
      <trkpt lat="44.47014" lon="1.68761">
        <ele>136.6</ele>
        <time>2015-10-31T13:26:18Z</time>
      </trkpt>
      <trkpt lat="44.47024" lon="1.68757">
        <ele>136.9</ele>
        <time>2015-10-31T13:26:20Z</time>
      </trkpt>
      <trkpt lat="44.47027" lon="1.68743">
        <ele>136.7</ele>
        <time>2015-10-31T13:26:21Z</time>
      </trkpt>
      <trkpt lat="44.47031" lon="1.68742">
        <ele>136.9</ele>
        <time>2015-10-31T13:26:22Z</time>
      </trkpt>
      <trkpt lat="44.47037" lon="1.68736">
        <ele>137.1</ele>
        <time>2015-10-31T13:26:23Z</time>
      </trkpt>
      <trkpt lat="44.4704" lon="1.68727">
        <ele>137.1</ele>
        <time>2015-10-31T13:26:24Z</time>
      </trkpt>
      <trkpt lat="44.47042" lon="1.68719">
        <ele>137.2</ele>
        <time>2015-10-31T13:26:25Z</time>
      </trkpt>
      <trkpt lat="44.47045" lon="1.68713">
        <ele>137.2</ele>
        <time>2015-10-31T13:26:26Z</time>
      </trkpt>
      <trkpt lat="44.47051" lon="1.68703">
        <ele>137.2</ele>
        <time>2015-10-31T13:26:27Z</time>
      </trkpt>
      <trkpt lat="44.47055" lon="1.68696">
        <ele>137.1</ele>
        <time>2015-10-31T13:26:28Z</time>
      </trkpt>
      <trkpt lat="44.47057" lon="1.68687">
        <ele>136.8</ele>
        <time>2015-10-31T13:26:29Z</time>
      </trkpt>
      <trkpt lat="44.47059" lon="1.68681">
        <ele>136.7</ele>
        <time>2015-10-31T13:26:30Z</time>
      </trkpt>
      <trkpt lat="44.47063" lon="1.68677">
        <ele>136.7</ele>
        <time>2015-10-31T13:26:31Z</time>
      </trkpt>
      <trkpt lat="44.47065" lon="1.6867">
        <ele>136.6</ele>
        <time>2015-10-31T13:26:32Z</time>
      </trkpt>
      <trkpt lat="44.47065" lon="1.68664">
        <ele>136.4</ele>
        <time>2015-10-31T13:26:33Z</time>
      </trkpt>
      <trkpt lat="44.47065" lon="1.68655">
        <ele>136.1</ele>
        <time>2015-10-31T13:26:34Z</time>
      </trkpt>
      <trkpt lat="44.47061" lon="1.68649">
        <ele>135.8</ele>
        <time>2015-10-31T13:26:35Z</time>
      </trkpt>
      <trkpt lat="44.47059" lon="1.68642">
        <ele>135.4</ele>
        <time>2015-10-31T13:26:36Z</time>
      </trkpt>
      <trkpt lat="44.47055" lon="1.68633">
        <ele>134.9</ele>
        <time>2015-10-31T13:26:37Z</time>
      </trkpt>
      <trkpt lat="44.47052" lon="1.68627">
        <ele>134.6</ele>
        <time>2015-10-31T13:26:38Z</time>
      </trkpt>
      <trkpt lat="44.47049" lon="1.68621">
        <ele>134.3</ele>
        <time>2015-10-31T13:26:39Z</time>
      </trkpt>
      <trkpt lat="44.47046" lon="1.68615">
        <ele>134.1</ele>
        <time>2015-10-31T13:26:40Z</time>
      </trkpt>
      <trkpt lat="44.47043" lon="1.68607">
        <ele>133.8</ele>
        <time>2015-10-31T13:26:41Z</time>
      </trkpt>
      <trkpt lat="44.47041" lon="1.686">
        <ele>133.7</ele>
        <time>2015-10-31T13:26:42Z</time>
      </trkpt>
      <trkpt lat="44.4704" lon="1.68592">
        <ele>133.6</ele>
        <time>2015-10-31T13:26:43Z</time>
      </trkpt>
      <trkpt lat="44.47039" lon="1.68588">
        <ele>133.5</ele>
        <time>2015-10-31T13:26:44Z</time>
      </trkpt>
      <trkpt lat="44.47037" lon="1.6858">
        <ele>133.4</ele>
        <time>2015-10-31T13:26:45Z</time>
      </trkpt>
      <trkpt lat="44.47036" lon="1.68573">
        <ele>133.3</ele>
        <time>2015-10-31T13:26:46Z</time>
      </trkpt>
      <trkpt lat="44.47033" lon="1.68565">
        <ele>133.1</ele>
        <time>2015-10-31T13:26:47Z</time>
      </trkpt>
      <trkpt lat="44.4703" lon="1.68555">
        <ele>133</ele>
        <time>2015-10-31T13:26:48Z</time>
      </trkpt>
      <trkpt lat="44.47028" lon="1.68548">
        <ele>132.9</ele>
        <time>2015-10-31T13:26:49Z</time>
      </trkpt>
      <trkpt lat="44.47027" lon="1.6854">
        <ele>132.8</ele>
        <time>2015-10-31T13:26:50Z</time>
      </trkpt>
      <trkpt lat="44.47025" lon="1.68532">
        <ele>132.5</ele>
        <time>2015-10-31T13:26:51Z</time>
      </trkpt>
      <trkpt lat="44.47023" lon="1.68523">
        <ele>132.2</ele>
        <time>2015-10-31T13:26:52Z</time>
      </trkpt>
      <trkpt lat="44.47019" lon="1.68514">
        <ele>131.9</ele>
        <time>2015-10-31T13:26:53Z</time>
      </trkpt>
      <trkpt lat="44.47018" lon="1.68507">
        <ele>131.7</ele>
        <time>2015-10-31T13:26:54Z</time>
      </trkpt>
      <trkpt lat="44.47015" lon="1.68499">
        <ele>131.5</ele>
        <time>2015-10-31T13:26:55Z</time>
      </trkpt>
      <trkpt lat="44.47013" lon="1.6849">
        <ele>131.2</ele>
        <time>2015-10-31T13:26:56Z</time>
      </trkpt>
      <trkpt lat="44.47009" lon="1.68476">
        <ele>130.9</ele>
        <time>2015-10-31T13:26:57Z</time>
      </trkpt>
      <trkpt lat="44.47007" lon="1.68469">
        <ele>130.7</ele>
        <time>2015-10-31T13:26:58Z</time>
      </trkpt>
      <trkpt lat="44.47006" lon="1.68466">
        <ele>130.6</ele>
        <time>2015-10-31T13:26:59Z</time>
      </trkpt>
      <trkpt lat="44.47005" lon="1.68459">
        <ele>130.5</ele>
        <time>2015-10-31T13:27:00Z</time>
      </trkpt>
      <trkpt lat="44.47002" lon="1.68449">
        <ele>130.8</ele>
        <time>2015-10-31T13:27:02Z</time>
      </trkpt>
      <trkpt lat="44.46999" lon="1.68442">
        <ele>131</ele>
        <time>2015-10-31T13:27:03Z</time>
      </trkpt>
      <trkpt lat="44.46996" lon="1.68437">
        <ele>131.2</ele>
        <time>2015-10-31T13:27:04Z</time>
      </trkpt>
      <trkpt lat="44.46994" lon="1.6843">
        <ele>131.5</ele>
        <time>2015-10-31T13:27:05Z</time>
      </trkpt>
      <trkpt lat="44.46993" lon="1.68425">
        <ele>131.7</ele>
        <time>2015-10-31T13:27:06Z</time>
      </trkpt>
      <trkpt lat="44.4699" lon="1.68419">
        <ele>132</ele>
        <time>2015-10-31T13:27:07Z</time>
      </trkpt>
      <trkpt lat="44.46988" lon="1.68413">
        <ele>132.2</ele>
        <time>2015-10-31T13:27:08Z</time>
      </trkpt>
      <trkpt lat="44.46987" lon="1.68408">
        <ele>132.4</ele>
        <time>2015-10-31T13:27:09Z</time>
      </trkpt>
      <trkpt lat="44.46986" lon="1.68402">
        <ele>132.7</ele>
        <time>2015-10-31T13:27:10Z</time>
      </trkpt>
      <trkpt lat="44.46984" lon="1.68396">
        <ele>133</ele>
        <time>2015-10-31T13:27:11Z</time>
      </trkpt>
      <trkpt lat="44.46983" lon="1.6839">
        <ele>133.3</ele>
        <time>2015-10-31T13:27:12Z</time>
      </trkpt>
      <trkpt lat="44.46982" lon="1.68384">
        <ele>133.5</ele>
        <time>2015-10-31T13:27:13Z</time>
      </trkpt>
      <trkpt lat="44.46979" lon="1.68377">
        <ele>133.9</ele>
        <time>2015-10-31T13:27:14Z</time>
      </trkpt>
      <trkpt lat="44.46978" lon="1.68373">
        <ele>134.2</ele>
        <time>2015-10-31T13:27:15Z</time>
      </trkpt>
      <trkpt lat="44.46976" lon="1.68367">
        <ele>134.8</ele>
        <time>2015-10-31T13:27:16Z</time>
      </trkpt>
      <trkpt lat="44.46974" lon="1.68362">
        <ele>135.3</ele>
        <time>2015-10-31T13:27:17Z</time>
      </trkpt>
      <trkpt lat="44.46973" lon="1.68357">
        <ele>135.8</ele>
        <time>2015-10-31T13:27:18Z</time>
      </trkpt>
      <trkpt lat="44.4697" lon="1.68347">
        <ele>136.9</ele>
        <time>2015-10-31T13:27:20Z</time>
      </trkpt>
      <trkpt lat="44.46967" lon="1.68343">
        <ele>137.5</ele>
        <time>2015-10-31T13:27:21Z</time>
      </trkpt>
      <trkpt lat="44.46966" lon="1.68337">
        <ele>138</ele>
        <time>2015-10-31T13:27:22Z</time>
      </trkpt>
      <trkpt lat="44.46964" lon="1.68332">
        <ele>138.7</ele>
        <time>2015-10-31T13:27:23Z</time>
      </trkpt>
      <trkpt lat="44.46963" lon="1.68328">
        <ele>139.2</ele>
        <time>2015-10-31T13:27:24Z</time>
      </trkpt>
      <trkpt lat="44.46961" lon="1.68322">
        <ele>139.9</ele>
        <time>2015-10-31T13:27:25Z</time>
      </trkpt>
      <trkpt lat="44.4696" lon="1.68317">
        <ele>140.5</ele>
        <time>2015-10-31T13:27:26Z</time>
      </trkpt>
      <trkpt lat="44.46958" lon="1.68312">
        <ele>141.1</ele>
        <time>2015-10-31T13:27:27Z</time>
      </trkpt>
      <trkpt lat="44.46957" lon="1.68306">
        <ele>141.9</ele>
        <time>2015-10-31T13:27:28Z</time>
      </trkpt>
      <trkpt lat="44.46955" lon="1.68301">
        <ele>142.8</ele>
        <time>2015-10-31T13:27:29Z</time>
      </trkpt>
      <trkpt lat="44.46954" lon="1.68295">
        <ele>143.8</ele>
        <time>2015-10-31T13:27:30Z</time>
      </trkpt>
      <trkpt lat="44.46952" lon="1.6829">
        <ele>144.5</ele>
        <time>2015-10-31T13:27:31Z</time>
      </trkpt>
      <trkpt lat="44.46951" lon="1.68284">
        <ele>144.9</ele>
        <time>2015-10-31T13:27:32Z</time>
      </trkpt>
      <trkpt lat="44.4695" lon="1.68279">
        <ele>145.3</ele>
        <time>2015-10-31T13:27:33Z</time>
      </trkpt>
      <trkpt lat="44.46948" lon="1.68274">
        <ele>145.8</ele>
        <time>2015-10-31T13:27:34Z</time>
      </trkpt>
      <trkpt lat="44.46947" lon="1.68269">
        <ele>146.2</ele>
        <time>2015-10-31T13:27:35Z</time>
      </trkpt>
      <trkpt lat="44.46945" lon="1.68264">
        <ele>146.6</ele>
        <time>2015-10-31T13:27:36Z</time>
      </trkpt>
      <trkpt lat="44.46944" lon="1.68259">
        <ele>147</ele>
        <time>2015-10-31T13:27:37Z</time>
      </trkpt>
      <trkpt lat="44.46942" lon="1.68253">
        <ele>147.4</ele>
        <time>2015-10-31T13:27:38Z</time>
      </trkpt>
      <trkpt lat="44.46941" lon="1.68248">
        <ele>147.7</ele>
        <time>2015-10-31T13:27:39Z</time>
      </trkpt>
      <trkpt lat="44.4694" lon="1.68242">
        <ele>148.1</ele>
        <time>2015-10-31T13:27:40Z</time>
      </trkpt>
      <trkpt lat="44.46938" lon="1.68237">
        <ele>148.5</ele>
        <time>2015-10-31T13:27:41Z</time>
      </trkpt>
      <trkpt lat="44.46937" lon="1.68231">
        <ele>148.9</ele>
        <time>2015-10-31T13:27:42Z</time>
      </trkpt>
      <trkpt lat="44.46935" lon="1.68226">
        <ele>149.3</ele>
        <time>2015-10-31T13:27:43Z</time>
      </trkpt>
      <trkpt lat="44.46933" lon="1.68221">
        <ele>149.8</ele>
        <time>2015-10-31T13:27:44Z</time>
      </trkpt>
      <trkpt lat="44.46931" lon="1.68215">
        <ele>150.2</ele>
        <time>2015-10-31T13:27:45Z</time>
      </trkpt>
      <trkpt lat="44.46929" lon="1.68209">
        <ele>150.6</ele>
        <time>2015-10-31T13:27:46Z</time>
      </trkpt>
      <trkpt lat="44.46927" lon="1.682">
        <ele>150.5</ele>
        <time>2015-10-31T13:27:47Z</time>
      </trkpt>
      <trkpt lat="44.46924" lon="1.68193">
        <ele>150.3</ele>
        <time>2015-10-31T13:27:48Z</time>
      </trkpt>
      <trkpt lat="44.46923" lon="1.68187">
        <ele>150.1</ele>
        <time>2015-10-31T13:27:49Z</time>
      </trkpt>
      <trkpt lat="44.46921" lon="1.68182">
        <ele>150</ele>
        <time>2015-10-31T13:27:50Z</time>
      </trkpt>
      <trkpt lat="44.4692" lon="1.68176">
        <ele>149.7</ele>
        <time>2015-10-31T13:27:51Z</time>
      </trkpt>
      <trkpt lat="44.46918" lon="1.6817">
        <ele>149.5</ele>
        <time>2015-10-31T13:27:52Z</time>
      </trkpt>
      <trkpt lat="44.46916" lon="1.68164">
        <ele>149.3</ele>
        <time>2015-10-31T13:27:53Z</time>
      </trkpt>
      <trkpt lat="44.46914" lon="1.68157">
        <ele>149.2</ele>
        <time>2015-10-31T13:27:54Z</time>
      </trkpt>
      <trkpt lat="44.46912" lon="1.6815">
        <ele>149</ele>
        <time>2015-10-31T13:27:55Z</time>
      </trkpt>
      <trkpt lat="44.46907" lon="1.68143">
        <ele>149.2</ele>
        <time>2015-10-31T13:27:56Z</time>
      </trkpt>
      <trkpt lat="44.46905" lon="1.68136">
        <ele>148.9</ele>
        <time>2015-10-31T13:27:57Z</time>
      </trkpt>
      <trkpt lat="44.46903" lon="1.68131">
        <ele>148.9</ele>
        <time>2015-10-31T13:27:58Z</time>
      </trkpt>
      <trkpt lat="44.46901" lon="1.68122">
        <ele>148.5</ele>
        <time>2015-10-31T13:27:59Z</time>
      </trkpt>
      <trkpt lat="44.46897" lon="1.68115">
        <ele>148.8</ele>
        <time>2015-10-31T13:28:00Z</time>
      </trkpt>
      <trkpt lat="44.46893" lon="1.68112">
        <ele>149.2</ele>
        <time>2015-10-31T13:28:01Z</time>
      </trkpt>
      <trkpt lat="44.4689" lon="1.68105">
        <ele>149.3</ele>
        <time>2015-10-31T13:28:03Z</time>
      </trkpt>
      <trkpt lat="44.46887" lon="1.681">
        <ele>149.6</ele>
        <time>2015-10-31T13:28:04Z</time>
      </trkpt>
      <trkpt lat="44.46884" lon="1.68096">
        <ele>149.9</ele>
        <time>2015-10-31T13:28:05Z</time>
      </trkpt>
      <trkpt lat="44.46879" lon="1.68092">
        <ele>150.3</ele>
        <time>2015-10-31T13:28:06Z</time>
      </trkpt>
      <trkpt lat="44.46875" lon="1.68088">
        <ele>150.8</ele>
        <time>2015-10-31T13:28:07Z</time>
      </trkpt>
      <trkpt lat="44.46872" lon="1.68083">
        <ele>150.9</ele>
        <time>2015-10-31T13:28:08Z</time>
      </trkpt>
      <trkpt lat="44.4687" lon="1.6808">
        <ele>151.2</ele>
        <time>2015-10-31T13:28:09Z</time>
      </trkpt>
      <trkpt lat="44.46867" lon="1.68075">
        <ele>151.3</ele>
        <time>2015-10-31T13:28:10Z</time>
      </trkpt>
      <trkpt lat="44.46865" lon="1.68071">
        <ele>151.4</ele>
        <time>2015-10-31T13:28:11Z</time>
      </trkpt>
      <trkpt lat="44.46863" lon="1.68067">
        <ele>151.6</ele>
        <time>2015-10-31T13:28:12Z</time>
      </trkpt>
      <trkpt lat="44.46861" lon="1.68063">
        <ele>151.9</ele>
        <time>2015-10-31T13:28:13Z</time>
      </trkpt>
      <trkpt lat="44.46858" lon="1.68059">
        <ele>152.2</ele>
        <time>2015-10-31T13:28:14Z</time>
      </trkpt>
      <trkpt lat="44.46855" lon="1.68056">
        <ele>152.6</ele>
        <time>2015-10-31T13:28:15Z</time>
      </trkpt>
      <trkpt lat="44.46853" lon="1.68052">
        <ele>153</ele>
        <time>2015-10-31T13:28:16Z</time>
      </trkpt>
      <trkpt lat="44.4685" lon="1.68049">
        <ele>153.4</ele>
        <time>2015-10-31T13:28:17Z</time>
      </trkpt>
      <trkpt lat="44.46848" lon="1.68045">
        <ele>153.7</ele>
        <time>2015-10-31T13:28:18Z</time>
      </trkpt>
      <trkpt lat="44.46845" lon="1.68041">
        <ele>154</ele>
        <time>2015-10-31T13:28:19Z</time>
      </trkpt>
      <trkpt lat="44.46844" lon="1.68037">
        <ele>153.9</ele>
        <time>2015-10-31T13:28:20Z</time>
      </trkpt>
      <trkpt lat="44.46842" lon="1.68034">
        <ele>153.8</ele>
        <time>2015-10-31T13:28:21Z</time>
      </trkpt>
      <trkpt lat="44.4684" lon="1.6803">
        <ele>153.7</ele>
        <time>2015-10-31T13:28:22Z</time>
      </trkpt>
      <trkpt lat="44.46839" lon="1.68027">
        <ele>153.6</ele>
        <time>2015-10-31T13:28:23Z</time>
      </trkpt>
      <trkpt lat="44.46836" lon="1.68024">
        <ele>153.7</ele>
        <time>2015-10-31T13:28:24Z</time>
      </trkpt>
      <trkpt lat="44.46834" lon="1.68021">
        <ele>153.8</ele>
        <time>2015-10-31T13:28:25Z</time>
      </trkpt>
      <trkpt lat="44.46831" lon="1.68018">
        <ele>154</ele>
        <time>2015-10-31T13:28:26Z</time>
      </trkpt>
      <trkpt lat="44.46828" lon="1.68015">
        <ele>154.1</ele>
        <time>2015-10-31T13:28:27Z</time>
      </trkpt>
      <trkpt lat="44.46826" lon="1.68013">
        <ele>154.2</ele>
        <time>2015-10-31T13:28:28Z</time>
      </trkpt>
      <trkpt lat="44.46824" lon="1.6801">
        <ele>154.2</ele>
        <time>2015-10-31T13:28:29Z</time>
      </trkpt>
      <trkpt lat="44.46822" lon="1.68007">
        <ele>154.2</ele>
        <time>2015-10-31T13:28:30Z</time>
      </trkpt>
      <trkpt lat="44.4682" lon="1.68004">
        <ele>154.1</ele>
        <time>2015-10-31T13:28:31Z</time>
      </trkpt>
      <trkpt lat="44.46818" lon="1.68001">
        <ele>154.2</ele>
        <time>2015-10-31T13:28:32Z</time>
      </trkpt>
      <trkpt lat="44.46816" lon="1.67999">
        <ele>154.2</ele>
        <time>2015-10-31T13:28:33Z</time>
      </trkpt>
      <trkpt lat="44.46814" lon="1.67994">
        <ele>154</ele>
        <time>2015-10-31T13:28:35Z</time>
      </trkpt>
      <trkpt lat="44.46812" lon="1.6799">
        <ele>153.8</ele>
        <time>2015-10-31T13:28:37Z</time>
      </trkpt>
      <trkpt lat="44.46809" lon="1.67985">
        <ele>153.8</ele>
        <time>2015-10-31T13:28:39Z</time>
      </trkpt>
      <trkpt lat="44.46805" lon="1.67982">
        <ele>153.9</ele>
        <time>2015-10-31T13:28:41Z</time>
      </trkpt>
      <trkpt lat="44.46803" lon="1.67978">
        <ele>153.8</ele>
        <time>2015-10-31T13:28:43Z</time>
      </trkpt>
      <trkpt lat="44.46799" lon="1.67973">
        <ele>153.8</ele>
        <time>2015-10-31T13:28:45Z</time>
      </trkpt>
      <trkpt lat="44.46795" lon="1.67969">
        <ele>153.9</ele>
        <time>2015-10-31T13:28:47Z</time>
      </trkpt>
      <trkpt lat="44.46793" lon="1.67967">
        <ele>153.9</ele>
        <time>2015-10-31T13:28:48Z</time>
      </trkpt>
      <trkpt lat="44.46791" lon="1.67964">
        <ele>153.9</ele>
        <time>2015-10-31T13:28:49Z</time>
      </trkpt>
      <trkpt lat="44.46788" lon="1.67961">
        <ele>153.6</ele>
        <time>2015-10-31T13:28:50Z</time>
      </trkpt>
      <trkpt lat="44.46785" lon="1.67958">
        <ele>153.4</ele>
        <time>2015-10-31T13:28:51Z</time>
      </trkpt>
      <trkpt lat="44.46783" lon="1.67955">
        <ele>153.2</ele>
        <time>2015-10-31T13:28:52Z</time>
      </trkpt>
      <trkpt lat="44.4678" lon="1.67952">
        <ele>153</ele>
        <time>2015-10-31T13:28:53Z</time>
      </trkpt>
      <trkpt lat="44.46778" lon="1.67948">
        <ele>152.8</ele>
        <time>2015-10-31T13:28:54Z</time>
      </trkpt>
      <trkpt lat="44.46776" lon="1.67945">
        <ele>152.6</ele>
        <time>2015-10-31T13:28:55Z</time>
      </trkpt>
      <trkpt lat="44.46773" lon="1.67942">
        <ele>152.6</ele>
        <time>2015-10-31T13:28:56Z</time>
      </trkpt>
      <trkpt lat="44.46771" lon="1.67939">
        <ele>152.5</ele>
        <time>2015-10-31T13:28:57Z</time>
      </trkpt>
      <trkpt lat="44.46768" lon="1.67936">
        <ele>152.5</ele>
        <time>2015-10-31T13:28:58Z</time>
      </trkpt>
      <trkpt lat="44.46766" lon="1.67933">
        <ele>152.5</ele>
        <time>2015-10-31T13:28:59Z</time>
      </trkpt>
      <trkpt lat="44.46763" lon="1.67931">
        <ele>152.6</ele>
        <time>2015-10-31T13:29:00Z</time>
      </trkpt>
      <trkpt lat="44.4676" lon="1.67928">
        <ele>152.7</ele>
        <time>2015-10-31T13:29:01Z</time>
      </trkpt>
      <trkpt lat="44.46757" lon="1.67927">
        <ele>152.9</ele>
        <time>2015-10-31T13:29:02Z</time>
      </trkpt>
      <trkpt lat="44.46753" lon="1.67927">
        <ele>153.2</ele>
        <time>2015-10-31T13:29:03Z</time>
      </trkpt>
      <trkpt lat="44.4675" lon="1.67928">
        <ele>153.6</ele>
        <time>2015-10-31T13:29:04Z</time>
      </trkpt>
      <trkpt lat="44.46747" lon="1.67929">
        <ele>154</ele>
        <time>2015-10-31T13:29:05Z</time>
      </trkpt>
      <trkpt lat="44.46744" lon="1.6793">
        <ele>154.4</ele>
        <time>2015-10-31T13:29:06Z</time>
      </trkpt>
      <trkpt lat="44.46741" lon="1.67931">
        <ele>154.7</ele>
        <time>2015-10-31T13:29:07Z</time>
      </trkpt>
      <trkpt lat="44.46738" lon="1.67932">
        <ele>155</ele>
        <time>2015-10-31T13:29:08Z</time>
      </trkpt>
      <trkpt lat="44.46735" lon="1.67932">
        <ele>155.4</ele>
        <time>2015-10-31T13:29:09Z</time>
      </trkpt>
      <trkpt lat="44.46732" lon="1.67933">
        <ele>155.7</ele>
        <time>2015-10-31T13:29:10Z</time>
      </trkpt>
      <trkpt lat="44.46729" lon="1.67933">
        <ele>156</ele>
        <time>2015-10-31T13:29:11Z</time>
      </trkpt>
      <trkpt lat="44.46725" lon="1.67933">
        <ele>156.4</ele>
        <time>2015-10-31T13:29:12Z</time>
      </trkpt>
      <trkpt lat="44.46721" lon="1.67933">
        <ele>156.7</ele>
        <time>2015-10-31T13:29:13Z</time>
      </trkpt>
      <trkpt lat="44.46718" lon="1.67933">
        <ele>157.1</ele>
        <time>2015-10-31T13:29:14Z</time>
      </trkpt>
      <trkpt lat="44.46714" lon="1.67932">
        <ele>157.4</ele>
        <time>2015-10-31T13:29:15Z</time>
      </trkpt>
      <trkpt lat="44.46711" lon="1.67932">
        <ele>157.7</ele>
        <time>2015-10-31T13:29:16Z</time>
      </trkpt>
      <trkpt lat="44.46707" lon="1.67931">
        <ele>158.1</ele>
        <time>2015-10-31T13:29:17Z</time>
      </trkpt>
      <trkpt lat="44.46704" lon="1.67931">
        <ele>158.6</ele>
        <time>2015-10-31T13:29:18Z</time>
      </trkpt>
      <trkpt lat="44.46701" lon="1.6793">
        <ele>159</ele>
        <time>2015-10-31T13:29:19Z</time>
      </trkpt>
      <trkpt lat="44.46698" lon="1.67929">
        <ele>159.5</ele>
        <time>2015-10-31T13:29:20Z</time>
      </trkpt>
      <trkpt lat="44.46695" lon="1.67928">
        <ele>159.9</ele>
        <time>2015-10-31T13:29:21Z</time>
      </trkpt>
      <trkpt lat="44.46692" lon="1.67926">
        <ele>160.3</ele>
        <time>2015-10-31T13:29:22Z</time>
      </trkpt>
      <trkpt lat="44.46689" lon="1.67924">
        <ele>160.7</ele>
        <time>2015-10-31T13:29:23Z</time>
      </trkpt>
      <trkpt lat="44.46686" lon="1.67922">
        <ele>161.1</ele>
        <time>2015-10-31T13:29:24Z</time>
      </trkpt>
      <trkpt lat="44.46683" lon="1.67919">
        <ele>161.5</ele>
        <time>2015-10-31T13:29:25Z</time>
      </trkpt>
      <trkpt lat="44.4668" lon="1.67916">
        <ele>161.9</ele>
        <time>2015-10-31T13:29:26Z</time>
      </trkpt>
      <trkpt lat="44.46677" lon="1.67912">
        <ele>162.3</ele>
        <time>2015-10-31T13:29:27Z</time>
      </trkpt>
      <trkpt lat="44.46674" lon="1.67909">
        <ele>162.6</ele>
        <time>2015-10-31T13:29:28Z</time>
      </trkpt>
      <trkpt lat="44.46671" lon="1.67907">
        <ele>163.1</ele>
        <time>2015-10-31T13:29:29Z</time>
      </trkpt>
      <trkpt lat="44.46669" lon="1.67904">
        <ele>163.4</ele>
        <time>2015-10-31T13:29:30Z</time>
      </trkpt>
      <trkpt lat="44.46666" lon="1.67901">
        <ele>163.7</ele>
        <time>2015-10-31T13:29:31Z</time>
      </trkpt>
      <trkpt lat="44.46664" lon="1.67898">
        <ele>164</ele>
        <time>2015-10-31T13:29:32Z</time>
      </trkpt>
      <trkpt lat="44.46662" lon="1.67895">
        <ele>164.2</ele>
        <time>2015-10-31T13:29:33Z</time>
      </trkpt>
      <trkpt lat="44.4666" lon="1.67892">
        <ele>164.5</ele>
        <time>2015-10-31T13:29:34Z</time>
      </trkpt>
      <trkpt lat="44.46658" lon="1.67889">
        <ele>164.7</ele>
        <time>2015-10-31T13:29:35Z</time>
      </trkpt>
      <trkpt lat="44.46656" lon="1.67886">
        <ele>165</ele>
        <time>2015-10-31T13:29:36Z</time>
      </trkpt>
      <trkpt lat="44.46654" lon="1.67884">
        <ele>165.2</ele>
        <time>2015-10-31T13:29:37Z</time>
      </trkpt>
      <trkpt lat="44.46652" lon="1.67881">
        <ele>165.5</ele>
        <time>2015-10-31T13:29:38Z</time>
      </trkpt>
      <trkpt lat="44.4665" lon="1.67878">
        <ele>165.7</ele>
        <time>2015-10-31T13:29:39Z</time>
      </trkpt>
      <trkpt lat="44.46648" lon="1.67875">
        <ele>165.9</ele>
        <time>2015-10-31T13:29:40Z</time>
      </trkpt>
      <trkpt lat="44.46646" lon="1.67872">
        <ele>166.3</ele>
        <time>2015-10-31T13:29:41Z</time>
      </trkpt>
      <trkpt lat="44.46643" lon="1.6787">
        <ele>166.7</ele>
        <time>2015-10-31T13:29:42Z</time>
      </trkpt>
      <trkpt lat="44.46641" lon="1.67867">
        <ele>167.1</ele>
        <time>2015-10-31T13:29:43Z</time>
      </trkpt>
      <trkpt lat="44.46638" lon="1.67865">
        <ele>167.5</ele>
        <time>2015-10-31T13:29:44Z</time>
      </trkpt>
      <trkpt lat="44.46636" lon="1.67862">
        <ele>167.9</ele>
        <time>2015-10-31T13:29:45Z</time>
      </trkpt>
      <trkpt lat="44.46633" lon="1.6786">
        <ele>168.3</ele>
        <time>2015-10-31T13:29:46Z</time>
      </trkpt>
      <trkpt lat="44.4663" lon="1.67858">
        <ele>168.8</ele>
        <time>2015-10-31T13:29:47Z</time>
      </trkpt>
      <trkpt lat="44.46627" lon="1.67856">
        <ele>169.2</ele>
        <time>2015-10-31T13:29:48Z</time>
      </trkpt>
      <trkpt lat="44.46625" lon="1.67854">
        <ele>169.6</ele>
        <time>2015-10-31T13:29:49Z</time>
      </trkpt>
      <trkpt lat="44.46621" lon="1.67851">
        <ele>170.5</ele>
        <time>2015-10-31T13:29:51Z</time>
      </trkpt>
      <trkpt lat="44.46617" lon="1.67847">
        <ele>171.2</ele>
        <time>2015-10-31T13:29:53Z</time>
      </trkpt>
      <trkpt lat="44.46615" lon="1.67843">
        <ele>171.8</ele>
        <time>2015-10-31T13:29:55Z</time>
      </trkpt>
      <trkpt lat="44.46612" lon="1.67842">
        <ele>172.4</ele>
        <time>2015-10-31T13:30:02Z</time>
      </trkpt>
      <trkpt lat="44.46607" lon="1.67837">
        <ele>173.7</ele>
        <time>2015-10-31T13:31:02Z</time>
      </trkpt>
      <trkpt lat="44.46604" lon="1.67834">
        <ele>174.3</ele>
        <time>2015-10-31T13:31:04Z</time>
      </trkpt>
      <trkpt lat="44.46601" lon="1.67831">
        <ele>175</ele>
        <time>2015-10-31T13:31:06Z</time>
      </trkpt>
      <trkpt lat="44.46597" lon="1.67827">
        <ele>175.8</ele>
        <time>2015-10-31T13:31:08Z</time>
      </trkpt>
      <trkpt lat="44.46594" lon="1.67823">
        <ele>176.7</ele>
        <time>2015-10-31T13:31:10Z</time>
      </trkpt>
      <trkpt lat="44.4659" lon="1.67816">
        <ele>177.5</ele>
        <time>2015-10-31T13:31:12Z</time>
      </trkpt>
      <trkpt lat="44.46589" lon="1.67813">
        <ele>177.9</ele>
        <time>2015-10-31T13:31:13Z</time>
      </trkpt>
      <trkpt lat="44.46588" lon="1.6781">
        <ele>178.2</ele>
        <time>2015-10-31T13:31:14Z</time>
      </trkpt>
      <trkpt lat="44.46586" lon="1.67803">
        <ele>178.7</ele>
        <time>2015-10-31T13:31:16Z</time>
      </trkpt>
      <trkpt lat="44.46585" lon="1.67795">
        <ele>179.1</ele>
        <time>2015-10-31T13:31:18Z</time>
      </trkpt>
      <trkpt lat="44.46584" lon="1.67792">
        <ele>179.3</ele>
        <time>2015-10-31T13:31:19Z</time>
      </trkpt>
      <trkpt lat="44.46583" lon="1.67784">
        <ele>179.8</ele>
        <time>2015-10-31T13:31:21Z</time>
      </trkpt>
      <trkpt lat="44.46582" lon="1.67777">
        <ele>180.4</ele>
        <time>2015-10-31T13:31:23Z</time>
      </trkpt>
      <trkpt lat="44.46581" lon="1.6777">
        <ele>180.8</ele>
        <time>2015-10-31T13:31:25Z</time>
      </trkpt>
      <trkpt lat="44.46581" lon="1.67764">
        <ele>181.1</ele>
        <time>2015-10-31T13:31:27Z</time>
      </trkpt>
      <trkpt lat="44.46581" lon="1.67757">
        <ele>181.5</ele>
        <time>2015-10-31T13:31:29Z</time>
      </trkpt>
      <trkpt lat="44.4658" lon="1.67751">
        <ele>182</ele>
        <time>2015-10-31T13:31:31Z</time>
      </trkpt>
      <trkpt lat="44.4658" lon="1.67744">
        <ele>182.4</ele>
        <time>2015-10-31T13:31:33Z</time>
      </trkpt>
      <trkpt lat="44.46579" lon="1.67737">
        <ele>183</ele>
        <time>2015-10-31T13:31:35Z</time>
      </trkpt>
      <trkpt lat="44.46577" lon="1.67731">
        <ele>183.6</ele>
        <time>2015-10-31T13:31:37Z</time>
      </trkpt>
      <trkpt lat="44.46577" lon="1.67724">
        <ele>184.1</ele>
        <time>2015-10-31T13:31:39Z</time>
      </trkpt>
      <trkpt lat="44.46575" lon="1.67718">
        <ele>184.7</ele>
        <time>2015-10-31T13:31:41Z</time>
      </trkpt>
      <trkpt lat="44.46574" lon="1.67711">
        <ele>185.4</ele>
        <time>2015-10-31T13:31:43Z</time>
      </trkpt>
      <trkpt lat="44.46572" lon="1.67705">
        <ele>186</ele>
        <time>2015-10-31T13:31:45Z</time>
      </trkpt>
      <trkpt lat="44.4657" lon="1.67698">
        <ele>186.5</ele>
        <time>2015-10-31T13:31:47Z</time>
      </trkpt>
      <trkpt lat="44.46567" lon="1.67693">
        <ele>187.2</ele>
        <time>2015-10-31T13:31:49Z</time>
      </trkpt>
      <trkpt lat="44.46564" lon="1.67686">
        <ele>188</ele>
        <time>2015-10-31T13:31:51Z</time>
      </trkpt>
      <trkpt lat="44.46562" lon="1.6768">
        <ele>188.7</ele>
        <time>2015-10-31T13:31:53Z</time>
      </trkpt>
      <trkpt lat="44.4656" lon="1.67676">
        <ele>189.1</ele>
        <time>2015-10-31T13:31:54Z</time>
      </trkpt>
      <trkpt lat="44.46559" lon="1.67673">
        <ele>189.6</ele>
        <time>2015-10-31T13:31:55Z</time>
      </trkpt>
      <trkpt lat="44.46557" lon="1.6767">
        <ele>190.1</ele>
        <time>2015-10-31T13:31:56Z</time>
      </trkpt>
      <trkpt lat="44.46556" lon="1.67667">
        <ele>190.6</ele>
        <time>2015-10-31T13:31:57Z</time>
      </trkpt>
      <trkpt lat="44.46553" lon="1.67661">
        <ele>191.6</ele>
        <time>2015-10-31T13:31:59Z</time>
      </trkpt>
      <trkpt lat="44.46551" lon="1.67657">
        <ele>192.1</ele>
        <time>2015-10-31T13:32:00Z</time>
      </trkpt>
      <trkpt lat="44.4655" lon="1.67654">
        <ele>192.7</ele>
        <time>2015-10-31T13:32:01Z</time>
      </trkpt>
      <trkpt lat="44.46548" lon="1.67651">
        <ele>193.3</ele>
        <time>2015-10-31T13:32:02Z</time>
      </trkpt>
      <trkpt lat="44.46547" lon="1.67647">
        <ele>193.8</ele>
        <time>2015-10-31T13:32:03Z</time>
      </trkpt>
      <trkpt lat="44.46546" lon="1.67643">
        <ele>194.1</ele>
        <time>2015-10-31T13:32:04Z</time>
      </trkpt>
      <trkpt lat="44.46545" lon="1.67639">
        <ele>194.5</ele>
        <time>2015-10-31T13:32:05Z</time>
      </trkpt>
      <trkpt lat="44.46544" lon="1.67635">
        <ele>194.9</ele>
        <time>2015-10-31T13:32:06Z</time>
      </trkpt>
      <trkpt lat="44.46543" lon="1.67631">
        <ele>195.3</ele>
        <time>2015-10-31T13:32:07Z</time>
      </trkpt>
      <trkpt lat="44.46543" lon="1.67626">
        <ele>195.5</ele>
        <time>2015-10-31T13:32:08Z</time>
      </trkpt>
      <trkpt lat="44.46542" lon="1.67622">
        <ele>195.7</ele>
        <time>2015-10-31T13:32:09Z</time>
      </trkpt>
      <trkpt lat="44.46541" lon="1.67618">
        <ele>195.8</ele>
        <time>2015-10-31T13:32:10Z</time>
      </trkpt>
      <trkpt lat="44.4654" lon="1.67614">
        <ele>196</ele>
        <time>2015-10-31T13:32:11Z</time>
      </trkpt>
      <trkpt lat="44.4654" lon="1.6761">
        <ele>196</ele>
        <time>2015-10-31T13:32:12Z</time>
      </trkpt>
      <trkpt lat="44.46539" lon="1.67606">
        <ele>196.1</ele>
        <time>2015-10-31T13:32:13Z</time>
      </trkpt>
      <trkpt lat="44.46538" lon="1.67602">
        <ele>196.1</ele>
        <time>2015-10-31T13:32:14Z</time>
      </trkpt>
      <trkpt lat="44.46537" lon="1.67597">
        <ele>196.2</ele>
        <time>2015-10-31T13:32:15Z</time>
      </trkpt>
      <trkpt lat="44.46536" lon="1.67592">
        <ele>196.3</ele>
        <time>2015-10-31T13:32:16Z</time>
      </trkpt>
      <trkpt lat="44.46535" lon="1.67587">
        <ele>196.6</ele>
        <time>2015-10-31T13:32:17Z</time>
      </trkpt>
      <trkpt lat="44.46534" lon="1.67582">
        <ele>196.9</ele>
        <time>2015-10-31T13:32:18Z</time>
      </trkpt>
      <trkpt lat="44.46533" lon="1.67578">
        <ele>197.2</ele>
        <time>2015-10-31T13:32:19Z</time>
      </trkpt>
      <trkpt lat="44.46531" lon="1.67574">
        <ele>197.5</ele>
        <time>2015-10-31T13:32:20Z</time>
      </trkpt>
      <trkpt lat="44.4653" lon="1.6757">
        <ele>197.7</ele>
        <time>2015-10-31T13:32:21Z</time>
      </trkpt>
      <trkpt lat="44.46528" lon="1.67564">
        <ele>198.2</ele>
        <time>2015-10-31T13:32:23Z</time>
      </trkpt>
      <trkpt lat="44.46526" lon="1.67557">
        <ele>198.8</ele>
        <time>2015-10-31T13:32:25Z</time>
      </trkpt>
      <trkpt lat="44.46525" lon="1.67554">
        <ele>199.1</ele>
        <time>2015-10-31T13:32:26Z</time>
      </trkpt>
      <trkpt lat="44.46524" lon="1.6755">
        <ele>199.4</ele>
        <time>2015-10-31T13:32:27Z</time>
      </trkpt>
      <trkpt lat="44.46523" lon="1.67546">
        <ele>199.8</ele>
        <time>2015-10-31T13:32:28Z</time>
      </trkpt>
      <trkpt lat="44.46521" lon="1.67542">
        <ele>200</ele>
        <time>2015-10-31T13:32:29Z</time>
      </trkpt>
      <trkpt lat="44.46521" lon="1.67539">
        <ele>200.3</ele>
        <time>2015-10-31T13:32:30Z</time>
      </trkpt>
      <trkpt lat="44.4652" lon="1.67535">
        <ele>200.6</ele>
        <time>2015-10-31T13:32:31Z</time>
      </trkpt>
      <trkpt lat="44.46519" lon="1.67531">
        <ele>200.8</ele>
        <time>2015-10-31T13:32:32Z</time>
      </trkpt>
      <trkpt lat="44.46517" lon="1.67524">
        <ele>201.5</ele>
        <time>2015-10-31T13:32:34Z</time>
      </trkpt>
      <trkpt lat="44.46515" lon="1.67518">
        <ele>202</ele>
        <time>2015-10-31T13:32:36Z</time>
      </trkpt>
      <trkpt lat="44.46514" lon="1.67511">
        <ele>202.4</ele>
        <time>2015-10-31T13:32:38Z</time>
      </trkpt>
      <trkpt lat="44.46513" lon="1.67506">
        <ele>202.9</ele>
        <time>2015-10-31T13:32:40Z</time>
      </trkpt>
      <trkpt lat="44.46513" lon="1.675">
        <ele>203</ele>
        <time>2015-10-31T13:32:42Z</time>
      </trkpt>
      <trkpt lat="44.46512" lon="1.67495">
        <ele>203.1</ele>
        <time>2015-10-31T13:32:44Z</time>
      </trkpt>
      <trkpt lat="44.46512" lon="1.6749">
        <ele>203.2</ele>
        <time>2015-10-31T13:32:46Z</time>
      </trkpt>
      <trkpt lat="44.46512" lon="1.67485">
        <ele>203</ele>
        <time>2015-10-31T13:32:48Z</time>
      </trkpt>
      <trkpt lat="44.46511" lon="1.67479">
        <ele>203.2</ele>
        <time>2015-10-31T13:32:50Z</time>
      </trkpt>
      <trkpt lat="44.4651" lon="1.67473">
        <ele>203.7</ele>
        <time>2015-10-31T13:32:52Z</time>
      </trkpt>
      <trkpt lat="44.46509" lon="1.67466">
        <ele>204</ele>
        <time>2015-10-31T13:32:54Z</time>
      </trkpt>
      <trkpt lat="44.46508" lon="1.67459">
        <ele>204.4</ele>
        <time>2015-10-31T13:32:56Z</time>
      </trkpt>
      <trkpt lat="44.46508" lon="1.67452">
        <ele>204.2</ele>
        <time>2015-10-31T13:32:58Z</time>
      </trkpt>
      <trkpt lat="44.46508" lon="1.67448">
        <ele>203.9</ele>
        <time>2015-10-31T13:33:01Z</time>
      </trkpt>
      <trkpt lat="44.46505" lon="1.67437">
        <ele>204.1</ele>
        <time>2015-10-31T13:35:04Z</time>
      </trkpt>
      <trkpt lat="44.46503" lon="1.67431">
        <ele>204.2</ele>
        <time>2015-10-31T13:35:06Z</time>
      </trkpt>
      <trkpt lat="44.46502" lon="1.67424">
        <ele>204.3</ele>
        <time>2015-10-31T13:35:08Z</time>
      </trkpt>
      <trkpt lat="44.46501" lon="1.67419">
        <ele>204.1</ele>
        <time>2015-10-31T13:35:09Z</time>
      </trkpt>
      <trkpt lat="44.46501" lon="1.67415">
        <ele>203.9</ele>
        <time>2015-10-31T13:35:10Z</time>
      </trkpt>
      <trkpt lat="44.465" lon="1.6741">
        <ele>203.8</ele>
        <time>2015-10-31T13:35:11Z</time>
      </trkpt>
      <trkpt lat="44.465" lon="1.67406">
        <ele>203.7</ele>
        <time>2015-10-31T13:35:12Z</time>
      </trkpt>
      <trkpt lat="44.46499" lon="1.67402">
        <ele>203.5</ele>
        <time>2015-10-31T13:35:13Z</time>
      </trkpt>
      <trkpt lat="44.46498" lon="1.67397">
        <ele>203.4</ele>
        <time>2015-10-31T13:35:14Z</time>
      </trkpt>
      <trkpt lat="44.46498" lon="1.67394">
        <ele>203</ele>
        <time>2015-10-31T13:35:15Z</time>
      </trkpt>
      <trkpt lat="44.46498" lon="1.67389">
        <ele>202.6</ele>
        <time>2015-10-31T13:35:16Z</time>
      </trkpt>
      <trkpt lat="44.46499" lon="1.67385">
        <ele>202.1</ele>
        <time>2015-10-31T13:35:17Z</time>
      </trkpt>
      <trkpt lat="44.46499" lon="1.67381">
        <ele>201.6</ele>
        <time>2015-10-31T13:35:18Z</time>
      </trkpt>
      <trkpt lat="44.465" lon="1.67374">
        <ele>200.5</ele>
        <time>2015-10-31T13:35:20Z</time>
      </trkpt>
      <trkpt lat="44.46499" lon="1.6737">
        <ele>199.9</ele>
        <time>2015-10-31T13:35:21Z</time>
      </trkpt>
      <trkpt lat="44.46499" lon="1.67366">
        <ele>199.3</ele>
        <time>2015-10-31T13:35:22Z</time>
      </trkpt>
      <trkpt lat="44.46498" lon="1.67362">
        <ele>198.9</ele>
        <time>2015-10-31T13:35:23Z</time>
      </trkpt>
      <trkpt lat="44.46497" lon="1.67358">
        <ele>198.5</ele>
        <time>2015-10-31T13:35:24Z</time>
      </trkpt>
      <trkpt lat="44.46497" lon="1.67353">
        <ele>197.9</ele>
        <time>2015-10-31T13:35:25Z</time>
      </trkpt>
      <trkpt lat="44.46497" lon="1.67349">
        <ele>197.1</ele>
        <time>2015-10-31T13:35:26Z</time>
      </trkpt>
      <trkpt lat="44.46497" lon="1.67345">
        <ele>196.3</ele>
        <time>2015-10-31T13:35:27Z</time>
      </trkpt>
      <trkpt lat="44.46496" lon="1.67341">
        <ele>195.8</ele>
        <time>2015-10-31T13:35:28Z</time>
      </trkpt>
      <trkpt lat="44.46496" lon="1.67335">
        <ele>195</ele>
        <time>2015-10-31T13:35:30Z</time>
      </trkpt>
      <trkpt lat="44.46494" lon="1.67331">
        <ele>194.9</ele>
        <time>2015-10-31T13:35:33Z</time>
      </trkpt>
      <trkpt lat="44.46494" lon="1.67326">
        <ele>194.1</ele>
        <time>2015-10-31T13:35:36Z</time>
      </trkpt>
      <trkpt lat="44.46493" lon="1.67322">
        <ele>193.6</ele>
        <time>2015-10-31T13:35:39Z</time>
      </trkpt>
      <trkpt lat="44.4649" lon="1.67323">
        <ele>195</ele>
        <time>2015-10-31T13:35:46Z</time>
      </trkpt>
      <trkpt lat="44.46487" lon="1.6732">
        <ele>195.8</ele>
        <time>2015-10-31T13:36:08Z</time>
      </trkpt>
      <trkpt lat="44.46483" lon="1.6732">
        <ele>197.5</ele>
        <time>2015-10-31T13:36:10Z</time>
      </trkpt>
      <trkpt lat="44.4648" lon="1.67318">
        <ele>198.4</ele>
        <time>2015-10-31T13:36:12Z</time>
      </trkpt>
      <trkpt lat="44.46479" lon="1.67314">
        <ele>198.3</ele>
        <time>2015-10-31T13:36:14Z</time>
      </trkpt>
      <trkpt lat="44.46482" lon="1.67313">
        <ele>196.8</ele>
        <time>2015-10-31T13:36:17Z</time>
      </trkpt>
      <trkpt lat="44.46481" lon="1.67309">
        <ele>196.2</ele>
        <time>2015-10-31T13:36:53Z</time>
      </trkpt>
      <trkpt lat="44.46477" lon="1.67308">
        <ele>197.6</ele>
        <time>2015-10-31T13:36:55Z</time>
      </trkpt>
      <trkpt lat="44.46473" lon="1.67308">
        <ele>199.2</ele>
        <time>2015-10-31T13:36:57Z</time>
      </trkpt>
      <trkpt lat="44.46469" lon="1.67307">
        <ele>200.7</ele>
        <time>2015-10-31T13:36:59Z</time>
      </trkpt>
      <trkpt lat="44.46466" lon="1.67305">
        <ele>201.8</ele>
        <time>2015-10-31T13:37:01Z</time>
      </trkpt>
      <trkpt lat="44.46462" lon="1.67304">
        <ele>203.3</ele>
        <time>2015-10-31T13:37:03Z</time>
      </trkpt>
      <trkpt lat="44.46457" lon="1.67302">
        <ele>205.3</ele>
        <time>2015-10-31T13:37:05Z</time>
      </trkpt>
      <trkpt lat="44.46452" lon="1.673">
        <ele>207.3</ele>
        <time>2015-10-31T13:37:07Z</time>
      </trkpt>
      <trkpt lat="44.46447" lon="1.67298">
        <ele>209.2</ele>
        <time>2015-10-31T13:37:09Z</time>
      </trkpt>
      <trkpt lat="44.46443" lon="1.67296">
        <ele>211.3</ele>
        <time>2015-10-31T13:37:11Z</time>
      </trkpt>
      <trkpt lat="44.46439" lon="1.67293">
        <ele>213.2</ele>
        <time>2015-10-31T13:37:13Z</time>
      </trkpt>
      <trkpt lat="44.46435" lon="1.6729">
        <ele>214.9</ele>
        <time>2015-10-31T13:37:15Z</time>
      </trkpt>
      <trkpt lat="44.46431" lon="1.67287">
        <ele>216.7</ele>
        <time>2015-10-31T13:37:17Z</time>
      </trkpt>
      <trkpt lat="44.46427" lon="1.67285">
        <ele>218.8</ele>
        <time>2015-10-31T13:37:19Z</time>
      </trkpt>
      <trkpt lat="44.46423" lon="1.67281">
        <ele>220.8</ele>
        <time>2015-10-31T13:37:21Z</time>
      </trkpt>
      <trkpt lat="44.4642" lon="1.67279">
        <ele>222.3</ele>
        <time>2015-10-31T13:37:23Z</time>
      </trkpt>
      <trkpt lat="44.46417" lon="1.67277">
        <ele>223.3</ele>
        <time>2015-10-31T13:37:27Z</time>
      </trkpt>
      <trkpt lat="44.46417" lon="1.67273">
        <ele>223.4</ele>
        <time>2015-10-31T13:37:29Z</time>
      </trkpt>
      <trkpt lat="44.46414" lon="1.6727">
        <ele>224.4</ele>
        <time>2015-10-31T13:37:32Z</time>
      </trkpt>
      <trkpt lat="44.46413" lon="1.67266">
        <ele>224.7</ele>
        <time>2015-10-31T13:37:39Z</time>
      </trkpt>
      <trkpt lat="44.4641" lon="1.67264">
        <ele>226.2</ele>
        <time>2015-10-31T13:37:45Z</time>
      </trkpt>
      <trkpt lat="44.46407" lon="1.67262">
        <ele>227.9</ele>
        <time>2015-10-31T13:37:48Z</time>
      </trkpt>
      <trkpt lat="44.46405" lon="1.6726">
        <ele>228.9</ele>
        <time>2015-10-31T13:37:50Z</time>
      </trkpt>
      <trkpt lat="44.46402" lon="1.67257">
        <ele>230.2</ele>
        <time>2015-10-31T13:37:53Z</time>
      </trkpt>
      <trkpt lat="44.464" lon="1.67253">
        <ele>231</ele>
        <time>2015-10-31T13:37:56Z</time>
      </trkpt>
      <trkpt lat="44.46399" lon="1.67247">
        <ele>231</ele>
        <time>2015-10-31T13:37:59Z</time>
      </trkpt>
      <trkpt lat="44.46397" lon="1.67244">
        <ele>231.5</ele>
        <time>2015-10-31T13:38:01Z</time>
      </trkpt>
      <trkpt lat="44.46396" lon="1.67239">
        <ele>231.8</ele>
        <time>2015-10-31T13:38:03Z</time>
      </trkpt>
      <trkpt lat="44.46396" lon="1.67234">
        <ele>231.6</ele>
        <time>2015-10-31T13:38:05Z</time>
      </trkpt>
      <trkpt lat="44.46395" lon="1.67228">
        <ele>231.6</ele>
        <time>2015-10-31T13:38:07Z</time>
      </trkpt>
      <trkpt lat="44.46394" lon="1.67223">
        <ele>231.5</ele>
        <time>2015-10-31T13:38:09Z</time>
      </trkpt>
      <trkpt lat="44.46393" lon="1.67219">
        <ele>231.6</ele>
        <time>2015-10-31T13:38:10Z</time>
      </trkpt>
      <trkpt lat="44.46393" lon="1.67212">
        <ele>231.1</ele>
        <time>2015-10-31T13:38:12Z</time>
      </trkpt>
      <trkpt lat="44.46393" lon="1.67204">
        <ele>231.1</ele>
        <time>2015-10-31T13:38:14Z</time>
      </trkpt>
      <trkpt lat="44.46392" lon="1.67197">
        <ele>232.1</ele>
        <time>2015-10-31T13:38:16Z</time>
      </trkpt>
      <trkpt lat="44.4639" lon="1.67192">
        <ele>233.3</ele>
        <time>2015-10-31T13:38:18Z</time>
      </trkpt>
      <trkpt lat="44.46388" lon="1.67186">
        <ele>234.8</ele>
        <time>2015-10-31T13:38:20Z</time>
      </trkpt>
      <trkpt lat="44.46387" lon="1.67181">
        <ele>236</ele>
        <time>2015-10-31T13:38:22Z</time>
      </trkpt>
      <trkpt lat="44.46385" lon="1.67176">
        <ele>237.2</ele>
        <time>2015-10-31T13:38:24Z</time>
      </trkpt>
      <trkpt lat="44.46383" lon="1.67173">
        <ele>238.6</ele>
        <time>2015-10-31T13:38:26Z</time>
      </trkpt>
      <trkpt lat="44.46381" lon="1.67169">
        <ele>239.6</ele>
        <time>2015-10-31T13:38:28Z</time>
      </trkpt>
      <trkpt lat="44.46379" lon="1.67165">
        <ele>240.9</ele>
        <time>2015-10-31T13:38:30Z</time>
      </trkpt>
      <trkpt lat="44.46377" lon="1.6716">
        <ele>242.1</ele>
        <time>2015-10-31T13:38:32Z</time>
      </trkpt>
      <trkpt lat="44.46375" lon="1.67156">
        <ele>243.4</ele>
        <time>2015-10-31T13:38:34Z</time>
      </trkpt>
      <trkpt lat="44.46373" lon="1.67151">
        <ele>245.2</ele>
        <time>2015-10-31T13:38:36Z</time>
      </trkpt>
      <trkpt lat="44.46372" lon="1.67146">
        <ele>246</ele>
        <time>2015-10-31T13:38:38Z</time>
      </trkpt>
      <trkpt lat="44.46371" lon="1.67141">
        <ele>246.6</ele>
        <time>2015-10-31T13:38:40Z</time>
      </trkpt>
      <trkpt lat="44.4637" lon="1.67137">
        <ele>247.4</ele>
        <time>2015-10-31T13:38:42Z</time>
      </trkpt>
      <trkpt lat="44.46368" lon="1.67133">
        <ele>248.6</ele>
        <time>2015-10-31T13:38:44Z</time>
      </trkpt>
      <trkpt lat="44.46367" lon="1.67129">
        <ele>249.5</ele>
        <time>2015-10-31T13:38:46Z</time>
      </trkpt>
      <trkpt lat="44.46366" lon="1.67126">
        <ele>250.1</ele>
        <time>2015-10-31T13:38:48Z</time>
      </trkpt>
      <trkpt lat="44.46367" lon="1.6712">
        <ele>251.1</ele>
        <time>2015-10-31T13:38:51Z</time>
      </trkpt>
      <trkpt lat="44.46366" lon="1.67115">
        <ele>252.5</ele>
        <time>2015-10-31T13:38:54Z</time>
      </trkpt>
      <trkpt lat="44.46366" lon="1.6711">
        <ele>253.6</ele>
        <time>2015-10-31T13:38:56Z</time>
      </trkpt>
      <trkpt lat="44.46366" lon="1.67106">
        <ele>254.4</ele>
        <time>2015-10-31T13:38:58Z</time>
      </trkpt>
      <trkpt lat="44.46367" lon="1.67102">
        <ele>254.9</ele>
        <time>2015-10-31T13:39:00Z</time>
      </trkpt>
      <trkpt lat="44.46368" lon="1.67098">
        <ele>255.1</ele>
        <time>2015-10-31T13:39:02Z</time>
      </trkpt>
      <trkpt lat="44.4637" lon="1.67095">
        <ele>254.8</ele>
        <time>2015-10-31T13:39:04Z</time>
      </trkpt>
      <trkpt lat="44.46373" lon="1.67095">
        <ele>253.1</ele>
        <time>2015-10-31T13:39:08Z</time>
      </trkpt>
      <trkpt lat="44.46378" lon="1.671">
        <ele>249.4</ele>
        <time>2015-10-31T13:39:15Z</time>
      </trkpt>
      <trkpt lat="44.4638" lon="1.67092">
        <ele>249.8</ele>
        <time>2015-10-31T13:39:23Z</time>
      </trkpt>
      <trkpt lat="44.4638" lon="1.67086">
        <ele>251.3</ele>
        <time>2015-10-31T13:39:25Z</time>
      </trkpt>
      <trkpt lat="44.4638" lon="1.67082">
        <ele>252.1</ele>
        <time>2015-10-31T13:39:26Z</time>
      </trkpt>
      <trkpt lat="44.46381" lon="1.67078">
        <ele>252.7</ele>
        <time>2015-10-31T13:39:27Z</time>
      </trkpt>
      <trkpt lat="44.46381" lon="1.67074">
        <ele>253.2</ele>
        <time>2015-10-31T13:39:28Z</time>
      </trkpt>
      <trkpt lat="44.46382" lon="1.67068">
        <ele>254.3</ele>
        <time>2015-10-31T13:39:30Z</time>
      </trkpt>
      <trkpt lat="44.46385" lon="1.67062">
        <ele>253.9</ele>
        <time>2015-10-31T13:39:32Z</time>
      </trkpt>
      <trkpt lat="44.46388" lon="1.67059">
        <ele>253.3</ele>
        <time>2015-10-31T13:39:33Z</time>
      </trkpt>
      <trkpt lat="44.4639" lon="1.67057">
        <ele>252.2</ele>
        <time>2015-10-31T13:39:34Z</time>
      </trkpt>
      <trkpt lat="44.46393" lon="1.67054">
        <ele>251.2</ele>
        <time>2015-10-31T13:39:35Z</time>
      </trkpt>
      <trkpt lat="44.46396" lon="1.67052">
        <ele>250.4</ele>
        <time>2015-10-31T13:39:36Z</time>
      </trkpt>
      <trkpt lat="44.46398" lon="1.67049">
        <ele>249.7</ele>
        <time>2015-10-31T13:39:37Z</time>
      </trkpt>
      <trkpt lat="44.464" lon="1.67044">
        <ele>249.7</ele>
        <time>2015-10-31T13:39:39Z</time>
      </trkpt>
      <trkpt lat="44.46401" lon="1.67038">
        <ele>250.1</ele>
        <time>2015-10-31T13:39:41Z</time>
      </trkpt>
      <trkpt lat="44.46403" lon="1.67032">
        <ele>249.7</ele>
        <time>2015-10-31T13:39:43Z</time>
      </trkpt>
      <trkpt lat="44.46404" lon="1.67025">
        <ele>249.7</ele>
        <time>2015-10-31T13:39:45Z</time>
      </trkpt>
      <trkpt lat="44.46404" lon="1.67019">
        <ele>250.5</ele>
        <time>2015-10-31T13:39:47Z</time>
      </trkpt>
      <trkpt lat="44.46403" lon="1.67012">
        <ele>251.5</ele>
        <time>2015-10-31T13:39:49Z</time>
      </trkpt>
      <trkpt lat="44.46403" lon="1.67006">
        <ele>251.9</ele>
        <time>2015-10-31T13:39:51Z</time>
      </trkpt>
      <trkpt lat="44.46404" lon="1.67">
        <ele>252.1</ele>
        <time>2015-10-31T13:39:53Z</time>
      </trkpt>
      <trkpt lat="44.46404" lon="1.66996">
        <ele>252.3</ele>
        <time>2015-10-31T13:39:55Z</time>
      </trkpt>
      <trkpt lat="44.46405" lon="1.66991">
        <ele>252.3</ele>
        <time>2015-10-31T13:39:57Z</time>
      </trkpt>
      <trkpt lat="44.46405" lon="1.66986">
        <ele>252.9</ele>
        <time>2015-10-31T13:39:59Z</time>
      </trkpt>
      <trkpt lat="44.46405" lon="1.6698">
        <ele>253.7</ele>
        <time>2015-10-31T13:40:01Z</time>
      </trkpt>
      <trkpt lat="44.46404" lon="1.66974">
        <ele>254.6</ele>
        <time>2015-10-31T13:40:03Z</time>
      </trkpt>
      <trkpt lat="44.46406" lon="1.66973">
        <ele>253.5</ele>
        <time>2015-10-31T13:40:10Z</time>
      </trkpt>
      <trkpt lat="44.46402" lon="1.66975">
        <ele>255.4</ele>
        <time>2015-10-31T13:40:19Z</time>
      </trkpt>
      <trkpt lat="44.46406" lon="1.66972">
        <ele>253.5</ele>
        <time>2015-10-31T13:40:23Z</time>
      </trkpt>
      <trkpt lat="44.46409" lon="1.66971">
        <ele>252.3</ele>
        <time>2015-10-31T13:40:25Z</time>
      </trkpt>
      <trkpt lat="44.46411" lon="1.66972">
        <ele>250.9</ele>
        <time>2015-10-31T13:40:32Z</time>
      </trkpt>
      <trkpt lat="44.46408" lon="1.66967">
        <ele>253</ele>
        <time>2015-10-31T13:40:36Z</time>
      </trkpt>
      <trkpt lat="44.46407" lon="1.66962">
        <ele>254.4</ele>
        <time>2015-10-31T13:40:38Z</time>
      </trkpt>
      <trkpt lat="44.46407" lon="1.66955">
        <ele>254.5</ele>
        <time>2015-10-31T13:40:40Z</time>
      </trkpt>
      <trkpt lat="44.46407" lon="1.66949">
        <ele>254.1</ele>
        <time>2015-10-31T13:40:42Z</time>
      </trkpt>
      <trkpt lat="44.46408" lon="1.66943">
        <ele>253.7</ele>
        <time>2015-10-31T13:40:44Z</time>
      </trkpt>
      <trkpt lat="44.46408" lon="1.66937">
        <ele>253.8</ele>
        <time>2015-10-31T13:40:46Z</time>
      </trkpt>
      <trkpt lat="44.46407" lon="1.66932">
        <ele>254</ele>
        <time>2015-10-31T13:40:48Z</time>
      </trkpt>
      <trkpt lat="44.46407" lon="1.66925">
        <ele>254</ele>
        <time>2015-10-31T13:40:50Z</time>
      </trkpt>
      <trkpt lat="44.46406" lon="1.66918">
        <ele>253.9</ele>
        <time>2015-10-31T13:40:52Z</time>
      </trkpt>
      <trkpt lat="44.46406" lon="1.66914">
        <ele>253.9</ele>
        <time>2015-10-31T13:40:53Z</time>
      </trkpt>
      <trkpt lat="44.46406" lon="1.6691">
        <ele>253.8</ele>
        <time>2015-10-31T13:40:54Z</time>
      </trkpt>
      <trkpt lat="44.46407" lon="1.66906">
        <ele>253.5</ele>
        <time>2015-10-31T13:40:55Z</time>
      </trkpt>
      <trkpt lat="44.46407" lon="1.66902">
        <ele>253.5</ele>
        <time>2015-10-31T13:40:56Z</time>
      </trkpt>
      <trkpt lat="44.46407" lon="1.66894">
        <ele>253.1</ele>
        <time>2015-10-31T13:40:58Z</time>
      </trkpt>
      <trkpt lat="44.46408" lon="1.66888">
        <ele>252.8</ele>
        <time>2015-10-31T13:41:00Z</time>
      </trkpt>
      <trkpt lat="44.46411" lon="1.66886">
        <ele>251.5</ele>
        <time>2015-10-31T13:41:12Z</time>
      </trkpt>
      <trkpt lat="44.46413" lon="1.66884">
        <ele>250.5</ele>
        <time>2015-10-31T13:41:14Z</time>
      </trkpt>
      <trkpt lat="44.46416" lon="1.6688">
        <ele>249.3</ele>
        <time>2015-10-31T13:41:17Z</time>
      </trkpt>
      <trkpt lat="44.46417" lon="1.66876">
        <ele>248.8</ele>
        <time>2015-10-31T13:41:20Z</time>
      </trkpt>
      <trkpt lat="44.46418" lon="1.66872">
        <ele>249</ele>
        <time>2015-10-31T13:41:24Z</time>
      </trkpt>
      <trkpt lat="44.4642" lon="1.66869">
        <ele>248.5</ele>
        <time>2015-10-31T13:41:27Z</time>
      </trkpt>
      <trkpt lat="44.46423" lon="1.66868">
        <ele>247.3</ele>
        <time>2015-10-31T13:41:29Z</time>
      </trkpt>
      <trkpt lat="44.46427" lon="1.66869">
        <ele>245.9</ele>
        <time>2015-10-31T13:41:31Z</time>
      </trkpt>
      <trkpt lat="44.4643" lon="1.6687">
        <ele>244.6</ele>
        <time>2015-10-31T13:41:35Z</time>
      </trkpt>
      <trkpt lat="44.46434" lon="1.66871">
        <ele>243</ele>
        <time>2015-10-31T13:41:37Z</time>
      </trkpt>
      <trkpt lat="44.46436" lon="1.66871">
        <ele>242</ele>
        <time>2015-10-31T13:41:38Z</time>
      </trkpt>
      <trkpt lat="44.46441" lon="1.6687">
        <ele>240.2</ele>
        <time>2015-10-31T13:41:40Z</time>
      </trkpt>
      <trkpt lat="44.46445" lon="1.66868">
        <ele>239</ele>
        <time>2015-10-31T13:41:42Z</time>
      </trkpt>
      <trkpt lat="44.46448" lon="1.66867">
        <ele>238.1</ele>
        <time>2015-10-31T13:41:45Z</time>
      </trkpt>
      <trkpt lat="44.46451" lon="1.66863">
        <ele>237.7</ele>
        <time>2015-10-31T13:41:48Z</time>
      </trkpt>
      <trkpt lat="44.46454" lon="1.66863">
        <ele>236.6</ele>
        <time>2015-10-31T13:41:51Z</time>
      </trkpt>
      <trkpt lat="44.46454" lon="1.66867">
        <ele>235.7</ele>
        <time>2015-10-31T13:41:53Z</time>
      </trkpt>
      <trkpt lat="44.46456" lon="1.66873">
        <ele>234.2</ele>
        <time>2015-10-31T13:41:55Z</time>
      </trkpt>
      <trkpt lat="44.46457" lon="1.66879">
        <ele>233.3</ele>
        <time>2015-10-31T13:41:57Z</time>
      </trkpt>
      <trkpt lat="44.46459" lon="1.66884">
        <ele>232.4</ele>
        <time>2015-10-31T13:41:59Z</time>
      </trkpt>
      <trkpt lat="44.46461" lon="1.66889">
        <ele>231.7</ele>
        <time>2015-10-31T13:42:01Z</time>
      </trkpt>
      <trkpt lat="44.46462" lon="1.66894">
        <ele>231</ele>
        <time>2015-10-31T13:42:03Z</time>
      </trkpt>
      <trkpt lat="44.46464" lon="1.66898">
        <ele>230.5</ele>
        <time>2015-10-31T13:42:05Z</time>
      </trkpt>
      <trkpt lat="44.46467" lon="1.66898">
        <ele>229.9</ele>
        <time>2015-10-31T13:42:15Z</time>
      </trkpt>
      <trkpt lat="44.46471" lon="1.66903">
        <ele>228.8</ele>
        <time>2015-10-31T13:43:14Z</time>
      </trkpt>
      <trkpt lat="44.46473" lon="1.66907">
        <ele>228.2</ele>
        <time>2015-10-31T13:43:16Z</time>
      </trkpt>
      <trkpt lat="44.46476" lon="1.6691">
        <ele>227.6</ele>
        <time>2015-10-31T13:43:18Z</time>
      </trkpt>
      <trkpt lat="44.46479" lon="1.66915">
        <ele>226.8</ele>
        <time>2015-10-31T13:43:20Z</time>
      </trkpt>
      <trkpt lat="44.46479" lon="1.66919">
        <ele>226.5</ele>
        <time>2015-10-31T13:43:22Z</time>
      </trkpt>
      <trkpt lat="44.46479" lon="1.66923">
        <ele>226.3</ele>
        <time>2015-10-31T13:43:25Z</time>
      </trkpt>
      <trkpt lat="44.4648" lon="1.66927">
        <ele>226</ele>
        <time>2015-10-31T13:43:28Z</time>
      </trkpt>
      <trkpt lat="44.46482" lon="1.6693">
        <ele>225.5</ele>
        <time>2015-10-31T13:43:31Z</time>
      </trkpt>
      <trkpt lat="44.46485" lon="1.66932">
        <ele>225</ele>
        <time>2015-10-31T13:43:37Z</time>
      </trkpt>
      <trkpt lat="44.46481" lon="1.66934">
        <ele>225.5</ele>
        <time>2015-10-31T13:43:40Z</time>
      </trkpt>
      <trkpt lat="44.46481" lon="1.6693">
        <ele>225.8</ele>
        <time>2015-10-31T13:43:42Z</time>
      </trkpt>
      <trkpt lat="44.46481" lon="1.66924">
        <ele>225.9</ele>
        <time>2015-10-31T13:43:45Z</time>
      </trkpt>
      <trkpt lat="44.46483" lon="1.6692">
        <ele>225.8</ele>
        <time>2015-10-31T13:43:49Z</time>
      </trkpt>
      <trkpt lat="44.46485" lon="1.66924">
        <ele>225.2</ele>
        <time>2015-10-31T13:43:52Z</time>
      </trkpt>
      <trkpt lat="44.46487" lon="1.66928">
        <ele>224.8</ele>
        <time>2015-10-31T13:43:54Z</time>
      </trkpt>
      <trkpt lat="44.46488" lon="1.66932">
        <ele>224.4</ele>
        <time>2015-10-31T13:43:57Z</time>
      </trkpt>
      <trkpt lat="44.46485" lon="1.66931">
        <ele>225</ele>
        <time>2015-10-31T13:44:00Z</time>
      </trkpt>
      <trkpt lat="44.46486" lon="1.66936">
        <ele>224.7</ele>
        <time>2015-10-31T13:44:04Z</time>
      </trkpt>
      <trkpt lat="44.46488" lon="1.66939">
        <ele>224.1</ele>
        <time>2015-10-31T13:44:07Z</time>
      </trkpt>
      <trkpt lat="44.46491" lon="1.66941">
        <ele>223.5</ele>
        <time>2015-10-31T13:44:09Z</time>
      </trkpt>
      <trkpt lat="44.46494" lon="1.66942">
        <ele>223</ele>
        <time>2015-10-31T13:44:11Z</time>
      </trkpt>
      <trkpt lat="44.46498" lon="1.66942">
        <ele>222.4</ele>
        <time>2015-10-31T13:44:14Z</time>
      </trkpt>
      <trkpt lat="44.465" lon="1.66945">
        <ele>221.9</ele>
        <time>2015-10-31T13:44:16Z</time>
      </trkpt>
      <trkpt lat="44.46501" lon="1.66948">
        <ele>221.6</ele>
        <time>2015-10-31T13:44:18Z</time>
      </trkpt>
      <trkpt lat="44.46498" lon="1.66947">
        <ele>222.2</ele>
        <time>2015-10-31T13:44:26Z</time>
      </trkpt>
      <trkpt lat="44.46501" lon="1.66946">
        <ele>221.7</ele>
        <time>2015-10-31T13:44:35Z</time>
      </trkpt>
      <trkpt lat="44.46501" lon="1.66942">
        <ele>221.8</ele>
        <time>2015-10-31T13:44:40Z</time>
      </trkpt>
      <trkpt lat="44.46498" lon="1.66942">
        <ele>222.3</ele>
        <time>2015-10-31T13:44:46Z</time>
      </trkpt>
      <trkpt lat="44.46497" lon="1.66939">
        <ele>222.7</ele>
        <time>2015-10-31T13:44:48Z</time>
      </trkpt>
      <trkpt lat="44.465" lon="1.66939">
        <ele>222.1</ele>
        <time>2015-10-31T13:45:02Z</time>
      </trkpt>
      <trkpt lat="44.46502" lon="1.66941">
        <ele>221.6</ele>
        <time>2015-10-31T13:45:05Z</time>
      </trkpt>
      <trkpt lat="44.465" lon="1.66944">
        <ele>222</ele>
        <time>2015-10-31T13:45:08Z</time>
      </trkpt>
      <trkpt lat="44.46496" lon="1.66944">
        <ele>222.5</ele>
        <time>2015-10-31T13:45:10Z</time>
      </trkpt>
      <trkpt lat="44.46493" lon="1.66943">
        <ele>223.1</ele>
        <time>2015-10-31T13:45:12Z</time>
      </trkpt>
      <trkpt lat="44.46491" lon="1.66939">
        <ele>223.6</ele>
        <time>2015-10-31T13:45:14Z</time>
      </trkpt>
      <trkpt lat="44.46488" lon="1.66938">
        <ele>224.1</ele>
        <time>2015-10-31T13:45:17Z</time>
      </trkpt>
      <trkpt lat="44.46491" lon="1.66938">
        <ele>223.6</ele>
        <time>2015-10-31T13:45:21Z</time>
      </trkpt>
      <trkpt lat="44.46493" lon="1.66935">
        <ele>223.4</ele>
        <time>2015-10-31T13:45:27Z</time>
      </trkpt>
      <trkpt lat="44.46495" lon="1.6693">
        <ele>223.2</ele>
        <time>2015-10-31T13:45:29Z</time>
      </trkpt>
      <trkpt lat="44.46494" lon="1.66927">
        <ele>223.5</ele>
        <time>2015-10-31T13:45:33Z</time>
      </trkpt>
      <trkpt lat="44.46493" lon="1.66931">
        <ele>223.6</ele>
        <time>2015-10-31T13:45:36Z</time>
      </trkpt>
      <trkpt lat="44.46493" lon="1.66935">
        <ele>223.4</ele>
        <time>2015-10-31T13:45:38Z</time>
      </trkpt>
      <trkpt lat="44.46495" lon="1.66929">
        <ele>223.3</ele>
        <time>2015-10-31T13:45:43Z</time>
      </trkpt>
      <trkpt lat="44.46495" lon="1.66922">
        <ele>223.5</ele>
        <time>2015-10-31T13:45:45Z</time>
      </trkpt>
      <trkpt lat="44.46496" lon="1.66918">
        <ele>223.5</ele>
        <time>2015-10-31T13:45:46Z</time>
      </trkpt>
      <trkpt lat="44.46497" lon="1.66912">
        <ele>223.4</ele>
        <time>2015-10-31T13:45:48Z</time>
      </trkpt>
      <trkpt lat="44.46497" lon="1.66907">
        <ele>223.6</ele>
        <time>2015-10-31T13:45:51Z</time>
      </trkpt>
      <trkpt lat="44.46498" lon="1.66903">
        <ele>223.6</ele>
        <time>2015-10-31T13:45:57Z</time>
      </trkpt>
      <trkpt lat="44.46498" lon="1.66898">
        <ele>223.8</ele>
        <time>2015-10-31T13:46:00Z</time>
      </trkpt>
      <trkpt lat="44.46499" lon="1.66893">
        <ele>223.6</ele>
        <time>2015-10-31T13:46:03Z</time>
      </trkpt>
      <trkpt lat="44.46498" lon="1.66889">
        <ele>223.9</ele>
        <time>2015-10-31T13:46:05Z</time>
      </trkpt>
      <trkpt lat="44.46498" lon="1.66885">
        <ele>224.1</ele>
        <time>2015-10-31T13:46:07Z</time>
      </trkpt>
      <trkpt lat="44.46496" lon="1.66881">
        <ele>224.6</ele>
        <time>2015-10-31T13:46:10Z</time>
      </trkpt>
      <trkpt lat="44.46495" lon="1.66885">
        <ele>224.7</ele>
        <time>2015-10-31T13:46:26Z</time>
      </trkpt>
      <trkpt lat="44.46494" lon="1.66889">
        <ele>224.9</ele>
        <time>2015-10-31T13:46:29Z</time>
      </trkpt>
      <trkpt lat="44.46495" lon="1.66885">
        <ele>224.8</ele>
        <time>2015-10-31T13:46:46Z</time>
      </trkpt>
      <trkpt lat="44.46498" lon="1.66886">
        <ele>224</ele>
        <time>2015-10-31T13:46:50Z</time>
      </trkpt>
      <trkpt lat="44.46497" lon="1.66882">
        <ele>224.3</ele>
        <time>2015-10-31T13:46:55Z</time>
      </trkpt>
      <trkpt lat="44.46495" lon="1.66878">
        <ele>224.9</ele>
        <time>2015-10-31T13:46:58Z</time>
      </trkpt>
      <trkpt lat="44.46497" lon="1.66875">
        <ele>224.7</ele>
        <time>2015-10-31T13:46:59Z</time>
      </trkpt>
      <trkpt lat="44.46498" lon="1.66871">
        <ele>225.1</ele>
        <time>2015-10-31T13:47:01Z</time>
      </trkpt>
      <trkpt lat="44.46499" lon="1.66867">
        <ele>225.5</ele>
        <time>2015-10-31T13:47:04Z</time>
      </trkpt>
      <trkpt lat="44.46501" lon="1.66863">
        <ele>225.9</ele>
        <time>2015-10-31T13:47:07Z</time>
      </trkpt>
      <trkpt lat="44.46501" lon="1.66858">
        <ele>226.7</ele>
        <time>2015-10-31T13:47:10Z</time>
      </trkpt>
      <trkpt lat="44.465" lon="1.66861">
        <ele>226.3</ele>
        <time>2015-10-31T13:47:13Z</time>
      </trkpt>
      <trkpt lat="44.46499" lon="1.66865">
        <ele>225.9</ele>
        <time>2015-10-31T13:47:15Z</time>
      </trkpt>
      <trkpt lat="44.46501" lon="1.66864">
        <ele>225.5</ele>
        <time>2015-10-31T13:47:22Z</time>
      </trkpt>
      <trkpt lat="44.46504" lon="1.66866">
        <ele>224.6</ele>
        <time>2015-10-31T13:47:30Z</time>
      </trkpt>
      <trkpt lat="44.46505" lon="1.66871">
        <ele>223.6</ele>
        <time>2015-10-31T13:47:32Z</time>
      </trkpt>
      <trkpt lat="44.46506" lon="1.66876">
        <ele>222.8</ele>
        <time>2015-10-31T13:47:34Z</time>
      </trkpt>
      <trkpt lat="44.46506" lon="1.66882">
        <ele>222.5</ele>
        <time>2015-10-31T13:47:37Z</time>
      </trkpt>
      <trkpt lat="44.46508" lon="1.66886">
        <ele>222.1</ele>
        <time>2015-10-31T13:47:40Z</time>
      </trkpt>
      <trkpt lat="44.46508" lon="1.66882">
        <ele>222.2</ele>
        <time>2015-10-31T13:47:45Z</time>
      </trkpt>
      <trkpt lat="44.46507" lon="1.66875">
        <ele>222.5</ele>
        <time>2015-10-31T13:48:10Z</time>
      </trkpt>
      <trkpt lat="44.46505" lon="1.66873">
        <ele>223.4</ele>
        <time>2015-10-31T13:48:18Z</time>
      </trkpt>
      <trkpt lat="44.46507" lon="1.66875">
        <ele>222.5</ele>
        <time>2015-10-31T13:48:26Z</time>
      </trkpt>
      <trkpt lat="44.46505" lon="1.66872">
        <ele>223.4</ele>
        <time>2015-10-31T13:48:50Z</time>
      </trkpt>
      <trkpt lat="44.46508" lon="1.66874">
        <ele>222.4</ele>
        <time>2015-10-31T13:48:55Z</time>
      </trkpt>
      <trkpt lat="44.46511" lon="1.66872">
        <ele>222.2</ele>
        <time>2015-10-31T13:49:01Z</time>
      </trkpt>
      <trkpt lat="44.46509" lon="1.66869">
        <ele>223</ele>
        <time>2015-10-31T13:49:04Z</time>
      </trkpt>
      <trkpt lat="44.46507" lon="1.66867">
        <ele>224</ele>
        <time>2015-10-31T13:49:07Z</time>
      </trkpt>
      <trkpt lat="44.4651" lon="1.6687">
        <ele>222.8</ele>
        <time>2015-10-31T13:49:12Z</time>
      </trkpt>
      <trkpt lat="44.46511" lon="1.66876">
        <ele>221.7</ele>
        <time>2015-10-31T13:49:46Z</time>
      </trkpt>
      <trkpt lat="44.46507" lon="1.66875">
        <ele>222.4</ele>
        <time>2015-10-31T13:49:50Z</time>
      </trkpt>
      <trkpt lat="44.46505" lon="1.66871">
        <ele>223.6</ele>
        <time>2015-10-31T13:49:54Z</time>
      </trkpt>
      <trkpt lat="44.46503" lon="1.66868">
        <ele>224.5</ele>
        <time>2015-10-31T13:49:57Z</time>
      </trkpt>
      <trkpt lat="44.465" lon="1.66869">
        <ele>225</ele>
        <time>2015-10-31T13:50:00Z</time>
      </trkpt>
      <trkpt lat="44.465" lon="1.66874">
        <ele>224.3</ele>
        <time>2015-10-31T13:50:31Z</time>
      </trkpt>
      <trkpt lat="44.46504" lon="1.6687">
        <ele>223.9</ele>
        <time>2015-10-31T13:53:21Z</time>
      </trkpt>
      <trkpt lat="44.46501" lon="1.6687">
        <ele>224.8</ele>
        <time>2015-10-31T13:53:25Z</time>
      </trkpt>
      <trkpt lat="44.46498" lon="1.6687">
        <ele>225.4</ele>
        <time>2015-10-31T13:53:35Z</time>
      </trkpt>
      <trkpt lat="44.465" lon="1.66868">
        <ele>225.1</ele>
        <time>2015-10-31T13:53:59Z</time>
      </trkpt>
      <trkpt lat="44.46503" lon="1.66866">
        <ele>224.7</ele>
        <time>2015-10-31T13:54:11Z</time>
      </trkpt>
      <trkpt lat="44.46506" lon="1.6687">
        <ele>223.7</ele>
        <time>2015-10-31T13:54:17Z</time>
      </trkpt>
      <trkpt lat="44.46505" lon="1.66866">
        <ele>224.4</ele>
        <time>2015-10-31T13:56:36Z</time>
      </trkpt>
      <trkpt lat="44.46505" lon="1.6687">
        <ele>223.8</ele>
        <time>2015-10-31T13:56:50Z</time>
      </trkpt>
      <trkpt lat="44.46504" lon="1.66875">
        <ele>223.1</ele>
        <time>2015-10-31T13:57:26Z</time>
      </trkpt>
      <trkpt lat="44.46501" lon="1.66864">
        <ele>225.8</ele>
        <time>2015-10-31T13:58:26Z</time>
      </trkpt>
      <trkpt lat="44.46499" lon="1.66866">
        <ele>225.7</ele>
        <time>2015-10-31T13:58:29Z</time>
      </trkpt>
      <trkpt lat="44.46496" lon="1.66865">
        <ele>226.6</ele>
        <time>2015-10-31T13:58:34Z</time>
      </trkpt>
      <trkpt lat="44.46495" lon="1.66861">
        <ele>227.5</ele>
        <time>2015-10-31T13:58:37Z</time>
      </trkpt>
      <trkpt lat="44.46492" lon="1.6686">
        <ele>228.3</ele>
        <time>2015-10-31T13:58:42Z</time>
      </trkpt>
      <trkpt lat="44.46495" lon="1.66861">
        <ele>227.5</ele>
        <time>2015-10-31T13:58:47Z</time>
      </trkpt>
      <trkpt lat="44.46498" lon="1.66861">
        <ele>226.9</ele>
        <time>2015-10-31T13:58:50Z</time>
      </trkpt>
      <trkpt lat="44.46499" lon="1.66864">
        <ele>226.1</ele>
        <time>2015-10-31T13:59:07Z</time>
      </trkpt>
      <trkpt lat="44.46497" lon="1.66869">
        <ele>225.6</ele>
        <time>2015-10-31T13:59:11Z</time>
      </trkpt>
      <trkpt lat="44.46496" lon="1.66872">
        <ele>225.3</ele>
        <time>2015-10-31T13:59:14Z</time>
      </trkpt>
      <trkpt lat="44.46496" lon="1.66877">
        <ele>224.8</ele>
        <time>2015-10-31T13:59:18Z</time>
      </trkpt>
      <trkpt lat="44.46497" lon="1.66882">
        <ele>224.5</ele>
        <time>2015-10-31T13:59:21Z</time>
      </trkpt>
      <trkpt lat="44.46498" lon="1.66886">
        <ele>224</ele>
        <time>2015-10-31T13:59:24Z</time>
      </trkpt>
      <trkpt lat="44.46498" lon="1.66891">
        <ele>223.9</ele>
        <time>2015-10-31T13:59:27Z</time>
      </trkpt>
      <trkpt lat="44.46499" lon="1.66895">
        <ele>223.6</ele>
        <time>2015-10-31T13:59:30Z</time>
      </trkpt>
      <trkpt lat="44.46499" lon="1.66899">
        <ele>223.5</ele>
        <time>2015-10-31T13:59:33Z</time>
      </trkpt>
      <trkpt lat="44.46498" lon="1.66903">
        <ele>223.5</ele>
        <time>2015-10-31T13:59:36Z</time>
      </trkpt>
      <trkpt lat="44.46498" lon="1.66908">
        <ele>223.5</ele>
        <time>2015-10-31T13:59:40Z</time>
      </trkpt>
      <trkpt lat="44.46497" lon="1.66913">
        <ele>223.5</ele>
        <time>2015-10-31T13:59:43Z</time>
      </trkpt>
      <trkpt lat="44.46496" lon="1.66918">
        <ele>223.5</ele>
        <time>2015-10-31T13:59:46Z</time>
      </trkpt>
      <trkpt lat="44.46495" lon="1.66921">
        <ele>223.6</ele>
        <time>2015-10-31T13:59:49Z</time>
      </trkpt>
      <trkpt lat="44.46494" lon="1.66925">
        <ele>223.7</ele>
        <time>2015-10-31T13:59:53Z</time>
      </trkpt>
      <trkpt lat="44.46493" lon="1.6693">
        <ele>223.7</ele>
        <time>2015-10-31T13:59:58Z</time>
      </trkpt>
      <trkpt lat="44.46491" lon="1.66934">
        <ele>223.8</ele>
        <time>2015-10-31T14:00:02Z</time>
      </trkpt>
      <trkpt lat="44.46489" lon="1.66936">
        <ele>224.1</ele>
        <time>2015-10-31T14:00:05Z</time>
      </trkpt>
      <trkpt lat="44.46486" lon="1.66935">
        <ele>224.7</ele>
        <time>2015-10-31T14:00:08Z</time>
      </trkpt>
      <trkpt lat="44.46484" lon="1.66938">
        <ele>224.9</ele>
        <time>2015-10-31T14:00:11Z</time>
      </trkpt>
      <trkpt lat="44.46481" lon="1.66933">
        <ele>225.5</ele>
        <time>2015-10-31T14:00:16Z</time>
      </trkpt>
      <trkpt lat="44.46481" lon="1.66928">
        <ele>225.9</ele>
        <time>2015-10-31T14:00:21Z</time>
      </trkpt>
      <trkpt lat="44.46481" lon="1.66932">
        <ele>225.5</ele>
        <time>2015-10-31T14:00:26Z</time>
      </trkpt>
      <trkpt lat="44.46479" lon="1.66929">
        <ele>226.1</ele>
        <time>2015-10-31T14:00:35Z</time>
      </trkpt>
      <trkpt lat="44.46478" lon="1.66924">
        <ele>226.5</ele>
        <time>2015-10-31T14:00:38Z</time>
      </trkpt>
      <trkpt lat="44.46476" lon="1.6692">
        <ele>227</ele>
        <time>2015-10-31T14:00:41Z</time>
      </trkpt>
      <trkpt lat="44.46475" lon="1.66917">
        <ele>227.4</ele>
        <time>2015-10-31T14:00:45Z</time>
      </trkpt>
      <trkpt lat="44.46476" lon="1.66912">
        <ele>227.5</ele>
        <time>2015-10-31T14:00:47Z</time>
      </trkpt>
      <trkpt lat="44.46476" lon="1.66907">
        <ele>227.7</ele>
        <time>2015-10-31T14:00:50Z</time>
      </trkpt>
      <trkpt lat="44.46475" lon="1.66902">
        <ele>228.1</ele>
        <time>2015-10-31T14:00:53Z</time>
      </trkpt>
      <trkpt lat="44.46473" lon="1.66899">
        <ele>228.6</ele>
        <time>2015-10-31T14:00:55Z</time>
      </trkpt>
      <trkpt lat="44.46471" lon="1.66895">
        <ele>229.1</ele>
        <time>2015-10-31T14:00:58Z</time>
      </trkpt>
      <trkpt lat="44.46468" lon="1.66895">
        <ele>229.8</ele>
        <time>2015-10-31T14:01:03Z</time>
      </trkpt>
      <trkpt lat="44.4647" lon="1.66899">
        <ele>229.3</ele>
        <time>2015-10-31T14:01:07Z</time>
      </trkpt>
      <trkpt lat="44.46469" lon="1.66894">
        <ele>229.7</ele>
        <time>2015-10-31T14:01:21Z</time>
      </trkpt>
      <trkpt lat="44.46469" lon="1.66889">
        <ele>230</ele>
        <time>2015-10-31T14:01:24Z</time>
      </trkpt>
      <trkpt lat="44.4647" lon="1.66884">
        <ele>230.1</ele>
        <time>2015-10-31T14:01:27Z</time>
      </trkpt>
      <trkpt lat="44.46471" lon="1.66879">
        <ele>230.1</ele>
        <time>2015-10-31T14:01:30Z</time>
      </trkpt>
      <trkpt lat="44.46472" lon="1.66874">
        <ele>230.2</ele>
        <time>2015-10-31T14:01:33Z</time>
      </trkpt>
      <trkpt lat="44.46465" lon="1.66867">
        <ele>233</ele>
        <time>2015-10-31T14:02:15Z</time>
      </trkpt>
      <trkpt lat="44.46461" lon="1.66869">
        <ele>233.4</ele>
        <time>2015-10-31T14:02:18Z</time>
      </trkpt>
      <trkpt lat="44.46458" lon="1.6687">
        <ele>233.9</ele>
        <time>2015-10-31T14:02:21Z</time>
      </trkpt>
      <trkpt lat="44.46461" lon="1.6687">
        <ele>233.2</ele>
        <time>2015-10-31T14:02:26Z</time>
      </trkpt>
      <trkpt lat="44.46464" lon="1.66869">
        <ele>232.7</ele>
        <time>2015-10-31T14:02:30Z</time>
      </trkpt>
      <trkpt lat="44.46468" lon="1.66866">
        <ele>232.2</ele>
        <time>2015-10-31T14:02:33Z</time>
      </trkpt>
      <trkpt lat="44.4647" lon="1.66862">
        <ele>232.5</ele>
        <time>2015-10-31T14:02:35Z</time>
      </trkpt>
      <trkpt lat="44.4647" lon="1.66858">
        <ele>233.1</ele>
        <time>2015-10-31T14:02:37Z</time>
      </trkpt>
      <trkpt lat="44.46465" lon="1.66856">
        <ele>234.5</ele>
        <time>2015-10-31T14:03:15Z</time>
      </trkpt>
      <trkpt lat="44.46466" lon="1.66861">
        <ele>233.7</ele>
        <time>2015-10-31T14:03:23Z</time>
      </trkpt>
      <trkpt lat="44.4647" lon="1.66861">
        <ele>232.6</ele>
        <time>2015-10-31T14:03:26Z</time>
      </trkpt>
      <trkpt lat="44.46473" lon="1.66861">
        <ele>232</ele>
        <time>2015-10-31T14:03:28Z</time>
      </trkpt>
      <trkpt lat="44.46474" lon="1.66857">
        <ele>232.4</ele>
        <time>2015-10-31T14:03:32Z</time>
      </trkpt>
      <trkpt lat="44.46472" lon="1.66854">
        <ele>233.4</ele>
        <time>2015-10-31T14:03:37Z</time>
      </trkpt>
      <trkpt lat="44.46472" lon="1.66858">
        <ele>232.7</ele>
        <time>2015-10-31T14:03:42Z</time>
      </trkpt>
      <trkpt lat="44.46474" lon="1.66855">
        <ele>232.8</ele>
        <time>2015-10-31T14:03:45Z</time>
      </trkpt>
      <trkpt lat="44.46476" lon="1.66852">
        <ele>232.9</ele>
        <time>2015-10-31T14:03:47Z</time>
      </trkpt>
      <trkpt lat="44.46478" lon="1.66848">
        <ele>233.1</ele>
        <time>2015-10-31T14:03:49Z</time>
      </trkpt>
      <trkpt lat="44.46476" lon="1.66852">
        <ele>233</ele>
        <time>2015-10-31T14:03:54Z</time>
      </trkpt>
      <trkpt lat="44.46473" lon="1.66852">
        <ele>233.5</ele>
        <time>2015-10-31T14:03:57Z</time>
      </trkpt>
      <trkpt lat="44.46478" lon="1.66848">
        <ele>233.2</ele>
        <time>2015-10-31T14:04:32Z</time>
      </trkpt>
      <trkpt lat="44.46475" lon="1.66846">
        <ele>234.1</ele>
        <time>2015-10-31T14:04:40Z</time>
      </trkpt>
      <trkpt lat="44.46477" lon="1.6685">
        <ele>233</ele>
        <time>2015-10-31T14:04:49Z</time>
      </trkpt>
      <trkpt lat="44.46478" lon="1.66854">
        <ele>232.1</ele>
        <time>2015-10-31T14:04:54Z</time>
      </trkpt>
      <trkpt lat="44.46476" lon="1.66853">
        <ele>232.8</ele>
        <time>2015-10-31T14:05:07Z</time>
      </trkpt>
      <trkpt lat="44.46473" lon="1.66859">
        <ele>232.5</ele>
        <time>2015-10-31T14:05:18Z</time>
      </trkpt>
      <trkpt lat="44.46471" lon="1.66862">
        <ele>232.4</ele>
        <time>2015-10-31T14:05:20Z</time>
      </trkpt>
      <trkpt lat="44.46468" lon="1.66864">
        <ele>232.7</ele>
        <time>2015-10-31T14:05:23Z</time>
      </trkpt>
      <trkpt lat="44.46465" lon="1.66866">
        <ele>233.1</ele>
        <time>2015-10-31T14:05:27Z</time>
      </trkpt>
      <trkpt lat="44.46475" lon="1.66855">
        <ele>232.6</ele>
        <time>2015-10-31T14:32:06Z</time>
      </trkpt>
      <trkpt lat="44.46477" lon="1.66853">
        <ele>232.5</ele>
        <time>2015-10-31T14:32:08Z</time>
      </trkpt>
      <trkpt lat="44.46467" lon="1.66854">
        <ele>234.4</ele>
        <time>2015-10-31T14:34:26Z</time>
      </trkpt>
      <trkpt lat="44.46465" lon="1.66858">
        <ele>234.3</ele>
        <time>2015-10-31T14:34:29Z</time>
      </trkpt>
      <trkpt lat="44.46464" lon="1.66862">
        <ele>234</ele>
        <time>2015-10-31T14:34:31Z</time>
      </trkpt>
      <trkpt lat="44.46462" lon="1.66865">
        <ele>233.7</ele>
        <time>2015-10-31T14:34:33Z</time>
      </trkpt>
      <trkpt lat="44.46461" lon="1.6687">
        <ele>233.3</ele>
        <time>2015-10-31T14:34:36Z</time>
      </trkpt>
      <trkpt lat="44.46455" lon="1.66873">
        <ele>234.6</ele>
        <time>2015-10-31T14:34:39Z</time>
      </trkpt>
      <trkpt lat="44.46451" lon="1.66876">
        <ele>235.9</ele>
        <time>2015-10-31T14:34:41Z</time>
      </trkpt>
      <trkpt lat="44.46447" lon="1.66876">
        <ele>237.3</ele>
        <time>2015-10-31T14:34:43Z</time>
      </trkpt>
      <trkpt lat="44.46445" lon="1.66874">
        <ele>238.4</ele>
        <time>2015-10-31T14:34:45Z</time>
      </trkpt>
      <trkpt lat="44.46442" lon="1.66872">
        <ele>239.7</ele>
        <time>2015-10-31T14:34:47Z</time>
      </trkpt>
      <trkpt lat="44.46437" lon="1.66871">
        <ele>241.5</ele>
        <time>2015-10-31T14:34:49Z</time>
      </trkpt>
      <trkpt lat="44.46434" lon="1.66869">
        <ele>243.2</ele>
        <time>2015-10-31T14:34:51Z</time>
      </trkpt>
      <trkpt lat="44.4643" lon="1.66868">
        <ele>244.8</ele>
        <time>2015-10-31T14:34:53Z</time>
      </trkpt>
      <trkpt lat="44.46425" lon="1.66868">
        <ele>246.4</ele>
        <time>2015-10-31T14:34:55Z</time>
      </trkpt>
      <trkpt lat="44.46423" lon="1.66869">
        <ele>247.2</ele>
        <time>2015-10-31T14:34:56Z</time>
      </trkpt>
      <trkpt lat="44.46419" lon="1.66874">
        <ele>248</ele>
        <time>2015-10-31T14:34:58Z</time>
      </trkpt>
      <trkpt lat="44.46418" lon="1.66879">
        <ele>248.7</ele>
        <time>2015-10-31T14:35:00Z</time>
      </trkpt>
      <trkpt lat="44.46414" lon="1.6688">
        <ele>250.2</ele>
        <time>2015-10-31T14:35:02Z</time>
      </trkpt>
      <trkpt lat="44.46411" lon="1.66878">
        <ele>251.1</ele>
        <time>2015-10-31T14:35:04Z</time>
      </trkpt>
      <trkpt lat="44.46411" lon="1.66874">
        <ele>251.3</ele>
        <time>2015-10-31T14:35:06Z</time>
      </trkpt>
      <trkpt lat="44.46412" lon="1.6687">
        <ele>251.4</ele>
        <time>2015-10-31T14:35:08Z</time>
      </trkpt>
      <trkpt lat="44.46411" lon="1.66866">
        <ele>251.8</ele>
        <time>2015-10-31T14:35:10Z</time>
      </trkpt>
      <trkpt lat="44.46409" lon="1.66863">
        <ele>252.9</ele>
        <time>2015-10-31T14:35:12Z</time>
      </trkpt>
      <trkpt lat="44.46407" lon="1.6686">
        <ele>254</ele>
        <time>2015-10-31T14:35:14Z</time>
      </trkpt>
      <trkpt lat="44.46406" lon="1.66856">
        <ele>254.6</ele>
        <time>2015-10-31T14:35:16Z</time>
      </trkpt>
      <trkpt lat="44.46403" lon="1.66853">
        <ele>255.8</ele>
        <time>2015-10-31T14:35:20Z</time>
      </trkpt>
      <trkpt lat="44.46403" lon="1.66849">
        <ele>256.4</ele>
        <time>2015-10-31T14:35:23Z</time>
      </trkpt>
      <trkpt lat="44.46402" lon="1.66844">
        <ele>256.9</ele>
        <time>2015-10-31T14:35:26Z</time>
      </trkpt>
      <trkpt lat="44.46401" lon="1.66838">
        <ele>257.6</ele>
        <time>2015-10-31T14:35:29Z</time>
      </trkpt>
      <trkpt lat="44.464" lon="1.66834">
        <ele>258.4</ele>
        <time>2015-10-31T14:35:31Z</time>
      </trkpt>
      <trkpt lat="44.46398" lon="1.6683">
        <ele>259.3</ele>
        <time>2015-10-31T14:35:33Z</time>
      </trkpt>
      <trkpt lat="44.46397" lon="1.66826">
        <ele>260</ele>
        <time>2015-10-31T14:35:35Z</time>
      </trkpt>
      <trkpt lat="44.46395" lon="1.66822">
        <ele>260.7</ele>
        <time>2015-10-31T14:35:37Z</time>
      </trkpt>
      <trkpt lat="44.46395" lon="1.66818">
        <ele>261.2</ele>
        <time>2015-10-31T14:35:39Z</time>
      </trkpt>
      <trkpt lat="44.46394" lon="1.66814">
        <ele>261.6</ele>
        <time>2015-10-31T14:35:41Z</time>
      </trkpt>
      <trkpt lat="44.46393" lon="1.6681">
        <ele>262.2</ele>
        <time>2015-10-31T14:35:43Z</time>
      </trkpt>
      <trkpt lat="44.4639" lon="1.66807">
        <ele>263.1</ele>
        <time>2015-10-31T14:35:46Z</time>
      </trkpt>
      <trkpt lat="44.4639" lon="1.66803">
        <ele>263.4</ele>
        <time>2015-10-31T14:35:48Z</time>
      </trkpt>
      <trkpt lat="44.46391" lon="1.66798">
        <ele>263.4</ele>
        <time>2015-10-31T14:35:50Z</time>
      </trkpt>
      <trkpt lat="44.46392" lon="1.66792">
        <ele>263.5</ele>
        <time>2015-10-31T14:35:52Z</time>
      </trkpt>
      <trkpt lat="44.46394" lon="1.66787">
        <ele>264.2</ele>
        <time>2015-10-31T14:35:54Z</time>
      </trkpt>
      <trkpt lat="44.46396" lon="1.66782">
        <ele>264.7</ele>
        <time>2015-10-31T14:35:56Z</time>
      </trkpt>
      <trkpt lat="44.46399" lon="1.66777">
        <ele>265.1</ele>
        <time>2015-10-31T14:35:58Z</time>
      </trkpt>
      <trkpt lat="44.46403" lon="1.66774">
        <ele>265</ele>
        <time>2015-10-31T14:36:00Z</time>
      </trkpt>
      <trkpt lat="44.46407" lon="1.66772">
        <ele>264.6</ele>
        <time>2015-10-31T14:36:02Z</time>
      </trkpt>
      <trkpt lat="44.46409" lon="1.66769">
        <ele>264.9</ele>
        <time>2015-10-31T14:36:04Z</time>
      </trkpt>
      <trkpt lat="44.46409" lon="1.66765">
        <ele>266</ele>
        <time>2015-10-31T14:36:05Z</time>
      </trkpt>
      <trkpt lat="44.46411" lon="1.66761">
        <ele>266.6</ele>
        <time>2015-10-31T14:36:07Z</time>
      </trkpt>
      <trkpt lat="44.46414" lon="1.6676">
        <ele>266.1</ele>
        <time>2015-10-31T14:36:09Z</time>
      </trkpt>
      <trkpt lat="44.46418" lon="1.6676">
        <ele>265.4</ele>
        <time>2015-10-31T14:36:11Z</time>
      </trkpt>
      <trkpt lat="44.46421" lon="1.66761">
        <ele>264.7</ele>
        <time>2015-10-31T14:36:13Z</time>
      </trkpt>
      <trkpt lat="44.46422" lon="1.66765">
        <ele>263.5</ele>
        <time>2015-10-31T14:36:21Z</time>
      </trkpt>
      <trkpt lat="44.46419" lon="1.66768">
        <ele>263</ele>
        <time>2015-10-31T14:36:27Z</time>
      </trkpt>
      <trkpt lat="44.46422" lon="1.66771">
        <ele>261.6</ele>
        <time>2015-10-31T14:36:37Z</time>
      </trkpt>
      <trkpt lat="44.46422" lon="1.66775">
        <ele>260.4</ele>
        <time>2015-10-31T14:36:46Z</time>
      </trkpt>
      <trkpt lat="44.46426" lon="1.66773">
        <ele>260.1</ele>
        <time>2015-10-31T14:36:57Z</time>
      </trkpt>
      <trkpt lat="44.46426" lon="1.66777">
        <ele>258.8</ele>
        <time>2015-10-31T14:37:10Z</time>
      </trkpt>
      <trkpt lat="44.46428" lon="1.66769">
        <ele>260.8</ele>
        <time>2015-10-31T14:37:49Z</time>
      </trkpt>
      <trkpt lat="44.46432" lon="1.66769">
        <ele>260</ele>
        <time>2015-10-31T14:37:51Z</time>
      </trkpt>
      <trkpt lat="44.46435" lon="1.66769">
        <ele>259.4</ele>
        <time>2015-10-31T14:37:53Z</time>
      </trkpt>
      <trkpt lat="44.46439" lon="1.66768">
        <ele>258.8</ele>
        <time>2015-10-31T14:37:55Z</time>
      </trkpt>
      <trkpt lat="44.46443" lon="1.66768">
        <ele>258.1</ele>
        <time>2015-10-31T14:37:57Z</time>
      </trkpt>
      <trkpt lat="44.46446" lon="1.66768">
        <ele>257.2</ele>
        <time>2015-10-31T14:37:59Z</time>
      </trkpt>
      <trkpt lat="44.4645" lon="1.6677">
        <ele>255.7</ele>
        <time>2015-10-31T14:38:01Z</time>
      </trkpt>
      <trkpt lat="44.46453" lon="1.66772">
        <ele>254.6</ele>
        <time>2015-10-31T14:38:02Z</time>
      </trkpt>
      <trkpt lat="44.46457" lon="1.66773">
        <ele>253.1</ele>
        <time>2015-10-31T14:38:04Z</time>
      </trkpt>
      <trkpt lat="44.46461" lon="1.66774">
        <ele>252.1</ele>
        <time>2015-10-31T14:38:06Z</time>
      </trkpt>
      <trkpt lat="44.46465" lon="1.66773">
        <ele>251.7</ele>
        <time>2015-10-31T14:38:08Z</time>
      </trkpt>
      <trkpt lat="44.46469" lon="1.6677">
        <ele>251.7</ele>
        <time>2015-10-31T14:38:10Z</time>
      </trkpt>
      <trkpt lat="44.46473" lon="1.66767">
        <ele>251.9</ele>
        <time>2015-10-31T14:38:12Z</time>
      </trkpt>
      <trkpt lat="44.46477" lon="1.66764">
        <ele>252.4</ele>
        <time>2015-10-31T14:38:14Z</time>
      </trkpt>
      <trkpt lat="44.4648" lon="1.6676">
        <ele>253.3</ele>
        <time>2015-10-31T14:38:16Z</time>
      </trkpt>
      <trkpt lat="44.46482" lon="1.66755">
        <ele>254.4</ele>
        <time>2015-10-31T14:38:18Z</time>
      </trkpt>
      <trkpt lat="44.46485" lon="1.6675">
        <ele>255.7</ele>
        <time>2015-10-31T14:38:20Z</time>
      </trkpt>
      <trkpt lat="44.46486" lon="1.66746">
        <ele>256.9</ele>
        <time>2015-10-31T14:38:22Z</time>
      </trkpt>
      <trkpt lat="44.46487" lon="1.6674">
        <ele>258.8</ele>
        <time>2015-10-31T14:38:24Z</time>
      </trkpt>
      <trkpt lat="44.46489" lon="1.66734">
        <ele>260.5</ele>
        <time>2015-10-31T14:38:26Z</time>
      </trkpt>
      <trkpt lat="44.46489" lon="1.66728">
        <ele>262.5</ele>
        <time>2015-10-31T14:38:28Z</time>
      </trkpt>
      <trkpt lat="44.4649" lon="1.66722">
        <ele>264.1</ele>
        <time>2015-10-31T14:38:30Z</time>
      </trkpt>
      <trkpt lat="44.46491" lon="1.66717">
        <ele>265.7</ele>
        <time>2015-10-31T14:38:32Z</time>
      </trkpt>
      <trkpt lat="44.46492" lon="1.66712">
        <ele>267.2</ele>
        <time>2015-10-31T14:38:34Z</time>
      </trkpt>
      <trkpt lat="44.46496" lon="1.6671">
        <ele>267</ele>
        <time>2015-10-31T14:38:36Z</time>
      </trkpt>
      <trkpt lat="44.465" lon="1.66708">
        <ele>266.8</ele>
        <time>2015-10-31T14:38:38Z</time>
      </trkpt>
      <trkpt lat="44.46501" lon="1.66703">
        <ele>267.7</ele>
        <time>2015-10-31T14:38:40Z</time>
      </trkpt>
      <trkpt lat="44.46501" lon="1.66698">
        <ele>269.2</ele>
        <time>2015-10-31T14:38:42Z</time>
      </trkpt>
      <trkpt lat="44.46502" lon="1.66693">
        <ele>270.3</ele>
        <time>2015-10-31T14:38:44Z</time>
      </trkpt>
      <trkpt lat="44.46506" lon="1.6669">
        <ele>270.4</ele>
        <time>2015-10-31T14:38:46Z</time>
      </trkpt>
      <trkpt lat="44.46509" lon="1.66684">
        <ele>271.4</ele>
        <time>2015-10-31T14:38:48Z</time>
      </trkpt>
      <trkpt lat="44.4651" lon="1.6668">
        <ele>272.2</ele>
        <time>2015-10-31T14:38:49Z</time>
      </trkpt>
      <trkpt lat="44.46511" lon="1.66674">
        <ele>273.9</ele>
        <time>2015-10-31T14:38:51Z</time>
      </trkpt>
      <trkpt lat="44.46511" lon="1.66668">
        <ele>275.7</ele>
        <time>2015-10-31T14:38:53Z</time>
      </trkpt>
      <trkpt lat="44.4651" lon="1.66662">
        <ele>277.7</ele>
        <time>2015-10-31T14:38:55Z</time>
      </trkpt>
      <trkpt lat="44.46512" lon="1.66659">
        <ele>278.3</ele>
        <time>2015-10-31T14:38:57Z</time>
      </trkpt>
      <trkpt lat="44.46514" lon="1.66654">
        <ele>279.4</ele>
        <time>2015-10-31T14:38:59Z</time>
      </trkpt>
      <trkpt lat="44.46516" lon="1.66649">
        <ele>280.5</ele>
        <time>2015-10-31T14:39:01Z</time>
      </trkpt>
      <trkpt lat="44.46517" lon="1.66644">
        <ele>281.7</ele>
        <time>2015-10-31T14:39:03Z</time>
      </trkpt>
      <trkpt lat="44.46516" lon="1.66638">
        <ele>283.6</ele>
        <time>2015-10-31T14:39:05Z</time>
      </trkpt>
      <trkpt lat="44.46516" lon="1.66632">
        <ele>285.3</ele>
        <time>2015-10-31T14:39:07Z</time>
      </trkpt>
      <trkpt lat="44.46518" lon="1.66627">
        <ele>286.7</ele>
        <time>2015-10-31T14:39:09Z</time>
      </trkpt>
      <trkpt lat="44.46519" lon="1.66623">
        <ele>287.3</ele>
        <time>2015-10-31T14:39:10Z</time>
      </trkpt>
      <trkpt lat="44.46522" lon="1.66618">
        <ele>287.4</ele>
        <time>2015-10-31T14:39:12Z</time>
      </trkpt>
      <trkpt lat="44.46524" lon="1.66615">
        <ele>287.3</ele>
        <time>2015-10-31T14:39:14Z</time>
      </trkpt>
      <trkpt lat="44.46528" lon="1.66611">
        <ele>287.1</ele>
        <time>2015-10-31T14:39:17Z</time>
      </trkpt>
      <trkpt lat="44.46532" lon="1.66612">
        <ele>286.2</ele>
        <time>2015-10-31T14:39:20Z</time>
      </trkpt>
      <trkpt lat="44.46536" lon="1.66611">
        <ele>285.5</ele>
        <time>2015-10-31T14:39:22Z</time>
      </trkpt>
      <trkpt lat="44.46541" lon="1.6661">
        <ele>284.8</ele>
        <time>2015-10-31T14:39:24Z</time>
      </trkpt>
      <trkpt lat="44.46546" lon="1.66607">
        <ele>283.6</ele>
        <time>2015-10-31T14:39:26Z</time>
      </trkpt>
      <trkpt lat="44.46548" lon="1.66604">
        <ele>283.1</ele>
        <time>2015-10-31T14:39:27Z</time>
      </trkpt>
      <trkpt lat="44.46551" lon="1.66601">
        <ele>282.7</ele>
        <time>2015-10-31T14:39:28Z</time>
      </trkpt>
      <trkpt lat="44.46553" lon="1.66598">
        <ele>282.4</ele>
        <time>2015-10-31T14:39:29Z</time>
      </trkpt>
      <trkpt lat="44.46556" lon="1.66594">
        <ele>281.8</ele>
        <time>2015-10-31T14:39:31Z</time>
      </trkpt>
      <trkpt lat="44.46557" lon="1.6659">
        <ele>281.9</ele>
        <time>2015-10-31T14:39:33Z</time>
      </trkpt>
      <trkpt lat="44.46559" lon="1.66586">
        <ele>281.9</ele>
        <time>2015-10-31T14:39:35Z</time>
      </trkpt>
      <trkpt lat="44.46562" lon="1.66584">
        <ele>281.3</ele>
        <time>2015-10-31T14:39:37Z</time>
      </trkpt>
      <trkpt lat="44.46565" lon="1.6658">
        <ele>280.9</ele>
        <time>2015-10-31T14:39:39Z</time>
      </trkpt>
      <trkpt lat="44.46569" lon="1.66576">
        <ele>280.2</ele>
        <time>2015-10-31T14:39:41Z</time>
      </trkpt>
      <trkpt lat="44.46572" lon="1.66574">
        <ele>279.5</ele>
        <time>2015-10-31T14:39:43Z</time>
      </trkpt>
      <trkpt lat="44.46576" lon="1.66573">
        <ele>278.4</ele>
        <time>2015-10-31T14:39:45Z</time>
      </trkpt>
      <trkpt lat="44.4658" lon="1.66569">
        <ele>277.9</ele>
        <time>2015-10-31T14:39:47Z</time>
      </trkpt>
      <trkpt lat="44.46584" lon="1.66565">
        <ele>277.5</ele>
        <time>2015-10-31T14:39:49Z</time>
      </trkpt>
      <trkpt lat="44.46588" lon="1.66562">
        <ele>276.6</ele>
        <time>2015-10-31T14:39:51Z</time>
      </trkpt>
      <trkpt lat="44.46593" lon="1.6656">
        <ele>275.6</ele>
        <time>2015-10-31T14:39:53Z</time>
      </trkpt>
      <trkpt lat="44.46597" lon="1.6656">
        <ele>274.4</ele>
        <time>2015-10-31T14:39:55Z</time>
      </trkpt>
      <trkpt lat="44.466" lon="1.66557">
        <ele>274</ele>
        <time>2015-10-31T14:39:57Z</time>
      </trkpt>
      <trkpt lat="44.46603" lon="1.66555">
        <ele>273.7</ele>
        <time>2015-10-31T14:39:59Z</time>
      </trkpt>
      <trkpt lat="44.46607" lon="1.66556">
        <ele>272.3</ele>
        <time>2015-10-31T14:40:01Z</time>
      </trkpt>
      <trkpt lat="44.4661" lon="1.66556">
        <ele>271.3</ele>
        <time>2015-10-31T14:40:03Z</time>
      </trkpt>
      <trkpt lat="44.46614" lon="1.66555">
        <ele>270.4</ele>
        <time>2015-10-31T14:40:05Z</time>
      </trkpt>
      <trkpt lat="44.46618" lon="1.66558">
        <ele>268.8</ele>
        <time>2015-10-31T14:40:07Z</time>
      </trkpt>
      <trkpt lat="44.46619" lon="1.66563">
        <ele>267.6</ele>
        <time>2015-10-31T14:40:10Z</time>
      </trkpt>
      <trkpt lat="44.46624" lon="1.66573">
        <ele>264.2</ele>
        <time>2015-10-31T14:42:06Z</time>
      </trkpt>
      <trkpt lat="44.46627" lon="1.66573">
        <ele>263.6</ele>
        <time>2015-10-31T14:42:16Z</time>
      </trkpt>
      <trkpt lat="44.46629" lon="1.6657">
        <ele>263.6</ele>
        <time>2015-10-31T14:42:21Z</time>
      </trkpt>
      <trkpt lat="44.46633" lon="1.6657">
        <ele>263</ele>
        <time>2015-10-31T14:42:30Z</time>
      </trkpt>
      <trkpt lat="44.46635" lon="1.66567">
        <ele>263.1</ele>
        <time>2015-10-31T14:42:34Z</time>
      </trkpt>
      <trkpt lat="44.46636" lon="1.66562">
        <ele>263.7</ele>
        <time>2015-10-31T14:42:37Z</time>
      </trkpt>
      <trkpt lat="44.46636" lon="1.66558">
        <ele>264.4</ele>
        <time>2015-10-31T14:42:40Z</time>
      </trkpt>
      <trkpt lat="44.46637" lon="1.66552">
        <ele>265.2</ele>
        <time>2015-10-31T14:42:43Z</time>
      </trkpt>
      <trkpt lat="44.46638" lon="1.66544">
        <ele>266.5</ele>
        <time>2015-10-31T14:42:45Z</time>
      </trkpt>
      <trkpt lat="44.46639" lon="1.66539">
        <ele>266.6</ele>
        <time>2015-10-31T14:42:46Z</time>
      </trkpt>
      <trkpt lat="44.46639" lon="1.66534">
        <ele>266.2</ele>
        <time>2015-10-31T14:42:47Z</time>
      </trkpt>
      <trkpt lat="44.46639" lon="1.6653">
        <ele>266</ele>
        <time>2015-10-31T14:42:48Z</time>
      </trkpt>
      <trkpt lat="44.46638" lon="1.66526">
        <ele>265.9</ele>
        <time>2015-10-31T14:42:49Z</time>
      </trkpt>
      <trkpt lat="44.46637" lon="1.66522">
        <ele>265.8</ele>
        <time>2015-10-31T14:42:50Z</time>
      </trkpt>
      <trkpt lat="44.46636" lon="1.66517">
        <ele>265.7</ele>
        <time>2015-10-31T14:42:51Z</time>
      </trkpt>
      <trkpt lat="44.46635" lon="1.66512">
        <ele>265.5</ele>
        <time>2015-10-31T14:42:52Z</time>
      </trkpt>
      <trkpt lat="44.46635" lon="1.66507">
        <ele>265.2</ele>
        <time>2015-10-31T14:42:53Z</time>
      </trkpt>
      <trkpt lat="44.46634" lon="1.66503">
        <ele>265.2</ele>
        <time>2015-10-31T14:42:54Z</time>
      </trkpt>
      <trkpt lat="44.46633" lon="1.66499">
        <ele>265.2</ele>
        <time>2015-10-31T14:42:55Z</time>
      </trkpt>
      <trkpt lat="44.46632" lon="1.66494">
        <ele>265.1</ele>
        <time>2015-10-31T14:42:56Z</time>
      </trkpt>
      <trkpt lat="44.46629" lon="1.66488">
        <ele>265.2</ele>
        <time>2015-10-31T14:42:57Z</time>
      </trkpt>
      <trkpt lat="44.46628" lon="1.66484">
        <ele>265.2</ele>
        <time>2015-10-31T14:42:58Z</time>
      </trkpt>
      <trkpt lat="44.46628" lon="1.66468">
        <ele>264.1</ele>
        <time>2015-10-31T14:42:59Z</time>
      </trkpt>
      <trkpt lat="44.46626" lon="1.66464">
        <ele>264.2</ele>
        <time>2015-10-31T14:43:00Z</time>
      </trkpt>
      <trkpt lat="44.46625" lon="1.66458">
        <ele>263.9</ele>
        <time>2015-10-31T14:43:01Z</time>
      </trkpt>
      <trkpt lat="44.46625" lon="1.66449">
        <ele>264.7</ele>
        <time>2015-10-31T14:43:02Z</time>
      </trkpt>
      <trkpt lat="44.46624" lon="1.66443">
        <ele>265.3</ele>
        <time>2015-10-31T14:43:03Z</time>
      </trkpt>
      <trkpt lat="44.46619" lon="1.66434">
        <ele>267</ele>
        <time>2015-10-31T14:43:04Z</time>
      </trkpt>
      <trkpt lat="44.46617" lon="1.66423">
        <ele>268</ele>
        <time>2015-10-31T14:43:05Z</time>
      </trkpt>
      <trkpt lat="44.46615" lon="1.66415">
        <ele>268.9</ele>
        <time>2015-10-31T14:43:06Z</time>
      </trkpt>
      <trkpt lat="44.46608" lon="1.66406">
        <ele>270.7</ele>
        <time>2015-10-31T14:43:07Z</time>
      </trkpt>
      <trkpt lat="44.46604" lon="1.66399">
        <ele>271.7</ele>
        <time>2015-10-31T14:43:08Z</time>
      </trkpt>
      <trkpt lat="44.46601" lon="1.66392">
        <ele>272.8</ele>
        <time>2015-10-31T14:43:09Z</time>
      </trkpt>
      <trkpt lat="44.46597" lon="1.66386">
        <ele>273.6</ele>
        <time>2015-10-31T14:43:10Z</time>
      </trkpt>
      <trkpt lat="44.46592" lon="1.66381">
        <ele>274.8</ele>
        <time>2015-10-31T14:43:11Z</time>
      </trkpt>
      <trkpt lat="44.46591" lon="1.66374">
        <ele>275.5</ele>
        <time>2015-10-31T14:43:12Z</time>
      </trkpt>
      <trkpt lat="44.46592" lon="1.66368">
        <ele>276.9</ele>
        <time>2015-10-31T14:43:13Z</time>
      </trkpt>
      <trkpt lat="44.46593" lon="1.66363">
        <ele>278.2</ele>
        <time>2015-10-31T14:43:14Z</time>
      </trkpt>
      <trkpt lat="44.46598" lon="1.66359">
        <ele>278.3</ele>
        <time>2015-10-31T14:43:15Z</time>
      </trkpt>
      <trkpt lat="44.46607" lon="1.66356">
        <ele>277.4</ele>
        <time>2015-10-31T14:43:16Z</time>
      </trkpt>
      <trkpt lat="44.46614" lon="1.66355">
        <ele>276.5</ele>
        <time>2015-10-31T14:43:17Z</time>
      </trkpt>
      <trkpt lat="44.46621" lon="1.6636">
        <ele>274</ele>
        <time>2015-10-31T14:43:18Z</time>
      </trkpt>
      <trkpt lat="44.46627" lon="1.66363">
        <ele>272.3</ele>
        <time>2015-10-31T14:43:19Z</time>
      </trkpt>
      <trkpt lat="44.46635" lon="1.66364">
        <ele>270.2</ele>
        <time>2015-10-31T14:43:20Z</time>
      </trkpt>
      <trkpt lat="44.46644" lon="1.66369">
        <ele>267.3</ele>
        <time>2015-10-31T14:43:21Z</time>
      </trkpt>
      <trkpt lat="44.46652" lon="1.66371">
        <ele>265.1</ele>
        <time>2015-10-31T14:43:22Z</time>
      </trkpt>
      <trkpt lat="44.4666" lon="1.6637">
        <ele>263.5</ele>
        <time>2015-10-31T14:43:23Z</time>
      </trkpt>
      <trkpt lat="44.46669" lon="1.66369">
        <ele>261.6</ele>
        <time>2015-10-31T14:43:24Z</time>
      </trkpt>
      <trkpt lat="44.46675" lon="1.66369">
        <ele>260.2</ele>
        <time>2015-10-31T14:43:25Z</time>
      </trkpt>
      <trkpt lat="44.46682" lon="1.66364">
        <ele>259.4</ele>
        <time>2015-10-31T14:43:26Z</time>
      </trkpt>
      <trkpt lat="44.46688" lon="1.66354">
        <ele>259.3</ele>
        <time>2015-10-31T14:43:27Z</time>
      </trkpt>
      <trkpt lat="44.46692" lon="1.66345">
        <ele>259.6</ele>
        <time>2015-10-31T14:43:28Z</time>
      </trkpt>
      <trkpt lat="44.46694" lon="1.66331">
        <ele>260.8</ele>
        <time>2015-10-31T14:43:29Z</time>
      </trkpt>
      <trkpt lat="44.46696" lon="1.66319">
        <ele>261.7</ele>
        <time>2015-10-31T14:43:30Z</time>
      </trkpt>
      <trkpt lat="44.46698" lon="1.66309">
        <ele>262.4</ele>
        <time>2015-10-31T14:43:31Z</time>
      </trkpt>
      <trkpt lat="44.467" lon="1.66298">
        <ele>263.1</ele>
        <time>2015-10-31T14:43:32Z</time>
      </trkpt>
      <trkpt lat="44.46705" lon="1.66288">
        <ele>262.3</ele>
        <time>2015-10-31T14:43:33Z</time>
      </trkpt>
      <trkpt lat="44.46706" lon="1.66275">
        <ele>262.3</ele>
        <time>2015-10-31T14:43:34Z</time>
      </trkpt>
      <trkpt lat="44.46707" lon="1.66265">
        <ele>262.3</ele>
        <time>2015-10-31T14:43:35Z</time>
      </trkpt>
      <trkpt lat="44.46707" lon="1.66254">
        <ele>262.8</ele>
        <time>2015-10-31T14:43:36Z</time>
      </trkpt>
      <trkpt lat="44.46707" lon="1.6624">
        <ele>263.5</ele>
        <time>2015-10-31T14:43:37Z</time>
      </trkpt>
      <trkpt lat="44.46708" lon="1.6622">
        <ele>263.6</ele>
        <time>2015-10-31T14:43:38Z</time>
      </trkpt>
      <trkpt lat="44.4671" lon="1.66207">
        <ele>263.4</ele>
        <time>2015-10-31T14:43:39Z</time>
      </trkpt>
      <trkpt lat="44.46715" lon="1.66196">
        <ele>261</ele>
        <time>2015-10-31T14:43:40Z</time>
      </trkpt>
      <trkpt lat="44.46717" lon="1.66184">
        <ele>260</ele>
        <time>2015-10-31T14:43:41Z</time>
      </trkpt>
      <trkpt lat="44.46713" lon="1.66179">
        <ele>261.6</ele>
        <time>2015-10-31T14:43:42Z</time>
      </trkpt>
      <trkpt lat="44.46711" lon="1.66168">
        <ele>262.3</ele>
        <time>2015-10-31T14:43:43Z</time>
      </trkpt>
      <trkpt lat="44.46712" lon="1.66158">
        <ele>261.6</ele>
        <time>2015-10-31T14:43:44Z</time>
      </trkpt>
      <trkpt lat="44.46713" lon="1.66148">
        <ele>261.3</ele>
        <time>2015-10-31T14:43:45Z</time>
      </trkpt>
      <trkpt lat="44.46714" lon="1.66132">
        <ele>260.7</ele>
        <time>2015-10-31T14:43:46Z</time>
      </trkpt>
      <trkpt lat="44.46714" lon="1.66121">
        <ele>260.4</ele>
        <time>2015-10-31T14:43:47Z</time>
      </trkpt>
      <trkpt lat="44.46714" lon="1.6611">
        <ele>260</ele>
        <time>2015-10-31T14:43:48Z</time>
      </trkpt>
      <trkpt lat="44.46714" lon="1.66099">
        <ele>259.1</ele>
        <time>2015-10-31T14:43:49Z</time>
      </trkpt>
      <trkpt lat="44.46713" lon="1.66088">
        <ele>259</ele>
        <time>2015-10-31T14:43:50Z</time>
      </trkpt>
      <trkpt lat="44.46714" lon="1.66079">
        <ele>258.1</ele>
        <time>2015-10-31T14:43:51Z</time>
      </trkpt>
      <trkpt lat="44.46713" lon="1.66067">
        <ele>257.9</ele>
        <time>2015-10-31T14:43:52Z</time>
      </trkpt>
      <trkpt lat="44.46713" lon="1.66057">
        <ele>257.2</ele>
        <time>2015-10-31T14:43:53Z</time>
      </trkpt>
      <trkpt lat="44.46712" lon="1.66047">
        <ele>257</ele>
        <time>2015-10-31T14:43:54Z</time>
      </trkpt>
      <trkpt lat="44.46711" lon="1.66038">
        <ele>256.5</ele>
        <time>2015-10-31T14:43:55Z</time>
      </trkpt>
      <trkpt lat="44.4671" lon="1.66028">
        <ele>255.5</ele>
        <time>2015-10-31T14:43:56Z</time>
      </trkpt>
      <trkpt lat="44.46709" lon="1.66018">
        <ele>254.5</ele>
        <time>2015-10-31T14:43:57Z</time>
      </trkpt>
      <trkpt lat="44.4671" lon="1.66006">
        <ele>252.4</ele>
        <time>2015-10-31T14:43:58Z</time>
      </trkpt>
      <trkpt lat="44.4671" lon="1.65997">
        <ele>251.2</ele>
        <time>2015-10-31T14:43:59Z</time>
      </trkpt>
      <trkpt lat="44.46709" lon="1.65989">
        <ele>250.3</ele>
        <time>2015-10-31T14:44:00Z</time>
      </trkpt>
      <trkpt lat="44.46707" lon="1.65979">
        <ele>249.4</ele>
        <time>2015-10-31T14:44:01Z</time>
      </trkpt>
      <trkpt lat="44.46705" lon="1.65968">
        <ele>248.4</ele>
        <time>2015-10-31T14:44:02Z</time>
      </trkpt>
      <trkpt lat="44.46702" lon="1.65962">
        <ele>248.6</ele>
        <time>2015-10-31T14:44:03Z</time>
      </trkpt>
      <trkpt lat="44.467" lon="1.65954">
        <ele>248.7</ele>
        <time>2015-10-31T14:44:04Z</time>
      </trkpt>
      <trkpt lat="44.46697" lon="1.65948">
        <ele>249.2</ele>
        <time>2015-10-31T14:44:05Z</time>
      </trkpt>
      <trkpt lat="44.46694" lon="1.6594">
        <ele>250</ele>
        <time>2015-10-31T14:44:06Z</time>
      </trkpt>
      <trkpt lat="44.46689" lon="1.65933">
        <ele>251.2</ele>
        <time>2015-10-31T14:44:07Z</time>
      </trkpt>
      <trkpt lat="44.46684" lon="1.65927">
        <ele>252.2</ele>
        <time>2015-10-31T14:44:08Z</time>
      </trkpt>
      <trkpt lat="44.46682" lon="1.65919">
        <ele>252.5</ele>
        <time>2015-10-31T14:44:09Z</time>
      </trkpt>
      <trkpt lat="44.46677" lon="1.65912">
        <ele>253.4</ele>
        <time>2015-10-31T14:44:10Z</time>
      </trkpt>
      <trkpt lat="44.46675" lon="1.65906">
        <ele>253.6</ele>
        <time>2015-10-31T14:44:11Z</time>
      </trkpt>
      <trkpt lat="44.46669" lon="1.659">
        <ele>254.7</ele>
        <time>2015-10-31T14:44:12Z</time>
      </trkpt>
      <trkpt lat="44.46665" lon="1.65894">
        <ele>255.3</ele>
        <time>2015-10-31T14:44:13Z</time>
      </trkpt>
      <trkpt lat="44.46662" lon="1.65889">
        <ele>255.9</ele>
        <time>2015-10-31T14:44:14Z</time>
      </trkpt>
      <trkpt lat="44.46658" lon="1.65883">
        <ele>256.3</ele>
        <time>2015-10-31T14:44:15Z</time>
      </trkpt>
      <trkpt lat="44.46654" lon="1.65878">
        <ele>257</ele>
        <time>2015-10-31T14:44:16Z</time>
      </trkpt>
      <trkpt lat="44.46649" lon="1.65873">
        <ele>258.3</ele>
        <time>2015-10-31T14:44:17Z</time>
      </trkpt>
      <trkpt lat="44.46651" lon="1.65868">
        <ele>258.8</ele>
        <time>2015-10-31T14:44:18Z</time>
      </trkpt>
      <trkpt lat="44.46646" lon="1.6586">
        <ele>261.4</ele>
        <time>2015-10-31T14:44:19Z</time>
      </trkpt>
      <trkpt lat="44.46641" lon="1.65852">
        <ele>264.3</ele>
        <time>2015-10-31T14:44:20Z</time>
      </trkpt>
      <trkpt lat="44.46636" lon="1.65844">
        <ele>266.9</ele>
        <time>2015-10-31T14:44:21Z</time>
      </trkpt>
      <trkpt lat="44.46632" lon="1.6584">
        <ele>268.7</ele>
        <time>2015-10-31T14:44:22Z</time>
      </trkpt>
      <trkpt lat="44.46628" lon="1.65835">
        <ele>270.5</ele>
        <time>2015-10-31T14:44:23Z</time>
      </trkpt>
      <trkpt lat="44.46628" lon="1.65828">
        <ele>271.7</ele>
        <time>2015-10-31T14:44:24Z</time>
      </trkpt>
      <trkpt lat="44.46626" lon="1.65821">
        <ele>273.4</ele>
        <time>2015-10-31T14:44:25Z</time>
      </trkpt>
      <trkpt lat="44.46627" lon="1.65815">
        <ele>274.4</ele>
        <time>2015-10-31T14:44:26Z</time>
      </trkpt>
      <trkpt lat="44.4663" lon="1.65808">
        <ele>275</ele>
        <time>2015-10-31T14:44:27Z</time>
      </trkpt>
      <trkpt lat="44.46632" lon="1.65803">
        <ele>275.5</ele>
        <time>2015-10-31T14:44:28Z</time>
      </trkpt>
      <trkpt lat="44.46638" lon="1.65798">
        <ele>275</ele>
        <time>2015-10-31T14:44:29Z</time>
      </trkpt>
      <trkpt lat="44.46643" lon="1.65795">
        <ele>274.4</ele>
        <time>2015-10-31T14:44:30Z</time>
      </trkpt>
      <trkpt lat="44.46648" lon="1.65792">
        <ele>273.9</ele>
        <time>2015-10-31T14:44:31Z</time>
      </trkpt>
      <trkpt lat="44.46654" lon="1.65791">
        <ele>273</ele>
        <time>2015-10-31T14:44:32Z</time>
      </trkpt>
      <trkpt lat="44.46659" lon="1.6579">
        <ele>272.3</ele>
        <time>2015-10-31T14:44:33Z</time>
      </trkpt>
      <trkpt lat="44.46664" lon="1.65787">
        <ele>272.1</ele>
        <time>2015-10-31T14:44:34Z</time>
      </trkpt>
      <trkpt lat="44.46668" lon="1.65786">
        <ele>271.7</ele>
        <time>2015-10-31T14:44:35Z</time>
      </trkpt>
      <trkpt lat="44.46673" lon="1.65783">
        <ele>271.8</ele>
        <time>2015-10-31T14:44:36Z</time>
      </trkpt>
      <trkpt lat="44.46676" lon="1.65781">
        <ele>271.7</ele>
        <time>2015-10-31T14:44:37Z</time>
      </trkpt>
      <trkpt lat="44.46679" lon="1.65778">
        <ele>272</ele>
        <time>2015-10-31T14:44:38Z</time>
      </trkpt>
      <trkpt lat="44.46683" lon="1.65774">
        <ele>272.2</ele>
        <time>2015-10-31T14:44:39Z</time>
      </trkpt>
      <trkpt lat="44.46687" lon="1.65772">
        <ele>272.2</ele>
        <time>2015-10-31T14:44:40Z</time>
      </trkpt>
      <trkpt lat="44.46689" lon="1.65769">
        <ele>272.6</ele>
        <time>2015-10-31T14:44:41Z</time>
      </trkpt>
      <trkpt lat="44.46693" lon="1.65767">
        <ele>272.7</ele>
        <time>2015-10-31T14:44:42Z</time>
      </trkpt>
      <trkpt lat="44.46697" lon="1.65763">
        <ele>272.8</ele>
        <time>2015-10-31T14:44:43Z</time>
      </trkpt>
      <trkpt lat="44.467" lon="1.65761">
        <ele>272.9</ele>
        <time>2015-10-31T14:44:44Z</time>
      </trkpt>
      <trkpt lat="44.46705" lon="1.65759">
        <ele>272.4</ele>
        <time>2015-10-31T14:44:45Z</time>
      </trkpt>
      <trkpt lat="44.46709" lon="1.65756">
        <ele>272.5</ele>
        <time>2015-10-31T14:44:46Z</time>
      </trkpt>
      <trkpt lat="44.46713" lon="1.65752">
        <ele>272.4</ele>
        <time>2015-10-31T14:44:47Z</time>
      </trkpt>
      <trkpt lat="44.46718" lon="1.65749">
        <ele>272.2</ele>
        <time>2015-10-31T14:44:48Z</time>
      </trkpt>
      <trkpt lat="44.46721" lon="1.65747">
        <ele>271.7</ele>
        <time>2015-10-31T14:44:49Z</time>
      </trkpt>
      <trkpt lat="44.46724" lon="1.65744">
        <ele>272.1</ele>
        <time>2015-10-31T14:44:50Z</time>
      </trkpt>
      <trkpt lat="44.46728" lon="1.65738">
        <ele>272.6</ele>
        <time>2015-10-31T14:44:51Z</time>
      </trkpt>
      <trkpt lat="44.46732" lon="1.65735">
        <ele>272.8</ele>
        <time>2015-10-31T14:44:52Z</time>
      </trkpt>
      <trkpt lat="44.46733" lon="1.65731">
        <ele>273.5</ele>
        <time>2015-10-31T14:44:53Z</time>
      </trkpt>
      <trkpt lat="44.46738" lon="1.65729">
        <ele>273</ele>
        <time>2015-10-31T14:44:54Z</time>
      </trkpt>
      <trkpt lat="44.4674" lon="1.65725">
        <ele>273.4</ele>
        <time>2015-10-31T14:44:55Z</time>
      </trkpt>
      <trkpt lat="44.46743" lon="1.65721">
        <ele>273.9</ele>
        <time>2015-10-31T14:44:56Z</time>
      </trkpt>
      <trkpt lat="44.46746" lon="1.65718">
        <ele>273.7</ele>
        <time>2015-10-31T14:44:57Z</time>
      </trkpt>
      <trkpt lat="44.46749" lon="1.65716">
        <ele>273.7</ele>
        <time>2015-10-31T14:44:58Z</time>
      </trkpt>
      <trkpt lat="44.46753" lon="1.65713">
        <ele>273.4</ele>
        <time>2015-10-31T14:44:59Z</time>
      </trkpt>
      <trkpt lat="44.46755" lon="1.65708">
        <ele>274.2</ele>
        <time>2015-10-31T14:45:00Z</time>
      </trkpt>
      <trkpt lat="44.46757" lon="1.65704">
        <ele>274.1</ele>
        <time>2015-10-31T14:45:01Z</time>
      </trkpt>
      <trkpt lat="44.46764" lon="1.65701">
        <ele>272.6</ele>
        <time>2015-10-31T14:45:02Z</time>
      </trkpt>
      <trkpt lat="44.46767" lon="1.65696">
        <ele>272.3</ele>
        <time>2015-10-31T14:45:03Z</time>
      </trkpt>
      <trkpt lat="44.46771" lon="1.65692">
        <ele>271.7</ele>
        <time>2015-10-31T14:45:04Z</time>
      </trkpt>
      <trkpt lat="44.46775" lon="1.65686">
        <ele>271.6</ele>
        <time>2015-10-31T14:45:05Z</time>
      </trkpt>
      <trkpt lat="44.46777" lon="1.65679">
        <ele>272</ele>
        <time>2015-10-31T14:45:06Z</time>
      </trkpt>
      <trkpt lat="44.46779" lon="1.65672">
        <ele>272.4</ele>
        <time>2015-10-31T14:45:07Z</time>
      </trkpt>
      <trkpt lat="44.46782" lon="1.65666">
        <ele>272.5</ele>
        <time>2015-10-31T14:45:08Z</time>
      </trkpt>
      <trkpt lat="44.46784" lon="1.65659">
        <ele>272.8</ele>
        <time>2015-10-31T14:45:09Z</time>
      </trkpt>
      <trkpt lat="44.46788" lon="1.65653">
        <ele>272.4</ele>
        <time>2015-10-31T14:45:10Z</time>
      </trkpt>
      <trkpt lat="44.4679" lon="1.65646">
        <ele>272.6</ele>
        <time>2015-10-31T14:45:11Z</time>
      </trkpt>
      <trkpt lat="44.46791" lon="1.65639">
        <ele>273.3</ele>
        <time>2015-10-31T14:45:12Z</time>
      </trkpt>
      <trkpt lat="44.46793" lon="1.65631">
        <ele>273.3</ele>
        <time>2015-10-31T14:45:13Z</time>
      </trkpt>
      <trkpt lat="44.46796" lon="1.65624">
        <ele>272.8</ele>
        <time>2015-10-31T14:45:14Z</time>
      </trkpt>
      <trkpt lat="44.46799" lon="1.65617">
        <ele>272.1</ele>
        <time>2015-10-31T14:45:15Z</time>
      </trkpt>
      <trkpt lat="44.46802" lon="1.65609">
        <ele>271.1</ele>
        <time>2015-10-31T14:45:16Z</time>
      </trkpt>
      <trkpt lat="44.46805" lon="1.65601">
        <ele>270</ele>
        <time>2015-10-31T14:45:17Z</time>
      </trkpt>
      <trkpt lat="44.46807" lon="1.65594">
        <ele>269.3</ele>
        <time>2015-10-31T14:45:18Z</time>
      </trkpt>
      <trkpt lat="44.46808" lon="1.65583">
        <ele>269.4</ele>
        <time>2015-10-31T14:45:19Z</time>
      </trkpt>
      <trkpt lat="44.46808" lon="1.65577">
        <ele>269.8</ele>
        <time>2015-10-31T14:45:20Z</time>
      </trkpt>
      <trkpt lat="44.46809" lon="1.65568">
        <ele>269.6</ele>
        <time>2015-10-31T14:45:21Z</time>
      </trkpt>
      <trkpt lat="44.46812" lon="1.65562">
        <ele>268.9</ele>
        <time>2015-10-31T14:45:22Z</time>
      </trkpt>
      <trkpt lat="44.46813" lon="1.65554">
        <ele>268.6</ele>
        <time>2015-10-31T14:45:23Z</time>
      </trkpt>
      <trkpt lat="44.46817" lon="1.65546">
        <ele>267.1</ele>
        <time>2015-10-31T14:45:24Z</time>
      </trkpt>
      <trkpt lat="44.46819" lon="1.65538">
        <ele>266.6</ele>
        <time>2015-10-31T14:45:25Z</time>
      </trkpt>
      <trkpt lat="44.4682" lon="1.65531">
        <ele>266.1</ele>
        <time>2015-10-31T14:45:26Z</time>
      </trkpt>
      <trkpt lat="44.46821" lon="1.65523">
        <ele>265.7</ele>
        <time>2015-10-31T14:45:27Z</time>
      </trkpt>
      <trkpt lat="44.46822" lon="1.65515">
        <ele>265.6</ele>
        <time>2015-10-31T14:45:28Z</time>
      </trkpt>
      <trkpt lat="44.46824" lon="1.65508">
        <ele>264.7</ele>
        <time>2015-10-31T14:45:29Z</time>
      </trkpt>
      <trkpt lat="44.46826" lon="1.65499">
        <ele>264</ele>
        <time>2015-10-31T14:45:30Z</time>
      </trkpt>
      <trkpt lat="44.46824" lon="1.65494">
        <ele>264.6</ele>
        <time>2015-10-31T14:45:31Z</time>
      </trkpt>
      <trkpt lat="44.46825" lon="1.65485">
        <ele>264.7</ele>
        <time>2015-10-31T14:45:32Z</time>
      </trkpt>
      <trkpt lat="44.46824" lon="1.65477">
        <ele>264.9</ele>
        <time>2015-10-31T14:45:33Z</time>
      </trkpt>
      <trkpt lat="44.46825" lon="1.65468">
        <ele>264.9</ele>
        <time>2015-10-31T14:45:34Z</time>
      </trkpt>
      <trkpt lat="44.46826" lon="1.65457">
        <ele>264.3</ele>
        <time>2015-10-31T14:45:35Z</time>
      </trkpt>
      <trkpt lat="44.46827" lon="1.6545">
        <ele>264.2</ele>
        <time>2015-10-31T14:45:36Z</time>
      </trkpt>
      <trkpt lat="44.46827" lon="1.65442">
        <ele>264.2</ele>
        <time>2015-10-31T14:45:37Z</time>
      </trkpt>
      <trkpt lat="44.46828" lon="1.65434">
        <ele>263.9</ele>
        <time>2015-10-31T14:45:38Z</time>
      </trkpt>
      <trkpt lat="44.46829" lon="1.65426">
        <ele>263.5</ele>
        <time>2015-10-31T14:45:39Z</time>
      </trkpt>
      <trkpt lat="44.46828" lon="1.65418">
        <ele>263.9</ele>
        <time>2015-10-31T14:45:40Z</time>
      </trkpt>
      <trkpt lat="44.46829" lon="1.65411">
        <ele>263.9</ele>
        <time>2015-10-31T14:45:41Z</time>
      </trkpt>
      <trkpt lat="44.4683" lon="1.65403">
        <ele>263.3</ele>
        <time>2015-10-31T14:45:42Z</time>
      </trkpt>
      <trkpt lat="44.46832" lon="1.65395">
        <ele>262.7</ele>
        <time>2015-10-31T14:45:43Z</time>
      </trkpt>
      <trkpt lat="44.46836" lon="1.65388">
        <ele>261.3</ele>
        <time>2015-10-31T14:45:44Z</time>
      </trkpt>
      <trkpt lat="44.46838" lon="1.65381">
        <ele>260.5</ele>
        <time>2015-10-31T14:45:45Z</time>
      </trkpt>
      <trkpt lat="44.46837" lon="1.65371">
        <ele>261</ele>
        <time>2015-10-31T14:45:46Z</time>
      </trkpt>
      <trkpt lat="44.46837" lon="1.65363">
        <ele>260.7</ele>
        <time>2015-10-31T14:45:47Z</time>
      </trkpt>
      <trkpt lat="44.46837" lon="1.65356">
        <ele>260.4</ele>
        <time>2015-10-31T14:45:48Z</time>
      </trkpt>
      <trkpt lat="44.46839" lon="1.65348">
        <ele>259</ele>
        <time>2015-10-31T14:45:49Z</time>
      </trkpt>
      <trkpt lat="44.46841" lon="1.6534">
        <ele>258.2</ele>
        <time>2015-10-31T14:45:50Z</time>
      </trkpt>
      <trkpt lat="44.46842" lon="1.65332">
        <ele>257.4</ele>
        <time>2015-10-31T14:45:51Z</time>
      </trkpt>
      <trkpt lat="44.46841" lon="1.65325">
        <ele>257.4</ele>
        <time>2015-10-31T14:45:52Z</time>
      </trkpt>
      <trkpt lat="44.46842" lon="1.65317">
        <ele>256.8</ele>
        <time>2015-10-31T14:45:53Z</time>
      </trkpt>
      <trkpt lat="44.46845" lon="1.65309">
        <ele>255.5</ele>
        <time>2015-10-31T14:45:54Z</time>
      </trkpt>
      <trkpt lat="44.46847" lon="1.65301">
        <ele>254.8</ele>
        <time>2015-10-31T14:45:55Z</time>
      </trkpt>
      <trkpt lat="44.46849" lon="1.65292">
        <ele>253.8</ele>
        <time>2015-10-31T14:45:56Z</time>
      </trkpt>
      <trkpt lat="44.46849" lon="1.65285">
        <ele>252.9</ele>
        <time>2015-10-31T14:45:57Z</time>
      </trkpt>
      <trkpt lat="44.46848" lon="1.65276">
        <ele>251.9</ele>
        <time>2015-10-31T14:45:58Z</time>
      </trkpt>
      <trkpt lat="44.46849" lon="1.65264">
        <ele>250</ele>
        <time>2015-10-31T14:45:59Z</time>
      </trkpt>
      <trkpt lat="44.46849" lon="1.65256">
        <ele>248.8</ele>
        <time>2015-10-31T14:46:00Z</time>
      </trkpt>
      <trkpt lat="44.46847" lon="1.65247">
        <ele>247.8</ele>
        <time>2015-10-31T14:46:01Z</time>
      </trkpt>
      <trkpt lat="44.46846" lon="1.65238">
        <ele>246.9</ele>
        <time>2015-10-31T14:46:02Z</time>
      </trkpt>
      <trkpt lat="44.46847" lon="1.65229">
        <ele>245.4</ele>
        <time>2015-10-31T14:46:03Z</time>
      </trkpt>
      <trkpt lat="44.46842" lon="1.65223">
        <ele>245.9</ele>
        <time>2015-10-31T14:46:04Z</time>
      </trkpt>
      <trkpt lat="44.46837" lon="1.65216">
        <ele>246.1</ele>
        <time>2015-10-31T14:46:05Z</time>
      </trkpt>
      <trkpt lat="44.46835" lon="1.65211">
        <ele>245.9</ele>
        <time>2015-10-31T14:46:06Z</time>
      </trkpt>
      <trkpt lat="44.46831" lon="1.65202">
        <ele>245.7</ele>
        <time>2015-10-31T14:46:07Z</time>
      </trkpt>
      <trkpt lat="44.46829" lon="1.65195">
        <ele>244.9</ele>
        <time>2015-10-31T14:46:08Z</time>
      </trkpt>
      <trkpt lat="44.46825" lon="1.65186">
        <ele>244.5</ele>
        <time>2015-10-31T14:46:09Z</time>
      </trkpt>
      <trkpt lat="44.46825" lon="1.65175">
        <ele>242.7</ele>
        <time>2015-10-31T14:46:10Z</time>
      </trkpt>
      <trkpt lat="44.46824" lon="1.65167">
        <ele>241.5</ele>
        <time>2015-10-31T14:46:11Z</time>
      </trkpt>
      <trkpt lat="44.46821" lon="1.65157">
        <ele>240.6</ele>
        <time>2015-10-31T14:46:12Z</time>
      </trkpt>
      <trkpt lat="44.46819" lon="1.6515">
        <ele>240</ele>
        <time>2015-10-31T14:46:13Z</time>
      </trkpt>
      <trkpt lat="44.46818" lon="1.65143">
        <ele>239.1</ele>
        <time>2015-10-31T14:46:14Z</time>
      </trkpt>
      <trkpt lat="44.46813" lon="1.65137">
        <ele>239.4</ele>
        <time>2015-10-31T14:46:15Z</time>
      </trkpt>
      <trkpt lat="44.4681" lon="1.65129">
        <ele>238.9</ele>
        <time>2015-10-31T14:46:16Z</time>
      </trkpt>
      <trkpt lat="44.46806" lon="1.65122">
        <ele>238.9</ele>
        <time>2015-10-31T14:46:17Z</time>
      </trkpt>
      <trkpt lat="44.46803" lon="1.65118">
        <ele>239.5</ele>
        <time>2015-10-31T14:46:18Z</time>
      </trkpt>
      <trkpt lat="44.46798" lon="1.65111">
        <ele>240</ele>
        <time>2015-10-31T14:46:19Z</time>
      </trkpt>
      <trkpt lat="44.46791" lon="1.65105">
        <ele>241.1</ele>
        <time>2015-10-31T14:46:20Z</time>
      </trkpt>
      <trkpt lat="44.46785" lon="1.65099">
        <ele>242</ele>
        <time>2015-10-31T14:46:21Z</time>
      </trkpt>
      <trkpt lat="44.46779" lon="1.65094">
        <ele>242.9</ele>
        <time>2015-10-31T14:46:22Z</time>
      </trkpt>
      <trkpt lat="44.46772" lon="1.65092">
        <ele>244.2</ele>
        <time>2015-10-31T14:46:23Z</time>
      </trkpt>
      <trkpt lat="44.46765" lon="1.65091">
        <ele>245.7</ele>
        <time>2015-10-31T14:46:24Z</time>
      </trkpt>
      <trkpt lat="44.4676" lon="1.65087">
        <ele>246.4</ele>
        <time>2015-10-31T14:46:25Z</time>
      </trkpt>
      <trkpt lat="44.46754" lon="1.65086">
        <ele>247.9</ele>
        <time>2015-10-31T14:46:26Z</time>
      </trkpt>
      <trkpt lat="44.4675" lon="1.65081">
        <ele>248.2</ele>
        <time>2015-10-31T14:46:27Z</time>
      </trkpt>
      <trkpt lat="44.46741" lon="1.65079">
        <ele>250.2</ele>
        <time>2015-10-31T14:46:28Z</time>
      </trkpt>
      <trkpt lat="44.46735" lon="1.65075">
        <ele>251.5</ele>
        <time>2015-10-31T14:46:29Z</time>
      </trkpt>
      <trkpt lat="44.46739" lon="1.65068">
        <ele>250</ele>
        <time>2015-10-31T14:46:30Z</time>
      </trkpt>
      <trkpt lat="44.46737" lon="1.65061">
        <ele>249.9</ele>
        <time>2015-10-31T14:46:31Z</time>
      </trkpt>
      <trkpt lat="44.46736" lon="1.65055">
        <ele>249.9</ele>
        <time>2015-10-31T14:46:32Z</time>
      </trkpt>
      <trkpt lat="44.46737" lon="1.65048">
        <ele>249.3</ele>
        <time>2015-10-31T14:46:33Z</time>
      </trkpt>
      <trkpt lat="44.46738" lon="1.65038">
        <ele>248.4</ele>
        <time>2015-10-31T14:46:34Z</time>
      </trkpt>
      <trkpt lat="44.46739" lon="1.65033">
        <ele>247.8</ele>
        <time>2015-10-31T14:46:35Z</time>
      </trkpt>
      <trkpt lat="44.4674" lon="1.65026">
        <ele>247.3</ele>
        <time>2015-10-31T14:46:36Z</time>
      </trkpt>
      <trkpt lat="44.46736" lon="1.65016">
        <ele>247.5</ele>
        <time>2015-10-31T14:46:37Z</time>
      </trkpt>
      <trkpt lat="44.46736" lon="1.65007">
        <ele>247</ele>
        <time>2015-10-31T14:46:38Z</time>
      </trkpt>
      <trkpt lat="44.46734" lon="1.65001">
        <ele>247.2</ele>
        <time>2015-10-31T14:46:39Z</time>
      </trkpt>
      <trkpt lat="44.46734" lon="1.64992">
        <ele>246.8</ele>
        <time>2015-10-31T14:46:40Z</time>
      </trkpt>
      <trkpt lat="44.46733" lon="1.64986">
        <ele>246.5</ele>
        <time>2015-10-31T14:46:41Z</time>
      </trkpt>
      <trkpt lat="44.46732" lon="1.64981">
        <ele>246.4</ele>
        <time>2015-10-31T14:46:42Z</time>
      </trkpt>
      <trkpt lat="44.46729" lon="1.64976">
        <ele>246.7</ele>
        <time>2015-10-31T14:46:43Z</time>
      </trkpt>
      <trkpt lat="44.46725" lon="1.64972">
        <ele>247.1</ele>
        <time>2015-10-31T14:46:44Z</time>
      </trkpt>
      <trkpt lat="44.46722" lon="1.64968">
        <ele>247.4</ele>
        <time>2015-10-31T14:46:45Z</time>
      </trkpt>
      <trkpt lat="44.46717" lon="1.64962">
        <ele>247.9</ele>
        <time>2015-10-31T14:46:46Z</time>
      </trkpt>
      <trkpt lat="44.46712" lon="1.64956">
        <ele>248.5</ele>
        <time>2015-10-31T14:46:47Z</time>
      </trkpt>
      <trkpt lat="44.46709" lon="1.64949">
        <ele>249.1</ele>
        <time>2015-10-31T14:46:48Z</time>
      </trkpt>
      <trkpt lat="44.46706" lon="1.64943">
        <ele>249.8</ele>
        <time>2015-10-31T14:46:49Z</time>
      </trkpt>
      <trkpt lat="44.46703" lon="1.64944">
        <ele>250.5</ele>
        <time>2015-10-31T14:46:50Z</time>
      </trkpt>
      <trkpt lat="44.467" lon="1.64946">
        <ele>251.1</ele>
        <time>2015-10-31T14:46:51Z</time>
      </trkpt>
      <trkpt lat="44.46697" lon="1.64946">
        <ele>251.7</ele>
        <time>2015-10-31T14:46:52Z</time>
      </trkpt>
      <trkpt lat="44.46693" lon="1.64944">
        <ele>252.4</ele>
        <time>2015-10-31T14:46:53Z</time>
      </trkpt>
      <trkpt lat="44.46689" lon="1.64941">
        <ele>253.3</ele>
        <time>2015-10-31T14:46:54Z</time>
      </trkpt>
      <trkpt lat="44.46685" lon="1.64937">
        <ele>254.2</ele>
        <time>2015-10-31T14:46:55Z</time>
      </trkpt>
      <trkpt lat="44.46679" lon="1.64938">
        <ele>255.4</ele>
        <time>2015-10-31T14:46:56Z</time>
      </trkpt>
      <trkpt lat="44.46675" lon="1.64937">
        <ele>256.3</ele>
        <time>2015-10-31T14:46:57Z</time>
      </trkpt>
      <trkpt lat="44.4667" lon="1.64937">
        <ele>257.3</ele>
        <time>2015-10-31T14:46:58Z</time>
      </trkpt>
      <trkpt lat="44.46666" lon="1.64933">
        <ele>258.2</ele>
        <time>2015-10-31T14:46:59Z</time>
      </trkpt>
      <trkpt lat="44.4666" lon="1.6493">
        <ele>259.6</ele>
        <time>2015-10-31T14:47:00Z</time>
      </trkpt>
      <trkpt lat="44.46656" lon="1.64925">
        <ele>260.4</ele>
        <time>2015-10-31T14:47:01Z</time>
      </trkpt>
      <trkpt lat="44.46653" lon="1.6492">
        <ele>261.3</ele>
        <time>2015-10-31T14:47:02Z</time>
      </trkpt>
      <trkpt lat="44.46654" lon="1.64914">
        <ele>261.3</ele>
        <time>2015-10-31T14:47:03Z</time>
      </trkpt>
      <trkpt lat="44.46654" lon="1.64905">
        <ele>261.5</ele>
        <time>2015-10-31T14:47:04Z</time>
      </trkpt>
      <trkpt lat="44.46656" lon="1.64898">
        <ele>261.2</ele>
        <time>2015-10-31T14:47:05Z</time>
      </trkpt>
      <trkpt lat="44.46659" lon="1.64892">
        <ele>260.8</ele>
        <time>2015-10-31T14:47:06Z</time>
      </trkpt>
      <trkpt lat="44.46663" lon="1.64887">
        <ele>260.1</ele>
        <time>2015-10-31T14:47:07Z</time>
      </trkpt>
      <trkpt lat="44.46666" lon="1.64884">
        <ele>259.3</ele>
        <time>2015-10-31T14:47:08Z</time>
      </trkpt>
      <trkpt lat="44.46669" lon="1.6488">
        <ele>259</ele>
        <time>2015-10-31T14:47:09Z</time>
      </trkpt>
      <trkpt lat="44.46673" lon="1.64874">
        <ele>258.3</ele>
        <time>2015-10-31T14:47:10Z</time>
      </trkpt>
      <trkpt lat="44.46677" lon="1.6487">
        <ele>257.9</ele>
        <time>2015-10-31T14:47:11Z</time>
      </trkpt>
      <trkpt lat="44.46681" lon="1.64865">
        <ele>257.6</ele>
        <time>2015-10-31T14:47:12Z</time>
      </trkpt>
      <trkpt lat="44.46684" lon="1.64858">
        <ele>257.9</ele>
        <time>2015-10-31T14:47:13Z</time>
      </trkpt>
      <trkpt lat="44.46689" lon="1.64856">
        <ele>257</ele>
        <time>2015-10-31T14:47:14Z</time>
      </trkpt>
      <trkpt lat="44.46694" lon="1.64853">
        <ele>256.6</ele>
        <time>2015-10-31T14:47:15Z</time>
      </trkpt>
      <trkpt lat="44.46699" lon="1.64847">
        <ele>256.4</ele>
        <time>2015-10-31T14:47:16Z</time>
      </trkpt>
      <trkpt lat="44.46704" lon="1.64842">
        <ele>256</ele>
        <time>2015-10-31T14:47:17Z</time>
      </trkpt>
      <trkpt lat="44.46708" lon="1.64836">
        <ele>256.2</ele>
        <time>2015-10-31T14:47:18Z</time>
      </trkpt>
      <trkpt lat="44.46716" lon="1.6483">
        <ele>256.8</ele>
        <time>2015-10-31T14:47:19Z</time>
      </trkpt>
      <trkpt lat="44.46723" lon="1.64824">
        <ele>257.6</ele>
        <time>2015-10-31T14:47:20Z</time>
      </trkpt>
      <trkpt lat="44.4673" lon="1.64821">
        <ele>258</ele>
        <time>2015-10-31T14:47:21Z</time>
      </trkpt>
      <trkpt lat="44.46738" lon="1.64816">
        <ele>258.7</ele>
        <time>2015-10-31T14:47:22Z</time>
      </trkpt>
      <trkpt lat="44.46744" lon="1.6482">
        <ele>258.2</ele>
        <time>2015-10-31T14:47:23Z</time>
      </trkpt>
      <trkpt lat="44.46752" lon="1.64822">
        <ele>257.7</ele>
        <time>2015-10-31T14:47:24Z</time>
      </trkpt>
      <trkpt lat="44.46759" lon="1.64824">
        <ele>257.3</ele>
        <time>2015-10-31T14:47:25Z</time>
      </trkpt>
      <trkpt lat="44.46765" lon="1.64833">
        <ele>255.6</ele>
        <time>2015-10-31T14:47:26Z</time>
      </trkpt>
      <trkpt lat="44.46774" lon="1.64833">
        <ele>255.3</ele>
        <time>2015-10-31T14:47:27Z</time>
      </trkpt>
      <trkpt lat="44.46783" lon="1.64841">
        <ele>253.5</ele>
        <time>2015-10-31T14:47:28Z</time>
      </trkpt>
      <trkpt lat="44.46788" lon="1.64847">
        <ele>252.3</ele>
        <time>2015-10-31T14:47:29Z</time>
      </trkpt>
      <trkpt lat="44.46795" lon="1.64857">
        <ele>250.3</ele>
        <time>2015-10-31T14:47:30Z</time>
      </trkpt>
      <trkpt lat="44.468" lon="1.64865">
        <ele>249.2</ele>
        <time>2015-10-31T14:47:31Z</time>
      </trkpt>
      <trkpt lat="44.46807" lon="1.64871">
        <ele>248.5</ele>
        <time>2015-10-31T14:47:32Z</time>
      </trkpt>
      <trkpt lat="44.46812" lon="1.64876">
        <ele>248.1</ele>
        <time>2015-10-31T14:47:33Z</time>
      </trkpt>
      <trkpt lat="44.46816" lon="1.6488">
        <ele>247.6</ele>
        <time>2015-10-31T14:47:34Z</time>
      </trkpt>
      <trkpt lat="44.46822" lon="1.64882">
        <ele>247.9</ele>
        <time>2015-10-31T14:47:35Z</time>
      </trkpt>
      <trkpt lat="44.46828" lon="1.64886">
        <ele>247.5</ele>
        <time>2015-10-31T14:47:36Z</time>
      </trkpt>
      <trkpt lat="44.46833" lon="1.64888">
        <ele>247.6</ele>
        <time>2015-10-31T14:47:37Z</time>
      </trkpt>
      <trkpt lat="44.46839" lon="1.64892">
        <ele>247.1</ele>
        <time>2015-10-31T14:47:38Z</time>
      </trkpt>
      <trkpt lat="44.46843" lon="1.64896">
        <ele>246.3</ele>
        <time>2015-10-31T14:47:39Z</time>
      </trkpt>
      <trkpt lat="44.46851" lon="1.64903">
        <ele>245</ele>
        <time>2015-10-31T14:47:40Z</time>
      </trkpt>
      <trkpt lat="44.46857" lon="1.64907">
        <ele>243.9</ele>
        <time>2015-10-31T14:47:41Z</time>
      </trkpt>
      <trkpt lat="44.46863" lon="1.64914">
        <ele>242.3</ele>
        <time>2015-10-31T14:47:42Z</time>
      </trkpt>
      <trkpt lat="44.4687" lon="1.64921">
        <ele>240.2</ele>
        <time>2015-10-31T14:47:43Z</time>
      </trkpt>
      <trkpt lat="44.46878" lon="1.64926">
        <ele>239</ele>
        <time>2015-10-31T14:47:44Z</time>
      </trkpt>
      <trkpt lat="44.46884" lon="1.64933">
        <ele>238.4</ele>
        <time>2015-10-31T14:47:45Z</time>
      </trkpt>
      <trkpt lat="44.4689" lon="1.64939">
        <ele>237.7</ele>
        <time>2015-10-31T14:47:46Z</time>
      </trkpt>
      <trkpt lat="44.46898" lon="1.64946">
        <ele>237.4</ele>
        <time>2015-10-31T14:47:47Z</time>
      </trkpt>
      <trkpt lat="44.46905" lon="1.64952">
        <ele>237.3</ele>
        <time>2015-10-31T14:47:48Z</time>
      </trkpt>
      <trkpt lat="44.46913" lon="1.64959">
        <ele>236.8</ele>
        <time>2015-10-31T14:47:49Z</time>
      </trkpt>
      <trkpt lat="44.4692" lon="1.64968">
        <ele>236.2</ele>
        <time>2015-10-31T14:47:50Z</time>
      </trkpt>
      <trkpt lat="44.46927" lon="1.64977">
        <ele>235.1</ele>
        <time>2015-10-31T14:47:51Z</time>
      </trkpt>
      <trkpt lat="44.46936" lon="1.64982">
        <ele>235.5</ele>
        <time>2015-10-31T14:47:52Z</time>
      </trkpt>
      <trkpt lat="44.46944" lon="1.64988">
        <ele>235</ele>
        <time>2015-10-31T14:47:53Z</time>
      </trkpt>
      <trkpt lat="44.4695" lon="1.64996">
        <ele>233.5</ele>
        <time>2015-10-31T14:47:54Z</time>
      </trkpt>
      <trkpt lat="44.46958" lon="1.65007">
        <ele>231</ele>
        <time>2015-10-31T14:47:55Z</time>
      </trkpt>
      <trkpt lat="44.46965" lon="1.65012">
        <ele>229.4</ele>
        <time>2015-10-31T14:47:56Z</time>
      </trkpt>
      <trkpt lat="44.46973" lon="1.65017">
        <ele>228.1</ele>
        <time>2015-10-31T14:47:57Z</time>
      </trkpt>
      <trkpt lat="44.46979" lon="1.65019">
        <ele>227.5</ele>
        <time>2015-10-31T14:47:58Z</time>
      </trkpt>
      <trkpt lat="44.46987" lon="1.65023">
        <ele>226.4</ele>
        <time>2015-10-31T14:47:59Z</time>
      </trkpt>
      <trkpt lat="44.46994" lon="1.65023">
        <ele>226.4</ele>
        <time>2015-10-31T14:48:00Z</time>
      </trkpt>
      <trkpt lat="44.47001" lon="1.65023">
        <ele>226.7</ele>
        <time>2015-10-31T14:48:01Z</time>
      </trkpt>
      <trkpt lat="44.47007" lon="1.6502">
        <ele>227.7</ele>
        <time>2015-10-31T14:48:02Z</time>
      </trkpt>
      <trkpt lat="44.47013" lon="1.65018">
        <ele>228.6</ele>
        <time>2015-10-31T14:48:03Z</time>
      </trkpt>
      <trkpt lat="44.47026" lon="1.65005">
        <ele>232.5</ele>
        <time>2015-10-31T14:48:04Z</time>
      </trkpt>
      <trkpt lat="44.47035" lon="1.64996">
        <ele>235</ele>
        <time>2015-10-31T14:48:05Z</time>
      </trkpt>
      <trkpt lat="44.47044" lon="1.64986">
        <ele>237</ele>
        <time>2015-10-31T14:48:06Z</time>
      </trkpt>
      <trkpt lat="44.47055" lon="1.64977">
        <ele>236.2</ele>
        <time>2015-10-31T14:48:07Z</time>
      </trkpt>
      <trkpt lat="44.47062" lon="1.64968">
        <ele>236.5</ele>
        <time>2015-10-31T14:48:08Z</time>
      </trkpt>
      <trkpt lat="44.4707" lon="1.64957">
        <ele>237.1</ele>
        <time>2015-10-31T14:48:09Z</time>
      </trkpt>
      <trkpt lat="44.47076" lon="1.64946">
        <ele>237.9</ele>
        <time>2015-10-31T14:48:10Z</time>
      </trkpt>
      <trkpt lat="44.47084" lon="1.64937">
        <ele>238.2</ele>
        <time>2015-10-31T14:48:11Z</time>
      </trkpt>
      <trkpt lat="44.47088" lon="1.64926">
        <ele>240</ele>
        <time>2015-10-31T14:48:12Z</time>
      </trkpt>
      <trkpt lat="44.47094" lon="1.64915">
        <ele>241.3</ele>
        <time>2015-10-31T14:48:13Z</time>
      </trkpt>
      <trkpt lat="44.47101" lon="1.64908">
        <ele>240.7</ele>
        <time>2015-10-31T14:48:14Z</time>
      </trkpt>
      <trkpt lat="44.4711" lon="1.64904">
        <ele>239.3</ele>
        <time>2015-10-31T14:48:15Z</time>
      </trkpt>
      <trkpt lat="44.4712" lon="1.64902">
        <ele>237.1</ele>
        <time>2015-10-31T14:48:16Z</time>
      </trkpt>
      <trkpt lat="44.47131" lon="1.64904">
        <ele>233.8</ele>
        <time>2015-10-31T14:48:17Z</time>
      </trkpt>
      <trkpt lat="44.4714" lon="1.64905">
        <ele>231.8</ele>
        <time>2015-10-31T14:48:18Z</time>
      </trkpt>
      <trkpt lat="44.47147" lon="1.64907">
        <ele>229.9</ele>
        <time>2015-10-31T14:48:19Z</time>
      </trkpt>
      <trkpt lat="44.47156" lon="1.64908">
        <ele>228</ele>
        <time>2015-10-31T14:48:20Z</time>
      </trkpt>
      <trkpt lat="44.47167" lon="1.64907">
        <ele>226</ele>
        <time>2015-10-31T14:48:21Z</time>
      </trkpt>
      <trkpt lat="44.47177" lon="1.64907">
        <ele>224.3</ele>
        <time>2015-10-31T14:48:22Z</time>
      </trkpt>
      <trkpt lat="44.47186" lon="1.64903">
        <ele>223.7</ele>
        <time>2015-10-31T14:48:23Z</time>
      </trkpt>
      <trkpt lat="44.47194" lon="1.64897">
        <ele>223.8</ele>
        <time>2015-10-31T14:48:24Z</time>
      </trkpt>
      <trkpt lat="44.47202" lon="1.64892">
        <ele>223.8</ele>
        <time>2015-10-31T14:48:25Z</time>
      </trkpt>
      <trkpt lat="44.47213" lon="1.64883">
        <ele>224.2</ele>
        <time>2015-10-31T14:48:26Z</time>
      </trkpt>
      <trkpt lat="44.47224" lon="1.64879">
        <ele>223.1</ele>
        <time>2015-10-31T14:48:27Z</time>
      </trkpt>
      <trkpt lat="44.47231" lon="1.64875">
        <ele>223</ele>
        <time>2015-10-31T14:48:28Z</time>
      </trkpt>
      <trkpt lat="44.47237" lon="1.64871">
        <ele>222.7</ele>
        <time>2015-10-31T14:48:29Z</time>
      </trkpt>
      <trkpt lat="44.47242" lon="1.64869">
        <ele>222.2</ele>
        <time>2015-10-31T14:48:30Z</time>
      </trkpt>
      <trkpt lat="44.47246" lon="1.64865">
        <ele>222.8</ele>
        <time>2015-10-31T14:48:32Z</time>
      </trkpt>
      <trkpt lat="44.47249" lon="1.64864">
        <ele>222.3</ele>
        <time>2015-10-31T14:48:36Z</time>
      </trkpt>
      <trkpt lat="44.47254" lon="1.64866">
        <ele>220.6</ele>
        <time>2015-10-31T14:48:38Z</time>
      </trkpt>
      <trkpt lat="44.47252" lon="1.64863">
        <ele>221.9</ele>
        <time>2015-10-31T14:48:46Z</time>
      </trkpt>
      <trkpt lat="44.47246" lon="1.64862">
        <ele>223.7</ele>
        <time>2015-10-31T14:48:57Z</time>
      </trkpt>
      <trkpt lat="44.4725" lon="1.6486">
        <ele>223.3</ele>
        <time>2015-10-31T14:50:05Z</time>
      </trkpt>
      <trkpt lat="44.47253" lon="1.64862">
        <ele>222</ele>
        <time>2015-10-31T14:50:12Z</time>
      </trkpt>
      <trkpt lat="44.47255" lon="1.6486">
        <ele>222.4</ele>
        <time>2015-10-31T14:50:20Z</time>
      </trkpt>
      <trkpt lat="44.47256" lon="1.64856">
        <ele>223.4</ele>
        <time>2015-10-31T14:50:45Z</time>
      </trkpt>
      <trkpt lat="44.47257" lon="1.6485">
        <ele>225</ele>
        <time>2015-10-31T14:50:47Z</time>
      </trkpt>
      <trkpt lat="44.47258" lon="1.64845">
        <ele>226.6</ele>
        <time>2015-10-31T14:50:48Z</time>
      </trkpt>
      <trkpt lat="44.4726" lon="1.64839">
        <ele>228.1</ele>
        <time>2015-10-31T14:50:49Z</time>
      </trkpt>
      <trkpt lat="44.47264" lon="1.64834">
        <ele>229</ele>
        <time>2015-10-31T14:50:50Z</time>
      </trkpt>
      <trkpt lat="44.47274" lon="1.64833">
        <ele>227.3</ele>
        <time>2015-10-31T14:50:51Z</time>
      </trkpt>
      <trkpt lat="44.4728" lon="1.6483">
        <ele>227.2</ele>
        <time>2015-10-31T14:50:52Z</time>
      </trkpt>
      <trkpt lat="44.47288" lon="1.64824">
        <ele>227.5</ele>
        <time>2015-10-31T14:50:53Z</time>
      </trkpt>
      <trkpt lat="44.47296" lon="1.64818">
        <ele>227.1</ele>
        <time>2015-10-31T14:50:54Z</time>
      </trkpt>
      <trkpt lat="44.47305" lon="1.64811">
        <ele>226.9</ele>
        <time>2015-10-31T14:50:55Z</time>
      </trkpt>
      <trkpt lat="44.47312" lon="1.64803">
        <ele>227.8</ele>
        <time>2015-10-31T14:50:56Z</time>
      </trkpt>
      <trkpt lat="44.47319" lon="1.64795">
        <ele>229.1</ele>
        <time>2015-10-31T14:50:57Z</time>
      </trkpt>
      <trkpt lat="44.4733" lon="1.64788">
        <ele>228.7</ele>
        <time>2015-10-31T14:50:58Z</time>
      </trkpt>
      <trkpt lat="44.4734" lon="1.64781">
        <ele>227.8</ele>
        <time>2015-10-31T14:50:59Z</time>
      </trkpt>
      <trkpt lat="44.47346" lon="1.64774">
        <ele>228</ele>
        <time>2015-10-31T14:51:00Z</time>
      </trkpt>
      <trkpt lat="44.47354" lon="1.64769">
        <ele>227.3</ele>
        <time>2015-10-31T14:51:01Z</time>
      </trkpt>
      <trkpt lat="44.47362" lon="1.64762">
        <ele>227.1</ele>
        <time>2015-10-31T14:51:02Z</time>
      </trkpt>
      <trkpt lat="44.4737" lon="1.64756">
        <ele>226.6</ele>
        <time>2015-10-31T14:51:03Z</time>
      </trkpt>
      <trkpt lat="44.47391" lon="1.64719">
        <ele>228.7</ele>
        <time>2015-10-31T14:51:05Z</time>
      </trkpt>
      <trkpt lat="44.47399" lon="1.64711">
        <ele>227.9</ele>
        <time>2015-10-31T14:51:06Z</time>
      </trkpt>
      <trkpt lat="44.47406" lon="1.64702">
        <ele>226.8</ele>
        <time>2015-10-31T14:51:07Z</time>
      </trkpt>
      <trkpt lat="44.47411" lon="1.64691">
        <ele>225.9</ele>
        <time>2015-10-31T14:51:08Z</time>
      </trkpt>
      <trkpt lat="44.47415" lon="1.64683">
        <ele>225.2</ele>
        <time>2015-10-31T14:51:09Z</time>
      </trkpt>
      <trkpt lat="44.47423" lon="1.64677">
        <ele>223.5</ele>
        <time>2015-10-31T14:51:10Z</time>
      </trkpt>
      <trkpt lat="44.47428" lon="1.64672">
        <ele>222.3</ele>
        <time>2015-10-31T14:51:11Z</time>
      </trkpt>
      <trkpt lat="44.47432" lon="1.64671">
        <ele>221.4</ele>
        <time>2015-10-31T14:51:12Z</time>
      </trkpt>
      <trkpt lat="44.47434" lon="1.64668">
        <ele>221.3</ele>
        <time>2015-10-31T14:51:19Z</time>
      </trkpt>
      <trkpt lat="44.47432" lon="1.64673">
        <ele>221</ele>
        <time>2015-10-31T14:51:20Z</time>
      </trkpt>
      <trkpt lat="44.47431" lon="1.64669">
        <ele>221.8</ele>
        <time>2015-10-31T14:51:27Z</time>
      </trkpt>
      <trkpt lat="44.47436" lon="1.64667">
        <ele>220.8</ele>
        <time>2015-10-31T14:51:53Z</time>
      </trkpt>
      <trkpt lat="44.4744" lon="1.64668">
        <ele>219.4</ele>
        <time>2015-10-31T14:51:55Z</time>
      </trkpt>
      <trkpt lat="44.47443" lon="1.6467">
        <ele>218.2</ele>
        <time>2015-10-31T14:51:56Z</time>
      </trkpt>
      <trkpt lat="44.47446" lon="1.64673">
        <ele>216.8</ele>
        <time>2015-10-31T14:51:57Z</time>
      </trkpt>
      <trkpt lat="44.47454" lon="1.64669">
        <ele>215</ele>
        <time>2015-10-31T14:51:59Z</time>
      </trkpt>
      <trkpt lat="44.47458" lon="1.64666">
        <ele>214.4</ele>
        <time>2015-10-31T14:52:00Z</time>
      </trkpt>
      <trkpt lat="44.47461" lon="1.6466">
        <ele>214.4</ele>
        <time>2015-10-31T14:52:01Z</time>
      </trkpt>
      <trkpt lat="44.47465" lon="1.64654">
        <ele>214.8</ele>
        <time>2015-10-31T14:52:02Z</time>
      </trkpt>
      <trkpt lat="44.47468" lon="1.64649">
        <ele>215.2</ele>
        <time>2015-10-31T14:52:03Z</time>
      </trkpt>
      <trkpt lat="44.47472" lon="1.64644">
        <ele>215.6</ele>
        <time>2015-10-31T14:52:04Z</time>
      </trkpt>
      <trkpt lat="44.47475" lon="1.64639">
        <ele>216.3</ele>
        <time>2015-10-31T14:52:05Z</time>
      </trkpt>
      <trkpt lat="44.47478" lon="1.64634">
        <ele>217.1</ele>
        <time>2015-10-31T14:52:06Z</time>
      </trkpt>
      <trkpt lat="44.47482" lon="1.64629">
        <ele>218.1</ele>
        <time>2015-10-31T14:52:07Z</time>
      </trkpt>
      <trkpt lat="44.47489" lon="1.64617">
        <ele>220.5</ele>
        <time>2015-10-31T14:52:08Z</time>
      </trkpt>
      <trkpt lat="44.47493" lon="1.64613">
        <ele>221</ele>
        <time>2015-10-31T14:52:09Z</time>
      </trkpt>
      <trkpt lat="44.47498" lon="1.64613">
        <ele>221</ele>
        <time>2015-10-31T14:52:10Z</time>
      </trkpt>
      <trkpt lat="44.47502" lon="1.64609">
        <ele>221.8</ele>
        <time>2015-10-31T14:52:11Z</time>
      </trkpt>
      <trkpt lat="44.4751" lon="1.64605">
        <ele>222.7</ele>
        <time>2015-10-31T14:52:13Z</time>
      </trkpt>
      <trkpt lat="44.47514" lon="1.64605">
        <ele>222.9</ele>
        <time>2015-10-31T14:52:14Z</time>
      </trkpt>
      <trkpt lat="44.47521" lon="1.64602">
        <ele>223.6</ele>
        <time>2015-10-31T14:52:16Z</time>
      </trkpt>
      <trkpt lat="44.47527" lon="1.64599">
        <ele>224.7</ele>
        <time>2015-10-31T14:52:17Z</time>
      </trkpt>
      <trkpt lat="44.4753" lon="1.64597">
        <ele>225.7</ele>
        <time>2015-10-31T14:52:18Z</time>
      </trkpt>
      <trkpt lat="44.47534" lon="1.64597">
        <ele>226</ele>
        <time>2015-10-31T14:52:19Z</time>
      </trkpt>
      <trkpt lat="44.47539" lon="1.64595">
        <ele>226.6</ele>
        <time>2015-10-31T14:52:20Z</time>
      </trkpt>
      <trkpt lat="44.47543" lon="1.64594">
        <ele>226.7</ele>
        <time>2015-10-31T14:52:21Z</time>
      </trkpt>
      <trkpt lat="44.47548" lon="1.64593">
        <ele>226.4</ele>
        <time>2015-10-31T14:52:22Z</time>
      </trkpt>
      <trkpt lat="44.47555" lon="1.64585">
        <ele>229</ele>
        <time>2015-10-31T14:52:23Z</time>
      </trkpt>
      <trkpt lat="44.47562" lon="1.64581">
        <ele>229.7</ele>
        <time>2015-10-31T14:52:24Z</time>
      </trkpt>
      <trkpt lat="44.47569" lon="1.64579">
        <ele>229.3</ele>
        <time>2015-10-31T14:52:25Z</time>
      </trkpt>
      <trkpt lat="44.47576" lon="1.64573">
        <ele>230.5</ele>
        <time>2015-10-31T14:52:26Z</time>
      </trkpt>
      <trkpt lat="44.47583" lon="1.64571">
        <ele>230.4</ele>
        <time>2015-10-31T14:52:27Z</time>
      </trkpt>
      <trkpt lat="44.47589" lon="1.64561">
        <ele>234.1</ele>
        <time>2015-10-31T14:52:28Z</time>
      </trkpt>
      <trkpt lat="44.47596" lon="1.64556">
        <ele>235.4</ele>
        <time>2015-10-31T14:52:29Z</time>
      </trkpt>
      <trkpt lat="44.47601" lon="1.64546">
        <ele>239.6</ele>
        <time>2015-10-31T14:52:30Z</time>
      </trkpt>
      <trkpt lat="44.47609" lon="1.64539">
        <ele>240.9</ele>
        <time>2015-10-31T14:52:31Z</time>
      </trkpt>
      <trkpt lat="44.47616" lon="1.64534">
        <ele>240.9</ele>
        <time>2015-10-31T14:52:32Z</time>
      </trkpt>
      <trkpt lat="44.47623" lon="1.64528">
        <ele>241.7</ele>
        <time>2015-10-31T14:52:33Z</time>
      </trkpt>
      <trkpt lat="44.4763" lon="1.64533">
        <ele>238.9</ele>
        <time>2015-10-31T14:52:34Z</time>
      </trkpt>
      <trkpt lat="44.4764" lon="1.64528">
        <ele>238.7</ele>
        <time>2015-10-31T14:52:35Z</time>
      </trkpt>
      <trkpt lat="44.47648" lon="1.64523">
        <ele>238.7</ele>
        <time>2015-10-31T14:52:36Z</time>
      </trkpt>
      <trkpt lat="44.47657" lon="1.64523">
        <ele>237.4</ele>
        <time>2015-10-31T14:52:37Z</time>
      </trkpt>
      <trkpt lat="44.47664" lon="1.64523">
        <ele>236.2</ele>
        <time>2015-10-31T14:52:38Z</time>
      </trkpt>
      <trkpt lat="44.47671" lon="1.6452">
        <ele>235.8</ele>
        <time>2015-10-31T14:52:39Z</time>
      </trkpt>
      <trkpt lat="44.47679" lon="1.64519">
        <ele>234.9</ele>
        <time>2015-10-31T14:52:40Z</time>
      </trkpt>
      <trkpt lat="44.47687" lon="1.64517">
        <ele>234.5</ele>
        <time>2015-10-31T14:52:41Z</time>
      </trkpt>
      <trkpt lat="44.47694" lon="1.64516">
        <ele>233.5</ele>
        <time>2015-10-31T14:52:42Z</time>
      </trkpt>
      <trkpt lat="44.477" lon="1.64516">
        <ele>232.5</ele>
        <time>2015-10-31T14:52:43Z</time>
      </trkpt>
      <trkpt lat="44.47707" lon="1.64516">
        <ele>231.5</ele>
        <time>2015-10-31T14:52:44Z</time>
      </trkpt>
      <trkpt lat="44.47713" lon="1.64516">
        <ele>231</ele>
        <time>2015-10-31T14:52:45Z</time>
      </trkpt>
      <trkpt lat="44.47717" lon="1.64517">
        <ele>230.4</ele>
        <time>2015-10-31T14:52:46Z</time>
      </trkpt>
      <trkpt lat="44.47723" lon="1.64518">
        <ele>230</ele>
        <time>2015-10-31T14:52:47Z</time>
      </trkpt>
      <trkpt lat="44.47733" lon="1.64515">
        <ele>230.4</ele>
        <time>2015-10-31T14:52:48Z</time>
      </trkpt>
      <trkpt lat="44.4774" lon="1.64514">
        <ele>230.6</ele>
        <time>2015-10-31T14:52:49Z</time>
      </trkpt>
      <trkpt lat="44.4775" lon="1.64507">
        <ele>232.9</ele>
        <time>2015-10-31T14:52:50Z</time>
      </trkpt>
      <trkpt lat="44.47757" lon="1.64504">
        <ele>233.7</ele>
        <time>2015-10-31T14:52:51Z</time>
      </trkpt>
      <trkpt lat="44.47763" lon="1.64504">
        <ele>233.4</ele>
        <time>2015-10-31T14:52:52Z</time>
      </trkpt>
      <trkpt lat="44.47769" lon="1.64502">
        <ele>233.8</ele>
        <time>2015-10-31T14:52:53Z</time>
      </trkpt>
      <trkpt lat="44.47776" lon="1.64498">
        <ele>235.1</ele>
        <time>2015-10-31T14:52:54Z</time>
      </trkpt>
      <trkpt lat="44.47784" lon="1.64494">
        <ele>236</ele>
        <time>2015-10-31T14:52:55Z</time>
      </trkpt>
      <trkpt lat="44.47791" lon="1.6449">
        <ele>236.9</ele>
        <time>2015-10-31T14:52:56Z</time>
      </trkpt>
      <trkpt lat="44.47801" lon="1.64508">
        <ele>228.7</ele>
        <time>2015-10-31T14:52:57Z</time>
      </trkpt>
      <trkpt lat="44.4781" lon="1.64513">
        <ele>225.3</ele>
        <time>2015-10-31T14:52:58Z</time>
      </trkpt>
      <trkpt lat="44.47817" lon="1.64517">
        <ele>222.3</ele>
        <time>2015-10-31T14:52:59Z</time>
      </trkpt>
      <trkpt lat="44.47826" lon="1.64521">
        <ele>219.3</ele>
        <time>2015-10-31T14:53:00Z</time>
      </trkpt>
      <trkpt lat="44.47834" lon="1.64526">
        <ele>215.9</ele>
        <time>2015-10-31T14:53:01Z</time>
      </trkpt>
      <trkpt lat="44.47843" lon="1.6453">
        <ele>212.9</ele>
        <time>2015-10-31T14:53:02Z</time>
      </trkpt>
      <trkpt lat="44.47851" lon="1.64531">
        <ele>210.9</ele>
        <time>2015-10-31T14:53:03Z</time>
      </trkpt>
      <trkpt lat="44.47858" lon="1.64532">
        <ele>209.1</ele>
        <time>2015-10-31T14:53:04Z</time>
      </trkpt>
      <trkpt lat="44.47867" lon="1.64534">
        <ele>207.1</ele>
        <time>2015-10-31T14:53:05Z</time>
      </trkpt>
      <trkpt lat="44.47876" lon="1.64531">
        <ele>206.3</ele>
        <time>2015-10-31T14:53:06Z</time>
      </trkpt>
      <trkpt lat="44.47888" lon="1.64517">
        <ele>208.7</ele>
        <time>2015-10-31T14:53:07Z</time>
      </trkpt>
      <trkpt lat="44.47895" lon="1.6451">
        <ele>209.4</ele>
        <time>2015-10-31T14:53:08Z</time>
      </trkpt>
      <trkpt lat="44.479" lon="1.64502">
        <ele>210.7</ele>
        <time>2015-10-31T14:53:09Z</time>
      </trkpt>
      <trkpt lat="44.47902" lon="1.64499">
        <ele>211</ele>
        <time>2015-10-31T14:53:10Z</time>
      </trkpt>
      <trkpt lat="44.47908" lon="1.64495">
        <ele>211</ele>
        <time>2015-10-31T14:53:11Z</time>
      </trkpt>
      <trkpt lat="44.47914" lon="1.64492">
        <ele>210.6</ele>
        <time>2015-10-31T14:53:12Z</time>
      </trkpt>
      <trkpt lat="44.47921" lon="1.64496">
        <ele>208.2</ele>
        <time>2015-10-31T14:53:13Z</time>
      </trkpt>
      <trkpt lat="44.47927" lon="1.64499">
        <ele>206.1</ele>
        <time>2015-10-31T14:53:14Z</time>
      </trkpt>
      <trkpt lat="44.47933" lon="1.64503">
        <ele>204.3</ele>
        <time>2015-10-31T14:53:15Z</time>
      </trkpt>
      <trkpt lat="44.47937" lon="1.6451">
        <ele>202.2</ele>
        <time>2015-10-31T14:53:16Z</time>
      </trkpt>
      <trkpt lat="44.47942" lon="1.64511">
        <ele>201.1</ele>
        <time>2015-10-31T14:53:17Z</time>
      </trkpt>
      <trkpt lat="44.47948" lon="1.64517">
        <ele>199.1</ele>
        <time>2015-10-31T14:53:18Z</time>
      </trkpt>
      <trkpt lat="44.47955" lon="1.64518">
        <ele>197.9</ele>
        <time>2015-10-31T14:53:19Z</time>
      </trkpt>
      <trkpt lat="44.47963" lon="1.64517">
        <ele>196.9</ele>
        <time>2015-10-31T14:53:20Z</time>
      </trkpt>
      <trkpt lat="44.47971" lon="1.64511">
        <ele>196.6</ele>
        <time>2015-10-31T14:53:21Z</time>
      </trkpt>
      <trkpt lat="44.47978" lon="1.64505">
        <ele>196.5</ele>
        <time>2015-10-31T14:53:22Z</time>
      </trkpt>
      <trkpt lat="44.47983" lon="1.64501">
        <ele>196.2</ele>
        <time>2015-10-31T14:53:23Z</time>
      </trkpt>
      <trkpt lat="44.4799" lon="1.64492">
        <ele>196.3</ele>
        <time>2015-10-31T14:53:24Z</time>
      </trkpt>
      <trkpt lat="44.47996" lon="1.64485">
        <ele>196.5</ele>
        <time>2015-10-31T14:53:25Z</time>
      </trkpt>
      <trkpt lat="44.48006" lon="1.64475">
        <ele>196.4</ele>
        <time>2015-10-31T14:53:26Z</time>
      </trkpt>
      <trkpt lat="44.48013" lon="1.64466">
        <ele>196.5</ele>
        <time>2015-10-31T14:53:27Z</time>
      </trkpt>
      <trkpt lat="44.48016" lon="1.64455">
        <ele>197.2</ele>
        <time>2015-10-31T14:53:28Z</time>
      </trkpt>
      <trkpt lat="44.48024" lon="1.64444">
        <ele>196.7</ele>
        <time>2015-10-31T14:53:29Z</time>
      </trkpt>
      <trkpt lat="44.48024" lon="1.64432">
        <ele>197.3</ele>
        <time>2015-10-31T14:53:30Z</time>
      </trkpt>
      <trkpt lat="44.48029" lon="1.64422">
        <ele>196.8</ele>
        <time>2015-10-31T14:53:31Z</time>
      </trkpt>
      <trkpt lat="44.48041" lon="1.64416">
        <ele>194.7</ele>
        <time>2015-10-31T14:53:32Z</time>
      </trkpt>
      <trkpt lat="44.48054" lon="1.644">
        <ele>193</ele>
        <time>2015-10-31T14:53:33Z</time>
      </trkpt>
      <trkpt lat="44.48064" lon="1.64391">
        <ele>191.8</ele>
        <time>2015-10-31T14:53:34Z</time>
      </trkpt>
      <trkpt lat="44.48072" lon="1.6438">
        <ele>191</ele>
        <time>2015-10-31T14:53:35Z</time>
      </trkpt>
      <trkpt lat="44.48078" lon="1.64371">
        <ele>190.3</ele>
        <time>2015-10-31T14:53:36Z</time>
      </trkpt>
      <trkpt lat="44.48082" lon="1.64359">
        <ele>189.9</ele>
        <time>2015-10-31T14:53:37Z</time>
      </trkpt>
      <trkpt lat="44.48087" lon="1.64347">
        <ele>189.2</ele>
        <time>2015-10-31T14:53:38Z</time>
      </trkpt>
      <trkpt lat="44.48096" lon="1.6434">
        <ele>187.9</ele>
        <time>2015-10-31T14:53:39Z</time>
      </trkpt>
      <trkpt lat="44.48105" lon="1.64336">
        <ele>186.6</ele>
        <time>2015-10-31T14:53:40Z</time>
      </trkpt>
      <trkpt lat="44.48113" lon="1.64335">
        <ele>185.4</ele>
        <time>2015-10-31T14:53:41Z</time>
      </trkpt>
      <trkpt lat="44.48124" lon="1.64337">
        <ele>183.7</ele>
        <time>2015-10-31T14:53:42Z</time>
      </trkpt>
      <trkpt lat="44.48138" lon="1.64332">
        <ele>181.7</ele>
        <time>2015-10-31T14:53:43Z</time>
      </trkpt>
      <trkpt lat="44.4815" lon="1.64331">
        <ele>180.1</ele>
        <time>2015-10-31T14:53:44Z</time>
      </trkpt>
      <trkpt lat="44.48156" lon="1.6434">
        <ele>179.2</ele>
        <time>2015-10-31T14:53:45Z</time>
      </trkpt>
      <trkpt lat="44.48164" lon="1.64335">
        <ele>178.1</ele>
        <time>2015-10-31T14:53:46Z</time>
      </trkpt>
      <trkpt lat="44.48172" lon="1.64333">
        <ele>177</ele>
        <time>2015-10-31T14:53:47Z</time>
      </trkpt>
      <trkpt lat="44.48177" lon="1.64326">
        <ele>176.4</ele>
        <time>2015-10-31T14:53:48Z</time>
      </trkpt>
      <trkpt lat="44.48182" lon="1.64318">
        <ele>175.7</ele>
        <time>2015-10-31T14:53:49Z</time>
      </trkpt>
      <trkpt lat="44.48187" lon="1.64309">
        <ele>175</ele>
        <time>2015-10-31T14:53:50Z</time>
      </trkpt>
      <trkpt lat="44.48185" lon="1.64294">
        <ele>175.4</ele>
        <time>2015-10-31T14:53:51Z</time>
      </trkpt>
      <trkpt lat="44.48188" lon="1.6428">
        <ele>173.8</ele>
        <time>2015-10-31T14:53:52Z</time>
      </trkpt>
      <trkpt lat="44.48187" lon="1.64265">
        <ele>172.6</ele>
        <time>2015-10-31T14:53:53Z</time>
      </trkpt>
      <trkpt lat="44.48184" lon="1.64248">
        <ele>171.4</ele>
        <time>2015-10-31T14:53:54Z</time>
      </trkpt>
      <trkpt lat="44.48182" lon="1.64232">
        <ele>170.2</ele>
        <time>2015-10-31T14:53:55Z</time>
      </trkpt>
      <trkpt lat="44.48181" lon="1.64218">
        <ele>169</ele>
        <time>2015-10-31T14:53:56Z</time>
      </trkpt>
      <trkpt lat="44.48181" lon="1.64202">
        <ele>167.7</ele>
        <time>2015-10-31T14:53:57Z</time>
      </trkpt>
      <trkpt lat="44.4818" lon="1.64189">
        <ele>166.6</ele>
        <time>2015-10-31T14:53:58Z</time>
      </trkpt>
      <trkpt lat="44.48175" lon="1.64176">
        <ele>166</ele>
        <time>2015-10-31T14:53:59Z</time>
      </trkpt>
      <trkpt lat="44.48171" lon="1.64162">
        <ele>165.2</ele>
        <time>2015-10-31T14:54:00Z</time>
      </trkpt>
      <trkpt lat="44.48166" lon="1.64147">
        <ele>164</ele>
        <time>2015-10-31T14:54:01Z</time>
      </trkpt>
      <trkpt lat="44.48159" lon="1.64134">
        <ele>163.4</ele>
        <time>2015-10-31T14:54:02Z</time>
      </trkpt>
      <trkpt lat="44.48152" lon="1.64123">
        <ele>163.1</ele>
        <time>2015-10-31T14:54:03Z</time>
      </trkpt>
      <trkpt lat="44.48147" lon="1.64113">
        <ele>163.9</ele>
        <time>2015-10-31T14:54:04Z</time>
      </trkpt>
      <trkpt lat="44.4814" lon="1.64104">
        <ele>164.7</ele>
        <time>2015-10-31T14:54:05Z</time>
      </trkpt>
      <trkpt lat="44.4813" lon="1.641">
        <ele>165.6</ele>
        <time>2015-10-31T14:54:06Z</time>
      </trkpt>
      <trkpt lat="44.48121" lon="1.64093">
        <ele>166.3</ele>
        <time>2015-10-31T14:54:07Z</time>
      </trkpt>
      <trkpt lat="44.48113" lon="1.64088">
        <ele>166.6</ele>
        <time>2015-10-31T14:54:08Z</time>
      </trkpt>
      <trkpt lat="44.48107" lon="1.64081">
        <ele>166.8</ele>
        <time>2015-10-31T14:54:09Z</time>
      </trkpt>
      <trkpt lat="44.48101" lon="1.64071">
        <ele>166.8</ele>
        <time>2015-10-31T14:54:10Z</time>
      </trkpt>
      <trkpt lat="44.48096" lon="1.64059">
        <ele>166.4</ele>
        <time>2015-10-31T14:54:11Z</time>
      </trkpt>
      <trkpt lat="44.48093" lon="1.64051">
        <ele>166.1</ele>
        <time>2015-10-31T14:54:12Z</time>
      </trkpt>
      <trkpt lat="44.48097" lon="1.6404">
        <ele>165.8</ele>
        <time>2015-10-31T14:54:13Z</time>
      </trkpt>
      <trkpt lat="44.48102" lon="1.64034">
        <ele>166.6</ele>
        <time>2015-10-31T14:54:14Z</time>
      </trkpt>
      <trkpt lat="44.48111" lon="1.64031">
        <ele>167.2</ele>
        <time>2015-10-31T14:54:15Z</time>
      </trkpt>
      <trkpt lat="44.48117" lon="1.64029">
        <ele>167.5</ele>
        <time>2015-10-31T14:54:16Z</time>
      </trkpt>
      <trkpt lat="44.48124" lon="1.64033">
        <ele>167.3</ele>
        <time>2015-10-31T14:54:17Z</time>
      </trkpt>
      <trkpt lat="44.48132" lon="1.64036">
        <ele>166.6</ele>
        <time>2015-10-31T14:54:18Z</time>
      </trkpt>
      <trkpt lat="44.48136" lon="1.64043">
        <ele>165.7</ele>
        <time>2015-10-31T14:54:19Z</time>
      </trkpt>
      <trkpt lat="44.48134" lon="1.64046">
        <ele>165.7</ele>
        <time>2015-10-31T14:54:20Z</time>
      </trkpt>
      <trkpt lat="44.48136" lon="1.64048">
        <ele>165.7</ele>
        <time>2015-10-31T14:54:22Z</time>
      </trkpt>
      <trkpt lat="44.48138" lon="1.64045">
        <ele>165.6</ele>
        <time>2015-10-31T14:54:47Z</time>
      </trkpt>
      <trkpt lat="44.48144" lon="1.64047">
        <ele>165.5</ele>
        <time>2015-10-31T14:54:52Z</time>
      </trkpt>
      <trkpt lat="44.48147" lon="1.64049">
        <ele>165.3</ele>
        <time>2015-10-31T14:54:53Z</time>
      </trkpt>
      <trkpt lat="44.48154" lon="1.64054">
        <ele>164.9</ele>
        <time>2015-10-31T14:54:55Z</time>
      </trkpt>
      <trkpt lat="44.48158" lon="1.64056">
        <ele>164.7</ele>
        <time>2015-10-31T14:54:56Z</time>
      </trkpt>
      <trkpt lat="44.48166" lon="1.64068">
        <ele>163.9</ele>
        <time>2015-10-31T14:54:57Z</time>
      </trkpt>
      <trkpt lat="44.48169" lon="1.64073">
        <ele>163.6</ele>
        <time>2015-10-31T14:54:58Z</time>
      </trkpt>
      <trkpt lat="44.48173" lon="1.64076">
        <ele>163.2</ele>
        <time>2015-10-31T14:54:59Z</time>
      </trkpt>
      <trkpt lat="44.48177" lon="1.64079">
        <ele>162.8</ele>
        <time>2015-10-31T14:55:00Z</time>
      </trkpt>
      <trkpt lat="44.48181" lon="1.64087">
        <ele>162.1</ele>
        <time>2015-10-31T14:55:01Z</time>
      </trkpt>
      <trkpt lat="44.48186" lon="1.64092">
        <ele>161.4</ele>
        <time>2015-10-31T14:55:02Z</time>
      </trkpt>
      <trkpt lat="44.48187" lon="1.64097">
        <ele>161</ele>
        <time>2015-10-31T14:55:03Z</time>
      </trkpt>
      <trkpt lat="44.48189" lon="1.64104">
        <ele>160.4</ele>
        <time>2015-10-31T14:55:04Z</time>
      </trkpt>
      <trkpt lat="44.48195" lon="1.64109">
        <ele>159.6</ele>
        <time>2015-10-31T14:55:05Z</time>
      </trkpt>
      <trkpt lat="44.48198" lon="1.64116">
        <ele>158.8</ele>
        <time>2015-10-31T14:55:06Z</time>
      </trkpt>
      <trkpt lat="44.48202" lon="1.64118">
        <ele>158.2</ele>
        <time>2015-10-31T14:55:07Z</time>
      </trkpt>
      <trkpt lat="44.48205" lon="1.64124">
        <ele>157.5</ele>
        <time>2015-10-31T14:55:08Z</time>
      </trkpt>
      <trkpt lat="44.48208" lon="1.64131">
        <ele>157.5</ele>
        <time>2015-10-31T14:55:09Z</time>
      </trkpt>
      <trkpt lat="44.48211" lon="1.64135">
        <ele>157.8</ele>
        <time>2015-10-31T14:55:10Z</time>
      </trkpt>
      <trkpt lat="44.48217" lon="1.64142">
        <ele>158.4</ele>
        <time>2015-10-31T14:55:11Z</time>
      </trkpt>
      <trkpt lat="44.4822" lon="1.64148">
        <ele>158.7</ele>
        <time>2015-10-31T14:55:12Z</time>
      </trkpt>
      <trkpt lat="44.48222" lon="1.64153">
        <ele>159</ele>
        <time>2015-10-31T14:55:13Z</time>
      </trkpt>
      <trkpt lat="44.48223" lon="1.64161">
        <ele>159.4</ele>
        <time>2015-10-31T14:55:14Z</time>
      </trkpt>
      <trkpt lat="44.48226" lon="1.6417">
        <ele>159.7</ele>
        <time>2015-10-31T14:55:15Z</time>
      </trkpt>
      <trkpt lat="44.48228" lon="1.64177">
        <ele>159.9</ele>
        <time>2015-10-31T14:55:16Z</time>
      </trkpt>
      <trkpt lat="44.48234" lon="1.64185">
        <ele>159.9</ele>
        <time>2015-10-31T14:55:17Z</time>
      </trkpt>
      <trkpt lat="44.48236" lon="1.64195">
        <ele>160</ele>
        <time>2015-10-31T14:55:18Z</time>
      </trkpt>
      <trkpt lat="44.48238" lon="1.64201">
        <ele>160</ele>
        <time>2015-10-31T14:55:19Z</time>
      </trkpt>
      <trkpt lat="44.4824" lon="1.64209">
        <ele>160</ele>
        <time>2015-10-31T14:55:20Z</time>
      </trkpt>
      <trkpt lat="44.48245" lon="1.64218">
        <ele>160.1</ele>
        <time>2015-10-31T14:55:21Z</time>
      </trkpt>
      <trkpt lat="44.4825" lon="1.64224">
        <ele>159.9</ele>
        <time>2015-10-31T14:55:22Z</time>
      </trkpt>
      <trkpt lat="44.48253" lon="1.64233">
        <ele>160</ele>
        <time>2015-10-31T14:55:23Z</time>
      </trkpt>
      <trkpt lat="44.48256" lon="1.64242">
        <ele>159.9</ele>
        <time>2015-10-31T14:55:24Z</time>
      </trkpt>
      <trkpt lat="44.48261" lon="1.6425">
        <ele>159.7</ele>
        <time>2015-10-31T14:55:25Z</time>
      </trkpt>
      <trkpt lat="44.48265" lon="1.64258">
        <ele>159.3</ele>
        <time>2015-10-31T14:55:26Z</time>
      </trkpt>
      <trkpt lat="44.48269" lon="1.64265">
        <ele>158.8</ele>
        <time>2015-10-31T14:55:27Z</time>
      </trkpt>
      <trkpt lat="44.48272" lon="1.64274">
        <ele>158.5</ele>
        <time>2015-10-31T14:55:28Z</time>
      </trkpt>
      <trkpt lat="44.48279" lon="1.64279">
        <ele>157.4</ele>
        <time>2015-10-31T14:55:29Z</time>
      </trkpt>
      <trkpt lat="44.48284" lon="1.64286">
        <ele>156.5</ele>
        <time>2015-10-31T14:55:30Z</time>
      </trkpt>
      <trkpt lat="44.48288" lon="1.64292">
        <ele>155.8</ele>
        <time>2015-10-31T14:55:31Z</time>
      </trkpt>
      <trkpt lat="44.48291" lon="1.64299">
        <ele>155.5</ele>
        <time>2015-10-31T14:55:32Z</time>
      </trkpt>
      <trkpt lat="44.48299" lon="1.64304">
        <ele>155.1</ele>
        <time>2015-10-31T14:55:33Z</time>
      </trkpt>
      <trkpt lat="44.48302" lon="1.64311">
        <ele>155.1</ele>
        <time>2015-10-31T14:55:34Z</time>
      </trkpt>
      <trkpt lat="44.48304" lon="1.6432">
        <ele>155.2</ele>
        <time>2015-10-31T14:55:35Z</time>
      </trkpt>
      <trkpt lat="44.48304" lon="1.64326">
        <ele>155.4</ele>
        <time>2015-10-31T14:55:36Z</time>
      </trkpt>
      <trkpt lat="44.48305" lon="1.64331">
        <ele>155.3</ele>
        <time>2015-10-31T14:55:37Z</time>
      </trkpt>
      <trkpt lat="44.48307" lon="1.64334">
        <ele>155.2</ele>
        <time>2015-10-31T14:55:38Z</time>
      </trkpt>
      <trkpt lat="44.48309" lon="1.64338">
        <ele>155</ele>
        <time>2015-10-31T14:55:40Z</time>
      </trkpt>
      <trkpt lat="44.48311" lon="1.64341">
        <ele>154.8</ele>
        <time>2015-10-31T14:55:47Z</time>
      </trkpt>
      <trkpt lat="44.48312" lon="1.64344">
        <ele>154.6</ele>
        <time>2015-10-31T14:55:49Z</time>
      </trkpt>
      <trkpt lat="44.48314" lon="1.64349">
        <ele>154.3</ele>
        <time>2015-10-31T14:55:51Z</time>
      </trkpt>
      <trkpt lat="44.48317" lon="1.64353">
        <ele>153.9</ele>
        <time>2015-10-31T14:55:53Z</time>
      </trkpt>
      <trkpt lat="44.48321" lon="1.64358">
        <ele>153.2</ele>
        <time>2015-10-31T14:55:55Z</time>
      </trkpt>
      <trkpt lat="44.48325" lon="1.64363">
        <ele>152.4</ele>
        <time>2015-10-31T14:55:57Z</time>
      </trkpt>
      <trkpt lat="44.48329" lon="1.64367">
        <ele>151.5</ele>
        <time>2015-10-31T14:55:59Z</time>
      </trkpt>
      <trkpt lat="44.48333" lon="1.64369">
        <ele>150.7</ele>
        <time>2015-10-31T14:56:01Z</time>
      </trkpt>
      <trkpt lat="44.48337" lon="1.6437">
        <ele>150</ele>
        <time>2015-10-31T14:56:04Z</time>
      </trkpt>
      <trkpt lat="44.48339" lon="1.64371">
        <ele>149.5</ele>
        <time>2015-10-31T14:56:07Z</time>
      </trkpt>
      <trkpt lat="44.48343" lon="1.64371">
        <ele>148.8</ele>
        <time>2015-10-31T14:56:09Z</time>
      </trkpt>
      <trkpt lat="44.48348" lon="1.64368">
        <ele>148</ele>
        <time>2015-10-31T14:56:11Z</time>
      </trkpt>
      <trkpt lat="44.48351" lon="1.64367">
        <ele>147.4</ele>
        <time>2015-10-31T14:56:12Z</time>
      </trkpt>
      <trkpt lat="44.48359" lon="1.64368">
        <ele>145.9</ele>
        <time>2015-10-31T14:56:14Z</time>
      </trkpt>
      <trkpt lat="44.48363" lon="1.64369">
        <ele>145</ele>
        <time>2015-10-31T14:56:15Z</time>
      </trkpt>
      <trkpt lat="44.48366" lon="1.6437">
        <ele>144.3</ele>
        <time>2015-10-31T14:56:16Z</time>
      </trkpt>
      <trkpt lat="44.48369" lon="1.64373">
        <ele>143.4</ele>
        <time>2015-10-31T14:56:17Z</time>
      </trkpt>
      <trkpt lat="44.48372" lon="1.64375">
        <ele>142.7</ele>
        <time>2015-10-31T14:56:18Z</time>
      </trkpt>
      <trkpt lat="44.48375" lon="1.64378">
        <ele>141.8</ele>
        <time>2015-10-31T14:56:20Z</time>
      </trkpt>
      <trkpt lat="44.48379" lon="1.64379">
        <ele>141.7</ele>
        <time>2015-10-31T14:56:22Z</time>
      </trkpt>
      <trkpt lat="44.48381" lon="1.64383">
        <ele>141.4</ele>
        <time>2015-10-31T14:56:27Z</time>
      </trkpt>
      <trkpt lat="44.48383" lon="1.64387">
        <ele>141.1</ele>
        <time>2015-10-31T14:56:32Z</time>
      </trkpt>
      <trkpt lat="44.48384" lon="1.64391">
        <ele>140.8</ele>
        <time>2015-10-31T14:56:35Z</time>
      </trkpt>
      <trkpt lat="44.48386" lon="1.64394">
        <ele>140.6</ele>
        <time>2015-10-31T14:56:37Z</time>
      </trkpt>
      <trkpt lat="44.48389" lon="1.64396">
        <ele>140.4</ele>
        <time>2015-10-31T14:56:39Z</time>
      </trkpt>
      <trkpt lat="44.48391" lon="1.64396">
        <ele>140.3</ele>
        <time>2015-10-31T14:56:41Z</time>
      </trkpt>
      <trkpt lat="44.48389" lon="1.64394">
        <ele>140.5</ele>
        <time>2015-10-31T14:56:45Z</time>
      </trkpt>
      <trkpt lat="44.48387" lon="1.64397">
        <ele>140.3</ele>
        <time>2015-10-31T14:56:59Z</time>
      </trkpt>
      <trkpt lat="44.4839" lon="1.64399">
        <ele>140.1</ele>
        <time>2015-10-31T14:57:02Z</time>
      </trkpt>
      <trkpt lat="44.48393" lon="1.64401">
        <ele>139.9</ele>
        <time>2015-10-31T14:57:08Z</time>
      </trkpt>
      <trkpt lat="44.48394" lon="1.64406">
        <ele>139.6</ele>
        <time>2015-10-31T14:57:10Z</time>
      </trkpt>
      <trkpt lat="44.48396" lon="1.6441">
        <ele>139.3</ele>
        <time>2015-10-31T14:57:11Z</time>
      </trkpt>
      <trkpt lat="44.48398" lon="1.64414">
        <ele>139</ele>
        <time>2015-10-31T14:57:12Z</time>
      </trkpt>
      <trkpt lat="44.48401" lon="1.64417">
        <ele>138.7</ele>
        <time>2015-10-31T14:57:13Z</time>
      </trkpt>
      <trkpt lat="44.48403" lon="1.64419">
        <ele>138.5</ele>
        <time>2015-10-31T14:57:14Z</time>
      </trkpt>
      <trkpt lat="44.48406" lon="1.64423">
        <ele>138.2</ele>
        <time>2015-10-31T14:57:16Z</time>
      </trkpt>
      <trkpt lat="44.48408" lon="1.64429">
        <ele>137.7</ele>
        <time>2015-10-31T14:57:26Z</time>
      </trkpt>
      <trkpt lat="44.48411" lon="1.64433">
        <ele>137.4</ele>
        <time>2015-10-31T14:57:28Z</time>
      </trkpt>
      <trkpt lat="44.48414" lon="1.64437">
        <ele>137</ele>
        <time>2015-10-31T14:57:30Z</time>
      </trkpt>
      <trkpt lat="44.48416" lon="1.6444">
        <ele>136.7</ele>
        <time>2015-10-31T14:57:31Z</time>
      </trkpt>
      <trkpt lat="44.48419" lon="1.64442">
        <ele>136.5</ele>
        <time>2015-10-31T14:57:32Z</time>
      </trkpt>
      <trkpt lat="44.48424" lon="1.64446">
        <ele>136</ele>
        <time>2015-10-31T14:57:34Z</time>
      </trkpt>
      <trkpt lat="44.48426" lon="1.6445">
        <ele>135.8</ele>
        <time>2015-10-31T14:57:35Z</time>
      </trkpt>
      <trkpt lat="44.48428" lon="1.64457">
        <ele>135.2</ele>
        <time>2015-10-31T14:57:37Z</time>
      </trkpt>
      <trkpt lat="44.48428" lon="1.64465">
        <ele>135</ele>
        <time>2015-10-31T14:57:39Z</time>
      </trkpt>
      <trkpt lat="44.48424" lon="1.64469">
        <ele>135.1</ele>
        <time>2015-10-31T14:57:41Z</time>
      </trkpt>
      <trkpt lat="44.48419" lon="1.64471">
        <ele>135.2</ele>
        <time>2015-10-31T14:57:43Z</time>
      </trkpt>
      <trkpt lat="44.48415" lon="1.64475">
        <ele>135.2</ele>
        <time>2015-10-31T14:57:45Z</time>
      </trkpt>
      <trkpt lat="44.48412" lon="1.64478">
        <ele>135.3</ele>
        <time>2015-10-31T14:57:47Z</time>
      </trkpt>
      <trkpt lat="44.48407" lon="1.64481">
        <ele>135.3</ele>
        <time>2015-10-31T14:57:49Z</time>
      </trkpt>
      <trkpt lat="44.48403" lon="1.64485">
        <ele>135.3</ele>
        <time>2015-10-31T14:57:51Z</time>
      </trkpt>
      <trkpt lat="44.484" lon="1.64488">
        <ele>135.2</ele>
        <time>2015-10-31T14:57:52Z</time>
      </trkpt>
      <trkpt lat="44.48398" lon="1.64491">
        <ele>135.1</ele>
        <time>2015-10-31T14:57:53Z</time>
      </trkpt>
      <trkpt lat="44.48396" lon="1.64498">
        <ele>134.9</ele>
        <time>2015-10-31T14:57:55Z</time>
      </trkpt>
      <trkpt lat="44.48392" lon="1.64503">
        <ele>134.8</ele>
        <time>2015-10-31T14:57:57Z</time>
      </trkpt>
      <trkpt lat="44.48388" lon="1.64507">
        <ele>134.6</ele>
        <time>2015-10-31T14:57:59Z</time>
      </trkpt>
      <trkpt lat="44.48385" lon="1.6451">
        <ele>134.5</ele>
        <time>2015-10-31T14:58:00Z</time>
      </trkpt>
      <trkpt lat="44.48382" lon="1.64512">
        <ele>134.4</ele>
        <time>2015-10-31T14:58:01Z</time>
      </trkpt>
      <trkpt lat="44.48379" lon="1.64514">
        <ele>134.3</ele>
        <time>2015-10-31T14:58:02Z</time>
      </trkpt>
      <trkpt lat="44.48376" lon="1.64517">
        <ele>134.2</ele>
        <time>2015-10-31T14:58:03Z</time>
      </trkpt>
      <trkpt lat="44.48373" lon="1.64519">
        <ele>134.3</ele>
        <time>2015-10-31T14:58:04Z</time>
      </trkpt>
      <trkpt lat="44.48367" lon="1.64522">
        <ele>134.5</ele>
        <time>2015-10-31T14:58:06Z</time>
      </trkpt>
      <trkpt lat="44.48365" lon="1.64524">
        <ele>134.5</ele>
        <time>2015-10-31T14:58:07Z</time>
      </trkpt>
      <trkpt lat="44.48362" lon="1.64527">
        <ele>134.6</ele>
        <time>2015-10-31T14:58:08Z</time>
      </trkpt>
      <trkpt lat="44.4836" lon="1.6453">
        <ele>134.5</ele>
        <time>2015-10-31T14:58:09Z</time>
      </trkpt>
      <trkpt lat="44.48355" lon="1.64535">
        <ele>134.4</ele>
        <time>2015-10-31T14:58:11Z</time>
      </trkpt>
      <trkpt lat="44.48352" lon="1.64537">
        <ele>134.4</ele>
        <time>2015-10-31T14:58:12Z</time>
      </trkpt>
      <trkpt lat="44.48349" lon="1.6454">
        <ele>134.4</ele>
        <time>2015-10-31T14:58:13Z</time>
      </trkpt>
      <trkpt lat="44.48343" lon="1.64543">
        <ele>134.5</ele>
        <time>2015-10-31T14:58:15Z</time>
      </trkpt>
      <trkpt lat="44.4834" lon="1.64543">
        <ele>134.7</ele>
        <time>2015-10-31T14:58:16Z</time>
      </trkpt>
      <trkpt lat="44.48336" lon="1.64545">
        <ele>134.8</ele>
        <time>2015-10-31T14:58:17Z</time>
      </trkpt>
      <trkpt lat="44.4833" lon="1.64547">
        <ele>135</ele>
        <time>2015-10-31T14:58:19Z</time>
      </trkpt>
      <trkpt lat="44.48326" lon="1.64547">
        <ele>135.2</ele>
        <time>2015-10-31T14:58:20Z</time>
      </trkpt>
      <trkpt lat="44.48323" lon="1.64547">
        <ele>135.3</ele>
        <time>2015-10-31T14:58:21Z</time>
      </trkpt>
      <trkpt lat="44.48319" lon="1.64547">
        <ele>135.5</ele>
        <time>2015-10-31T14:58:22Z</time>
      </trkpt>
      <trkpt lat="44.48316" lon="1.64547">
        <ele>135.6</ele>
        <time>2015-10-31T14:58:23Z</time>
      </trkpt>
      <trkpt lat="44.48312" lon="1.64548">
        <ele>135.7</ele>
        <time>2015-10-31T14:58:24Z</time>
      </trkpt>
      <trkpt lat="44.48309" lon="1.64549">
        <ele>135.8</ele>
        <time>2015-10-31T14:58:25Z</time>
      </trkpt>
      <trkpt lat="44.48305" lon="1.64551">
        <ele>135.8</ele>
        <time>2015-10-31T14:58:26Z</time>
      </trkpt>
      <trkpt lat="44.48302" lon="1.64552">
        <ele>135.9</ele>
        <time>2015-10-31T14:58:27Z</time>
      </trkpt>
      <trkpt lat="44.48299" lon="1.64553">
        <ele>136</ele>
        <time>2015-10-31T14:58:28Z</time>
      </trkpt>
      <trkpt lat="44.48296" lon="1.64553">
        <ele>136</ele>
        <time>2015-10-31T14:58:29Z</time>
      </trkpt>
      <trkpt lat="44.48294" lon="1.64554">
        <ele>136</ele>
        <time>2015-10-31T14:58:30Z</time>
      </trkpt>
      <trkpt lat="44.48291" lon="1.64554">
        <ele>136.2</ele>
        <time>2015-10-31T14:58:31Z</time>
      </trkpt>
      <trkpt lat="44.48288" lon="1.64554">
        <ele>136.5</ele>
        <time>2015-10-31T14:58:32Z</time>
      </trkpt>
      <trkpt lat="44.48285" lon="1.64555">
        <ele>136.8</ele>
        <time>2015-10-31T14:58:33Z</time>
      </trkpt>
      <trkpt lat="44.4828" lon="1.64557">
        <ele>137.3</ele>
        <time>2015-10-31T14:58:35Z</time>
      </trkpt>
      <trkpt lat="44.48275" lon="1.64559">
        <ele>137.6</ele>
        <time>2015-10-31T14:58:37Z</time>
      </trkpt>
      <trkpt lat="44.4827" lon="1.64562">
        <ele>137.8</ele>
        <time>2015-10-31T14:58:39Z</time>
      </trkpt>
      <trkpt lat="44.48268" lon="1.64564">
        <ele>137.9</ele>
        <time>2015-10-31T14:58:40Z</time>
      </trkpt>
      <trkpt lat="44.48265" lon="1.64565">
        <ele>138</ele>
        <time>2015-10-31T14:58:41Z</time>
      </trkpt>
      <trkpt lat="44.48259" lon="1.64568">
        <ele>138.3</ele>
        <time>2015-10-31T14:58:43Z</time>
      </trkpt>
      <trkpt lat="44.48256" lon="1.64569">
        <ele>138.5</ele>
        <time>2015-10-31T14:58:44Z</time>
      </trkpt>
      <trkpt lat="44.48253" lon="1.64571">
        <ele>138.6</ele>
        <time>2015-10-31T14:58:45Z</time>
      </trkpt>
      <trkpt lat="44.48247" lon="1.64573">
        <ele>138.9</ele>
        <time>2015-10-31T14:58:47Z</time>
      </trkpt>
      <trkpt lat="44.48243" lon="1.64573">
        <ele>139.2</ele>
        <time>2015-10-31T14:58:48Z</time>
      </trkpt>
      <trkpt lat="44.4824" lon="1.64573">
        <ele>139.5</ele>
        <time>2015-10-31T14:58:49Z</time>
      </trkpt>
      <trkpt lat="44.48236" lon="1.64573">
        <ele>139.9</ele>
        <time>2015-10-31T14:58:50Z</time>
      </trkpt>
      <trkpt lat="44.48233" lon="1.64573">
        <ele>140.1</ele>
        <time>2015-10-31T14:58:51Z</time>
      </trkpt>
      <trkpt lat="44.4823" lon="1.64574">
        <ele>140.3</ele>
        <time>2015-10-31T14:58:52Z</time>
      </trkpt>
      <trkpt lat="44.48223" lon="1.64575">
        <ele>140.6</ele>
        <time>2015-10-31T14:58:54Z</time>
      </trkpt>
      <trkpt lat="44.4822" lon="1.64576">
        <ele>140.9</ele>
        <time>2015-10-31T14:58:55Z</time>
      </trkpt>
      <trkpt lat="44.48216" lon="1.64576">
        <ele>141.1</ele>
        <time>2015-10-31T14:58:56Z</time>
      </trkpt>
      <trkpt lat="44.48213" lon="1.64577">
        <ele>141.3</ele>
        <time>2015-10-31T14:58:57Z</time>
      </trkpt>
      <trkpt lat="44.4821" lon="1.64577">
        <ele>141.5</ele>
        <time>2015-10-31T14:58:58Z</time>
      </trkpt>
      <trkpt lat="44.48206" lon="1.64578">
        <ele>141.9</ele>
        <time>2015-10-31T14:58:59Z</time>
      </trkpt>
      <trkpt lat="44.48203" lon="1.64578">
        <ele>142.5</ele>
        <time>2015-10-31T14:59:00Z</time>
      </trkpt>
      <trkpt lat="44.482" lon="1.64578">
        <ele>143</ele>
        <time>2015-10-31T14:59:01Z</time>
      </trkpt>
      <trkpt lat="44.48197" lon="1.64578">
        <ele>143.5</ele>
        <time>2015-10-31T14:59:02Z</time>
      </trkpt>
      <trkpt lat="44.48194" lon="1.64578">
        <ele>144</ele>
        <time>2015-10-31T14:59:03Z</time>
      </trkpt>
      <trkpt lat="44.4819" lon="1.64577">
        <ele>144.8</ele>
        <time>2015-10-31T14:59:04Z</time>
      </trkpt>
      <trkpt lat="44.48187" lon="1.64577">
        <ele>145.5</ele>
        <time>2015-10-31T14:59:05Z</time>
      </trkpt>
      <trkpt lat="44.48183" lon="1.64578">
        <ele>146</ele>
        <time>2015-10-31T14:59:06Z</time>
      </trkpt>
      <trkpt lat="44.4818" lon="1.64578">
        <ele>146.5</ele>
        <time>2015-10-31T14:59:07Z</time>
      </trkpt>
      <trkpt lat="44.48176" lon="1.64579">
        <ele>146.9</ele>
        <time>2015-10-31T14:59:08Z</time>
      </trkpt>
      <trkpt lat="44.48173" lon="1.6458">
        <ele>147.3</ele>
        <time>2015-10-31T14:59:09Z</time>
      </trkpt>
      <trkpt lat="44.4817" lon="1.64581">
        <ele>147.7</ele>
        <time>2015-10-31T14:59:10Z</time>
      </trkpt>
      <trkpt lat="44.48166" lon="1.64581">
        <ele>148.1</ele>
        <time>2015-10-31T14:59:11Z</time>
      </trkpt>
      <trkpt lat="44.48162" lon="1.64582">
        <ele>148.6</ele>
        <time>2015-10-31T14:59:12Z</time>
      </trkpt>
      <trkpt lat="44.48159" lon="1.64583">
        <ele>149.1</ele>
        <time>2015-10-31T14:59:13Z</time>
      </trkpt>
      <trkpt lat="44.48155" lon="1.64583">
        <ele>149.6</ele>
        <time>2015-10-31T14:59:14Z</time>
      </trkpt>
      <trkpt lat="44.48152" lon="1.64583">
        <ele>150.2</ele>
        <time>2015-10-31T14:59:15Z</time>
      </trkpt>
      <trkpt lat="44.48148" lon="1.64584">
        <ele>150.4</ele>
        <time>2015-10-31T14:59:16Z</time>
      </trkpt>
      <trkpt lat="44.48144" lon="1.64586">
        <ele>150.6</ele>
        <time>2015-10-31T14:59:17Z</time>
      </trkpt>
      <trkpt lat="44.48141" lon="1.64587">
        <ele>150.8</ele>
        <time>2015-10-31T14:59:18Z</time>
      </trkpt>
      <trkpt lat="44.48138" lon="1.64587">
        <ele>151.2</ele>
        <time>2015-10-31T14:59:19Z</time>
      </trkpt>
      <trkpt lat="44.48135" lon="1.64588">
        <ele>151.4</ele>
        <time>2015-10-31T14:59:20Z</time>
      </trkpt>
      <trkpt lat="44.48132" lon="1.64589">
        <ele>151.6</ele>
        <time>2015-10-31T14:59:21Z</time>
      </trkpt>
      <trkpt lat="44.48128" lon="1.6459">
        <ele>151.7</ele>
        <time>2015-10-31T14:59:22Z</time>
      </trkpt>
      <trkpt lat="44.48126" lon="1.64591">
        <ele>152</ele>
        <time>2015-10-31T14:59:23Z</time>
      </trkpt>
      <trkpt lat="44.48121" lon="1.64592">
        <ele>152.3</ele>
        <time>2015-10-31T14:59:24Z</time>
      </trkpt>
      <trkpt lat="44.48118" lon="1.64594">
        <ele>152.4</ele>
        <time>2015-10-31T14:59:25Z</time>
      </trkpt>
      <trkpt lat="44.48115" lon="1.64595">
        <ele>152.5</ele>
        <time>2015-10-31T14:59:26Z</time>
      </trkpt>
      <trkpt lat="44.48111" lon="1.64597">
        <ele>152.7</ele>
        <time>2015-10-31T14:59:27Z</time>
      </trkpt>
      <trkpt lat="44.48108" lon="1.64599">
        <ele>152.9</ele>
        <time>2015-10-31T14:59:28Z</time>
      </trkpt>
      <trkpt lat="44.48104" lon="1.64597">
        <ele>154.1</ele>
        <time>2015-10-31T14:59:29Z</time>
      </trkpt>
      <trkpt lat="44.48101" lon="1.64596">
        <ele>155</ele>
        <time>2015-10-31T14:59:30Z</time>
      </trkpt>
      <trkpt lat="44.48098" lon="1.64596">
        <ele>155.7</ele>
        <time>2015-10-31T14:59:31Z</time>
      </trkpt>
      <trkpt lat="44.48095" lon="1.64597">
        <ele>156</ele>
        <time>2015-10-31T14:59:32Z</time>
      </trkpt>
      <trkpt lat="44.48091" lon="1.64598">
        <ele>156.1</ele>
        <time>2015-10-31T14:59:33Z</time>
      </trkpt>
      <trkpt lat="44.48088" lon="1.646">
        <ele>156.3</ele>
        <time>2015-10-31T14:59:34Z</time>
      </trkpt>
      <trkpt lat="44.48085" lon="1.64601">
        <ele>156.6</ele>
        <time>2015-10-31T14:59:35Z</time>
      </trkpt>
      <trkpt lat="44.48082" lon="1.64602">
        <ele>156.8</ele>
        <time>2015-10-31T14:59:36Z</time>
      </trkpt>
      <trkpt lat="44.48078" lon="1.64605">
        <ele>156.8</ele>
        <time>2015-10-31T14:59:37Z</time>
      </trkpt>
      <trkpt lat="44.48075" lon="1.64606">
        <ele>157</ele>
        <time>2015-10-31T14:59:38Z</time>
      </trkpt>
      <trkpt lat="44.48072" lon="1.64608">
        <ele>157.1</ele>
        <time>2015-10-31T14:59:39Z</time>
      </trkpt>
      <trkpt lat="44.48068" lon="1.64609">
        <ele>157.5</ele>
        <time>2015-10-31T14:59:40Z</time>
      </trkpt>
      <trkpt lat="44.48065" lon="1.64609">
        <ele>158</ele>
        <time>2015-10-31T14:59:41Z</time>
      </trkpt>
      <trkpt lat="44.48061" lon="1.64609">
        <ele>158.8</ele>
        <time>2015-10-31T14:59:42Z</time>
      </trkpt>
      <trkpt lat="44.48058" lon="1.6461">
        <ele>159.2</ele>
        <time>2015-10-31T14:59:43Z</time>
      </trkpt>
      <trkpt lat="44.48053" lon="1.64608">
        <ele>160.7</ele>
        <time>2015-10-31T14:59:44Z</time>
      </trkpt>
      <trkpt lat="44.4805" lon="1.64606">
        <ele>161.8</ele>
        <time>2015-10-31T14:59:45Z</time>
      </trkpt>
      <trkpt lat="44.48047" lon="1.64605">
        <ele>162.7</ele>
        <time>2015-10-31T14:59:46Z</time>
      </trkpt>
      <trkpt lat="44.48044" lon="1.64605">
        <ele>163.3</ele>
        <time>2015-10-31T14:59:47Z</time>
      </trkpt>
      <trkpt lat="44.48041" lon="1.64606">
        <ele>163.5</ele>
        <time>2015-10-31T14:59:48Z</time>
      </trkpt>
      <trkpt lat="44.48037" lon="1.64609">
        <ele>163.3</ele>
        <time>2015-10-31T14:59:50Z</time>
      </trkpt>
      <trkpt lat="44.48033" lon="1.64611">
        <ele>163.4</ele>
        <time>2015-10-31T14:59:52Z</time>
      </trkpt>
      <trkpt lat="44.48029" lon="1.64607">
        <ele>165</ele>
        <time>2015-10-31T14:59:54Z</time>
      </trkpt>
      <trkpt lat="44.48025" lon="1.64603">
        <ele>166.9</ele>
        <time>2015-10-31T14:59:56Z</time>
      </trkpt>
      <trkpt lat="44.48022" lon="1.64601">
        <ele>167.8</ele>
        <time>2015-10-31T14:59:57Z</time>
      </trkpt>
      <trkpt lat="44.48019" lon="1.64599">
        <ele>168.6</ele>
        <time>2015-10-31T14:59:58Z</time>
      </trkpt>
      <trkpt lat="44.48013" lon="1.64598">
        <ele>169.7</ele>
        <time>2015-10-31T15:00:00Z</time>
      </trkpt>
      <trkpt lat="44.48011" lon="1.64599">
        <ele>170.1</ele>
        <time>2015-10-31T15:00:01Z</time>
      </trkpt>
      <trkpt lat="44.48008" lon="1.64598">
        <ele>170.6</ele>
        <time>2015-10-31T15:00:02Z</time>
      </trkpt>
      <trkpt lat="44.48005" lon="1.64598">
        <ele>171</ele>
        <time>2015-10-31T15:00:03Z</time>
      </trkpt>
      <trkpt lat="44.48002" lon="1.64598">
        <ele>171.4</ele>
        <time>2015-10-31T15:00:04Z</time>
      </trkpt>
      <trkpt lat="44.47997" lon="1.64596">
        <ele>172.8</ele>
        <time>2015-10-31T15:00:06Z</time>
      </trkpt>
      <trkpt lat="44.47993" lon="1.6459">
        <ele>175</ele>
        <time>2015-10-31T15:00:08Z</time>
      </trkpt>
      <trkpt lat="44.47991" lon="1.64587">
        <ele>176.2</ele>
        <time>2015-10-31T15:00:09Z</time>
      </trkpt>
      <trkpt lat="44.47989" lon="1.64584">
        <ele>177.4</ele>
        <time>2015-10-31T15:00:10Z</time>
      </trkpt>
      <trkpt lat="44.47984" lon="1.64582">
        <ele>178.8</ele>
        <time>2015-10-31T15:00:12Z</time>
      </trkpt>
      <trkpt lat="44.47979" lon="1.64581">
        <ele>179.8</ele>
        <time>2015-10-31T15:00:14Z</time>
      </trkpt>
      <trkpt lat="44.47975" lon="1.64578">
        <ele>181.2</ele>
        <time>2015-10-31T15:00:16Z</time>
      </trkpt>
      <trkpt lat="44.47973" lon="1.64573">
        <ele>183</ele>
        <time>2015-10-31T15:00:17Z</time>
      </trkpt>
      <trkpt lat="44.47972" lon="1.64569">
        <ele>184.2</ele>
        <time>2015-10-31T15:00:18Z</time>
      </trkpt>
      <trkpt lat="44.47969" lon="1.64564">
        <ele>186</ele>
        <time>2015-10-31T15:00:20Z</time>
      </trkpt>
      <trkpt lat="44.47964" lon="1.64561">
        <ele>187.7</ele>
        <time>2015-10-31T15:00:22Z</time>
      </trkpt>
      <trkpt lat="44.47961" lon="1.6456">
        <ele>188.4</ele>
        <time>2015-10-31T15:00:23Z</time>
      </trkpt>
      <trkpt lat="44.47958" lon="1.6456">
        <ele>188.9</ele>
        <time>2015-10-31T15:00:24Z</time>
      </trkpt>
      <trkpt lat="44.47955" lon="1.64559">
        <ele>189.1</ele>
        <time>2015-10-31T15:00:25Z</time>
      </trkpt>
      <trkpt lat="44.47951" lon="1.64558">
        <ele>189.7</ele>
        <time>2015-10-31T15:00:27Z</time>
      </trkpt>
      <trkpt lat="44.47947" lon="1.6456">
        <ele>189.4</ele>
        <time>2015-10-31T15:00:33Z</time>
      </trkpt>
      <trkpt lat="44.47945" lon="1.64563">
        <ele>188.7</ele>
        <time>2015-10-31T15:00:36Z</time>
      </trkpt>
      <trkpt lat="44.47942" lon="1.64567">
        <ele>187.5</ele>
        <time>2015-10-31T15:00:38Z</time>
      </trkpt>
      <trkpt lat="44.47939" lon="1.6457">
        <ele>186.7</ele>
        <time>2015-10-31T15:00:39Z</time>
      </trkpt>
      <trkpt lat="44.47935" lon="1.6457">
        <ele>186.5</ele>
        <time>2015-10-31T15:00:40Z</time>
      </trkpt>
      <trkpt lat="44.47931" lon="1.64571">
        <ele>186.6</ele>
        <time>2015-10-31T15:00:41Z</time>
      </trkpt>
      <trkpt lat="44.47927" lon="1.6457">
        <ele>186.8</ele>
        <time>2015-10-31T15:00:42Z</time>
      </trkpt>
      <trkpt lat="44.47924" lon="1.6457">
        <ele>186.9</ele>
        <time>2015-10-31T15:00:43Z</time>
      </trkpt>
      <trkpt lat="44.4792" lon="1.64571">
        <ele>186.9</ele>
        <time>2015-10-31T15:00:44Z</time>
      </trkpt>
      <trkpt lat="44.47916" lon="1.64571">
        <ele>187</ele>
        <time>2015-10-31T15:00:45Z</time>
      </trkpt>
      <trkpt lat="44.47913" lon="1.64571">
        <ele>187</ele>
        <time>2015-10-31T15:00:46Z</time>
      </trkpt>
      <trkpt lat="44.4791" lon="1.64571">
        <ele>187.2</ele>
        <time>2015-10-31T15:00:47Z</time>
      </trkpt>
      <trkpt lat="44.47906" lon="1.64571">
        <ele>187</ele>
        <time>2015-10-31T15:00:48Z</time>
      </trkpt>
      <trkpt lat="44.47903" lon="1.64572">
        <ele>186.8</ele>
        <time>2015-10-31T15:00:49Z</time>
      </trkpt>
      <trkpt lat="44.479" lon="1.64572">
        <ele>186.8</ele>
        <time>2015-10-31T15:00:50Z</time>
      </trkpt>
      <trkpt lat="44.47897" lon="1.64573">
        <ele>186.7</ele>
        <time>2015-10-31T15:00:51Z</time>
      </trkpt>
      <trkpt lat="44.47894" lon="1.64572">
        <ele>187.1</ele>
        <time>2015-10-31T15:00:52Z</time>
      </trkpt>
      <trkpt lat="44.47892" lon="1.64571">
        <ele>187.9</ele>
        <time>2015-10-31T15:00:53Z</time>
      </trkpt>
      <trkpt lat="44.47889" lon="1.64568">
        <ele>189.3</ele>
        <time>2015-10-31T15:00:54Z</time>
      </trkpt>
      <trkpt lat="44.47887" lon="1.64565">
        <ele>190.9</ele>
        <time>2015-10-31T15:00:55Z</time>
      </trkpt>
      <trkpt lat="44.47885" lon="1.64561">
        <ele>192.6</ele>
        <time>2015-10-31T15:00:56Z</time>
      </trkpt>
      <trkpt lat="44.47883" lon="1.64559">
        <ele>194</ele>
        <time>2015-10-31T15:00:57Z</time>
      </trkpt>
      <trkpt lat="44.47881" lon="1.64556">
        <ele>195.3</ele>
        <time>2015-10-31T15:00:58Z</time>
      </trkpt>
      <trkpt lat="44.47879" lon="1.64554">
        <ele>196.7</ele>
        <time>2015-10-31T15:00:59Z</time>
      </trkpt>
      <trkpt lat="44.47876" lon="1.6455">
        <ele>198.8</ele>
        <time>2015-10-31T15:01:01Z</time>
      </trkpt>
      <trkpt lat="44.47872" lon="1.64548">
        <ele>200.4</ele>
        <time>2015-10-31T15:01:04Z</time>
      </trkpt>
      <trkpt lat="44.47869" lon="1.64547">
        <ele>201.6</ele>
        <time>2015-10-31T15:01:06Z</time>
      </trkpt>
      <trkpt lat="44.47866" lon="1.64548">
        <ele>201.6</ele>
        <time>2015-10-31T15:01:08Z</time>
      </trkpt>
      <trkpt lat="44.47863" lon="1.6455">
        <ele>200.8</ele>
        <time>2015-10-31T15:01:10Z</time>
      </trkpt>
      <trkpt lat="44.47861" lon="1.6455">
        <ele>201.5</ele>
        <time>2015-10-31T15:01:12Z</time>
      </trkpt>
      <trkpt lat="44.47856" lon="1.64547">
        <ele>203.9</ele>
        <time>2015-10-31T15:01:14Z</time>
      </trkpt>
      <trkpt lat="44.47851" lon="1.64545">
        <ele>205.9</ele>
        <time>2015-10-31T15:01:16Z</time>
      </trkpt>
      <trkpt lat="44.47848" lon="1.64543">
        <ele>207.5</ele>
        <time>2015-10-31T15:01:17Z</time>
      </trkpt>
      <trkpt lat="44.47845" lon="1.64541">
        <ele>209</ele>
        <time>2015-10-31T15:01:18Z</time>
      </trkpt>
      <trkpt lat="44.47842" lon="1.64539">
        <ele>210.3</ele>
        <time>2015-10-31T15:01:19Z</time>
      </trkpt>
      <trkpt lat="44.47839" lon="1.64537">
        <ele>211.3</ele>
        <time>2015-10-31T15:01:20Z</time>
      </trkpt>
      <trkpt lat="44.47835" lon="1.64537">
        <ele>212.2</ele>
        <time>2015-10-31T15:01:22Z</time>
      </trkpt>
      <trkpt lat="44.4783" lon="1.64537">
        <ele>213.3</ele>
        <time>2015-10-31T15:01:24Z</time>
      </trkpt>
      <trkpt lat="44.47825" lon="1.64534">
        <ele>215.2</ele>
        <time>2015-10-31T15:01:26Z</time>
      </trkpt>
      <trkpt lat="44.47823" lon="1.64532">
        <ele>216.3</ele>
        <time>2015-10-31T15:01:27Z</time>
      </trkpt>
      <trkpt lat="44.4782" lon="1.64531">
        <ele>217.1</ele>
        <time>2015-10-31T15:01:28Z</time>
      </trkpt>
      <trkpt lat="44.47815" lon="1.64532">
        <ele>217.8</ele>
        <time>2015-10-31T15:01:30Z</time>
      </trkpt>
      <trkpt lat="44.47811" lon="1.64531">
        <ele>218.9</ele>
        <time>2015-10-31T15:01:32Z</time>
      </trkpt>
      <trkpt lat="44.47807" lon="1.6453">
        <ele>220.2</ele>
        <time>2015-10-31T15:01:34Z</time>
      </trkpt>
      <trkpt lat="44.47804" lon="1.64527">
        <ele>221.7</ele>
        <time>2015-10-31T15:01:36Z</time>
      </trkpt>
      <trkpt lat="44.47802" lon="1.64524">
        <ele>223.3</ele>
        <time>2015-10-31T15:01:38Z</time>
      </trkpt>
      <trkpt lat="44.47799" lon="1.64522">
        <ele>224.5</ele>
        <time>2015-10-31T15:01:40Z</time>
      </trkpt>
      <trkpt lat="44.47796" lon="1.64522">
        <ele>225.1</ele>
        <time>2015-10-31T15:01:42Z</time>
      </trkpt>
      <trkpt lat="44.47793" lon="1.64522">
        <ele>225.8</ele>
        <time>2015-10-31T15:01:44Z</time>
      </trkpt>
      <trkpt lat="44.4779" lon="1.64522">
        <ele>226</ele>
        <time>2015-10-31T15:01:46Z</time>
      </trkpt>
      <trkpt lat="44.47787" lon="1.64523">
        <ele>225.6</ele>
        <time>2015-10-31T15:01:48Z</time>
      </trkpt>
      <trkpt lat="44.47784" lon="1.64524">
        <ele>225.3</ele>
        <time>2015-10-31T15:01:51Z</time>
      </trkpt>
      <trkpt lat="44.4778" lon="1.64527">
        <ele>224.6</ele>
        <time>2015-10-31T15:01:54Z</time>
      </trkpt>
      <trkpt lat="44.47778" lon="1.64529">
        <ele>224</ele>
        <time>2015-10-31T15:01:56Z</time>
      </trkpt>
      <trkpt lat="44.47775" lon="1.6453">
        <ele>223.6</ele>
        <time>2015-10-31T15:01:58Z</time>
      </trkpt>
      <trkpt lat="44.47772" lon="1.64532">
        <ele>223.1</ele>
        <time>2015-10-31T15:02:00Z</time>
      </trkpt>
      <trkpt lat="44.47769" lon="1.64532">
        <ele>223.1</ele>
        <time>2015-10-31T15:02:02Z</time>
      </trkpt>
      <trkpt lat="44.47766" lon="1.64532">
        <ele>223.1</ele>
        <time>2015-10-31T15:02:04Z</time>
      </trkpt>
      <trkpt lat="44.47763" lon="1.64534">
        <ele>222.6</ele>
        <time>2015-10-31T15:02:08Z</time>
      </trkpt>
      <trkpt lat="44.4776" lon="1.64533">
        <ele>222.9</ele>
        <time>2015-10-31T15:02:11Z</time>
      </trkpt>
      <trkpt lat="44.47756" lon="1.64534">
        <ele>222.8</ele>
        <time>2015-10-31T15:02:13Z</time>
      </trkpt>
      <trkpt lat="44.47754" lon="1.64536">
        <ele>221.9</ele>
        <time>2015-10-31T15:02:15Z</time>
      </trkpt>
      <trkpt lat="44.47751" lon="1.6454">
        <ele>220.5</ele>
        <time>2015-10-31T15:03:28Z</time>
      </trkpt>
      <trkpt lat="44.47748" lon="1.64541">
        <ele>220.3</ele>
        <time>2015-10-31T15:03:31Z</time>
      </trkpt>
      <trkpt lat="44.47745" lon="1.64542">
        <ele>219.8</ele>
        <time>2015-10-31T15:03:33Z</time>
      </trkpt>
      <trkpt lat="44.47741" lon="1.64544">
        <ele>218.8</ele>
        <time>2015-10-31T15:03:35Z</time>
      </trkpt>
      <trkpt lat="44.47737" lon="1.64544">
        <ele>218.6</ele>
        <time>2015-10-31T15:03:37Z</time>
      </trkpt>
      <trkpt lat="44.47733" lon="1.64544">
        <ele>219.1</ele>
        <time>2015-10-31T15:03:39Z</time>
      </trkpt>
      <trkpt lat="44.4773" lon="1.64542">
        <ele>220.1</ele>
        <time>2015-10-31T15:03:41Z</time>
      </trkpt>
      <trkpt lat="44.47726" lon="1.64543">
        <ele>219.9</ele>
        <time>2015-10-31T15:03:43Z</time>
      </trkpt>
      <trkpt lat="44.47722" lon="1.64544">
        <ele>219.3</ele>
        <time>2015-10-31T15:03:45Z</time>
      </trkpt>
      <trkpt lat="44.47718" lon="1.64545">
        <ele>218.9</ele>
        <time>2015-10-31T15:03:47Z</time>
      </trkpt>
      <trkpt lat="44.47714" lon="1.64545">
        <ele>218.9</ele>
        <time>2015-10-31T15:03:49Z</time>
      </trkpt>
      <trkpt lat="44.47711" lon="1.64546">
        <ele>218.1</ele>
        <time>2015-10-31T15:03:51Z</time>
      </trkpt>
      <trkpt lat="44.47708" lon="1.64545">
        <ele>218.9</ele>
        <time>2015-10-31T15:04:26Z</time>
      </trkpt>
      <trkpt lat="44.47706" lon="1.64542">
        <ele>221.4</ele>
        <time>2015-10-31T15:04:28Z</time>
      </trkpt>
      <trkpt lat="44.47707" lon="1.64538">
        <ele>222.9</ele>
        <time>2015-10-31T15:04:31Z</time>
      </trkpt>
      <trkpt lat="44.47704" lon="1.64536">
        <ele>224.2</ele>
        <time>2015-10-31T15:04:38Z</time>
      </trkpt>
      <trkpt lat="44.47701" lon="1.64533">
        <ele>225.6</ele>
        <time>2015-10-31T15:04:43Z</time>
      </trkpt>
      <trkpt lat="44.47708" lon="1.64547">
        <ele>217.7</ele>
        <time>2015-10-31T15:16:57Z</time>
      </trkpt>
      <trkpt lat="44.47712" lon="1.64547">
        <ele>217.6</ele>
        <time>2015-10-31T15:17:01Z</time>
      </trkpt>
      <trkpt lat="44.47715" lon="1.64546">
        <ele>218.1</ele>
        <time>2015-10-31T15:17:04Z</time>
      </trkpt>
      <trkpt lat="44.47718" lon="1.64545">
        <ele>218.5</ele>
        <time>2015-10-31T15:17:07Z</time>
      </trkpt>
      <trkpt lat="44.47721" lon="1.64548">
        <ele>216.5</ele>
        <time>2015-10-31T15:17:11Z</time>
      </trkpt>
      <trkpt lat="44.47724" lon="1.64546">
        <ele>218.1</ele>
        <time>2015-10-31T15:17:14Z</time>
      </trkpt>
      <trkpt lat="44.47725" lon="1.64542">
        <ele>220.5</ele>
        <time>2015-10-31T15:17:15Z</time>
      </trkpt>
      <trkpt lat="44.47728" lon="1.64534">
        <ele>223.6</ele>
        <time>2015-10-31T15:17:17Z</time>
      </trkpt>
      <trkpt lat="44.4773" lon="1.6453">
        <ele>224.9</ele>
        <time>2015-10-31T15:17:19Z</time>
      </trkpt>
      <trkpt lat="44.47733" lon="1.64531">
        <ele>224.5</ele>
        <time>2015-10-31T15:17:21Z</time>
      </trkpt>
      <trkpt lat="44.47736" lon="1.64534">
        <ele>223.3</ele>
        <time>2015-10-31T15:17:24Z</time>
      </trkpt>
      <trkpt lat="44.47738" lon="1.64535">
        <ele>222.8</ele>
        <time>2015-10-31T15:17:28Z</time>
      </trkpt>
      <trkpt lat="44.47741" lon="1.64536">
        <ele>222.3</ele>
        <time>2015-10-31T15:17:32Z</time>
      </trkpt>
      <trkpt lat="44.47744" lon="1.64535">
        <ele>222.7</ele>
        <time>2015-10-31T15:17:35Z</time>
      </trkpt>
      <trkpt lat="44.47747" lon="1.64536">
        <ele>222.4</ele>
        <time>2015-10-31T15:17:39Z</time>
      </trkpt>
      <trkpt lat="44.4775" lon="1.64535">
        <ele>222.6</ele>
        <time>2015-10-31T15:17:42Z</time>
      </trkpt>
      <trkpt lat="44.47753" lon="1.64534">
        <ele>222.8</ele>
        <time>2015-10-31T15:17:45Z</time>
      </trkpt>
      <trkpt lat="44.47757" lon="1.64534">
        <ele>222.6</ele>
        <time>2015-10-31T15:17:48Z</time>
      </trkpt>
      <trkpt lat="44.47759" lon="1.64536">
        <ele>221.9</ele>
        <time>2015-10-31T15:17:50Z</time>
      </trkpt>
      <trkpt lat="44.47762" lon="1.64537">
        <ele>221.3</ele>
        <time>2015-10-31T15:17:52Z</time>
      </trkpt>
      <trkpt lat="44.47765" lon="1.64539">
        <ele>220.7</ele>
        <time>2015-10-31T15:17:54Z</time>
      </trkpt>
      <trkpt lat="44.47768" lon="1.6454">
        <ele>220.2</ele>
        <time>2015-10-31T15:17:57Z</time>
      </trkpt>
      <trkpt lat="44.47772" lon="1.64539">
        <ele>220.4</ele>
        <time>2015-10-31T15:18:00Z</time>
      </trkpt>
      <trkpt lat="44.47775" lon="1.64538">
        <ele>220.6</ele>
        <time>2015-10-31T15:18:03Z</time>
      </trkpt>
      <trkpt lat="44.47778" lon="1.64537">
        <ele>221</ele>
        <time>2015-10-31T15:18:06Z</time>
      </trkpt>
      <trkpt lat="44.47781" lon="1.64534">
        <ele>221.8</ele>
        <time>2015-10-31T15:18:08Z</time>
      </trkpt>
      <trkpt lat="44.47782" lon="1.64531">
        <ele>223.2</ele>
        <time>2015-10-31T15:18:10Z</time>
      </trkpt>
      <trkpt lat="44.47784" lon="1.64527">
        <ele>224.2</ele>
        <time>2015-10-31T15:18:13Z</time>
      </trkpt>
      <trkpt lat="44.47788" lon="1.64533">
        <ele>222.1</ele>
        <time>2015-10-31T15:18:16Z</time>
      </trkpt>
      <trkpt lat="44.4779" lon="1.64537">
        <ele>220.9</ele>
        <time>2015-10-31T15:18:18Z</time>
      </trkpt>
      <trkpt lat="44.47793" lon="1.64536">
        <ele>220.7</ele>
        <time>2015-10-31T15:18:21Z</time>
      </trkpt>
      <trkpt lat="44.47796" lon="1.64539">
        <ele>219.1</ele>
        <time>2015-10-31T15:18:24Z</time>
      </trkpt>
      <trkpt lat="44.47799" lon="1.6454">
        <ele>218.3</ele>
        <time>2015-10-31T15:18:27Z</time>
      </trkpt>
      <trkpt lat="44.47802" lon="1.64541">
        <ele>217.3</ele>
        <time>2015-10-31T15:18:30Z</time>
      </trkpt>
      <trkpt lat="44.47804" lon="1.64544">
        <ele>215.4</ele>
        <time>2015-10-31T15:18:33Z</time>
      </trkpt>
      <trkpt lat="44.47806" lon="1.64547">
        <ele>212.5</ele>
        <time>2015-10-31T15:18:36Z</time>
      </trkpt>
      <trkpt lat="44.47809" lon="1.64546">
        <ele>212.5</ele>
        <time>2015-10-31T15:18:38Z</time>
      </trkpt>
      <trkpt lat="44.47812" lon="1.64544">
        <ele>213.4</ele>
        <time>2015-10-31T15:18:41Z</time>
      </trkpt>
      <trkpt lat="44.47817" lon="1.64544">
        <ele>212.9</ele>
        <time>2015-10-31T15:18:44Z</time>
      </trkpt>
      <trkpt lat="44.47819" lon="1.64543">
        <ele>212.8</ele>
        <time>2015-10-31T15:18:46Z</time>
      </trkpt>
      <trkpt lat="44.47822" lon="1.64543">
        <ele>212.4</ele>
        <time>2015-10-31T15:18:48Z</time>
      </trkpt>
      <trkpt lat="44.47826" lon="1.64543">
        <ele>211.8</ele>
        <time>2015-10-31T15:18:51Z</time>
      </trkpt>
      <trkpt lat="44.4783" lon="1.64539">
        <ele>212.5</ele>
        <time>2015-10-31T15:18:54Z</time>
      </trkpt>
      <trkpt lat="44.47833" lon="1.6454">
        <ele>211.9</ele>
        <time>2015-10-31T15:18:56Z</time>
      </trkpt>
      <trkpt lat="44.47835" lon="1.64541">
        <ele>210.7</ele>
        <time>2015-10-31T15:18:58Z</time>
      </trkpt>
      <trkpt lat="44.47839" lon="1.64541">
        <ele>210.2</ele>
        <time>2015-10-31T15:19:01Z</time>
      </trkpt>
      <trkpt lat="44.47842" lon="1.6454">
        <ele>210</ele>
        <time>2015-10-31T15:19:03Z</time>
      </trkpt>
      <trkpt lat="44.47844" lon="1.64542">
        <ele>208.8</ele>
        <time>2015-10-31T15:19:05Z</time>
      </trkpt>
      <trkpt lat="44.47848" lon="1.64542">
        <ele>208.1</ele>
        <time>2015-10-31T15:19:07Z</time>
      </trkpt>
      <trkpt lat="44.47851" lon="1.64543">
        <ele>206.8</ele>
        <time>2015-10-31T15:19:09Z</time>
      </trkpt>
      <trkpt lat="44.47854" lon="1.64544">
        <ele>205.8</ele>
        <time>2015-10-31T15:19:11Z</time>
      </trkpt>
      <trkpt lat="44.47857" lon="1.64546">
        <ele>203.9</ele>
        <time>2015-10-31T15:19:13Z</time>
      </trkpt>
      <trkpt lat="44.47861" lon="1.6455">
        <ele>201</ele>
        <time>2015-10-31T15:19:15Z</time>
      </trkpt>
      <trkpt lat="44.47863" lon="1.64553">
        <ele>199.2</ele>
        <time>2015-10-31T15:19:16Z</time>
      </trkpt>
      <trkpt lat="44.47867" lon="1.64559">
        <ele>195.2</ele>
        <time>2015-10-31T15:19:18Z</time>
      </trkpt>
      <trkpt lat="44.4787" lon="1.64564">
        <ele>192.6</ele>
        <time>2015-10-31T15:19:19Z</time>
      </trkpt>
      <trkpt lat="44.47875" lon="1.64571">
        <ele>188.3</ele>
        <time>2015-10-31T15:19:21Z</time>
      </trkpt>
      <trkpt lat="44.4788" lon="1.64576">
        <ele>185.6</ele>
        <time>2015-10-31T15:19:23Z</time>
      </trkpt>
      <trkpt lat="44.47882" lon="1.64579">
        <ele>184.3</ele>
        <time>2015-10-31T15:19:24Z</time>
      </trkpt>
      <trkpt lat="44.47886" lon="1.64583">
        <ele>182.3</ele>
        <time>2015-10-31T15:19:26Z</time>
      </trkpt>
      <trkpt lat="44.47889" lon="1.64587">
        <ele>180.5</ele>
        <time>2015-10-31T15:19:28Z</time>
      </trkpt>
      <trkpt lat="44.47893" lon="1.64589">
        <ele>179.6</ele>
        <time>2015-10-31T15:19:30Z</time>
      </trkpt>
      <trkpt lat="44.47897" lon="1.64591">
        <ele>178.5</ele>
        <time>2015-10-31T15:19:32Z</time>
      </trkpt>
      <trkpt lat="44.47899" lon="1.64588">
        <ele>180.1</ele>
        <time>2015-10-31T15:19:34Z</time>
      </trkpt>
      <trkpt lat="44.479" lon="1.64577">
        <ele>184.7</ele>
        <time>2015-10-31T15:19:36Z</time>
      </trkpt>
      <trkpt lat="44.47903" lon="1.64573">
        <ele>186.6</ele>
        <time>2015-10-31T15:19:38Z</time>
      </trkpt>
      <trkpt lat="44.47906" lon="1.64575">
        <ele>185.7</ele>
        <time>2015-10-31T15:19:41Z</time>
      </trkpt>
      <trkpt lat="44.47909" lon="1.64577">
        <ele>184.9</ele>
        <time>2015-10-31T15:19:44Z</time>
      </trkpt>
      <trkpt lat="44.47912" lon="1.64579">
        <ele>183.9</ele>
        <time>2015-10-31T15:19:48Z</time>
      </trkpt>
      <trkpt lat="44.47915" lon="1.64578">
        <ele>184.1</ele>
        <time>2015-10-31T15:19:50Z</time>
      </trkpt>
      <trkpt lat="44.47919" lon="1.64578">
        <ele>184</ele>
        <time>2015-10-31T15:19:52Z</time>
      </trkpt>
      <trkpt lat="44.47922" lon="1.6458">
        <ele>183.5</ele>
        <time>2015-10-31T15:19:55Z</time>
      </trkpt>
      <trkpt lat="44.47925" lon="1.64578">
        <ele>184.2</ele>
        <time>2015-10-31T15:19:57Z</time>
      </trkpt>
      <trkpt lat="44.4793" lon="1.64573">
        <ele>185.6</ele>
        <time>2015-10-31T15:20:00Z</time>
      </trkpt>
      <trkpt lat="44.47933" lon="1.6457">
        <ele>186.6</ele>
        <time>2015-10-31T15:20:02Z</time>
      </trkpt>
      <trkpt lat="44.47935" lon="1.6457">
        <ele>186.7</ele>
        <time>2015-10-31T15:20:05Z</time>
      </trkpt>
      <trkpt lat="44.47938" lon="1.64571">
        <ele>186.2</ele>
        <time>2015-10-31T15:20:08Z</time>
      </trkpt>
      <trkpt lat="44.47941" lon="1.6457">
        <ele>186.4</ele>
        <time>2015-10-31T15:20:10Z</time>
      </trkpt>
      <trkpt lat="44.47945" lon="1.64571">
        <ele>185.9</ele>
        <time>2015-10-31T15:20:12Z</time>
      </trkpt>
      <trkpt lat="44.4795" lon="1.64571">
        <ele>185.8</ele>
        <time>2015-10-31T15:20:14Z</time>
      </trkpt>
      <trkpt lat="44.47954" lon="1.64571">
        <ele>185.7</ele>
        <time>2015-10-31T15:20:16Z</time>
      </trkpt>
      <trkpt lat="44.47958" lon="1.64573">
        <ele>185</ele>
        <time>2015-10-31T15:20:18Z</time>
      </trkpt>
      <trkpt lat="44.47961" lon="1.64576">
        <ele>183.8</ele>
        <time>2015-10-31T15:20:20Z</time>
      </trkpt>
      <trkpt lat="44.47965" lon="1.64581">
        <ele>181.7</ele>
        <time>2015-10-31T15:20:22Z</time>
      </trkpt>
      <trkpt lat="44.47967" lon="1.64584">
        <ele>180.5</ele>
        <time>2015-10-31T15:20:23Z</time>
      </trkpt>
      <trkpt lat="44.47969" lon="1.64587">
        <ele>179.5</ele>
        <time>2015-10-31T15:20:24Z</time>
      </trkpt>
      <trkpt lat="44.47972" lon="1.64588">
        <ele>178.6</ele>
        <time>2015-10-31T15:20:25Z</time>
      </trkpt>
      <trkpt lat="44.47975" lon="1.6459">
        <ele>177.7</ele>
        <time>2015-10-31T15:20:26Z</time>
      </trkpt>
      <trkpt lat="44.47978" lon="1.64592">
        <ele>176.8</ele>
        <time>2015-10-31T15:20:27Z</time>
      </trkpt>
      <trkpt lat="44.47981" lon="1.64593">
        <ele>176.1</ele>
        <time>2015-10-31T15:20:28Z</time>
      </trkpt>
      <trkpt lat="44.47985" lon="1.64594">
        <ele>175.1</ele>
        <time>2015-10-31T15:20:30Z</time>
      </trkpt>
      <trkpt lat="44.4799" lon="1.64594">
        <ele>174.4</ele>
        <time>2015-10-31T15:20:32Z</time>
      </trkpt>
      <trkpt lat="44.47993" lon="1.64594">
        <ele>173.8</ele>
        <time>2015-10-31T15:20:33Z</time>
      </trkpt>
      <trkpt lat="44.47999" lon="1.64593">
        <ele>173.5</ele>
        <time>2015-10-31T15:20:35Z</time>
      </trkpt>
      <trkpt lat="44.48002" lon="1.64592">
        <ele>173.2</ele>
        <time>2015-10-31T15:20:36Z</time>
      </trkpt>
      <trkpt lat="44.48006" lon="1.64593">
        <ele>172.3</ele>
        <time>2015-10-31T15:20:38Z</time>
      </trkpt>
      <trkpt lat="44.4801" lon="1.64593">
        <ele>171.8</ele>
        <time>2015-10-31T15:20:40Z</time>
      </trkpt>
      <trkpt lat="44.48012" lon="1.64597">
        <ele>170.5</ele>
        <time>2015-10-31T15:20:42Z</time>
      </trkpt>
      <trkpt lat="44.48013" lon="1.646">
        <ele>169.4</ele>
        <time>2015-10-31T15:20:44Z</time>
      </trkpt>
      <trkpt lat="44.48016" lon="1.64606">
        <ele>167.3</ele>
        <time>2015-10-31T15:20:46Z</time>
      </trkpt>
      <trkpt lat="44.4802" lon="1.64608">
        <ele>166.1</ele>
        <time>2015-10-31T15:20:48Z</time>
      </trkpt>
      <trkpt lat="44.48025" lon="1.64607">
        <ele>165.7</ele>
        <time>2015-10-31T15:20:50Z</time>
      </trkpt>
      <trkpt lat="44.48034" lon="1.64602">
        <ele>165.7</ele>
        <time>2015-10-31T15:20:52Z</time>
      </trkpt>
      <trkpt lat="44.48039" lon="1.64601">
        <ele>165.5</ele>
        <time>2015-10-31T15:20:53Z</time>
      </trkpt>
      <trkpt lat="44.48043" lon="1.646">
        <ele>165.2</ele>
        <time>2015-10-31T15:20:54Z</time>
      </trkpt>
      <trkpt lat="44.48063" lon="1.64597">
        <ele>162.1</ele>
        <time>2015-10-31T15:20:56Z</time>
      </trkpt>
      <trkpt lat="44.48068" lon="1.64596">
        <ele>161.3</ele>
        <time>2015-10-31T15:20:57Z</time>
      </trkpt>
      <trkpt lat="44.48073" lon="1.64596">
        <ele>160.2</ele>
        <time>2015-10-31T15:20:58Z</time>
      </trkpt>
      <trkpt lat="44.48078" lon="1.64596">
        <ele>159.5</ele>
        <time>2015-10-31T15:20:59Z</time>
      </trkpt>
      <trkpt lat="44.48085" lon="1.64591">
        <ele>159.7</ele>
        <time>2015-10-31T15:21:00Z</time>
      </trkpt>
      <trkpt lat="44.4809" lon="1.64592">
        <ele>158.4</ele>
        <time>2015-10-31T15:21:01Z</time>
      </trkpt>
      <trkpt lat="44.48094" lon="1.64588">
        <ele>158.7</ele>
        <time>2015-10-31T15:21:02Z</time>
      </trkpt>
      <trkpt lat="44.48099" lon="1.64589">
        <ele>157.7</ele>
        <time>2015-10-31T15:21:03Z</time>
      </trkpt>
      <trkpt lat="44.48108" lon="1.64588">
        <ele>156.1</ele>
        <time>2015-10-31T15:21:04Z</time>
      </trkpt>
      <trkpt lat="44.48112" lon="1.64587">
        <ele>155.6</ele>
        <time>2015-10-31T15:21:05Z</time>
      </trkpt>
      <trkpt lat="44.48112" lon="1.64593">
        <ele>153.9</ele>
        <time>2015-10-31T15:21:06Z</time>
      </trkpt>
      <trkpt lat="44.48117" lon="1.64594">
        <ele>152.7</ele>
        <time>2015-10-31T15:21:08Z</time>
      </trkpt>
      <trkpt lat="44.48123" lon="1.64592">
        <ele>152.2</ele>
        <time>2015-10-31T15:21:09Z</time>
      </trkpt>
      <trkpt lat="44.48126" lon="1.64592">
        <ele>151.6</ele>
        <time>2015-10-31T15:21:10Z</time>
      </trkpt>
      <trkpt lat="44.48129" lon="1.6459">
        <ele>151.7</ele>
        <time>2015-10-31T15:21:11Z</time>
      </trkpt>
      <trkpt lat="44.48132" lon="1.64589">
        <ele>151.6</ele>
        <time>2015-10-31T15:21:12Z</time>
      </trkpt>
      <trkpt lat="44.48136" lon="1.64587">
        <ele>151.7</ele>
        <time>2015-10-31T15:21:13Z</time>
      </trkpt>
      <trkpt lat="44.48141" lon="1.64584">
        <ele>151.6</ele>
        <time>2015-10-31T15:21:14Z</time>
      </trkpt>
      <trkpt lat="44.48144" lon="1.64583">
        <ele>151.5</ele>
        <time>2015-10-31T15:21:15Z</time>
      </trkpt>
      <trkpt lat="44.48147" lon="1.64582">
        <ele>151.1</ele>
        <time>2015-10-31T15:21:16Z</time>
      </trkpt>
      <trkpt lat="44.48151" lon="1.64582">
        <ele>150.6</ele>
        <time>2015-10-31T15:21:17Z</time>
      </trkpt>
      <trkpt lat="44.48155" lon="1.64581">
        <ele>149.9</ele>
        <time>2015-10-31T15:21:19Z</time>
      </trkpt>
      <trkpt lat="44.4816" lon="1.6458">
        <ele>149.3</ele>
        <time>2015-10-31T15:21:21Z</time>
      </trkpt>
      <trkpt lat="44.48165" lon="1.64581">
        <ele>148.3</ele>
        <time>2015-10-31T15:21:23Z</time>
      </trkpt>
      <trkpt lat="44.48169" lon="1.64581">
        <ele>147.8</ele>
        <time>2015-10-31T15:21:25Z</time>
      </trkpt>
      <trkpt lat="44.48173" lon="1.64579">
        <ele>147.4</ele>
        <time>2015-10-31T15:21:27Z</time>
      </trkpt>
      <trkpt lat="44.48178" lon="1.64579">
        <ele>146.6</ele>
        <time>2015-10-31T15:21:29Z</time>
      </trkpt>
      <trkpt lat="44.4818" lon="1.6458">
        <ele>146</ele>
        <time>2015-10-31T15:21:30Z</time>
      </trkpt>
      <trkpt lat="44.48184" lon="1.6458">
        <ele>145.4</ele>
        <time>2015-10-31T15:21:31Z</time>
      </trkpt>
      <trkpt lat="44.48188" lon="1.64579">
        <ele>144.8</ele>
        <time>2015-10-31T15:21:32Z</time>
      </trkpt>
      <trkpt lat="44.48191" lon="1.64578">
        <ele>144.4</ele>
        <time>2015-10-31T15:21:33Z</time>
      </trkpt>
      <trkpt lat="44.48199" lon="1.64577">
        <ele>143.3</ele>
        <time>2015-10-31T15:21:35Z</time>
      </trkpt>
      <trkpt lat="44.48202" lon="1.64577">
        <ele>142.8</ele>
        <time>2015-10-31T15:21:36Z</time>
      </trkpt>
      <trkpt lat="44.48208" lon="1.64576">
        <ele>141.9</ele>
        <time>2015-10-31T15:21:37Z</time>
      </trkpt>
      <trkpt lat="44.48212" lon="1.64576">
        <ele>141.5</ele>
        <time>2015-10-31T15:21:38Z</time>
      </trkpt>
      <trkpt lat="44.48215" lon="1.64576">
        <ele>141.2</ele>
        <time>2015-10-31T15:21:39Z</time>
      </trkpt>
      <trkpt lat="44.48218" lon="1.64576">
        <ele>141</ele>
        <time>2015-10-31T15:21:40Z</time>
      </trkpt>
      <trkpt lat="44.48228" lon="1.64576">
        <ele>140.1</ele>
        <time>2015-10-31T15:21:41Z</time>
      </trkpt>
      <trkpt lat="44.48232" lon="1.64576">
        <ele>139.7</ele>
        <time>2015-10-31T15:21:42Z</time>
      </trkpt>
      <trkpt lat="44.48236" lon="1.64575">
        <ele>139.6</ele>
        <time>2015-10-31T15:21:43Z</time>
      </trkpt>
      <trkpt lat="44.48241" lon="1.64572">
        <ele>139.5</ele>
        <time>2015-10-31T15:21:44Z</time>
      </trkpt>
      <trkpt lat="44.48245" lon="1.64571">
        <ele>139.4</ele>
        <time>2015-10-31T15:21:45Z</time>
      </trkpt>
      <trkpt lat="44.48251" lon="1.64569">
        <ele>139</ele>
        <time>2015-10-31T15:21:46Z</time>
      </trkpt>
      <trkpt lat="44.48255" lon="1.64568">
        <ele>138.7</ele>
        <time>2015-10-31T15:21:47Z</time>
      </trkpt>
      <trkpt lat="44.4826" lon="1.64566">
        <ele>138.4</ele>
        <time>2015-10-31T15:21:48Z</time>
      </trkpt>
      <trkpt lat="44.48266" lon="1.64565">
        <ele>137.9</ele>
        <time>2015-10-31T15:21:49Z</time>
      </trkpt>
      <trkpt lat="44.48269" lon="1.64565">
        <ele>137.6</ele>
        <time>2015-10-31T15:21:50Z</time>
      </trkpt>
      <trkpt lat="44.48275" lon="1.64565">
        <ele>137.1</ele>
        <time>2015-10-31T15:21:52Z</time>
      </trkpt>
      <trkpt lat="44.48278" lon="1.64562">
        <ele>137</ele>
        <time>2015-10-31T15:21:53Z</time>
      </trkpt>
      <trkpt lat="44.48281" lon="1.6456">
        <ele>136.8</ele>
        <time>2015-10-31T15:21:54Z</time>
      </trkpt>
      <trkpt lat="44.48286" lon="1.64558">
        <ele>136.4</ele>
        <time>2015-10-31T15:21:56Z</time>
      </trkpt>
      <trkpt lat="44.48289" lon="1.64556">
        <ele>136.2</ele>
        <time>2015-10-31T15:21:57Z</time>
      </trkpt>
      <trkpt lat="44.48292" lon="1.64555">
        <ele>136</ele>
        <time>2015-10-31T15:21:59Z</time>
      </trkpt>
      <trkpt lat="44.48297" lon="1.64553">
        <ele>136</ele>
        <time>2015-10-31T15:22:01Z</time>
      </trkpt>
      <trkpt lat="44.48301" lon="1.64551">
        <ele>136</ele>
        <time>2015-10-31T15:22:02Z</time>
      </trkpt>
      <trkpt lat="44.48305" lon="1.64549">
        <ele>136</ele>
        <time>2015-10-31T15:22:03Z</time>
      </trkpt>
      <trkpt lat="44.48309" lon="1.64547">
        <ele>135.9</ele>
        <time>2015-10-31T15:22:04Z</time>
      </trkpt>
      <trkpt lat="44.48313" lon="1.64546">
        <ele>135.7</ele>
        <time>2015-10-31T15:22:05Z</time>
      </trkpt>
      <trkpt lat="44.48317" lon="1.64546">
        <ele>135.6</ele>
        <time>2015-10-31T15:22:06Z</time>
      </trkpt>
      <trkpt lat="44.48321" lon="1.64545">
        <ele>135.4</ele>
        <time>2015-10-31T15:22:07Z</time>
      </trkpt>
      <trkpt lat="44.48324" lon="1.64545">
        <ele>135.3</ele>
        <time>2015-10-31T15:22:08Z</time>
      </trkpt>
      <trkpt lat="44.48328" lon="1.64546">
        <ele>135.1</ele>
        <time>2015-10-31T15:22:10Z</time>
      </trkpt>
      <trkpt lat="44.48331" lon="1.64547">
        <ele>135</ele>
        <time>2015-10-31T15:22:13Z</time>
      </trkpt>
      <trkpt lat="44.48335" lon="1.64545">
        <ele>134.9</ele>
        <time>2015-10-31T15:22:16Z</time>
      </trkpt>
      <trkpt lat="44.48339" lon="1.64544">
        <ele>134.7</ele>
        <time>2015-10-31T15:22:18Z</time>
      </trkpt>
      <trkpt lat="44.48343" lon="1.64542">
        <ele>134.5</ele>
        <time>2015-10-31T15:22:20Z</time>
      </trkpt>
      <trkpt lat="44.48347" lon="1.64541">
        <ele>134.4</ele>
        <time>2015-10-31T15:22:22Z</time>
      </trkpt>
      <trkpt lat="44.48349" lon="1.64536">
        <ele>134.6</ele>
        <time>2015-10-31T15:22:24Z</time>
      </trkpt>
      <trkpt lat="44.48352" lon="1.64532">
        <ele>134.8</ele>
        <time>2015-10-31T15:22:26Z</time>
      </trkpt>
      <trkpt lat="44.48357" lon="1.64529">
        <ele>134.8</ele>
        <time>2015-10-31T15:22:28Z</time>
      </trkpt>
      <trkpt lat="44.4836" lon="1.64527">
        <ele>134.7</ele>
        <time>2015-10-31T15:22:29Z</time>
      </trkpt>
      <trkpt lat="44.48366" lon="1.64522">
        <ele>134.6</ele>
        <time>2015-10-31T15:22:31Z</time>
      </trkpt>
      <trkpt lat="44.48368" lon="1.6452">
        <ele>134.6</ele>
        <time>2015-10-31T15:22:32Z</time>
      </trkpt>
      <trkpt lat="44.48374" lon="1.64515">
        <ele>134.4</ele>
        <time>2015-10-31T15:22:34Z</time>
      </trkpt>
      <trkpt lat="44.48377" lon="1.64513">
        <ele>134.4</ele>
        <time>2015-10-31T15:22:35Z</time>
      </trkpt>
      <trkpt lat="44.48385" lon="1.64507">
        <ele>134.7</ele>
        <time>2015-10-31T15:22:37Z</time>
      </trkpt>
      <trkpt lat="44.48389" lon="1.64502">
        <ele>134.8</ele>
        <time>2015-10-31T15:22:38Z</time>
      </trkpt>
      <trkpt lat="44.48392" lon="1.64499">
        <ele>134.9</ele>
        <time>2015-10-31T15:22:39Z</time>
      </trkpt>
      <trkpt lat="44.48407" lon="1.64483">
        <ele>135.2</ele>
        <time>2015-10-31T15:22:41Z</time>
      </trkpt>
      <trkpt lat="44.48411" lon="1.64481">
        <ele>135.2</ele>
        <time>2015-10-31T15:22:42Z</time>
      </trkpt>
      <trkpt lat="44.48408" lon="1.64475">
        <ele>135.4</ele>
        <time>2015-10-31T15:22:43Z</time>
      </trkpt>
      <trkpt lat="44.4841" lon="1.64472">
        <ele>135.4</ele>
        <time>2015-10-31T15:22:44Z</time>
      </trkpt>
      <trkpt lat="44.48412" lon="1.64469">
        <ele>135.4</ele>
        <time>2015-10-31T15:22:45Z</time>
      </trkpt>
      <trkpt lat="44.48415" lon="1.64468">
        <ele>135.4</ele>
        <time>2015-10-31T15:22:46Z</time>
      </trkpt>
      <trkpt lat="44.48417" lon="1.64465">
        <ele>135.4</ele>
        <time>2015-10-31T15:22:47Z</time>
      </trkpt>
      <trkpt lat="44.4842" lon="1.64463">
        <ele>135.3</ele>
        <time>2015-10-31T15:22:48Z</time>
      </trkpt>
      <trkpt lat="44.48425" lon="1.64462">
        <ele>135.2</ele>
        <time>2015-10-31T15:22:50Z</time>
      </trkpt>
      <trkpt lat="44.48427" lon="1.64461">
        <ele>135.1</ele>
        <time>2015-10-31T15:22:52Z</time>
      </trkpt>
      <trkpt lat="44.48425" lon="1.64459">
        <ele>135.2</ele>
        <time>2015-10-31T15:23:00Z</time>
      </trkpt>
      <trkpt lat="44.48423" lon="1.64454">
        <ele>135.6</ele>
        <time>2015-10-31T15:23:05Z</time>
      </trkpt>
      <trkpt lat="44.48421" lon="1.64456">
        <ele>135.5</ele>
        <time>2015-10-31T15:23:10Z</time>
      </trkpt>
      <trkpt lat="44.48418" lon="1.64455">
        <ele>135.7</ele>
        <time>2015-10-31T15:23:13Z</time>
      </trkpt>
      <trkpt lat="44.48416" lon="1.64451">
        <ele>136</ele>
        <time>2015-10-31T15:23:15Z</time>
      </trkpt>
      <trkpt lat="44.48415" lon="1.64447">
        <ele>136.3</ele>
        <time>2015-10-31T15:23:17Z</time>
      </trkpt>
      <trkpt lat="44.48413" lon="1.64443">
        <ele>136.7</ele>
        <time>2015-10-31T15:23:19Z</time>
      </trkpt>
      <trkpt lat="44.4841" lon="1.64436">
        <ele>137.2</ele>
        <time>2015-10-31T15:23:21Z</time>
      </trkpt>
      <trkpt lat="44.48409" lon="1.64432">
        <ele>137.5</ele>
        <time>2015-10-31T15:23:22Z</time>
      </trkpt>
      <trkpt lat="44.48408" lon="1.64428">
        <ele>137.8</ele>
        <time>2015-10-31T15:23:23Z</time>
      </trkpt>
      <trkpt lat="44.48407" lon="1.64424">
        <ele>138.1</ele>
        <time>2015-10-31T15:23:24Z</time>
      </trkpt>
      <trkpt lat="44.48406" lon="1.64419">
        <ele>138.4</ele>
        <time>2015-10-31T15:23:25Z</time>
      </trkpt>
      <trkpt lat="44.48404" lon="1.64416">
        <ele>138.7</ele>
        <time>2015-10-31T15:23:26Z</time>
      </trkpt>
      <trkpt lat="44.48401" lon="1.64413">
        <ele>139</ele>
        <time>2015-10-31T15:23:27Z</time>
      </trkpt>
      <trkpt lat="44.48398" lon="1.6441">
        <ele>139.3</ele>
        <time>2015-10-31T15:23:28Z</time>
      </trkpt>
      <trkpt lat="44.48396" lon="1.64407">
        <ele>139.5</ele>
        <time>2015-10-31T15:23:29Z</time>
      </trkpt>
      <trkpt lat="44.48394" lon="1.64404">
        <ele>139.7</ele>
        <time>2015-10-31T15:23:30Z</time>
      </trkpt>
      <trkpt lat="44.48393" lon="1.644">
        <ele>140</ele>
        <time>2015-10-31T15:23:31Z</time>
      </trkpt>
      <trkpt lat="44.48391" lon="1.64392">
        <ele>140.6</ele>
        <time>2015-10-31T15:23:33Z</time>
      </trkpt>
      <trkpt lat="44.48388" lon="1.64384">
        <ele>141.1</ele>
        <time>2015-10-31T15:23:35Z</time>
      </trkpt>
      <trkpt lat="44.48389" lon="1.64378">
        <ele>141.5</ele>
        <time>2015-10-31T15:23:37Z</time>
      </trkpt>
      <trkpt lat="44.48391" lon="1.64375">
        <ele>141.7</ele>
        <time>2015-10-31T15:23:38Z</time>
      </trkpt>
      <trkpt lat="44.48395" lon="1.64368">
        <ele>142.3</ele>
        <time>2015-10-31T15:23:40Z</time>
      </trkpt>
      <trkpt lat="44.48397" lon="1.64365">
        <ele>142.7</ele>
        <time>2015-10-31T15:23:41Z</time>
      </trkpt>
      <trkpt lat="44.48399" lon="1.64362">
        <ele>143</ele>
        <time>2015-10-31T15:23:42Z</time>
      </trkpt>
      <trkpt lat="44.48402" lon="1.6436">
        <ele>143.2</ele>
        <time>2015-10-31T15:23:43Z</time>
      </trkpt>
      <trkpt lat="44.48404" lon="1.64358">
        <ele>143.5</ele>
        <time>2015-10-31T15:23:44Z</time>
      </trkpt>
      <trkpt lat="44.48408" lon="1.64352">
        <ele>144</ele>
        <time>2015-10-31T15:23:46Z</time>
      </trkpt>
      <trkpt lat="44.48411" lon="1.64347">
        <ele>144.7</ele>
        <time>2015-10-31T15:23:48Z</time>
      </trkpt>
      <trkpt lat="44.48413" lon="1.64341">
        <ele>145.4</ele>
        <time>2015-10-31T15:23:50Z</time>
      </trkpt>
      <trkpt lat="44.48415" lon="1.64338">
        <ele>145.8</ele>
        <time>2015-10-31T15:23:51Z</time>
      </trkpt>
      <trkpt lat="44.48418" lon="1.64334">
        <ele>146.1</ele>
        <time>2015-10-31T15:23:52Z</time>
      </trkpt>
      <trkpt lat="44.48423" lon="1.64328">
        <ele>146.8</ele>
        <time>2015-10-31T15:23:54Z</time>
      </trkpt>
      <trkpt lat="44.48427" lon="1.64323">
        <ele>147.4</ele>
        <time>2015-10-31T15:23:56Z</time>
      </trkpt>
      <trkpt lat="44.48431" lon="1.64317">
        <ele>148.1</ele>
        <time>2015-10-31T15:23:58Z</time>
      </trkpt>
      <trkpt lat="44.48433" lon="1.64314">
        <ele>148.4</ele>
        <time>2015-10-31T15:23:59Z</time>
      </trkpt>
      <trkpt lat="44.48435" lon="1.64311">
        <ele>148.8</ele>
        <time>2015-10-31T15:24:00Z</time>
      </trkpt>
      <trkpt lat="44.48437" lon="1.64308">
        <ele>149.2</ele>
        <time>2015-10-31T15:24:01Z</time>
      </trkpt>
      <trkpt lat="44.48441" lon="1.64302">
        <ele>149.9</ele>
        <time>2015-10-31T15:24:03Z</time>
      </trkpt>
      <trkpt lat="44.48443" lon="1.64297">
        <ele>150.5</ele>
        <time>2015-10-31T15:24:04Z</time>
      </trkpt>
      <trkpt lat="44.48446" lon="1.64293">
        <ele>151</ele>
        <time>2015-10-31T15:24:05Z</time>
      </trkpt>
      <trkpt lat="44.48448" lon="1.64288">
        <ele>151.3</ele>
        <time>2015-10-31T15:24:06Z</time>
      </trkpt>
      <trkpt lat="44.48451" lon="1.64284">
        <ele>151.4</ele>
        <time>2015-10-31T15:24:07Z</time>
      </trkpt>
      <trkpt lat="44.48454" lon="1.64279">
        <ele>151.5</ele>
        <time>2015-10-31T15:24:08Z</time>
      </trkpt>
      <trkpt lat="44.48456" lon="1.64275">
        <ele>151.7</ele>
        <time>2015-10-31T15:24:09Z</time>
      </trkpt>
      <trkpt lat="44.48458" lon="1.64271">
        <ele>151.8</ele>
        <time>2015-10-31T15:24:10Z</time>
      </trkpt>
      <trkpt lat="44.4846" lon="1.64267">
        <ele>151.6</ele>
        <time>2015-10-31T15:24:11Z</time>
      </trkpt>
      <trkpt lat="44.48461" lon="1.64262">
        <ele>151.5</ele>
        <time>2015-10-31T15:24:12Z</time>
      </trkpt>
      <trkpt lat="44.48463" lon="1.64258">
        <ele>151.4</ele>
        <time>2015-10-31T15:24:13Z</time>
      </trkpt>
      <trkpt lat="44.48464" lon="1.64255">
        <ele>151.3</ele>
        <time>2015-10-31T15:24:14Z</time>
      </trkpt>
      <trkpt lat="44.48466" lon="1.64251">
        <ele>151.2</ele>
        <time>2015-10-31T15:24:15Z</time>
      </trkpt>
      <trkpt lat="44.48468" lon="1.64248">
        <ele>151</ele>
        <time>2015-10-31T15:24:16Z</time>
      </trkpt>
      <trkpt lat="44.4847" lon="1.64244">
        <ele>150.8</ele>
        <time>2015-10-31T15:24:17Z</time>
      </trkpt>
      <trkpt lat="44.48472" lon="1.64241">
        <ele>150.5</ele>
        <time>2015-10-31T15:24:18Z</time>
      </trkpt>
      <trkpt lat="44.48474" lon="1.64238">
        <ele>150.3</ele>
        <time>2015-10-31T15:24:19Z</time>
      </trkpt>
      <trkpt lat="44.48476" lon="1.64234">
        <ele>150.1</ele>
        <time>2015-10-31T15:24:20Z</time>
      </trkpt>
      <trkpt lat="44.48477" lon="1.64231">
        <ele>149.9</ele>
        <time>2015-10-31T15:24:21Z</time>
      </trkpt>
      <trkpt lat="44.48479" lon="1.64227">
        <ele>149.8</ele>
        <time>2015-10-31T15:24:22Z</time>
      </trkpt>
      <trkpt lat="44.48481" lon="1.64224">
        <ele>149.6</ele>
        <time>2015-10-31T15:24:23Z</time>
      </trkpt>
      <trkpt lat="44.48484" lon="1.64221">
        <ele>149.2</ele>
        <time>2015-10-31T15:24:24Z</time>
      </trkpt>
      <trkpt lat="44.48486" lon="1.64219">
        <ele>149</ele>
        <time>2015-10-31T15:24:25Z</time>
      </trkpt>
      <trkpt lat="44.48489" lon="1.64217">
        <ele>148.6</ele>
        <time>2015-10-31T15:24:27Z</time>
      </trkpt>
      <trkpt lat="44.48493" lon="1.64215">
        <ele>148</ele>
        <time>2015-10-31T15:24:29Z</time>
      </trkpt>
      <trkpt lat="44.48498" lon="1.64215">
        <ele>147.1</ele>
        <time>2015-10-31T15:24:31Z</time>
      </trkpt>
      <trkpt lat="44.48502" lon="1.64217">
        <ele>146.3</ele>
        <time>2015-10-31T15:24:33Z</time>
      </trkpt>
      <trkpt lat="44.48506" lon="1.6422">
        <ele>145.5</ele>
        <time>2015-10-31T15:24:35Z</time>
      </trkpt>
      <trkpt lat="44.4851" lon="1.64224">
        <ele>144.7</ele>
        <time>2015-10-31T15:24:37Z</time>
      </trkpt>
      <trkpt lat="44.48514" lon="1.64229">
        <ele>143.7</ele>
        <time>2015-10-31T15:24:39Z</time>
      </trkpt>
      <trkpt lat="44.48517" lon="1.64232">
        <ele>143</ele>
        <time>2015-10-31T15:24:40Z</time>
      </trkpt>
      <trkpt lat="44.48521" lon="1.64235">
        <ele>142.4</ele>
        <time>2015-10-31T15:24:41Z</time>
      </trkpt>
      <trkpt lat="44.48524" lon="1.64237">
        <ele>141.7</ele>
        <time>2015-10-31T15:24:42Z</time>
      </trkpt>
      <trkpt lat="44.48526" lon="1.6424">
        <ele>141.1</ele>
        <time>2015-10-31T15:24:43Z</time>
      </trkpt>
      <trkpt lat="44.48529" lon="1.64243">
        <ele>140.6</ele>
        <time>2015-10-31T15:24:44Z</time>
      </trkpt>
      <trkpt lat="44.48532" lon="1.64246">
        <ele>140</ele>
        <time>2015-10-31T15:24:45Z</time>
      </trkpt>
      <trkpt lat="44.48534" lon="1.64248">
        <ele>139.4</ele>
        <time>2015-10-31T15:24:46Z</time>
      </trkpt>
      <trkpt lat="44.48537" lon="1.6425">
        <ele>138.9</ele>
        <time>2015-10-31T15:24:47Z</time>
      </trkpt>
      <trkpt lat="44.48539" lon="1.64252">
        <ele>138.3</ele>
        <time>2015-10-31T15:24:48Z</time>
      </trkpt>
      <trkpt lat="44.48542" lon="1.64254">
        <ele>137.8</ele>
        <time>2015-10-31T15:24:49Z</time>
      </trkpt>
      <trkpt lat="44.48547" lon="1.64257">
        <ele>137.6</ele>
        <time>2015-10-31T15:24:51Z</time>
      </trkpt>
      <trkpt lat="44.48551" lon="1.64262">
        <ele>137.3</ele>
        <time>2015-10-31T15:24:53Z</time>
      </trkpt>
      <trkpt lat="44.48553" lon="1.64264">
        <ele>137.1</ele>
        <time>2015-10-31T15:24:54Z</time>
      </trkpt>
      <trkpt lat="44.48556" lon="1.6427">
        <ele>136.9</ele>
        <time>2015-10-31T15:24:56Z</time>
      </trkpt>
      <trkpt lat="44.48558" lon="1.64273">
        <ele>136.8</ele>
        <time>2015-10-31T15:24:57Z</time>
      </trkpt>
      <trkpt lat="44.48562" lon="1.64278">
        <ele>136.6</ele>
        <time>2015-10-31T15:24:59Z</time>
      </trkpt>
      <trkpt lat="44.48566" lon="1.64281">
        <ele>136.5</ele>
        <time>2015-10-31T15:25:01Z</time>
      </trkpt>
      <trkpt lat="44.48569" lon="1.64282">
        <ele>136.5</ele>
        <time>2015-10-31T15:25:04Z</time>
      </trkpt>
      <trkpt lat="44.48572" lon="1.6428">
        <ele>136.6</ele>
        <time>2015-10-31T15:25:09Z</time>
      </trkpt>
      <trkpt lat="44.48577" lon="1.64278">
        <ele>136.6</ele>
        <time>2015-10-31T15:25:17Z</time>
      </trkpt>
      <trkpt lat="44.48579" lon="1.64283">
        <ele>136.5</ele>
        <time>2015-10-31T15:25:24Z</time>
      </trkpt>
      <trkpt lat="44.48581" lon="1.64286">
        <ele>136.5</ele>
        <time>2015-10-31T15:25:26Z</time>
      </trkpt>
      <trkpt lat="44.48584" lon="1.6429">
        <ele>136.5</ele>
        <time>2015-10-31T15:25:28Z</time>
      </trkpt>
      <trkpt lat="44.48587" lon="1.64293">
        <ele>136.5</ele>
        <time>2015-10-31T15:25:29Z</time>
      </trkpt>
      <trkpt lat="44.48589" lon="1.64297">
        <ele>136.4</ele>
        <time>2015-10-31T15:25:30Z</time>
      </trkpt>
      <trkpt lat="44.48592" lon="1.643">
        <ele>136.3</ele>
        <time>2015-10-31T15:25:31Z</time>
      </trkpt>
      <trkpt lat="44.48595" lon="1.64303">
        <ele>136.2</ele>
        <time>2015-10-31T15:25:32Z</time>
      </trkpt>
      <trkpt lat="44.48598" lon="1.64306">
        <ele>136.2</ele>
        <time>2015-10-31T15:25:33Z</time>
      </trkpt>
      <trkpt lat="44.486" lon="1.64308">
        <ele>136.1</ele>
        <time>2015-10-31T15:25:34Z</time>
      </trkpt>
      <trkpt lat="44.48603" lon="1.64312">
        <ele>136</ele>
        <time>2015-10-31T15:25:36Z</time>
      </trkpt>
      <trkpt lat="44.48606" lon="1.64317">
        <ele>135.9</ele>
        <time>2015-10-31T15:25:38Z</time>
      </trkpt>
      <trkpt lat="44.4861" lon="1.64322">
        <ele>135.7</ele>
        <time>2015-10-31T15:25:40Z</time>
      </trkpt>
      <trkpt lat="44.48613" lon="1.64326">
        <ele>135.6</ele>
        <time>2015-10-31T15:25:42Z</time>
      </trkpt>
      <trkpt lat="44.48616" lon="1.6433">
        <ele>135.5</ele>
        <time>2015-10-31T15:25:44Z</time>
      </trkpt>
      <trkpt lat="44.48619" lon="1.64333">
        <ele>135.5</ele>
        <time>2015-10-31T15:25:46Z</time>
      </trkpt>
      <trkpt lat="44.48624" lon="1.64327">
        <ele>135.7</ele>
        <time>2015-10-31T15:28:04Z</time>
      </trkpt>
      <trkpt lat="44.48627" lon="1.64326">
        <ele>137</ele>
        <time>2015-10-31T15:28:06Z</time>
      </trkpt>
      <trkpt lat="44.4863" lon="1.64324">
        <ele>138.5</ele>
        <time>2015-10-31T15:28:07Z</time>
      </trkpt>
      <trkpt lat="44.48633" lon="1.64318">
        <ele>139.9</ele>
        <time>2015-10-31T15:28:09Z</time>
      </trkpt>
      <trkpt lat="44.48635" lon="1.64312">
        <ele>141.3</ele>
        <time>2015-10-31T15:28:11Z</time>
      </trkpt>
      <trkpt lat="44.48637" lon="1.64305">
        <ele>142.2</ele>
        <time>2015-10-31T15:28:13Z</time>
      </trkpt>
      <trkpt lat="44.48638" lon="1.64301">
        <ele>142.8</ele>
        <time>2015-10-31T15:28:14Z</time>
      </trkpt>
      <trkpt lat="44.48639" lon="1.64297">
        <ele>143.2</ele>
        <time>2015-10-31T15:28:15Z</time>
      </trkpt>
      <trkpt lat="44.48639" lon="1.64291">
        <ele>143.4</ele>
        <time>2015-10-31T15:28:16Z</time>
      </trkpt>
      <trkpt lat="44.4864" lon="1.64286">
        <ele>143.5</ele>
        <time>2015-10-31T15:28:17Z</time>
      </trkpt>
      <trkpt lat="44.48642" lon="1.64282">
        <ele>143.8</ele>
        <time>2015-10-31T15:28:18Z</time>
      </trkpt>
      <trkpt lat="44.48643" lon="1.64277">
        <ele>144</ele>
        <time>2015-10-31T15:28:19Z</time>
      </trkpt>
      <trkpt lat="44.48645" lon="1.64272">
        <ele>144.2</ele>
        <time>2015-10-31T15:28:20Z</time>
      </trkpt>
      <trkpt lat="44.48646" lon="1.64267">
        <ele>144.3</ele>
        <time>2015-10-31T15:28:21Z</time>
      </trkpt>
      <trkpt lat="44.48647" lon="1.64262">
        <ele>144.2</ele>
        <time>2015-10-31T15:28:22Z</time>
      </trkpt>
      <trkpt lat="44.48648" lon="1.64257">
        <ele>144.1</ele>
        <time>2015-10-31T15:28:23Z</time>
      </trkpt>
      <trkpt lat="44.48649" lon="1.64252">
        <ele>144.1</ele>
        <time>2015-10-31T15:28:24Z</time>
      </trkpt>
      <trkpt lat="44.48651" lon="1.64246">
        <ele>144</ele>
        <time>2015-10-31T15:28:25Z</time>
      </trkpt>
      <trkpt lat="44.48653" lon="1.6424">
        <ele>144</ele>
        <time>2015-10-31T15:28:26Z</time>
      </trkpt>
      <trkpt lat="44.48655" lon="1.64234">
        <ele>144</ele>
        <time>2015-10-31T15:28:27Z</time>
      </trkpt>
      <trkpt lat="44.48657" lon="1.64228">
        <ele>144</ele>
        <time>2015-10-31T15:28:28Z</time>
      </trkpt>
      <trkpt lat="44.48659" lon="1.64223">
        <ele>143.8</ele>
        <time>2015-10-31T15:28:29Z</time>
      </trkpt>
      <trkpt lat="44.4866" lon="1.64217">
        <ele>143.6</ele>
        <time>2015-10-31T15:28:30Z</time>
      </trkpt>
      <trkpt lat="44.48662" lon="1.64211">
        <ele>143.3</ele>
        <time>2015-10-31T15:28:31Z</time>
      </trkpt>
      <trkpt lat="44.48665" lon="1.642">
        <ele>143</ele>
        <time>2015-10-31T15:28:32Z</time>
      </trkpt>
      <trkpt lat="44.48668" lon="1.64195">
        <ele>143.3</ele>
        <time>2015-10-31T15:28:33Z</time>
      </trkpt>
      <trkpt lat="44.4867" lon="1.64188">
        <ele>143.1</ele>
        <time>2015-10-31T15:28:34Z</time>
      </trkpt>
      <trkpt lat="44.48673" lon="1.64182">
        <ele>143.2</ele>
        <time>2015-10-31T15:28:35Z</time>
      </trkpt>
      <trkpt lat="44.48674" lon="1.64173">
        <ele>142.5</ele>
        <time>2015-10-31T15:28:36Z</time>
      </trkpt>
      <trkpt lat="44.48675" lon="1.64169">
        <ele>142.4</ele>
        <time>2015-10-31T15:28:37Z</time>
      </trkpt>
      <trkpt lat="44.48679" lon="1.64164">
        <ele>142.4</ele>
        <time>2015-10-31T15:28:38Z</time>
      </trkpt>
      <trkpt lat="44.48683" lon="1.64159">
        <ele>142.6</ele>
        <time>2015-10-31T15:28:39Z</time>
      </trkpt>
      <trkpt lat="44.48683" lon="1.64152">
        <ele>141.8</ele>
        <time>2015-10-31T15:28:40Z</time>
      </trkpt>
      <trkpt lat="44.48684" lon="1.64144">
        <ele>141</ele>
        <time>2015-10-31T15:28:41Z</time>
      </trkpt>
      <trkpt lat="44.48691" lon="1.64137">
        <ele>141.1</ele>
        <time>2015-10-31T15:28:42Z</time>
      </trkpt>
      <trkpt lat="44.48694" lon="1.64132">
        <ele>140.7</ele>
        <time>2015-10-31T15:28:43Z</time>
      </trkpt>
      <trkpt lat="44.48696" lon="1.64127">
        <ele>140.2</ele>
        <time>2015-10-31T15:28:44Z</time>
      </trkpt>
      <trkpt lat="44.48698" lon="1.64122">
        <ele>140</ele>
        <time>2015-10-31T15:28:45Z</time>
      </trkpt>
      <trkpt lat="44.48697" lon="1.64113">
        <ele>139.5</ele>
        <time>2015-10-31T15:28:46Z</time>
      </trkpt>
      <trkpt lat="44.487" lon="1.64107">
        <ele>139.5</ele>
        <time>2015-10-31T15:28:47Z</time>
      </trkpt>
      <trkpt lat="44.48703" lon="1.641">
        <ele>139.4</ele>
        <time>2015-10-31T15:28:48Z</time>
      </trkpt>
      <trkpt lat="44.48703" lon="1.64091">
        <ele>139</ele>
        <time>2015-10-31T15:28:49Z</time>
      </trkpt>
      <trkpt lat="44.48702" lon="1.64083">
        <ele>138.6</ele>
        <time>2015-10-31T15:28:50Z</time>
      </trkpt>
      <trkpt lat="44.48702" lon="1.64077">
        <ele>138.4</ele>
        <time>2015-10-31T15:28:51Z</time>
      </trkpt>
      <trkpt lat="44.48701" lon="1.64068">
        <ele>137.9</ele>
        <time>2015-10-31T15:28:52Z</time>
      </trkpt>
      <trkpt lat="44.48701" lon="1.64059">
        <ele>137.5</ele>
        <time>2015-10-31T15:28:53Z</time>
      </trkpt>
      <trkpt lat="44.48704" lon="1.64052">
        <ele>137.3</ele>
        <time>2015-10-31T15:28:54Z</time>
      </trkpt>
      <trkpt lat="44.48705" lon="1.64044">
        <ele>137</ele>
        <time>2015-10-31T15:28:55Z</time>
      </trkpt>
      <trkpt lat="44.48707" lon="1.64039">
        <ele>136.9</ele>
        <time>2015-10-31T15:28:56Z</time>
      </trkpt>
      <trkpt lat="44.48708" lon="1.6403">
        <ele>136.6</ele>
        <time>2015-10-31T15:28:57Z</time>
      </trkpt>
      <trkpt lat="44.4871" lon="1.64025">
        <ele>137</ele>
        <time>2015-10-31T15:28:58Z</time>
      </trkpt>
      <trkpt lat="44.48712" lon="1.64018">
        <ele>137.2</ele>
        <time>2015-10-31T15:28:59Z</time>
      </trkpt>
      <trkpt lat="44.48714" lon="1.64011">
        <ele>137.3</ele>
        <time>2015-10-31T15:29:00Z</time>
      </trkpt>
      <trkpt lat="44.48713" lon="1.64003">
        <ele>136.9</ele>
        <time>2015-10-31T15:29:01Z</time>
      </trkpt>
      <trkpt lat="44.48714" lon="1.63996">
        <ele>136.8</ele>
        <time>2015-10-31T15:29:02Z</time>
      </trkpt>
      <trkpt lat="44.48714" lon="1.6399">
        <ele>136.5</ele>
        <time>2015-10-31T15:29:03Z</time>
      </trkpt>
      <trkpt lat="44.48715" lon="1.63981">
        <ele>136.5</ele>
        <time>2015-10-31T15:29:04Z</time>
      </trkpt>
      <trkpt lat="44.48718" lon="1.63975">
        <ele>136.8</ele>
        <time>2015-10-31T15:29:05Z</time>
      </trkpt>
      <trkpt lat="44.4872" lon="1.63968">
        <ele>137</ele>
        <time>2015-10-31T15:29:06Z</time>
      </trkpt>
      <trkpt lat="44.48723" lon="1.6396">
        <ele>137</ele>
        <time>2015-10-31T15:29:07Z</time>
      </trkpt>
      <trkpt lat="44.4872" lon="1.6395">
        <ele>136.5</ele>
        <time>2015-10-31T15:29:08Z</time>
      </trkpt>
      <trkpt lat="44.48722" lon="1.63944">
        <ele>137</ele>
        <time>2015-10-31T15:29:09Z</time>
      </trkpt>
      <trkpt lat="44.48723" lon="1.63936">
        <ele>137.5</ele>
        <time>2015-10-31T15:29:10Z</time>
      </trkpt>
      <trkpt lat="44.48726" lon="1.63929">
        <ele>138.1</ele>
        <time>2015-10-31T15:29:11Z</time>
      </trkpt>
      <trkpt lat="44.48726" lon="1.63921">
        <ele>138.3</ele>
        <time>2015-10-31T15:29:12Z</time>
      </trkpt>
      <trkpt lat="44.48728" lon="1.63914">
        <ele>138.8</ele>
        <time>2015-10-31T15:29:13Z</time>
      </trkpt>
      <trkpt lat="44.48729" lon="1.63906">
        <ele>139.1</ele>
        <time>2015-10-31T15:29:14Z</time>
      </trkpt>
      <trkpt lat="44.4873" lon="1.63898">
        <ele>139.5</ele>
        <time>2015-10-31T15:29:15Z</time>
      </trkpt>
      <trkpt lat="44.4873" lon="1.63891">
        <ele>139.6</ele>
        <time>2015-10-31T15:29:16Z</time>
      </trkpt>
      <trkpt lat="44.4873" lon="1.63883">
        <ele>139.7</ele>
        <time>2015-10-31T15:29:17Z</time>
      </trkpt>
      <trkpt lat="44.48733" lon="1.63875">
        <ele>140.4</ele>
        <time>2015-10-31T15:29:18Z</time>
      </trkpt>
      <trkpt lat="44.48739" lon="1.63857">
        <ele>141</ele>
        <time>2015-10-31T15:29:21Z</time>
      </trkpt>
      <trkpt lat="44.48739" lon="1.6385">
        <ele>140.8</ele>
        <time>2015-10-31T15:29:22Z</time>
      </trkpt>
      <trkpt lat="44.4874" lon="1.63842">
        <ele>140.8</ele>
        <time>2015-10-31T15:29:23Z</time>
      </trkpt>
      <trkpt lat="44.48742" lon="1.63836">
        <ele>140.9</ele>
        <time>2015-10-31T15:29:24Z</time>
      </trkpt>
      <trkpt lat="44.48742" lon="1.63829">
        <ele>140.6</ele>
        <time>2015-10-31T15:29:25Z</time>
      </trkpt>
      <trkpt lat="44.48742" lon="1.63824">
        <ele>140.6</ele>
        <time>2015-10-31T15:29:26Z</time>
      </trkpt>
      <trkpt lat="44.48744" lon="1.63816">
        <ele>140.6</ele>
        <time>2015-10-31T15:29:27Z</time>
      </trkpt>
      <trkpt lat="44.48745" lon="1.63809">
        <ele>140.5</ele>
        <time>2015-10-31T15:29:28Z</time>
      </trkpt>
      <trkpt lat="44.48742" lon="1.63801">
        <ele>140</ele>
        <time>2015-10-31T15:29:29Z</time>
      </trkpt>
      <trkpt lat="44.48743" lon="1.63793">
        <ele>139.8</ele>
        <time>2015-10-31T15:29:30Z</time>
      </trkpt>
      <trkpt lat="44.48745" lon="1.63762">
        <ele>138.5</ele>
        <time>2015-10-31T15:29:34Z</time>
      </trkpt>
      <trkpt lat="44.48749" lon="1.63756">
        <ele>138.5</ele>
        <time>2015-10-31T15:29:35Z</time>
      </trkpt>
      <trkpt lat="44.4875" lon="1.63749">
        <ele>138.2</ele>
        <time>2015-10-31T15:29:36Z</time>
      </trkpt>
      <trkpt lat="44.48754" lon="1.63742">
        <ele>138</ele>
        <time>2015-10-31T15:29:37Z</time>
      </trkpt>
      <trkpt lat="44.48754" lon="1.63734">
        <ele>137.6</ele>
        <time>2015-10-31T15:29:38Z</time>
      </trkpt>
      <trkpt lat="44.48757" lon="1.63726">
        <ele>137.4</ele>
        <time>2015-10-31T15:29:39Z</time>
      </trkpt>
      <trkpt lat="44.48757" lon="1.63718">
        <ele>136.9</ele>
        <time>2015-10-31T15:29:40Z</time>
      </trkpt>
      <trkpt lat="44.48755" lon="1.6371">
        <ele>136.4</ele>
        <time>2015-10-31T15:29:41Z</time>
      </trkpt>
      <trkpt lat="44.48758" lon="1.63702">
        <ele>136.1</ele>
        <time>2015-10-31T15:29:42Z</time>
      </trkpt>
      <trkpt lat="44.48762" lon="1.63696">
        <ele>136.1</ele>
        <time>2015-10-31T15:29:43Z</time>
      </trkpt>
      <trkpt lat="44.48764" lon="1.6369">
        <ele>135.9</ele>
        <time>2015-10-31T15:29:44Z</time>
      </trkpt>
      <trkpt lat="44.48765" lon="1.63682">
        <ele>135.7</ele>
        <time>2015-10-31T15:29:45Z</time>
      </trkpt>
      <trkpt lat="44.48766" lon="1.63676">
        <ele>135.5</ele>
        <time>2015-10-31T15:29:46Z</time>
      </trkpt>
      <trkpt lat="44.48766" lon="1.63669">
        <ele>135.2</ele>
        <time>2015-10-31T15:29:47Z</time>
      </trkpt>
      <trkpt lat="44.48766" lon="1.63662">
        <ele>134.9</ele>
        <time>2015-10-31T15:29:48Z</time>
      </trkpt>
      <trkpt lat="44.48769" lon="1.63655">
        <ele>134.7</ele>
        <time>2015-10-31T15:29:49Z</time>
      </trkpt>
      <trkpt lat="44.48771" lon="1.63647">
        <ele>134.4</ele>
        <time>2015-10-31T15:29:50Z</time>
      </trkpt>
      <trkpt lat="44.48772" lon="1.63641">
        <ele>134.2</ele>
        <time>2015-10-31T15:29:51Z</time>
      </trkpt>
      <trkpt lat="44.48776" lon="1.63634">
        <ele>134</ele>
        <time>2015-10-31T15:29:52Z</time>
      </trkpt>
      <trkpt lat="44.4878" lon="1.63624">
        <ele>133.7</ele>
        <time>2015-10-31T15:29:53Z</time>
      </trkpt>
      <trkpt lat="44.48781" lon="1.63618">
        <ele>133.5</ele>
        <time>2015-10-31T15:29:54Z</time>
      </trkpt>
      <trkpt lat="44.48782" lon="1.63609">
        <ele>133.3</ele>
        <time>2015-10-31T15:29:55Z</time>
      </trkpt>
      <trkpt lat="44.48783" lon="1.636">
        <ele>133</ele>
        <time>2015-10-31T15:29:56Z</time>
      </trkpt>
      <trkpt lat="44.48786" lon="1.63595">
        <ele>132.9</ele>
        <time>2015-10-31T15:29:57Z</time>
      </trkpt>
      <trkpt lat="44.48788" lon="1.63589">
        <ele>132.7</ele>
        <time>2015-10-31T15:29:58Z</time>
      </trkpt>
      <trkpt lat="44.48789" lon="1.63581">
        <ele>132.4</ele>
        <time>2015-10-31T15:29:59Z</time>
      </trkpt>
      <trkpt lat="44.48791" lon="1.63575">
        <ele>132.2</ele>
        <time>2015-10-31T15:30:00Z</time>
      </trkpt>
      <trkpt lat="44.48795" lon="1.63566">
        <ele>132.6</ele>
        <time>2015-10-31T15:30:01Z</time>
      </trkpt>
      <trkpt lat="44.48795" lon="1.63561">
        <ele>132.6</ele>
        <time>2015-10-31T15:30:02Z</time>
      </trkpt>
      <trkpt lat="44.48796" lon="1.63551">
        <ele>132.2</ele>
        <time>2015-10-31T15:30:03Z</time>
      </trkpt>
      <trkpt lat="44.48797" lon="1.63543">
        <ele>132.3</ele>
        <time>2015-10-31T15:30:04Z</time>
      </trkpt>
      <trkpt lat="44.48797" lon="1.63535">
        <ele>132.2</ele>
        <time>2015-10-31T15:30:05Z</time>
      </trkpt>
      <trkpt lat="44.48798" lon="1.63528">
        <ele>132.2</ele>
        <time>2015-10-31T15:30:06Z</time>
      </trkpt>
      <trkpt lat="44.48799" lon="1.63521">
        <ele>132.5</ele>
        <time>2015-10-31T15:30:07Z</time>
      </trkpt>
      <trkpt lat="44.48801" lon="1.63512">
        <ele>132.7</ele>
        <time>2015-10-31T15:30:08Z</time>
      </trkpt>
      <trkpt lat="44.48803" lon="1.63506">
        <ele>133.1</ele>
        <time>2015-10-31T15:30:09Z</time>
      </trkpt>
      <trkpt lat="44.48805" lon="1.63497">
        <ele>133.5</ele>
        <time>2015-10-31T15:30:10Z</time>
      </trkpt>
      <trkpt lat="44.48807" lon="1.63489">
        <ele>133.8</ele>
        <time>2015-10-31T15:30:11Z</time>
      </trkpt>
      <trkpt lat="44.48809" lon="1.6348">
        <ele>133.9</ele>
        <time>2015-10-31T15:30:12Z</time>
      </trkpt>
      <trkpt lat="44.4881" lon="1.63473">
        <ele>134.1</ele>
        <time>2015-10-31T15:30:13Z</time>
      </trkpt>
      <trkpt lat="44.48811" lon="1.63465">
        <ele>134.4</ele>
        <time>2015-10-31T15:30:14Z</time>
      </trkpt>
      <trkpt lat="44.48813" lon="1.63457">
        <ele>134.6</ele>
        <time>2015-10-31T15:30:15Z</time>
      </trkpt>
      <trkpt lat="44.48815" lon="1.6345">
        <ele>134.8</ele>
        <time>2015-10-31T15:30:16Z</time>
      </trkpt>
      <trkpt lat="44.48816" lon="1.63441">
        <ele>134.8</ele>
        <time>2015-10-31T15:30:17Z</time>
      </trkpt>
      <trkpt lat="44.48817" lon="1.63434">
        <ele>134.8</ele>
        <time>2015-10-31T15:30:18Z</time>
      </trkpt>
      <trkpt lat="44.4882" lon="1.63428">
        <ele>135.2</ele>
        <time>2015-10-31T15:30:19Z</time>
      </trkpt>
      <trkpt lat="44.48821" lon="1.63421">
        <ele>135.2</ele>
        <time>2015-10-31T15:30:20Z</time>
      </trkpt>
      <trkpt lat="44.48823" lon="1.63414">
        <ele>135.4</ele>
        <time>2015-10-31T15:30:21Z</time>
      </trkpt>
      <trkpt lat="44.48824" lon="1.63406">
        <ele>135.4</ele>
        <time>2015-10-31T15:30:22Z</time>
      </trkpt>
      <trkpt lat="44.48825" lon="1.63399">
        <ele>135.5</ele>
        <time>2015-10-31T15:30:23Z</time>
      </trkpt>
      <trkpt lat="44.48826" lon="1.63392">
        <ele>135.6</ele>
        <time>2015-10-31T15:30:24Z</time>
      </trkpt>
      <trkpt lat="44.48828" lon="1.63385">
        <ele>135.6</ele>
        <time>2015-10-31T15:30:25Z</time>
      </trkpt>
      <trkpt lat="44.48829" lon="1.63377">
        <ele>135.6</ele>
        <time>2015-10-31T15:30:26Z</time>
      </trkpt>
      <trkpt lat="44.48829" lon="1.63369">
        <ele>135.3</ele>
        <time>2015-10-31T15:30:27Z</time>
      </trkpt>
      <trkpt lat="44.4883" lon="1.63362">
        <ele>135.2</ele>
        <time>2015-10-31T15:30:28Z</time>
      </trkpt>
      <trkpt lat="44.4883" lon="1.63355">
        <ele>135</ele>
        <time>2015-10-31T15:30:29Z</time>
      </trkpt>
      <trkpt lat="44.48833" lon="1.63347">
        <ele>135.1</ele>
        <time>2015-10-31T15:30:30Z</time>
      </trkpt>
      <trkpt lat="44.48835" lon="1.6334">
        <ele>135.1</ele>
        <time>2015-10-31T15:30:31Z</time>
      </trkpt>
      <trkpt lat="44.48835" lon="1.63331">
        <ele>134.6</ele>
        <time>2015-10-31T15:30:32Z</time>
      </trkpt>
      <trkpt lat="44.48838" lon="1.63325">
        <ele>134.7</ele>
        <time>2015-10-31T15:30:33Z</time>
      </trkpt>
      <trkpt lat="44.48839" lon="1.63318">
        <ele>134.4</ele>
        <time>2015-10-31T15:30:34Z</time>
      </trkpt>
      <trkpt lat="44.4884" lon="1.63311">
        <ele>134.2</ele>
        <time>2015-10-31T15:30:35Z</time>
      </trkpt>
      <trkpt lat="44.48842" lon="1.63303">
        <ele>133.9</ele>
        <time>2015-10-31T15:30:36Z</time>
      </trkpt>
      <trkpt lat="44.48843" lon="1.63296">
        <ele>133.5</ele>
        <time>2015-10-31T15:30:37Z</time>
      </trkpt>
      <trkpt lat="44.48844" lon="1.63288">
        <ele>133.3</ele>
        <time>2015-10-31T15:30:38Z</time>
      </trkpt>
      <trkpt lat="44.48844" lon="1.63284">
        <ele>133.2</ele>
        <time>2015-10-31T15:30:39Z</time>
      </trkpt>
      <trkpt lat="44.48845" lon="1.63277">
        <ele>133.1</ele>
        <time>2015-10-31T15:30:40Z</time>
      </trkpt>
      <trkpt lat="44.48847" lon="1.6327">
        <ele>133.2</ele>
        <time>2015-10-31T15:30:41Z</time>
      </trkpt>
      <trkpt lat="44.48849" lon="1.63263">
        <ele>133.1</ele>
        <time>2015-10-31T15:30:42Z</time>
      </trkpt>
      <trkpt lat="44.48849" lon="1.63255">
        <ele>132.9</ele>
        <time>2015-10-31T15:30:43Z</time>
      </trkpt>
      <trkpt lat="44.48851" lon="1.63248">
        <ele>132.8</ele>
        <time>2015-10-31T15:30:44Z</time>
      </trkpt>
      <trkpt lat="44.48852" lon="1.63241">
        <ele>132.8</ele>
        <time>2015-10-31T15:30:45Z</time>
      </trkpt>
      <trkpt lat="44.48853" lon="1.63236">
        <ele>132.7</ele>
        <time>2015-10-31T15:30:46Z</time>
      </trkpt>
      <trkpt lat="44.48854" lon="1.63229">
        <ele>132.6</ele>
        <time>2015-10-31T15:30:47Z</time>
      </trkpt>
      <trkpt lat="44.48853" lon="1.63223">
        <ele>132.3</ele>
        <time>2015-10-31T15:30:48Z</time>
      </trkpt>
      <trkpt lat="44.48854" lon="1.63214">
        <ele>132.1</ele>
        <time>2015-10-31T15:30:49Z</time>
      </trkpt>
      <trkpt lat="44.48856" lon="1.63208">
        <ele>132.1</ele>
        <time>2015-10-31T15:30:50Z</time>
      </trkpt>
      <trkpt lat="44.48857" lon="1.63201">
        <ele>132.1</ele>
        <time>2015-10-31T15:30:51Z</time>
      </trkpt>
      <trkpt lat="44.48859" lon="1.63195">
        <ele>132.1</ele>
        <time>2015-10-31T15:30:52Z</time>
      </trkpt>
      <trkpt lat="44.4886" lon="1.63187">
        <ele>132</ele>
        <time>2015-10-31T15:30:53Z</time>
      </trkpt>
      <trkpt lat="44.48861" lon="1.63179">
        <ele>132</ele>
        <time>2015-10-31T15:30:54Z</time>
      </trkpt>
      <trkpt lat="44.48863" lon="1.63171">
        <ele>132</ele>
        <time>2015-10-31T15:30:55Z</time>
      </trkpt>
      <trkpt lat="44.48864" lon="1.63164">
        <ele>132</ele>
        <time>2015-10-31T15:30:56Z</time>
      </trkpt>
      <trkpt lat="44.48865" lon="1.63156">
        <ele>132</ele>
        <time>2015-10-31T15:30:57Z</time>
      </trkpt>
      <trkpt lat="44.48867" lon="1.63149">
        <ele>132</ele>
        <time>2015-10-31T15:30:58Z</time>
      </trkpt>
      <trkpt lat="44.48868" lon="1.63141">
        <ele>131.9</ele>
        <time>2015-10-31T15:30:59Z</time>
      </trkpt>
      <trkpt lat="44.48871" lon="1.63131">
        <ele>131.9</ele>
        <time>2015-10-31T15:31:00Z</time>
      </trkpt>
      <trkpt lat="44.48871" lon="1.63124">
        <ele>131.9</ele>
        <time>2015-10-31T15:31:01Z</time>
      </trkpt>
      <trkpt lat="44.48873" lon="1.63113">
        <ele>131.8</ele>
        <time>2015-10-31T15:31:02Z</time>
      </trkpt>
      <trkpt lat="44.48873" lon="1.63107">
        <ele>131.7</ele>
        <time>2015-10-31T15:31:03Z</time>
      </trkpt>
      <trkpt lat="44.48874" lon="1.63102">
        <ele>131.7</ele>
        <time>2015-10-31T15:31:04Z</time>
      </trkpt>
      <trkpt lat="44.48876" lon="1.63093">
        <ele>132</ele>
        <time>2015-10-31T15:31:05Z</time>
      </trkpt>
      <trkpt lat="44.48877" lon="1.63087">
        <ele>132</ele>
        <time>2015-10-31T15:31:06Z</time>
      </trkpt>
      <trkpt lat="44.48879" lon="1.63078">
        <ele>132.6</ele>
        <time>2015-10-31T15:31:07Z</time>
      </trkpt>
      <trkpt lat="44.48878" lon="1.63066">
        <ele>132.2</ele>
        <time>2015-10-31T15:31:08Z</time>
      </trkpt>
      <trkpt lat="44.48882" lon="1.63057">
        <ele>133.2</ele>
        <time>2015-10-31T15:31:09Z</time>
      </trkpt>
      <trkpt lat="44.48882" lon="1.6305">
        <ele>133.2</ele>
        <time>2015-10-31T15:31:10Z</time>
      </trkpt>
      <trkpt lat="44.48883" lon="1.63041">
        <ele>133.5</ele>
        <time>2015-10-31T15:31:11Z</time>
      </trkpt>
      <trkpt lat="44.48886" lon="1.63033">
        <ele>134.2</ele>
        <time>2015-10-31T15:31:12Z</time>
      </trkpt>
      <trkpt lat="44.48887" lon="1.63025">
        <ele>134.2</ele>
        <time>2015-10-31T15:31:13Z</time>
      </trkpt>
      <trkpt lat="44.4889" lon="1.6302">
        <ele>135.1</ele>
        <time>2015-10-31T15:31:14Z</time>
      </trkpt>
      <trkpt lat="44.4889" lon="1.63014">
        <ele>135</ele>
        <time>2015-10-31T15:31:15Z</time>
      </trkpt>
      <trkpt lat="44.48891" lon="1.63007">
        <ele>135</ele>
        <time>2015-10-31T15:31:16Z</time>
      </trkpt>
      <trkpt lat="44.48893" lon="1.62998">
        <ele>135.5</ele>
        <time>2015-10-31T15:31:17Z</time>
      </trkpt>
      <trkpt lat="44.48895" lon="1.6299">
        <ele>135.7</ele>
        <time>2015-10-31T15:31:18Z</time>
      </trkpt>
      <trkpt lat="44.48895" lon="1.62982">
        <ele>135.8</ele>
        <time>2015-10-31T15:31:19Z</time>
      </trkpt>
      <trkpt lat="44.48894" lon="1.62977">
        <ele>135.2</ele>
        <time>2015-10-31T15:31:20Z</time>
      </trkpt>
      <trkpt lat="44.48893" lon="1.6297">
        <ele>134.7</ele>
        <time>2015-10-31T15:31:21Z</time>
      </trkpt>
      <trkpt lat="44.48893" lon="1.62962">
        <ele>134.5</ele>
        <time>2015-10-31T15:31:22Z</time>
      </trkpt>
      <trkpt lat="44.48893" lon="1.62955">
        <ele>134.4</ele>
        <time>2015-10-31T15:31:23Z</time>
      </trkpt>
      <trkpt lat="44.48894" lon="1.6295">
        <ele>134.5</ele>
        <time>2015-10-31T15:31:24Z</time>
      </trkpt>
      <trkpt lat="44.48896" lon="1.62943">
        <ele>135</ele>
        <time>2015-10-31T15:31:25Z</time>
      </trkpt>
      <trkpt lat="44.48896" lon="1.62937">
        <ele>135</ele>
        <time>2015-10-31T15:31:26Z</time>
      </trkpt>
      <trkpt lat="44.48895" lon="1.62928">
        <ele>134.5</ele>
        <time>2015-10-31T15:31:27Z</time>
      </trkpt>
      <trkpt lat="44.48895" lon="1.62921">
        <ele>134.4</ele>
        <time>2015-10-31T15:31:28Z</time>
      </trkpt>
      <trkpt lat="44.489" lon="1.62915">
        <ele>135.8</ele>
        <time>2015-10-31T15:31:29Z</time>
      </trkpt>
      <trkpt lat="44.48899" lon="1.62905">
        <ele>135.1</ele>
        <time>2015-10-31T15:31:30Z</time>
      </trkpt>
      <trkpt lat="44.48898" lon="1.62896">
        <ele>134.9</ele>
        <time>2015-10-31T15:31:31Z</time>
      </trkpt>
      <trkpt lat="44.48897" lon="1.62888">
        <ele>134.5</ele>
        <time>2015-10-31T15:31:32Z</time>
      </trkpt>
      <trkpt lat="44.48896" lon="1.62878">
        <ele>134.1</ele>
        <time>2015-10-31T15:31:33Z</time>
      </trkpt>
      <trkpt lat="44.48896" lon="1.6287">
        <ele>133.9</ele>
        <time>2015-10-31T15:31:34Z</time>
      </trkpt>
      <trkpt lat="44.48895" lon="1.62861">
        <ele>133.5</ele>
        <time>2015-10-31T15:31:35Z</time>
      </trkpt>
      <trkpt lat="44.48894" lon="1.62851">
        <ele>133</ele>
        <time>2015-10-31T15:31:36Z</time>
      </trkpt>
      <trkpt lat="44.48893" lon="1.62843">
        <ele>132.6</ele>
        <time>2015-10-31T15:31:37Z</time>
      </trkpt>
      <trkpt lat="44.48891" lon="1.62835">
        <ele>132.1</ele>
        <time>2015-10-31T15:31:38Z</time>
      </trkpt>
      <trkpt lat="44.4889" lon="1.62827">
        <ele>131.5</ele>
        <time>2015-10-31T15:31:39Z</time>
      </trkpt>
      <trkpt lat="44.48889" lon="1.62817">
        <ele>131.2</ele>
        <time>2015-10-31T15:31:40Z</time>
      </trkpt>
      <trkpt lat="44.48891" lon="1.62808">
        <ele>131.4</ele>
        <time>2015-10-31T15:31:41Z</time>
      </trkpt>
      <trkpt lat="44.48891" lon="1.628">
        <ele>131.2</ele>
        <time>2015-10-31T15:31:42Z</time>
      </trkpt>
      <trkpt lat="44.4889" lon="1.62792">
        <ele>131</ele>
        <time>2015-10-31T15:31:43Z</time>
      </trkpt>
      <trkpt lat="44.48887" lon="1.62783">
        <ele>130.5</ele>
        <time>2015-10-31T15:31:44Z</time>
      </trkpt>
      <trkpt lat="44.48888" lon="1.62775">
        <ele>130.8</ele>
        <time>2015-10-31T15:31:45Z</time>
      </trkpt>
      <trkpt lat="44.48891" lon="1.62765">
        <ele>131.5</ele>
        <time>2015-10-31T15:31:46Z</time>
      </trkpt>
      <trkpt lat="44.48891" lon="1.62757">
        <ele>131.8</ele>
        <time>2015-10-31T15:31:47Z</time>
      </trkpt>
      <trkpt lat="44.48891" lon="1.62748">
        <ele>131.9</ele>
        <time>2015-10-31T15:31:48Z</time>
      </trkpt>
      <trkpt lat="44.48891" lon="1.62739">
        <ele>132.2</ele>
        <time>2015-10-31T15:31:49Z</time>
      </trkpt>
      <trkpt lat="44.4889" lon="1.62729">
        <ele>132</ele>
        <time>2015-10-31T15:31:50Z</time>
      </trkpt>
      <trkpt lat="44.48888" lon="1.62721">
        <ele>131.8</ele>
        <time>2015-10-31T15:31:51Z</time>
      </trkpt>
      <trkpt lat="44.48887" lon="1.62712">
        <ele>131.8</ele>
        <time>2015-10-31T15:31:52Z</time>
      </trkpt>
      <trkpt lat="44.48887" lon="1.62704">
        <ele>131.6</ele>
        <time>2015-10-31T15:31:53Z</time>
      </trkpt>
      <trkpt lat="44.48887" lon="1.62696">
        <ele>131.6</ele>
        <time>2015-10-31T15:31:54Z</time>
      </trkpt>
      <trkpt lat="44.48886" lon="1.62687">
        <ele>131.4</ele>
        <time>2015-10-31T15:31:55Z</time>
      </trkpt>
      <trkpt lat="44.48886" lon="1.62679">
        <ele>131.2</ele>
        <time>2015-10-31T15:31:56Z</time>
      </trkpt>
      <trkpt lat="44.48887" lon="1.62671">
        <ele>131.4</ele>
        <time>2015-10-31T15:31:57Z</time>
      </trkpt>
      <trkpt lat="44.48887" lon="1.62663">
        <ele>131.4</ele>
        <time>2015-10-31T15:31:58Z</time>
      </trkpt>
      <trkpt lat="44.48886" lon="1.62656">
        <ele>131.2</ele>
        <time>2015-10-31T15:31:59Z</time>
      </trkpt>
      <trkpt lat="44.48887" lon="1.62649">
        <ele>131.2</ele>
        <time>2015-10-31T15:32:00Z</time>
      </trkpt>
      <trkpt lat="44.48885" lon="1.62643">
        <ele>131</ele>
        <time>2015-10-31T15:32:01Z</time>
      </trkpt>
      <trkpt lat="44.48885" lon="1.62632">
        <ele>130.8</ele>
        <time>2015-10-31T15:32:02Z</time>
      </trkpt>
      <trkpt lat="44.48886" lon="1.62623">
        <ele>131</ele>
        <time>2015-10-31T15:32:03Z</time>
      </trkpt>
      <trkpt lat="44.48886" lon="1.62614">
        <ele>131.1</ele>
        <time>2015-10-31T15:32:04Z</time>
      </trkpt>
      <trkpt lat="44.48885" lon="1.62606">
        <ele>131.1</ele>
        <time>2015-10-31T15:32:05Z</time>
      </trkpt>
      <trkpt lat="44.48884" lon="1.62599">
        <ele>131</ele>
        <time>2015-10-31T15:32:06Z</time>
      </trkpt>
      <trkpt lat="44.48883" lon="1.62591">
        <ele>131</ele>
        <time>2015-10-31T15:32:07Z</time>
      </trkpt>
      <trkpt lat="44.48882" lon="1.62584">
        <ele>130.9</ele>
        <time>2015-10-31T15:32:08Z</time>
      </trkpt>
      <trkpt lat="44.48883" lon="1.62577">
        <ele>131.1</ele>
        <time>2015-10-31T15:32:09Z</time>
      </trkpt>
      <trkpt lat="44.48883" lon="1.62569">
        <ele>131.3</ele>
        <time>2015-10-31T15:32:10Z</time>
      </trkpt>
      <trkpt lat="44.48885" lon="1.6256">
        <ele>131.8</ele>
        <time>2015-10-31T15:32:11Z</time>
      </trkpt>
      <trkpt lat="44.48884" lon="1.62552">
        <ele>131.8</ele>
        <time>2015-10-31T15:32:12Z</time>
      </trkpt>
      <trkpt lat="44.48885" lon="1.62545">
        <ele>132.1</ele>
        <time>2015-10-31T15:32:13Z</time>
      </trkpt>
      <trkpt lat="44.48885" lon="1.62537">
        <ele>132.3</ele>
        <time>2015-10-31T15:32:14Z</time>
      </trkpt>
      <trkpt lat="44.48884" lon="1.62532">
        <ele>132</ele>
        <time>2015-10-31T15:32:15Z</time>
      </trkpt>
      <trkpt lat="44.48884" lon="1.62525">
        <ele>132.2</ele>
        <time>2015-10-31T15:32:16Z</time>
      </trkpt>
      <trkpt lat="44.48884" lon="1.62518">
        <ele>132.3</ele>
        <time>2015-10-31T15:32:17Z</time>
      </trkpt>
      <trkpt lat="44.48884" lon="1.62509">
        <ele>132.4</ele>
        <time>2015-10-31T15:32:18Z</time>
      </trkpt>
      <trkpt lat="44.48888" lon="1.62499">
        <ele>133.4</ele>
        <time>2015-10-31T15:32:19Z</time>
      </trkpt>
      <trkpt lat="44.4889" lon="1.62491">
        <ele>134</ele>
        <time>2015-10-31T15:32:20Z</time>
      </trkpt>
      <trkpt lat="44.48884" lon="1.62486">
        <ele>132.8</ele>
        <time>2015-10-31T15:32:21Z</time>
      </trkpt>
      <trkpt lat="44.48883" lon="1.62478">
        <ele>132.7</ele>
        <time>2015-10-31T15:32:22Z</time>
      </trkpt>
      <trkpt lat="44.48883" lon="1.62471">
        <ele>132.8</ele>
        <time>2015-10-31T15:32:23Z</time>
      </trkpt>
      <trkpt lat="44.4888" lon="1.62463">
        <ele>132.2</ele>
        <time>2015-10-31T15:32:24Z</time>
      </trkpt>
      <trkpt lat="44.48877" lon="1.62455">
        <ele>131.6</ele>
        <time>2015-10-31T15:32:25Z</time>
      </trkpt>
      <trkpt lat="44.48884" lon="1.62448">
        <ele>133.1</ele>
        <time>2015-10-31T15:32:26Z</time>
      </trkpt>
      <trkpt lat="44.48882" lon="1.6244">
        <ele>132.6</ele>
        <time>2015-10-31T15:32:27Z</time>
      </trkpt>
      <trkpt lat="44.48881" lon="1.62432">
        <ele>132.5</ele>
        <time>2015-10-31T15:32:28Z</time>
      </trkpt>
      <trkpt lat="44.48882" lon="1.62425">
        <ele>132.7</ele>
        <time>2015-10-31T15:32:29Z</time>
      </trkpt>
      <trkpt lat="44.48882" lon="1.62417">
        <ele>132.7</ele>
        <time>2015-10-31T15:32:30Z</time>
      </trkpt>
      <trkpt lat="44.48883" lon="1.6241">
        <ele>132.9</ele>
        <time>2015-10-31T15:32:31Z</time>
      </trkpt>
      <trkpt lat="44.48882" lon="1.62402">
        <ele>132.8</ele>
        <time>2015-10-31T15:32:32Z</time>
      </trkpt>
      <trkpt lat="44.48881" lon="1.62393">
        <ele>132.5</ele>
        <time>2015-10-31T15:32:33Z</time>
      </trkpt>
      <trkpt lat="44.48881" lon="1.62386">
        <ele>132.4</ele>
        <time>2015-10-31T15:32:34Z</time>
      </trkpt>
      <trkpt lat="44.4888" lon="1.62378">
        <ele>132.1</ele>
        <time>2015-10-31T15:32:35Z</time>
      </trkpt>
      <trkpt lat="44.48879" lon="1.6237">
        <ele>132</ele>
        <time>2015-10-31T15:32:36Z</time>
      </trkpt>
      <trkpt lat="44.4888" lon="1.62362">
        <ele>132.5</ele>
        <time>2015-10-31T15:32:37Z</time>
      </trkpt>
      <trkpt lat="44.48881" lon="1.62355">
        <ele>132.8</ele>
        <time>2015-10-31T15:32:38Z</time>
      </trkpt>
      <trkpt lat="44.48879" lon="1.62346">
        <ele>132.7</ele>
        <time>2015-10-31T15:32:39Z</time>
      </trkpt>
      <trkpt lat="44.48879" lon="1.62338">
        <ele>132.9</ele>
        <time>2015-10-31T15:32:40Z</time>
      </trkpt>
      <trkpt lat="44.48879" lon="1.6233">
        <ele>133.1</ele>
        <time>2015-10-31T15:32:41Z</time>
      </trkpt>
      <trkpt lat="44.48879" lon="1.62322">
        <ele>133.2</ele>
        <time>2015-10-31T15:32:42Z</time>
      </trkpt>
      <trkpt lat="44.48879" lon="1.62313">
        <ele>133.4</ele>
        <time>2015-10-31T15:32:43Z</time>
      </trkpt>
      <trkpt lat="44.48878" lon="1.62305">
        <ele>133.3</ele>
        <time>2015-10-31T15:32:44Z</time>
      </trkpt>
      <trkpt lat="44.4888" lon="1.62298">
        <ele>133.9</ele>
        <time>2015-10-31T15:32:45Z</time>
      </trkpt>
      <trkpt lat="44.48878" lon="1.62289">
        <ele>133.7</ele>
        <time>2015-10-31T15:32:46Z</time>
      </trkpt>
      <trkpt lat="44.48878" lon="1.62282">
        <ele>133.6</ele>
        <time>2015-10-31T15:32:47Z</time>
      </trkpt>
      <trkpt lat="44.48877" lon="1.62274">
        <ele>133.3</ele>
        <time>2015-10-31T15:32:48Z</time>
      </trkpt>
      <trkpt lat="44.48876" lon="1.62266">
        <ele>133.3</ele>
        <time>2015-10-31T15:32:49Z</time>
      </trkpt>
      <trkpt lat="44.48875" lon="1.62258">
        <ele>133</ele>
        <time>2015-10-31T15:32:50Z</time>
      </trkpt>
      <trkpt lat="44.48873" lon="1.62251">
        <ele>132.9</ele>
        <time>2015-10-31T15:32:51Z</time>
      </trkpt>
      <trkpt lat="44.48872" lon="1.62242">
        <ele>132.9</ele>
        <time>2015-10-31T15:32:52Z</time>
      </trkpt>
      <trkpt lat="44.4887" lon="1.62234">
        <ele>132.8</ele>
        <time>2015-10-31T15:32:53Z</time>
      </trkpt>
      <trkpt lat="44.48869" lon="1.62226">
        <ele>132.8</ele>
        <time>2015-10-31T15:32:54Z</time>
      </trkpt>
      <trkpt lat="44.48868" lon="1.62218">
        <ele>132.7</ele>
        <time>2015-10-31T15:32:55Z</time>
      </trkpt>
      <trkpt lat="44.48868" lon="1.62211">
        <ele>132.7</ele>
        <time>2015-10-31T15:32:56Z</time>
      </trkpt>
      <trkpt lat="44.48867" lon="1.62204">
        <ele>132.8</ele>
        <time>2015-10-31T15:32:57Z</time>
      </trkpt>
      <trkpt lat="44.48867" lon="1.62196">
        <ele>132.9</ele>
        <time>2015-10-31T15:32:58Z</time>
      </trkpt>
      <trkpt lat="44.48866" lon="1.62189">
        <ele>133</ele>
        <time>2015-10-31T15:32:59Z</time>
      </trkpt>
      <trkpt lat="44.48865" lon="1.62182">
        <ele>133.1</ele>
        <time>2015-10-31T15:33:00Z</time>
      </trkpt>
      <trkpt lat="44.48864" lon="1.62174">
        <ele>133.2</ele>
        <time>2015-10-31T15:33:01Z</time>
      </trkpt>
      <trkpt lat="44.48863" lon="1.62166">
        <ele>133.4</ele>
        <time>2015-10-31T15:33:02Z</time>
      </trkpt>
      <trkpt lat="44.48863" lon="1.62158">
        <ele>133.5</ele>
        <time>2015-10-31T15:33:03Z</time>
      </trkpt>
      <trkpt lat="44.48861" lon="1.6215">
        <ele>133.7</ele>
        <time>2015-10-31T15:33:04Z</time>
      </trkpt>
      <trkpt lat="44.48861" lon="1.62143">
        <ele>133.8</ele>
        <time>2015-10-31T15:33:05Z</time>
      </trkpt>
      <trkpt lat="44.48861" lon="1.62136">
        <ele>133.9</ele>
        <time>2015-10-31T15:33:06Z</time>
      </trkpt>
      <trkpt lat="44.48862" lon="1.62129">
        <ele>134.1</ele>
        <time>2015-10-31T15:33:07Z</time>
      </trkpt>
      <trkpt lat="44.48862" lon="1.62123">
        <ele>134.2</ele>
        <time>2015-10-31T15:33:08Z</time>
      </trkpt>
      <trkpt lat="44.48862" lon="1.62116">
        <ele>134.4</ele>
        <time>2015-10-31T15:33:09Z</time>
      </trkpt>
      <trkpt lat="44.4886" lon="1.62108">
        <ele>134.7</ele>
        <time>2015-10-31T15:33:10Z</time>
      </trkpt>
      <trkpt lat="44.48859" lon="1.62101">
        <ele>134.8</ele>
        <time>2015-10-31T15:33:11Z</time>
      </trkpt>
      <trkpt lat="44.48859" lon="1.62094">
        <ele>135</ele>
        <time>2015-10-31T15:33:12Z</time>
      </trkpt>
      <trkpt lat="44.48858" lon="1.62086">
        <ele>135.2</ele>
        <time>2015-10-31T15:33:13Z</time>
      </trkpt>
      <trkpt lat="44.48858" lon="1.62078">
        <ele>135.4</ele>
        <time>2015-10-31T15:33:14Z</time>
      </trkpt>
      <trkpt lat="44.48857" lon="1.62071">
        <ele>135.6</ele>
        <time>2015-10-31T15:33:15Z</time>
      </trkpt>
      <trkpt lat="44.48858" lon="1.62064">
        <ele>135.8</ele>
        <time>2015-10-31T15:33:16Z</time>
      </trkpt>
      <trkpt lat="44.48856" lon="1.62056">
        <ele>136</ele>
        <time>2015-10-31T15:33:17Z</time>
      </trkpt>
      <trkpt lat="44.48859" lon="1.6205">
        <ele>136.2</ele>
        <time>2015-10-31T15:33:18Z</time>
      </trkpt>
      <trkpt lat="44.48859" lon="1.62043">
        <ele>136.4</ele>
        <time>2015-10-31T15:33:19Z</time>
      </trkpt>
      <trkpt lat="44.48858" lon="1.62036">
        <ele>136.7</ele>
        <time>2015-10-31T15:33:20Z</time>
      </trkpt>
      <trkpt lat="44.48858" lon="1.62028">
        <ele>137</ele>
        <time>2015-10-31T15:33:21Z</time>
      </trkpt>
      <trkpt lat="44.48858" lon="1.6202">
        <ele>137.3</ele>
        <time>2015-10-31T15:33:22Z</time>
      </trkpt>
      <trkpt lat="44.48856" lon="1.62012">
        <ele>137.6</ele>
        <time>2015-10-31T15:33:23Z</time>
      </trkpt>
      <trkpt lat="44.48855" lon="1.62004">
        <ele>137.9</ele>
        <time>2015-10-31T15:33:24Z</time>
      </trkpt>
      <trkpt lat="44.48853" lon="1.61997">
        <ele>138.1</ele>
        <time>2015-10-31T15:33:25Z</time>
      </trkpt>
      <trkpt lat="44.48853" lon="1.61989">
        <ele>138.4</ele>
        <time>2015-10-31T15:33:26Z</time>
      </trkpt>
      <trkpt lat="44.48853" lon="1.61981">
        <ele>138.7</ele>
        <time>2015-10-31T15:33:27Z</time>
      </trkpt>
      <trkpt lat="44.48853" lon="1.61974">
        <ele>139</ele>
        <time>2015-10-31T15:33:28Z</time>
      </trkpt>
      <trkpt lat="44.48852" lon="1.61966">
        <ele>139.3</ele>
        <time>2015-10-31T15:33:29Z</time>
      </trkpt>
      <trkpt lat="44.4885" lon="1.61958">
        <ele>139.5</ele>
        <time>2015-10-31T15:33:30Z</time>
      </trkpt>
      <trkpt lat="44.48848" lon="1.61949">
        <ele>139.8</ele>
        <time>2015-10-31T15:33:31Z</time>
      </trkpt>
      <trkpt lat="44.48848" lon="1.61941">
        <ele>140</ele>
        <time>2015-10-31T15:33:32Z</time>
      </trkpt>
      <trkpt lat="44.48847" lon="1.61933">
        <ele>140.2</ele>
        <time>2015-10-31T15:33:33Z</time>
      </trkpt>
      <trkpt lat="44.48848" lon="1.61926">
        <ele>140.6</ele>
        <time>2015-10-31T15:33:34Z</time>
      </trkpt>
      <trkpt lat="44.48847" lon="1.61918">
        <ele>140.7</ele>
        <time>2015-10-31T15:33:35Z</time>
      </trkpt>
      <trkpt lat="44.48844" lon="1.6191">
        <ele>140.7</ele>
        <time>2015-10-31T15:33:36Z</time>
      </trkpt>
      <trkpt lat="44.48842" lon="1.61901">
        <ele>140.6</ele>
        <time>2015-10-31T15:33:37Z</time>
      </trkpt>
      <trkpt lat="44.48842" lon="1.61893">
        <ele>141</ele>
        <time>2015-10-31T15:33:38Z</time>
      </trkpt>
      <trkpt lat="44.48839" lon="1.61884">
        <ele>140.8</ele>
        <time>2015-10-31T15:33:39Z</time>
      </trkpt>
      <trkpt lat="44.48837" lon="1.61876">
        <ele>140.5</ele>
        <time>2015-10-31T15:33:40Z</time>
      </trkpt>
      <trkpt lat="44.48836" lon="1.61868">
        <ele>140.6</ele>
        <time>2015-10-31T15:33:41Z</time>
      </trkpt>
      <trkpt lat="44.48834" lon="1.6186">
        <ele>140.5</ele>
        <time>2015-10-31T15:33:42Z</time>
      </trkpt>
      <trkpt lat="44.48831" lon="1.61852">
        <ele>140.2</ele>
        <time>2015-10-31T15:33:43Z</time>
      </trkpt>
      <trkpt lat="44.48827" lon="1.61843">
        <ele>139.8</ele>
        <time>2015-10-31T15:33:44Z</time>
      </trkpt>
      <trkpt lat="44.48828" lon="1.61836">
        <ele>140.2</ele>
        <time>2015-10-31T15:33:45Z</time>
      </trkpt>
      <trkpt lat="44.48826" lon="1.61828">
        <ele>140</ele>
        <time>2015-10-31T15:33:46Z</time>
      </trkpt>
      <trkpt lat="44.48828" lon="1.61821">
        <ele>140.6</ele>
        <time>2015-10-31T15:33:47Z</time>
      </trkpt>
      <trkpt lat="44.48831" lon="1.61814">
        <ele>141.3</ele>
        <time>2015-10-31T15:33:48Z</time>
      </trkpt>
      <trkpt lat="44.48832" lon="1.61807">
        <ele>141.7</ele>
        <time>2015-10-31T15:33:49Z</time>
      </trkpt>
      <trkpt lat="44.48828" lon="1.61798">
        <ele>141.2</ele>
        <time>2015-10-31T15:33:50Z</time>
      </trkpt>
      <trkpt lat="44.48829" lon="1.61791">
        <ele>141.6</ele>
        <time>2015-10-31T15:33:51Z</time>
      </trkpt>
      <trkpt lat="44.48832" lon="1.61783">
        <ele>142.6</ele>
        <time>2015-10-31T15:33:52Z</time>
      </trkpt>
      <trkpt lat="44.48831" lon="1.61775">
        <ele>142.4</ele>
        <time>2015-10-31T15:33:53Z</time>
      </trkpt>
      <trkpt lat="44.48827" lon="1.61766">
        <ele>141.9</ele>
        <time>2015-10-31T15:33:54Z</time>
      </trkpt>
      <trkpt lat="44.48826" lon="1.61758">
        <ele>141.8</ele>
        <time>2015-10-31T15:33:55Z</time>
      </trkpt>
      <trkpt lat="44.48828" lon="1.61751">
        <ele>142.3</ele>
        <time>2015-10-31T15:33:56Z</time>
      </trkpt>
      <trkpt lat="44.48828" lon="1.61744">
        <ele>142.5</ele>
        <time>2015-10-31T15:33:57Z</time>
      </trkpt>
      <trkpt lat="44.48826" lon="1.61735">
        <ele>142.4</ele>
        <time>2015-10-31T15:33:58Z</time>
      </trkpt>
      <trkpt lat="44.48825" lon="1.61726">
        <ele>142.3</ele>
        <time>2015-10-31T15:33:59Z</time>
      </trkpt>
      <trkpt lat="44.48822" lon="1.61717">
        <ele>141.6</ele>
        <time>2015-10-31T15:34:00Z</time>
      </trkpt>
      <trkpt lat="44.48822" lon="1.61709">
        <ele>141.6</ele>
        <time>2015-10-31T15:34:01Z</time>
      </trkpt>
      <trkpt lat="44.48822" lon="1.61702">
        <ele>141.9</ele>
        <time>2015-10-31T15:34:02Z</time>
      </trkpt>
      <trkpt lat="44.48821" lon="1.61694">
        <ele>141.9</ele>
        <time>2015-10-31T15:34:03Z</time>
      </trkpt>
      <trkpt lat="44.4882" lon="1.61686">
        <ele>141.9</ele>
        <time>2015-10-31T15:34:04Z</time>
      </trkpt>
      <trkpt lat="44.48819" lon="1.61677">
        <ele>141.9</ele>
        <time>2015-10-31T15:34:05Z</time>
      </trkpt>
      <trkpt lat="44.48818" lon="1.6167">
        <ele>141.9</ele>
        <time>2015-10-31T15:34:06Z</time>
      </trkpt>
      <trkpt lat="44.48818" lon="1.61663">
        <ele>142.3</ele>
        <time>2015-10-31T15:34:07Z</time>
      </trkpt>
      <trkpt lat="44.4882" lon="1.61655">
        <ele>143</ele>
        <time>2015-10-31T15:34:08Z</time>
      </trkpt>
      <trkpt lat="44.48817" lon="1.61646">
        <ele>142.6</ele>
        <time>2015-10-31T15:34:09Z</time>
      </trkpt>
      <trkpt lat="44.48819" lon="1.61639">
        <ele>143.2</ele>
        <time>2015-10-31T15:34:10Z</time>
      </trkpt>
      <trkpt lat="44.48819" lon="1.61631">
        <ele>143.6</ele>
        <time>2015-10-31T15:34:11Z</time>
      </trkpt>
      <trkpt lat="44.48821" lon="1.61623">
        <ele>144.3</ele>
        <time>2015-10-31T15:34:12Z</time>
      </trkpt>
      <trkpt lat="44.4882" lon="1.61615">
        <ele>144</ele>
        <time>2015-10-31T15:34:13Z</time>
      </trkpt>
      <trkpt lat="44.48817" lon="1.61606">
        <ele>142.7</ele>
        <time>2015-10-31T15:34:14Z</time>
      </trkpt>
      <trkpt lat="44.48813" lon="1.61597">
        <ele>141.4</ele>
        <time>2015-10-31T15:34:15Z</time>
      </trkpt>
      <trkpt lat="44.48809" lon="1.6159">
        <ele>140.1</ele>
        <time>2015-10-31T15:34:16Z</time>
      </trkpt>
      <trkpt lat="44.48808" lon="1.61581">
        <ele>139.8</ele>
        <time>2015-10-31T15:34:17Z</time>
      </trkpt>
      <trkpt lat="44.48809" lon="1.61574">
        <ele>139.6</ele>
        <time>2015-10-31T15:34:18Z</time>
      </trkpt>
      <trkpt lat="44.48806" lon="1.61565">
        <ele>138.8</ele>
        <time>2015-10-31T15:34:19Z</time>
      </trkpt>
      <trkpt lat="44.48806" lon="1.61557">
        <ele>138.6</ele>
        <time>2015-10-31T15:34:20Z</time>
      </trkpt>
      <trkpt lat="44.48806" lon="1.61549">
        <ele>138.4</ele>
        <time>2015-10-31T15:34:21Z</time>
      </trkpt>
      <trkpt lat="44.48805" lon="1.61541">
        <ele>137.9</ele>
        <time>2015-10-31T15:34:22Z</time>
      </trkpt>
      <trkpt lat="44.48805" lon="1.61533">
        <ele>137.4</ele>
        <time>2015-10-31T15:34:23Z</time>
      </trkpt>
      <trkpt lat="44.48803" lon="1.61525">
        <ele>136.7</ele>
        <time>2015-10-31T15:34:24Z</time>
      </trkpt>
      <trkpt lat="44.48802" lon="1.61517">
        <ele>136.1</ele>
        <time>2015-10-31T15:34:25Z</time>
      </trkpt>
      <trkpt lat="44.488" lon="1.61509">
        <ele>135.2</ele>
        <time>2015-10-31T15:34:26Z</time>
      </trkpt>
      <trkpt lat="44.48796" lon="1.615">
        <ele>134</ele>
        <time>2015-10-31T15:34:27Z</time>
      </trkpt>
      <trkpt lat="44.48795" lon="1.61492">
        <ele>133.5</ele>
        <time>2015-10-31T15:34:28Z</time>
      </trkpt>
      <trkpt lat="44.48795" lon="1.61483">
        <ele>133.3</ele>
        <time>2015-10-31T15:34:29Z</time>
      </trkpt>
      <trkpt lat="44.48794" lon="1.61477">
        <ele>132.9</ele>
        <time>2015-10-31T15:34:30Z</time>
      </trkpt>
      <trkpt lat="44.48792" lon="1.61468">
        <ele>132.4</ele>
        <time>2015-10-31T15:34:31Z</time>
      </trkpt>
      <trkpt lat="44.48791" lon="1.6146">
        <ele>132</ele>
        <time>2015-10-31T15:34:32Z</time>
      </trkpt>
      <trkpt lat="44.48789" lon="1.61452">
        <ele>132.3</ele>
        <time>2015-10-31T15:34:33Z</time>
      </trkpt>
      <trkpt lat="44.48788" lon="1.61444">
        <ele>132.7</ele>
        <time>2015-10-31T15:34:34Z</time>
      </trkpt>
      <trkpt lat="44.48787" lon="1.61435">
        <ele>133.1</ele>
        <time>2015-10-31T15:34:35Z</time>
      </trkpt>
      <trkpt lat="44.48786" lon="1.61427">
        <ele>133.5</ele>
        <time>2015-10-31T15:34:36Z</time>
      </trkpt>
      <trkpt lat="44.48784" lon="1.6142">
        <ele>133.8</ele>
        <time>2015-10-31T15:34:37Z</time>
      </trkpt>
      <trkpt lat="44.48783" lon="1.61411">
        <ele>134.1</ele>
        <time>2015-10-31T15:34:38Z</time>
      </trkpt>
      <trkpt lat="44.48783" lon="1.61403">
        <ele>134.4</ele>
        <time>2015-10-31T15:34:39Z</time>
      </trkpt>
      <trkpt lat="44.48782" lon="1.61395">
        <ele>134.8</ele>
        <time>2015-10-31T15:34:40Z</time>
      </trkpt>
      <trkpt lat="44.4878" lon="1.61386">
        <ele>135</ele>
        <time>2015-10-31T15:34:41Z</time>
      </trkpt>
      <trkpt lat="44.48779" lon="1.61377">
        <ele>135.3</ele>
        <time>2015-10-31T15:34:42Z</time>
      </trkpt>
      <trkpt lat="44.48776" lon="1.61369">
        <ele>136.1</ele>
        <time>2015-10-31T15:34:43Z</time>
      </trkpt>
      <trkpt lat="44.48775" lon="1.61361">
        <ele>137</ele>
        <time>2015-10-31T15:34:44Z</time>
      </trkpt>
      <trkpt lat="44.48773" lon="1.61353">
        <ele>137.8</ele>
        <time>2015-10-31T15:34:45Z</time>
      </trkpt>
      <trkpt lat="44.48772" lon="1.61344">
        <ele>138.9</ele>
        <time>2015-10-31T15:34:46Z</time>
      </trkpt>
      <trkpt lat="44.4877" lon="1.61336">
        <ele>139.5</ele>
        <time>2015-10-31T15:34:47Z</time>
      </trkpt>
      <trkpt lat="44.48768" lon="1.61329">
        <ele>140</ele>
        <time>2015-10-31T15:34:48Z</time>
      </trkpt>
      <trkpt lat="44.48765" lon="1.61322">
        <ele>140.4</ele>
        <time>2015-10-31T15:34:49Z</time>
      </trkpt>
      <trkpt lat="44.48765" lon="1.61315">
        <ele>141.1</ele>
        <time>2015-10-31T15:34:50Z</time>
      </trkpt>
      <trkpt lat="44.48763" lon="1.61308">
        <ele>141.5</ele>
        <time>2015-10-31T15:34:51Z</time>
      </trkpt>
      <trkpt lat="44.48764" lon="1.61301">
        <ele>142.3</ele>
        <time>2015-10-31T15:34:52Z</time>
      </trkpt>
      <trkpt lat="44.48759" lon="1.61294">
        <ele>141.8</ele>
        <time>2015-10-31T15:34:53Z</time>
      </trkpt>
      <trkpt lat="44.48755" lon="1.61287">
        <ele>141.9</ele>
        <time>2015-10-31T15:34:54Z</time>
      </trkpt>
      <trkpt lat="44.48752" lon="1.61279">
        <ele>142.3</ele>
        <time>2015-10-31T15:34:55Z</time>
      </trkpt>
      <trkpt lat="44.48748" lon="1.61273">
        <ele>142.3</ele>
        <time>2015-10-31T15:34:56Z</time>
      </trkpt>
      <trkpt lat="44.48749" lon="1.61264">
        <ele>143.9</ele>
        <time>2015-10-31T15:34:57Z</time>
      </trkpt>
      <trkpt lat="44.48748" lon="1.61257">
        <ele>144.6</ele>
        <time>2015-10-31T15:34:58Z</time>
      </trkpt>
      <trkpt lat="44.48748" lon="1.6125">
        <ele>145.5</ele>
        <time>2015-10-31T15:34:59Z</time>
      </trkpt>
      <trkpt lat="44.48747" lon="1.61241">
        <ele>146.7</ele>
        <time>2015-10-31T15:35:00Z</time>
      </trkpt>
      <trkpt lat="44.48746" lon="1.61233">
        <ele>147.5</ele>
        <time>2015-10-31T15:35:01Z</time>
      </trkpt>
      <trkpt lat="44.4874" lon="1.61226">
        <ele>146.3</ele>
        <time>2015-10-31T15:35:02Z</time>
      </trkpt>
      <trkpt lat="44.48737" lon="1.6122">
        <ele>146.1</ele>
        <time>2015-10-31T15:35:03Z</time>
      </trkpt>
      <trkpt lat="44.48735" lon="1.61212">
        <ele>146.6</ele>
        <time>2015-10-31T15:35:04Z</time>
      </trkpt>
      <trkpt lat="44.48733" lon="1.61206">
        <ele>146.3</ele>
        <time>2015-10-31T15:35:05Z</time>
      </trkpt>
      <trkpt lat="44.48729" lon="1.612">
        <ele>145.7</ele>
        <time>2015-10-31T15:35:06Z</time>
      </trkpt>
      <trkpt lat="44.48726" lon="1.61192">
        <ele>145.8</ele>
        <time>2015-10-31T15:35:07Z</time>
      </trkpt>
      <trkpt lat="44.48726" lon="1.61183">
        <ele>146.8</ele>
        <time>2015-10-31T15:35:08Z</time>
      </trkpt>
      <trkpt lat="44.48722" lon="1.61176">
        <ele>145.8</ele>
        <time>2015-10-31T15:35:09Z</time>
      </trkpt>
      <trkpt lat="44.48719" lon="1.61168">
        <ele>145.7</ele>
        <time>2015-10-31T15:35:10Z</time>
      </trkpt>
      <trkpt lat="44.48714" lon="1.61162">
        <ele>144.2</ele>
        <time>2015-10-31T15:35:11Z</time>
      </trkpt>
      <trkpt lat="44.4871" lon="1.61155">
        <ele>142.9</ele>
        <time>2015-10-31T15:35:12Z</time>
      </trkpt>
      <trkpt lat="44.48706" lon="1.61149">
        <ele>142.5</ele>
        <time>2015-10-31T15:35:13Z</time>
      </trkpt>
      <trkpt lat="44.48701" lon="1.61143">
        <ele>142.6</ele>
        <time>2015-10-31T15:35:14Z</time>
      </trkpt>
      <trkpt lat="44.48698" lon="1.61135">
        <ele>143</ele>
        <time>2015-10-31T15:35:15Z</time>
      </trkpt>
      <trkpt lat="44.48695" lon="1.61129">
        <ele>143</ele>
        <time>2015-10-31T15:35:16Z</time>
      </trkpt>
      <trkpt lat="44.4869" lon="1.61124">
        <ele>142.8</ele>
        <time>2015-10-31T15:35:17Z</time>
      </trkpt>
      <trkpt lat="44.48687" lon="1.61117">
        <ele>142.8</ele>
        <time>2015-10-31T15:35:18Z</time>
      </trkpt>
      <trkpt lat="44.48683" lon="1.61112">
        <ele>142.5</ele>
        <time>2015-10-31T15:35:19Z</time>
      </trkpt>
      <trkpt lat="44.48678" lon="1.61107">
        <ele>142</ele>
        <time>2015-10-31T15:35:20Z</time>
      </trkpt>
      <trkpt lat="44.48674" lon="1.611">
        <ele>141.9</ele>
        <time>2015-10-31T15:35:21Z</time>
      </trkpt>
      <trkpt lat="44.4867" lon="1.61093">
        <ele>141.7</ele>
        <time>2015-10-31T15:35:22Z</time>
      </trkpt>
      <trkpt lat="44.48668" lon="1.61086">
        <ele>141.8</ele>
        <time>2015-10-31T15:35:23Z</time>
      </trkpt>
      <trkpt lat="44.48664" lon="1.61079">
        <ele>141.6</ele>
        <time>2015-10-31T15:35:24Z</time>
      </trkpt>
      <trkpt lat="44.48661" lon="1.61073">
        <ele>141.5</ele>
        <time>2015-10-31T15:35:25Z</time>
      </trkpt>
      <trkpt lat="44.48657" lon="1.61066">
        <ele>141.4</ele>
        <time>2015-10-31T15:35:26Z</time>
      </trkpt>
      <trkpt lat="44.48655" lon="1.61059">
        <ele>141.5</ele>
        <time>2015-10-31T15:35:27Z</time>
      </trkpt>
      <trkpt lat="44.48651" lon="1.61053">
        <ele>141.3</ele>
        <time>2015-10-31T15:35:28Z</time>
      </trkpt>
      <trkpt lat="44.48647" lon="1.61047">
        <ele>141.2</ele>
        <time>2015-10-31T15:35:29Z</time>
      </trkpt>
      <trkpt lat="44.48644" lon="1.61041">
        <ele>141.2</ele>
        <time>2015-10-31T15:35:30Z</time>
      </trkpt>
      <trkpt lat="44.48641" lon="1.61034">
        <ele>142.2</ele>
        <time>2015-10-31T15:35:31Z</time>
      </trkpt>
      <trkpt lat="44.48638" lon="1.61027">
        <ele>143.4</ele>
        <time>2015-10-31T15:35:32Z</time>
      </trkpt>
      <trkpt lat="44.48634" lon="1.61021">
        <ele>144.5</ele>
        <time>2015-10-31T15:35:33Z</time>
      </trkpt>
      <trkpt lat="44.48631" lon="1.61016">
        <ele>145.5</ele>
        <time>2015-10-31T15:35:34Z</time>
      </trkpt>
      <trkpt lat="44.48626" lon="1.6101">
        <ele>146.6</ele>
        <time>2015-10-31T15:35:35Z</time>
      </trkpt>
      <trkpt lat="44.48622" lon="1.61005">
        <ele>147.6</ele>
        <time>2015-10-31T15:35:36Z</time>
      </trkpt>
      <trkpt lat="44.48618" lon="1.61">
        <ele>148.4</ele>
        <time>2015-10-31T15:35:37Z</time>
      </trkpt>
      <trkpt lat="44.48614" lon="1.60996">
        <ele>149</ele>
        <time>2015-10-31T15:35:38Z</time>
      </trkpt>
      <trkpt lat="44.48609" lon="1.60992">
        <ele>149.5</ele>
        <time>2015-10-31T15:35:39Z</time>
      </trkpt>
      <trkpt lat="44.48604" lon="1.60991">
        <ele>149.5</ele>
        <time>2015-10-31T15:35:40Z</time>
      </trkpt>
      <trkpt lat="44.48598" lon="1.60987">
        <ele>149.8</ele>
        <time>2015-10-31T15:35:41Z</time>
      </trkpt>
      <trkpt lat="44.48593" lon="1.60985">
        <ele>150</ele>
        <time>2015-10-31T15:35:42Z</time>
      </trkpt>
      <trkpt lat="44.48587" lon="1.60979">
        <ele>150.8</ele>
        <time>2015-10-31T15:35:43Z</time>
      </trkpt>
      <trkpt lat="44.48582" lon="1.60975">
        <ele>151.2</ele>
        <time>2015-10-31T15:35:44Z</time>
      </trkpt>
      <trkpt lat="44.4858" lon="1.6097">
        <ele>152.2</ele>
        <time>2015-10-31T15:35:45Z</time>
      </trkpt>
      <trkpt lat="44.48572" lon="1.60969">
        <ele>151.6</ele>
        <time>2015-10-31T15:35:46Z</time>
      </trkpt>
      <trkpt lat="44.48568" lon="1.60968">
        <ele>151.4</ele>
        <time>2015-10-31T15:35:47Z</time>
      </trkpt>
      <trkpt lat="44.4856" lon="1.60967">
        <ele>150.9</ele>
        <time>2015-10-31T15:35:48Z</time>
      </trkpt>
      <trkpt lat="44.48553" lon="1.60963">
        <ele>151.2</ele>
        <time>2015-10-31T15:35:49Z</time>
      </trkpt>
      <trkpt lat="44.48547" lon="1.60957">
        <ele>152.1</ele>
        <time>2015-10-31T15:35:50Z</time>
      </trkpt>
      <trkpt lat="44.48541" lon="1.60952">
        <ele>153.4</ele>
        <time>2015-10-31T15:35:51Z</time>
      </trkpt>
      <trkpt lat="44.48536" lon="1.60951">
        <ele>153</ele>
        <time>2015-10-31T15:35:52Z</time>
      </trkpt>
      <trkpt lat="44.4853" lon="1.60949">
        <ele>153.4</ele>
        <time>2015-10-31T15:35:53Z</time>
      </trkpt>
      <trkpt lat="44.48527" lon="1.60945">
        <ele>154.7</ele>
        <time>2015-10-31T15:35:54Z</time>
      </trkpt>
      <trkpt lat="44.48524" lon="1.6094">
        <ele>156.3</ele>
        <time>2015-10-31T15:35:55Z</time>
      </trkpt>
      <trkpt lat="44.48519" lon="1.60935">
        <ele>157.6</ele>
        <time>2015-10-31T15:35:56Z</time>
      </trkpt>
      <trkpt lat="44.48513" lon="1.60933">
        <ele>157.9</ele>
        <time>2015-10-31T15:35:57Z</time>
      </trkpt>
      <trkpt lat="44.48508" lon="1.60926">
        <ele>160</ele>
        <time>2015-10-31T15:35:58Z</time>
      </trkpt>
      <trkpt lat="44.48503" lon="1.60922">
        <ele>161.2</ele>
        <time>2015-10-31T15:35:59Z</time>
      </trkpt>
      <trkpt lat="44.48499" lon="1.60918">
        <ele>162.4</ele>
        <time>2015-10-31T15:36:00Z</time>
      </trkpt>
      <trkpt lat="44.48494" lon="1.60914">
        <ele>163.4</ele>
        <time>2015-10-31T15:36:01Z</time>
      </trkpt>
      <trkpt lat="44.48488" lon="1.60911">
        <ele>164.2</ele>
        <time>2015-10-31T15:36:02Z</time>
      </trkpt>
      <trkpt lat="44.48483" lon="1.60907">
        <ele>165.3</ele>
        <time>2015-10-31T15:36:03Z</time>
      </trkpt>
      <trkpt lat="44.48479" lon="1.60903">
        <ele>166.8</ele>
        <time>2015-10-31T15:36:04Z</time>
      </trkpt>
      <trkpt lat="44.48472" lon="1.60902">
        <ele>166.5</ele>
        <time>2015-10-31T15:36:05Z</time>
      </trkpt>
      <trkpt lat="44.48467" lon="1.60901">
        <ele>166.5</ele>
        <time>2015-10-31T15:36:06Z</time>
      </trkpt>
      <trkpt lat="44.48461" lon="1.60896">
        <ele>168.1</ele>
        <time>2015-10-31T15:36:07Z</time>
      </trkpt>
      <trkpt lat="44.48456" lon="1.60893">
        <ele>169</ele>
        <time>2015-10-31T15:36:08Z</time>
      </trkpt>
      <trkpt lat="44.48453" lon="1.60892">
        <ele>169.3</ele>
        <time>2015-10-31T15:36:09Z</time>
      </trkpt>
      <trkpt lat="44.48447" lon="1.60892">
        <ele>169.1</ele>
        <time>2015-10-31T15:36:10Z</time>
      </trkpt>
      <trkpt lat="44.48441" lon="1.60893">
        <ele>169</ele>
        <time>2015-10-31T15:36:11Z</time>
      </trkpt>
      <trkpt lat="44.48435" lon="1.60892">
        <ele>169.1</ele>
        <time>2015-10-31T15:36:12Z</time>
      </trkpt>
      <trkpt lat="44.48431" lon="1.60889">
        <ele>170.4</ele>
        <time>2015-10-31T15:36:13Z</time>
      </trkpt>
      <trkpt lat="44.48425" lon="1.60887">
        <ele>171.1</ele>
        <time>2015-10-31T15:36:14Z</time>
      </trkpt>
      <trkpt lat="44.4842" lon="1.60887">
        <ele>171.3</ele>
        <time>2015-10-31T15:36:15Z</time>
      </trkpt>
      <trkpt lat="44.48413" lon="1.60889">
        <ele>170</ele>
        <time>2015-10-31T15:36:16Z</time>
      </trkpt>
      <trkpt lat="44.48409" lon="1.60884">
        <ele>172.1</ele>
        <time>2015-10-31T15:36:17Z</time>
      </trkpt>
      <trkpt lat="44.48404" lon="1.60884">
        <ele>172.1</ele>
        <time>2015-10-31T15:36:18Z</time>
      </trkpt>
      <trkpt lat="44.48399" lon="1.60881">
        <ele>173.4</ele>
        <time>2015-10-31T15:36:19Z</time>
      </trkpt>
      <trkpt lat="44.48394" lon="1.6088">
        <ele>173.7</ele>
        <time>2015-10-31T15:36:20Z</time>
      </trkpt>
      <trkpt lat="44.48389" lon="1.60872">
        <ele>176.3</ele>
        <time>2015-10-31T15:36:21Z</time>
      </trkpt>
      <trkpt lat="44.48385" lon="1.6087">
        <ele>176.8</ele>
        <time>2015-10-31T15:36:22Z</time>
      </trkpt>
      <trkpt lat="44.4838" lon="1.60871">
        <ele>176.2</ele>
        <time>2015-10-31T15:36:23Z</time>
      </trkpt>
      <trkpt lat="44.48369" lon="1.60879">
        <ele>172.1</ele>
        <time>2015-10-31T15:36:24Z</time>
      </trkpt>
      <trkpt lat="44.48363" lon="1.6088">
        <ele>170.5</ele>
        <time>2015-10-31T15:36:25Z</time>
      </trkpt>
      <trkpt lat="44.48355" lon="1.60881">
        <ele>168.3</ele>
        <time>2015-10-31T15:36:26Z</time>
      </trkpt>
      <trkpt lat="44.48349" lon="1.6088">
        <ele>167</ele>
        <time>2015-10-31T15:36:27Z</time>
      </trkpt>
      <trkpt lat="44.48344" lon="1.60879">
        <ele>166.3</ele>
        <time>2015-10-31T15:36:28Z</time>
      </trkpt>
      <trkpt lat="44.48338" lon="1.60879">
        <ele>165</ele>
        <time>2015-10-31T15:36:29Z</time>
      </trkpt>
      <trkpt lat="44.4832" lon="1.60893">
        <ele>157.1</ele>
        <time>2015-10-31T15:36:33Z</time>
      </trkpt>
      <trkpt lat="44.48312" lon="1.60883">
        <ele>157.8</ele>
        <time>2015-10-31T15:36:34Z</time>
      </trkpt>
      <trkpt lat="44.48302" lon="1.60891">
        <ele>153.7</ele>
        <time>2015-10-31T15:36:35Z</time>
      </trkpt>
      <trkpt lat="44.48296" lon="1.6089">
        <ele>152.6</ele>
        <time>2015-10-31T15:36:36Z</time>
      </trkpt>
      <trkpt lat="44.48293" lon="1.60888">
        <ele>152.3</ele>
        <time>2015-10-31T15:36:37Z</time>
      </trkpt>
      <trkpt lat="44.48287" lon="1.60886">
        <ele>151.6</ele>
        <time>2015-10-31T15:36:38Z</time>
      </trkpt>
      <trkpt lat="44.48281" lon="1.60882">
        <ele>151.1</ele>
        <time>2015-10-31T15:36:39Z</time>
      </trkpt>
      <trkpt lat="44.48274" lon="1.6088">
        <ele>149.9</ele>
        <time>2015-10-31T15:36:40Z</time>
      </trkpt>
      <trkpt lat="44.48269" lon="1.60879">
        <ele>148.9</ele>
        <time>2015-10-31T15:36:41Z</time>
      </trkpt>
      <trkpt lat="44.48264" lon="1.60873">
        <ele>148.8</ele>
        <time>2015-10-31T15:36:42Z</time>
      </trkpt>
      <trkpt lat="44.48257" lon="1.60874">
        <ele>147</ele>
        <time>2015-10-31T15:36:43Z</time>
      </trkpt>
      <trkpt lat="44.48252" lon="1.6087">
        <ele>146.5</ele>
        <time>2015-10-31T15:36:44Z</time>
      </trkpt>
      <trkpt lat="44.48246" lon="1.60866">
        <ele>146.1</ele>
        <time>2015-10-31T15:36:45Z</time>
      </trkpt>
      <trkpt lat="44.4824" lon="1.60864">
        <ele>145.3</ele>
        <time>2015-10-31T15:36:46Z</time>
      </trkpt>
      <trkpt lat="44.48237" lon="1.60859">
        <ele>145.4</ele>
        <time>2015-10-31T15:36:47Z</time>
      </trkpt>
      <trkpt lat="44.48232" lon="1.60855">
        <ele>145.3</ele>
        <time>2015-10-31T15:36:48Z</time>
      </trkpt>
      <trkpt lat="44.48229" lon="1.6085">
        <ele>145.6</ele>
        <time>2015-10-31T15:36:49Z</time>
      </trkpt>
      <trkpt lat="44.48224" lon="1.60846">
        <ele>145.4</ele>
        <time>2015-10-31T15:36:50Z</time>
      </trkpt>
      <trkpt lat="44.48218" lon="1.6084">
        <ele>145.6</ele>
        <time>2015-10-31T15:36:51Z</time>
      </trkpt>
      <trkpt lat="44.48214" lon="1.60835">
        <ele>145.8</ele>
        <time>2015-10-31T15:36:52Z</time>
      </trkpt>
      <trkpt lat="44.4821" lon="1.6083">
        <ele>146.2</ele>
        <time>2015-10-31T15:36:53Z</time>
      </trkpt>
      <trkpt lat="44.48208" lon="1.60825">
        <ele>147</ele>
        <time>2015-10-31T15:36:54Z</time>
      </trkpt>
      <trkpt lat="44.48203" lon="1.60822">
        <ele>147</ele>
        <time>2015-10-31T15:36:55Z</time>
      </trkpt>
      <trkpt lat="44.48199" lon="1.60817">
        <ele>147.5</ele>
        <time>2015-10-31T15:36:56Z</time>
      </trkpt>
      <trkpt lat="44.48194" lon="1.60814">
        <ele>147.3</ele>
        <time>2015-10-31T15:36:57Z</time>
      </trkpt>
      <trkpt lat="44.4819" lon="1.60809">
        <ele>147.7</ele>
        <time>2015-10-31T15:36:58Z</time>
      </trkpt>
      <trkpt lat="44.48185" lon="1.60804">
        <ele>147.9</ele>
        <time>2015-10-31T15:36:59Z</time>
      </trkpt>
      <trkpt lat="44.48181" lon="1.60797">
        <ele>148.6</ele>
        <time>2015-10-31T15:37:00Z</time>
      </trkpt>
      <trkpt lat="44.48177" lon="1.60791">
        <ele>149.1</ele>
        <time>2015-10-31T15:37:01Z</time>
      </trkpt>
      <trkpt lat="44.4817" lon="1.6079">
        <ele>148</ele>
        <time>2015-10-31T15:37:02Z</time>
      </trkpt>
      <trkpt lat="44.48164" lon="1.60785">
        <ele>147.7</ele>
        <time>2015-10-31T15:37:03Z</time>
      </trkpt>
      <trkpt lat="44.48159" lon="1.60781">
        <ele>147.4</ele>
        <time>2015-10-31T15:37:04Z</time>
      </trkpt>
      <trkpt lat="44.48154" lon="1.60777">
        <ele>147</ele>
        <time>2015-10-31T15:37:05Z</time>
      </trkpt>
      <trkpt lat="44.48148" lon="1.60775">
        <ele>146.4</ele>
        <time>2015-10-31T15:37:06Z</time>
      </trkpt>
      <trkpt lat="44.48144" lon="1.60771">
        <ele>146.1</ele>
        <time>2015-10-31T15:37:07Z</time>
      </trkpt>
      <trkpt lat="44.48139" lon="1.60767">
        <ele>145.9</ele>
        <time>2015-10-31T15:37:08Z</time>
      </trkpt>
      <trkpt lat="44.48135" lon="1.60762">
        <ele>146</ele>
        <time>2015-10-31T15:37:09Z</time>
      </trkpt>
      <trkpt lat="44.48132" lon="1.60759">
        <ele>145.8</ele>
        <time>2015-10-31T15:37:10Z</time>
      </trkpt>
      <trkpt lat="44.48128" lon="1.60756">
        <ele>145.6</ele>
        <time>2015-10-31T15:37:11Z</time>
      </trkpt>
      <trkpt lat="44.48122" lon="1.60754">
        <ele>144.9</ele>
        <time>2015-10-31T15:37:12Z</time>
      </trkpt>
      <trkpt lat="44.48116" lon="1.60746">
        <ele>145.6</ele>
        <time>2015-10-31T15:37:13Z</time>
      </trkpt>
      <trkpt lat="44.4811" lon="1.60743">
        <ele>145.4</ele>
        <time>2015-10-31T15:37:14Z</time>
      </trkpt>
      <trkpt lat="44.48105" lon="1.60739">
        <ele>145.5</ele>
        <time>2015-10-31T15:37:15Z</time>
      </trkpt>
      <trkpt lat="44.481" lon="1.60737">
        <ele>145.1</ele>
        <time>2015-10-31T15:37:16Z</time>
      </trkpt>
      <trkpt lat="44.48094" lon="1.60734">
        <ele>144.9</ele>
        <time>2015-10-31T15:37:17Z</time>
      </trkpt>
      <trkpt lat="44.48089" lon="1.60731">
        <ele>144.8</ele>
        <time>2015-10-31T15:37:18Z</time>
      </trkpt>
      <trkpt lat="44.48082" lon="1.60726">
        <ele>144.8</ele>
        <time>2015-10-31T15:37:19Z</time>
      </trkpt>
      <trkpt lat="44.48076" lon="1.60723">
        <ele>144.3</ele>
        <time>2015-10-31T15:37:20Z</time>
      </trkpt>
      <trkpt lat="44.48072" lon="1.60718">
        <ele>144.6</ele>
        <time>2015-10-31T15:37:21Z</time>
      </trkpt>
      <trkpt lat="44.48069" lon="1.60715">
        <ele>144.6</ele>
        <time>2015-10-31T15:37:22Z</time>
      </trkpt>
      <trkpt lat="44.48064" lon="1.60712">
        <ele>144.4</ele>
        <time>2015-10-31T15:37:23Z</time>
      </trkpt>
      <trkpt lat="44.48058" lon="1.60709">
        <ele>144.1</ele>
        <time>2015-10-31T15:37:24Z</time>
      </trkpt>
      <trkpt lat="44.4805" lon="1.60709">
        <ele>143.1</ele>
        <time>2015-10-31T15:37:25Z</time>
      </trkpt>
      <trkpt lat="44.48043" lon="1.60707">
        <ele>142.5</ele>
        <time>2015-10-31T15:37:26Z</time>
      </trkpt>
      <trkpt lat="44.48042" lon="1.60699">
        <ele>143.4</ele>
        <time>2015-10-31T15:37:27Z</time>
      </trkpt>
      <trkpt lat="44.48035" lon="1.60701">
        <ele>143.3</ele>
        <time>2015-10-31T15:37:28Z</time>
      </trkpt>
      <trkpt lat="44.48026" lon="1.60701">
        <ele>143.5</ele>
        <time>2015-10-31T15:37:29Z</time>
      </trkpt>
      <trkpt lat="44.48021" lon="1.60702">
        <ele>143.5</ele>
        <time>2015-10-31T15:37:30Z</time>
      </trkpt>
      <trkpt lat="44.48015" lon="1.60699">
        <ele>144</ele>
        <time>2015-10-31T15:37:31Z</time>
      </trkpt>
      <trkpt lat="44.48009" lon="1.60698">
        <ele>144.3</ele>
        <time>2015-10-31T15:37:32Z</time>
      </trkpt>
      <trkpt lat="44.48006" lon="1.60695">
        <ele>144.9</ele>
        <time>2015-10-31T15:37:33Z</time>
      </trkpt>
      <trkpt lat="44.48002" lon="1.60695">
        <ele>145</ele>
        <time>2015-10-31T15:37:34Z</time>
      </trkpt>
      <trkpt lat="44.47996" lon="1.60693">
        <ele>145.4</ele>
        <time>2015-10-31T15:37:35Z</time>
      </trkpt>
      <trkpt lat="44.47991" lon="1.60691">
        <ele>145.8</ele>
        <time>2015-10-31T15:37:36Z</time>
      </trkpt>
      <trkpt lat="44.47986" lon="1.60689">
        <ele>146.2</ele>
        <time>2015-10-31T15:37:37Z</time>
      </trkpt>
      <trkpt lat="44.4798" lon="1.60687">
        <ele>146.6</ele>
        <time>2015-10-31T15:37:38Z</time>
      </trkpt>
      <trkpt lat="44.47975" lon="1.60686">
        <ele>146.8</ele>
        <time>2015-10-31T15:37:39Z</time>
      </trkpt>
      <trkpt lat="44.4797" lon="1.60685">
        <ele>147.2</ele>
        <time>2015-10-31T15:37:40Z</time>
      </trkpt>
      <trkpt lat="44.47964" lon="1.60687">
        <ele>147</ele>
        <time>2015-10-31T15:37:41Z</time>
      </trkpt>
      <trkpt lat="44.47958" lon="1.60685">
        <ele>147.4</ele>
        <time>2015-10-31T15:37:42Z</time>
      </trkpt>
      <trkpt lat="44.47952" lon="1.60682">
        <ele>147.4</ele>
        <time>2015-10-31T15:37:43Z</time>
      </trkpt>
      <trkpt lat="44.47946" lon="1.6068">
        <ele>147.4</ele>
        <time>2015-10-31T15:37:44Z</time>
      </trkpt>
      <trkpt lat="44.47941" lon="1.60677">
        <ele>147.6</ele>
        <time>2015-10-31T15:37:45Z</time>
      </trkpt>
      <trkpt lat="44.47935" lon="1.60674">
        <ele>147.7</ele>
        <time>2015-10-31T15:37:46Z</time>
      </trkpt>
      <trkpt lat="44.47929" lon="1.60672">
        <ele>147.6</ele>
        <time>2015-10-31T15:37:47Z</time>
      </trkpt>
      <trkpt lat="44.47922" lon="1.60671">
        <ele>147.5</ele>
        <time>2015-10-31T15:37:48Z</time>
      </trkpt>
      <trkpt lat="44.47916" lon="1.60669">
        <ele>147.4</ele>
        <time>2015-10-31T15:37:49Z</time>
      </trkpt>
      <trkpt lat="44.4791" lon="1.60667">
        <ele>147.4</ele>
        <time>2015-10-31T15:37:50Z</time>
      </trkpt>
      <trkpt lat="44.47904" lon="1.60666">
        <ele>147.2</ele>
        <time>2015-10-31T15:37:51Z</time>
      </trkpt>
      <trkpt lat="44.47899" lon="1.60664">
        <ele>147.1</ele>
        <time>2015-10-31T15:37:52Z</time>
      </trkpt>
      <trkpt lat="44.47893" lon="1.60664">
        <ele>146.8</ele>
        <time>2015-10-31T15:37:53Z</time>
      </trkpt>
      <trkpt lat="44.47887" lon="1.60665">
        <ele>146.5</ele>
        <time>2015-10-31T15:37:54Z</time>
      </trkpt>
      <trkpt lat="44.47881" lon="1.60662">
        <ele>146.4</ele>
        <time>2015-10-31T15:37:55Z</time>
      </trkpt>
      <trkpt lat="44.47875" lon="1.60659">
        <ele>146.5</ele>
        <time>2015-10-31T15:37:56Z</time>
      </trkpt>
      <trkpt lat="44.47868" lon="1.60661">
        <ele>146.3</ele>
        <time>2015-10-31T15:37:57Z</time>
      </trkpt>
      <trkpt lat="44.47861" lon="1.60659">
        <ele>146.6</ele>
        <time>2015-10-31T15:37:58Z</time>
      </trkpt>
      <trkpt lat="44.47856" lon="1.60657">
        <ele>146.9</ele>
        <time>2015-10-31T15:37:59Z</time>
      </trkpt>
      <trkpt lat="44.4785" lon="1.60653">
        <ele>147.6</ele>
        <time>2015-10-31T15:38:00Z</time>
      </trkpt>
      <trkpt lat="44.47844" lon="1.60652">
        <ele>147.8</ele>
        <time>2015-10-31T15:38:01Z</time>
      </trkpt>
      <trkpt lat="44.47839" lon="1.60652">
        <ele>148</ele>
        <time>2015-10-31T15:38:02Z</time>
      </trkpt>
      <trkpt lat="44.47836" lon="1.6065">
        <ele>148.2</ele>
        <time>2015-10-31T15:38:03Z</time>
      </trkpt>
      <trkpt lat="44.4783" lon="1.60649">
        <ele>148.6</ele>
        <time>2015-10-31T15:38:04Z</time>
      </trkpt>
      <trkpt lat="44.47823" lon="1.60647">
        <ele>148.9</ele>
        <time>2015-10-31T15:38:05Z</time>
      </trkpt>
      <trkpt lat="44.47817" lon="1.60646">
        <ele>149.2</ele>
        <time>2015-10-31T15:38:06Z</time>
      </trkpt>
      <trkpt lat="44.47813" lon="1.60646">
        <ele>149.3</ele>
        <time>2015-10-31T15:38:07Z</time>
      </trkpt>
      <trkpt lat="44.47808" lon="1.60645">
        <ele>149.6</ele>
        <time>2015-10-31T15:38:08Z</time>
      </trkpt>
      <trkpt lat="44.47802" lon="1.60644">
        <ele>150</ele>
        <time>2015-10-31T15:38:09Z</time>
      </trkpt>
      <trkpt lat="44.47796" lon="1.60644">
        <ele>150.1</ele>
        <time>2015-10-31T15:38:10Z</time>
      </trkpt>
      <trkpt lat="44.4779" lon="1.60642">
        <ele>150.5</ele>
        <time>2015-10-31T15:38:11Z</time>
      </trkpt>
      <trkpt lat="44.47784" lon="1.60642">
        <ele>150.4</ele>
        <time>2015-10-31T15:38:12Z</time>
      </trkpt>
      <trkpt lat="44.47778" lon="1.60641">
        <ele>150.4</ele>
        <time>2015-10-31T15:38:13Z</time>
      </trkpt>
      <trkpt lat="44.47774" lon="1.60641">
        <ele>150.5</ele>
        <time>2015-10-31T15:38:14Z</time>
      </trkpt>
      <trkpt lat="44.47769" lon="1.60639">
        <ele>150.9</ele>
        <time>2015-10-31T15:38:15Z</time>
      </trkpt>
      <trkpt lat="44.47763" lon="1.60636">
        <ele>151.3</ele>
        <time>2015-10-31T15:38:16Z</time>
      </trkpt>
      <trkpt lat="44.47756" lon="1.60637">
        <ele>151.1</ele>
        <time>2015-10-31T15:38:17Z</time>
      </trkpt>
      <trkpt lat="44.47752" lon="1.60637">
        <ele>150.9</ele>
        <time>2015-10-31T15:38:18Z</time>
      </trkpt>
      <trkpt lat="44.47747" lon="1.60638">
        <ele>150.7</ele>
        <time>2015-10-31T15:38:19Z</time>
      </trkpt>
      <trkpt lat="44.47738" lon="1.60642">
        <ele>149.7</ele>
        <time>2015-10-31T15:38:20Z</time>
      </trkpt>
      <trkpt lat="44.47732" lon="1.6064">
        <ele>149.9</ele>
        <time>2015-10-31T15:38:21Z</time>
      </trkpt>
      <trkpt lat="44.47727" lon="1.6064">
        <ele>150</ele>
        <time>2015-10-31T15:38:22Z</time>
      </trkpt>
      <trkpt lat="44.47722" lon="1.60639">
        <ele>150</ele>
        <time>2015-10-31T15:38:23Z</time>
      </trkpt>
      <trkpt lat="44.47716" lon="1.6064">
        <ele>149.8</ele>
        <time>2015-10-31T15:38:24Z</time>
      </trkpt>
      <trkpt lat="44.47709" lon="1.60639">
        <ele>149.9</ele>
        <time>2015-10-31T15:38:25Z</time>
      </trkpt>
      <trkpt lat="44.47703" lon="1.60641">
        <ele>149.1</ele>
        <time>2015-10-31T15:38:26Z</time>
      </trkpt>
      <trkpt lat="44.47698" lon="1.60638">
        <ele>149.3</ele>
        <time>2015-10-31T15:38:27Z</time>
      </trkpt>
      <trkpt lat="44.47692" lon="1.60635">
        <ele>149.5</ele>
        <time>2015-10-31T15:38:28Z</time>
      </trkpt>
      <trkpt lat="44.47685" lon="1.60637">
        <ele>148.7</ele>
        <time>2015-10-31T15:38:29Z</time>
      </trkpt>
      <trkpt lat="44.47678" lon="1.60637">
        <ele>148.3</ele>
        <time>2015-10-31T15:38:30Z</time>
      </trkpt>
      <trkpt lat="44.47672" lon="1.60636">
        <ele>148.2</ele>
        <time>2015-10-31T15:38:31Z</time>
      </trkpt>
      <trkpt lat="44.47667" lon="1.60635">
        <ele>147.9</ele>
        <time>2015-10-31T15:38:32Z</time>
      </trkpt>
      <trkpt lat="44.47661" lon="1.60632">
        <ele>148.2</ele>
        <time>2015-10-31T15:38:33Z</time>
      </trkpt>
      <trkpt lat="44.47656" lon="1.6063">
        <ele>148.2</ele>
        <time>2015-10-31T15:38:34Z</time>
      </trkpt>
      <trkpt lat="44.47651" lon="1.60629">
        <ele>148</ele>
        <time>2015-10-31T15:38:35Z</time>
      </trkpt>
      <trkpt lat="44.47645" lon="1.60631">
        <ele>147.4</ele>
        <time>2015-10-31T15:38:36Z</time>
      </trkpt>
      <trkpt lat="44.4764" lon="1.60631">
        <ele>146.9</ele>
        <time>2015-10-31T15:38:37Z</time>
      </trkpt>
      <trkpt lat="44.47633" lon="1.60628">
        <ele>147</ele>
        <time>2015-10-31T15:38:38Z</time>
      </trkpt>
      <trkpt lat="44.47627" lon="1.60626">
        <ele>147</ele>
        <time>2015-10-31T15:38:39Z</time>
      </trkpt>
      <trkpt lat="44.47622" lon="1.60623">
        <ele>147.1</ele>
        <time>2015-10-31T15:38:40Z</time>
      </trkpt>
      <trkpt lat="44.47617" lon="1.60622">
        <ele>146.9</ele>
        <time>2015-10-31T15:38:41Z</time>
      </trkpt>
      <trkpt lat="44.47612" lon="1.60618">
        <ele>147</ele>
        <time>2015-10-31T15:38:42Z</time>
      </trkpt>
      <trkpt lat="44.47607" lon="1.60615">
        <ele>147.1</ele>
        <time>2015-10-31T15:38:43Z</time>
      </trkpt>
      <trkpt lat="44.47602" lon="1.60613">
        <ele>147.2</ele>
        <time>2015-10-31T15:38:44Z</time>
      </trkpt>
      <trkpt lat="44.47597" lon="1.60609">
        <ele>147.3</ele>
        <time>2015-10-31T15:38:45Z</time>
      </trkpt>
      <trkpt lat="44.47591" lon="1.60607">
        <ele>147.2</ele>
        <time>2015-10-31T15:38:46Z</time>
      </trkpt>
      <trkpt lat="44.47584" lon="1.60605">
        <ele>147.1</ele>
        <time>2015-10-31T15:38:47Z</time>
      </trkpt>
      <trkpt lat="44.47577" lon="1.60604">
        <ele>146.8</ele>
        <time>2015-10-31T15:38:48Z</time>
      </trkpt>
      <trkpt lat="44.47572" lon="1.60601">
        <ele>146.8</ele>
        <time>2015-10-31T15:38:49Z</time>
      </trkpt>
      <trkpt lat="44.47567" lon="1.60598">
        <ele>146.9</ele>
        <time>2015-10-31T15:38:50Z</time>
      </trkpt>
      <trkpt lat="44.4756" lon="1.60597">
        <ele>146.7</ele>
        <time>2015-10-31T15:38:51Z</time>
      </trkpt>
      <trkpt lat="44.47554" lon="1.60593">
        <ele>147</ele>
        <time>2015-10-31T15:38:52Z</time>
      </trkpt>
      <trkpt lat="44.47548" lon="1.60592">
        <ele>146.8</ele>
        <time>2015-10-31T15:38:53Z</time>
      </trkpt>
      <trkpt lat="44.47543" lon="1.6059">
        <ele>146.6</ele>
        <time>2015-10-31T15:38:54Z</time>
      </trkpt>
      <trkpt lat="44.47537" lon="1.60589">
        <ele>146.4</ele>
        <time>2015-10-31T15:38:55Z</time>
      </trkpt>
      <trkpt lat="44.47531" lon="1.60588">
        <ele>146</ele>
        <time>2015-10-31T15:38:56Z</time>
      </trkpt>
      <trkpt lat="44.47524" lon="1.60584">
        <ele>145.9</ele>
        <time>2015-10-31T15:38:57Z</time>
      </trkpt>
      <trkpt lat="44.47519" lon="1.60583">
        <ele>145.6</ele>
        <time>2015-10-31T15:38:58Z</time>
      </trkpt>
      <trkpt lat="44.47514" lon="1.60584">
        <ele>145.1</ele>
        <time>2015-10-31T15:38:59Z</time>
      </trkpt>
      <trkpt lat="44.47508" lon="1.60581">
        <ele>145</ele>
        <time>2015-10-31T15:39:00Z</time>
      </trkpt>
      <trkpt lat="44.47502" lon="1.60578">
        <ele>144.8</ele>
        <time>2015-10-31T15:39:01Z</time>
      </trkpt>
      <trkpt lat="44.47497" lon="1.60576">
        <ele>144.7</ele>
        <time>2015-10-31T15:39:02Z</time>
      </trkpt>
      <trkpt lat="44.47492" lon="1.60574">
        <ele>144.4</ele>
        <time>2015-10-31T15:39:03Z</time>
      </trkpt>
      <trkpt lat="44.47486" lon="1.60572">
        <ele>144.2</ele>
        <time>2015-10-31T15:39:04Z</time>
      </trkpt>
      <trkpt lat="44.47481" lon="1.60569">
        <ele>144</ele>
        <time>2015-10-31T15:39:05Z</time>
      </trkpt>
      <trkpt lat="44.47475" lon="1.60569">
        <ele>143.5</ele>
        <time>2015-10-31T15:39:06Z</time>
      </trkpt>
      <trkpt lat="44.4747" lon="1.60566">
        <ele>143.4</ele>
        <time>2015-10-31T15:39:07Z</time>
      </trkpt>
      <trkpt lat="44.47465" lon="1.60563">
        <ele>143.4</ele>
        <time>2015-10-31T15:39:08Z</time>
      </trkpt>
      <trkpt lat="44.4746" lon="1.60562">
        <ele>143</ele>
        <time>2015-10-31T15:39:09Z</time>
      </trkpt>
      <trkpt lat="44.47453" lon="1.60559">
        <ele>143.1</ele>
        <time>2015-10-31T15:39:10Z</time>
      </trkpt>
      <trkpt lat="44.47447" lon="1.60559">
        <ele>143.2</ele>
        <time>2015-10-31T15:39:11Z</time>
      </trkpt>
      <trkpt lat="44.4744" lon="1.60558">
        <ele>143.4</ele>
        <time>2015-10-31T15:39:12Z</time>
      </trkpt>
      <trkpt lat="44.47435" lon="1.60557">
        <ele>143.6</ele>
        <time>2015-10-31T15:39:13Z</time>
      </trkpt>
      <trkpt lat="44.4743" lon="1.60556">
        <ele>143.9</ele>
        <time>2015-10-31T15:39:14Z</time>
      </trkpt>
      <trkpt lat="44.47425" lon="1.60553">
        <ele>144.2</ele>
        <time>2015-10-31T15:39:15Z</time>
      </trkpt>
      <trkpt lat="44.47418" lon="1.60551">
        <ele>144.6</ele>
        <time>2015-10-31T15:39:16Z</time>
      </trkpt>
      <trkpt lat="44.47412" lon="1.6055">
        <ele>144.8</ele>
        <time>2015-10-31T15:39:17Z</time>
      </trkpt>
      <trkpt lat="44.47406" lon="1.60549">
        <ele>145.1</ele>
        <time>2015-10-31T15:39:18Z</time>
      </trkpt>
      <trkpt lat="44.474" lon="1.60548">
        <ele>145.5</ele>
        <time>2015-10-31T15:39:19Z</time>
      </trkpt>
      <trkpt lat="44.47395" lon="1.60546">
        <ele>145.8</ele>
        <time>2015-10-31T15:39:20Z</time>
      </trkpt>
      <trkpt lat="44.47389" lon="1.60545">
        <ele>146.1</ele>
        <time>2015-10-31T15:39:21Z</time>
      </trkpt>
      <trkpt lat="44.47384" lon="1.60543">
        <ele>146.5</ele>
        <time>2015-10-31T15:39:22Z</time>
      </trkpt>
      <trkpt lat="44.47378" lon="1.60541">
        <ele>147</ele>
        <time>2015-10-31T15:39:23Z</time>
      </trkpt>
      <trkpt lat="44.47371" lon="1.6054">
        <ele>147.2</ele>
        <time>2015-10-31T15:39:24Z</time>
      </trkpt>
      <trkpt lat="44.47366" lon="1.60539">
        <ele>147.3</ele>
        <time>2015-10-31T15:39:25Z</time>
      </trkpt>
      <trkpt lat="44.4736" lon="1.60537">
        <ele>147.4</ele>
        <time>2015-10-31T15:39:26Z</time>
      </trkpt>
      <trkpt lat="44.47354" lon="1.60535">
        <ele>147.6</ele>
        <time>2015-10-31T15:39:27Z</time>
      </trkpt>
      <trkpt lat="44.47351" lon="1.60534">
        <ele>147.6</ele>
        <time>2015-10-31T15:39:28Z</time>
      </trkpt>
      <trkpt lat="44.47344" lon="1.60534">
        <ele>147.7</ele>
        <time>2015-10-31T15:39:29Z</time>
      </trkpt>
      <trkpt lat="44.47337" lon="1.60533">
        <ele>147.8</ele>
        <time>2015-10-31T15:39:30Z</time>
      </trkpt>
      <trkpt lat="44.47333" lon="1.6053">
        <ele>148.1</ele>
        <time>2015-10-31T15:39:31Z</time>
      </trkpt>
      <trkpt lat="44.47324" lon="1.60531">
        <ele>148</ele>
        <time>2015-10-31T15:39:32Z</time>
      </trkpt>
      <trkpt lat="44.47318" lon="1.60529">
        <ele>148.2</ele>
        <time>2015-10-31T15:39:33Z</time>
      </trkpt>
      <trkpt lat="44.47313" lon="1.60527">
        <ele>148.4</ele>
        <time>2015-10-31T15:39:34Z</time>
      </trkpt>
      <trkpt lat="44.47307" lon="1.60525">
        <ele>148.6</ele>
        <time>2015-10-31T15:39:35Z</time>
      </trkpt>
      <trkpt lat="44.47302" lon="1.60523">
        <ele>148.7</ele>
        <time>2015-10-31T15:39:36Z</time>
      </trkpt>
      <trkpt lat="44.47296" lon="1.60521">
        <ele>149</ele>
        <time>2015-10-31T15:39:37Z</time>
      </trkpt>
      <trkpt lat="44.4729" lon="1.60518">
        <ele>149.2</ele>
        <time>2015-10-31T15:39:38Z</time>
      </trkpt>
      <trkpt lat="44.47285" lon="1.60516">
        <ele>149</ele>
        <time>2015-10-31T15:39:39Z</time>
      </trkpt>
      <trkpt lat="44.47279" lon="1.60515">
        <ele>148.6</ele>
        <time>2015-10-31T15:39:40Z</time>
      </trkpt>
      <trkpt lat="44.47273" lon="1.60513">
        <ele>148.3</ele>
        <time>2015-10-31T15:39:41Z</time>
      </trkpt>
      <trkpt lat="44.47267" lon="1.60511">
        <ele>148.2</ele>
        <time>2015-10-31T15:39:42Z</time>
      </trkpt>
      <trkpt lat="44.47262" lon="1.60509">
        <ele>148</ele>
        <time>2015-10-31T15:39:43Z</time>
      </trkpt>
      <trkpt lat="44.47256" lon="1.60508">
        <ele>147.7</ele>
        <time>2015-10-31T15:39:44Z</time>
      </trkpt>
      <trkpt lat="44.47251" lon="1.60506">
        <ele>147.5</ele>
        <time>2015-10-31T15:39:45Z</time>
      </trkpt>
      <trkpt lat="44.47245" lon="1.60506">
        <ele>147.1</ele>
        <time>2015-10-31T15:39:46Z</time>
      </trkpt>
      <trkpt lat="44.47239" lon="1.60504">
        <ele>147.1</ele>
        <time>2015-10-31T15:39:47Z</time>
      </trkpt>
      <trkpt lat="44.47234" lon="1.60501">
        <ele>147.1</ele>
        <time>2015-10-31T15:39:48Z</time>
      </trkpt>
      <trkpt lat="44.47228" lon="1.60499">
        <ele>146.9</ele>
        <time>2015-10-31T15:39:49Z</time>
      </trkpt>
      <trkpt lat="44.47223" lon="1.60498">
        <ele>146.7</ele>
        <time>2015-10-31T15:39:50Z</time>
      </trkpt>
      <trkpt lat="44.47217" lon="1.60496">
        <ele>146.6</ele>
        <time>2015-10-31T15:39:51Z</time>
      </trkpt>
      <trkpt lat="44.47212" lon="1.60494">
        <ele>146.6</ele>
        <time>2015-10-31T15:39:52Z</time>
      </trkpt>
      <trkpt lat="44.47206" lon="1.60493">
        <ele>146.4</ele>
        <time>2015-10-31T15:39:53Z</time>
      </trkpt>
      <trkpt lat="44.472" lon="1.60491">
        <ele>146.3</ele>
        <time>2015-10-31T15:39:54Z</time>
      </trkpt>
      <trkpt lat="44.47194" lon="1.60489">
        <ele>146.1</ele>
        <time>2015-10-31T15:39:55Z</time>
      </trkpt>
      <trkpt lat="44.47189" lon="1.60489">
        <ele>145.6</ele>
        <time>2015-10-31T15:39:56Z</time>
      </trkpt>
      <trkpt lat="44.47183" lon="1.6049">
        <ele>145.2</ele>
        <time>2015-10-31T15:39:57Z</time>
      </trkpt>
      <trkpt lat="44.47178" lon="1.60488">
        <ele>145</ele>
        <time>2015-10-31T15:39:58Z</time>
      </trkpt>
      <trkpt lat="44.47172" lon="1.60487">
        <ele>144.7</ele>
        <time>2015-10-31T15:39:59Z</time>
      </trkpt>
      <trkpt lat="44.47167" lon="1.60487">
        <ele>144.4</ele>
        <time>2015-10-31T15:40:00Z</time>
      </trkpt>
      <trkpt lat="44.47161" lon="1.60486">
        <ele>144.2</ele>
        <time>2015-10-31T15:40:01Z</time>
      </trkpt>
      <trkpt lat="44.47155" lon="1.60484">
        <ele>143.9</ele>
        <time>2015-10-31T15:40:02Z</time>
      </trkpt>
      <trkpt lat="44.47149" lon="1.60482">
        <ele>143.9</ele>
        <time>2015-10-31T15:40:03Z</time>
      </trkpt>
      <trkpt lat="44.47143" lon="1.6048">
        <ele>143.7</ele>
        <time>2015-10-31T15:40:04Z</time>
      </trkpt>
      <trkpt lat="44.47136" lon="1.60478">
        <ele>143.5</ele>
        <time>2015-10-31T15:40:05Z</time>
      </trkpt>
      <trkpt lat="44.4713" lon="1.60475">
        <ele>143.5</ele>
        <time>2015-10-31T15:40:06Z</time>
      </trkpt>
      <trkpt lat="44.47124" lon="1.60473">
        <ele>143.4</ele>
        <time>2015-10-31T15:40:07Z</time>
      </trkpt>
      <trkpt lat="44.47118" lon="1.60472">
        <ele>143.1</ele>
        <time>2015-10-31T15:40:08Z</time>
      </trkpt>
      <trkpt lat="44.47111" lon="1.60472">
        <ele>142.8</ele>
        <time>2015-10-31T15:40:09Z</time>
      </trkpt>
      <trkpt lat="44.47105" lon="1.60471">
        <ele>142.5</ele>
        <time>2015-10-31T15:40:10Z</time>
      </trkpt>
      <trkpt lat="44.47099" lon="1.60469">
        <ele>142.3</ele>
        <time>2015-10-31T15:40:11Z</time>
      </trkpt>
      <trkpt lat="44.47092" lon="1.6047">
        <ele>141.8</ele>
        <time>2015-10-31T15:40:12Z</time>
      </trkpt>
      <trkpt lat="44.47086" lon="1.60469">
        <ele>141.4</ele>
        <time>2015-10-31T15:40:13Z</time>
      </trkpt>
      <trkpt lat="44.4708" lon="1.60466">
        <ele>141.5</ele>
        <time>2015-10-31T15:40:14Z</time>
      </trkpt>
      <trkpt lat="44.47074" lon="1.60465">
        <ele>141.3</ele>
        <time>2015-10-31T15:40:15Z</time>
      </trkpt>
      <trkpt lat="44.47069" lon="1.60464">
        <ele>141.2</ele>
        <time>2015-10-31T15:40:16Z</time>
      </trkpt>
      <trkpt lat="44.47063" lon="1.60461">
        <ele>141.2</ele>
        <time>2015-10-31T15:40:17Z</time>
      </trkpt>
      <trkpt lat="44.47057" lon="1.6046">
        <ele>140.9</ele>
        <time>2015-10-31T15:40:18Z</time>
      </trkpt>
      <trkpt lat="44.4705" lon="1.60454">
        <ele>141.2</ele>
        <time>2015-10-31T15:40:19Z</time>
      </trkpt>
      <trkpt lat="44.47044" lon="1.60452">
        <ele>140.9</ele>
        <time>2015-10-31T15:40:20Z</time>
      </trkpt>
      <trkpt lat="44.47037" lon="1.60448">
        <ele>141</ele>
        <time>2015-10-31T15:40:21Z</time>
      </trkpt>
      <trkpt lat="44.47032" lon="1.60445">
        <ele>140.8</ele>
        <time>2015-10-31T15:40:22Z</time>
      </trkpt>
      <trkpt lat="44.47027" lon="1.60441">
        <ele>141</ele>
        <time>2015-10-31T15:40:23Z</time>
      </trkpt>
      <trkpt lat="44.47021" lon="1.60437">
        <ele>141</ele>
        <time>2015-10-31T15:40:24Z</time>
      </trkpt>
      <trkpt lat="44.47016" lon="1.60434">
        <ele>141.1</ele>
        <time>2015-10-31T15:40:25Z</time>
      </trkpt>
      <trkpt lat="44.47011" lon="1.6043">
        <ele>141.1</ele>
        <time>2015-10-31T15:40:26Z</time>
      </trkpt>
      <trkpt lat="44.47005" lon="1.60427">
        <ele>141.1</ele>
        <time>2015-10-31T15:40:27Z</time>
      </trkpt>
      <trkpt lat="44.46999" lon="1.60424">
        <ele>141.2</ele>
        <time>2015-10-31T15:40:28Z</time>
      </trkpt>
      <trkpt lat="44.46994" lon="1.60421">
        <ele>141.2</ele>
        <time>2015-10-31T15:40:29Z</time>
      </trkpt>
      <trkpt lat="44.46989" lon="1.60418">
        <ele>141.4</ele>
        <time>2015-10-31T15:40:30Z</time>
      </trkpt>
      <trkpt lat="44.46984" lon="1.60415">
        <ele>141.4</ele>
        <time>2015-10-31T15:40:31Z</time>
      </trkpt>
      <trkpt lat="44.46978" lon="1.60413">
        <ele>141.4</ele>
        <time>2015-10-31T15:40:32Z</time>
      </trkpt>
      <trkpt lat="44.46973" lon="1.60408">
        <ele>141.7</ele>
        <time>2015-10-31T15:40:33Z</time>
      </trkpt>
      <trkpt lat="44.46967" lon="1.60407">
        <ele>141.6</ele>
        <time>2015-10-31T15:40:34Z</time>
      </trkpt>
      <trkpt lat="44.46962" lon="1.60403">
        <ele>141.8</ele>
        <time>2015-10-31T15:40:35Z</time>
      </trkpt>
      <trkpt lat="44.46956" lon="1.604">
        <ele>142</ele>
        <time>2015-10-31T15:40:36Z</time>
      </trkpt>
      <trkpt lat="44.4695" lon="1.60396">
        <ele>142.3</ele>
        <time>2015-10-31T15:40:37Z</time>
      </trkpt>
      <trkpt lat="44.46944" lon="1.60394">
        <ele>142.2</ele>
        <time>2015-10-31T15:40:38Z</time>
      </trkpt>
      <trkpt lat="44.46938" lon="1.60393">
        <ele>142</ele>
        <time>2015-10-31T15:40:39Z</time>
      </trkpt>
      <trkpt lat="44.46933" lon="1.60386">
        <ele>142.7</ele>
        <time>2015-10-31T15:40:40Z</time>
      </trkpt>
      <trkpt lat="44.46927" lon="1.60384">
        <ele>142.6</ele>
        <time>2015-10-31T15:40:41Z</time>
      </trkpt>
      <trkpt lat="44.46923" lon="1.6038">
        <ele>142.8</ele>
        <time>2015-10-31T15:40:42Z</time>
      </trkpt>
      <trkpt lat="44.46916" lon="1.60377">
        <ele>142.6</ele>
        <time>2015-10-31T15:40:43Z</time>
      </trkpt>
      <trkpt lat="44.4691" lon="1.60373">
        <ele>142.7</ele>
        <time>2015-10-31T15:40:44Z</time>
      </trkpt>
      <trkpt lat="44.46905" lon="1.60368">
        <ele>142.8</ele>
        <time>2015-10-31T15:40:45Z</time>
      </trkpt>
      <trkpt lat="44.46897" lon="1.60368">
        <ele>142.4</ele>
        <time>2015-10-31T15:40:46Z</time>
      </trkpt>
      <trkpt lat="44.46892" lon="1.60365">
        <ele>142.3</ele>
        <time>2015-10-31T15:40:47Z</time>
      </trkpt>
      <trkpt lat="44.46888" lon="1.60357">
        <ele>142.8</ele>
        <time>2015-10-31T15:40:48Z</time>
      </trkpt>
      <trkpt lat="44.46882" lon="1.60352">
        <ele>143</ele>
        <time>2015-10-31T15:40:49Z</time>
      </trkpt>
      <trkpt lat="44.46874" lon="1.6035">
        <ele>142.6</ele>
        <time>2015-10-31T15:40:51Z</time>
      </trkpt>
      <trkpt lat="44.46868" lon="1.60347">
        <ele>142.2</ele>
        <time>2015-10-31T15:40:52Z</time>
      </trkpt>
      <trkpt lat="44.46862" lon="1.60343">
        <ele>142.1</ele>
        <time>2015-10-31T15:40:53Z</time>
      </trkpt>
      <trkpt lat="44.46857" lon="1.60342">
        <ele>141.6</ele>
        <time>2015-10-31T15:40:54Z</time>
      </trkpt>
      <trkpt lat="44.46851" lon="1.60339">
        <ele>141.3</ele>
        <time>2015-10-31T15:40:55Z</time>
      </trkpt>
      <trkpt lat="44.46845" lon="1.60335">
        <ele>141.1</ele>
        <time>2015-10-31T15:40:56Z</time>
      </trkpt>
      <trkpt lat="44.46838" lon="1.60334">
        <ele>140.3</ele>
        <time>2015-10-31T15:40:57Z</time>
      </trkpt>
      <trkpt lat="44.46832" lon="1.60332">
        <ele>140</ele>
        <time>2015-10-31T15:40:58Z</time>
      </trkpt>
      <trkpt lat="44.46826" lon="1.60329">
        <ele>139.8</ele>
        <time>2015-10-31T15:40:59Z</time>
      </trkpt>
      <trkpt lat="44.46822" lon="1.60321">
        <ele>140.3</ele>
        <time>2015-10-31T15:41:00Z</time>
      </trkpt>
      <trkpt lat="44.46818" lon="1.60315">
        <ele>140.6</ele>
        <time>2015-10-31T15:41:01Z</time>
      </trkpt>
      <trkpt lat="44.46813" lon="1.60309">
        <ele>140.9</ele>
        <time>2015-10-31T15:41:02Z</time>
      </trkpt>
      <trkpt lat="44.46806" lon="1.60308">
        <ele>140.3</ele>
        <time>2015-10-31T15:41:03Z</time>
      </trkpt>
      <trkpt lat="44.46801" lon="1.60304">
        <ele>140.2</ele>
        <time>2015-10-31T15:41:04Z</time>
      </trkpt>
      <trkpt lat="44.46795" lon="1.60301">
        <ele>140.1</ele>
        <time>2015-10-31T15:41:05Z</time>
      </trkpt>
      <trkpt lat="44.46789" lon="1.603">
        <ele>139.6</ele>
        <time>2015-10-31T15:41:06Z</time>
      </trkpt>
      <trkpt lat="44.46784" lon="1.60294">
        <ele>139.7</ele>
        <time>2015-10-31T15:41:07Z</time>
      </trkpt>
      <trkpt lat="44.4678" lon="1.60289">
        <ele>139.9</ele>
        <time>2015-10-31T15:41:08Z</time>
      </trkpt>
      <trkpt lat="44.46773" lon="1.60286">
        <ele>139.4</ele>
        <time>2015-10-31T15:41:09Z</time>
      </trkpt>
      <trkpt lat="44.46768" lon="1.60281">
        <ele>139.5</ele>
        <time>2015-10-31T15:41:10Z</time>
      </trkpt>
      <trkpt lat="44.46763" lon="1.60278">
        <ele>139.1</ele>
        <time>2015-10-31T15:41:11Z</time>
      </trkpt>
      <trkpt lat="44.46759" lon="1.60274">
        <ele>139.1</ele>
        <time>2015-10-31T15:41:12Z</time>
      </trkpt>
      <trkpt lat="44.46755" lon="1.60269">
        <ele>139.2</ele>
        <time>2015-10-31T15:41:13Z</time>
      </trkpt>
      <trkpt lat="44.4675" lon="1.60265">
        <ele>138.8</ele>
        <time>2015-10-31T15:41:14Z</time>
      </trkpt>
      <trkpt lat="44.46745" lon="1.60261">
        <ele>138.6</ele>
        <time>2015-10-31T15:41:15Z</time>
      </trkpt>
      <trkpt lat="44.4674" lon="1.60257">
        <ele>138.4</ele>
        <time>2015-10-31T15:41:16Z</time>
      </trkpt>
      <trkpt lat="44.46736" lon="1.60251">
        <ele>138.5</ele>
        <time>2015-10-31T15:41:17Z</time>
      </trkpt>
      <trkpt lat="44.46732" lon="1.60248">
        <ele>138.1</ele>
        <time>2015-10-31T15:41:18Z</time>
      </trkpt>
      <trkpt lat="44.46728" lon="1.60244">
        <ele>137.8</ele>
        <time>2015-10-31T15:41:19Z</time>
      </trkpt>
      <trkpt lat="44.46722" lon="1.60241">
        <ele>137.2</ele>
        <time>2015-10-31T15:41:20Z</time>
      </trkpt>
      <trkpt lat="44.46716" lon="1.60238">
        <ele>136.7</ele>
        <time>2015-10-31T15:41:21Z</time>
      </trkpt>
      <trkpt lat="44.46713" lon="1.60233">
        <ele>136.6</ele>
        <time>2015-10-31T15:41:22Z</time>
      </trkpt>
      <trkpt lat="44.46709" lon="1.60228">
        <ele>136.4</ele>
        <time>2015-10-31T15:41:23Z</time>
      </trkpt>
      <trkpt lat="44.46704" lon="1.60223">
        <ele>136.3</ele>
        <time>2015-10-31T15:41:24Z</time>
      </trkpt>
      <trkpt lat="44.467" lon="1.60217">
        <ele>136.4</ele>
        <time>2015-10-31T15:41:25Z</time>
      </trkpt>
      <trkpt lat="44.46696" lon="1.60211">
        <ele>136.3</ele>
        <time>2015-10-31T15:41:26Z</time>
      </trkpt>
      <trkpt lat="44.46693" lon="1.60204">
        <ele>136.6</ele>
        <time>2015-10-31T15:41:27Z</time>
      </trkpt>
      <trkpt lat="44.4669" lon="1.60195">
        <ele>137.1</ele>
        <time>2015-10-31T15:41:28Z</time>
      </trkpt>
      <trkpt lat="44.46687" lon="1.60187">
        <ele>137.4</ele>
        <time>2015-10-31T15:41:29Z</time>
      </trkpt>
      <trkpt lat="44.46683" lon="1.60181">
        <ele>137.4</ele>
        <time>2015-10-31T15:41:30Z</time>
      </trkpt>
      <trkpt lat="44.46679" lon="1.60175">
        <ele>137.4</ele>
        <time>2015-10-31T15:41:31Z</time>
      </trkpt>
      <trkpt lat="44.46677" lon="1.60169">
        <ele>137.6</ele>
        <time>2015-10-31T15:41:32Z</time>
      </trkpt>
      <trkpt lat="44.46672" lon="1.60163">
        <ele>137.4</ele>
        <time>2015-10-31T15:41:33Z</time>
      </trkpt>
      <trkpt lat="44.46668" lon="1.60157">
        <ele>137.3</ele>
        <time>2015-10-31T15:41:34Z</time>
      </trkpt>
      <trkpt lat="44.46664" lon="1.6015">
        <ele>137.1</ele>
        <time>2015-10-31T15:41:35Z</time>
      </trkpt>
      <trkpt lat="44.46661" lon="1.60143">
        <ele>137.1</ele>
        <time>2015-10-31T15:41:36Z</time>
      </trkpt>
      <trkpt lat="44.46656" lon="1.60137">
        <ele>136.8</ele>
        <time>2015-10-31T15:41:37Z</time>
      </trkpt>
      <trkpt lat="44.46651" lon="1.6013">
        <ele>136.3</ele>
        <time>2015-10-31T15:41:38Z</time>
      </trkpt>
      <trkpt lat="44.46647" lon="1.60124">
        <ele>136.1</ele>
        <time>2015-10-31T15:41:39Z</time>
      </trkpt>
      <trkpt lat="44.46643" lon="1.60118">
        <ele>135.9</ele>
        <time>2015-10-31T15:41:40Z</time>
      </trkpt>
      <trkpt lat="44.4664" lon="1.60112">
        <ele>135.8</ele>
        <time>2015-10-31T15:41:41Z</time>
      </trkpt>
      <trkpt lat="44.46636" lon="1.60105">
        <ele>135.7</ele>
        <time>2015-10-31T15:41:42Z</time>
      </trkpt>
      <trkpt lat="44.46632" lon="1.60098">
        <ele>135.7</ele>
        <time>2015-10-31T15:41:43Z</time>
      </trkpt>
      <trkpt lat="44.46627" lon="1.60091">
        <ele>135.6</ele>
        <time>2015-10-31T15:41:44Z</time>
      </trkpt>
      <trkpt lat="44.46624" lon="1.60084">
        <ele>135.8</ele>
        <time>2015-10-31T15:41:45Z</time>
      </trkpt>
      <trkpt lat="44.46618" lon="1.60079">
        <ele>135.7</ele>
        <time>2015-10-31T15:41:46Z</time>
      </trkpt>
      <trkpt lat="44.46615" lon="1.60072">
        <ele>136</ele>
        <time>2015-10-31T15:41:47Z</time>
      </trkpt>
      <trkpt lat="44.46613" lon="1.60065">
        <ele>136.4</ele>
        <time>2015-10-31T15:41:48Z</time>
      </trkpt>
      <trkpt lat="44.46609" lon="1.60059">
        <ele>136.5</ele>
        <time>2015-10-31T15:41:49Z</time>
      </trkpt>
      <trkpt lat="44.46604" lon="1.60053">
        <ele>136.3</ele>
        <time>2015-10-31T15:41:50Z</time>
      </trkpt>
      <trkpt lat="44.466" lon="1.60047">
        <ele>136.3</ele>
        <time>2015-10-31T15:41:51Z</time>
      </trkpt>
      <trkpt lat="44.46597" lon="1.60039">
        <ele>136.4</ele>
        <time>2015-10-31T15:41:52Z</time>
      </trkpt>
      <trkpt lat="44.46593" lon="1.60033">
        <ele>136.5</ele>
        <time>2015-10-31T15:41:53Z</time>
      </trkpt>
      <trkpt lat="44.46588" lon="1.60026">
        <ele>136.2</ele>
        <time>2015-10-31T15:41:54Z</time>
      </trkpt>
      <trkpt lat="44.46584" lon="1.60019">
        <ele>136.3</ele>
        <time>2015-10-31T15:41:55Z</time>
      </trkpt>
      <trkpt lat="44.46581" lon="1.60013">
        <ele>136.3</ele>
        <time>2015-10-31T15:41:56Z</time>
      </trkpt>
      <trkpt lat="44.46579" lon="1.60006">
        <ele>136.5</ele>
        <time>2015-10-31T15:41:57Z</time>
      </trkpt>
      <trkpt lat="44.46576" lon="1.59999">
        <ele>136.6</ele>
        <time>2015-10-31T15:41:58Z</time>
      </trkpt>
      <trkpt lat="44.46574" lon="1.59992">
        <ele>136.8</ele>
        <time>2015-10-31T15:41:59Z</time>
      </trkpt>
      <trkpt lat="44.4657" lon="1.59986">
        <ele>136.8</ele>
        <time>2015-10-31T15:42:00Z</time>
      </trkpt>
      <trkpt lat="44.46566" lon="1.5998">
        <ele>136.7</ele>
        <time>2015-10-31T15:42:01Z</time>
      </trkpt>
      <trkpt lat="44.46563" lon="1.59972">
        <ele>136.8</ele>
        <time>2015-10-31T15:42:02Z</time>
      </trkpt>
      <trkpt lat="44.46559" lon="1.59965">
        <ele>136.8</ele>
        <time>2015-10-31T15:42:03Z</time>
      </trkpt>
      <trkpt lat="44.46555" lon="1.59958">
        <ele>136.8</ele>
        <time>2015-10-31T15:42:04Z</time>
      </trkpt>
      <trkpt lat="44.46551" lon="1.59954">
        <ele>136.5</ele>
        <time>2015-10-31T15:42:05Z</time>
      </trkpt>
      <trkpt lat="44.46547" lon="1.59946">
        <ele>136.6</ele>
        <time>2015-10-31T15:42:06Z</time>
      </trkpt>
      <trkpt lat="44.46543" lon="1.59941">
        <ele>136.3</ele>
        <time>2015-10-31T15:42:07Z</time>
      </trkpt>
      <trkpt lat="44.46537" lon="1.59937">
        <ele>135.9</ele>
        <time>2015-10-31T15:42:08Z</time>
      </trkpt>
      <trkpt lat="44.46531" lon="1.59933">
        <ele>135.4</ele>
        <time>2015-10-31T15:42:09Z</time>
      </trkpt>
      <trkpt lat="44.46526" lon="1.59929">
        <ele>135</ele>
        <time>2015-10-31T15:42:10Z</time>
      </trkpt>
      <trkpt lat="44.4652" lon="1.59923">
        <ele>134.5</ele>
        <time>2015-10-31T15:42:11Z</time>
      </trkpt>
      <trkpt lat="44.46516" lon="1.59919">
        <ele>134.2</ele>
        <time>2015-10-31T15:42:12Z</time>
      </trkpt>
      <trkpt lat="44.46512" lon="1.59915">
        <ele>133.8</ele>
        <time>2015-10-31T15:42:13Z</time>
      </trkpt>
      <trkpt lat="44.46507" lon="1.5991">
        <ele>133.3</ele>
        <time>2015-10-31T15:42:14Z</time>
      </trkpt>
      <trkpt lat="44.46503" lon="1.59903">
        <ele>133.1</ele>
        <time>2015-10-31T15:42:15Z</time>
      </trkpt>
      <trkpt lat="44.46497" lon="1.59897">
        <ele>132.4</ele>
        <time>2015-10-31T15:42:16Z</time>
      </trkpt>
      <trkpt lat="44.46492" lon="1.59891">
        <ele>132</ele>
        <time>2015-10-31T15:42:17Z</time>
      </trkpt>
      <trkpt lat="44.46488" lon="1.59884">
        <ele>131.6</ele>
        <time>2015-10-31T15:42:18Z</time>
      </trkpt>
      <trkpt lat="44.46482" lon="1.59879">
        <ele>130.9</ele>
        <time>2015-10-31T15:42:19Z</time>
      </trkpt>
      <trkpt lat="44.46481" lon="1.5987">
        <ele>130.9</ele>
        <time>2015-10-31T15:42:20Z</time>
      </trkpt>
      <trkpt lat="44.46479" lon="1.59862">
        <ele>130.8</ele>
        <time>2015-10-31T15:42:21Z</time>
      </trkpt>
      <trkpt lat="44.46476" lon="1.59854">
        <ele>130.7</ele>
        <time>2015-10-31T15:42:22Z</time>
      </trkpt>
      <trkpt lat="44.46474" lon="1.59847">
        <ele>130.6</ele>
        <time>2015-10-31T15:42:23Z</time>
      </trkpt>
      <trkpt lat="44.46473" lon="1.59839">
        <ele>130.6</ele>
        <time>2015-10-31T15:42:24Z</time>
      </trkpt>
      <trkpt lat="44.46471" lon="1.5983">
        <ele>130.6</ele>
        <time>2015-10-31T15:42:25Z</time>
      </trkpt>
      <trkpt lat="44.46469" lon="1.59822">
        <ele>130.6</ele>
        <time>2015-10-31T15:42:26Z</time>
      </trkpt>
      <trkpt lat="44.46467" lon="1.59813">
        <ele>130.5</ele>
        <time>2015-10-31T15:42:27Z</time>
      </trkpt>
      <trkpt lat="44.46465" lon="1.59806">
        <ele>130.5</ele>
        <time>2015-10-31T15:42:28Z</time>
      </trkpt>
      <trkpt lat="44.46463" lon="1.59797">
        <ele>130.5</ele>
        <time>2015-10-31T15:42:29Z</time>
      </trkpt>
      <trkpt lat="44.4646" lon="1.59789">
        <ele>130.3</ele>
        <time>2015-10-31T15:42:30Z</time>
      </trkpt>
      <trkpt lat="44.46458" lon="1.59782">
        <ele>130.3</ele>
        <time>2015-10-31T15:42:31Z</time>
      </trkpt>
      <trkpt lat="44.46455" lon="1.59774">
        <ele>130.5</ele>
        <time>2015-10-31T15:42:32Z</time>
      </trkpt>
      <trkpt lat="44.46454" lon="1.59765">
        <ele>130.8</ele>
        <time>2015-10-31T15:42:33Z</time>
      </trkpt>
      <trkpt lat="44.46452" lon="1.59757">
        <ele>131.1</ele>
        <time>2015-10-31T15:42:34Z</time>
      </trkpt>
      <trkpt lat="44.46451" lon="1.59749">
        <ele>131.4</ele>
        <time>2015-10-31T15:42:35Z</time>
      </trkpt>
      <trkpt lat="44.46451" lon="1.5974">
        <ele>131.7</ele>
        <time>2015-10-31T15:42:36Z</time>
      </trkpt>
      <trkpt lat="44.46451" lon="1.59732">
        <ele>131.9</ele>
        <time>2015-10-31T15:42:37Z</time>
      </trkpt>
      <trkpt lat="44.46451" lon="1.59723">
        <ele>132.2</ele>
        <time>2015-10-31T15:42:38Z</time>
      </trkpt>
      <trkpt lat="44.46451" lon="1.59715">
        <ele>132.4</ele>
        <time>2015-10-31T15:42:39Z</time>
      </trkpt>
      <trkpt lat="44.46452" lon="1.59707">
        <ele>132.6</ele>
        <time>2015-10-31T15:42:40Z</time>
      </trkpt>
      <trkpt lat="44.46451" lon="1.59699">
        <ele>132.4</ele>
        <time>2015-10-31T15:42:41Z</time>
      </trkpt>
      <trkpt lat="44.46452" lon="1.5969">
        <ele>132.2</ele>
        <time>2015-10-31T15:42:42Z</time>
      </trkpt>
      <trkpt lat="44.46454" lon="1.59683">
        <ele>131.8</ele>
        <time>2015-10-31T15:42:43Z</time>
      </trkpt>
      <trkpt lat="44.46456" lon="1.59675">
        <ele>131.5</ele>
        <time>2015-10-31T15:42:44Z</time>
      </trkpt>
      <trkpt lat="44.46458" lon="1.59666">
        <ele>131</ele>
        <time>2015-10-31T15:42:45Z</time>
      </trkpt>
      <trkpt lat="44.4646" lon="1.59656">
        <ele>130.9</ele>
        <time>2015-10-31T15:42:46Z</time>
      </trkpt>
      <trkpt lat="44.46463" lon="1.59649">
        <ele>130.8</ele>
        <time>2015-10-31T15:42:47Z</time>
      </trkpt>
      <trkpt lat="44.46464" lon="1.59642">
        <ele>130.7</ele>
        <time>2015-10-31T15:42:48Z</time>
      </trkpt>
      <trkpt lat="44.46465" lon="1.59635">
        <ele>130.6</ele>
        <time>2015-10-31T15:42:49Z</time>
      </trkpt>
      <trkpt lat="44.46467" lon="1.59629">
        <ele>130.5</ele>
        <time>2015-10-31T15:42:50Z</time>
      </trkpt>
      <trkpt lat="44.4647" lon="1.59622">
        <ele>130.6</ele>
        <time>2015-10-31T15:42:51Z</time>
      </trkpt>
      <trkpt lat="44.46474" lon="1.59614">
        <ele>130.9</ele>
        <time>2015-10-31T15:42:52Z</time>
      </trkpt>
      <trkpt lat="44.46476" lon="1.59606">
        <ele>131</ele>
        <time>2015-10-31T15:42:53Z</time>
      </trkpt>
      <trkpt lat="44.46478" lon="1.59598">
        <ele>131.2</ele>
        <time>2015-10-31T15:42:54Z</time>
      </trkpt>
      <trkpt lat="44.4648" lon="1.59589">
        <ele>131.4</ele>
        <time>2015-10-31T15:42:55Z</time>
      </trkpt>
      <trkpt lat="44.46481" lon="1.59582">
        <ele>131.5</ele>
        <time>2015-10-31T15:42:56Z</time>
      </trkpt>
      <trkpt lat="44.46481" lon="1.59576">
        <ele>131.5</ele>
        <time>2015-10-31T15:42:57Z</time>
      </trkpt>
      <trkpt lat="44.4648" lon="1.59571">
        <ele>131.5</ele>
        <time>2015-10-31T15:42:58Z</time>
      </trkpt>
      <trkpt lat="44.46482" lon="1.59564">
        <ele>131.6</ele>
        <time>2015-10-31T15:42:59Z</time>
      </trkpt>
      <trkpt lat="44.46486" lon="1.59554">
        <ele>131.9</ele>
        <time>2015-10-31T15:43:00Z</time>
      </trkpt>
      <trkpt lat="44.46488" lon="1.59546">
        <ele>132</ele>
        <time>2015-10-31T15:43:01Z</time>
      </trkpt>
      <trkpt lat="44.46492" lon="1.59538">
        <ele>132.2</ele>
        <time>2015-10-31T15:43:02Z</time>
      </trkpt>
      <trkpt lat="44.46493" lon="1.59531">
        <ele>132.2</ele>
        <time>2015-10-31T15:43:03Z</time>
      </trkpt>
      <trkpt lat="44.46495" lon="1.59523">
        <ele>132.1</ele>
        <time>2015-10-31T15:43:04Z</time>
      </trkpt>
      <trkpt lat="44.46497" lon="1.59515">
        <ele>132.1</ele>
        <time>2015-10-31T15:43:05Z</time>
      </trkpt>
      <trkpt lat="44.46497" lon="1.59507">
        <ele>132</ele>
        <time>2015-10-31T15:43:06Z</time>
      </trkpt>
      <trkpt lat="44.465" lon="1.59498">
        <ele>132</ele>
        <time>2015-10-31T15:43:07Z</time>
      </trkpt>
      <trkpt lat="44.46503" lon="1.5949">
        <ele>131.9</ele>
        <time>2015-10-31T15:43:08Z</time>
      </trkpt>
      <trkpt lat="44.46505" lon="1.59483">
        <ele>131.8</ele>
        <time>2015-10-31T15:43:09Z</time>
      </trkpt>
      <trkpt lat="44.46506" lon="1.59475">
        <ele>131.7</ele>
        <time>2015-10-31T15:43:10Z</time>
      </trkpt>
      <trkpt lat="44.46508" lon="1.59467">
        <ele>131.6</ele>
        <time>2015-10-31T15:43:11Z</time>
      </trkpt>
      <trkpt lat="44.46509" lon="1.5946">
        <ele>131.4</ele>
        <time>2015-10-31T15:43:12Z</time>
      </trkpt>
      <trkpt lat="44.46512" lon="1.59452">
        <ele>131.5</ele>
        <time>2015-10-31T15:43:13Z</time>
      </trkpt>
      <trkpt lat="44.46514" lon="1.59445">
        <ele>131.6</ele>
        <time>2015-10-31T15:43:14Z</time>
      </trkpt>
      <trkpt lat="44.46516" lon="1.59438">
        <ele>131.6</ele>
        <time>2015-10-31T15:43:15Z</time>
      </trkpt>
      <trkpt lat="44.46518" lon="1.59433">
        <ele>131.6</ele>
        <time>2015-10-31T15:43:16Z</time>
      </trkpt>
      <trkpt lat="44.46522" lon="1.59426">
        <ele>131.5</ele>
        <time>2015-10-31T15:43:17Z</time>
      </trkpt>
      <trkpt lat="44.46523" lon="1.59419">
        <ele>131.5</ele>
        <time>2015-10-31T15:43:18Z</time>
      </trkpt>
      <trkpt lat="44.46524" lon="1.5941">
        <ele>131.4</ele>
        <time>2015-10-31T15:43:19Z</time>
      </trkpt>
      <trkpt lat="44.46525" lon="1.59403">
        <ele>131.3</ele>
        <time>2015-10-31T15:43:20Z</time>
      </trkpt>
      <trkpt lat="44.46528" lon="1.59394">
        <ele>131.1</ele>
        <time>2015-10-31T15:43:21Z</time>
      </trkpt>
      <trkpt lat="44.4653" lon="1.59387">
        <ele>130.8</ele>
        <time>2015-10-31T15:43:22Z</time>
      </trkpt>
      <trkpt lat="44.46532" lon="1.5938">
        <ele>130.5</ele>
        <time>2015-10-31T15:43:23Z</time>
      </trkpt>
      <trkpt lat="44.46533" lon="1.59373">
        <ele>130.3</ele>
        <time>2015-10-31T15:43:24Z</time>
      </trkpt>
      <trkpt lat="44.46534" lon="1.59365">
        <ele>130.2</ele>
        <time>2015-10-31T15:43:25Z</time>
      </trkpt>
      <trkpt lat="44.46536" lon="1.59356">
        <ele>130.1</ele>
        <time>2015-10-31T15:43:26Z</time>
      </trkpt>
      <trkpt lat="44.46538" lon="1.5935">
        <ele>129.9</ele>
        <time>2015-10-31T15:43:27Z</time>
      </trkpt>
      <trkpt lat="44.46541" lon="1.59342">
        <ele>129.6</ele>
        <time>2015-10-31T15:43:28Z</time>
      </trkpt>
      <trkpt lat="44.46542" lon="1.59334">
        <ele>129.5</ele>
        <time>2015-10-31T15:43:29Z</time>
      </trkpt>
      <trkpt lat="44.46545" lon="1.59327">
        <ele>129.9</ele>
        <time>2015-10-31T15:43:30Z</time>
      </trkpt>
      <trkpt lat="44.46547" lon="1.59318">
        <ele>130.2</ele>
        <time>2015-10-31T15:43:31Z</time>
      </trkpt>
      <trkpt lat="44.46549" lon="1.59311">
        <ele>130.4</ele>
        <time>2015-10-31T15:43:32Z</time>
      </trkpt>
      <trkpt lat="44.46551" lon="1.59303">
        <ele>130.7</ele>
        <time>2015-10-31T15:43:33Z</time>
      </trkpt>
      <trkpt lat="44.46553" lon="1.59295">
        <ele>130.8</ele>
        <time>2015-10-31T15:43:34Z</time>
      </trkpt>
      <trkpt lat="44.46555" lon="1.59286">
        <ele>131.1</ele>
        <time>2015-10-31T15:43:35Z</time>
      </trkpt>
      <trkpt lat="44.46559" lon="1.59281">
        <ele>131.3</ele>
        <time>2015-10-31T15:43:36Z</time>
      </trkpt>
      <trkpt lat="44.46562" lon="1.59273">
        <ele>131.6</ele>
        <time>2015-10-31T15:43:37Z</time>
      </trkpt>
      <trkpt lat="44.46565" lon="1.59265">
        <ele>131.7</ele>
        <time>2015-10-31T15:43:38Z</time>
      </trkpt>
      <trkpt lat="44.46568" lon="1.59258">
        <ele>131.8</ele>
        <time>2015-10-31T15:43:39Z</time>
      </trkpt>
      <trkpt lat="44.46571" lon="1.5925">
        <ele>131.9</ele>
        <time>2015-10-31T15:43:40Z</time>
      </trkpt>
      <trkpt lat="44.46575" lon="1.59242">
        <ele>131.8</ele>
        <time>2015-10-31T15:43:41Z</time>
      </trkpt>
      <trkpt lat="44.4658" lon="1.59235">
        <ele>131.7</ele>
        <time>2015-10-31T15:43:42Z</time>
      </trkpt>
      <trkpt lat="44.46584" lon="1.59228">
        <ele>131.5</ele>
        <time>2015-10-31T15:43:43Z</time>
      </trkpt>
      <trkpt lat="44.46587" lon="1.59221">
        <ele>131.2</ele>
        <time>2015-10-31T15:43:44Z</time>
      </trkpt>
      <trkpt lat="44.46592" lon="1.59215">
        <ele>130.9</ele>
        <time>2015-10-31T15:43:45Z</time>
      </trkpt>
      <trkpt lat="44.46597" lon="1.59211">
        <ele>130.5</ele>
        <time>2015-10-31T15:43:46Z</time>
      </trkpt>
      <trkpt lat="44.46601" lon="1.59206">
        <ele>130.2</ele>
        <time>2015-10-31T15:43:47Z</time>
      </trkpt>
      <trkpt lat="44.46606" lon="1.59201">
        <ele>130</ele>
        <time>2015-10-31T15:43:48Z</time>
      </trkpt>
      <trkpt lat="44.4661" lon="1.59196">
        <ele>129.9</ele>
        <time>2015-10-31T15:43:49Z</time>
      </trkpt>
      <trkpt lat="44.46616" lon="1.59191">
        <ele>129.7</ele>
        <time>2015-10-31T15:43:50Z</time>
      </trkpt>
      <trkpt lat="44.46622" lon="1.59186">
        <ele>129.4</ele>
        <time>2015-10-31T15:43:51Z</time>
      </trkpt>
      <trkpt lat="44.46627" lon="1.59182">
        <ele>129.5</ele>
        <time>2015-10-31T15:43:52Z</time>
      </trkpt>
      <trkpt lat="44.46633" lon="1.59177">
        <ele>129.9</ele>
        <time>2015-10-31T15:43:53Z</time>
      </trkpt>
      <trkpt lat="44.46638" lon="1.59173">
        <ele>130.2</ele>
        <time>2015-10-31T15:43:54Z</time>
      </trkpt>
      <trkpt lat="44.46643" lon="1.59168">
        <ele>130.5</ele>
        <time>2015-10-31T15:43:55Z</time>
      </trkpt>
      <trkpt lat="44.46648" lon="1.59163">
        <ele>130.7</ele>
        <time>2015-10-31T15:43:56Z</time>
      </trkpt>
      <trkpt lat="44.46653" lon="1.59158">
        <ele>130.9</ele>
        <time>2015-10-31T15:43:57Z</time>
      </trkpt>
      <trkpt lat="44.46658" lon="1.59152">
        <ele>131</ele>
        <time>2015-10-31T15:43:58Z</time>
      </trkpt>
      <trkpt lat="44.46664" lon="1.59146">
        <ele>131</ele>
        <time>2015-10-31T15:43:59Z</time>
      </trkpt>
      <trkpt lat="44.46668" lon="1.5914">
        <ele>131</ele>
        <time>2015-10-31T15:44:00Z</time>
      </trkpt>
      <trkpt lat="44.46673" lon="1.59137">
        <ele>131</ele>
        <time>2015-10-31T15:44:01Z</time>
      </trkpt>
      <trkpt lat="44.46677" lon="1.59134">
        <ele>131</ele>
        <time>2015-10-31T15:44:02Z</time>
      </trkpt>
      <trkpt lat="44.46682" lon="1.59128">
        <ele>130.8</ele>
        <time>2015-10-31T15:44:03Z</time>
      </trkpt>
      <trkpt lat="44.46687" lon="1.59124">
        <ele>130.7</ele>
        <time>2015-10-31T15:44:04Z</time>
      </trkpt>
      <trkpt lat="44.46692" lon="1.59118">
        <ele>130.6</ele>
        <time>2015-10-31T15:44:05Z</time>
      </trkpt>
      <trkpt lat="44.46696" lon="1.59113">
        <ele>130.5</ele>
        <time>2015-10-31T15:44:06Z</time>
      </trkpt>
      <trkpt lat="44.46702" lon="1.59107">
        <ele>130.4</ele>
        <time>2015-10-31T15:44:07Z</time>
      </trkpt>
      <trkpt lat="44.46706" lon="1.59105">
        <ele>130.3</ele>
        <time>2015-10-31T15:44:08Z</time>
      </trkpt>
      <trkpt lat="44.46711" lon="1.59099">
        <ele>130.1</ele>
        <time>2015-10-31T15:44:09Z</time>
      </trkpt>
      <trkpt lat="44.46716" lon="1.59095">
        <ele>130.1</ele>
        <time>2015-10-31T15:44:10Z</time>
      </trkpt>
      <trkpt lat="44.46721" lon="1.5909">
        <ele>130.1</ele>
        <time>2015-10-31T15:44:11Z</time>
      </trkpt>
      <trkpt lat="44.46725" lon="1.59085">
        <ele>130</ele>
        <time>2015-10-31T15:44:12Z</time>
      </trkpt>
      <trkpt lat="44.46729" lon="1.5908">
        <ele>130</ele>
        <time>2015-10-31T15:44:13Z</time>
      </trkpt>
      <trkpt lat="44.46735" lon="1.59075">
        <ele>130</ele>
        <time>2015-10-31T15:44:14Z</time>
      </trkpt>
      <trkpt lat="44.46739" lon="1.59071">
        <ele>129.9</ele>
        <time>2015-10-31T15:44:15Z</time>
      </trkpt>
      <trkpt lat="44.46745" lon="1.59065">
        <ele>129.8</ele>
        <time>2015-10-31T15:44:16Z</time>
      </trkpt>
      <trkpt lat="44.4675" lon="1.5906">
        <ele>129.8</ele>
        <time>2015-10-31T15:44:17Z</time>
      </trkpt>
      <trkpt lat="44.46755" lon="1.59056">
        <ele>129.7</ele>
        <time>2015-10-31T15:44:18Z</time>
      </trkpt>
      <trkpt lat="44.46761" lon="1.59052">
        <ele>129.7</ele>
        <time>2015-10-31T15:44:19Z</time>
      </trkpt>
      <trkpt lat="44.46765" lon="1.59047">
        <ele>129.6</ele>
        <time>2015-10-31T15:44:20Z</time>
      </trkpt>
      <trkpt lat="44.46772" lon="1.59043">
        <ele>129.6</ele>
        <time>2015-10-31T15:44:21Z</time>
      </trkpt>
      <trkpt lat="44.46778" lon="1.5904">
        <ele>129.6</ele>
        <time>2015-10-31T15:44:22Z</time>
      </trkpt>
      <trkpt lat="44.46782" lon="1.59034">
        <ele>129.6</ele>
        <time>2015-10-31T15:44:23Z</time>
      </trkpt>
      <trkpt lat="44.46787" lon="1.59029">
        <ele>129.6</ele>
        <time>2015-10-31T15:44:24Z</time>
      </trkpt>
      <trkpt lat="44.4679" lon="1.59024">
        <ele>129.6</ele>
        <time>2015-10-31T15:44:25Z</time>
      </trkpt>
      <trkpt lat="44.46797" lon="1.59019">
        <ele>129.7</ele>
        <time>2015-10-31T15:44:26Z</time>
      </trkpt>
      <trkpt lat="44.46801" lon="1.59014">
        <ele>129.8</ele>
        <time>2015-10-31T15:44:27Z</time>
      </trkpt>
      <trkpt lat="44.46806" lon="1.59007">
        <ele>129.8</ele>
        <time>2015-10-31T15:44:28Z</time>
      </trkpt>
      <trkpt lat="44.46811" lon="1.59001">
        <ele>129.9</ele>
        <time>2015-10-31T15:44:29Z</time>
      </trkpt>
      <trkpt lat="44.46817" lon="1.59001">
        <ele>130.1</ele>
        <time>2015-10-31T15:44:30Z</time>
      </trkpt>
      <trkpt lat="44.46822" lon="1.58996">
        <ele>130.1</ele>
        <time>2015-10-31T15:44:31Z</time>
      </trkpt>
      <trkpt lat="44.46827" lon="1.58993">
        <ele>130.1</ele>
        <time>2015-10-31T15:44:32Z</time>
      </trkpt>
      <trkpt lat="44.46833" lon="1.58987">
        <ele>130.1</ele>
        <time>2015-10-31T15:44:33Z</time>
      </trkpt>
      <trkpt lat="44.46837" lon="1.58983">
        <ele>129.9</ele>
        <time>2015-10-31T15:44:34Z</time>
      </trkpt>
      <trkpt lat="44.46843" lon="1.58973">
        <ele>129.5</ele>
        <time>2015-10-31T15:44:35Z</time>
      </trkpt>
      <trkpt lat="44.46849" lon="1.58966">
        <ele>129.2</ele>
        <time>2015-10-31T15:44:36Z</time>
      </trkpt>
      <trkpt lat="44.46854" lon="1.58962">
        <ele>129</ele>
        <time>2015-10-31T15:44:37Z</time>
      </trkpt>
      <trkpt lat="44.4686" lon="1.58958">
        <ele>128.8</ele>
        <time>2015-10-31T15:44:38Z</time>
      </trkpt>
      <trkpt lat="44.46864" lon="1.58956">
        <ele>128.9</ele>
        <time>2015-10-31T15:44:39Z</time>
      </trkpt>
      <trkpt lat="44.46871" lon="1.58952">
        <ele>128.9</ele>
        <time>2015-10-31T15:44:40Z</time>
      </trkpt>
      <trkpt lat="44.46876" lon="1.58946">
        <ele>128.9</ele>
        <time>2015-10-31T15:44:41Z</time>
      </trkpt>
      <trkpt lat="44.46882" lon="1.58941">
        <ele>129.3</ele>
        <time>2015-10-31T15:44:42Z</time>
      </trkpt>
      <trkpt lat="44.46886" lon="1.58936">
        <ele>129.5</ele>
        <time>2015-10-31T15:44:43Z</time>
      </trkpt>
      <trkpt lat="44.46892" lon="1.58932">
        <ele>129.8</ele>
        <time>2015-10-31T15:44:44Z</time>
      </trkpt>
      <trkpt lat="44.46897" lon="1.5893">
        <ele>130.1</ele>
        <time>2015-10-31T15:44:45Z</time>
      </trkpt>
      <trkpt lat="44.46903" lon="1.58928">
        <ele>130.3</ele>
        <time>2015-10-31T15:44:46Z</time>
      </trkpt>
      <trkpt lat="44.46908" lon="1.58923">
        <ele>130.5</ele>
        <time>2015-10-31T15:44:47Z</time>
      </trkpt>
      <trkpt lat="44.46914" lon="1.5892">
        <ele>130.7</ele>
        <time>2015-10-31T15:44:48Z</time>
      </trkpt>
      <trkpt lat="44.46919" lon="1.58919">
        <ele>130.9</ele>
        <time>2015-10-31T15:44:49Z</time>
      </trkpt>
      <trkpt lat="44.46924" lon="1.58914">
        <ele>131</ele>
        <time>2015-10-31T15:44:50Z</time>
      </trkpt>
      <trkpt lat="44.46929" lon="1.5891">
        <ele>131.1</ele>
        <time>2015-10-31T15:44:51Z</time>
      </trkpt>
      <trkpt lat="44.46934" lon="1.58906">
        <ele>131.1</ele>
        <time>2015-10-31T15:44:52Z</time>
      </trkpt>
      <trkpt lat="44.4694" lon="1.58903">
        <ele>131.2</ele>
        <time>2015-10-31T15:44:53Z</time>
      </trkpt>
      <trkpt lat="44.46945" lon="1.58898">
        <ele>131.1</ele>
        <time>2015-10-31T15:44:54Z</time>
      </trkpt>
      <trkpt lat="44.46951" lon="1.58894">
        <ele>131.1</ele>
        <time>2015-10-31T15:44:55Z</time>
      </trkpt>
      <trkpt lat="44.46956" lon="1.58889">
        <ele>130.9</ele>
        <time>2015-10-31T15:44:56Z</time>
      </trkpt>
      <trkpt lat="44.46962" lon="1.58886">
        <ele>130.9</ele>
        <time>2015-10-31T15:44:57Z</time>
      </trkpt>
      <trkpt lat="44.46967" lon="1.58882">
        <ele>130.8</ele>
        <time>2015-10-31T15:44:58Z</time>
      </trkpt>
      <trkpt lat="44.46973" lon="1.58878">
        <ele>130.8</ele>
        <time>2015-10-31T15:44:59Z</time>
      </trkpt>
      <trkpt lat="44.46978" lon="1.58874">
        <ele>130.7</ele>
        <time>2015-10-31T15:45:00Z</time>
      </trkpt>
      <trkpt lat="44.46984" lon="1.58871">
        <ele>130.8</ele>
        <time>2015-10-31T15:45:01Z</time>
      </trkpt>
      <trkpt lat="44.46991" lon="1.58866">
        <ele>130.9</ele>
        <time>2015-10-31T15:45:02Z</time>
      </trkpt>
      <trkpt lat="44.46997" lon="1.58862">
        <ele>131</ele>
        <time>2015-10-31T15:45:03Z</time>
      </trkpt>
      <trkpt lat="44.47003" lon="1.58858">
        <ele>131.1</ele>
        <time>2015-10-31T15:45:04Z</time>
      </trkpt>
      <trkpt lat="44.47007" lon="1.58854">
        <ele>131.1</ele>
        <time>2015-10-31T15:45:05Z</time>
      </trkpt>
      <trkpt lat="44.47012" lon="1.58851">
        <ele>131.2</ele>
        <time>2015-10-31T15:45:06Z</time>
      </trkpt>
      <trkpt lat="44.47017" lon="1.58847">
        <ele>131.2</ele>
        <time>2015-10-31T15:45:07Z</time>
      </trkpt>
      <trkpt lat="44.47023" lon="1.58843">
        <ele>131.2</ele>
        <time>2015-10-31T15:45:08Z</time>
      </trkpt>
      <trkpt lat="44.47028" lon="1.58838">
        <ele>131.2</ele>
        <time>2015-10-31T15:45:09Z</time>
      </trkpt>
      <trkpt lat="44.47035" lon="1.58836">
        <ele>131.4</ele>
        <time>2015-10-31T15:45:10Z</time>
      </trkpt>
      <trkpt lat="44.4704" lon="1.58834">
        <ele>131.5</ele>
        <time>2015-10-31T15:45:11Z</time>
      </trkpt>
      <trkpt lat="44.47043" lon="1.58832">
        <ele>131.5</ele>
        <time>2015-10-31T15:45:12Z</time>
      </trkpt>
      <trkpt lat="44.47048" lon="1.58829">
        <ele>131.6</ele>
        <time>2015-10-31T15:45:13Z</time>
      </trkpt>
      <trkpt lat="44.47051" lon="1.58827">
        <ele>131.7</ele>
        <time>2015-10-31T15:45:14Z</time>
      </trkpt>
      <trkpt lat="44.47053" lon="1.58822">
        <ele>131.5</ele>
        <time>2015-10-31T15:45:15Z</time>
      </trkpt>
      <trkpt lat="44.47057" lon="1.58814">
        <ele>131.2</ele>
        <time>2015-10-31T15:45:16Z</time>
      </trkpt>
      <trkpt lat="44.47059" lon="1.58808">
        <ele>130.9</ele>
        <time>2015-10-31T15:45:17Z</time>
      </trkpt>
      <trkpt lat="44.47057" lon="1.58804">
        <ele>130.7</ele>
        <time>2015-10-31T15:45:18Z</time>
      </trkpt>
      <trkpt lat="44.47057" lon="1.58798">
        <ele>130.3</ele>
        <time>2015-10-31T15:45:19Z</time>
      </trkpt>
      <trkpt lat="44.47056" lon="1.58792">
        <ele>130</ele>
        <time>2015-10-31T15:45:20Z</time>
      </trkpt>
      <trkpt lat="44.47053" lon="1.58789">
        <ele>130</ele>
        <time>2015-10-31T15:45:21Z</time>
      </trkpt>
      <trkpt lat="44.47049" lon="1.58783">
        <ele>129.9</ele>
        <time>2015-10-31T15:45:22Z</time>
      </trkpt>
      <trkpt lat="44.47046" lon="1.58778">
        <ele>129.8</ele>
        <time>2015-10-31T15:45:23Z</time>
      </trkpt>
      <trkpt lat="44.47042" lon="1.58773">
        <ele>129.8</ele>
        <time>2015-10-31T15:45:24Z</time>
      </trkpt>
      <trkpt lat="44.47039" lon="1.58767">
        <ele>129.7</ele>
        <time>2015-10-31T15:45:25Z</time>
      </trkpt>
      <trkpt lat="44.47036" lon="1.58762">
        <ele>129.6</ele>
        <time>2015-10-31T15:45:26Z</time>
      </trkpt>
      <trkpt lat="44.47032" lon="1.58757">
        <ele>129.4</ele>
        <time>2015-10-31T15:45:27Z</time>
      </trkpt>
      <trkpt lat="44.47027" lon="1.58748">
        <ele>129.3</ele>
        <time>2015-10-31T15:45:28Z</time>
      </trkpt>
      <trkpt lat="44.47024" lon="1.58742">
        <ele>129.2</ele>
        <time>2015-10-31T15:45:29Z</time>
      </trkpt>
      <trkpt lat="44.4702" lon="1.58734">
        <ele>129.1</ele>
        <time>2015-10-31T15:45:30Z</time>
      </trkpt>
      <trkpt lat="44.47018" lon="1.58728">
        <ele>129.1</ele>
        <time>2015-10-31T15:45:31Z</time>
      </trkpt>
      <trkpt lat="44.47016" lon="1.58722">
        <ele>129.1</ele>
        <time>2015-10-31T15:45:32Z</time>
      </trkpt>
      <trkpt lat="44.47012" lon="1.58717">
        <ele>129</ele>
        <time>2015-10-31T15:45:33Z</time>
      </trkpt>
      <trkpt lat="44.4701" lon="1.5871">
        <ele>129</ele>
        <time>2015-10-31T15:45:34Z</time>
      </trkpt>
      <trkpt lat="44.47006" lon="1.58705">
        <ele>129</ele>
        <time>2015-10-31T15:45:35Z</time>
      </trkpt>
      <trkpt lat="44.47003" lon="1.58699">
        <ele>128.9</ele>
        <time>2015-10-31T15:45:36Z</time>
      </trkpt>
      <trkpt lat="44.46999" lon="1.58693">
        <ele>128.8</ele>
        <time>2015-10-31T15:45:37Z</time>
      </trkpt>
      <trkpt lat="44.46996" lon="1.58687">
        <ele>128.7</ele>
        <time>2015-10-31T15:45:38Z</time>
      </trkpt>
      <trkpt lat="44.46992" lon="1.58683">
        <ele>128.7</ele>
        <time>2015-10-31T15:45:39Z</time>
      </trkpt>
      <trkpt lat="44.46989" lon="1.5868">
        <ele>128.7</ele>
        <time>2015-10-31T15:45:40Z</time>
      </trkpt>
      <trkpt lat="44.46986" lon="1.58674">
        <ele>128.6</ele>
        <time>2015-10-31T15:45:41Z</time>
      </trkpt>
      <trkpt lat="44.46983" lon="1.5867">
        <ele>128.5</ele>
        <time>2015-10-31T15:45:42Z</time>
      </trkpt>
      <trkpt lat="44.4698" lon="1.58663">
        <ele>128.5</ele>
        <time>2015-10-31T15:45:43Z</time>
      </trkpt>
      <trkpt lat="44.46977" lon="1.58658">
        <ele>128.4</ele>
        <time>2015-10-31T15:45:44Z</time>
      </trkpt>
      <trkpt lat="44.46974" lon="1.58653">
        <ele>128.3</ele>
        <time>2015-10-31T15:45:45Z</time>
      </trkpt>
      <trkpt lat="44.46972" lon="1.58646">
        <ele>128.3</ele>
        <time>2015-10-31T15:45:46Z</time>
      </trkpt>
      <trkpt lat="44.46969" lon="1.58641">
        <ele>128.2</ele>
        <time>2015-10-31T15:45:47Z</time>
      </trkpt>
      <trkpt lat="44.46966" lon="1.58636">
        <ele>128.1</ele>
        <time>2015-10-31T15:45:48Z</time>
      </trkpt>
      <trkpt lat="44.46963" lon="1.58634">
        <ele>128.1</ele>
        <time>2015-10-31T15:45:49Z</time>
      </trkpt>
      <trkpt lat="44.4696" lon="1.5863">
        <ele>128.1</ele>
        <time>2015-10-31T15:45:50Z</time>
      </trkpt>
      <trkpt lat="44.46955" lon="1.58627">
        <ele>128.1</ele>
        <time>2015-10-31T15:45:51Z</time>
      </trkpt>
      <trkpt lat="44.46953" lon="1.58623">
        <ele>128.1</ele>
        <time>2015-10-31T15:45:52Z</time>
      </trkpt>
      <trkpt lat="44.46952" lon="1.58619">
        <ele>127.9</ele>
        <time>2015-10-31T15:45:53Z</time>
      </trkpt>
      <trkpt lat="44.46948" lon="1.58615">
        <ele>127.9</ele>
        <time>2015-10-31T15:45:54Z</time>
      </trkpt>
      <trkpt lat="44.46945" lon="1.58608">
        <ele>127.7</ele>
        <time>2015-10-31T15:45:55Z</time>
      </trkpt>
      <trkpt lat="44.4694" lon="1.58604">
        <ele>127.7</ele>
        <time>2015-10-31T15:45:56Z</time>
      </trkpt>
      <trkpt lat="44.46937" lon="1.58599">
        <ele>127.6</ele>
        <time>2015-10-31T15:45:57Z</time>
      </trkpt>
      <trkpt lat="44.46935" lon="1.58595">
        <ele>127.5</ele>
        <time>2015-10-31T15:45:58Z</time>
      </trkpt>
      <trkpt lat="44.46931" lon="1.58589">
        <ele>127.4</ele>
        <time>2015-10-31T15:45:59Z</time>
      </trkpt>
      <trkpt lat="44.46928" lon="1.58585">
        <ele>127.3</ele>
        <time>2015-10-31T15:46:00Z</time>
      </trkpt>
      <trkpt lat="44.46924" lon="1.5858">
        <ele>127.2</ele>
        <time>2015-10-31T15:46:01Z</time>
      </trkpt>
      <trkpt lat="44.46921" lon="1.58579">
        <ele>127.3</ele>
        <time>2015-10-31T15:46:02Z</time>
      </trkpt>
      <trkpt lat="44.46917" lon="1.58575">
        <ele>127.2</ele>
        <time>2015-10-31T15:46:03Z</time>
      </trkpt>
      <trkpt lat="44.46913" lon="1.58571">
        <ele>127.1</ele>
        <time>2015-10-31T15:46:04Z</time>
      </trkpt>
      <trkpt lat="44.46911" lon="1.58566">
        <ele>127</ele>
        <time>2015-10-31T15:46:05Z</time>
      </trkpt>
      <trkpt lat="44.46909" lon="1.58562">
        <ele>126.9</ele>
        <time>2015-10-31T15:46:06Z</time>
      </trkpt>
      <trkpt lat="44.46909" lon="1.58556">
        <ele>126.7</ele>
        <time>2015-10-31T15:46:07Z</time>
      </trkpt>
      <trkpt lat="44.46906" lon="1.58552">
        <ele>126.6</ele>
        <time>2015-10-31T15:46:08Z</time>
      </trkpt>
      <trkpt lat="44.46903" lon="1.58545">
        <ele>126.5</ele>
        <time>2015-10-31T15:46:09Z</time>
      </trkpt>
      <trkpt lat="44.469" lon="1.5854">
        <ele>126.4</ele>
        <time>2015-10-31T15:46:10Z</time>
      </trkpt>
      <trkpt lat="44.46897" lon="1.58536">
        <ele>126.5</ele>
        <time>2015-10-31T15:46:11Z</time>
      </trkpt>
      <trkpt lat="44.46895" lon="1.5853">
        <ele>126.5</ele>
        <time>2015-10-31T15:46:12Z</time>
      </trkpt>
      <trkpt lat="44.46893" lon="1.58524">
        <ele>126.6</ele>
        <time>2015-10-31T15:46:13Z</time>
      </trkpt>
      <trkpt lat="44.46891" lon="1.58519">
        <ele>126.6</ele>
        <time>2015-10-31T15:46:14Z</time>
      </trkpt>
      <trkpt lat="44.46884" lon="1.58523">
        <ele>126.8</ele>
        <time>2015-10-31T15:46:15Z</time>
      </trkpt>
      <trkpt lat="44.46881" lon="1.58521">
        <ele>126.9</ele>
        <time>2015-10-31T15:46:16Z</time>
      </trkpt>
      <trkpt lat="44.46878" lon="1.58515">
        <ele>126.9</ele>
        <time>2015-10-31T15:46:17Z</time>
      </trkpt>
      <trkpt lat="44.46876" lon="1.58511">
        <ele>127</ele>
        <time>2015-10-31T15:46:18Z</time>
      </trkpt>
      <trkpt lat="44.46873" lon="1.58506">
        <ele>127.3</ele>
        <time>2015-10-31T15:46:19Z</time>
      </trkpt>
      <trkpt lat="44.46874" lon="1.58499">
        <ele>127.2</ele>
        <time>2015-10-31T15:46:20Z</time>
      </trkpt>
      <trkpt lat="44.46871" lon="1.58492">
        <ele>127.8</ele>
        <time>2015-10-31T15:46:21Z</time>
      </trkpt>
      <trkpt lat="44.46866" lon="1.58485">
        <ele>129</ele>
        <time>2015-10-31T15:46:22Z</time>
      </trkpt>
      <trkpt lat="44.46863" lon="1.58482">
        <ele>130</ele>
        <time>2015-10-31T15:46:23Z</time>
      </trkpt>
      <trkpt lat="44.4686" lon="1.58478">
        <ele>130.8</ele>
        <time>2015-10-31T15:46:24Z</time>
      </trkpt>
      <trkpt lat="44.46857" lon="1.58472">
        <ele>131.9</ele>
        <time>2015-10-31T15:46:25Z</time>
      </trkpt>
      <trkpt lat="44.46853" lon="1.58468">
        <ele>133.2</ele>
        <time>2015-10-31T15:46:26Z</time>
      </trkpt>
      <trkpt lat="44.4685" lon="1.58462">
        <ele>134.6</ele>
        <time>2015-10-31T15:46:27Z</time>
      </trkpt>
      <trkpt lat="44.46846" lon="1.58457">
        <ele>136.4</ele>
        <time>2015-10-31T15:46:28Z</time>
      </trkpt>
      <trkpt lat="44.46844" lon="1.58451">
        <ele>139</ele>
        <time>2015-10-31T15:46:29Z</time>
      </trkpt>
      <trkpt lat="44.46841" lon="1.58446">
        <ele>141.6</ele>
        <time>2015-10-31T15:46:30Z</time>
      </trkpt>
      <trkpt lat="44.46838" lon="1.58442">
        <ele>143.7</ele>
        <time>2015-10-31T15:46:31Z</time>
      </trkpt>
      <trkpt lat="44.46835" lon="1.58438">
        <ele>145.9</ele>
        <time>2015-10-31T15:46:32Z</time>
      </trkpt>
      <trkpt lat="44.46831" lon="1.58432">
        <ele>149.2</ele>
        <time>2015-10-31T15:46:33Z</time>
      </trkpt>
      <trkpt lat="44.46828" lon="1.58428">
        <ele>151.6</ele>
        <time>2015-10-31T15:46:34Z</time>
      </trkpt>
      <trkpt lat="44.46825" lon="1.58423">
        <ele>154.9</ele>
        <time>2015-10-31T15:46:35Z</time>
      </trkpt>
      <trkpt lat="44.46822" lon="1.58418">
        <ele>157.9</ele>
        <time>2015-10-31T15:46:36Z</time>
      </trkpt>
      <trkpt lat="44.46818" lon="1.58413">
        <ele>161.3</ele>
        <time>2015-10-31T15:46:37Z</time>
      </trkpt>
      <trkpt lat="44.46815" lon="1.5841">
        <ele>163.5</ele>
        <time>2015-10-31T15:46:38Z</time>
      </trkpt>
      <trkpt lat="44.4681" lon="1.58407">
        <ele>166.9</ele>
        <time>2015-10-31T15:46:39Z</time>
      </trkpt>
      <trkpt lat="44.46806" lon="1.58403">
        <ele>170.2</ele>
        <time>2015-10-31T15:46:40Z</time>
      </trkpt>
      <trkpt lat="44.46801" lon="1.58402">
        <ele>172.6</ele>
        <time>2015-10-31T15:46:42Z</time>
      </trkpt>
      <trkpt lat="44.46797" lon="1.58401">
        <ele>174.6</ele>
        <time>2015-10-31T15:46:43Z</time>
      </trkpt>
      <trkpt lat="44.46793" lon="1.58399">
        <ele>177.2</ele>
        <time>2015-10-31T15:46:45Z</time>
      </trkpt>
      <trkpt lat="44.46793" lon="1.58395">
        <ele>178.9</ele>
        <time>2015-10-31T15:46:47Z</time>
      </trkpt>
      <trkpt lat="44.46791" lon="1.58399">
        <ele>178.3</ele>
        <time>2015-10-31T15:46:53Z</time>
      </trkpt>
      <trkpt lat="44.46794" lon="1.58405">
        <ele>174.3</ele>
        <time>2015-10-31T15:47:00Z</time>
      </trkpt>
      <trkpt lat="44.4679" lon="1.58399">
        <ele>178.8</ele>
        <time>2015-10-31T15:52:01Z</time>
      </trkpt>
      <trkpt lat="44.46791" lon="1.58407">
        <ele>175.2</ele>
        <time>2015-10-31T15:53:32Z</time>
      </trkpt>
      <trkpt lat="44.46787" lon="1.5841">
        <ele>175.6</ele>
        <time>2015-10-31T15:53:34Z</time>
      </trkpt>
      <trkpt lat="44.46783" lon="1.58415">
        <ele>175.7</ele>
        <time>2015-10-31T15:53:36Z</time>
      </trkpt>
      <trkpt lat="44.46779" lon="1.58418">
        <ele>176.7</ele>
        <time>2015-10-31T15:53:38Z</time>
      </trkpt>
      <trkpt lat="44.46773" lon="1.5842">
        <ele>178.6</ele>
        <time>2015-10-31T15:53:40Z</time>
      </trkpt>
      <trkpt lat="44.46771" lon="1.58422">
        <ele>179.2</ele>
        <time>2015-10-31T15:53:41Z</time>
      </trkpt>
      <trkpt lat="44.46768" lon="1.58425">
        <ele>179.3</ele>
        <time>2015-10-31T15:53:42Z</time>
      </trkpt>
      <trkpt lat="44.46765" lon="1.58428">
        <ele>179.2</ele>
        <time>2015-10-31T15:53:43Z</time>
      </trkpt>
      <trkpt lat="44.46763" lon="1.58432">
        <ele>178.9</ele>
        <time>2015-10-31T15:53:44Z</time>
      </trkpt>
      <trkpt lat="44.46761" lon="1.58436">
        <ele>178.4</ele>
        <time>2015-10-31T15:53:45Z</time>
      </trkpt>
      <trkpt lat="44.46758" lon="1.5844">
        <ele>178.1</ele>
        <time>2015-10-31T15:53:46Z</time>
      </trkpt>
      <trkpt lat="44.46756" lon="1.58444">
        <ele>177.9</ele>
        <time>2015-10-31T15:53:47Z</time>
      </trkpt>
      <trkpt lat="44.46753" lon="1.58447">
        <ele>177.8</ele>
        <time>2015-10-31T15:53:48Z</time>
      </trkpt>
      <trkpt lat="44.46751" lon="1.58451">
        <ele>177.7</ele>
        <time>2015-10-31T15:53:49Z</time>
      </trkpt>
      <trkpt lat="44.46748" lon="1.58455">
        <ele>177.4</ele>
        <time>2015-10-31T15:53:50Z</time>
      </trkpt>
      <trkpt lat="44.46746" lon="1.58459">
        <ele>177.2</ele>
        <time>2015-10-31T15:53:51Z</time>
      </trkpt>
      <trkpt lat="44.46743" lon="1.58463">
        <ele>177.6</ele>
        <time>2015-10-31T15:53:52Z</time>
      </trkpt>
      <trkpt lat="44.46739" lon="1.58467">
        <ele>178.2</ele>
        <time>2015-10-31T15:53:53Z</time>
      </trkpt>
      <trkpt lat="44.46734" lon="1.58471">
        <ele>179.7</ele>
        <time>2015-10-31T15:53:54Z</time>
      </trkpt>
      <trkpt lat="44.4673" lon="1.58477">
        <ele>179.9</ele>
        <time>2015-10-31T15:53:55Z</time>
      </trkpt>
      <trkpt lat="44.46727" lon="1.58482">
        <ele>180</ele>
        <time>2015-10-31T15:53:56Z</time>
      </trkpt>
      <trkpt lat="44.46724" lon="1.58485">
        <ele>180.4</ele>
        <time>2015-10-31T15:53:57Z</time>
      </trkpt>
      <trkpt lat="44.4672" lon="1.58489">
        <ele>181.1</ele>
        <time>2015-10-31T15:53:58Z</time>
      </trkpt>
      <trkpt lat="44.46716" lon="1.58495">
        <ele>181.4</ele>
        <time>2015-10-31T15:53:59Z</time>
      </trkpt>
      <trkpt lat="44.46712" lon="1.585">
        <ele>181.7</ele>
        <time>2015-10-31T15:54:00Z</time>
      </trkpt>
      <trkpt lat="44.46708" lon="1.58505">
        <ele>181.9</ele>
        <time>2015-10-31T15:54:01Z</time>
      </trkpt>
      <trkpt lat="44.46704" lon="1.5851">
        <ele>182.5</ele>
        <time>2015-10-31T15:54:02Z</time>
      </trkpt>
      <trkpt lat="44.467" lon="1.58515">
        <ele>182.9</ele>
        <time>2015-10-31T15:54:03Z</time>
      </trkpt>
      <trkpt lat="44.46697" lon="1.5852">
        <ele>182.8</ele>
        <time>2015-10-31T15:54:04Z</time>
      </trkpt>
      <trkpt lat="44.46692" lon="1.58525">
        <ele>183.3</ele>
        <time>2015-10-31T15:54:05Z</time>
      </trkpt>
      <trkpt lat="44.4669" lon="1.58529">
        <ele>183.3</ele>
        <time>2015-10-31T15:54:06Z</time>
      </trkpt>
      <trkpt lat="44.46686" lon="1.58536">
        <ele>182.7</ele>
        <time>2015-10-31T15:54:07Z</time>
      </trkpt>
      <trkpt lat="44.46684" lon="1.58542">
        <ele>182</ele>
        <time>2015-10-31T15:54:08Z</time>
      </trkpt>
      <trkpt lat="44.46681" lon="1.58549">
        <ele>181.4</ele>
        <time>2015-10-31T15:54:09Z</time>
      </trkpt>
      <trkpt lat="44.4668" lon="1.58554">
        <ele>180.2</ele>
        <time>2015-10-31T15:54:10Z</time>
      </trkpt>
      <trkpt lat="44.46678" lon="1.58561">
        <ele>179.6</ele>
        <time>2015-10-31T15:54:11Z</time>
      </trkpt>
      <trkpt lat="44.46675" lon="1.58566">
        <ele>179.4</ele>
        <time>2015-10-31T15:54:12Z</time>
      </trkpt>
      <trkpt lat="44.46672" lon="1.58573">
        <ele>179</ele>
        <time>2015-10-31T15:54:13Z</time>
      </trkpt>
      <trkpt lat="44.46669" lon="1.58579">
        <ele>178.4</ele>
        <time>2015-10-31T15:54:14Z</time>
      </trkpt>
      <trkpt lat="44.46665" lon="1.58584">
        <ele>179.2</ele>
        <time>2015-10-31T15:54:15Z</time>
      </trkpt>
      <trkpt lat="44.46661" lon="1.58588">
        <ele>179.8</ele>
        <time>2015-10-31T15:54:16Z</time>
      </trkpt>
      <trkpt lat="44.46659" lon="1.58595">
        <ele>178.9</ele>
        <time>2015-10-31T15:54:17Z</time>
      </trkpt>
      <trkpt lat="44.46656" lon="1.58601">
        <ele>178.9</ele>
        <time>2015-10-31T15:54:18Z</time>
      </trkpt>
      <trkpt lat="44.46652" lon="1.58607">
        <ele>179</ele>
        <time>2015-10-31T15:54:19Z</time>
      </trkpt>
      <trkpt lat="44.46649" lon="1.58614">
        <ele>178.4</ele>
        <time>2015-10-31T15:54:20Z</time>
      </trkpt>
      <trkpt lat="44.46644" lon="1.58619">
        <ele>179.4</ele>
        <time>2015-10-31T15:54:21Z</time>
      </trkpt>
      <trkpt lat="44.4664" lon="1.58624">
        <ele>180.1</ele>
        <time>2015-10-31T15:54:22Z</time>
      </trkpt>
      <trkpt lat="44.46637" lon="1.58631">
        <ele>178.7</ele>
        <time>2015-10-31T15:54:23Z</time>
      </trkpt>
      <trkpt lat="44.46633" lon="1.58637">
        <ele>178.7</ele>
        <time>2015-10-31T15:54:24Z</time>
      </trkpt>
      <trkpt lat="44.4663" lon="1.58643">
        <ele>178.1</ele>
        <time>2015-10-31T15:54:25Z</time>
      </trkpt>
      <trkpt lat="44.46626" lon="1.5865">
        <ele>176.9</ele>
        <time>2015-10-31T15:54:26Z</time>
      </trkpt>
      <trkpt lat="44.46621" lon="1.58655">
        <ele>176.8</ele>
        <time>2015-10-31T15:54:27Z</time>
      </trkpt>
      <trkpt lat="44.46616" lon="1.58659">
        <ele>176.5</ele>
        <time>2015-10-31T15:54:28Z</time>
      </trkpt>
      <trkpt lat="44.46612" lon="1.58665">
        <ele>176</ele>
        <time>2015-10-31T15:54:29Z</time>
      </trkpt>
      <trkpt lat="44.46609" lon="1.5867">
        <ele>175.2</ele>
        <time>2015-10-31T15:54:30Z</time>
      </trkpt>
      <trkpt lat="44.46605" lon="1.58676">
        <ele>174.4</ele>
        <time>2015-10-31T15:54:31Z</time>
      </trkpt>
      <trkpt lat="44.466" lon="1.58681">
        <ele>174.3</ele>
        <time>2015-10-31T15:54:32Z</time>
      </trkpt>
      <trkpt lat="44.46597" lon="1.58684">
        <ele>174.2</ele>
        <time>2015-10-31T15:54:33Z</time>
      </trkpt>
      <trkpt lat="44.46593" lon="1.5869">
        <ele>173.7</ele>
        <time>2015-10-31T15:54:34Z</time>
      </trkpt>
      <trkpt lat="44.4659" lon="1.58695">
        <ele>173.1</ele>
        <time>2015-10-31T15:54:35Z</time>
      </trkpt>
      <trkpt lat="44.46586" lon="1.58701">
        <ele>172.8</ele>
        <time>2015-10-31T15:54:36Z</time>
      </trkpt>
      <trkpt lat="44.46583" lon="1.58707">
        <ele>172.2</ele>
        <time>2015-10-31T15:54:37Z</time>
      </trkpt>
      <trkpt lat="44.46578" lon="1.58712">
        <ele>172.8</ele>
        <time>2015-10-31T15:54:38Z</time>
      </trkpt>
      <trkpt lat="44.46574" lon="1.58718">
        <ele>173.3</ele>
        <time>2015-10-31T15:54:39Z</time>
      </trkpt>
      <trkpt lat="44.46571" lon="1.58723">
        <ele>173.7</ele>
        <time>2015-10-31T15:54:40Z</time>
      </trkpt>
      <trkpt lat="44.46567" lon="1.58727">
        <ele>174.7</ele>
        <time>2015-10-31T15:54:41Z</time>
      </trkpt>
      <trkpt lat="44.46564" lon="1.58733">
        <ele>174.8</ele>
        <time>2015-10-31T15:54:42Z</time>
      </trkpt>
      <trkpt lat="44.4656" lon="1.58738">
        <ele>175.8</ele>
        <time>2015-10-31T15:54:43Z</time>
      </trkpt>
      <trkpt lat="44.46558" lon="1.58743">
        <ele>175.5</ele>
        <time>2015-10-31T15:54:44Z</time>
      </trkpt>
      <trkpt lat="44.46554" lon="1.58747">
        <ele>176.6</ele>
        <time>2015-10-31T15:54:45Z</time>
      </trkpt>
      <trkpt lat="44.4655" lon="1.58753">
        <ele>177.4</ele>
        <time>2015-10-31T15:54:46Z</time>
      </trkpt>
      <trkpt lat="44.46546" lon="1.58759">
        <ele>178</ele>
        <time>2015-10-31T15:54:47Z</time>
      </trkpt>
      <trkpt lat="44.46545" lon="1.58765">
        <ele>177.7</ele>
        <time>2015-10-31T15:54:48Z</time>
      </trkpt>
      <trkpt lat="44.46547" lon="1.58774">
        <ele>175.3</ele>
        <time>2015-10-31T15:54:49Z</time>
      </trkpt>
      <trkpt lat="44.46549" lon="1.58782">
        <ele>173.2</ele>
        <time>2015-10-31T15:54:50Z</time>
      </trkpt>
      <trkpt lat="44.46546" lon="1.58787">
        <ele>173.5</ele>
        <time>2015-10-31T15:54:51Z</time>
      </trkpt>
      <trkpt lat="44.46544" lon="1.58792">
        <ele>173.7</ele>
        <time>2015-10-31T15:54:52Z</time>
      </trkpt>
      <trkpt lat="44.46542" lon="1.58798">
        <ele>173.1</ele>
        <time>2015-10-31T15:54:53Z</time>
      </trkpt>
      <trkpt lat="44.4654" lon="1.58806">
        <ele>172.6</ele>
        <time>2015-10-31T15:54:54Z</time>
      </trkpt>
      <trkpt lat="44.46534" lon="1.58809">
        <ele>174.4</ele>
        <time>2015-10-31T15:54:55Z</time>
      </trkpt>
      <trkpt lat="44.46532" lon="1.58814">
        <ele>173.8</ele>
        <time>2015-10-31T15:54:56Z</time>
      </trkpt>
      <trkpt lat="44.46526" lon="1.5882">
        <ele>175.1</ele>
        <time>2015-10-31T15:54:57Z</time>
      </trkpt>
      <trkpt lat="44.46524" lon="1.58825">
        <ele>175</ele>
        <time>2015-10-31T15:54:58Z</time>
      </trkpt>
      <trkpt lat="44.46516" lon="1.58829">
        <ele>177.2</ele>
        <time>2015-10-31T15:54:59Z</time>
      </trkpt>
      <trkpt lat="44.46517" lon="1.58837">
        <ele>174.8</ele>
        <time>2015-10-31T15:55:00Z</time>
      </trkpt>
      <trkpt lat="44.46512" lon="1.5884">
        <ele>176.2</ele>
        <time>2015-10-31T15:55:01Z</time>
      </trkpt>
      <trkpt lat="44.46509" lon="1.58845">
        <ele>176.5</ele>
        <time>2015-10-31T15:55:02Z</time>
      </trkpt>
      <trkpt lat="44.46504" lon="1.58849">
        <ele>177.6</ele>
        <time>2015-10-31T15:55:03Z</time>
      </trkpt>
      <trkpt lat="44.46503" lon="1.58856">
        <ele>176.4</ele>
        <time>2015-10-31T15:55:04Z</time>
      </trkpt>
      <trkpt lat="44.46496" lon="1.58859">
        <ele>178.6</ele>
        <time>2015-10-31T15:55:05Z</time>
      </trkpt>
      <trkpt lat="44.46493" lon="1.58863">
        <ele>179.1</ele>
        <time>2015-10-31T15:55:06Z</time>
      </trkpt>
      <trkpt lat="44.46484" lon="1.58864">
        <ele>182.4</ele>
        <time>2015-10-31T15:55:07Z</time>
      </trkpt>
      <trkpt lat="44.46491" lon="1.58873">
        <ele>177.8</ele>
        <time>2015-10-31T15:55:08Z</time>
      </trkpt>
      <trkpt lat="44.46488" lon="1.58877">
        <ele>178.2</ele>
        <time>2015-10-31T15:55:09Z</time>
      </trkpt>
      <trkpt lat="44.46484" lon="1.58883">
        <ele>178.4</ele>
        <time>2015-10-31T15:55:11Z</time>
      </trkpt>
      <trkpt lat="44.46483" lon="1.58888">
        <ele>177.7</ele>
        <time>2015-10-31T15:55:12Z</time>
      </trkpt>
      <trkpt lat="44.4648" lon="1.58892">
        <ele>177.9</ele>
        <time>2015-10-31T15:55:13Z</time>
      </trkpt>
      <trkpt lat="44.46477" lon="1.58899">
        <ele>177.7</ele>
        <time>2015-10-31T15:55:15Z</time>
      </trkpt>
      <trkpt lat="44.46474" lon="1.58902">
        <ele>178.6</ele>
        <time>2015-10-31T15:55:16Z</time>
      </trkpt>
      <trkpt lat="44.46471" lon="1.58904">
        <ele>179.3</ele>
        <time>2015-10-31T15:55:17Z</time>
      </trkpt>
      <trkpt lat="44.46469" lon="1.58907">
        <ele>179.1</ele>
        <time>2015-10-31T15:55:18Z</time>
      </trkpt>
      <trkpt lat="44.46467" lon="1.58911">
        <ele>179.1</ele>
        <time>2015-10-31T15:55:19Z</time>
      </trkpt>
      <trkpt lat="44.46465" lon="1.58914">
        <ele>179.2</ele>
        <time>2015-10-31T15:55:20Z</time>
      </trkpt>
      <trkpt lat="44.46464" lon="1.58917">
        <ele>179.2</ele>
        <time>2015-10-31T15:55:21Z</time>
      </trkpt>
      <trkpt lat="44.46462" lon="1.5892">
        <ele>179.2</ele>
        <time>2015-10-31T15:55:22Z</time>
      </trkpt>
      <trkpt lat="44.4646" lon="1.58923">
        <ele>179.3</ele>
        <time>2015-10-31T15:55:23Z</time>
      </trkpt>
      <trkpt lat="44.46458" lon="1.58926">
        <ele>179.4</ele>
        <time>2015-10-31T15:55:24Z</time>
      </trkpt>
      <trkpt lat="44.46456" lon="1.58929">
        <ele>179.3</ele>
        <time>2015-10-31T15:55:25Z</time>
      </trkpt>
      <trkpt lat="44.46454" lon="1.58932">
        <ele>179.3</ele>
        <time>2015-10-31T15:55:26Z</time>
      </trkpt>
      <trkpt lat="44.46452" lon="1.58935">
        <ele>179.4</ele>
        <time>2015-10-31T15:55:27Z</time>
      </trkpt>
      <trkpt lat="44.4645" lon="1.58938">
        <ele>179.4</ele>
        <time>2015-10-31T15:55:28Z</time>
      </trkpt>
      <trkpt lat="44.46449" lon="1.58941">
        <ele>179.3</ele>
        <time>2015-10-31T15:55:29Z</time>
      </trkpt>
      <trkpt lat="44.46447" lon="1.58944">
        <ele>179.2</ele>
        <time>2015-10-31T15:55:30Z</time>
      </trkpt>
      <trkpt lat="44.46445" lon="1.58947">
        <ele>178.9</ele>
        <time>2015-10-31T15:55:31Z</time>
      </trkpt>
      <trkpt lat="44.46443" lon="1.5895">
        <ele>178.8</ele>
        <time>2015-10-31T15:55:32Z</time>
      </trkpt>
      <trkpt lat="44.46441" lon="1.58953">
        <ele>178.8</ele>
        <time>2015-10-31T15:55:33Z</time>
      </trkpt>
      <trkpt lat="44.46439" lon="1.58955">
        <ele>179.1</ele>
        <time>2015-10-31T15:55:34Z</time>
      </trkpt>
      <trkpt lat="44.46436" lon="1.58957">
        <ele>179.4</ele>
        <time>2015-10-31T15:55:35Z</time>
      </trkpt>
      <trkpt lat="44.46434" lon="1.5896">
        <ele>179.6</ele>
        <time>2015-10-31T15:55:36Z</time>
      </trkpt>
      <trkpt lat="44.46431" lon="1.58965">
        <ele>179.4</ele>
        <time>2015-10-31T15:55:38Z</time>
      </trkpt>
      <trkpt lat="44.46429" lon="1.58972">
        <ele>178.6</ele>
        <time>2015-10-31T15:55:40Z</time>
      </trkpt>
      <trkpt lat="44.46428" lon="1.58976">
        <ele>178.2</ele>
        <time>2015-10-31T15:55:41Z</time>
      </trkpt>
      <trkpt lat="44.46427" lon="1.5898">
        <ele>177.8</ele>
        <time>2015-10-31T15:55:42Z</time>
      </trkpt>
      <trkpt lat="44.46426" lon="1.58983">
        <ele>177.4</ele>
        <time>2015-10-31T15:55:43Z</time>
      </trkpt>
      <trkpt lat="44.46425" lon="1.58987">
        <ele>176.7</ele>
        <time>2015-10-31T15:55:44Z</time>
      </trkpt>
      <trkpt lat="44.46425" lon="1.58991">
        <ele>176</ele>
        <time>2015-10-31T15:55:45Z</time>
      </trkpt>
      <trkpt lat="44.46424" lon="1.58995">
        <ele>175.3</ele>
        <time>2015-10-31T15:55:46Z</time>
      </trkpt>
      <trkpt lat="44.46424" lon="1.58999">
        <ele>174.8</ele>
        <time>2015-10-31T15:55:47Z</time>
      </trkpt>
      <trkpt lat="44.46422" lon="1.59006">
        <ele>173.9</ele>
        <time>2015-10-31T15:55:49Z</time>
      </trkpt>
      <trkpt lat="44.46421" lon="1.5901">
        <ele>173.1</ele>
        <time>2015-10-31T15:55:50Z</time>
      </trkpt>
      <trkpt lat="44.46421" lon="1.59014">
        <ele>172.2</ele>
        <time>2015-10-31T15:55:51Z</time>
      </trkpt>
      <trkpt lat="44.46421" lon="1.59018">
        <ele>171.3</ele>
        <time>2015-10-31T15:55:52Z</time>
      </trkpt>
      <trkpt lat="44.46421" lon="1.59023">
        <ele>170.4</ele>
        <time>2015-10-31T15:55:53Z</time>
      </trkpt>
      <trkpt lat="44.46421" lon="1.59027">
        <ele>169.6</ele>
        <time>2015-10-31T15:55:54Z</time>
      </trkpt>
      <trkpt lat="44.46421" lon="1.59031">
        <ele>168.7</ele>
        <time>2015-10-31T15:55:55Z</time>
      </trkpt>
      <trkpt lat="44.4642" lon="1.59035">
        <ele>168</ele>
        <time>2015-10-31T15:55:56Z</time>
      </trkpt>
      <trkpt lat="44.4642" lon="1.59039">
        <ele>167.3</ele>
        <time>2015-10-31T15:55:57Z</time>
      </trkpt>
      <trkpt lat="44.46418" lon="1.59043">
        <ele>166.8</ele>
        <time>2015-10-31T15:55:58Z</time>
      </trkpt>
      <trkpt lat="44.46417" lon="1.59047">
        <ele>166.3</ele>
        <time>2015-10-31T15:55:59Z</time>
      </trkpt>
      <trkpt lat="44.46415" lon="1.59051">
        <ele>166</ele>
        <time>2015-10-31T15:56:00Z</time>
      </trkpt>
      <trkpt lat="44.46413" lon="1.59054">
        <ele>165.8</ele>
        <time>2015-10-31T15:56:01Z</time>
      </trkpt>
      <trkpt lat="44.46411" lon="1.59057">
        <ele>165.7</ele>
        <time>2015-10-31T15:56:02Z</time>
      </trkpt>
      <trkpt lat="44.46409" lon="1.5906">
        <ele>165.5</ele>
        <time>2015-10-31T15:56:03Z</time>
      </trkpt>
      <trkpt lat="44.46408" lon="1.59064">
        <ele>165</ele>
        <time>2015-10-31T15:56:04Z</time>
      </trkpt>
      <trkpt lat="44.46406" lon="1.59067">
        <ele>164.8</ele>
        <time>2015-10-31T15:56:05Z</time>
      </trkpt>
      <trkpt lat="44.46404" lon="1.59069">
        <ele>164.8</ele>
        <time>2015-10-31T15:56:06Z</time>
      </trkpt>
      <trkpt lat="44.46399" lon="1.59071">
        <ele>165.3</ele>
        <time>2015-10-31T15:56:08Z</time>
      </trkpt>
      <trkpt lat="44.46396" lon="1.59072">
        <ele>165.9</ele>
        <time>2015-10-31T15:56:09Z</time>
      </trkpt>
      <trkpt lat="44.46393" lon="1.59071">
        <ele>166.6</ele>
        <time>2015-10-31T15:56:10Z</time>
      </trkpt>
      <trkpt lat="44.4639" lon="1.59071">
        <ele>167.2</ele>
        <time>2015-10-31T15:56:11Z</time>
      </trkpt>
      <trkpt lat="44.46388" lon="1.59071">
        <ele>167.8</ele>
        <time>2015-10-31T15:56:12Z</time>
      </trkpt>
      <trkpt lat="44.46383" lon="1.59074">
        <ele>168.2</ele>
        <time>2015-10-31T15:56:14Z</time>
      </trkpt>
      <trkpt lat="44.4638" lon="1.59076">
        <ele>168.3</ele>
        <time>2015-10-31T15:56:15Z</time>
      </trkpt>
      <trkpt lat="44.46377" lon="1.59078">
        <ele>168.5</ele>
        <time>2015-10-31T15:56:16Z</time>
      </trkpt>
      <trkpt lat="44.46374" lon="1.59079">
        <ele>168.6</ele>
        <time>2015-10-31T15:56:17Z</time>
      </trkpt>
      <trkpt lat="44.46372" lon="1.5908">
        <ele>168.4</ele>
        <time>2015-10-31T15:56:18Z</time>
      </trkpt>
      <trkpt lat="44.46369" lon="1.59081">
        <ele>168.2</ele>
        <time>2015-10-31T15:56:19Z</time>
      </trkpt>
      <trkpt lat="44.46364" lon="1.59082">
        <ele>168</ele>
        <time>2015-10-31T15:56:21Z</time>
      </trkpt>
      <trkpt lat="44.46359" lon="1.59082">
        <ele>167.9</ele>
        <time>2015-10-31T15:56:23Z</time>
      </trkpt>
      <trkpt lat="44.46356" lon="1.59083">
        <ele>167.7</ele>
        <time>2015-10-31T15:56:24Z</time>
      </trkpt>
      <trkpt lat="44.46353" lon="1.59085">
        <ele>167.5</ele>
        <time>2015-10-31T15:56:25Z</time>
      </trkpt>
      <trkpt lat="44.4635" lon="1.59085">
        <ele>167.4</ele>
        <time>2015-10-31T15:56:26Z</time>
      </trkpt>
      <trkpt lat="44.46347" lon="1.59085">
        <ele>167.5</ele>
        <time>2015-10-31T15:56:27Z</time>
      </trkpt>
      <trkpt lat="44.46344" lon="1.59084">
        <ele>167.7</ele>
        <time>2015-10-31T15:56:28Z</time>
      </trkpt>
      <trkpt lat="44.46342" lon="1.59083">
        <ele>167.9</ele>
        <time>2015-10-31T15:56:29Z</time>
      </trkpt>
      <trkpt lat="44.46339" lon="1.59082">
        <ele>168.1</ele>
        <time>2015-10-31T15:56:30Z</time>
      </trkpt>
      <trkpt lat="44.46336" lon="1.59082">
        <ele>168.3</ele>
        <time>2015-10-31T15:56:31Z</time>
      </trkpt>
      <trkpt lat="44.46333" lon="1.59081">
        <ele>168.4</ele>
        <time>2015-10-31T15:56:32Z</time>
      </trkpt>
      <trkpt lat="44.4633" lon="1.59081">
        <ele>168.5</ele>
        <time>2015-10-31T15:56:33Z</time>
      </trkpt>
      <trkpt lat="44.46325" lon="1.5908">
        <ele>168.7</ele>
        <time>2015-10-31T15:56:35Z</time>
      </trkpt>
      <trkpt lat="44.4632" lon="1.59077">
        <ele>169.3</ele>
        <time>2015-10-31T15:56:37Z</time>
      </trkpt>
      <trkpt lat="44.46315" lon="1.59074">
        <ele>169.7</ele>
        <time>2015-10-31T15:56:39Z</time>
      </trkpt>
      <trkpt lat="44.4631" lon="1.59073">
        <ele>169.9</ele>
        <time>2015-10-31T15:56:41Z</time>
      </trkpt>
      <trkpt lat="44.46306" lon="1.59074">
        <ele>169.8</ele>
        <time>2015-10-31T15:56:43Z</time>
      </trkpt>
      <trkpt lat="44.46303" lon="1.59076">
        <ele>169.5</ele>
        <time>2015-10-31T15:57:45Z</time>
      </trkpt>
      <trkpt lat="44.46303" lon="1.5908">
        <ele>168.9</ele>
        <time>2015-10-31T15:57:53Z</time>
      </trkpt>
      <trkpt lat="44.46303" lon="1.59084">
        <ele>168.2</ele>
        <time>2015-10-31T15:57:56Z</time>
      </trkpt>
      <trkpt lat="44.46301" lon="1.59087">
        <ele>167.9</ele>
        <time>2015-10-31T15:57:57Z</time>
      </trkpt>
      <trkpt lat="44.46297" lon="1.5909">
        <ele>167.5</ele>
        <time>2015-10-31T15:57:58Z</time>
      </trkpt>
      <trkpt lat="44.46293" lon="1.59092">
        <ele>167.3</ele>
        <time>2015-10-31T15:57:59Z</time>
      </trkpt>
      <trkpt lat="44.46289" lon="1.59095">
        <ele>167.2</ele>
        <time>2015-10-31T15:58:00Z</time>
      </trkpt>
      <trkpt lat="44.46284" lon="1.59096">
        <ele>167.4</ele>
        <time>2015-10-31T15:58:01Z</time>
      </trkpt>
      <trkpt lat="44.46279" lon="1.59096">
        <ele>167.7</ele>
        <time>2015-10-31T15:58:02Z</time>
      </trkpt>
      <trkpt lat="44.46275" lon="1.59095">
        <ele>168</ele>
        <time>2015-10-31T15:58:03Z</time>
      </trkpt>
      <trkpt lat="44.4627" lon="1.59096">
        <ele>168.2</ele>
        <time>2015-10-31T15:58:04Z</time>
      </trkpt>
      <trkpt lat="44.46266" lon="1.59096">
        <ele>168.4</ele>
        <time>2015-10-31T15:58:05Z</time>
      </trkpt>
      <trkpt lat="44.46262" lon="1.59095">
        <ele>168.8</ele>
        <time>2015-10-31T15:58:08Z</time>
      </trkpt>
      <trkpt lat="44.46258" lon="1.59094">
        <ele>169.2</ele>
        <time>2015-10-31T15:58:10Z</time>
      </trkpt>
      <trkpt lat="44.46253" lon="1.59094">
        <ele>169.5</ele>
        <time>2015-10-31T15:58:12Z</time>
      </trkpt>
      <trkpt lat="44.46248" lon="1.59093">
        <ele>169.9</ele>
        <time>2015-10-31T15:58:14Z</time>
      </trkpt>
      <trkpt lat="44.46243" lon="1.59092">
        <ele>170.3</ele>
        <time>2015-10-31T15:58:16Z</time>
      </trkpt>
      <trkpt lat="44.46238" lon="1.59091">
        <ele>170.7</ele>
        <time>2015-10-31T15:58:18Z</time>
      </trkpt>
      <trkpt lat="44.46233" lon="1.59089">
        <ele>171.1</ele>
        <time>2015-10-31T15:58:20Z</time>
      </trkpt>
      <trkpt lat="44.46229" lon="1.59089">
        <ele>171.4</ele>
        <time>2015-10-31T15:58:22Z</time>
      </trkpt>
      <trkpt lat="44.46224" lon="1.59088">
        <ele>171.8</ele>
        <time>2015-10-31T15:58:24Z</time>
      </trkpt>
      <trkpt lat="44.46219" lon="1.59087">
        <ele>172.2</ele>
        <time>2015-10-31T15:58:26Z</time>
      </trkpt>
      <trkpt lat="44.46214" lon="1.59086">
        <ele>172.5</ele>
        <time>2015-10-31T15:58:28Z</time>
      </trkpt>
      <trkpt lat="44.46209" lon="1.59087">
        <ele>172.7</ele>
        <time>2015-10-31T15:58:30Z</time>
      </trkpt>
      <trkpt lat="44.46205" lon="1.59086">
        <ele>172.8</ele>
        <time>2015-10-31T15:58:32Z</time>
      </trkpt>
      <trkpt lat="44.462" lon="1.59087">
        <ele>172.8</ele>
        <time>2015-10-31T15:58:34Z</time>
      </trkpt>
      <trkpt lat="44.46197" lon="1.59087">
        <ele>172.8</ele>
        <time>2015-10-31T15:58:35Z</time>
      </trkpt>
      <trkpt lat="44.46194" lon="1.59087">
        <ele>172.8</ele>
        <time>2015-10-31T15:58:36Z</time>
      </trkpt>
      <trkpt lat="44.46192" lon="1.59087">
        <ele>172.8</ele>
        <time>2015-10-31T15:58:37Z</time>
      </trkpt>
      <trkpt lat="44.46187" lon="1.59088">
        <ele>172.8</ele>
        <time>2015-10-31T15:58:39Z</time>
      </trkpt>
      <trkpt lat="44.46182" lon="1.59088">
        <ele>172.8</ele>
        <time>2015-10-31T15:58:41Z</time>
      </trkpt>
      <trkpt lat="44.46177" lon="1.59088">
        <ele>172.8</ele>
        <time>2015-10-31T15:58:43Z</time>
      </trkpt>
      <trkpt lat="44.46172" lon="1.59088">
        <ele>172.8</ele>
        <time>2015-10-31T15:58:45Z</time>
      </trkpt>
      <trkpt lat="44.46166" lon="1.59088">
        <ele>172.8</ele>
        <time>2015-10-31T15:58:47Z</time>
      </trkpt>
      <trkpt lat="44.46162" lon="1.59087">
        <ele>172.9</ele>
        <time>2015-10-31T15:58:49Z</time>
      </trkpt>
      <trkpt lat="44.46156" lon="1.59087">
        <ele>172.9</ele>
        <time>2015-10-31T15:58:51Z</time>
      </trkpt>
      <trkpt lat="44.46154" lon="1.59087">
        <ele>172.9</ele>
        <time>2015-10-31T15:58:52Z</time>
      </trkpt>
      <trkpt lat="44.46151" lon="1.59088">
        <ele>172.9</ele>
        <time>2015-10-31T15:58:53Z</time>
      </trkpt>
      <trkpt lat="44.46145" lon="1.59088">
        <ele>172.9</ele>
        <time>2015-10-31T15:58:55Z</time>
      </trkpt>
      <trkpt lat="44.46143" lon="1.59088">
        <ele>172.9</ele>
        <time>2015-10-31T15:58:56Z</time>
      </trkpt>
      <trkpt lat="44.46137" lon="1.59089">
        <ele>172.9</ele>
        <time>2015-10-31T15:58:58Z</time>
      </trkpt>
      <trkpt lat="44.46134" lon="1.59089">
        <ele>173</ele>
        <time>2015-10-31T15:58:59Z</time>
      </trkpt>
      <trkpt lat="44.46132" lon="1.59089">
        <ele>173</ele>
        <time>2015-10-31T15:59:00Z</time>
      </trkpt>
      <trkpt lat="44.46126" lon="1.5909">
        <ele>173</ele>
        <time>2015-10-31T15:59:02Z</time>
      </trkpt>
      <trkpt lat="44.46121" lon="1.59091">
        <ele>173.1</ele>
        <time>2015-10-31T15:59:04Z</time>
      </trkpt>
      <trkpt lat="44.46116" lon="1.59092">
        <ele>173.3</ele>
        <time>2015-10-31T15:59:06Z</time>
      </trkpt>
      <trkpt lat="44.46111" lon="1.59093">
        <ele>173.5</ele>
        <time>2015-10-31T15:59:08Z</time>
      </trkpt>
      <trkpt lat="44.46106" lon="1.59093">
        <ele>173.7</ele>
        <time>2015-10-31T15:59:10Z</time>
      </trkpt>
      <trkpt lat="44.46101" lon="1.59093">
        <ele>173.8</ele>
        <time>2015-10-31T15:59:12Z</time>
      </trkpt>
      <trkpt lat="44.46096" lon="1.59092">
        <ele>174</ele>
        <time>2015-10-31T15:59:14Z</time>
      </trkpt>
      <trkpt lat="44.46091" lon="1.59092">
        <ele>174.2</ele>
        <time>2015-10-31T15:59:16Z</time>
      </trkpt>
      <trkpt lat="44.46087" lon="1.59091">
        <ele>174.2</ele>
        <time>2015-10-31T15:59:18Z</time>
      </trkpt>
      <trkpt lat="44.46082" lon="1.59091">
        <ele>174.4</ele>
        <time>2015-10-31T15:59:20Z</time>
      </trkpt>
      <trkpt lat="44.46079" lon="1.59091">
        <ele>174.5</ele>
        <time>2015-10-31T15:59:21Z</time>
      </trkpt>
      <trkpt lat="44.46076" lon="1.5909">
        <ele>174.5</ele>
        <time>2015-10-31T15:59:22Z</time>
      </trkpt>
      <trkpt lat="44.46071" lon="1.59088">
        <ele>174.5</ele>
        <time>2015-10-31T15:59:24Z</time>
      </trkpt>
      <trkpt lat="44.46068" lon="1.59087">
        <ele>174.4</ele>
        <time>2015-10-31T15:59:25Z</time>
      </trkpt>
      <trkpt lat="44.46065" lon="1.59087">
        <ele>174.5</ele>
        <time>2015-10-31T15:59:26Z</time>
      </trkpt>
      <trkpt lat="44.46062" lon="1.59086">
        <ele>174.5</ele>
        <time>2015-10-31T15:59:27Z</time>
      </trkpt>
      <trkpt lat="44.4606" lon="1.59086">
        <ele>174.5</ele>
        <time>2015-10-31T15:59:28Z</time>
      </trkpt>
      <trkpt lat="44.46054" lon="1.59084">
        <ele>174.4</ele>
        <time>2015-10-31T15:59:30Z</time>
      </trkpt>
      <trkpt lat="44.4605" lon="1.59082">
        <ele>174.1</ele>
        <time>2015-10-31T15:59:32Z</time>
      </trkpt>
      <trkpt lat="44.46046" lon="1.5908">
        <ele>173.9</ele>
        <time>2015-10-31T15:59:34Z</time>
      </trkpt>
      <trkpt lat="44.46042" lon="1.59079">
        <ele>173.8</ele>
        <time>2015-10-31T15:59:36Z</time>
      </trkpt>
      <trkpt lat="44.46037" lon="1.59078">
        <ele>173.6</ele>
        <time>2015-10-31T15:59:38Z</time>
      </trkpt>
      <trkpt lat="44.46033" lon="1.59076">
        <ele>173.4</ele>
        <time>2015-10-31T15:59:40Z</time>
      </trkpt>
      <trkpt lat="44.46029" lon="1.59075">
        <ele>173.2</ele>
        <time>2015-10-31T15:59:42Z</time>
      </trkpt>
      <trkpt lat="44.46024" lon="1.59074">
        <ele>173.1</ele>
        <time>2015-10-31T15:59:44Z</time>
      </trkpt>
      <trkpt lat="44.4602" lon="1.59074">
        <ele>173.1</ele>
        <time>2015-10-31T15:59:46Z</time>
      </trkpt>
      <trkpt lat="44.46015" lon="1.59074">
        <ele>173</ele>
        <time>2015-10-31T15:59:48Z</time>
      </trkpt>
      <trkpt lat="44.46011" lon="1.59073">
        <ele>173</ele>
        <time>2015-10-31T15:59:50Z</time>
      </trkpt>
      <trkpt lat="44.46006" lon="1.59074">
        <ele>173.1</ele>
        <time>2015-10-31T15:59:52Z</time>
      </trkpt>
      <trkpt lat="44.46001" lon="1.59074">
        <ele>173.2</ele>
        <time>2015-10-31T15:59:54Z</time>
      </trkpt>
      <trkpt lat="44.45996" lon="1.59074">
        <ele>173.2</ele>
        <time>2015-10-31T15:59:56Z</time>
      </trkpt>
      <trkpt lat="44.45991" lon="1.59075">
        <ele>173.3</ele>
        <time>2015-10-31T15:59:58Z</time>
      </trkpt>
      <trkpt lat="44.45986" lon="1.59076">
        <ele>173.4</ele>
        <time>2015-10-31T16:00:00Z</time>
      </trkpt>
      <trkpt lat="44.45983" lon="1.59076">
        <ele>173.5</ele>
        <time>2015-10-31T16:00:01Z</time>
      </trkpt>
      <trkpt lat="44.4598" lon="1.59076">
        <ele>173.5</ele>
        <time>2015-10-31T16:00:02Z</time>
      </trkpt>
      <trkpt lat="44.45978" lon="1.59077">
        <ele>173.6</ele>
        <time>2015-10-31T16:00:03Z</time>
      </trkpt>
      <trkpt lat="44.45972" lon="1.59077">
        <ele>173.6</ele>
        <time>2015-10-31T16:00:05Z</time>
      </trkpt>
      <trkpt lat="44.45967" lon="1.59077">
        <ele>173.6</ele>
        <time>2015-10-31T16:00:07Z</time>
      </trkpt>
      <trkpt lat="44.45962" lon="1.59077">
        <ele>173.7</ele>
        <time>2015-10-31T16:00:09Z</time>
      </trkpt>
      <trkpt lat="44.45957" lon="1.59078">
        <ele>173.9</ele>
        <time>2015-10-31T16:00:11Z</time>
      </trkpt>
      <trkpt lat="44.45954" lon="1.59078">
        <ele>174.2</ele>
        <time>2015-10-31T16:00:12Z</time>
      </trkpt>
      <trkpt lat="44.45948" lon="1.59079">
        <ele>174.7</ele>
        <time>2015-10-31T16:00:14Z</time>
      </trkpt>
      <trkpt lat="44.45946" lon="1.59079">
        <ele>174.9</ele>
        <time>2015-10-31T16:00:15Z</time>
      </trkpt>
      <trkpt lat="44.45943" lon="1.5908">
        <ele>175.2</ele>
        <time>2015-10-31T16:00:16Z</time>
      </trkpt>
      <trkpt lat="44.4594" lon="1.59081">
        <ele>175.5</ele>
        <time>2015-10-31T16:00:17Z</time>
      </trkpt>
      <trkpt lat="44.45937" lon="1.59081">
        <ele>175.8</ele>
        <time>2015-10-31T16:00:18Z</time>
      </trkpt>
      <trkpt lat="44.45934" lon="1.59082">
        <ele>176</ele>
        <time>2015-10-31T16:00:19Z</time>
      </trkpt>
      <trkpt lat="44.45931" lon="1.59084">
        <ele>176.3</ele>
        <time>2015-10-31T16:00:20Z</time>
      </trkpt>
      <trkpt lat="44.45929" lon="1.59086">
        <ele>176.6</ele>
        <time>2015-10-31T16:00:21Z</time>
      </trkpt>
      <trkpt lat="44.45927" lon="1.59087">
        <ele>176.8</ele>
        <time>2015-10-31T16:00:22Z</time>
      </trkpt>
      <trkpt lat="44.45924" lon="1.59089">
        <ele>177</ele>
        <time>2015-10-31T16:00:23Z</time>
      </trkpt>
      <trkpt lat="44.45921" lon="1.5909">
        <ele>177.2</ele>
        <time>2015-10-31T16:00:24Z</time>
      </trkpt>
      <trkpt lat="44.45917" lon="1.59093">
        <ele>177.6</ele>
        <time>2015-10-31T16:00:26Z</time>
      </trkpt>
      <trkpt lat="44.45912" lon="1.59097">
        <ele>177.8</ele>
        <time>2015-10-31T16:00:28Z</time>
      </trkpt>
      <trkpt lat="44.45907" lon="1.59101">
        <ele>178</ele>
        <time>2015-10-31T16:00:30Z</time>
      </trkpt>
      <trkpt lat="44.45902" lon="1.59104">
        <ele>178.1</ele>
        <time>2015-10-31T16:00:32Z</time>
      </trkpt>
      <trkpt lat="44.45898" lon="1.59107">
        <ele>178.1</ele>
        <time>2015-10-31T16:00:34Z</time>
      </trkpt>
      <trkpt lat="44.45895" lon="1.59109">
        <ele>178.1</ele>
        <time>2015-10-31T16:00:36Z</time>
      </trkpt>
      <trkpt lat="44.45888" lon="1.59107">
        <ele>178.2</ele>
        <time>2015-10-31T16:00:55Z</time>
      </trkpt>
      <trkpt lat="44.45884" lon="1.5911">
        <ele>178.1</ele>
        <time>2015-10-31T16:00:57Z</time>
      </trkpt>
      <trkpt lat="44.4588" lon="1.59113">
        <ele>177.9</ele>
        <time>2015-10-31T16:00:59Z</time>
      </trkpt>
      <trkpt lat="44.45875" lon="1.59117">
        <ele>177.6</ele>
        <time>2015-10-31T16:01:01Z</time>
      </trkpt>
      <trkpt lat="44.45871" lon="1.5912">
        <ele>177.8</ele>
        <time>2015-10-31T16:01:03Z</time>
      </trkpt>
      <trkpt lat="44.45867" lon="1.59123">
        <ele>178</ele>
        <time>2015-10-31T16:01:05Z</time>
      </trkpt>
      <trkpt lat="44.45863" lon="1.59126">
        <ele>178.4</ele>
        <time>2015-10-31T16:01:07Z</time>
      </trkpt>
      <trkpt lat="44.45858" lon="1.5913">
        <ele>179.4</ele>
        <time>2015-10-31T16:01:09Z</time>
      </trkpt>
      <trkpt lat="44.45856" lon="1.59132">
        <ele>179.9</ele>
        <time>2015-10-31T16:01:10Z</time>
      </trkpt>
      <trkpt lat="44.45853" lon="1.59134">
        <ele>180.3</ele>
        <time>2015-10-31T16:01:11Z</time>
      </trkpt>
      <trkpt lat="44.4585" lon="1.59136">
        <ele>180.8</ele>
        <time>2015-10-31T16:01:12Z</time>
      </trkpt>
      <trkpt lat="44.45848" lon="1.59138">
        <ele>181.2</ele>
        <time>2015-10-31T16:01:13Z</time>
      </trkpt>
      <trkpt lat="44.45845" lon="1.5914">
        <ele>181.6</ele>
        <time>2015-10-31T16:01:14Z</time>
      </trkpt>
      <trkpt lat="44.45843" lon="1.59142">
        <ele>181.9</ele>
        <time>2015-10-31T16:01:15Z</time>
      </trkpt>
      <trkpt lat="44.4584" lon="1.59143">
        <ele>182.2</ele>
        <time>2015-10-31T16:01:16Z</time>
      </trkpt>
      <trkpt lat="44.45838" lon="1.59145">
        <ele>182.5</ele>
        <time>2015-10-31T16:01:17Z</time>
      </trkpt>
      <trkpt lat="44.45835" lon="1.59147">
        <ele>182.8</ele>
        <time>2015-10-31T16:01:18Z</time>
      </trkpt>
      <trkpt lat="44.45833" lon="1.59149">
        <ele>183</ele>
        <time>2015-10-31T16:01:19Z</time>
      </trkpt>
      <trkpt lat="44.4583" lon="1.59151">
        <ele>183.2</ele>
        <time>2015-10-31T16:01:20Z</time>
      </trkpt>
      <trkpt lat="44.45828" lon="1.59153">
        <ele>183.4</ele>
        <time>2015-10-31T16:01:21Z</time>
      </trkpt>
      <trkpt lat="44.45825" lon="1.59154">
        <ele>183.6</ele>
        <time>2015-10-31T16:01:22Z</time>
      </trkpt>
      <trkpt lat="44.45823" lon="1.59156">
        <ele>183.7</ele>
        <time>2015-10-31T16:01:23Z</time>
      </trkpt>
      <trkpt lat="44.4582" lon="1.59157">
        <ele>183.8</ele>
        <time>2015-10-31T16:01:24Z</time>
      </trkpt>
      <trkpt lat="44.45818" lon="1.59159">
        <ele>183.8</ele>
        <time>2015-10-31T16:01:25Z</time>
      </trkpt>
      <trkpt lat="44.45813" lon="1.59163">
        <ele>183.9</ele>
        <time>2015-10-31T16:01:27Z</time>
      </trkpt>
      <trkpt lat="44.45809" lon="1.59167">
        <ele>183.9</ele>
        <time>2015-10-31T16:01:29Z</time>
      </trkpt>
      <trkpt lat="44.45805" lon="1.59171">
        <ele>183.8</ele>
        <time>2015-10-31T16:01:31Z</time>
      </trkpt>
      <trkpt lat="44.458" lon="1.59174">
        <ele>183.6</ele>
        <time>2015-10-31T16:01:33Z</time>
      </trkpt>
      <trkpt lat="44.45796" lon="1.59177">
        <ele>183.3</ele>
        <time>2015-10-31T16:01:35Z</time>
      </trkpt>
      <trkpt lat="44.45791" lon="1.59181">
        <ele>183</ele>
        <time>2015-10-31T16:01:37Z</time>
      </trkpt>
      <trkpt lat="44.45787" lon="1.59185">
        <ele>182.9</ele>
        <time>2015-10-31T16:01:39Z</time>
      </trkpt>
      <trkpt lat="44.45783" lon="1.59188">
        <ele>182.9</ele>
        <time>2015-10-31T16:01:41Z</time>
      </trkpt>
      <trkpt lat="44.45779" lon="1.59192">
        <ele>182.8</ele>
        <time>2015-10-31T16:01:43Z</time>
      </trkpt>
      <trkpt lat="44.45774" lon="1.59195">
        <ele>182.7</ele>
        <time>2015-10-31T16:01:45Z</time>
      </trkpt>
      <trkpt lat="44.4577" lon="1.592">
        <ele>182.6</ele>
        <time>2015-10-31T16:01:47Z</time>
      </trkpt>
      <trkpt lat="44.45767" lon="1.59204">
        <ele>182.5</ele>
        <time>2015-10-31T16:01:49Z</time>
      </trkpt>
      <trkpt lat="44.45764" lon="1.59209">
        <ele>182.4</ele>
        <time>2015-10-31T16:01:51Z</time>
      </trkpt>
      <trkpt lat="44.45761" lon="1.59209">
        <ele>182.6</ele>
        <time>2015-10-31T16:02:14Z</time>
      </trkpt>
      <trkpt lat="44.45755" lon="1.59215">
        <ele>183.9</ele>
        <time>2015-10-31T16:03:41Z</time>
      </trkpt>
      <trkpt lat="44.45751" lon="1.59219">
        <ele>184.9</ele>
        <time>2015-10-31T16:03:43Z</time>
      </trkpt>
      <trkpt lat="44.45748" lon="1.59222">
        <ele>185.6</ele>
        <time>2015-10-31T16:03:44Z</time>
      </trkpt>
      <trkpt lat="44.45746" lon="1.59224">
        <ele>186.1</ele>
        <time>2015-10-31T16:03:45Z</time>
      </trkpt>
      <trkpt lat="44.45744" lon="1.59226">
        <ele>186.7</ele>
        <time>2015-10-31T16:03:46Z</time>
      </trkpt>
      <trkpt lat="44.45742" lon="1.59229">
        <ele>187.3</ele>
        <time>2015-10-31T16:03:47Z</time>
      </trkpt>
      <trkpt lat="44.4574" lon="1.59232">
        <ele>188</ele>
        <time>2015-10-31T16:03:48Z</time>
      </trkpt>
      <trkpt lat="44.45736" lon="1.59238">
        <ele>189.4</ele>
        <time>2015-10-31T16:03:50Z</time>
      </trkpt>
      <trkpt lat="44.45734" lon="1.59241">
        <ele>190</ele>
        <time>2015-10-31T16:03:51Z</time>
      </trkpt>
      <trkpt lat="44.45732" lon="1.59244">
        <ele>190.5</ele>
        <time>2015-10-31T16:03:52Z</time>
      </trkpt>
      <trkpt lat="44.45728" lon="1.59249">
        <ele>191.5</ele>
        <time>2015-10-31T16:03:54Z</time>
      </trkpt>
      <trkpt lat="44.45726" lon="1.59251">
        <ele>192.1</ele>
        <time>2015-10-31T16:03:55Z</time>
      </trkpt>
      <trkpt lat="44.45722" lon="1.59256">
        <ele>193</ele>
        <time>2015-10-31T16:03:57Z</time>
      </trkpt>
      <trkpt lat="44.4572" lon="1.59258">
        <ele>193.4</ele>
        <time>2015-10-31T16:03:58Z</time>
      </trkpt>
      <trkpt lat="44.45717" lon="1.59261">
        <ele>193.9</ele>
        <time>2015-10-31T16:03:59Z</time>
      </trkpt>
      <trkpt lat="44.45713" lon="1.59265">
        <ele>194.7</ele>
        <time>2015-10-31T16:04:01Z</time>
      </trkpt>
      <trkpt lat="44.45709" lon="1.5927">
        <ele>195.7</ele>
        <time>2015-10-31T16:04:03Z</time>
      </trkpt>
      <trkpt lat="44.45707" lon="1.59273">
        <ele>196.5</ele>
        <time>2015-10-31T16:04:04Z</time>
      </trkpt>
      <trkpt lat="44.45702" lon="1.59277">
        <ele>198.1</ele>
        <time>2015-10-31T16:04:06Z</time>
      </trkpt>
      <trkpt lat="44.45698" lon="1.59281">
        <ele>199.8</ele>
        <time>2015-10-31T16:04:08Z</time>
      </trkpt>
      <trkpt lat="44.45695" lon="1.59282">
        <ele>200.7</ele>
        <time>2015-10-31T16:04:09Z</time>
      </trkpt>
      <trkpt lat="44.45692" lon="1.59284">
        <ele>201.5</ele>
        <time>2015-10-31T16:04:10Z</time>
      </trkpt>
      <trkpt lat="44.4569" lon="1.59285">
        <ele>202.3</ele>
        <time>2015-10-31T16:04:11Z</time>
      </trkpt>
      <trkpt lat="44.45687" lon="1.59286">
        <ele>203.1</ele>
        <time>2015-10-31T16:04:12Z</time>
      </trkpt>
      <trkpt lat="44.45684" lon="1.59285">
        <ele>203.6</ele>
        <time>2015-10-31T16:04:13Z</time>
      </trkpt>
      <trkpt lat="44.45681" lon="1.59285">
        <ele>204.1</ele>
        <time>2015-10-31T16:04:14Z</time>
      </trkpt>
      <trkpt lat="44.45678" lon="1.59283">
        <ele>204.3</ele>
        <time>2015-10-31T16:04:15Z</time>
      </trkpt>
      <trkpt lat="44.45675" lon="1.59281">
        <ele>204.4</ele>
        <time>2015-10-31T16:04:16Z</time>
      </trkpt>
      <trkpt lat="44.45673" lon="1.59279">
        <ele>204.5</ele>
        <time>2015-10-31T16:04:17Z</time>
      </trkpt>
      <trkpt lat="44.4567" lon="1.59277">
        <ele>204.4</ele>
        <time>2015-10-31T16:04:18Z</time>
      </trkpt>
      <trkpt lat="44.45668" lon="1.59274">
        <ele>204.1</ele>
        <time>2015-10-31T16:04:19Z</time>
      </trkpt>
      <trkpt lat="44.45666" lon="1.59271">
        <ele>204</ele>
        <time>2015-10-31T16:04:20Z</time>
      </trkpt>
      <trkpt lat="44.45662" lon="1.59266">
        <ele>203.7</ele>
        <time>2015-10-31T16:04:22Z</time>
      </trkpt>
      <trkpt lat="44.45658" lon="1.59261">
        <ele>203.2</ele>
        <time>2015-10-31T16:04:24Z</time>
      </trkpt>
      <trkpt lat="44.45656" lon="1.59257">
        <ele>202.4</ele>
        <time>2015-10-31T16:04:26Z</time>
      </trkpt>
      <trkpt lat="44.45653" lon="1.59252">
        <ele>202.1</ele>
        <time>2015-10-31T16:04:28Z</time>
      </trkpt>
      <trkpt lat="44.45651" lon="1.59249">
        <ele>201.6</ele>
        <time>2015-10-31T16:04:29Z</time>
      </trkpt>
      <trkpt lat="44.45647" lon="1.59242">
        <ele>200.5</ele>
        <time>2015-10-31T16:04:31Z</time>
      </trkpt>
      <trkpt lat="44.45645" lon="1.59238">
        <ele>199.9</ele>
        <time>2015-10-31T16:04:32Z</time>
      </trkpt>
      <trkpt lat="44.45644" lon="1.59235">
        <ele>199.4</ele>
        <time>2015-10-31T16:04:33Z</time>
      </trkpt>
      <trkpt lat="44.45641" lon="1.59232">
        <ele>199.3</ele>
        <time>2015-10-31T16:04:34Z</time>
      </trkpt>
      <trkpt lat="44.45635" lon="1.59228">
        <ele>199.4</ele>
        <time>2015-10-31T16:04:36Z</time>
      </trkpt>
      <trkpt lat="44.45632" lon="1.59226">
        <ele>199.3</ele>
        <time>2015-10-31T16:04:37Z</time>
      </trkpt>
      <trkpt lat="44.4563" lon="1.59224">
        <ele>199.2</ele>
        <time>2015-10-31T16:04:38Z</time>
      </trkpt>
      <trkpt lat="44.45625" lon="1.5922">
        <ele>198.8</ele>
        <time>2015-10-31T16:04:40Z</time>
      </trkpt>
      <trkpt lat="44.4562" lon="1.59217">
        <ele>198.2</ele>
        <time>2015-10-31T16:04:42Z</time>
      </trkpt>
      <trkpt lat="44.45616" lon="1.59214">
        <ele>197.7</ele>
        <time>2015-10-31T16:04:44Z</time>
      </trkpt>
      <trkpt lat="44.45612" lon="1.59212">
        <ele>197.1</ele>
        <time>2015-10-31T16:04:46Z</time>
      </trkpt>
      <trkpt lat="44.45607" lon="1.5921">
        <ele>196.8</ele>
        <time>2015-10-31T16:04:48Z</time>
      </trkpt>
      <trkpt lat="44.45601" lon="1.59209">
        <ele>196.7</ele>
        <time>2015-10-31T16:04:50Z</time>
      </trkpt>
      <trkpt lat="44.45597" lon="1.59207">
        <ele>196.6</ele>
        <time>2015-10-31T16:04:52Z</time>
      </trkpt>
      <trkpt lat="44.45592" lon="1.59206">
        <ele>196.7</ele>
        <time>2015-10-31T16:04:54Z</time>
      </trkpt>
      <trkpt lat="44.45587" lon="1.59205">
        <ele>196.7</ele>
        <time>2015-10-31T16:04:56Z</time>
      </trkpt>
      <trkpt lat="44.45584" lon="1.59204">
        <ele>196.8</ele>
        <time>2015-10-31T16:04:57Z</time>
      </trkpt>
      <trkpt lat="44.45581" lon="1.59204">
        <ele>196.9</ele>
        <time>2015-10-31T16:04:58Z</time>
      </trkpt>
      <trkpt lat="44.45577" lon="1.59204">
        <ele>196.9</ele>
        <time>2015-10-31T16:04:59Z</time>
      </trkpt>
      <trkpt lat="44.45574" lon="1.59204">
        <ele>197</ele>
        <time>2015-10-31T16:05:00Z</time>
      </trkpt>
      <trkpt lat="44.45571" lon="1.59203">
        <ele>197.1</ele>
        <time>2015-10-31T16:05:01Z</time>
      </trkpt>
      <trkpt lat="44.45568" lon="1.59204">
        <ele>197.2</ele>
        <time>2015-10-31T16:05:02Z</time>
      </trkpt>
      <trkpt lat="44.45565" lon="1.59204">
        <ele>197.3</ele>
        <time>2015-10-31T16:05:03Z</time>
      </trkpt>
      <trkpt lat="44.45562" lon="1.59204">
        <ele>197.3</ele>
        <time>2015-10-31T16:05:04Z</time>
      </trkpt>
      <trkpt lat="44.45559" lon="1.59204">
        <ele>197.4</ele>
        <time>2015-10-31T16:05:05Z</time>
      </trkpt>
      <trkpt lat="44.45556" lon="1.59204">
        <ele>197.5</ele>
        <time>2015-10-31T16:05:06Z</time>
      </trkpt>
      <trkpt lat="44.45553" lon="1.59204">
        <ele>197.6</ele>
        <time>2015-10-31T16:05:07Z</time>
      </trkpt>
      <trkpt lat="44.4555" lon="1.59204">
        <ele>197.7</ele>
        <time>2015-10-31T16:05:08Z</time>
      </trkpt>
      <trkpt lat="44.45547" lon="1.59205">
        <ele>197.8</ele>
        <time>2015-10-31T16:05:09Z</time>
      </trkpt>
      <trkpt lat="44.45544" lon="1.59205">
        <ele>197.9</ele>
        <time>2015-10-31T16:05:10Z</time>
      </trkpt>
      <trkpt lat="44.45541" lon="1.59206">
        <ele>198</ele>
        <time>2015-10-31T16:05:11Z</time>
      </trkpt>
      <trkpt lat="44.45538" lon="1.59207">
        <ele>198.1</ele>
        <time>2015-10-31T16:05:12Z</time>
      </trkpt>
      <trkpt lat="44.45532" lon="1.59208">
        <ele>198.2</ele>
        <time>2015-10-31T16:05:14Z</time>
      </trkpt>
      <trkpt lat="44.4553" lon="1.59209">
        <ele>198.5</ele>
        <time>2015-10-31T16:05:15Z</time>
      </trkpt>
      <trkpt lat="44.45527" lon="1.5921">
        <ele>198.8</ele>
        <time>2015-10-31T16:05:16Z</time>
      </trkpt>
      <trkpt lat="44.45524" lon="1.59211">
        <ele>199</ele>
        <time>2015-10-31T16:05:17Z</time>
      </trkpt>
      <trkpt lat="44.45521" lon="1.59212">
        <ele>199.2</ele>
        <time>2015-10-31T16:05:18Z</time>
      </trkpt>
      <trkpt lat="44.45519" lon="1.59213">
        <ele>199.5</ele>
        <time>2015-10-31T16:05:19Z</time>
      </trkpt>
      <trkpt lat="44.45513" lon="1.59215">
        <ele>199.9</ele>
        <time>2015-10-31T16:05:21Z</time>
      </trkpt>
      <trkpt lat="44.45508" lon="1.59217">
        <ele>200.3</ele>
        <time>2015-10-31T16:05:23Z</time>
      </trkpt>
      <trkpt lat="44.45503" lon="1.59219">
        <ele>200.7</ele>
        <time>2015-10-31T16:05:25Z</time>
      </trkpt>
      <trkpt lat="44.45498" lon="1.59222">
        <ele>201.1</ele>
        <time>2015-10-31T16:05:27Z</time>
      </trkpt>
      <trkpt lat="44.45494" lon="1.59224">
        <ele>201.5</ele>
        <time>2015-10-31T16:05:29Z</time>
      </trkpt>
      <trkpt lat="44.45489" lon="1.59227">
        <ele>201.7</ele>
        <time>2015-10-31T16:05:31Z</time>
      </trkpt>
      <trkpt lat="44.45484" lon="1.5923">
        <ele>202</ele>
        <time>2015-10-31T16:05:33Z</time>
      </trkpt>
      <trkpt lat="44.4548" lon="1.59233">
        <ele>202.4</ele>
        <time>2015-10-31T16:05:35Z</time>
      </trkpt>
      <trkpt lat="44.45475" lon="1.59237">
        <ele>202.6</ele>
        <time>2015-10-31T16:05:37Z</time>
      </trkpt>
      <trkpt lat="44.45471" lon="1.5924">
        <ele>202.8</ele>
        <time>2015-10-31T16:05:39Z</time>
      </trkpt>
      <trkpt lat="44.45467" lon="1.59244">
        <ele>203</ele>
        <time>2015-10-31T16:05:41Z</time>
      </trkpt>
      <trkpt lat="44.45463" lon="1.59247">
        <ele>203</ele>
        <time>2015-10-31T16:05:43Z</time>
      </trkpt>
      <trkpt lat="44.45459" lon="1.59251">
        <ele>203.1</ele>
        <time>2015-10-31T16:05:45Z</time>
      </trkpt>
      <trkpt lat="44.45455" lon="1.59253">
        <ele>203.6</ele>
        <time>2015-10-31T16:05:47Z</time>
      </trkpt>
      <trkpt lat="44.45451" lon="1.59257">
        <ele>204.3</ele>
        <time>2015-10-31T16:05:49Z</time>
      </trkpt>
      <trkpt lat="44.45448" lon="1.5926">
        <ele>204.9</ele>
        <time>2015-10-31T16:05:51Z</time>
      </trkpt>
      <trkpt lat="44.45444" lon="1.59264">
        <ele>205.4</ele>
        <time>2015-10-31T16:05:53Z</time>
      </trkpt>
      <trkpt lat="44.4544" lon="1.59269">
        <ele>205.8</ele>
        <time>2015-10-31T16:05:55Z</time>
      </trkpt>
      <trkpt lat="44.45437" lon="1.59273">
        <ele>206.1</ele>
        <time>2015-10-31T16:05:57Z</time>
      </trkpt>
      <trkpt lat="44.45433" lon="1.59277">
        <ele>206.4</ele>
        <time>2015-10-31T16:05:59Z</time>
      </trkpt>
      <trkpt lat="44.45429" lon="1.59281">
        <ele>206.5</ele>
        <time>2015-10-31T16:06:01Z</time>
      </trkpt>
      <trkpt lat="44.45426" lon="1.59285">
        <ele>206.6</ele>
        <time>2015-10-31T16:06:03Z</time>
      </trkpt>
      <trkpt lat="44.45422" lon="1.59289">
        <ele>206.5</ele>
        <time>2015-10-31T16:06:05Z</time>
      </trkpt>
      <trkpt lat="44.45419" lon="1.59294">
        <ele>206.7</ele>
        <time>2015-10-31T16:06:07Z</time>
      </trkpt>
      <trkpt lat="44.45415" lon="1.59298">
        <ele>207.2</ele>
        <time>2015-10-31T16:06:09Z</time>
      </trkpt>
      <trkpt lat="44.45412" lon="1.59303">
        <ele>207.6</ele>
        <time>2015-10-31T16:06:11Z</time>
      </trkpt>
      <trkpt lat="44.45408" lon="1.59308">
        <ele>207.9</ele>
        <time>2015-10-31T16:06:13Z</time>
      </trkpt>
      <trkpt lat="44.45405" lon="1.59313">
        <ele>208.2</ele>
        <time>2015-10-31T16:06:15Z</time>
      </trkpt>
      <trkpt lat="44.45403" lon="1.59316">
        <ele>208.3</ele>
        <time>2015-10-31T16:06:16Z</time>
      </trkpt>
      <trkpt lat="44.45401" lon="1.59319">
        <ele>208.4</ele>
        <time>2015-10-31T16:06:17Z</time>
      </trkpt>
      <trkpt lat="44.45399" lon="1.59322">
        <ele>208.5</ele>
        <time>2015-10-31T16:06:18Z</time>
      </trkpt>
      <trkpt lat="44.45395" lon="1.59328">
        <ele>208.4</ele>
        <time>2015-10-31T16:06:20Z</time>
      </trkpt>
      <trkpt lat="44.45393" lon="1.5933">
        <ele>208.3</ele>
        <time>2015-10-31T16:06:21Z</time>
      </trkpt>
      <trkpt lat="44.45391" lon="1.59333">
        <ele>208.2</ele>
        <time>2015-10-31T16:06:22Z</time>
      </trkpt>
      <trkpt lat="44.45389" lon="1.59335">
        <ele>208</ele>
        <time>2015-10-31T16:06:23Z</time>
      </trkpt>
      <trkpt lat="44.45387" lon="1.59338">
        <ele>207.9</ele>
        <time>2015-10-31T16:06:24Z</time>
      </trkpt>
      <trkpt lat="44.45385" lon="1.59341">
        <ele>207.7</ele>
        <time>2015-10-31T16:06:25Z</time>
      </trkpt>
      <trkpt lat="44.45383" lon="1.59344">
        <ele>207.5</ele>
        <time>2015-10-31T16:06:26Z</time>
      </trkpt>
      <trkpt lat="44.45381" lon="1.59347">
        <ele>207.2</ele>
        <time>2015-10-31T16:06:27Z</time>
      </trkpt>
      <trkpt lat="44.45379" lon="1.59349">
        <ele>206.9</ele>
        <time>2015-10-31T16:06:28Z</time>
      </trkpt>
      <trkpt lat="44.45376" lon="1.59355">
        <ele>206.3</ele>
        <time>2015-10-31T16:06:30Z</time>
      </trkpt>
      <trkpt lat="44.45374" lon="1.59358">
        <ele>206.4</ele>
        <time>2015-10-31T16:06:31Z</time>
      </trkpt>
      <trkpt lat="44.45373" lon="1.59361">
        <ele>206.6</ele>
        <time>2015-10-31T16:06:32Z</time>
      </trkpt>
      <trkpt lat="44.45371" lon="1.59368">
        <ele>206.8</ele>
        <time>2015-10-31T16:06:34Z</time>
      </trkpt>
      <trkpt lat="44.4537" lon="1.59375">
        <ele>206.8</ele>
        <time>2015-10-31T16:06:36Z</time>
      </trkpt>
      <trkpt lat="44.45369" lon="1.59381">
        <ele>207.5</ele>
        <time>2015-10-31T16:06:38Z</time>
      </trkpt>
      <trkpt lat="44.45366" lon="1.59387">
        <ele>208.2</ele>
        <time>2015-10-31T16:06:40Z</time>
      </trkpt>
      <trkpt lat="44.45365" lon="1.59395">
        <ele>208.8</ele>
        <time>2015-10-31T16:06:42Z</time>
      </trkpt>
      <trkpt lat="44.45364" lon="1.59402">
        <ele>209.3</ele>
        <time>2015-10-31T16:06:44Z</time>
      </trkpt>
      <trkpt lat="44.45364" lon="1.5941">
        <ele>209.8</ele>
        <time>2015-10-31T16:06:46Z</time>
      </trkpt>
      <trkpt lat="44.45363" lon="1.59416">
        <ele>210.3</ele>
        <time>2015-10-31T16:06:48Z</time>
      </trkpt>
      <trkpt lat="44.45361" lon="1.59422">
        <ele>210.7</ele>
        <time>2015-10-31T16:06:50Z</time>
      </trkpt>
      <trkpt lat="44.45359" lon="1.59428">
        <ele>211.1</ele>
        <time>2015-10-31T16:06:52Z</time>
      </trkpt>
      <trkpt lat="44.4536" lon="1.59434">
        <ele>211.4</ele>
        <time>2015-10-31T16:06:54Z</time>
      </trkpt>
      <trkpt lat="44.4536" lon="1.59441">
        <ele>211.7</ele>
        <time>2015-10-31T16:06:56Z</time>
      </trkpt>
      <trkpt lat="44.45361" lon="1.59448">
        <ele>212.1</ele>
        <time>2015-10-31T16:06:58Z</time>
      </trkpt>
      <trkpt lat="44.45362" lon="1.59454">
        <ele>212.4</ele>
        <time>2015-10-31T16:07:00Z</time>
      </trkpt>
      <trkpt lat="44.45364" lon="1.59461">
        <ele>212.8</ele>
        <time>2015-10-31T16:07:02Z</time>
      </trkpt>
      <trkpt lat="44.45364" lon="1.59464">
        <ele>212.8</ele>
        <time>2015-10-31T16:07:03Z</time>
      </trkpt>
      <trkpt lat="44.45366" lon="1.59471">
        <ele>213</ele>
        <time>2015-10-31T16:07:05Z</time>
      </trkpt>
      <trkpt lat="44.45368" lon="1.59478">
        <ele>213.1</ele>
        <time>2015-10-31T16:07:07Z</time>
      </trkpt>
      <trkpt lat="44.4537" lon="1.59484">
        <ele>213.2</ele>
        <time>2015-10-31T16:07:09Z</time>
      </trkpt>
      <trkpt lat="44.45373" lon="1.5949">
        <ele>213.3</ele>
        <time>2015-10-31T16:07:11Z</time>
      </trkpt>
      <trkpt lat="44.45375" lon="1.59496">
        <ele>213.4</ele>
        <time>2015-10-31T16:07:13Z</time>
      </trkpt>
      <trkpt lat="44.45376" lon="1.59501">
        <ele>213.8</ele>
        <time>2015-10-31T16:07:15Z</time>
      </trkpt>
      <trkpt lat="44.45377" lon="1.59507">
        <ele>214.2</ele>
        <time>2015-10-31T16:07:17Z</time>
      </trkpt>
      <trkpt lat="44.45374" lon="1.59509">
        <ele>213.6</ele>
        <time>2015-10-31T16:07:20Z</time>
      </trkpt>
      <trkpt lat="44.45373" lon="1.59506">
        <ele>213.5</ele>
        <time>2015-10-31T16:07:22Z</time>
      </trkpt>
      <trkpt lat="44.45378" lon="1.59502">
        <ele>214.4</ele>
        <time>2015-10-31T16:07:25Z</time>
      </trkpt>
      <trkpt lat="44.45389" lon="1.59502">
        <ele>217.7</ele>
        <time>2015-10-31T16:08:35Z</time>
      </trkpt>
      <trkpt lat="44.45391" lon="1.59505">
        <ele>218.5</ele>
        <time>2015-10-31T16:08:37Z</time>
      </trkpt>
      <trkpt lat="44.45393" lon="1.59509">
        <ele>219.2</ele>
        <time>2015-10-31T16:08:39Z</time>
      </trkpt>
      <trkpt lat="44.45395" lon="1.59512">
        <ele>220</ele>
        <time>2015-10-31T16:08:41Z</time>
      </trkpt>
      <trkpt lat="44.45397" lon="1.59517">
        <ele>220.7</ele>
        <time>2015-10-31T16:08:43Z</time>
      </trkpt>
      <trkpt lat="44.45399" lon="1.59521">
        <ele>221.3</ele>
        <time>2015-10-31T16:08:45Z</time>
      </trkpt>
      <trkpt lat="44.45401" lon="1.59525">
        <ele>222.1</ele>
        <time>2015-10-31T16:08:47Z</time>
      </trkpt>
      <trkpt lat="44.45403" lon="1.5953">
        <ele>222.7</ele>
        <time>2015-10-31T16:08:49Z</time>
      </trkpt>
      <trkpt lat="44.45406" lon="1.59535">
        <ele>223.9</ele>
        <time>2015-10-31T16:08:51Z</time>
      </trkpt>
      <trkpt lat="44.4541" lon="1.59538">
        <ele>225.4</ele>
        <time>2015-10-31T16:08:53Z</time>
      </trkpt>
      <trkpt lat="44.45414" lon="1.59541">
        <ele>226.6</ele>
        <time>2015-10-31T16:08:54Z</time>
      </trkpt>
      <trkpt lat="44.45417" lon="1.59543">
        <ele>227.6</ele>
        <time>2015-10-31T16:08:55Z</time>
      </trkpt>
      <trkpt lat="44.45419" lon="1.59546">
        <ele>228.4</ele>
        <time>2015-10-31T16:08:56Z</time>
      </trkpt>
      <trkpt lat="44.45421" lon="1.5955">
        <ele>229</ele>
        <time>2015-10-31T16:08:57Z</time>
      </trkpt>
      <trkpt lat="44.45423" lon="1.59553">
        <ele>229.5</ele>
        <time>2015-10-31T16:08:58Z</time>
      </trkpt>
      <trkpt lat="44.45425" lon="1.59557">
        <ele>230.1</ele>
        <time>2015-10-31T16:08:59Z</time>
      </trkpt>
      <trkpt lat="44.45427" lon="1.59561">
        <ele>230.7</ele>
        <time>2015-10-31T16:09:00Z</time>
      </trkpt>
      <trkpt lat="44.45428" lon="1.59564">
        <ele>231.1</ele>
        <time>2015-10-31T16:09:01Z</time>
      </trkpt>
      <trkpt lat="44.4543" lon="1.59568">
        <ele>231.5</ele>
        <time>2015-10-31T16:09:02Z</time>
      </trkpt>
      <trkpt lat="44.45432" lon="1.59572">
        <ele>231.9</ele>
        <time>2015-10-31T16:09:03Z</time>
      </trkpt>
      <trkpt lat="44.45433" lon="1.59575">
        <ele>232.3</ele>
        <time>2015-10-31T16:09:04Z</time>
      </trkpt>
      <trkpt lat="44.45435" lon="1.59579">
        <ele>232.5</ele>
        <time>2015-10-31T16:09:05Z</time>
      </trkpt>
      <trkpt lat="44.45436" lon="1.59582">
        <ele>232.8</ele>
        <time>2015-10-31T16:09:06Z</time>
      </trkpt>
      <trkpt lat="44.45437" lon="1.59589">
        <ele>232.8</ele>
        <time>2015-10-31T16:09:08Z</time>
      </trkpt>
      <trkpt lat="44.45435" lon="1.59596">
        <ele>232.3</ele>
        <time>2015-10-31T16:09:10Z</time>
      </trkpt>
      <trkpt lat="44.45433" lon="1.59599">
        <ele>231.7</ele>
        <time>2015-10-31T16:09:11Z</time>
      </trkpt>
      <trkpt lat="44.45431" lon="1.59602">
        <ele>231.3</ele>
        <time>2015-10-31T16:09:12Z</time>
      </trkpt>
      <trkpt lat="44.45428" lon="1.59604">
        <ele>230.8</ele>
        <time>2015-10-31T16:09:13Z</time>
      </trkpt>
      <trkpt lat="44.45426" lon="1.59607">
        <ele>230.3</ele>
        <time>2015-10-31T16:09:14Z</time>
      </trkpt>
      <trkpt lat="44.45423" lon="1.59609">
        <ele>229.8</ele>
        <time>2015-10-31T16:09:15Z</time>
      </trkpt>
      <trkpt lat="44.4542" lon="1.5961">
        <ele>229.4</ele>
        <time>2015-10-31T16:09:16Z</time>
      </trkpt>
      <trkpt lat="44.45417" lon="1.59611">
        <ele>228.9</ele>
        <time>2015-10-31T16:09:17Z</time>
      </trkpt>
      <trkpt lat="44.45414" lon="1.59612">
        <ele>228.4</ele>
        <time>2015-10-31T16:09:18Z</time>
      </trkpt>
      <trkpt lat="44.45411" lon="1.59613">
        <ele>227.9</ele>
        <time>2015-10-31T16:09:19Z</time>
      </trkpt>
      <trkpt lat="44.45409" lon="1.59615">
        <ele>227.5</ele>
        <time>2015-10-31T16:09:20Z</time>
      </trkpt>
      <trkpt lat="44.45406" lon="1.59616">
        <ele>227.1</ele>
        <time>2015-10-31T16:09:21Z</time>
      </trkpt>
      <trkpt lat="44.45401" lon="1.5962">
        <ele>226.5</ele>
        <time>2015-10-31T16:09:23Z</time>
      </trkpt>
      <trkpt lat="44.45396" lon="1.59622">
        <ele>225.8</ele>
        <time>2015-10-31T16:09:25Z</time>
      </trkpt>
      <trkpt lat="44.45393" lon="1.59623">
        <ele>225.5</ele>
        <time>2015-10-31T16:09:26Z</time>
      </trkpt>
      <trkpt lat="44.45388" lon="1.59626">
        <ele>225.1</ele>
        <time>2015-10-31T16:09:28Z</time>
      </trkpt>
      <trkpt lat="44.45385" lon="1.59627">
        <ele>224.9</ele>
        <time>2015-10-31T16:09:29Z</time>
      </trkpt>
      <trkpt lat="44.45382" lon="1.59629">
        <ele>224.8</ele>
        <time>2015-10-31T16:09:30Z</time>
      </trkpt>
      <trkpt lat="44.4538" lon="1.59631">
        <ele>224.8</ele>
        <time>2015-10-31T16:09:31Z</time>
      </trkpt>
      <trkpt lat="44.45377" lon="1.59632">
        <ele>224.8</ele>
        <time>2015-10-31T16:09:32Z</time>
      </trkpt>
      <trkpt lat="44.45375" lon="1.59634">
        <ele>224.9</ele>
        <time>2015-10-31T16:09:33Z</time>
      </trkpt>
      <trkpt lat="44.4537" lon="1.59637">
        <ele>226</ele>
        <time>2015-10-31T16:09:35Z</time>
      </trkpt>
      <trkpt lat="44.45366" lon="1.59641">
        <ele>227.3</ele>
        <time>2015-10-31T16:09:37Z</time>
      </trkpt>
      <trkpt lat="44.45362" lon="1.59645">
        <ele>228.6</ele>
        <time>2015-10-31T16:09:39Z</time>
      </trkpt>
      <trkpt lat="44.45357" lon="1.59648">
        <ele>229.6</ele>
        <time>2015-10-31T16:09:41Z</time>
      </trkpt>
      <trkpt lat="44.45352" lon="1.59651">
        <ele>230.6</ele>
        <time>2015-10-31T16:09:43Z</time>
      </trkpt>
      <trkpt lat="44.45348" lon="1.59654">
        <ele>231.8</ele>
        <time>2015-10-31T16:09:45Z</time>
      </trkpt>
      <trkpt lat="44.45343" lon="1.59657">
        <ele>232.8</ele>
        <time>2015-10-31T16:09:47Z</time>
      </trkpt>
      <trkpt lat="44.45338" lon="1.5966">
        <ele>233.8</ele>
        <time>2015-10-31T16:09:49Z</time>
      </trkpt>
      <trkpt lat="44.45333" lon="1.59663">
        <ele>234.8</ele>
        <time>2015-10-31T16:09:51Z</time>
      </trkpt>
      <trkpt lat="44.45331" lon="1.59665">
        <ele>235.4</ele>
        <time>2015-10-31T16:09:52Z</time>
      </trkpt>
      <trkpt lat="44.45329" lon="1.59667">
        <ele>236.1</ele>
        <time>2015-10-31T16:09:53Z</time>
      </trkpt>
      <trkpt lat="44.45326" lon="1.59669">
        <ele>236.6</ele>
        <time>2015-10-31T16:09:54Z</time>
      </trkpt>
      <trkpt lat="44.45324" lon="1.5967">
        <ele>237.1</ele>
        <time>2015-10-31T16:09:55Z</time>
      </trkpt>
      <trkpt lat="44.45319" lon="1.59674">
        <ele>238.1</ele>
        <time>2015-10-31T16:09:57Z</time>
      </trkpt>
      <trkpt lat="44.45315" lon="1.59677">
        <ele>239.1</ele>
        <time>2015-10-31T16:09:59Z</time>
      </trkpt>
      <trkpt lat="44.45311" lon="1.59681">
        <ele>240</ele>
        <time>2015-10-31T16:10:01Z</time>
      </trkpt>
      <trkpt lat="44.45307" lon="1.59685">
        <ele>241.1</ele>
        <time>2015-10-31T16:10:03Z</time>
      </trkpt>
      <trkpt lat="44.45304" lon="1.5969">
        <ele>242.2</ele>
        <time>2015-10-31T16:10:05Z</time>
      </trkpt>
      <trkpt lat="44.45299" lon="1.59694">
        <ele>243.2</ele>
        <time>2015-10-31T16:10:07Z</time>
      </trkpt>
      <trkpt lat="44.45296" lon="1.59695">
        <ele>243.6</ele>
        <time>2015-10-31T16:10:08Z</time>
      </trkpt>
      <trkpt lat="44.45293" lon="1.59697">
        <ele>244.1</ele>
        <time>2015-10-31T16:10:09Z</time>
      </trkpt>
      <trkpt lat="44.45288" lon="1.59698">
        <ele>244.7</ele>
        <time>2015-10-31T16:10:11Z</time>
      </trkpt>
      <trkpt lat="44.45283" lon="1.597">
        <ele>245.4</ele>
        <time>2015-10-31T16:10:13Z</time>
      </trkpt>
      <trkpt lat="44.45278" lon="1.59701">
        <ele>246</ele>
        <time>2015-10-31T16:10:15Z</time>
      </trkpt>
      <trkpt lat="44.45275" lon="1.59701">
        <ele>246.2</ele>
        <time>2015-10-31T16:10:16Z</time>
      </trkpt>
      <trkpt lat="44.4527" lon="1.597">
        <ele>246.5</ele>
        <time>2015-10-31T16:10:18Z</time>
      </trkpt>
      <trkpt lat="44.45264" lon="1.59698">
        <ele>246.5</ele>
        <time>2015-10-31T16:10:20Z</time>
      </trkpt>
      <trkpt lat="44.45261" lon="1.59696">
        <ele>246.4</ele>
        <time>2015-10-31T16:10:21Z</time>
      </trkpt>
      <trkpt lat="44.45256" lon="1.59692">
        <ele>246.1</ele>
        <time>2015-10-31T16:10:23Z</time>
      </trkpt>
      <trkpt lat="44.45251" lon="1.59688">
        <ele>245.7</ele>
        <time>2015-10-31T16:10:25Z</time>
      </trkpt>
      <trkpt lat="44.45247" lon="1.59684">
        <ele>245.3</ele>
        <time>2015-10-31T16:10:27Z</time>
      </trkpt>
      <trkpt lat="44.45243" lon="1.59679">
        <ele>244.7</ele>
        <time>2015-10-31T16:10:29Z</time>
      </trkpt>
      <trkpt lat="44.45241" lon="1.59672">
        <ele>243.6</ele>
        <time>2015-10-31T16:10:31Z</time>
      </trkpt>
      <trkpt lat="44.4524" lon="1.59669">
        <ele>243</ele>
        <time>2015-10-31T16:10:32Z</time>
      </trkpt>
      <trkpt lat="44.45237" lon="1.59662">
        <ele>241.8</ele>
        <time>2015-10-31T16:10:34Z</time>
      </trkpt>
      <trkpt lat="44.45234" lon="1.59656">
        <ele>241</ele>
        <time>2015-10-31T16:10:36Z</time>
      </trkpt>
      <trkpt lat="44.45231" lon="1.59652">
        <ele>240.4</ele>
        <time>2015-10-31T16:10:38Z</time>
      </trkpt>
      <trkpt lat="44.45227" lon="1.59647">
        <ele>239.6</ele>
        <time>2015-10-31T16:10:40Z</time>
      </trkpt>
      <trkpt lat="44.45224" lon="1.59642">
        <ele>238.7</ele>
        <time>2015-10-31T16:10:42Z</time>
      </trkpt>
      <trkpt lat="44.45221" lon="1.59641">
        <ele>238.7</ele>
        <time>2015-10-31T16:10:43Z</time>
      </trkpt>
      <trkpt lat="44.45216" lon="1.59639">
        <ele>238.5</ele>
        <time>2015-10-31T16:10:45Z</time>
      </trkpt>
      <trkpt lat="44.45213" lon="1.59637">
        <ele>238.2</ele>
        <time>2015-10-31T16:10:46Z</time>
      </trkpt>
      <trkpt lat="44.4521" lon="1.59635">
        <ele>237.9</ele>
        <time>2015-10-31T16:10:47Z</time>
      </trkpt>
      <trkpt lat="44.45208" lon="1.59632">
        <ele>237.5</ele>
        <time>2015-10-31T16:10:48Z</time>
      </trkpt>
      <trkpt lat="44.45203" lon="1.59631">
        <ele>237</ele>
        <time>2015-10-31T16:10:50Z</time>
      </trkpt>
      <trkpt lat="44.45198" lon="1.59632">
        <ele>236.9</ele>
        <time>2015-10-31T16:10:52Z</time>
      </trkpt>
      <trkpt lat="44.45194" lon="1.59634">
        <ele>237.2</ele>
        <time>2015-10-31T16:10:54Z</time>
      </trkpt>
      <trkpt lat="44.4519" lon="1.59637">
        <ele>237.5</ele>
        <time>2015-10-31T16:10:56Z</time>
      </trkpt>
      <trkpt lat="44.45185" lon="1.59639">
        <ele>237.7</ele>
        <time>2015-10-31T16:10:58Z</time>
      </trkpt>
      <trkpt lat="44.45181" lon="1.59641">
        <ele>237.9</ele>
        <time>2015-10-31T16:11:00Z</time>
      </trkpt>
      <trkpt lat="44.45178" lon="1.59644">
        <ele>238.4</ele>
        <time>2015-10-31T16:11:02Z</time>
      </trkpt>
      <trkpt lat="44.45175" lon="1.59648">
        <ele>239</ele>
        <time>2015-10-31T16:11:04Z</time>
      </trkpt>
      <trkpt lat="44.45171" lon="1.59652">
        <ele>239.6</ele>
        <time>2015-10-31T16:11:06Z</time>
      </trkpt>
      <trkpt lat="44.45167" lon="1.59656">
        <ele>240.1</ele>
        <time>2015-10-31T16:11:08Z</time>
      </trkpt>
      <trkpt lat="44.45164" lon="1.5966">
        <ele>240.8</ele>
        <time>2015-10-31T16:11:10Z</time>
      </trkpt>
      <trkpt lat="44.4516" lon="1.59663">
        <ele>241.1</ele>
        <time>2015-10-31T16:11:12Z</time>
      </trkpt>
      <trkpt lat="44.45156" lon="1.59665">
        <ele>241.4</ele>
        <time>2015-10-31T16:11:14Z</time>
      </trkpt>
      <trkpt lat="44.45152" lon="1.59669">
        <ele>241.9</ele>
        <time>2015-10-31T16:11:16Z</time>
      </trkpt>
      <trkpt lat="44.45148" lon="1.59671">
        <ele>242.2</ele>
        <time>2015-10-31T16:11:18Z</time>
      </trkpt>
      <trkpt lat="44.45145" lon="1.59677">
        <ele>243</ele>
        <time>2015-10-31T16:11:20Z</time>
      </trkpt>
      <trkpt lat="44.45143" lon="1.59682">
        <ele>244</ele>
        <time>2015-10-31T16:11:22Z</time>
      </trkpt>
      <trkpt lat="44.45138" lon="1.59685">
        <ele>244.2</ele>
        <time>2015-10-31T16:11:24Z</time>
      </trkpt>
      <trkpt lat="44.45134" lon="1.59688">
        <ele>244.5</ele>
        <time>2015-10-31T16:11:26Z</time>
      </trkpt>
      <trkpt lat="44.4513" lon="1.59691">
        <ele>244.9</ele>
        <time>2015-10-31T16:11:28Z</time>
      </trkpt>
      <trkpt lat="44.45126" lon="1.59695">
        <ele>245.4</ele>
        <time>2015-10-31T16:11:30Z</time>
      </trkpt>
      <trkpt lat="44.45122" lon="1.59699">
        <ele>245.8</ele>
        <time>2015-10-31T16:11:32Z</time>
      </trkpt>
      <trkpt lat="44.45118" lon="1.59702">
        <ele>246.2</ele>
        <time>2015-10-31T16:11:34Z</time>
      </trkpt>
      <trkpt lat="44.45114" lon="1.59705">
        <ele>246.3</ele>
        <time>2015-10-31T16:11:36Z</time>
      </trkpt>
      <trkpt lat="44.45109" lon="1.59707">
        <ele>246.3</ele>
        <time>2015-10-31T16:11:38Z</time>
      </trkpt>
      <trkpt lat="44.45104" lon="1.59708">
        <ele>246</ele>
        <time>2015-10-31T16:11:40Z</time>
      </trkpt>
      <trkpt lat="44.451" lon="1.5971">
        <ele>245.8</ele>
        <time>2015-10-31T16:11:42Z</time>
      </trkpt>
      <trkpt lat="44.45096" lon="1.59714">
        <ele>246.1</ele>
        <time>2015-10-31T16:11:44Z</time>
      </trkpt>
      <trkpt lat="44.45091" lon="1.59718">
        <ele>246.4</ele>
        <time>2015-10-31T16:11:46Z</time>
      </trkpt>
      <trkpt lat="44.45087" lon="1.59721">
        <ele>246.6</ele>
        <time>2015-10-31T16:11:48Z</time>
      </trkpt>
      <trkpt lat="44.45084" lon="1.59723">
        <ele>246.7</ele>
        <time>2015-10-31T16:11:49Z</time>
      </trkpt>
      <trkpt lat="44.45079" lon="1.59725">
        <ele>246.7</ele>
        <time>2015-10-31T16:11:51Z</time>
      </trkpt>
      <trkpt lat="44.45075" lon="1.59729">
        <ele>246.9</ele>
        <time>2015-10-31T16:11:53Z</time>
      </trkpt>
      <trkpt lat="44.45072" lon="1.59732">
        <ele>247.3</ele>
        <time>2015-10-31T16:11:54Z</time>
      </trkpt>
      <trkpt lat="44.45071" lon="1.59736">
        <ele>247.8</ele>
        <time>2015-10-31T16:11:55Z</time>
      </trkpt>
      <trkpt lat="44.45069" lon="1.59739">
        <ele>248.3</ele>
        <time>2015-10-31T16:11:56Z</time>
      </trkpt>
      <trkpt lat="44.45066" lon="1.59744">
        <ele>248.9</ele>
        <time>2015-10-31T16:11:58Z</time>
      </trkpt>
      <trkpt lat="44.45062" lon="1.59749">
        <ele>249.5</ele>
        <time>2015-10-31T16:12:00Z</time>
      </trkpt>
      <trkpt lat="44.45059" lon="1.59754">
        <ele>250.1</ele>
        <time>2015-10-31T16:12:02Z</time>
      </trkpt>
      <trkpt lat="44.45055" lon="1.59758">
        <ele>250.5</ele>
        <time>2015-10-31T16:12:04Z</time>
      </trkpt>
      <trkpt lat="44.45051" lon="1.59761">
        <ele>250.9</ele>
        <time>2015-10-31T16:12:06Z</time>
      </trkpt>
      <trkpt lat="44.45047" lon="1.59766">
        <ele>251.5</ele>
        <time>2015-10-31T16:12:08Z</time>
      </trkpt>
      <trkpt lat="44.45044" lon="1.5977">
        <ele>252</ele>
        <time>2015-10-31T16:12:10Z</time>
      </trkpt>
      <trkpt lat="44.45041" lon="1.59775">
        <ele>252.7</ele>
        <time>2015-10-31T16:12:12Z</time>
      </trkpt>
      <trkpt lat="44.45039" lon="1.59777">
        <ele>253.1</ele>
        <time>2015-10-31T16:12:13Z</time>
      </trkpt>
      <trkpt lat="44.45034" lon="1.59783">
        <ele>253.8</ele>
        <time>2015-10-31T16:12:15Z</time>
      </trkpt>
      <trkpt lat="44.45032" lon="1.59785">
        <ele>254.2</ele>
        <time>2015-10-31T16:12:16Z</time>
      </trkpt>
      <trkpt lat="44.45029" lon="1.59786">
        <ele>254.4</ele>
        <time>2015-10-31T16:12:17Z</time>
      </trkpt>
      <trkpt lat="44.45025" lon="1.59789">
        <ele>254.7</ele>
        <time>2015-10-31T16:12:19Z</time>
      </trkpt>
      <trkpt lat="44.45021" lon="1.59792">
        <ele>255.1</ele>
        <time>2015-10-31T16:12:21Z</time>
      </trkpt>
      <trkpt lat="44.45017" lon="1.59795">
        <ele>255.5</ele>
        <time>2015-10-31T16:12:23Z</time>
      </trkpt>
      <trkpt lat="44.45014" lon="1.59798">
        <ele>256.1</ele>
        <time>2015-10-31T16:12:25Z</time>
      </trkpt>
      <trkpt lat="44.45011" lon="1.59801">
        <ele>256.4</ele>
        <time>2015-10-31T16:12:27Z</time>
      </trkpt>
      <trkpt lat="44.45007" lon="1.59803">
        <ele>256.7</ele>
        <time>2015-10-31T16:12:29Z</time>
      </trkpt>
      <trkpt lat="44.45002" lon="1.59805">
        <ele>256.9</ele>
        <time>2015-10-31T16:12:31Z</time>
      </trkpt>
      <trkpt lat="44.44997" lon="1.59807">
        <ele>257.3</ele>
        <time>2015-10-31T16:12:33Z</time>
      </trkpt>
      <trkpt lat="44.44993" lon="1.5981">
        <ele>257.7</ele>
        <time>2015-10-31T16:12:35Z</time>
      </trkpt>
      <trkpt lat="44.44988" lon="1.59812">
        <ele>258</ele>
        <time>2015-10-31T16:12:37Z</time>
      </trkpt>
      <trkpt lat="44.44985" lon="1.59814">
        <ele>258.2</ele>
        <time>2015-10-31T16:12:38Z</time>
      </trkpt>
      <trkpt lat="44.44981" lon="1.59816">
        <ele>258.6</ele>
        <time>2015-10-31T16:12:40Z</time>
      </trkpt>
      <trkpt lat="44.44978" lon="1.59817">
        <ele>258.7</ele>
        <time>2015-10-31T16:12:41Z</time>
      </trkpt>
      <trkpt lat="44.44973" lon="1.59818">
        <ele>258.8</ele>
        <time>2015-10-31T16:12:43Z</time>
      </trkpt>
      <trkpt lat="44.44968" lon="1.59819">
        <ele>259</ele>
        <time>2015-10-31T16:12:45Z</time>
      </trkpt>
      <trkpt lat="44.44965" lon="1.5982">
        <ele>258.9</ele>
        <time>2015-10-31T16:12:46Z</time>
      </trkpt>
      <trkpt lat="44.44962" lon="1.5982">
        <ele>258.8</ele>
        <time>2015-10-31T16:12:47Z</time>
      </trkpt>
      <trkpt lat="44.44957" lon="1.59819">
        <ele>258.4</ele>
        <time>2015-10-31T16:12:49Z</time>
      </trkpt>
      <trkpt lat="44.44952" lon="1.59819">
        <ele>258</ele>
        <time>2015-10-31T16:12:51Z</time>
      </trkpt>
      <trkpt lat="44.44947" lon="1.59821">
        <ele>258</ele>
        <time>2015-10-31T16:12:53Z</time>
      </trkpt>
      <trkpt lat="44.44942" lon="1.59822">
        <ele>258</ele>
        <time>2015-10-31T16:12:55Z</time>
      </trkpt>
      <trkpt lat="44.44938" lon="1.59823">
        <ele>257.8</ele>
        <time>2015-10-31T16:12:57Z</time>
      </trkpt>
      <trkpt lat="44.44933" lon="1.59822">
        <ele>257.2</ele>
        <time>2015-10-31T16:12:59Z</time>
      </trkpt>
      <trkpt lat="44.44929" lon="1.59822">
        <ele>256.8</ele>
        <time>2015-10-31T16:13:01Z</time>
      </trkpt>
      <trkpt lat="44.44925" lon="1.59824">
        <ele>256.9</ele>
        <time>2015-10-31T16:13:03Z</time>
      </trkpt>
      <trkpt lat="44.44922" lon="1.59825">
        <ele>256.9</ele>
        <time>2015-10-31T16:13:05Z</time>
      </trkpt>
      <trkpt lat="44.44918" lon="1.59826">
        <ele>256.9</ele>
        <time>2015-10-31T16:13:07Z</time>
      </trkpt>
      <trkpt lat="44.44914" lon="1.59828">
        <ele>257</ele>
        <time>2015-10-31T16:13:09Z</time>
      </trkpt>
      <trkpt lat="44.44911" lon="1.59828">
        <ele>256.8</ele>
        <time>2015-10-31T16:13:10Z</time>
      </trkpt>
      <trkpt lat="44.44908" lon="1.59829">
        <ele>256.6</ele>
        <time>2015-10-31T16:13:11Z</time>
      </trkpt>
      <trkpt lat="44.44905" lon="1.59829">
        <ele>256.4</ele>
        <time>2015-10-31T16:13:12Z</time>
      </trkpt>
      <trkpt lat="44.44902" lon="1.5983">
        <ele>256.4</ele>
        <time>2015-10-31T16:13:13Z</time>
      </trkpt>
      <trkpt lat="44.44898" lon="1.59832">
        <ele>256.6</ele>
        <time>2015-10-31T16:13:15Z</time>
      </trkpt>
      <trkpt lat="44.44893" lon="1.59834">
        <ele>256.7</ele>
        <time>2015-10-31T16:13:17Z</time>
      </trkpt>
      <trkpt lat="44.44888" lon="1.59835">
        <ele>256.6</ele>
        <time>2015-10-31T16:13:19Z</time>
      </trkpt>
      <trkpt lat="44.44883" lon="1.59838">
        <ele>256.7</ele>
        <time>2015-10-31T16:13:21Z</time>
      </trkpt>
      <trkpt lat="44.44878" lon="1.59841">
        <ele>257.1</ele>
        <time>2015-10-31T16:13:23Z</time>
      </trkpt>
      <trkpt lat="44.44874" lon="1.59845">
        <ele>257.5</ele>
        <time>2015-10-31T16:13:25Z</time>
      </trkpt>
      <trkpt lat="44.4487" lon="1.5985">
        <ele>258.2</ele>
        <time>2015-10-31T16:13:27Z</time>
      </trkpt>
      <trkpt lat="44.44867" lon="1.59854">
        <ele>258.5</ele>
        <time>2015-10-31T16:13:29Z</time>
      </trkpt>
      <trkpt lat="44.44863" lon="1.59856">
        <ele>258.5</ele>
        <time>2015-10-31T16:13:31Z</time>
      </trkpt>
      <trkpt lat="44.44859" lon="1.5986">
        <ele>258.7</ele>
        <time>2015-10-31T16:13:33Z</time>
      </trkpt>
      <trkpt lat="44.44855" lon="1.59864">
        <ele>258.9</ele>
        <time>2015-10-31T16:13:35Z</time>
      </trkpt>
      <trkpt lat="44.44851" lon="1.59868">
        <ele>259</ele>
        <time>2015-10-31T16:13:37Z</time>
      </trkpt>
      <trkpt lat="44.44847" lon="1.59871">
        <ele>258.9</ele>
        <time>2015-10-31T16:13:39Z</time>
      </trkpt>
      <trkpt lat="44.44842" lon="1.59874">
        <ele>258.5</ele>
        <time>2015-10-31T16:13:41Z</time>
      </trkpt>
      <trkpt lat="44.4484" lon="1.59875">
        <ele>258.2</ele>
        <time>2015-10-31T16:13:42Z</time>
      </trkpt>
      <trkpt lat="44.44835" lon="1.59878">
        <ele>257.9</ele>
        <time>2015-10-31T16:13:44Z</time>
      </trkpt>
      <trkpt lat="44.44831" lon="1.59881">
        <ele>257.8</ele>
        <time>2015-10-31T16:13:46Z</time>
      </trkpt>
      <trkpt lat="44.44826" lon="1.59885">
        <ele>257.8</ele>
        <time>2015-10-31T16:13:48Z</time>
      </trkpt>
      <trkpt lat="44.44824" lon="1.59887">
        <ele>257.9</ele>
        <time>2015-10-31T16:13:49Z</time>
      </trkpt>
      <trkpt lat="44.44821" lon="1.59889">
        <ele>257.9</ele>
        <time>2015-10-31T16:13:50Z</time>
      </trkpt>
      <trkpt lat="44.44819" lon="1.59891">
        <ele>258</ele>
        <time>2015-10-31T16:13:51Z</time>
      </trkpt>
      <trkpt lat="44.44815" lon="1.59896">
        <ele>258.3</ele>
        <time>2015-10-31T16:13:53Z</time>
      </trkpt>
      <trkpt lat="44.4481" lon="1.599">
        <ele>258.4</ele>
        <time>2015-10-31T16:13:55Z</time>
      </trkpt>
      <trkpt lat="44.44804" lon="1.59903">
        <ele>257.9</ele>
        <time>2015-10-31T16:13:57Z</time>
      </trkpt>
      <trkpt lat="44.44798" lon="1.59905">
        <ele>257.4</ele>
        <time>2015-10-31T16:13:59Z</time>
      </trkpt>
      <trkpt lat="44.44795" lon="1.59907">
        <ele>257.2</ele>
        <time>2015-10-31T16:14:00Z</time>
      </trkpt>
      <trkpt lat="44.44792" lon="1.59908">
        <ele>256.9</ele>
        <time>2015-10-31T16:14:01Z</time>
      </trkpt>
      <trkpt lat="44.44789" lon="1.5991">
        <ele>257</ele>
        <time>2015-10-31T16:14:02Z</time>
      </trkpt>
      <trkpt lat="44.44786" lon="1.59912">
        <ele>257.2</ele>
        <time>2015-10-31T16:14:03Z</time>
      </trkpt>
      <trkpt lat="44.44784" lon="1.59914">
        <ele>257.4</ele>
        <time>2015-10-31T16:14:04Z</time>
      </trkpt>
      <trkpt lat="44.44779" lon="1.59919">
        <ele>257.9</ele>
        <time>2015-10-31T16:14:06Z</time>
      </trkpt>
      <trkpt lat="44.44775" lon="1.59924">
        <ele>258.4</ele>
        <time>2015-10-31T16:14:08Z</time>
      </trkpt>
      <trkpt lat="44.44772" lon="1.59928">
        <ele>258.8</ele>
        <time>2015-10-31T16:14:10Z</time>
      </trkpt>
      <trkpt lat="44.44768" lon="1.59933">
        <ele>259.2</ele>
        <time>2015-10-31T16:14:12Z</time>
      </trkpt>
      <trkpt lat="44.44767" lon="1.59936">
        <ele>259.5</ele>
        <time>2015-10-31T16:14:13Z</time>
      </trkpt>
      <trkpt lat="44.44763" lon="1.59941">
        <ele>259.7</ele>
        <time>2015-10-31T16:14:15Z</time>
      </trkpt>
      <trkpt lat="44.4476" lon="1.59946">
        <ele>260</ele>
        <time>2015-10-31T16:14:17Z</time>
      </trkpt>
      <trkpt lat="44.44757" lon="1.59951">
        <ele>260.3</ele>
        <time>2015-10-31T16:14:19Z</time>
      </trkpt>
      <trkpt lat="44.44754" lon="1.59956">
        <ele>260.5</ele>
        <time>2015-10-31T16:14:21Z</time>
      </trkpt>
      <trkpt lat="44.44751" lon="1.5996">
        <ele>260.7</ele>
        <time>2015-10-31T16:14:23Z</time>
      </trkpt>
      <trkpt lat="44.44747" lon="1.59964">
        <ele>260.6</ele>
        <time>2015-10-31T16:14:25Z</time>
      </trkpt>
      <trkpt lat="44.44743" lon="1.59967">
        <ele>260.3</ele>
        <time>2015-10-31T16:14:27Z</time>
      </trkpt>
      <trkpt lat="44.44744" lon="1.59963">
        <ele>259.7</ele>
        <time>2015-10-31T16:14:37Z</time>
      </trkpt>
      <trkpt lat="44.44751" lon="1.59966">
        <ele>261.8</ele>
        <time>2015-10-31T16:16:49Z</time>
      </trkpt>
      <trkpt lat="44.44747" lon="1.59971">
        <ele>262.1</ele>
        <time>2015-10-31T16:16:58Z</time>
      </trkpt>
      <trkpt lat="44.44745" lon="1.59974">
        <ele>262.4</ele>
        <time>2015-10-31T16:17:01Z</time>
      </trkpt>
      <trkpt lat="44.44748" lon="1.59975">
        <ele>263.2</ele>
        <time>2015-10-31T16:17:05Z</time>
      </trkpt>
      <trkpt lat="44.44747" lon="1.5998">
        <ele>264.2</ele>
        <time>2015-10-31T16:17:11Z</time>
      </trkpt>
      <trkpt lat="44.44745" lon="1.59983">
        <ele>264.2</ele>
        <time>2015-10-31T16:17:14Z</time>
      </trkpt>
      <trkpt lat="44.44742" lon="1.59985">
        <ele>264.2</ele>
        <time>2015-10-31T16:17:18Z</time>
      </trkpt>
      <trkpt lat="44.44738" lon="1.59986">
        <ele>263.3</ele>
        <time>2015-10-31T16:17:22Z</time>
      </trkpt>
      <trkpt lat="44.44735" lon="1.59988">
        <ele>262.9</ele>
        <time>2015-10-31T16:17:25Z</time>
      </trkpt>
      <trkpt lat="44.44732" lon="1.5999">
        <ele>262.7</ele>
        <time>2015-10-31T16:17:27Z</time>
      </trkpt>
      <trkpt lat="44.4473" lon="1.59993">
        <ele>262.8</ele>
        <time>2015-10-31T16:17:29Z</time>
      </trkpt>
      <trkpt lat="44.44728" lon="1.59995">
        <ele>262.7</ele>
        <time>2015-10-31T16:17:31Z</time>
      </trkpt>
      <trkpt lat="44.44725" lon="1.59996">
        <ele>262.4</ele>
        <time>2015-10-31T16:17:33Z</time>
      </trkpt>
      <trkpt lat="44.44723" lon="1.60001">
        <ele>262.8</ele>
        <time>2015-10-31T16:17:35Z</time>
      </trkpt>
      <trkpt lat="44.44722" lon="1.60006">
        <ele>263.6</ele>
        <time>2015-10-31T16:17:37Z</time>
      </trkpt>
      <trkpt lat="44.44719" lon="1.60012">
        <ele>263.9</ele>
        <time>2015-10-31T16:17:38Z</time>
      </trkpt>
      <trkpt lat="44.44717" lon="1.60015">
        <ele>264</ele>
        <time>2015-10-31T16:17:39Z</time>
      </trkpt>
      <trkpt lat="44.44712" lon="1.6002">
        <ele>263.8</ele>
        <time>2015-10-31T16:17:41Z</time>
      </trkpt>
      <trkpt lat="44.4471" lon="1.60022">
        <ele>263.5</ele>
        <time>2015-10-31T16:17:42Z</time>
      </trkpt>
      <trkpt lat="44.44707" lon="1.60024">
        <ele>263.4</ele>
        <time>2015-10-31T16:17:43Z</time>
      </trkpt>
      <trkpt lat="44.44703" lon="1.60028">
        <ele>263.5</ele>
        <time>2015-10-31T16:17:45Z</time>
      </trkpt>
      <trkpt lat="44.447" lon="1.60033">
        <ele>263.6</ele>
        <time>2015-10-31T16:17:47Z</time>
      </trkpt>
      <trkpt lat="44.44697" lon="1.60038">
        <ele>264</ele>
        <time>2015-10-31T16:17:49Z</time>
      </trkpt>
      <trkpt lat="44.44695" lon="1.60043">
        <ele>264.2</ele>
        <time>2015-10-31T16:17:51Z</time>
      </trkpt>
      <trkpt lat="44.44691" lon="1.60047">
        <ele>264</ele>
        <time>2015-10-31T16:17:53Z</time>
      </trkpt>
      <trkpt lat="44.44688" lon="1.60052">
        <ele>264</ele>
        <time>2015-10-31T16:17:55Z</time>
      </trkpt>
      <trkpt lat="44.44685" lon="1.60058">
        <ele>263.9</ele>
        <time>2015-10-31T16:17:57Z</time>
      </trkpt>
      <trkpt lat="44.44683" lon="1.60061">
        <ele>263.9</ele>
        <time>2015-10-31T16:17:58Z</time>
      </trkpt>
      <trkpt lat="44.44682" lon="1.60064">
        <ele>263.9</ele>
        <time>2015-10-31T16:17:59Z</time>
      </trkpt>
      <trkpt lat="44.4468" lon="1.60071">
        <ele>264.3</ele>
        <time>2015-10-31T16:18:01Z</time>
      </trkpt>
      <trkpt lat="44.44678" lon="1.60077">
        <ele>264.6</ele>
        <time>2015-10-31T16:18:03Z</time>
      </trkpt>
      <trkpt lat="44.44676" lon="1.60083">
        <ele>264.7</ele>
        <time>2015-10-31T16:18:05Z</time>
      </trkpt>
      <trkpt lat="44.44675" lon="1.60089">
        <ele>265.1</ele>
        <time>2015-10-31T16:18:07Z</time>
      </trkpt>
      <trkpt lat="44.44674" lon="1.60096">
        <ele>265.7</ele>
        <time>2015-10-31T16:18:09Z</time>
      </trkpt>
      <trkpt lat="44.44673" lon="1.60103">
        <ele>266.3</ele>
        <time>2015-10-31T16:18:11Z</time>
      </trkpt>
      <trkpt lat="44.44672" lon="1.60109">
        <ele>266.7</ele>
        <time>2015-10-31T16:18:13Z</time>
      </trkpt>
      <trkpt lat="44.44671" lon="1.60113">
        <ele>266.8</ele>
        <time>2015-10-31T16:18:14Z</time>
      </trkpt>
      <trkpt lat="44.4467" lon="1.6012">
        <ele>267.4</ele>
        <time>2015-10-31T16:18:16Z</time>
      </trkpt>
      <trkpt lat="44.44669" lon="1.60127">
        <ele>267.9</ele>
        <time>2015-10-31T16:18:18Z</time>
      </trkpt>
      <trkpt lat="44.44669" lon="1.60131">
        <ele>268.3</ele>
        <time>2015-10-31T16:18:19Z</time>
      </trkpt>
      <trkpt lat="44.44668" lon="1.60138">
        <ele>269.1</ele>
        <time>2015-10-31T16:18:21Z</time>
      </trkpt>
      <trkpt lat="44.44667" lon="1.60142">
        <ele>269.4</ele>
        <time>2015-10-31T16:18:22Z</time>
      </trkpt>
      <trkpt lat="44.44666" lon="1.60149">
        <ele>269.9</ele>
        <time>2015-10-31T16:18:24Z</time>
      </trkpt>
      <trkpt lat="44.44665" lon="1.60156">
        <ele>270.6</ele>
        <time>2015-10-31T16:18:26Z</time>
      </trkpt>
      <trkpt lat="44.44665" lon="1.60163">
        <ele>271.6</ele>
        <time>2015-10-31T16:18:28Z</time>
      </trkpt>
      <trkpt lat="44.44666" lon="1.60169">
        <ele>272.5</ele>
        <time>2015-10-31T16:18:30Z</time>
      </trkpt>
      <trkpt lat="44.44665" lon="1.60176">
        <ele>273.4</ele>
        <time>2015-10-31T16:18:32Z</time>
      </trkpt>
      <trkpt lat="44.44665" lon="1.60183">
        <ele>274.4</ele>
        <time>2015-10-31T16:18:34Z</time>
      </trkpt>
      <trkpt lat="44.44666" lon="1.6019">
        <ele>275.3</ele>
        <time>2015-10-31T16:18:36Z</time>
      </trkpt>
      <trkpt lat="44.44666" lon="1.60196">
        <ele>276.3</ele>
        <time>2015-10-31T16:18:38Z</time>
      </trkpt>
      <trkpt lat="44.44666" lon="1.60203">
        <ele>277.1</ele>
        <time>2015-10-31T16:18:40Z</time>
      </trkpt>
      <trkpt lat="44.44667" lon="1.6021">
        <ele>278.2</ele>
        <time>2015-10-31T16:18:42Z</time>
      </trkpt>
      <trkpt lat="44.44668" lon="1.60217">
        <ele>279.6</ele>
        <time>2015-10-31T16:18:44Z</time>
      </trkpt>
      <trkpt lat="44.44669" lon="1.60221">
        <ele>280.5</ele>
        <time>2015-10-31T16:18:45Z</time>
      </trkpt>
      <trkpt lat="44.4467" lon="1.60226">
        <ele>281.4</ele>
        <time>2015-10-31T16:18:46Z</time>
      </trkpt>
      <trkpt lat="44.4467" lon="1.6023">
        <ele>282.1</ele>
        <time>2015-10-31T16:18:47Z</time>
      </trkpt>
      <trkpt lat="44.4467" lon="1.60234">
        <ele>282.7</ele>
        <time>2015-10-31T16:18:48Z</time>
      </trkpt>
      <trkpt lat="44.44669" lon="1.60238">
        <ele>283.1</ele>
        <time>2015-10-31T16:18:49Z</time>
      </trkpt>
      <trkpt lat="44.44667" lon="1.60246">
        <ele>283.9</ele>
        <time>2015-10-31T16:18:51Z</time>
      </trkpt>
      <trkpt lat="44.44666" lon="1.6025">
        <ele>284.4</ele>
        <time>2015-10-31T16:18:52Z</time>
      </trkpt>
      <trkpt lat="44.44666" lon="1.60258">
        <ele>285.7</ele>
        <time>2015-10-31T16:18:54Z</time>
      </trkpt>
      <trkpt lat="44.44666" lon="1.60262">
        <ele>286.2</ele>
        <time>2015-10-31T16:18:55Z</time>
      </trkpt>
      <trkpt lat="44.44665" lon="1.60266">
        <ele>286.6</ele>
        <time>2015-10-31T16:18:56Z</time>
      </trkpt>
      <trkpt lat="44.44664" lon="1.6027">
        <ele>287.2</ele>
        <time>2015-10-31T16:18:57Z</time>
      </trkpt>
      <trkpt lat="44.44663" lon="1.60277">
        <ele>288.2</ele>
        <time>2015-10-31T16:18:59Z</time>
      </trkpt>
      <trkpt lat="44.44662" lon="1.60281">
        <ele>288.7</ele>
        <time>2015-10-31T16:19:00Z</time>
      </trkpt>
      <trkpt lat="44.44661" lon="1.60284">
        <ele>289</ele>
        <time>2015-10-31T16:19:01Z</time>
      </trkpt>
      <trkpt lat="44.44659" lon="1.6029">
        <ele>289.8</ele>
        <time>2015-10-31T16:19:03Z</time>
      </trkpt>
      <trkpt lat="44.44658" lon="1.60297">
        <ele>290.7</ele>
        <time>2015-10-31T16:19:05Z</time>
      </trkpt>
      <trkpt lat="44.44658" lon="1.60303">
        <ele>291.7</ele>
        <time>2015-10-31T16:19:07Z</time>
      </trkpt>
      <trkpt lat="44.44659" lon="1.60309">
        <ele>292.6</ele>
        <time>2015-10-31T16:19:09Z</time>
      </trkpt>
      <trkpt lat="44.4466" lon="1.60315">
        <ele>293.5</ele>
        <time>2015-10-31T16:19:11Z</time>
      </trkpt>
      <trkpt lat="44.4466" lon="1.60321">
        <ele>294.4</ele>
        <time>2015-10-31T16:19:13Z</time>
      </trkpt>
      <trkpt lat="44.4466" lon="1.60328">
        <ele>295.4</ele>
        <time>2015-10-31T16:19:15Z</time>
      </trkpt>
      <trkpt lat="44.44658" lon="1.60332">
        <ele>295.8</ele>
        <time>2015-10-31T16:19:17Z</time>
      </trkpt>
      <trkpt lat="44.44658" lon="1.60339">
        <ele>296.7</ele>
        <time>2015-10-31T16:19:19Z</time>
      </trkpt>
      <trkpt lat="44.44658" lon="1.60346">
        <ele>297.8</ele>
        <time>2015-10-31T16:19:21Z</time>
      </trkpt>
      <trkpt lat="44.44658" lon="1.6035">
        <ele>298.4</ele>
        <time>2015-10-31T16:19:22Z</time>
      </trkpt>
      <trkpt lat="44.44658" lon="1.60354">
        <ele>299</ele>
        <time>2015-10-31T16:19:23Z</time>
      </trkpt>
      <trkpt lat="44.44659" lon="1.60358">
        <ele>299.6</ele>
        <time>2015-10-31T16:19:24Z</time>
      </trkpt>
      <trkpt lat="44.44658" lon="1.60362">
        <ele>300</ele>
        <time>2015-10-31T16:19:25Z</time>
      </trkpt>
      <trkpt lat="44.4465" lon="1.60375">
        <ele>301.4</ele>
        <time>2015-10-31T16:19:27Z</time>
      </trkpt>
      <trkpt lat="44.44648" lon="1.60379">
        <ele>302</ele>
        <time>2015-10-31T16:19:28Z</time>
      </trkpt>
      <trkpt lat="44.44648" lon="1.60384">
        <ele>302.8</ele>
        <time>2015-10-31T16:19:30Z</time>
      </trkpt>
      <trkpt lat="44.44648" lon="1.60391">
        <ele>303.9</ele>
        <time>2015-10-31T16:19:32Z</time>
      </trkpt>
      <trkpt lat="44.44649" lon="1.60395">
        <ele>304.6</ele>
        <time>2015-10-31T16:19:33Z</time>
      </trkpt>
      <trkpt lat="44.44646" lon="1.60402">
        <ele>305.7</ele>
        <time>2015-10-31T16:19:35Z</time>
      </trkpt>
      <trkpt lat="44.44644" lon="1.60404">
        <ele>305.9</ele>
        <time>2015-10-31T16:19:36Z</time>
      </trkpt>
      <trkpt lat="44.44641" lon="1.6041">
        <ele>306.7</ele>
        <time>2015-10-31T16:19:38Z</time>
      </trkpt>
      <trkpt lat="44.44638" lon="1.60415">
        <ele>307.2</ele>
        <time>2015-10-31T16:19:40Z</time>
      </trkpt>
      <trkpt lat="44.44634" lon="1.60418">
        <ele>307.7</ele>
        <time>2015-10-31T16:19:42Z</time>
      </trkpt>
      <trkpt lat="44.44629" lon="1.60418">
        <ele>307.3</ele>
        <time>2015-10-31T16:19:44Z</time>
      </trkpt>
      <trkpt lat="44.44625" lon="1.60416">
        <ele>306.9</ele>
        <time>2015-10-31T16:19:46Z</time>
      </trkpt>
      <trkpt lat="44.4462" lon="1.60414">
        <ele>307.2</ele>
        <time>2015-10-31T16:19:48Z</time>
      </trkpt>
      <trkpt lat="44.44617" lon="1.60413">
        <ele>307.3</ele>
        <time>2015-10-31T16:19:49Z</time>
      </trkpt>
      <trkpt lat="44.44612" lon="1.6041">
        <ele>307.4</ele>
        <time>2015-10-31T16:19:51Z</time>
      </trkpt>
      <trkpt lat="44.4461" lon="1.60408">
        <ele>307.3</ele>
        <time>2015-10-31T16:19:52Z</time>
      </trkpt>
      <trkpt lat="44.44607" lon="1.60406">
        <ele>307.2</ele>
        <time>2015-10-31T16:19:53Z</time>
      </trkpt>
      <trkpt lat="44.44604" lon="1.60401">
        <ele>306.9</ele>
        <time>2015-10-31T16:19:55Z</time>
      </trkpt>
      <trkpt lat="44.44599" lon="1.60398">
        <ele>306.9</ele>
        <time>2015-10-31T16:19:57Z</time>
      </trkpt>
      <trkpt lat="44.44595" lon="1.60395">
        <ele>307</ele>
        <time>2015-10-31T16:19:59Z</time>
      </trkpt>
      <trkpt lat="44.44591" lon="1.60392">
        <ele>306.9</ele>
        <time>2015-10-31T16:20:01Z</time>
      </trkpt>
      <trkpt lat="44.44589" lon="1.6039">
        <ele>306.8</ele>
        <time>2015-10-31T16:20:02Z</time>
      </trkpt>
      <trkpt lat="44.44585" lon="1.60385">
        <ele>306.5</ele>
        <time>2015-10-31T16:20:04Z</time>
      </trkpt>
      <trkpt lat="44.44581" lon="1.6038">
        <ele>306.1</ele>
        <time>2015-10-31T16:20:06Z</time>
      </trkpt>
      <trkpt lat="44.44578" lon="1.60374">
        <ele>305.5</ele>
        <time>2015-10-31T16:20:08Z</time>
      </trkpt>
      <trkpt lat="44.44576" lon="1.60368">
        <ele>304.5</ele>
        <time>2015-10-31T16:20:10Z</time>
      </trkpt>
      <trkpt lat="44.44572" lon="1.60363">
        <ele>303.8</ele>
        <time>2015-10-31T16:20:12Z</time>
      </trkpt>
      <trkpt lat="44.44569" lon="1.60359">
        <ele>303.4</ele>
        <time>2015-10-31T16:20:14Z</time>
      </trkpt>
      <trkpt lat="44.44564" lon="1.60356">
        <ele>303.1</ele>
        <time>2015-10-31T16:20:16Z</time>
      </trkpt>
      <trkpt lat="44.44561" lon="1.60352">
        <ele>302.7</ele>
        <time>2015-10-31T16:20:18Z</time>
      </trkpt>
      <trkpt lat="44.44556" lon="1.60348">
        <ele>302.3</ele>
        <time>2015-10-31T16:20:20Z</time>
      </trkpt>
      <trkpt lat="44.44551" lon="1.60344">
        <ele>302</ele>
        <time>2015-10-31T16:20:22Z</time>
      </trkpt>
      <trkpt lat="44.44547" lon="1.60341">
        <ele>301.7</ele>
        <time>2015-10-31T16:20:24Z</time>
      </trkpt>
      <trkpt lat="44.44542" lon="1.60339">
        <ele>301.7</ele>
        <time>2015-10-31T16:20:26Z</time>
      </trkpt>
      <trkpt lat="44.44537" lon="1.60337">
        <ele>301</ele>
        <time>2015-10-31T16:20:28Z</time>
      </trkpt>
      <trkpt lat="44.44532" lon="1.60335">
        <ele>300.5</ele>
        <time>2015-10-31T16:20:30Z</time>
      </trkpt>
      <trkpt lat="44.44529" lon="1.60336">
        <ele>300.4</ele>
        <time>2015-10-31T16:20:31Z</time>
      </trkpt>
      <trkpt lat="44.44524" lon="1.60337">
        <ele>300.4</ele>
        <time>2015-10-31T16:20:33Z</time>
      </trkpt>
      <trkpt lat="44.44519" lon="1.60337">
        <ele>300.2</ele>
        <time>2015-10-31T16:20:35Z</time>
      </trkpt>
      <trkpt lat="44.44515" lon="1.60337">
        <ele>299.9</ele>
        <time>2015-10-31T16:20:37Z</time>
      </trkpt>
      <trkpt lat="44.4451" lon="1.60337">
        <ele>299.8</ele>
        <time>2015-10-31T16:20:39Z</time>
      </trkpt>
      <trkpt lat="44.44504" lon="1.60337">
        <ele>299.5</ele>
        <time>2015-10-31T16:20:41Z</time>
      </trkpt>
      <trkpt lat="44.44502" lon="1.60337">
        <ele>299.3</ele>
        <time>2015-10-31T16:20:42Z</time>
      </trkpt>
      <trkpt lat="44.44499" lon="1.60337">
        <ele>299.4</ele>
        <time>2015-10-31T16:20:43Z</time>
      </trkpt>
      <trkpt lat="44.44496" lon="1.60338">
        <ele>299.5</ele>
        <time>2015-10-31T16:20:44Z</time>
      </trkpt>
      <trkpt lat="44.44493" lon="1.6034">
        <ele>299.6</ele>
        <time>2015-10-31T16:20:45Z</time>
      </trkpt>
      <trkpt lat="44.44488" lon="1.60344">
        <ele>300.3</ele>
        <time>2015-10-31T16:20:47Z</time>
      </trkpt>
      <trkpt lat="44.44485" lon="1.60346">
        <ele>300.7</ele>
        <time>2015-10-31T16:20:48Z</time>
      </trkpt>
      <trkpt lat="44.44479" lon="1.60348">
        <ele>300.8</ele>
        <time>2015-10-31T16:20:50Z</time>
      </trkpt>
      <trkpt lat="44.44477" lon="1.60348">
        <ele>300.8</ele>
        <time>2015-10-31T16:20:51Z</time>
      </trkpt>
      <trkpt lat="44.44474" lon="1.60349">
        <ele>300.9</ele>
        <time>2015-10-31T16:20:52Z</time>
      </trkpt>
      <trkpt lat="44.44471" lon="1.60351">
        <ele>301</ele>
        <time>2015-10-31T16:20:53Z</time>
      </trkpt>
      <trkpt lat="44.44467" lon="1.60353">
        <ele>301.4</ele>
        <time>2015-10-31T16:20:55Z</time>
      </trkpt>
      <trkpt lat="44.44463" lon="1.60356">
        <ele>301.8</ele>
        <time>2015-10-31T16:20:57Z</time>
      </trkpt>
      <trkpt lat="44.44458" lon="1.60358">
        <ele>302.1</ele>
        <time>2015-10-31T16:20:59Z</time>
      </trkpt>
      <trkpt lat="44.44454" lon="1.6036">
        <ele>302</ele>
        <time>2015-10-31T16:21:01Z</time>
      </trkpt>
      <trkpt lat="44.44449" lon="1.60363">
        <ele>301.7</ele>
        <time>2015-10-31T16:21:03Z</time>
      </trkpt>
      <trkpt lat="44.44445" lon="1.60365">
        <ele>301.6</ele>
        <time>2015-10-31T16:21:05Z</time>
      </trkpt>
      <trkpt lat="44.44442" lon="1.60367">
        <ele>301.5</ele>
        <time>2015-10-31T16:21:06Z</time>
      </trkpt>
      <trkpt lat="44.44439" lon="1.60368">
        <ele>301.4</ele>
        <time>2015-10-31T16:21:07Z</time>
      </trkpt>
      <trkpt lat="44.44435" lon="1.60372">
        <ele>301.4</ele>
        <time>2015-10-31T16:21:09Z</time>
      </trkpt>
      <trkpt lat="44.4443" lon="1.60375">
        <ele>301.3</ele>
        <time>2015-10-31T16:21:11Z</time>
      </trkpt>
      <trkpt lat="44.44425" lon="1.60377">
        <ele>300.8</ele>
        <time>2015-10-31T16:21:13Z</time>
      </trkpt>
      <trkpt lat="44.44421" lon="1.60381">
        <ele>300.7</ele>
        <time>2015-10-31T16:21:15Z</time>
      </trkpt>
      <trkpt lat="44.44419" lon="1.60383">
        <ele>300.6</ele>
        <time>2015-10-31T16:21:16Z</time>
      </trkpt>
      <trkpt lat="44.44414" lon="1.60387">
        <ele>300.5</ele>
        <time>2015-10-31T16:21:18Z</time>
      </trkpt>
      <trkpt lat="44.4441" lon="1.6039">
        <ele>300.5</ele>
        <time>2015-10-31T16:21:20Z</time>
      </trkpt>
      <trkpt lat="44.44407" lon="1.60395">
        <ele>300.8</ele>
        <time>2015-10-31T16:21:22Z</time>
      </trkpt>
      <trkpt lat="44.44403" lon="1.604">
        <ele>301.1</ele>
        <time>2015-10-31T16:21:24Z</time>
      </trkpt>
      <trkpt lat="44.444" lon="1.60404">
        <ele>301.2</ele>
        <time>2015-10-31T16:21:26Z</time>
      </trkpt>
      <trkpt lat="44.44396" lon="1.60409">
        <ele>301.4</ele>
        <time>2015-10-31T16:21:28Z</time>
      </trkpt>
      <trkpt lat="44.44392" lon="1.60413">
        <ele>301.5</ele>
        <time>2015-10-31T16:21:30Z</time>
      </trkpt>
      <trkpt lat="44.44388" lon="1.60417">
        <ele>301.6</ele>
        <time>2015-10-31T16:21:32Z</time>
      </trkpt>
      <trkpt lat="44.44384" lon="1.60421">
        <ele>301.7</ele>
        <time>2015-10-31T16:21:34Z</time>
      </trkpt>
      <trkpt lat="44.44381" lon="1.60427">
        <ele>302.3</ele>
        <time>2015-10-31T16:21:36Z</time>
      </trkpt>
      <trkpt lat="44.44379" lon="1.60434">
        <ele>303.1</ele>
        <time>2015-10-31T16:21:38Z</time>
      </trkpt>
      <trkpt lat="44.44377" lon="1.60437">
        <ele>303.5</ele>
        <time>2015-10-31T16:21:39Z</time>
      </trkpt>
      <trkpt lat="44.44376" lon="1.6044">
        <ele>303.8</ele>
        <time>2015-10-31T16:21:40Z</time>
      </trkpt>
      <trkpt lat="44.44374" lon="1.60443">
        <ele>304.4</ele>
        <time>2015-10-31T16:21:41Z</time>
      </trkpt>
      <trkpt lat="44.44372" lon="1.60447">
        <ele>305.2</ele>
        <time>2015-10-31T16:21:42Z</time>
      </trkpt>
      <trkpt lat="44.4437" lon="1.60453">
        <ele>306.6</ele>
        <time>2015-10-31T16:21:44Z</time>
      </trkpt>
      <trkpt lat="44.44368" lon="1.60459">
        <ele>307.9</ele>
        <time>2015-10-31T16:21:46Z</time>
      </trkpt>
      <trkpt lat="44.44367" lon="1.60462">
        <ele>308.6</ele>
        <time>2015-10-31T16:21:47Z</time>
      </trkpt>
      <trkpt lat="44.44364" lon="1.60468">
        <ele>309.9</ele>
        <time>2015-10-31T16:21:49Z</time>
      </trkpt>
      <trkpt lat="44.44362" lon="1.60472">
        <ele>310.7</ele>
        <time>2015-10-31T16:21:50Z</time>
      </trkpt>
      <trkpt lat="44.44361" lon="1.60475">
        <ele>311.4</ele>
        <time>2015-10-31T16:21:51Z</time>
      </trkpt>
      <trkpt lat="44.4436" lon="1.60483">
        <ele>312.8</ele>
        <time>2015-10-31T16:21:53Z</time>
      </trkpt>
      <trkpt lat="44.44359" lon="1.60489">
        <ele>313.9</ele>
        <time>2015-10-31T16:21:55Z</time>
      </trkpt>
      <trkpt lat="44.44358" lon="1.60496">
        <ele>315.1</ele>
        <time>2015-10-31T16:21:57Z</time>
      </trkpt>
      <trkpt lat="44.44356" lon="1.60502">
        <ele>316.4</ele>
        <time>2015-10-31T16:21:59Z</time>
      </trkpt>
      <trkpt lat="44.44355" lon="1.60508">
        <ele>317.6</ele>
        <time>2015-10-31T16:22:01Z</time>
      </trkpt>
      <trkpt lat="44.44353" lon="1.60514">
        <ele>318.7</ele>
        <time>2015-10-31T16:22:03Z</time>
      </trkpt>
      <trkpt lat="44.44351" lon="1.6052">
        <ele>319.7</ele>
        <time>2015-10-31T16:22:05Z</time>
      </trkpt>
      <trkpt lat="44.4435" lon="1.60526">
        <ele>321</ele>
        <time>2015-10-31T16:22:07Z</time>
      </trkpt>
      <trkpt lat="44.44348" lon="1.60532">
        <ele>322.1</ele>
        <time>2015-10-31T16:22:09Z</time>
      </trkpt>
      <trkpt lat="44.44346" lon="1.60538">
        <ele>323.3</ele>
        <time>2015-10-31T16:22:11Z</time>
      </trkpt>
      <trkpt lat="44.44342" lon="1.60543">
        <ele>324.4</ele>
        <time>2015-10-31T16:22:13Z</time>
      </trkpt>
      <trkpt lat="44.44338" lon="1.60547">
        <ele>325.3</ele>
        <time>2015-10-31T16:22:15Z</time>
      </trkpt>
      <trkpt lat="44.44334" lon="1.60551">
        <ele>326.3</ele>
        <time>2015-10-31T16:22:17Z</time>
      </trkpt>
      <trkpt lat="44.44331" lon="1.60555">
        <ele>327.2</ele>
        <time>2015-10-31T16:22:19Z</time>
      </trkpt>
      <trkpt lat="44.44327" lon="1.60558">
        <ele>327.9</ele>
        <time>2015-10-31T16:22:21Z</time>
      </trkpt>
      <trkpt lat="44.44322" lon="1.6056">
        <ele>328.6</ele>
        <time>2015-10-31T16:22:23Z</time>
      </trkpt>
      <trkpt lat="44.44319" lon="1.60562">
        <ele>329.1</ele>
        <time>2015-10-31T16:22:24Z</time>
      </trkpt>
      <trkpt lat="44.44317" lon="1.60564">
        <ele>329.6</ele>
        <time>2015-10-31T16:22:25Z</time>
      </trkpt>
      <trkpt lat="44.44313" lon="1.6057">
        <ele>330.8</ele>
        <time>2015-10-31T16:22:27Z</time>
      </trkpt>
      <trkpt lat="44.44311" lon="1.60573">
        <ele>331.3</ele>
        <time>2015-10-31T16:22:28Z</time>
      </trkpt>
      <trkpt lat="44.44308" lon="1.60575">
        <ele>331.7</ele>
        <time>2015-10-31T16:22:29Z</time>
      </trkpt>
      <trkpt lat="44.44303" lon="1.60577">
        <ele>332.4</ele>
        <time>2015-10-31T16:22:31Z</time>
      </trkpt>
      <trkpt lat="44.44298" lon="1.60579">
        <ele>333</ele>
        <time>2015-10-31T16:22:33Z</time>
      </trkpt>
      <trkpt lat="44.44293" lon="1.60577">
        <ele>333.1</ele>
        <time>2015-10-31T16:22:34Z</time>
      </trkpt>
      <trkpt lat="44.4429" lon="1.60576">
        <ele>333.2</ele>
        <time>2015-10-31T16:22:35Z</time>
      </trkpt>
      <trkpt lat="44.44287" lon="1.60575">
        <ele>333.3</ele>
        <time>2015-10-31T16:22:36Z</time>
      </trkpt>
      <trkpt lat="44.44282" lon="1.60573">
        <ele>333.5</ele>
        <time>2015-10-31T16:22:38Z</time>
      </trkpt>
      <trkpt lat="44.4428" lon="1.60571">
        <ele>333.4</ele>
        <time>2015-10-31T16:22:39Z</time>
      </trkpt>
      <trkpt lat="44.44277" lon="1.6057">
        <ele>333.4</ele>
        <time>2015-10-31T16:22:40Z</time>
      </trkpt>
      <trkpt lat="44.44275" lon="1.60568">
        <ele>333.4</ele>
        <time>2015-10-31T16:22:41Z</time>
      </trkpt>
      <trkpt lat="44.44272" lon="1.60566">
        <ele>333.3</ele>
        <time>2015-10-31T16:22:42Z</time>
      </trkpt>
      <trkpt lat="44.4427" lon="1.60564">
        <ele>333.2</ele>
        <time>2015-10-31T16:22:43Z</time>
      </trkpt>
      <trkpt lat="44.44268" lon="1.60561">
        <ele>333</ele>
        <time>2015-10-31T16:22:44Z</time>
      </trkpt>
      <trkpt lat="44.44266" lon="1.60559">
        <ele>332.8</ele>
        <time>2015-10-31T16:22:45Z</time>
      </trkpt>
      <trkpt lat="44.44264" lon="1.60556">
        <ele>332.5</ele>
        <time>2015-10-31T16:22:46Z</time>
      </trkpt>
      <trkpt lat="44.44262" lon="1.60553">
        <ele>332.3</ele>
        <time>2015-10-31T16:22:47Z</time>
      </trkpt>
      <trkpt lat="44.4426" lon="1.60549">
        <ele>331.9</ele>
        <time>2015-10-31T16:22:48Z</time>
      </trkpt>
      <trkpt lat="44.44259" lon="1.60546">
        <ele>331.6</ele>
        <time>2015-10-31T16:22:49Z</time>
      </trkpt>
      <trkpt lat="44.44257" lon="1.60539">
        <ele>330.7</ele>
        <time>2015-10-31T16:22:51Z</time>
      </trkpt>
      <trkpt lat="44.44257" lon="1.60535">
        <ele>330.1</ele>
        <time>2015-10-31T16:22:53Z</time>
      </trkpt>
      <trkpt lat="44.44255" lon="1.60528">
        <ele>329</ele>
        <time>2015-10-31T16:23:48Z</time>
      </trkpt>
      <trkpt lat="44.44253" lon="1.60525">
        <ele>328.6</ele>
        <time>2015-10-31T16:23:50Z</time>
      </trkpt>
      <trkpt lat="44.44249" lon="1.60523">
        <ele>328.4</ele>
        <time>2015-10-31T16:23:53Z</time>
      </trkpt>
      <trkpt lat="44.44247" lon="1.6052">
        <ele>328</ele>
        <time>2015-10-31T16:23:55Z</time>
      </trkpt>
      <trkpt lat="44.44245" lon="1.60516">
        <ele>327.5</ele>
        <time>2015-10-31T16:23:57Z</time>
      </trkpt>
      <trkpt lat="44.44243" lon="1.60512">
        <ele>326.8</ele>
        <time>2015-10-31T16:23:59Z</time>
      </trkpt>
      <trkpt lat="44.44241" lon="1.60509">
        <ele>326.3</ele>
        <time>2015-10-31T16:24:01Z</time>
      </trkpt>
      <trkpt lat="44.44239" lon="1.60505">
        <ele>325.8</ele>
        <time>2015-10-31T16:24:03Z</time>
      </trkpt>
      <trkpt lat="44.44236" lon="1.60502">
        <ele>325.4</ele>
        <time>2015-10-31T16:24:05Z</time>
      </trkpt>
      <trkpt lat="44.44233" lon="1.605">
        <ele>325.1</ele>
        <time>2015-10-31T16:24:07Z</time>
      </trkpt>
      <trkpt lat="44.4423" lon="1.60497">
        <ele>324.6</ele>
        <time>2015-10-31T16:24:09Z</time>
      </trkpt>
      <trkpt lat="44.44226" lon="1.60495">
        <ele>324.4</ele>
        <time>2015-10-31T16:24:11Z</time>
      </trkpt>
      <trkpt lat="44.44221" lon="1.60493">
        <ele>324.3</ele>
        <time>2015-10-31T16:24:13Z</time>
      </trkpt>
      <trkpt lat="44.44216" lon="1.60493">
        <ele>324.4</ele>
        <time>2015-10-31T16:24:15Z</time>
      </trkpt>
      <trkpt lat="44.44211" lon="1.60493">
        <ele>324.5</ele>
        <time>2015-10-31T16:24:17Z</time>
      </trkpt>
      <trkpt lat="44.44206" lon="1.60494">
        <ele>325</ele>
        <time>2015-10-31T16:24:19Z</time>
      </trkpt>
      <trkpt lat="44.44201" lon="1.60496">
        <ele>325.6</ele>
        <time>2015-10-31T16:24:21Z</time>
      </trkpt>
      <trkpt lat="44.44196" lon="1.60497">
        <ele>326.2</ele>
        <time>2015-10-31T16:24:23Z</time>
      </trkpt>
      <trkpt lat="44.44192" lon="1.60498">
        <ele>326.8</ele>
        <time>2015-10-31T16:24:25Z</time>
      </trkpt>
      <trkpt lat="44.44187" lon="1.605">
        <ele>327.3</ele>
        <time>2015-10-31T16:24:27Z</time>
      </trkpt>
      <trkpt lat="44.44183" lon="1.60501">
        <ele>327.9</ele>
        <time>2015-10-31T16:24:29Z</time>
      </trkpt>
      <trkpt lat="44.44178" lon="1.60503">
        <ele>328.5</ele>
        <time>2015-10-31T16:24:31Z</time>
      </trkpt>
      <trkpt lat="44.44174" lon="1.60504">
        <ele>329</ele>
        <time>2015-10-31T16:24:33Z</time>
      </trkpt>
      <trkpt lat="44.4417" lon="1.60505">
        <ele>329.3</ele>
        <time>2015-10-31T16:24:35Z</time>
      </trkpt>
      <trkpt lat="44.44166" lon="1.60506">
        <ele>329.7</ele>
        <time>2015-10-31T16:24:37Z</time>
      </trkpt>
      <trkpt lat="44.44162" lon="1.60507">
        <ele>330.1</ele>
        <time>2015-10-31T16:24:39Z</time>
      </trkpt>
      <trkpt lat="44.44158" lon="1.60508">
        <ele>330.5</ele>
        <time>2015-10-31T16:24:41Z</time>
      </trkpt>
      <trkpt lat="44.44154" lon="1.6051">
        <ele>331</ele>
        <time>2015-10-31T16:24:43Z</time>
      </trkpt>
      <trkpt lat="44.4415" lon="1.60512">
        <ele>331.4</ele>
        <time>2015-10-31T16:24:45Z</time>
      </trkpt>
      <trkpt lat="44.44145" lon="1.60513">
        <ele>331.8</ele>
        <time>2015-10-31T16:24:47Z</time>
      </trkpt>
      <trkpt lat="44.44141" lon="1.60514">
        <ele>332.2</ele>
        <time>2015-10-31T16:24:49Z</time>
      </trkpt>
      <trkpt lat="44.44137" lon="1.60517">
        <ele>332.7</ele>
        <time>2015-10-31T16:24:51Z</time>
      </trkpt>
      <trkpt lat="44.44133" lon="1.60518">
        <ele>333.1</ele>
        <time>2015-10-31T16:24:53Z</time>
      </trkpt>
      <trkpt lat="44.44129" lon="1.60519">
        <ele>333.4</ele>
        <time>2015-10-31T16:24:55Z</time>
      </trkpt>
      <trkpt lat="44.44125" lon="1.6052">
        <ele>333.7</ele>
        <time>2015-10-31T16:24:57Z</time>
      </trkpt>
      <trkpt lat="44.44121" lon="1.60521">
        <ele>334.5</ele>
        <time>2015-10-31T16:24:59Z</time>
      </trkpt>
      <trkpt lat="44.44117" lon="1.60521">
        <ele>335.4</ele>
        <time>2015-10-31T16:25:01Z</time>
      </trkpt>
      <trkpt lat="44.44113" lon="1.60522">
        <ele>336.4</ele>
        <time>2015-10-31T16:25:03Z</time>
      </trkpt>
      <trkpt lat="44.44109" lon="1.60523">
        <ele>337.3</ele>
        <time>2015-10-31T16:25:05Z</time>
      </trkpt>
      <trkpt lat="44.44104" lon="1.60524">
        <ele>338.3</ele>
        <time>2015-10-31T16:25:07Z</time>
      </trkpt>
      <trkpt lat="44.441" lon="1.60525">
        <ele>339.3</ele>
        <time>2015-10-31T16:25:09Z</time>
      </trkpt>
      <trkpt lat="44.44095" lon="1.60527">
        <ele>340.3</ele>
        <time>2015-10-31T16:25:11Z</time>
      </trkpt>
      <trkpt lat="44.44091" lon="1.60528">
        <ele>341.2</ele>
        <time>2015-10-31T16:25:13Z</time>
      </trkpt>
      <trkpt lat="44.44087" lon="1.60529">
        <ele>342.1</ele>
        <time>2015-10-31T16:25:15Z</time>
      </trkpt>
      <trkpt lat="44.44082" lon="1.60529">
        <ele>343</ele>
        <time>2015-10-31T16:25:17Z</time>
      </trkpt>
      <trkpt lat="44.44078" lon="1.6053">
        <ele>343.9</ele>
        <time>2015-10-31T16:25:19Z</time>
      </trkpt>
      <trkpt lat="44.44073" lon="1.6053">
        <ele>344.8</ele>
        <time>2015-10-31T16:25:21Z</time>
      </trkpt>
      <trkpt lat="44.44068" lon="1.6053">
        <ele>345.7</ele>
        <time>2015-10-31T16:25:23Z</time>
      </trkpt>
      <trkpt lat="44.44064" lon="1.60531">
        <ele>346.6</ele>
        <time>2015-10-31T16:25:25Z</time>
      </trkpt>
      <trkpt lat="44.44059" lon="1.60531">
        <ele>347.5</ele>
        <time>2015-10-31T16:25:27Z</time>
      </trkpt>
      <trkpt lat="44.44055" lon="1.60532">
        <ele>348.4</ele>
        <time>2015-10-31T16:25:29Z</time>
      </trkpt>
      <trkpt lat="44.4405" lon="1.60533">
        <ele>349.3</ele>
        <time>2015-10-31T16:25:31Z</time>
      </trkpt>
      <trkpt lat="44.44046" lon="1.60535">
        <ele>350.2</ele>
        <time>2015-10-31T16:25:33Z</time>
      </trkpt>
      <trkpt lat="44.44041" lon="1.60535">
        <ele>351</ele>
        <time>2015-10-31T16:25:35Z</time>
      </trkpt>
      <trkpt lat="44.44036" lon="1.60535">
        <ele>351.5</ele>
        <time>2015-10-31T16:25:37Z</time>
      </trkpt>
      <trkpt lat="44.44031" lon="1.60535">
        <ele>352.1</ele>
        <time>2015-10-31T16:25:39Z</time>
      </trkpt>
      <trkpt lat="44.44026" lon="1.60535">
        <ele>352.6</ele>
        <time>2015-10-31T16:25:41Z</time>
      </trkpt>
      <trkpt lat="44.44021" lon="1.60533">
        <ele>353.2</ele>
        <time>2015-10-31T16:25:43Z</time>
      </trkpt>
      <trkpt lat="44.44016" lon="1.60531">
        <ele>353.7</ele>
        <time>2015-10-31T16:25:45Z</time>
      </trkpt>
      <trkpt lat="44.44011" lon="1.60528">
        <ele>354.1</ele>
        <time>2015-10-31T16:25:47Z</time>
      </trkpt>
      <trkpt lat="44.44007" lon="1.60524">
        <ele>354.5</ele>
        <time>2015-10-31T16:25:49Z</time>
      </trkpt>
      <trkpt lat="44.44004" lon="1.60519">
        <ele>354.8</ele>
        <time>2015-10-31T16:25:51Z</time>
      </trkpt>
      <trkpt lat="44.44002" lon="1.60513">
        <ele>354.9</ele>
        <time>2015-10-31T16:25:53Z</time>
      </trkpt>
      <trkpt lat="44.44" lon="1.60508">
        <ele>355.1</ele>
        <time>2015-10-31T16:25:55Z</time>
      </trkpt>
      <trkpt lat="44.43997" lon="1.60502">
        <ele>355.3</ele>
        <time>2015-10-31T16:25:57Z</time>
      </trkpt>
      <trkpt lat="44.43996" lon="1.60499">
        <ele>355.4</ele>
        <time>2015-10-31T16:25:58Z</time>
      </trkpt>
      <trkpt lat="44.43994" lon="1.60495">
        <ele>355.6</ele>
        <time>2015-10-31T16:25:59Z</time>
      </trkpt>
      <trkpt lat="44.43993" lon="1.60491">
        <ele>355.7</ele>
        <time>2015-10-31T16:26:00Z</time>
      </trkpt>
      <trkpt lat="44.43992" lon="1.60487">
        <ele>355.7</ele>
        <time>2015-10-31T16:26:01Z</time>
      </trkpt>
      <trkpt lat="44.43991" lon="1.60482">
        <ele>355.7</ele>
        <time>2015-10-31T16:26:02Z</time>
      </trkpt>
      <trkpt lat="44.43991" lon="1.60478">
        <ele>355.7</ele>
        <time>2015-10-31T16:26:03Z</time>
      </trkpt>
      <trkpt lat="44.43991" lon="1.60474">
        <ele>355.7</ele>
        <time>2015-10-31T16:26:04Z</time>
      </trkpt>
      <trkpt lat="44.43991" lon="1.6047">
        <ele>355.7</ele>
        <time>2015-10-31T16:26:05Z</time>
      </trkpt>
      <trkpt lat="44.43991" lon="1.60466">
        <ele>355.6</ele>
        <time>2015-10-31T16:26:06Z</time>
      </trkpt>
      <trkpt lat="44.43991" lon="1.60462">
        <ele>355.6</ele>
        <time>2015-10-31T16:26:07Z</time>
      </trkpt>
      <trkpt lat="44.43991" lon="1.60458">
        <ele>355.5</ele>
        <time>2015-10-31T16:26:08Z</time>
      </trkpt>
      <trkpt lat="44.43991" lon="1.60455">
        <ele>355.5</ele>
        <time>2015-10-31T16:26:09Z</time>
      </trkpt>
      <trkpt lat="44.43992" lon="1.60451">
        <ele>355.5</ele>
        <time>2015-10-31T16:26:10Z</time>
      </trkpt>
      <trkpt lat="44.43991" lon="1.60447">
        <ele>355.6</ele>
        <time>2015-10-31T16:26:11Z</time>
      </trkpt>
      <trkpt lat="44.43991" lon="1.60443">
        <ele>355.7</ele>
        <time>2015-10-31T16:26:12Z</time>
      </trkpt>
      <trkpt lat="44.43991" lon="1.60439">
        <ele>355.8</ele>
        <time>2015-10-31T16:26:13Z</time>
      </trkpt>
      <trkpt lat="44.4399" lon="1.60435">
        <ele>356</ele>
        <time>2015-10-31T16:26:14Z</time>
      </trkpt>
      <trkpt lat="44.43989" lon="1.60431">
        <ele>356.1</ele>
        <time>2015-10-31T16:26:15Z</time>
      </trkpt>
      <trkpt lat="44.43989" lon="1.60427">
        <ele>356.2</ele>
        <time>2015-10-31T16:26:16Z</time>
      </trkpt>
      <trkpt lat="44.43988" lon="1.60423">
        <ele>356.4</ele>
        <time>2015-10-31T16:26:17Z</time>
      </trkpt>
      <trkpt lat="44.43988" lon="1.60419">
        <ele>356.5</ele>
        <time>2015-10-31T16:26:18Z</time>
      </trkpt>
      <trkpt lat="44.43987" lon="1.60415">
        <ele>356.6</ele>
        <time>2015-10-31T16:26:19Z</time>
      </trkpt>
      <trkpt lat="44.43987" lon="1.60411">
        <ele>356.7</ele>
        <time>2015-10-31T16:26:20Z</time>
      </trkpt>
      <trkpt lat="44.43987" lon="1.60407">
        <ele>356.8</ele>
        <time>2015-10-31T16:26:21Z</time>
      </trkpt>
      <trkpt lat="44.43987" lon="1.60403">
        <ele>356.8</ele>
        <time>2015-10-31T16:26:22Z</time>
      </trkpt>
      <trkpt lat="44.43986" lon="1.60398">
        <ele>357</ele>
        <time>2015-10-31T16:26:23Z</time>
      </trkpt>
      <trkpt lat="44.43985" lon="1.60393">
        <ele>357.1</ele>
        <time>2015-10-31T16:26:24Z</time>
      </trkpt>
      <trkpt lat="44.43985" lon="1.60388">
        <ele>357.3</ele>
        <time>2015-10-31T16:26:25Z</time>
      </trkpt>
      <trkpt lat="44.43984" lon="1.60381">
        <ele>357.4</ele>
        <time>2015-10-31T16:26:26Z</time>
      </trkpt>
      <trkpt lat="44.43984" lon="1.60371">
        <ele>357.4</ele>
        <time>2015-10-31T16:26:27Z</time>
      </trkpt>
      <trkpt lat="44.43982" lon="1.60364">
        <ele>357.4</ele>
        <time>2015-10-31T16:26:28Z</time>
      </trkpt>
      <trkpt lat="44.4398" lon="1.60356">
        <ele>357.2</ele>
        <time>2015-10-31T16:26:29Z</time>
      </trkpt>
      <trkpt lat="44.43982" lon="1.60349">
        <ele>356.8</ele>
        <time>2015-10-31T16:26:30Z</time>
      </trkpt>
      <trkpt lat="44.43981" lon="1.60343">
        <ele>356.7</ele>
        <time>2015-10-31T16:26:31Z</time>
      </trkpt>
      <trkpt lat="44.4398" lon="1.60335">
        <ele>356.5</ele>
        <time>2015-10-31T16:26:32Z</time>
      </trkpt>
      <trkpt lat="44.43979" lon="1.60327">
        <ele>356.3</ele>
        <time>2015-10-31T16:26:33Z</time>
      </trkpt>
      <trkpt lat="44.43978" lon="1.60321">
        <ele>356.2</ele>
        <time>2015-10-31T16:26:34Z</time>
      </trkpt>
      <trkpt lat="44.43976" lon="1.60313">
        <ele>356.1</ele>
        <time>2015-10-31T16:26:35Z</time>
      </trkpt>
      <trkpt lat="44.43974" lon="1.60305">
        <ele>356</ele>
        <time>2015-10-31T16:26:36Z</time>
      </trkpt>
      <trkpt lat="44.43972" lon="1.60296">
        <ele>355.8</ele>
        <time>2015-10-31T16:26:37Z</time>
      </trkpt>
      <trkpt lat="44.4397" lon="1.60288">
        <ele>355.8</ele>
        <time>2015-10-31T16:26:38Z</time>
      </trkpt>
      <trkpt lat="44.43967" lon="1.60282">
        <ele>356.1</ele>
        <time>2015-10-31T16:26:39Z</time>
      </trkpt>
      <trkpt lat="44.43963" lon="1.60274">
        <ele>356.4</ele>
        <time>2015-10-31T16:26:40Z</time>
      </trkpt>
      <trkpt lat="44.43957" lon="1.6027">
        <ele>356.7</ele>
        <time>2015-10-31T16:26:41Z</time>
      </trkpt>
      <trkpt lat="44.43951" lon="1.60265">
        <ele>356.6</ele>
        <time>2015-10-31T16:26:42Z</time>
      </trkpt>
      <trkpt lat="44.43944" lon="1.60261">
        <ele>356.5</ele>
        <time>2015-10-31T16:26:43Z</time>
      </trkpt>
      <trkpt lat="44.43939" lon="1.6026">
        <ele>356.5</ele>
        <time>2015-10-31T16:26:44Z</time>
      </trkpt>
      <trkpt lat="44.43935" lon="1.60259">
        <ele>356.4</ele>
        <time>2015-10-31T16:26:45Z</time>
      </trkpt>
      <trkpt lat="44.43931" lon="1.60258">
        <ele>356.4</ele>
        <time>2015-10-31T16:26:46Z</time>
      </trkpt>
      <trkpt lat="44.43927" lon="1.60259">
        <ele>356.4</ele>
        <time>2015-10-31T16:26:48Z</time>
      </trkpt>
      <trkpt lat="44.43923" lon="1.60262">
        <ele>356.4</ele>
        <time>2015-10-31T16:26:50Z</time>
      </trkpt>
      <trkpt lat="44.43921" lon="1.60268">
        <ele>356.4</ele>
        <time>2015-10-31T16:27:12Z</time>
      </trkpt>
      <trkpt lat="44.43918" lon="1.60272">
        <ele>356.4</ele>
        <time>2015-10-31T16:31:07Z</time>
      </trkpt>
      <trkpt lat="44.43916" lon="1.60276">
        <ele>356.4</ele>
        <time>2015-10-31T16:31:10Z</time>
      </trkpt>
      <trkpt lat="44.43914" lon="1.60279">
        <ele>356.4</ele>
        <time>2015-10-31T16:31:11Z</time>
      </trkpt>
      <trkpt lat="44.4391" lon="1.60285">
        <ele>356.4</ele>
        <time>2015-10-31T16:31:13Z</time>
      </trkpt>
      <trkpt lat="44.43906" lon="1.60289">
        <ele>356.4</ele>
        <time>2015-10-31T16:31:15Z</time>
      </trkpt>
      <trkpt lat="44.43902" lon="1.60293">
        <ele>356.4</ele>
        <time>2015-10-31T16:31:17Z</time>
      </trkpt>
      <trkpt lat="44.43899" lon="1.60295">
        <ele>356.4</ele>
        <time>2015-10-31T16:31:18Z</time>
      </trkpt>
      <trkpt lat="44.43896" lon="1.60298">
        <ele>356.4</ele>
        <time>2015-10-31T16:31:19Z</time>
      </trkpt>
      <trkpt lat="44.43894" lon="1.60302">
        <ele>356.5</ele>
        <time>2015-10-31T16:31:20Z</time>
      </trkpt>
      <trkpt lat="44.43891" lon="1.60305">
        <ele>356.5</ele>
        <time>2015-10-31T16:31:21Z</time>
      </trkpt>
      <trkpt lat="44.43889" lon="1.60307">
        <ele>356.6</ele>
        <time>2015-10-31T16:31:22Z</time>
      </trkpt>
      <trkpt lat="44.43886" lon="1.60309">
        <ele>356.6</ele>
        <time>2015-10-31T16:31:23Z</time>
      </trkpt>
      <trkpt lat="44.43884" lon="1.60311">
        <ele>356.6</ele>
        <time>2015-10-31T16:31:24Z</time>
      </trkpt>
      <trkpt lat="44.43881" lon="1.60314">
        <ele>356.6</ele>
        <time>2015-10-31T16:31:25Z</time>
      </trkpt>
      <trkpt lat="44.43879" lon="1.60316">
        <ele>356.6</ele>
        <time>2015-10-31T16:31:26Z</time>
      </trkpt>
      <trkpt lat="44.43877" lon="1.60318">
        <ele>356.7</ele>
        <time>2015-10-31T16:31:27Z</time>
      </trkpt>
      <trkpt lat="44.43874" lon="1.6032">
        <ele>356.6</ele>
        <time>2015-10-31T16:31:28Z</time>
      </trkpt>
      <trkpt lat="44.4387" lon="1.60324">
        <ele>356.3</ele>
        <time>2015-10-31T16:31:30Z</time>
      </trkpt>
      <trkpt lat="44.43868" lon="1.60327">
        <ele>356.1</ele>
        <time>2015-10-31T16:31:31Z</time>
      </trkpt>
      <trkpt lat="44.43865" lon="1.60329">
        <ele>356</ele>
        <time>2015-10-31T16:31:32Z</time>
      </trkpt>
      <trkpt lat="44.43863" lon="1.60332">
        <ele>355.8</ele>
        <time>2015-10-31T16:31:33Z</time>
      </trkpt>
      <trkpt lat="44.4386" lon="1.60335">
        <ele>355.6</ele>
        <time>2015-10-31T16:31:34Z</time>
      </trkpt>
      <trkpt lat="44.43858" lon="1.60337">
        <ele>355.5</ele>
        <time>2015-10-31T16:31:35Z</time>
      </trkpt>
      <trkpt lat="44.43855" lon="1.6034">
        <ele>355.3</ele>
        <time>2015-10-31T16:31:36Z</time>
      </trkpt>
      <trkpt lat="44.43852" lon="1.60343">
        <ele>355.1</ele>
        <time>2015-10-31T16:31:37Z</time>
      </trkpt>
      <trkpt lat="44.43848" lon="1.60345">
        <ele>354.8</ele>
        <time>2015-10-31T16:31:38Z</time>
      </trkpt>
      <trkpt lat="44.4384" lon="1.6035">
        <ele>354.2</ele>
        <time>2015-10-31T16:31:39Z</time>
      </trkpt>
      <trkpt lat="44.43836" lon="1.60354">
        <ele>353.9</ele>
        <time>2015-10-31T16:31:40Z</time>
      </trkpt>
      <trkpt lat="44.43828" lon="1.60359">
        <ele>353.4</ele>
        <time>2015-10-31T16:31:41Z</time>
      </trkpt>
      <trkpt lat="44.43822" lon="1.60364">
        <ele>353.1</ele>
        <time>2015-10-31T16:31:42Z</time>
      </trkpt>
      <trkpt lat="44.43816" lon="1.60365">
        <ele>352.7</ele>
        <time>2015-10-31T16:31:43Z</time>
      </trkpt>
      <trkpt lat="44.4381" lon="1.60367">
        <ele>352.2</ele>
        <time>2015-10-31T16:31:44Z</time>
      </trkpt>
      <trkpt lat="44.43802" lon="1.60365">
        <ele>351.4</ele>
        <time>2015-10-31T16:31:45Z</time>
      </trkpt>
      <trkpt lat="44.43794" lon="1.60367">
        <ele>350.8</ele>
        <time>2015-10-31T16:31:46Z</time>
      </trkpt>
      <trkpt lat="44.43787" lon="1.60367">
        <ele>350.3</ele>
        <time>2015-10-31T16:31:47Z</time>
      </trkpt>
      <trkpt lat="44.43778" lon="1.60366">
        <ele>349.7</ele>
        <time>2015-10-31T16:31:48Z</time>
      </trkpt>
      <trkpt lat="44.4377" lon="1.60367">
        <ele>349.2</ele>
        <time>2015-10-31T16:31:49Z</time>
      </trkpt>
      <trkpt lat="44.43763" lon="1.60368">
        <ele>348.8</ele>
        <time>2015-10-31T16:31:50Z</time>
      </trkpt>
      <trkpt lat="44.43754" lon="1.60366">
        <ele>348.1</ele>
        <time>2015-10-31T16:31:51Z</time>
      </trkpt>
      <trkpt lat="44.43744" lon="1.60366">
        <ele>347.5</ele>
        <time>2015-10-31T16:31:52Z</time>
      </trkpt>
      <trkpt lat="44.43734" lon="1.60367">
        <ele>346.9</ele>
        <time>2015-10-31T16:31:53Z</time>
      </trkpt>
      <trkpt lat="44.43723" lon="1.60368">
        <ele>346.3</ele>
        <time>2015-10-31T16:31:54Z</time>
      </trkpt>
      <trkpt lat="44.43712" lon="1.60367">
        <ele>345.5</ele>
        <time>2015-10-31T16:31:55Z</time>
      </trkpt>
      <trkpt lat="44.43707" lon="1.60363">
        <ele>344.8</ele>
        <time>2015-10-31T16:31:56Z</time>
      </trkpt>
      <trkpt lat="44.43697" lon="1.60357">
        <ele>343.8</ele>
        <time>2015-10-31T16:31:57Z</time>
      </trkpt>
      <trkpt lat="44.43687" lon="1.60357">
        <ele>343.3</ele>
        <time>2015-10-31T16:31:58Z</time>
      </trkpt>
      <trkpt lat="44.43675" lon="1.60352">
        <ele>342.3</ele>
        <time>2015-10-31T16:31:59Z</time>
      </trkpt>
      <trkpt lat="44.43665" lon="1.60348">
        <ele>341.6</ele>
        <time>2015-10-31T16:32:00Z</time>
      </trkpt>
      <trkpt lat="44.43655" lon="1.60347">
        <ele>340.9</ele>
        <time>2015-10-31T16:32:01Z</time>
      </trkpt>
      <trkpt lat="44.43646" lon="1.60342">
        <ele>340</ele>
        <time>2015-10-31T16:32:02Z</time>
      </trkpt>
      <trkpt lat="44.43637" lon="1.60336">
        <ele>338.9</ele>
        <time>2015-10-31T16:32:03Z</time>
      </trkpt>
      <trkpt lat="44.43626" lon="1.60331">
        <ele>337.8</ele>
        <time>2015-10-31T16:32:04Z</time>
      </trkpt>
      <trkpt lat="44.43614" lon="1.60323">
        <ele>336.9</ele>
        <time>2015-10-31T16:32:05Z</time>
      </trkpt>
      <trkpt lat="44.43603" lon="1.60315">
        <ele>336.4</ele>
        <time>2015-10-31T16:32:06Z</time>
      </trkpt>
      <trkpt lat="44.43593" lon="1.60307">
        <ele>335.7</ele>
        <time>2015-10-31T16:32:07Z</time>
      </trkpt>
      <trkpt lat="44.43582" lon="1.60298">
        <ele>335.2</ele>
        <time>2015-10-31T16:32:08Z</time>
      </trkpt>
      <trkpt lat="44.43572" lon="1.6029">
        <ele>334.7</ele>
        <time>2015-10-31T16:32:09Z</time>
      </trkpt>
      <trkpt lat="44.43564" lon="1.60278">
        <ele>333.9</ele>
        <time>2015-10-31T16:32:10Z</time>
      </trkpt>
      <trkpt lat="44.43556" lon="1.60266">
        <ele>333</ele>
        <time>2015-10-31T16:32:11Z</time>
      </trkpt>
      <trkpt lat="44.43548" lon="1.60255">
        <ele>332.2</ele>
        <time>2015-10-31T16:32:12Z</time>
      </trkpt>
      <trkpt lat="44.43538" lon="1.60244">
        <ele>331.4</ele>
        <time>2015-10-31T16:32:13Z</time>
      </trkpt>
      <trkpt lat="44.43529" lon="1.60235">
        <ele>330.8</ele>
        <time>2015-10-31T16:32:14Z</time>
      </trkpt>
      <trkpt lat="44.4352" lon="1.60225">
        <ele>330.3</ele>
        <time>2015-10-31T16:32:15Z</time>
      </trkpt>
      <trkpt lat="44.43509" lon="1.60216">
        <ele>330</ele>
        <time>2015-10-31T16:32:16Z</time>
      </trkpt>
      <trkpt lat="44.43498" lon="1.60206">
        <ele>329.8</ele>
        <time>2015-10-31T16:32:17Z</time>
      </trkpt>
      <trkpt lat="44.43488" lon="1.60196">
        <ele>329.3</ele>
        <time>2015-10-31T16:32:18Z</time>
      </trkpt>
      <trkpt lat="44.43479" lon="1.60185">
        <ele>328.7</ele>
        <time>2015-10-31T16:32:19Z</time>
      </trkpt>
      <trkpt lat="44.43473" lon="1.60171">
        <ele>327.8</ele>
        <time>2015-10-31T16:32:20Z</time>
      </trkpt>
      <trkpt lat="44.43464" lon="1.60158">
        <ele>327.3</ele>
        <time>2015-10-31T16:32:21Z</time>
      </trkpt>
      <trkpt lat="44.43455" lon="1.60148">
        <ele>326.9</ele>
        <time>2015-10-31T16:32:22Z</time>
      </trkpt>
      <trkpt lat="44.43446" lon="1.60138">
        <ele>326</ele>
        <time>2015-10-31T16:32:23Z</time>
      </trkpt>
      <trkpt lat="44.43436" lon="1.60128">
        <ele>325.5</ele>
        <time>2015-10-31T16:32:24Z</time>
      </trkpt>
      <trkpt lat="44.43426" lon="1.60115">
        <ele>323.9</ele>
        <time>2015-10-31T16:32:25Z</time>
      </trkpt>
      <trkpt lat="44.43416" lon="1.60103">
        <ele>322.3</ele>
        <time>2015-10-31T16:32:26Z</time>
      </trkpt>
      <trkpt lat="44.43406" lon="1.60092">
        <ele>321</ele>
        <time>2015-10-31T16:32:27Z</time>
      </trkpt>
      <trkpt lat="44.43397" lon="1.60082">
        <ele>319.8</ele>
        <time>2015-10-31T16:32:28Z</time>
      </trkpt>
      <trkpt lat="44.43388" lon="1.6007">
        <ele>318.4</ele>
        <time>2015-10-31T16:32:29Z</time>
      </trkpt>
      <trkpt lat="44.43379" lon="1.6006">
        <ele>317.2</ele>
        <time>2015-10-31T16:32:30Z</time>
      </trkpt>
      <trkpt lat="44.4337" lon="1.6005">
        <ele>316.4</ele>
        <time>2015-10-31T16:32:31Z</time>
      </trkpt>
      <trkpt lat="44.4336" lon="1.60043">
        <ele>316.2</ele>
        <time>2015-10-31T16:32:32Z</time>
      </trkpt>
      <trkpt lat="44.4335" lon="1.6004">
        <ele>316.4</ele>
        <time>2015-10-31T16:32:33Z</time>
      </trkpt>
      <trkpt lat="44.43339" lon="1.60033">
        <ele>316.2</ele>
        <time>2015-10-31T16:32:34Z</time>
      </trkpt>
      <trkpt lat="44.43329" lon="1.60025">
        <ele>315.7</ele>
        <time>2015-10-31T16:32:35Z</time>
      </trkpt>
      <trkpt lat="44.43319" lon="1.60017">
        <ele>315.3</ele>
        <time>2015-10-31T16:32:36Z</time>
      </trkpt>
      <trkpt lat="44.43308" lon="1.60009">
        <ele>315</ele>
        <time>2015-10-31T16:32:37Z</time>
      </trkpt>
      <trkpt lat="44.43301" lon="1.59997">
        <ele>313.8</ele>
        <time>2015-10-31T16:32:38Z</time>
      </trkpt>
      <trkpt lat="44.43291" lon="1.59985">
        <ele>312.8</ele>
        <time>2015-10-31T16:32:39Z</time>
      </trkpt>
      <trkpt lat="44.43283" lon="1.59973">
        <ele>311.9</ele>
        <time>2015-10-31T16:32:40Z</time>
      </trkpt>
      <trkpt lat="44.43275" lon="1.59962">
        <ele>311.3</ele>
        <time>2015-10-31T16:32:41Z</time>
      </trkpt>
      <trkpt lat="44.43267" lon="1.59951">
        <ele>310.6</ele>
        <time>2015-10-31T16:32:42Z</time>
      </trkpt>
      <trkpt lat="44.43259" lon="1.5994">
        <ele>310</ele>
        <time>2015-10-31T16:32:43Z</time>
      </trkpt>
      <trkpt lat="44.43252" lon="1.59932">
        <ele>309.6</ele>
        <time>2015-10-31T16:32:44Z</time>
      </trkpt>
      <trkpt lat="44.43245" lon="1.59923">
        <ele>308.9</ele>
        <time>2015-10-31T16:32:45Z</time>
      </trkpt>
      <trkpt lat="44.43239" lon="1.59917">
        <ele>308.5</ele>
        <time>2015-10-31T16:32:46Z</time>
      </trkpt>
      <trkpt lat="44.43231" lon="1.59908">
        <ele>308</ele>
        <time>2015-10-31T16:32:47Z</time>
      </trkpt>
      <trkpt lat="44.43222" lon="1.59901">
        <ele>307.8</ele>
        <time>2015-10-31T16:32:48Z</time>
      </trkpt>
      <trkpt lat="44.43213" lon="1.59893">
        <ele>307.4</ele>
        <time>2015-10-31T16:32:49Z</time>
      </trkpt>
      <trkpt lat="44.43203" lon="1.59887">
        <ele>307.6</ele>
        <time>2015-10-31T16:32:50Z</time>
      </trkpt>
      <trkpt lat="44.43193" lon="1.5988">
        <ele>308</ele>
        <time>2015-10-31T16:32:51Z</time>
      </trkpt>
      <trkpt lat="44.43185" lon="1.59869">
        <ele>307.7</ele>
        <time>2015-10-31T16:32:52Z</time>
      </trkpt>
      <trkpt lat="44.43177" lon="1.5986">
        <ele>307.7</ele>
        <time>2015-10-31T16:32:53Z</time>
      </trkpt>
      <trkpt lat="44.43166" lon="1.59852">
        <ele>308</ele>
        <time>2015-10-31T16:32:54Z</time>
      </trkpt>
      <trkpt lat="44.43158" lon="1.59841">
        <ele>307.4</ele>
        <time>2015-10-31T16:32:55Z</time>
      </trkpt>
      <trkpt lat="44.43153" lon="1.59826">
        <ele>305.7</ele>
        <time>2015-10-31T16:32:56Z</time>
      </trkpt>
      <trkpt lat="44.4315" lon="1.5981">
        <ele>303.3</ele>
        <time>2015-10-31T16:32:57Z</time>
      </trkpt>
      <trkpt lat="44.43147" lon="1.59795">
        <ele>301.2</ele>
        <time>2015-10-31T16:32:58Z</time>
      </trkpt>
      <trkpt lat="44.43141" lon="1.59779">
        <ele>300</ele>
        <time>2015-10-31T16:32:59Z</time>
      </trkpt>
      <trkpt lat="44.43134" lon="1.59764">
        <ele>299.1</ele>
        <time>2015-10-31T16:33:00Z</time>
      </trkpt>
      <trkpt lat="44.43127" lon="1.59751">
        <ele>298.4</ele>
        <time>2015-10-31T16:33:01Z</time>
      </trkpt>
      <trkpt lat="44.43122" lon="1.59736">
        <ele>297.1</ele>
        <time>2015-10-31T16:33:02Z</time>
      </trkpt>
      <trkpt lat="44.43116" lon="1.59724">
        <ele>295.8</ele>
        <time>2015-10-31T16:33:03Z</time>
      </trkpt>
      <trkpt lat="44.43107" lon="1.5971">
        <ele>294.4</ele>
        <time>2015-10-31T16:33:04Z</time>
      </trkpt>
      <trkpt lat="44.43099" lon="1.59698">
        <ele>293.2</ele>
        <time>2015-10-31T16:33:05Z</time>
      </trkpt>
      <trkpt lat="44.43093" lon="1.59683">
        <ele>291.7</ele>
        <time>2015-10-31T16:33:06Z</time>
      </trkpt>
      <trkpt lat="44.43087" lon="1.59666">
        <ele>290</ele>
        <time>2015-10-31T16:33:07Z</time>
      </trkpt>
      <trkpt lat="44.43081" lon="1.59651">
        <ele>288.8</ele>
        <time>2015-10-31T16:33:08Z</time>
      </trkpt>
      <trkpt lat="44.43076" lon="1.59636">
        <ele>287.4</ele>
        <time>2015-10-31T16:33:09Z</time>
      </trkpt>
      <trkpt lat="44.4307" lon="1.59621">
        <ele>286.3</ele>
        <time>2015-10-31T16:33:10Z</time>
      </trkpt>
      <trkpt lat="44.43063" lon="1.59604">
        <ele>285.2</ele>
        <time>2015-10-31T16:33:11Z</time>
      </trkpt>
      <trkpt lat="44.43056" lon="1.5959">
        <ele>284.5</ele>
        <time>2015-10-31T16:33:12Z</time>
      </trkpt>
      <trkpt lat="44.43049" lon="1.59577">
        <ele>283.7</ele>
        <time>2015-10-31T16:33:13Z</time>
      </trkpt>
      <trkpt lat="44.43038" lon="1.59565">
        <ele>282.7</ele>
        <time>2015-10-31T16:33:14Z</time>
      </trkpt>
      <trkpt lat="44.43028" lon="1.5955">
        <ele>281</ele>
        <time>2015-10-31T16:33:15Z</time>
      </trkpt>
      <trkpt lat="44.43018" lon="1.59539">
        <ele>279.7</ele>
        <time>2015-10-31T16:33:16Z</time>
      </trkpt>
      <trkpt lat="44.4301" lon="1.59527">
        <ele>278.9</ele>
        <time>2015-10-31T16:33:17Z</time>
      </trkpt>
      <trkpt lat="44.43" lon="1.59511">
        <ele>277.9</ele>
        <time>2015-10-31T16:33:18Z</time>
      </trkpt>
      <trkpt lat="44.4299" lon="1.59497">
        <ele>277.2</ele>
        <time>2015-10-31T16:33:19Z</time>
      </trkpt>
      <trkpt lat="44.42982" lon="1.59483">
        <ele>276.6</ele>
        <time>2015-10-31T16:33:20Z</time>
      </trkpt>
      <trkpt lat="44.42978" lon="1.59469">
        <ele>276.3</ele>
        <time>2015-10-31T16:33:21Z</time>
      </trkpt>
      <trkpt lat="44.42972" lon="1.59456">
        <ele>276</ele>
        <time>2015-10-31T16:33:22Z</time>
      </trkpt>
      <trkpt lat="44.42967" lon="1.59441">
        <ele>275.7</ele>
        <time>2015-10-31T16:33:23Z</time>
      </trkpt>
      <trkpt lat="44.4296" lon="1.5943">
        <ele>275.6</ele>
        <time>2015-10-31T16:33:24Z</time>
      </trkpt>
      <trkpt lat="44.42953" lon="1.59414">
        <ele>275</ele>
        <time>2015-10-31T16:33:25Z</time>
      </trkpt>
      <trkpt lat="44.42948" lon="1.59398">
        <ele>274.4</ele>
        <time>2015-10-31T16:33:26Z</time>
      </trkpt>
      <trkpt lat="44.42942" lon="1.59382">
        <ele>273.9</ele>
        <time>2015-10-31T16:33:27Z</time>
      </trkpt>
      <trkpt lat="44.42938" lon="1.59368">
        <ele>273.4</ele>
        <time>2015-10-31T16:33:28Z</time>
      </trkpt>
      <trkpt lat="44.42932" lon="1.59355">
        <ele>272.9</ele>
        <time>2015-10-31T16:33:29Z</time>
      </trkpt>
      <trkpt lat="44.42926" lon="1.5934">
        <ele>272.3</ele>
        <time>2015-10-31T16:33:30Z</time>
      </trkpt>
      <trkpt lat="44.4292" lon="1.59325">
        <ele>271.7</ele>
        <time>2015-10-31T16:33:31Z</time>
      </trkpt>
      <trkpt lat="44.42914" lon="1.59315">
        <ele>271.1</ele>
        <time>2015-10-31T16:33:32Z</time>
      </trkpt>
      <trkpt lat="44.42908" lon="1.59305">
        <ele>270.5</ele>
        <time>2015-10-31T16:33:33Z</time>
      </trkpt>
      <trkpt lat="44.42902" lon="1.59292">
        <ele>269.9</ele>
        <time>2015-10-31T16:33:34Z</time>
      </trkpt>
      <trkpt lat="44.42895" lon="1.59283">
        <ele>269.5</ele>
        <time>2015-10-31T16:33:35Z</time>
      </trkpt>
      <trkpt lat="44.42889" lon="1.59273">
        <ele>269.3</ele>
        <time>2015-10-31T16:33:36Z</time>
      </trkpt>
      <trkpt lat="44.42882" lon="1.5926">
        <ele>269.1</ele>
        <time>2015-10-31T16:33:37Z</time>
      </trkpt>
      <trkpt lat="44.42876" lon="1.59248">
        <ele>269.1</ele>
        <time>2015-10-31T16:33:38Z</time>
      </trkpt>
      <trkpt lat="44.42872" lon="1.59236">
        <ele>269</ele>
        <time>2015-10-31T16:33:39Z</time>
      </trkpt>
      <trkpt lat="44.42868" lon="1.59225">
        <ele>268.9</ele>
        <time>2015-10-31T16:33:40Z</time>
      </trkpt>
      <trkpt lat="44.42863" lon="1.59215">
        <ele>268.7</ele>
        <time>2015-10-31T16:33:41Z</time>
      </trkpt>
      <trkpt lat="44.42858" lon="1.59205">
        <ele>268.4</ele>
        <time>2015-10-31T16:33:42Z</time>
      </trkpt>
      <trkpt lat="44.42853" lon="1.59194">
        <ele>268</ele>
        <time>2015-10-31T16:33:43Z</time>
      </trkpt>
      <trkpt lat="44.42844" lon="1.59182">
        <ele>267.4</ele>
        <time>2015-10-31T16:33:44Z</time>
      </trkpt>
      <trkpt lat="44.42837" lon="1.59171">
        <ele>267.2</ele>
        <time>2015-10-31T16:33:45Z</time>
      </trkpt>
      <trkpt lat="44.42826" lon="1.59159">
        <ele>266.8</ele>
        <time>2015-10-31T16:33:46Z</time>
      </trkpt>
      <trkpt lat="44.42819" lon="1.59149">
        <ele>266.8</ele>
        <time>2015-10-31T16:33:47Z</time>
      </trkpt>
      <trkpt lat="44.42813" lon="1.5914">
        <ele>266.9</ele>
        <time>2015-10-31T16:33:48Z</time>
      </trkpt>
      <trkpt lat="44.42806" lon="1.59131">
        <ele>267</ele>
        <time>2015-10-31T16:33:49Z</time>
      </trkpt>
      <trkpt lat="44.428" lon="1.59123">
        <ele>267.2</ele>
        <time>2015-10-31T16:33:50Z</time>
      </trkpt>
      <trkpt lat="44.42793" lon="1.59116">
        <ele>267</ele>
        <time>2015-10-31T16:33:51Z</time>
      </trkpt>
      <trkpt lat="44.42786" lon="1.59107">
        <ele>266.7</ele>
        <time>2015-10-31T16:33:52Z</time>
      </trkpt>
      <trkpt lat="44.4278" lon="1.591">
        <ele>266.4</ele>
        <time>2015-10-31T16:33:53Z</time>
      </trkpt>
      <trkpt lat="44.42773" lon="1.59092">
        <ele>266.1</ele>
        <time>2015-10-31T16:33:54Z</time>
      </trkpt>
      <trkpt lat="44.42766" lon="1.59084">
        <ele>265.9</ele>
        <time>2015-10-31T16:33:55Z</time>
      </trkpt>
      <trkpt lat="44.4276" lon="1.59077">
        <ele>265.7</ele>
        <time>2015-10-31T16:33:56Z</time>
      </trkpt>
      <trkpt lat="44.42755" lon="1.59069">
        <ele>265.7</ele>
        <time>2015-10-31T16:33:57Z</time>
      </trkpt>
      <trkpt lat="44.42748" lon="1.59061">
        <ele>265.6</ele>
        <time>2015-10-31T16:33:58Z</time>
      </trkpt>
      <trkpt lat="44.42742" lon="1.59054">
        <ele>265.5</ele>
        <time>2015-10-31T16:33:59Z</time>
      </trkpt>
      <trkpt lat="44.42736" lon="1.59047">
        <ele>265.5</ele>
        <time>2015-10-31T16:34:00Z</time>
      </trkpt>
      <trkpt lat="44.42731" lon="1.5904">
        <ele>265.5</ele>
        <time>2015-10-31T16:34:01Z</time>
      </trkpt>
      <trkpt lat="44.42725" lon="1.59034">
        <ele>265.2</ele>
        <time>2015-10-31T16:34:02Z</time>
      </trkpt>
      <trkpt lat="44.4272" lon="1.59026">
        <ele>264.9</ele>
        <time>2015-10-31T16:34:03Z</time>
      </trkpt>
      <trkpt lat="44.42716" lon="1.59017">
        <ele>264.6</ele>
        <time>2015-10-31T16:34:04Z</time>
      </trkpt>
      <trkpt lat="44.42711" lon="1.5901">
        <ele>264.3</ele>
        <time>2015-10-31T16:34:05Z</time>
      </trkpt>
      <trkpt lat="44.42707" lon="1.59001">
        <ele>264</ele>
        <time>2015-10-31T16:34:06Z</time>
      </trkpt>
      <trkpt lat="44.42701" lon="1.58993">
        <ele>263.8</ele>
        <time>2015-10-31T16:34:07Z</time>
      </trkpt>
      <trkpt lat="44.42696" lon="1.58984">
        <ele>263.7</ele>
        <time>2015-10-31T16:34:08Z</time>
      </trkpt>
      <trkpt lat="44.42693" lon="1.58975">
        <ele>263.5</ele>
        <time>2015-10-31T16:34:09Z</time>
      </trkpt>
      <trkpt lat="44.42689" lon="1.58967">
        <ele>263.4</ele>
        <time>2015-10-31T16:34:10Z</time>
      </trkpt>
      <trkpt lat="44.42686" lon="1.58959">
        <ele>263.3</ele>
        <time>2015-10-31T16:34:11Z</time>
      </trkpt>
      <trkpt lat="44.42682" lon="1.58955">
        <ele>263.1</ele>
        <time>2015-10-31T16:34:12Z</time>
      </trkpt>
      <trkpt lat="44.42673" lon="1.58947">
        <ele>262.8</ele>
        <time>2015-10-31T16:34:13Z</time>
      </trkpt>
      <trkpt lat="44.42665" lon="1.58939">
        <ele>262.5</ele>
        <time>2015-10-31T16:34:14Z</time>
      </trkpt>
      <trkpt lat="44.42655" lon="1.58933">
        <ele>262.2</ele>
        <time>2015-10-31T16:34:15Z</time>
      </trkpt>
      <trkpt lat="44.42648" lon="1.58926">
        <ele>261.9</ele>
        <time>2015-10-31T16:34:16Z</time>
      </trkpt>
      <trkpt lat="44.4264" lon="1.58918">
        <ele>261.5</ele>
        <time>2015-10-31T16:34:17Z</time>
      </trkpt>
      <trkpt lat="44.42632" lon="1.58911">
        <ele>261.1</ele>
        <time>2015-10-31T16:34:18Z</time>
      </trkpt>
      <trkpt lat="44.42623" lon="1.58905">
        <ele>260.7</ele>
        <time>2015-10-31T16:34:19Z</time>
      </trkpt>
      <trkpt lat="44.42612" lon="1.58897">
        <ele>259.5</ele>
        <time>2015-10-31T16:34:20Z</time>
      </trkpt>
      <trkpt lat="44.42603" lon="1.58887">
        <ele>258.4</ele>
        <time>2015-10-31T16:34:21Z</time>
      </trkpt>
      <trkpt lat="44.42593" lon="1.58883">
        <ele>257.5</ele>
        <time>2015-10-31T16:34:22Z</time>
      </trkpt>
      <trkpt lat="44.42583" lon="1.58875">
        <ele>256.5</ele>
        <time>2015-10-31T16:34:23Z</time>
      </trkpt>
      <trkpt lat="44.42574" lon="1.58867">
        <ele>255.4</ele>
        <time>2015-10-31T16:34:24Z</time>
      </trkpt>
      <trkpt lat="44.42562" lon="1.58859">
        <ele>254.3</ele>
        <time>2015-10-31T16:34:25Z</time>
      </trkpt>
      <trkpt lat="44.42553" lon="1.58852">
        <ele>253.3</ele>
        <time>2015-10-31T16:34:26Z</time>
      </trkpt>
      <trkpt lat="44.42543" lon="1.58842">
        <ele>252.1</ele>
        <time>2015-10-31T16:34:27Z</time>
      </trkpt>
      <trkpt lat="44.42536" lon="1.58832">
        <ele>251.4</ele>
        <time>2015-10-31T16:34:28Z</time>
      </trkpt>
      <trkpt lat="44.42528" lon="1.58826">
        <ele>251</ele>
        <time>2015-10-31T16:34:29Z</time>
      </trkpt>
      <trkpt lat="44.42518" lon="1.58817">
        <ele>250.5</ele>
        <time>2015-10-31T16:34:30Z</time>
      </trkpt>
      <trkpt lat="44.42506" lon="1.58808">
        <ele>250.1</ele>
        <time>2015-10-31T16:34:31Z</time>
      </trkpt>
      <trkpt lat="44.42495" lon="1.58796">
        <ele>249.7</ele>
        <time>2015-10-31T16:34:32Z</time>
      </trkpt>
      <trkpt lat="44.42486" lon="1.58791">
        <ele>249.7</ele>
        <time>2015-10-31T16:34:33Z</time>
      </trkpt>
      <trkpt lat="44.42475" lon="1.58783">
        <ele>249.8</ele>
        <time>2015-10-31T16:34:34Z</time>
      </trkpt>
      <trkpt lat="44.42464" lon="1.58774">
        <ele>249.9</ele>
        <time>2015-10-31T16:34:35Z</time>
      </trkpt>
      <trkpt lat="44.42453" lon="1.58768">
        <ele>250</ele>
        <time>2015-10-31T16:34:36Z</time>
      </trkpt>
      <trkpt lat="44.42443" lon="1.5876">
        <ele>249.9</ele>
        <time>2015-10-31T16:34:37Z</time>
      </trkpt>
      <trkpt lat="44.42432" lon="1.58751">
        <ele>249.7</ele>
        <time>2015-10-31T16:34:38Z</time>
      </trkpt>
      <trkpt lat="44.42423" lon="1.58742">
        <ele>249.5</ele>
        <time>2015-10-31T16:34:39Z</time>
      </trkpt>
      <trkpt lat="44.42416" lon="1.58732">
        <ele>249.3</ele>
        <time>2015-10-31T16:34:40Z</time>
      </trkpt>
      <trkpt lat="44.42409" lon="1.58722">
        <ele>249</ele>
        <time>2015-10-31T16:34:41Z</time>
      </trkpt>
      <trkpt lat="44.42401" lon="1.58711">
        <ele>248.7</ele>
        <time>2015-10-31T16:34:42Z</time>
      </trkpt>
      <trkpt lat="44.42393" lon="1.58702">
        <ele>248.4</ele>
        <time>2015-10-31T16:34:43Z</time>
      </trkpt>
      <trkpt lat="44.42387" lon="1.58693">
        <ele>248.1</ele>
        <time>2015-10-31T16:34:44Z</time>
      </trkpt>
      <trkpt lat="44.42381" lon="1.58683">
        <ele>247.9</ele>
        <time>2015-10-31T16:34:45Z</time>
      </trkpt>
      <trkpt lat="44.42376" lon="1.58672">
        <ele>247.6</ele>
        <time>2015-10-31T16:34:46Z</time>
      </trkpt>
      <trkpt lat="44.42371" lon="1.58662">
        <ele>247.4</ele>
        <time>2015-10-31T16:34:47Z</time>
      </trkpt>
      <trkpt lat="44.42364" lon="1.58653">
        <ele>247.2</ele>
        <time>2015-10-31T16:34:48Z</time>
      </trkpt>
      <trkpt lat="44.42358" lon="1.58646">
        <ele>247</ele>
        <time>2015-10-31T16:34:49Z</time>
      </trkpt>
      <trkpt lat="44.42356" lon="1.58633">
        <ele>246.9</ele>
        <time>2015-10-31T16:34:50Z</time>
      </trkpt>
      <trkpt lat="44.42351" lon="1.58624">
        <ele>246.7</ele>
        <time>2015-10-31T16:34:51Z</time>
      </trkpt>
      <trkpt lat="44.42346" lon="1.58616">
        <ele>246.4</ele>
        <time>2015-10-31T16:34:52Z</time>
      </trkpt>
      <trkpt lat="44.42342" lon="1.58607">
        <ele>246.1</ele>
        <time>2015-10-31T16:34:53Z</time>
      </trkpt>
      <trkpt lat="44.42337" lon="1.58595">
        <ele>245.7</ele>
        <time>2015-10-31T16:34:54Z</time>
      </trkpt>
      <trkpt lat="44.42332" lon="1.58584">
        <ele>245.2</ele>
        <time>2015-10-31T16:34:55Z</time>
      </trkpt>
      <trkpt lat="44.42327" lon="1.58574">
        <ele>244.8</ele>
        <time>2015-10-31T16:34:56Z</time>
      </trkpt>
      <trkpt lat="44.42324" lon="1.58562">
        <ele>244.2</ele>
        <time>2015-10-31T16:34:57Z</time>
      </trkpt>
      <trkpt lat="44.42317" lon="1.58549">
        <ele>243.5</ele>
        <time>2015-10-31T16:34:58Z</time>
      </trkpt>
      <trkpt lat="44.42312" lon="1.58538">
        <ele>242.9</ele>
        <time>2015-10-31T16:34:59Z</time>
      </trkpt>
      <trkpt lat="44.4231" lon="1.58522">
        <ele>242.3</ele>
        <time>2015-10-31T16:35:00Z</time>
      </trkpt>
      <trkpt lat="44.42304" lon="1.58512">
        <ele>241.8</ele>
        <time>2015-10-31T16:35:01Z</time>
      </trkpt>
      <trkpt lat="44.423" lon="1.58501">
        <ele>241.4</ele>
        <time>2015-10-31T16:35:02Z</time>
      </trkpt>
      <trkpt lat="44.42299" lon="1.5849">
        <ele>241</ele>
        <time>2015-10-31T16:35:03Z</time>
      </trkpt>
      <trkpt lat="44.42296" lon="1.58479">
        <ele>240.6</ele>
        <time>2015-10-31T16:35:04Z</time>
      </trkpt>
      <trkpt lat="44.42294" lon="1.58469">
        <ele>240.3</ele>
        <time>2015-10-31T16:35:05Z</time>
      </trkpt>
      <trkpt lat="44.42291" lon="1.58457">
        <ele>240</ele>
        <time>2015-10-31T16:35:06Z</time>
      </trkpt>
      <trkpt lat="44.42287" lon="1.58446">
        <ele>240.1</ele>
        <time>2015-10-31T16:35:07Z</time>
      </trkpt>
      <trkpt lat="44.42285" lon="1.58434">
        <ele>240.3</ele>
        <time>2015-10-31T16:35:08Z</time>
      </trkpt>
      <trkpt lat="44.42285" lon="1.58423">
        <ele>240.5</ele>
        <time>2015-10-31T16:35:09Z</time>
      </trkpt>
      <trkpt lat="44.42283" lon="1.58409">
        <ele>240.8</ele>
        <time>2015-10-31T16:35:10Z</time>
      </trkpt>
      <trkpt lat="44.42281" lon="1.58398">
        <ele>240.9</ele>
        <time>2015-10-31T16:35:11Z</time>
      </trkpt>
      <trkpt lat="44.42279" lon="1.58389">
        <ele>241.1</ele>
        <time>2015-10-31T16:35:12Z</time>
      </trkpt>
      <trkpt lat="44.42278" lon="1.58379">
        <ele>241.2</ele>
        <time>2015-10-31T16:35:13Z</time>
      </trkpt>
      <trkpt lat="44.42275" lon="1.58368">
        <ele>241.3</ele>
        <time>2015-10-31T16:35:14Z</time>
      </trkpt>
      <trkpt lat="44.42272" lon="1.58358">
        <ele>241.3</ele>
        <time>2015-10-31T16:35:15Z</time>
      </trkpt>
      <trkpt lat="44.4227" lon="1.58354">
        <ele>241.3</ele>
        <time>2015-10-31T16:35:16Z</time>
      </trkpt>
      <trkpt lat="44.42268" lon="1.58343">
        <ele>241.4</ele>
        <time>2015-10-31T16:35:17Z</time>
      </trkpt>
      <trkpt lat="44.42265" lon="1.58334">
        <ele>241.5</ele>
        <time>2015-10-31T16:35:18Z</time>
      </trkpt>
      <trkpt lat="44.42262" lon="1.58325">
        <ele>241.6</ele>
        <time>2015-10-31T16:35:19Z</time>
      </trkpt>
      <trkpt lat="44.4226" lon="1.58319">
        <ele>241.8</ele>
        <time>2015-10-31T16:35:20Z</time>
      </trkpt>
      <trkpt lat="44.42259" lon="1.5831">
        <ele>242</ele>
        <time>2015-10-31T16:35:21Z</time>
      </trkpt>
      <trkpt lat="44.42257" lon="1.583">
        <ele>242.2</ele>
        <time>2015-10-31T16:35:22Z</time>
      </trkpt>
      <trkpt lat="44.42256" lon="1.58292">
        <ele>242.4</ele>
        <time>2015-10-31T16:35:23Z</time>
      </trkpt>
      <trkpt lat="44.42255" lon="1.58288">
        <ele>242.5</ele>
        <time>2015-10-31T16:35:24Z</time>
      </trkpt>
      <trkpt lat="44.42254" lon="1.58282">
        <ele>242.6</ele>
        <time>2015-10-31T16:35:25Z</time>
      </trkpt>
      <trkpt lat="44.42252" lon="1.58275">
        <ele>242.8</ele>
        <time>2015-10-31T16:35:26Z</time>
      </trkpt>
      <trkpt lat="44.4225" lon="1.58267">
        <ele>242.9</ele>
        <time>2015-10-31T16:35:27Z</time>
      </trkpt>
      <trkpt lat="44.42248" lon="1.58262">
        <ele>243.1</ele>
        <time>2015-10-31T16:35:28Z</time>
      </trkpt>
      <trkpt lat="44.42247" lon="1.58255">
        <ele>243.2</ele>
        <time>2015-10-31T16:35:29Z</time>
      </trkpt>
      <trkpt lat="44.42246" lon="1.58248">
        <ele>243.4</ele>
        <time>2015-10-31T16:35:30Z</time>
      </trkpt>
      <trkpt lat="44.42244" lon="1.58242">
        <ele>243.5</ele>
        <time>2015-10-31T16:35:31Z</time>
      </trkpt>
      <trkpt lat="44.42242" lon="1.58234">
        <ele>243.7</ele>
        <time>2015-10-31T16:35:32Z</time>
      </trkpt>
      <trkpt lat="44.4224" lon="1.58228">
        <ele>243.9</ele>
        <time>2015-10-31T16:35:33Z</time>
      </trkpt>
      <trkpt lat="44.42238" lon="1.58224">
        <ele>244</ele>
        <time>2015-10-31T16:35:34Z</time>
      </trkpt>
      <trkpt lat="44.42237" lon="1.5822">
        <ele>244.1</ele>
        <time>2015-10-31T16:35:35Z</time>
      </trkpt>
      <trkpt lat="44.42237" lon="1.58215">
        <ele>244.2</ele>
        <time>2015-10-31T16:35:36Z</time>
      </trkpt>
      <trkpt lat="44.42236" lon="1.58211">
        <ele>244.3</ele>
        <time>2015-10-31T16:35:37Z</time>
      </trkpt>
      <trkpt lat="44.42233" lon="1.58204">
        <ele>244.4</ele>
        <time>2015-10-31T16:35:39Z</time>
      </trkpt>
      <trkpt lat="44.42232" lon="1.582">
        <ele>244.4</ele>
        <time>2015-10-31T16:35:40Z</time>
      </trkpt>
      <trkpt lat="44.42229" lon="1.58195">
        <ele>244.5</ele>
        <time>2015-10-31T16:35:42Z</time>
      </trkpt>
      <trkpt lat="44.42228" lon="1.58191">
        <ele>244.5</ele>
        <time>2015-10-31T16:35:43Z</time>
      </trkpt>
      <trkpt lat="44.42226" lon="1.58188">
        <ele>244.6</ele>
        <time>2015-10-31T16:35:44Z</time>
      </trkpt>
      <trkpt lat="44.42225" lon="1.58184">
        <ele>244.6</ele>
        <time>2015-10-31T16:35:45Z</time>
      </trkpt>
      <trkpt lat="44.42223" lon="1.58177">
        <ele>244.7</ele>
        <time>2015-10-31T16:35:47Z</time>
      </trkpt>
      <trkpt lat="44.42222" lon="1.58173">
        <ele>244.7</ele>
        <time>2015-10-31T16:35:48Z</time>
      </trkpt>
      <trkpt lat="44.4222" lon="1.58169">
        <ele>244.7</ele>
        <time>2015-10-31T16:35:49Z</time>
      </trkpt>
      <trkpt lat="44.42217" lon="1.58166">
        <ele>244.8</ele>
        <time>2015-10-31T16:35:50Z</time>
      </trkpt>
      <trkpt lat="44.42216" lon="1.58163">
        <ele>244.8</ele>
        <time>2015-10-31T16:35:51Z</time>
      </trkpt>
      <trkpt lat="44.42214" lon="1.58159">
        <ele>244.9</ele>
        <time>2015-10-31T16:35:52Z</time>
      </trkpt>
      <trkpt lat="44.42212" lon="1.58155">
        <ele>244.9</ele>
        <time>2015-10-31T16:35:53Z</time>
      </trkpt>
      <trkpt lat="44.42211" lon="1.58152">
        <ele>244.9</ele>
        <time>2015-10-31T16:35:54Z</time>
      </trkpt>
      <trkpt lat="44.42208" lon="1.58146">
        <ele>245</ele>
        <time>2015-10-31T16:35:56Z</time>
      </trkpt>
      <trkpt lat="44.42205" lon="1.5814">
        <ele>244.8</ele>
        <time>2015-10-31T16:35:58Z</time>
      </trkpt>
      <trkpt lat="44.42203" lon="1.58135">
        <ele>244.7</ele>
        <time>2015-10-31T16:36:00Z</time>
      </trkpt>
      <trkpt lat="44.422" lon="1.58133">
        <ele>244.6</ele>
        <time>2015-10-31T16:36:02Z</time>
      </trkpt>
      <trkpt lat="44.42198" lon="1.58131">
        <ele>244.5</ele>
        <time>2015-10-31T16:36:04Z</time>
      </trkpt>
      <trkpt lat="44.42198" lon="1.58125">
        <ele>244.5</ele>
        <time>2015-10-31T16:36:06Z</time>
      </trkpt>
      <trkpt lat="44.42203" lon="1.58128">
        <ele>244.7</ele>
        <time>2015-10-31T16:36:07Z</time>
      </trkpt>
      <trkpt lat="44.42206" lon="1.58133">
        <ele>244.9</ele>
        <time>2015-10-31T16:36:09Z</time>
      </trkpt>
      <trkpt lat="44.42208" lon="1.58137">
        <ele>245</ele>
        <time>2015-10-31T16:36:10Z</time>
      </trkpt>
      <trkpt lat="44.42209" lon="1.58143">
        <ele>245</ele>
        <time>2015-10-31T16:36:12Z</time>
      </trkpt>
      <trkpt lat="44.42211" lon="1.5815">
        <ele>244.9</ele>
        <time>2015-10-31T16:36:14Z</time>
      </trkpt>
      <trkpt lat="44.42212" lon="1.58154">
        <ele>244.9</ele>
        <time>2015-10-31T16:36:15Z</time>
      </trkpt>
      <trkpt lat="44.42214" lon="1.58159">
        <ele>244.9</ele>
        <time>2015-10-31T16:36:16Z</time>
      </trkpt>
      <trkpt lat="44.42216" lon="1.58165">
        <ele>244.8</ele>
        <time>2015-10-31T16:36:17Z</time>
      </trkpt>
      <trkpt lat="44.42217" lon="1.5817">
        <ele>244.8</ele>
        <time>2015-10-31T16:36:18Z</time>
      </trkpt>
      <trkpt lat="44.42219" lon="1.58177">
        <ele>244.7</ele>
        <time>2015-10-31T16:36:19Z</time>
      </trkpt>
      <trkpt lat="44.42223" lon="1.58185">
        <ele>244.6</ele>
        <time>2015-10-31T16:36:20Z</time>
      </trkpt>
      <trkpt lat="44.42226" lon="1.58192">
        <ele>244.6</ele>
        <time>2015-10-31T16:36:21Z</time>
      </trkpt>
      <trkpt lat="44.42226" lon="1.58199">
        <ele>244.6</ele>
        <time>2015-10-31T16:36:22Z</time>
      </trkpt>
      <trkpt lat="44.4223" lon="1.58205">
        <ele>244.5</ele>
        <time>2015-10-31T16:36:23Z</time>
      </trkpt>
      <trkpt lat="44.42232" lon="1.58212">
        <ele>244.4</ele>
        <time>2015-10-31T16:36:24Z</time>
      </trkpt>
      <trkpt lat="44.42234" lon="1.58219">
        <ele>244.2</ele>
        <time>2015-10-31T16:36:25Z</time>
      </trkpt>
      <trkpt lat="44.42236" lon="1.58226">
        <ele>244</ele>
        <time>2015-10-31T16:36:26Z</time>
      </trkpt>
      <trkpt lat="44.42239" lon="1.58234">
        <ele>243.8</ele>
        <time>2015-10-31T16:36:27Z</time>
      </trkpt>
      <trkpt lat="44.4224" lon="1.58242">
        <ele>243.6</ele>
        <time>2015-10-31T16:36:28Z</time>
      </trkpt>
      <trkpt lat="44.42242" lon="1.58249">
        <ele>243.4</ele>
        <time>2015-10-31T16:36:29Z</time>
      </trkpt>
      <trkpt lat="44.42244" lon="1.58256">
        <ele>243.2</ele>
        <time>2015-10-31T16:36:30Z</time>
      </trkpt>
      <trkpt lat="44.42246" lon="1.58263">
        <ele>243.1</ele>
        <time>2015-10-31T16:36:31Z</time>
      </trkpt>
      <trkpt lat="44.42249" lon="1.58271">
        <ele>242.9</ele>
        <time>2015-10-31T16:36:32Z</time>
      </trkpt>
      <trkpt lat="44.42251" lon="1.58279">
        <ele>242.7</ele>
        <time>2015-10-31T16:36:33Z</time>
      </trkpt>
      <trkpt lat="44.42253" lon="1.58288">
        <ele>242.5</ele>
        <time>2015-10-31T16:36:34Z</time>
      </trkpt>
      <trkpt lat="44.42255" lon="1.58296">
        <ele>242.3</ele>
        <time>2015-10-31T16:36:35Z</time>
      </trkpt>
      <trkpt lat="44.42257" lon="1.58304">
        <ele>242.1</ele>
        <time>2015-10-31T16:36:36Z</time>
      </trkpt>
      <trkpt lat="44.42258" lon="1.58311">
        <ele>241.9</ele>
        <time>2015-10-31T16:36:37Z</time>
      </trkpt>
      <trkpt lat="44.42259" lon="1.58318">
        <ele>241.8</ele>
        <time>2015-10-31T16:36:38Z</time>
      </trkpt>
      <trkpt lat="44.4226" lon="1.58326">
        <ele>241.6</ele>
        <time>2015-10-31T16:36:39Z</time>
      </trkpt>
      <trkpt lat="44.42263" lon="1.58333">
        <ele>241.5</ele>
        <time>2015-10-31T16:36:40Z</time>
      </trkpt>
      <trkpt lat="44.42264" lon="1.58341">
        <ele>241.4</ele>
        <time>2015-10-31T16:36:41Z</time>
      </trkpt>
      <trkpt lat="44.42264" lon="1.58348">
        <ele>241.2</ele>
        <time>2015-10-31T16:36:42Z</time>
      </trkpt>
      <trkpt lat="44.42265" lon="1.58356">
        <ele>241.1</ele>
        <time>2015-10-31T16:36:43Z</time>
      </trkpt>
      <trkpt lat="44.42264" lon="1.58366">
        <ele>240.9</ele>
        <time>2015-10-31T16:36:44Z</time>
      </trkpt>
      <trkpt lat="44.42265" lon="1.58371">
        <ele>240.8</ele>
        <time>2015-10-31T16:36:45Z</time>
      </trkpt>
      <trkpt lat="44.42268" lon="1.58381">
        <ele>240.7</ele>
        <time>2015-10-31T16:36:46Z</time>
      </trkpt>
      <trkpt lat="44.4227" lon="1.58389">
        <ele>240.6</ele>
        <time>2015-10-31T16:36:47Z</time>
      </trkpt>
      <trkpt lat="44.42273" lon="1.58396">
        <ele>240.6</ele>
        <time>2015-10-31T16:36:48Z</time>
      </trkpt>
      <trkpt lat="44.42275" lon="1.58403">
        <ele>240.5</ele>
        <time>2015-10-31T16:36:49Z</time>
      </trkpt>
      <trkpt lat="44.42277" lon="1.5841">
        <ele>240.4</ele>
        <time>2015-10-31T16:36:50Z</time>
      </trkpt>
      <trkpt lat="44.42278" lon="1.58417">
        <ele>240.3</ele>
        <time>2015-10-31T16:36:51Z</time>
      </trkpt>
      <trkpt lat="44.42282" lon="1.58422">
        <ele>240.4</ele>
        <time>2015-10-31T16:36:52Z</time>
      </trkpt>
      <trkpt lat="44.42283" lon="1.58431">
        <ele>240.2</ele>
        <time>2015-10-31T16:36:53Z</time>
      </trkpt>
      <trkpt lat="44.42284" lon="1.58438">
        <ele>240.1</ele>
        <time>2015-10-31T16:36:54Z</time>
      </trkpt>
      <trkpt lat="44.42285" lon="1.58444">
        <ele>240</ele>
        <time>2015-10-31T16:36:55Z</time>
      </trkpt>
      <trkpt lat="44.42287" lon="1.58452">
        <ele>239.9</ele>
        <time>2015-10-31T16:36:56Z</time>
      </trkpt>
      <trkpt lat="44.42289" lon="1.58462">
        <ele>240</ele>
        <time>2015-10-31T16:36:57Z</time>
      </trkpt>
      <trkpt lat="44.4229" lon="1.5847">
        <ele>240.2</ele>
        <time>2015-10-31T16:36:58Z</time>
      </trkpt>
      <trkpt lat="44.42291" lon="1.58477">
        <ele>240.4</ele>
        <time>2015-10-31T16:36:59Z</time>
      </trkpt>
      <trkpt lat="44.42291" lon="1.58484">
        <ele>240.6</ele>
        <time>2015-10-31T16:37:00Z</time>
      </trkpt>
      <trkpt lat="44.42294" lon="1.58491">
        <ele>240.9</ele>
        <time>2015-10-31T16:37:01Z</time>
      </trkpt>
      <trkpt lat="44.42295" lon="1.58499">
        <ele>241.1</ele>
        <time>2015-10-31T16:37:02Z</time>
      </trkpt>
      <trkpt lat="44.42297" lon="1.58507">
        <ele>241.4</ele>
        <time>2015-10-31T16:37:03Z</time>
      </trkpt>
      <trkpt lat="44.42297" lon="1.58515">
        <ele>241.6</ele>
        <time>2015-10-31T16:37:04Z</time>
      </trkpt>
      <trkpt lat="44.423" lon="1.58521">
        <ele>241.8</ele>
        <time>2015-10-31T16:37:05Z</time>
      </trkpt>
      <trkpt lat="44.42303" lon="1.58528">
        <ele>242.2</ele>
        <time>2015-10-31T16:37:06Z</time>
      </trkpt>
      <trkpt lat="44.42305" lon="1.58535">
        <ele>242.5</ele>
        <time>2015-10-31T16:37:07Z</time>
      </trkpt>
      <trkpt lat="44.42308" lon="1.58538">
        <ele>242.7</ele>
        <time>2015-10-31T16:37:08Z</time>
      </trkpt>
      <trkpt lat="44.42309" lon="1.58545">
        <ele>243</ele>
        <time>2015-10-31T16:37:09Z</time>
      </trkpt>
      <trkpt lat="44.42311" lon="1.58549">
        <ele>243.2</ele>
        <time>2015-10-31T16:37:10Z</time>
      </trkpt>
      <trkpt lat="44.42314" lon="1.58555">
        <ele>243.6</ele>
        <time>2015-10-31T16:37:11Z</time>
      </trkpt>
      <trkpt lat="44.42316" lon="1.58561">
        <ele>243.9</ele>
        <time>2015-10-31T16:37:12Z</time>
      </trkpt>
      <trkpt lat="44.42319" lon="1.58565">
        <ele>244.2</ele>
        <time>2015-10-31T16:37:13Z</time>
      </trkpt>
      <trkpt lat="44.42322" lon="1.5857">
        <ele>244.4</ele>
        <time>2015-10-31T16:37:14Z</time>
      </trkpt>
      <trkpt lat="44.42324" lon="1.58573">
        <ele>244.6</ele>
        <time>2015-10-31T16:37:15Z</time>
      </trkpt>
      <trkpt lat="44.42327" lon="1.58578">
        <ele>244.9</ele>
        <time>2015-10-31T16:37:16Z</time>
      </trkpt>
      <trkpt lat="44.42329" lon="1.58583">
        <ele>245.1</ele>
        <time>2015-10-31T16:37:17Z</time>
      </trkpt>
      <trkpt lat="44.42331" lon="1.58589">
        <ele>245.4</ele>
        <time>2015-10-31T16:37:18Z</time>
      </trkpt>
      <trkpt lat="44.42333" lon="1.58595">
        <ele>245.6</ele>
        <time>2015-10-31T16:37:19Z</time>
      </trkpt>
      <trkpt lat="44.42334" lon="1.586">
        <ele>245.8</ele>
        <time>2015-10-31T16:37:20Z</time>
      </trkpt>
      <trkpt lat="44.42337" lon="1.58608">
        <ele>246</ele>
        <time>2015-10-31T16:37:21Z</time>
      </trkpt>
      <trkpt lat="44.42339" lon="1.58614">
        <ele>246.3</ele>
        <time>2015-10-31T16:37:22Z</time>
      </trkpt>
      <trkpt lat="44.42342" lon="1.58618">
        <ele>246.4</ele>
        <time>2015-10-31T16:37:23Z</time>
      </trkpt>
      <trkpt lat="44.42345" lon="1.58622">
        <ele>246.6</ele>
        <time>2015-10-31T16:37:24Z</time>
      </trkpt>
      <trkpt lat="44.42347" lon="1.58625">
        <ele>246.7</ele>
        <time>2015-10-31T16:37:25Z</time>
      </trkpt>
      <trkpt lat="44.4235" lon="1.58629">
        <ele>246.7</ele>
        <time>2015-10-31T16:37:26Z</time>
      </trkpt>
      <trkpt lat="44.42352" lon="1.58633">
        <ele>246.8</ele>
        <time>2015-10-31T16:37:27Z</time>
      </trkpt>
      <trkpt lat="44.42355" lon="1.58636">
        <ele>246.9</ele>
        <time>2015-10-31T16:37:28Z</time>
      </trkpt>
      <trkpt lat="44.42357" lon="1.5864">
        <ele>247</ele>
        <time>2015-10-31T16:37:29Z</time>
      </trkpt>
      <trkpt lat="44.4236" lon="1.58645">
        <ele>247.1</ele>
        <time>2015-10-31T16:37:31Z</time>
      </trkpt>
      <trkpt lat="44.42361" lon="1.58651">
        <ele>247.1</ele>
        <time>2015-10-31T16:37:33Z</time>
      </trkpt>
      <trkpt lat="44.42363" lon="1.58647">
        <ele>247.1</ele>
        <time>2015-10-31T16:37:35Z</time>
      </trkpt>
      <trkpt lat="44.42362" lon="1.58643">
        <ele>247.1</ele>
        <time>2015-10-31T16:37:39Z</time>
      </trkpt>
      <trkpt lat="44.42361" lon="1.58639">
        <ele>247</ele>
        <time>2015-10-31T16:37:40Z</time>
      </trkpt>
      <trkpt lat="44.42359" lon="1.58636">
        <ele>246.9</ele>
        <time>2015-10-31T16:37:41Z</time>
      </trkpt>
      <trkpt lat="44.42358" lon="1.58633">
        <ele>246.9</ele>
        <time>2015-10-31T16:37:42Z</time>
      </trkpt>
      <trkpt lat="44.42355" lon="1.58629">
        <ele>246.8</ele>
        <time>2015-10-31T16:37:43Z</time>
      </trkpt>
      <trkpt lat="44.42353" lon="1.58626">
        <ele>246.7</ele>
        <time>2015-10-31T16:37:44Z</time>
      </trkpt>
      <trkpt lat="44.42348" lon="1.58621">
        <ele>246.6</ele>
        <time>2015-10-31T16:37:45Z</time>
      </trkpt>
      <trkpt lat="44.42338" lon="1.58612">
        <ele>246.2</ele>
        <time>2015-10-31T16:37:46Z</time>
      </trkpt>
      <trkpt lat="44.42334" lon="1.58604">
        <ele>245.9</ele>
        <time>2015-10-31T16:37:47Z</time>
      </trkpt>
      <trkpt lat="44.42329" lon="1.58594">
        <ele>245.5</ele>
        <time>2015-10-31T16:37:48Z</time>
      </trkpt>
      <trkpt lat="44.42326" lon="1.58585">
        <ele>245.1</ele>
        <time>2015-10-31T16:37:49Z</time>
      </trkpt>
      <trkpt lat="44.42321" lon="1.58578">
        <ele>244.7</ele>
        <time>2015-10-31T16:37:50Z</time>
      </trkpt>
      <trkpt lat="44.42318" lon="1.58567">
        <ele>244.2</ele>
        <time>2015-10-31T16:37:51Z</time>
      </trkpt>
      <trkpt lat="44.42314" lon="1.58554">
        <ele>243.5</ele>
        <time>2015-10-31T16:37:52Z</time>
      </trkpt>
      <trkpt lat="44.42308" lon="1.58545">
        <ele>242.9</ele>
        <time>2015-10-31T16:37:53Z</time>
      </trkpt>
      <trkpt lat="44.42305" lon="1.58536">
        <ele>242.5</ele>
        <time>2015-10-31T16:37:54Z</time>
      </trkpt>
      <trkpt lat="44.42301" lon="1.58525">
        <ele>242.1</ele>
        <time>2015-10-31T16:37:55Z</time>
      </trkpt>
      <trkpt lat="44.423" lon="1.58516">
        <ele>241.7</ele>
        <time>2015-10-31T16:37:56Z</time>
      </trkpt>
      <trkpt lat="44.42297" lon="1.58506">
        <ele>241.4</ele>
        <time>2015-10-31T16:37:57Z</time>
      </trkpt>
      <trkpt lat="44.42296" lon="1.58496">
        <ele>241.1</ele>
        <time>2015-10-31T16:37:58Z</time>
      </trkpt>
      <trkpt lat="44.42293" lon="1.58483">
        <ele>240.7</ele>
        <time>2015-10-31T16:37:59Z</time>
      </trkpt>
      <trkpt lat="44.42291" lon="1.58472">
        <ele>240.3</ele>
        <time>2015-10-31T16:38:00Z</time>
      </trkpt>
      <trkpt lat="44.42289" lon="1.58464">
        <ele>240</ele>
        <time>2015-10-31T16:38:01Z</time>
      </trkpt>
      <trkpt lat="44.42287" lon="1.58455">
        <ele>239.9</ele>
        <time>2015-10-31T16:38:02Z</time>
      </trkpt>
      <trkpt lat="44.42286" lon="1.58445">
        <ele>240</ele>
        <time>2015-10-31T16:38:03Z</time>
      </trkpt>
      <trkpt lat="44.42283" lon="1.58434">
        <ele>240.2</ele>
        <time>2015-10-31T16:38:04Z</time>
      </trkpt>
      <trkpt lat="44.4228" lon="1.58423">
        <ele>240.3</ele>
        <time>2015-10-31T16:38:05Z</time>
      </trkpt>
      <trkpt lat="44.42278" lon="1.58413">
        <ele>240.4</ele>
        <time>2015-10-31T16:38:06Z</time>
      </trkpt>
      <trkpt lat="44.42277" lon="1.58404">
        <ele>240.6</ele>
        <time>2015-10-31T16:38:07Z</time>
      </trkpt>
      <trkpt lat="44.42276" lon="1.58397">
        <ele>240.7</ele>
        <time>2015-10-31T16:38:08Z</time>
      </trkpt>
      <trkpt lat="44.42275" lon="1.58385">
        <ele>241</ele>
        <time>2015-10-31T16:38:09Z</time>
      </trkpt>
      <trkpt lat="44.42273" lon="1.58376">
        <ele>241.1</ele>
        <time>2015-10-31T16:38:10Z</time>
      </trkpt>
      <trkpt lat="44.42271" lon="1.58367">
        <ele>241.1</ele>
        <time>2015-10-31T16:38:11Z</time>
      </trkpt>
      <trkpt lat="44.42269" lon="1.58358">
        <ele>241.2</ele>
        <time>2015-10-31T16:38:12Z</time>
      </trkpt>
      <trkpt lat="44.42268" lon="1.58349">
        <ele>241.3</ele>
        <time>2015-10-31T16:38:13Z</time>
      </trkpt>
      <trkpt lat="44.42267" lon="1.58344">
        <ele>241.4</ele>
        <time>2015-10-31T16:38:14Z</time>
      </trkpt>
      <trkpt lat="44.42264" lon="1.58335">
        <ele>241.5</ele>
        <time>2015-10-31T16:38:15Z</time>
      </trkpt>
      <trkpt lat="44.42263" lon="1.58327">
        <ele>241.6</ele>
        <time>2015-10-31T16:38:16Z</time>
      </trkpt>
      <trkpt lat="44.4226" lon="1.58319">
        <ele>241.8</ele>
        <time>2015-10-31T16:38:17Z</time>
      </trkpt>
      <trkpt lat="44.42259" lon="1.5831">
        <ele>242</ele>
        <time>2015-10-31T16:38:18Z</time>
      </trkpt>
      <trkpt lat="44.42258" lon="1.58301">
        <ele>242.2</ele>
        <time>2015-10-31T16:38:19Z</time>
      </trkpt>
      <trkpt lat="44.42257" lon="1.58293">
        <ele>242.4</ele>
        <time>2015-10-31T16:38:20Z</time>
      </trkpt>
      <trkpt lat="44.42255" lon="1.58284">
        <ele>242.6</ele>
        <time>2015-10-31T16:38:21Z</time>
      </trkpt>
      <trkpt lat="44.42252" lon="1.58273">
        <ele>242.8</ele>
        <time>2015-10-31T16:38:22Z</time>
      </trkpt>
      <trkpt lat="44.42251" lon="1.58266">
        <ele>242.9</ele>
        <time>2015-10-31T16:38:23Z</time>
      </trkpt>
      <trkpt lat="44.4225" lon="1.58258">
        <ele>243.1</ele>
        <time>2015-10-31T16:38:24Z</time>
      </trkpt>
      <trkpt lat="44.42245" lon="1.5825">
        <ele>243.4</ele>
        <time>2015-10-31T16:38:25Z</time>
      </trkpt>
      <trkpt lat="44.42242" lon="1.58241">
        <ele>243.6</ele>
        <time>2015-10-31T16:38:26Z</time>
      </trkpt>
      <trkpt lat="44.42239" lon="1.58234">
        <ele>243.8</ele>
        <time>2015-10-31T16:38:27Z</time>
      </trkpt>
      <trkpt lat="44.42237" lon="1.58226">
        <ele>244</ele>
        <time>2015-10-31T16:38:28Z</time>
      </trkpt>
      <trkpt lat="44.42234" lon="1.5822">
        <ele>244.1</ele>
        <time>2015-10-31T16:38:29Z</time>
      </trkpt>
      <trkpt lat="44.42231" lon="1.58212">
        <ele>244.4</ele>
        <time>2015-10-31T16:38:30Z</time>
      </trkpt>
      <trkpt lat="44.42229" lon="1.58204">
        <ele>244.5</ele>
        <time>2015-10-31T16:38:31Z</time>
      </trkpt>
      <trkpt lat="44.42226" lon="1.58197">
        <ele>244.6</ele>
        <time>2015-10-31T16:38:32Z</time>
      </trkpt>
      <trkpt lat="44.42224" lon="1.58191">
        <ele>244.6</ele>
        <time>2015-10-31T16:38:33Z</time>
      </trkpt>
      <trkpt lat="44.42221" lon="1.58183">
        <ele>244.7</ele>
        <time>2015-10-31T16:38:34Z</time>
      </trkpt>
      <trkpt lat="44.42218" lon="1.58177">
        <ele>244.8</ele>
        <time>2015-10-31T16:38:35Z</time>
      </trkpt>
      <trkpt lat="44.42216" lon="1.5817">
        <ele>244.8</ele>
        <time>2015-10-31T16:38:36Z</time>
      </trkpt>
      <trkpt lat="44.42215" lon="1.58164">
        <ele>244.8</ele>
        <time>2015-10-31T16:38:37Z</time>
      </trkpt>
      <trkpt lat="44.42211" lon="1.58156">
        <ele>244.9</ele>
        <time>2015-10-31T16:38:38Z</time>
      </trkpt>
      <trkpt lat="44.42208" lon="1.58148">
        <ele>245</ele>
        <time>2015-10-31T16:38:39Z</time>
      </trkpt>
      <trkpt lat="44.42205" lon="1.58142">
        <ele>244.8</ele>
        <time>2015-10-31T16:38:40Z</time>
      </trkpt>
      <trkpt lat="44.42203" lon="1.58134">
        <ele>244.7</ele>
        <time>2015-10-31T16:38:41Z</time>
      </trkpt>
      <trkpt lat="44.422" lon="1.58126">
        <ele>244.6</ele>
        <time>2015-10-31T16:38:42Z</time>
      </trkpt>
      <trkpt lat="44.42197" lon="1.58119">
        <ele>244.5</ele>
        <time>2015-10-31T16:38:43Z</time>
      </trkpt>
      <trkpt lat="44.42194" lon="1.58113">
        <ele>244.4</ele>
        <time>2015-10-31T16:38:44Z</time>
      </trkpt>
      <trkpt lat="44.42193" lon="1.58107">
        <ele>244.3</ele>
        <time>2015-10-31T16:38:45Z</time>
      </trkpt>
      <trkpt lat="44.4219" lon="1.58101">
        <ele>244.3</ele>
        <time>2015-10-31T16:38:46Z</time>
      </trkpt>
      <trkpt lat="44.42187" lon="1.58095">
        <ele>244.2</ele>
        <time>2015-10-31T16:38:47Z</time>
      </trkpt>
      <trkpt lat="44.42185" lon="1.58088">
        <ele>244.1</ele>
        <time>2015-10-31T16:38:48Z</time>
      </trkpt>
      <trkpt lat="44.42182" lon="1.58081">
        <ele>244.1</ele>
        <time>2015-10-31T16:38:49Z</time>
      </trkpt>
      <trkpt lat="44.42178" lon="1.58072">
        <ele>244</ele>
        <time>2015-10-31T16:38:50Z</time>
      </trkpt>
      <trkpt lat="44.42176" lon="1.58067">
        <ele>244</ele>
        <time>2015-10-31T16:38:51Z</time>
      </trkpt>
      <trkpt lat="44.42173" lon="1.58063">
        <ele>243.9</ele>
        <time>2015-10-31T16:38:53Z</time>
      </trkpt>
      <trkpt lat="44.42172" lon="1.58058">
        <ele>244</ele>
        <time>2015-10-31T16:38:54Z</time>
      </trkpt>
      <trkpt lat="44.42169" lon="1.58049">
        <ele>244</ele>
        <time>2015-10-31T16:38:55Z</time>
      </trkpt>
      <trkpt lat="44.42168" lon="1.58043">
        <ele>244</ele>
        <time>2015-10-31T16:38:56Z</time>
      </trkpt>
      <trkpt lat="44.42166" lon="1.58038">
        <ele>244</ele>
        <time>2015-10-31T16:38:57Z</time>
      </trkpt>
      <trkpt lat="44.42163" lon="1.58032">
        <ele>243.9</ele>
        <time>2015-10-31T16:38:58Z</time>
      </trkpt>
      <trkpt lat="44.4216" lon="1.58025">
        <ele>243.8</ele>
        <time>2015-10-31T16:38:59Z</time>
      </trkpt>
      <trkpt lat="44.42158" lon="1.58019">
        <ele>243.8</ele>
        <time>2015-10-31T16:39:00Z</time>
      </trkpt>
      <trkpt lat="44.42155" lon="1.58013">
        <ele>243.7</ele>
        <time>2015-10-31T16:39:01Z</time>
      </trkpt>
      <trkpt lat="44.42152" lon="1.58007">
        <ele>243.7</ele>
        <time>2015-10-31T16:39:02Z</time>
      </trkpt>
      <trkpt lat="44.42149" lon="1.58001">
        <ele>243.6</ele>
        <time>2015-10-31T16:39:03Z</time>
      </trkpt>
      <trkpt lat="44.42149" lon="1.57994">
        <ele>243.6</ele>
        <time>2015-10-31T16:39:04Z</time>
      </trkpt>
      <trkpt lat="44.42147" lon="1.57987">
        <ele>243.5</ele>
        <time>2015-10-31T16:39:05Z</time>
      </trkpt>
      <trkpt lat="44.42146" lon="1.57982">
        <ele>243.5</ele>
        <time>2015-10-31T16:39:06Z</time>
      </trkpt>
      <trkpt lat="44.42142" lon="1.57977">
        <ele>243.4</ele>
        <time>2015-10-31T16:39:07Z</time>
      </trkpt>
      <trkpt lat="44.42139" lon="1.57971">
        <ele>243.3</ele>
        <time>2015-10-31T16:39:08Z</time>
      </trkpt>
      <trkpt lat="44.42135" lon="1.57963">
        <ele>243.2</ele>
        <time>2015-10-31T16:39:09Z</time>
      </trkpt>
      <trkpt lat="44.42132" lon="1.57957">
        <ele>243.2</ele>
        <time>2015-10-31T16:39:10Z</time>
      </trkpt>
      <trkpt lat="44.42131" lon="1.57951">
        <ele>243.1</ele>
        <time>2015-10-31T16:39:11Z</time>
      </trkpt>
      <trkpt lat="44.42129" lon="1.57946">
        <ele>243.1</ele>
        <time>2015-10-31T16:39:12Z</time>
      </trkpt>
      <trkpt lat="44.42127" lon="1.5794">
        <ele>243</ele>
        <time>2015-10-31T16:39:13Z</time>
      </trkpt>
      <trkpt lat="44.42125" lon="1.57934">
        <ele>243</ele>
        <time>2015-10-31T16:39:14Z</time>
      </trkpt>
      <trkpt lat="44.42124" lon="1.57928">
        <ele>243</ele>
        <time>2015-10-31T16:39:15Z</time>
      </trkpt>
      <trkpt lat="44.4212" lon="1.57922">
        <ele>242.9</ele>
        <time>2015-10-31T16:39:16Z</time>
      </trkpt>
      <trkpt lat="44.42118" lon="1.57917">
        <ele>242.9</ele>
        <time>2015-10-31T16:39:17Z</time>
      </trkpt>
      <trkpt lat="44.42115" lon="1.57911">
        <ele>242.9</ele>
        <time>2015-10-31T16:39:18Z</time>
      </trkpt>
      <trkpt lat="44.42111" lon="1.57905">
        <ele>242.9</ele>
        <time>2015-10-31T16:39:19Z</time>
      </trkpt>
      <trkpt lat="44.42108" lon="1.57899">
        <ele>243</ele>
        <time>2015-10-31T16:39:20Z</time>
      </trkpt>
      <trkpt lat="44.42105" lon="1.57891">
        <ele>243.1</ele>
        <time>2015-10-31T16:39:21Z</time>
      </trkpt>
      <trkpt lat="44.42101" lon="1.57886">
        <ele>243.1</ele>
        <time>2015-10-31T16:39:22Z</time>
      </trkpt>
      <trkpt lat="44.42099" lon="1.57881">
        <ele>243.2</ele>
        <time>2015-10-31T16:39:23Z</time>
      </trkpt>
      <trkpt lat="44.42095" lon="1.57875">
        <ele>243.4</ele>
        <time>2015-10-31T16:39:24Z</time>
      </trkpt>
      <trkpt lat="44.42089" lon="1.57872">
        <ele>243.5</ele>
        <time>2015-10-31T16:39:25Z</time>
      </trkpt>
      <trkpt lat="44.42087" lon="1.57867">
        <ele>243.6</ele>
        <time>2015-10-31T16:39:26Z</time>
      </trkpt>
      <trkpt lat="44.42084" lon="1.57862">
        <ele>243.7</ele>
        <time>2015-10-31T16:39:27Z</time>
      </trkpt>
      <trkpt lat="44.42079" lon="1.57856">
        <ele>243.8</ele>
        <time>2015-10-31T16:39:28Z</time>
      </trkpt>
      <trkpt lat="44.42076" lon="1.5785">
        <ele>243.9</ele>
        <time>2015-10-31T16:39:29Z</time>
      </trkpt>
      <trkpt lat="44.42071" lon="1.57845">
        <ele>244</ele>
        <time>2015-10-31T16:39:30Z</time>
      </trkpt>
      <trkpt lat="44.42066" lon="1.57841">
        <ele>244.1</ele>
        <time>2015-10-31T16:39:31Z</time>
      </trkpt>
      <trkpt lat="44.42063" lon="1.57834">
        <ele>244.2</ele>
        <time>2015-10-31T16:39:32Z</time>
      </trkpt>
      <trkpt lat="44.42061" lon="1.57829">
        <ele>244.3</ele>
        <time>2015-10-31T16:39:33Z</time>
      </trkpt>
      <trkpt lat="44.42057" lon="1.57824">
        <ele>244.4</ele>
        <time>2015-10-31T16:39:34Z</time>
      </trkpt>
      <trkpt lat="44.42054" lon="1.57821">
        <ele>244.5</ele>
        <time>2015-10-31T16:39:35Z</time>
      </trkpt>
      <trkpt lat="44.42051" lon="1.57817">
        <ele>244.6</ele>
        <time>2015-10-31T16:39:36Z</time>
      </trkpt>
      <trkpt lat="44.42047" lon="1.57813">
        <ele>244.7</ele>
        <time>2015-10-31T16:39:37Z</time>
      </trkpt>
      <trkpt lat="44.42044" lon="1.57809">
        <ele>244.8</ele>
        <time>2015-10-31T16:39:38Z</time>
      </trkpt>
      <trkpt lat="44.42042" lon="1.57807">
        <ele>244.8</ele>
        <time>2015-10-31T16:39:39Z</time>
      </trkpt>
      <trkpt lat="44.42039" lon="1.57804">
        <ele>244.7</ele>
        <time>2015-10-31T16:39:40Z</time>
      </trkpt>
      <trkpt lat="44.42035" lon="1.578">
        <ele>244.6</ele>
        <time>2015-10-31T16:39:41Z</time>
      </trkpt>
      <trkpt lat="44.42032" lon="1.57797">
        <ele>244.5</ele>
        <time>2015-10-31T16:39:42Z</time>
      </trkpt>
      <trkpt lat="44.42031" lon="1.57794">
        <ele>244.4</ele>
        <time>2015-10-31T16:39:43Z</time>
      </trkpt>
      <trkpt lat="44.42026" lon="1.5779">
        <ele>244.3</ele>
        <time>2015-10-31T16:39:44Z</time>
      </trkpt>
      <trkpt lat="44.42023" lon="1.57787">
        <ele>244.1</ele>
        <time>2015-10-31T16:39:45Z</time>
      </trkpt>
      <trkpt lat="44.42022" lon="1.5778">
        <ele>244.1</ele>
        <time>2015-10-31T16:39:46Z</time>
      </trkpt>
      <trkpt lat="44.42018" lon="1.57777">
        <ele>243.9</ele>
        <time>2015-10-31T16:39:47Z</time>
      </trkpt>
      <trkpt lat="44.42014" lon="1.57772">
        <ele>243.7</ele>
        <time>2015-10-31T16:39:48Z</time>
      </trkpt>
      <trkpt lat="44.42011" lon="1.57768">
        <ele>243.5</ele>
        <time>2015-10-31T16:39:49Z</time>
      </trkpt>
      <trkpt lat="44.42007" lon="1.57765">
        <ele>243.3</ele>
        <time>2015-10-31T16:39:50Z</time>
      </trkpt>
      <trkpt lat="44.42003" lon="1.57762">
        <ele>243.2</ele>
        <time>2015-10-31T16:39:51Z</time>
      </trkpt>
      <trkpt lat="44.42001" lon="1.57756">
        <ele>243.1</ele>
        <time>2015-10-31T16:39:52Z</time>
      </trkpt>
      <trkpt lat="44.41998" lon="1.57751">
        <ele>242.9</ele>
        <time>2015-10-31T16:39:53Z</time>
      </trkpt>
      <trkpt lat="44.41994" lon="1.57746">
        <ele>242.7</ele>
        <time>2015-10-31T16:39:54Z</time>
      </trkpt>
      <trkpt lat="44.41991" lon="1.57741">
        <ele>242.6</ele>
        <time>2015-10-31T16:39:55Z</time>
      </trkpt>
      <trkpt lat="44.4199" lon="1.57736">
        <ele>242.5</ele>
        <time>2015-10-31T16:39:56Z</time>
      </trkpt>
      <trkpt lat="44.41988" lon="1.57731">
        <ele>242.4</ele>
        <time>2015-10-31T16:39:57Z</time>
      </trkpt>
      <trkpt lat="44.41984" lon="1.57726">
        <ele>242.2</ele>
        <time>2015-10-31T16:39:58Z</time>
      </trkpt>
      <trkpt lat="44.41978" lon="1.57723">
        <ele>242</ele>
        <time>2015-10-31T16:39:59Z</time>
      </trkpt>
      <trkpt lat="44.41974" lon="1.57719">
        <ele>241.8</ele>
        <time>2015-10-31T16:40:00Z</time>
      </trkpt>
      <trkpt lat="44.41967" lon="1.57716">
        <ele>241.4</ele>
        <time>2015-10-31T16:40:01Z</time>
      </trkpt>
      <trkpt lat="44.41963" lon="1.57711">
        <ele>241.2</ele>
        <time>2015-10-31T16:40:02Z</time>
      </trkpt>
      <trkpt lat="44.4196" lon="1.57705">
        <ele>241.1</ele>
        <time>2015-10-31T16:40:03Z</time>
      </trkpt>
      <trkpt lat="44.41956" lon="1.577">
        <ele>241</ele>
        <time>2015-10-31T16:40:04Z</time>
      </trkpt>
      <trkpt lat="44.41953" lon="1.57693">
        <ele>240.8</ele>
        <time>2015-10-31T16:40:05Z</time>
      </trkpt>
      <trkpt lat="44.41949" lon="1.57688">
        <ele>240.6</ele>
        <time>2015-10-31T16:40:06Z</time>
      </trkpt>
      <trkpt lat="44.41945" lon="1.57683">
        <ele>240.4</ele>
        <time>2015-10-31T16:40:07Z</time>
      </trkpt>
      <trkpt lat="44.4194" lon="1.57678">
        <ele>240.1</ele>
        <time>2015-10-31T16:40:08Z</time>
      </trkpt>
      <trkpt lat="44.41936" lon="1.57673">
        <ele>239.8</ele>
        <time>2015-10-31T16:40:09Z</time>
      </trkpt>
      <trkpt lat="44.41934" lon="1.57667">
        <ele>239.7</ele>
        <time>2015-10-31T16:40:10Z</time>
      </trkpt>
      <trkpt lat="44.4193" lon="1.57661">
        <ele>239.5</ele>
        <time>2015-10-31T16:40:11Z</time>
      </trkpt>
      <trkpt lat="44.41924" lon="1.57654">
        <ele>239</ele>
        <time>2015-10-31T16:40:12Z</time>
      </trkpt>
      <trkpt lat="44.41919" lon="1.57649">
        <ele>238.6</ele>
        <time>2015-10-31T16:40:13Z</time>
      </trkpt>
      <trkpt lat="44.4191" lon="1.57647">
        <ele>238</ele>
        <time>2015-10-31T16:40:14Z</time>
      </trkpt>
      <trkpt lat="44.41905" lon="1.5764">
        <ele>237.6</ele>
        <time>2015-10-31T16:40:15Z</time>
      </trkpt>
      <trkpt lat="44.41902" lon="1.57634">
        <ele>237.3</ele>
        <time>2015-10-31T16:40:16Z</time>
      </trkpt>
      <trkpt lat="44.41897" lon="1.57628">
        <ele>236.9</ele>
        <time>2015-10-31T16:40:17Z</time>
      </trkpt>
      <trkpt lat="44.41893" lon="1.57621">
        <ele>236.4</ele>
        <time>2015-10-31T16:40:18Z</time>
      </trkpt>
      <trkpt lat="44.41889" lon="1.57614">
        <ele>235.9</ele>
        <time>2015-10-31T16:40:19Z</time>
      </trkpt>
      <trkpt lat="44.41884" lon="1.57608">
        <ele>235.4</ele>
        <time>2015-10-31T16:40:20Z</time>
      </trkpt>
      <trkpt lat="44.41878" lon="1.576">
        <ele>234.7</ele>
        <time>2015-10-31T16:40:21Z</time>
      </trkpt>
      <trkpt lat="44.41872" lon="1.57594">
        <ele>233.5</ele>
        <time>2015-10-31T16:40:22Z</time>
      </trkpt>
      <trkpt lat="44.4187" lon="1.57586">
        <ele>232.8</ele>
        <time>2015-10-31T16:40:23Z</time>
      </trkpt>
      <trkpt lat="44.41865" lon="1.5758">
        <ele>231.3</ele>
        <time>2015-10-31T16:40:24Z</time>
      </trkpt>
      <trkpt lat="44.41859" lon="1.57573">
        <ele>229.6</ele>
        <time>2015-10-31T16:40:25Z</time>
      </trkpt>
      <trkpt lat="44.41854" lon="1.57565">
        <ele>228</ele>
        <time>2015-10-31T16:40:26Z</time>
      </trkpt>
      <trkpt lat="44.41849" lon="1.57558">
        <ele>226.3</ele>
        <time>2015-10-31T16:40:27Z</time>
      </trkpt>
      <trkpt lat="44.41841" lon="1.57549">
        <ele>224</ele>
        <time>2015-10-31T16:40:28Z</time>
      </trkpt>
      <trkpt lat="44.41835" lon="1.5754">
        <ele>222</ele>
        <time>2015-10-31T16:40:29Z</time>
      </trkpt>
      <trkpt lat="44.41832" lon="1.57528">
        <ele>221.2</ele>
        <time>2015-10-31T16:40:30Z</time>
      </trkpt>
      <trkpt lat="44.41828" lon="1.57517">
        <ele>219.8</ele>
        <time>2015-10-31T16:40:31Z</time>
      </trkpt>
      <trkpt lat="44.41827" lon="1.57504">
        <ele>219.3</ele>
        <time>2015-10-31T16:40:32Z</time>
      </trkpt>
      <trkpt lat="44.41823" lon="1.57494">
        <ele>218.2</ele>
        <time>2015-10-31T16:40:33Z</time>
      </trkpt>
      <trkpt lat="44.41819" lon="1.57484">
        <ele>216.8</ele>
        <time>2015-10-31T16:40:34Z</time>
      </trkpt>
      <trkpt lat="44.41814" lon="1.57473">
        <ele>215.3</ele>
        <time>2015-10-31T16:40:35Z</time>
      </trkpt>
      <trkpt lat="44.4181" lon="1.57463">
        <ele>213.7</ele>
        <time>2015-10-31T16:40:36Z</time>
      </trkpt>
      <trkpt lat="44.41805" lon="1.57452">
        <ele>212.5</ele>
        <time>2015-10-31T16:40:37Z</time>
      </trkpt>
      <trkpt lat="44.418" lon="1.57435">
        <ele>211.2</ele>
        <time>2015-10-31T16:40:38Z</time>
      </trkpt>
      <trkpt lat="44.41796" lon="1.57421">
        <ele>210.4</ele>
        <time>2015-10-31T16:40:39Z</time>
      </trkpt>
      <trkpt lat="44.41794" lon="1.57407">
        <ele>210.5</ele>
        <time>2015-10-31T16:40:40Z</time>
      </trkpt>
      <trkpt lat="44.41796" lon="1.57394">
        <ele>211.3</ele>
        <time>2015-10-31T16:40:41Z</time>
      </trkpt>
      <trkpt lat="44.41794" lon="1.57382">
        <ele>211.3</ele>
        <time>2015-10-31T16:40:42Z</time>
      </trkpt>
      <trkpt lat="44.41792" lon="1.57368">
        <ele>211.7</ele>
        <time>2015-10-31T16:40:43Z</time>
      </trkpt>
      <trkpt lat="44.41787" lon="1.57351">
        <ele>212.2</ele>
        <time>2015-10-31T16:40:44Z</time>
      </trkpt>
      <trkpt lat="44.41784" lon="1.57335">
        <ele>212.6</ele>
        <time>2015-10-31T16:40:45Z</time>
      </trkpt>
      <trkpt lat="44.4178" lon="1.57322">
        <ele>212.8</ele>
        <time>2015-10-31T16:40:46Z</time>
      </trkpt>
      <trkpt lat="44.41776" lon="1.57308">
        <ele>213.2</ele>
        <time>2015-10-31T16:40:47Z</time>
      </trkpt>
      <trkpt lat="44.41771" lon="1.57296">
        <ele>213.1</ele>
        <time>2015-10-31T16:40:48Z</time>
      </trkpt>
      <trkpt lat="44.41764" lon="1.57281">
        <ele>211.3</ele>
        <time>2015-10-31T16:40:49Z</time>
      </trkpt>
      <trkpt lat="44.41759" lon="1.57266">
        <ele>210.1</ele>
        <time>2015-10-31T16:40:50Z</time>
      </trkpt>
      <trkpt lat="44.41755" lon="1.57252">
        <ele>209.1</ele>
        <time>2015-10-31T16:40:51Z</time>
      </trkpt>
      <trkpt lat="44.41751" lon="1.57239">
        <ele>208.6</ele>
        <time>2015-10-31T16:40:52Z</time>
      </trkpt>
      <trkpt lat="44.41753" lon="1.57221">
        <ele>209.2</ele>
        <time>2015-10-31T16:40:53Z</time>
      </trkpt>
      <trkpt lat="44.41752" lon="1.57206">
        <ele>209.3</ele>
        <time>2015-10-31T16:40:54Z</time>
      </trkpt>
      <trkpt lat="44.41752" lon="1.57191">
        <ele>209</ele>
        <time>2015-10-31T16:40:55Z</time>
      </trkpt>
      <trkpt lat="44.41753" lon="1.57176">
        <ele>208.7</ele>
        <time>2015-10-31T16:40:56Z</time>
      </trkpt>
      <trkpt lat="44.4176" lon="1.57164">
        <ele>209.5</ele>
        <time>2015-10-31T16:40:57Z</time>
      </trkpt>
      <trkpt lat="44.41765" lon="1.57149">
        <ele>209.9</ele>
        <time>2015-10-31T16:40:58Z</time>
      </trkpt>
      <trkpt lat="44.41769" lon="1.57136">
        <ele>210.1</ele>
        <time>2015-10-31T16:40:59Z</time>
      </trkpt>
      <trkpt lat="44.41772" lon="1.57122">
        <ele>209.9</ele>
        <time>2015-10-31T16:41:00Z</time>
      </trkpt>
      <trkpt lat="44.41772" lon="1.57107">
        <ele>208.8</ele>
        <time>2015-10-31T16:41:01Z</time>
      </trkpt>
      <trkpt lat="44.41773" lon="1.5709">
        <ele>207.6</ele>
        <time>2015-10-31T16:41:02Z</time>
      </trkpt>
      <trkpt lat="44.41775" lon="1.57079">
        <ele>207</ele>
        <time>2015-10-31T16:41:03Z</time>
      </trkpt>
      <trkpt lat="44.41775" lon="1.57062">
        <ele>205.6</ele>
        <time>2015-10-31T16:41:04Z</time>
      </trkpt>
      <trkpt lat="44.41776" lon="1.5705">
        <ele>204.7</ele>
        <time>2015-10-31T16:41:05Z</time>
      </trkpt>
      <trkpt lat="44.41777" lon="1.57037">
        <ele>203.2</ele>
        <time>2015-10-31T16:41:06Z</time>
      </trkpt>
      <trkpt lat="44.41776" lon="1.57028">
        <ele>200.9</ele>
        <time>2015-10-31T16:41:07Z</time>
      </trkpt>
      <trkpt lat="44.41776" lon="1.57017">
        <ele>198.5</ele>
        <time>2015-10-31T16:41:08Z</time>
      </trkpt>
      <trkpt lat="44.4178" lon="1.56998">
        <ele>194.6</ele>
        <time>2015-10-31T16:41:09Z</time>
      </trkpt>
      <trkpt lat="44.41788" lon="1.56988">
        <ele>192.9</ele>
        <time>2015-10-31T16:41:10Z</time>
      </trkpt>
      <trkpt lat="44.41793" lon="1.56979">
        <ele>191.3</ele>
        <time>2015-10-31T16:41:11Z</time>
      </trkpt>
      <trkpt lat="44.41801" lon="1.56969">
        <ele>190.6</ele>
        <time>2015-10-31T16:41:12Z</time>
      </trkpt>
      <trkpt lat="44.41807" lon="1.5696">
        <ele>189.8</ele>
        <time>2015-10-31T16:41:13Z</time>
      </trkpt>
      <trkpt lat="44.41814" lon="1.56948">
        <ele>189.6</ele>
        <time>2015-10-31T16:41:14Z</time>
      </trkpt>
      <trkpt lat="44.41817" lon="1.56932">
        <ele>187.7</ele>
        <time>2015-10-31T16:41:15Z</time>
      </trkpt>
      <trkpt lat="44.41821" lon="1.5692">
        <ele>186.8</ele>
        <time>2015-10-31T16:41:16Z</time>
      </trkpt>
      <trkpt lat="44.41822" lon="1.56906">
        <ele>184.6</ele>
        <time>2015-10-31T16:41:17Z</time>
      </trkpt>
      <trkpt lat="44.41825" lon="1.56891">
        <ele>183</ele>
        <time>2015-10-31T16:41:18Z</time>
      </trkpt>
      <trkpt lat="44.41828" lon="1.56877">
        <ele>181.2</ele>
        <time>2015-10-31T16:41:19Z</time>
      </trkpt>
      <trkpt lat="44.41832" lon="1.56862">
        <ele>181</ele>
        <time>2015-10-31T16:41:20Z</time>
      </trkpt>
      <trkpt lat="44.41838" lon="1.5685">
        <ele>181.1</ele>
        <time>2015-10-31T16:41:21Z</time>
      </trkpt>
      <trkpt lat="44.41842" lon="1.56835">
        <ele>180.7</ele>
        <time>2015-10-31T16:41:22Z</time>
      </trkpt>
      <trkpt lat="44.41845" lon="1.56819">
        <ele>180</ele>
        <time>2015-10-31T16:41:23Z</time>
      </trkpt>
      <trkpt lat="44.4185" lon="1.56802">
        <ele>179</ele>
        <time>2015-10-31T16:41:24Z</time>
      </trkpt>
      <trkpt lat="44.41856" lon="1.56789">
        <ele>178.6</ele>
        <time>2015-10-31T16:41:25Z</time>
      </trkpt>
      <trkpt lat="44.41859" lon="1.56773">
        <ele>178.6</ele>
        <time>2015-10-31T16:41:26Z</time>
      </trkpt>
      <trkpt lat="44.41865" lon="1.56758">
        <ele>178.6</ele>
        <time>2015-10-31T16:41:27Z</time>
      </trkpt>
      <trkpt lat="44.41871" lon="1.56742">
        <ele>178.6</ele>
        <time>2015-10-31T16:41:28Z</time>
      </trkpt>
      <trkpt lat="44.41876" lon="1.56724">
        <ele>178.6</ele>
        <time>2015-10-31T16:41:29Z</time>
      </trkpt>
      <trkpt lat="44.41881" lon="1.56708">
        <ele>179</ele>
        <time>2015-10-31T16:41:30Z</time>
      </trkpt>
      <trkpt lat="44.41885" lon="1.56693">
        <ele>178.7</ele>
        <time>2015-10-31T16:41:31Z</time>
      </trkpt>
      <trkpt lat="44.41889" lon="1.56676">
        <ele>178.2</ele>
        <time>2015-10-31T16:41:32Z</time>
      </trkpt>
      <trkpt lat="44.41892" lon="1.56657">
        <ele>177.5</ele>
        <time>2015-10-31T16:41:33Z</time>
      </trkpt>
      <trkpt lat="44.41893" lon="1.5664">
        <ele>176.6</ele>
        <time>2015-10-31T16:41:34Z</time>
      </trkpt>
      <trkpt lat="44.41894" lon="1.56623">
        <ele>175.7</ele>
        <time>2015-10-31T16:41:35Z</time>
      </trkpt>
      <trkpt lat="44.41896" lon="1.56605">
        <ele>175.6</ele>
        <time>2015-10-31T16:41:36Z</time>
      </trkpt>
      <trkpt lat="44.41898" lon="1.56586">
        <ele>175.4</ele>
        <time>2015-10-31T16:41:37Z</time>
      </trkpt>
      <trkpt lat="44.41898" lon="1.5657">
        <ele>175.1</ele>
        <time>2015-10-31T16:41:38Z</time>
      </trkpt>
      <trkpt lat="44.41903" lon="1.56553">
        <ele>175</ele>
        <time>2015-10-31T16:41:39Z</time>
      </trkpt>
      <trkpt lat="44.41908" lon="1.56536">
        <ele>175</ele>
        <time>2015-10-31T16:41:40Z</time>
      </trkpt>
      <trkpt lat="44.41917" lon="1.56522">
        <ele>175.1</ele>
        <time>2015-10-31T16:41:41Z</time>
      </trkpt>
      <trkpt lat="44.41923" lon="1.56509">
        <ele>174.9</ele>
        <time>2015-10-31T16:41:42Z</time>
      </trkpt>
      <trkpt lat="44.41928" lon="1.56494">
        <ele>174.3</ele>
        <time>2015-10-31T16:41:43Z</time>
      </trkpt>
      <trkpt lat="44.41933" lon="1.56478">
        <ele>173.4</ele>
        <time>2015-10-31T16:41:44Z</time>
      </trkpt>
      <trkpt lat="44.4194" lon="1.56465">
        <ele>172.1</ele>
        <time>2015-10-31T16:41:45Z</time>
      </trkpt>
      <trkpt lat="44.41947" lon="1.56453">
        <ele>171.1</ele>
        <time>2015-10-31T16:41:46Z</time>
      </trkpt>
      <trkpt lat="44.4195" lon="1.56442">
        <ele>170.6</ele>
        <time>2015-10-31T16:41:47Z</time>
      </trkpt>
      <trkpt lat="44.41951" lon="1.56429">
        <ele>170.4</ele>
        <time>2015-10-31T16:41:48Z</time>
      </trkpt>
      <trkpt lat="44.41958" lon="1.56416">
        <ele>169.1</ele>
        <time>2015-10-31T16:41:49Z</time>
      </trkpt>
      <trkpt lat="44.41966" lon="1.56408">
        <ele>169</ele>
        <time>2015-10-31T16:41:50Z</time>
      </trkpt>
      <trkpt lat="44.41975" lon="1.564">
        <ele>168.9</ele>
        <time>2015-10-31T16:41:51Z</time>
      </trkpt>
      <trkpt lat="44.41981" lon="1.56388">
        <ele>168.6</ele>
        <time>2015-10-31T16:41:52Z</time>
      </trkpt>
      <trkpt lat="44.41986" lon="1.56376">
        <ele>168</ele>
        <time>2015-10-31T16:41:53Z</time>
      </trkpt>
      <trkpt lat="44.4199" lon="1.56363">
        <ele>168.5</ele>
        <time>2015-10-31T16:41:54Z</time>
      </trkpt>
      <trkpt lat="44.41994" lon="1.5635">
        <ele>169</ele>
        <time>2015-10-31T16:41:55Z</time>
      </trkpt>
      <trkpt lat="44.41996" lon="1.56337">
        <ele>169.4</ele>
        <time>2015-10-31T16:41:56Z</time>
      </trkpt>
      <trkpt lat="44.41997" lon="1.56324">
        <ele>169.9</ele>
        <time>2015-10-31T16:41:57Z</time>
      </trkpt>
      <trkpt lat="44.41997" lon="1.56315">
        <ele>170.3</ele>
        <time>2015-10-31T16:41:58Z</time>
      </trkpt>
      <trkpt lat="44.41994" lon="1.56305">
        <ele>170.7</ele>
        <time>2015-10-31T16:41:59Z</time>
      </trkpt>
      <trkpt lat="44.41994" lon="1.56297">
        <ele>171.1</ele>
        <time>2015-10-31T16:42:00Z</time>
      </trkpt>
      <trkpt lat="44.41994" lon="1.56289">
        <ele>171.4</ele>
        <time>2015-10-31T16:42:01Z</time>
      </trkpt>
      <trkpt lat="44.41996" lon="1.56284">
        <ele>171.5</ele>
        <time>2015-10-31T16:42:03Z</time>
      </trkpt>
      <trkpt lat="44.42" lon="1.56283">
        <ele>171.4</ele>
        <time>2015-10-31T16:42:06Z</time>
      </trkpt>
      <trkpt lat="44.42" lon="1.56288">
        <ele>171.2</ele>
        <time>2015-10-31T16:42:08Z</time>
      </trkpt>
      <trkpt lat="44.41999" lon="1.56281">
        <ele>171.5</ele>
        <time>2015-10-31T16:42:28Z</time>
      </trkpt>
      <trkpt lat="44.41998" lon="1.56277">
        <ele>171.7</ele>
        <time>2015-10-31T16:42:29Z</time>
      </trkpt>
      <trkpt lat="44.41997" lon="1.56273">
        <ele>171.9</ele>
        <time>2015-10-31T16:42:30Z</time>
      </trkpt>
      <trkpt lat="44.41996" lon="1.56269">
        <ele>172.1</ele>
        <time>2015-10-31T16:42:31Z</time>
      </trkpt>
      <trkpt lat="44.41994" lon="1.56265">
        <ele>172.2</ele>
        <time>2015-10-31T16:42:32Z</time>
      </trkpt>
      <trkpt lat="44.41993" lon="1.56261">
        <ele>172.4</ele>
        <time>2015-10-31T16:42:33Z</time>
      </trkpt>
      <trkpt lat="44.41993" lon="1.56254">
        <ele>172.6</ele>
        <time>2015-10-31T16:42:35Z</time>
      </trkpt>
      <trkpt lat="44.41992" lon="1.56248">
        <ele>172.9</ele>
        <time>2015-10-31T16:42:37Z</time>
      </trkpt>
      <trkpt lat="44.4199" lon="1.56241">
        <ele>173.1</ele>
        <time>2015-10-31T16:42:39Z</time>
      </trkpt>
      <trkpt lat="44.41988" lon="1.56234">
        <ele>173.3</ele>
        <time>2015-10-31T16:42:41Z</time>
      </trkpt>
      <trkpt lat="44.41987" lon="1.56231">
        <ele>173.4</ele>
        <time>2015-10-31T16:42:42Z</time>
      </trkpt>
      <trkpt lat="44.41985" lon="1.56227">
        <ele>173.5</ele>
        <time>2015-10-31T16:42:43Z</time>
      </trkpt>
      <trkpt lat="44.41983" lon="1.56223">
        <ele>173.5</ele>
        <time>2015-10-31T16:42:44Z</time>
      </trkpt>
      <trkpt lat="44.4198" lon="1.56218">
        <ele>173.6</ele>
        <time>2015-10-31T16:42:45Z</time>
      </trkpt>
      <trkpt lat="44.41978" lon="1.56213">
        <ele>173.6</ele>
        <time>2015-10-31T16:42:46Z</time>
      </trkpt>
      <trkpt lat="44.41976" lon="1.5621">
        <ele>173.6</ele>
        <time>2015-10-31T16:42:47Z</time>
      </trkpt>
      <trkpt lat="44.41971" lon="1.56205">
        <ele>173.7</ele>
        <time>2015-10-31T16:42:48Z</time>
      </trkpt>
      <trkpt lat="44.41969" lon="1.56201">
        <ele>173.9</ele>
        <time>2015-10-31T16:42:49Z</time>
      </trkpt>
      <trkpt lat="44.4196" lon="1.56195">
        <ele>174.1</ele>
        <time>2015-10-31T16:42:50Z</time>
      </trkpt>
      <trkpt lat="44.41957" lon="1.56192">
        <ele>174.3</ele>
        <time>2015-10-31T16:42:51Z</time>
      </trkpt>
      <trkpt lat="44.41954" lon="1.56188">
        <ele>174.7</ele>
        <time>2015-10-31T16:42:52Z</time>
      </trkpt>
      <trkpt lat="44.4195" lon="1.56185">
        <ele>175</ele>
        <time>2015-10-31T16:42:53Z</time>
      </trkpt>
      <trkpt lat="44.41946" lon="1.56182">
        <ele>175.5</ele>
        <time>2015-10-31T16:42:54Z</time>
      </trkpt>
      <trkpt lat="44.41942" lon="1.56173">
        <ele>176.2</ele>
        <time>2015-10-31T16:42:56Z</time>
      </trkpt>
      <trkpt lat="44.41939" lon="1.56171">
        <ele>176.4</ele>
        <time>2015-10-31T16:42:57Z</time>
      </trkpt>
      <trkpt lat="44.41935" lon="1.56168">
        <ele>176.8</ele>
        <time>2015-10-31T16:42:58Z</time>
      </trkpt>
      <trkpt lat="44.41931" lon="1.56168">
        <ele>176.9</ele>
        <time>2015-10-31T16:42:59Z</time>
      </trkpt>
      <trkpt lat="44.41928" lon="1.56166">
        <ele>177.2</ele>
        <time>2015-10-31T16:43:00Z</time>
      </trkpt>
      <trkpt lat="44.41925" lon="1.56163">
        <ele>177.4</ele>
        <time>2015-10-31T16:43:01Z</time>
      </trkpt>
      <trkpt lat="44.41921" lon="1.56161">
        <ele>177.6</ele>
        <time>2015-10-31T16:43:02Z</time>
      </trkpt>
      <trkpt lat="44.41917" lon="1.56159">
        <ele>177.9</ele>
        <time>2015-10-31T16:43:03Z</time>
      </trkpt>
      <trkpt lat="44.41914" lon="1.56156">
        <ele>178.1</ele>
        <time>2015-10-31T16:43:04Z</time>
      </trkpt>
      <trkpt lat="44.4191" lon="1.56154">
        <ele>178.3</ele>
        <time>2015-10-31T16:43:05Z</time>
      </trkpt>
      <trkpt lat="44.41908" lon="1.56152">
        <ele>178.4</ele>
        <time>2015-10-31T16:43:06Z</time>
      </trkpt>
      <trkpt lat="44.41905" lon="1.56151">
        <ele>178.6</ele>
        <time>2015-10-31T16:43:07Z</time>
      </trkpt>
      <trkpt lat="44.41901" lon="1.56151">
        <ele>178.7</ele>
        <time>2015-10-31T16:43:08Z</time>
      </trkpt>
      <trkpt lat="44.41899" lon="1.5615">
        <ele>178.8</ele>
        <time>2015-10-31T16:43:09Z</time>
      </trkpt>
      <trkpt lat="44.41896" lon="1.56149">
        <ele>178.9</ele>
        <time>2015-10-31T16:43:10Z</time>
      </trkpt>
      <trkpt lat="44.41893" lon="1.56148">
        <ele>179</ele>
        <time>2015-10-31T16:43:11Z</time>
      </trkpt>
      <trkpt lat="44.4189" lon="1.56146">
        <ele>179.1</ele>
        <time>2015-10-31T16:43:12Z</time>
      </trkpt>
      <trkpt lat="44.41887" lon="1.56145">
        <ele>179.2</ele>
        <time>2015-10-31T16:43:13Z</time>
      </trkpt>
      <trkpt lat="44.41883" lon="1.56143">
        <ele>179.4</ele>
        <time>2015-10-31T16:43:14Z</time>
      </trkpt>
      <trkpt lat="44.4188" lon="1.56142">
        <ele>179.5</ele>
        <time>2015-10-31T16:43:15Z</time>
      </trkpt>
      <trkpt lat="44.41877" lon="1.56141">
        <ele>179.6</ele>
        <time>2015-10-31T16:43:16Z</time>
      </trkpt>
      <trkpt lat="44.41873" lon="1.5614">
        <ele>179.7</ele>
        <time>2015-10-31T16:43:17Z</time>
      </trkpt>
      <trkpt lat="44.4187" lon="1.56139">
        <ele>179.9</ele>
        <time>2015-10-31T16:43:18Z</time>
      </trkpt>
      <trkpt lat="44.41866" lon="1.56138">
        <ele>180</ele>
        <time>2015-10-31T16:43:19Z</time>
      </trkpt>
      <trkpt lat="44.41862" lon="1.56137">
        <ele>180.2</ele>
        <time>2015-10-31T16:43:20Z</time>
      </trkpt>
      <trkpt lat="44.41858" lon="1.56137">
        <ele>180.3</ele>
        <time>2015-10-31T16:43:21Z</time>
      </trkpt>
      <trkpt lat="44.41854" lon="1.56136">
        <ele>180.5</ele>
        <time>2015-10-31T16:43:22Z</time>
      </trkpt>
      <trkpt lat="44.4185" lon="1.56136">
        <ele>180.6</ele>
        <time>2015-10-31T16:43:23Z</time>
      </trkpt>
      <trkpt lat="44.41846" lon="1.56136">
        <ele>180.8</ele>
        <time>2015-10-31T16:43:24Z</time>
      </trkpt>
      <trkpt lat="44.41842" lon="1.56136">
        <ele>180.9</ele>
        <time>2015-10-31T16:43:25Z</time>
      </trkpt>
      <trkpt lat="44.41838" lon="1.56136">
        <ele>181</ele>
        <time>2015-10-31T16:43:26Z</time>
      </trkpt>
      <trkpt lat="44.41834" lon="1.56136">
        <ele>181.2</ele>
        <time>2015-10-31T16:43:27Z</time>
      </trkpt>
      <trkpt lat="44.41831" lon="1.56136">
        <ele>181.3</ele>
        <time>2015-10-31T16:43:28Z</time>
      </trkpt>
      <trkpt lat="44.41827" lon="1.56136">
        <ele>181.4</ele>
        <time>2015-10-31T16:43:29Z</time>
      </trkpt>
      <trkpt lat="44.41824" lon="1.56136">
        <ele>181.5</ele>
        <time>2015-10-31T16:43:30Z</time>
      </trkpt>
      <trkpt lat="44.4182" lon="1.56136">
        <ele>181.7</ele>
        <time>2015-10-31T16:43:31Z</time>
      </trkpt>
      <trkpt lat="44.41817" lon="1.56136">
        <ele>181.8</ele>
        <time>2015-10-31T16:43:32Z</time>
      </trkpt>
      <trkpt lat="44.41814" lon="1.56136">
        <ele>181.9</ele>
        <time>2015-10-31T16:43:33Z</time>
      </trkpt>
      <trkpt lat="44.4181" lon="1.56135">
        <ele>182</ele>
        <time>2015-10-31T16:43:34Z</time>
      </trkpt>
      <trkpt lat="44.41807" lon="1.56135">
        <ele>182.1</ele>
        <time>2015-10-31T16:43:35Z</time>
      </trkpt>
      <trkpt lat="44.41804" lon="1.56135">
        <ele>182.2</ele>
        <time>2015-10-31T16:43:36Z</time>
      </trkpt>
      <trkpt lat="44.41801" lon="1.56134">
        <ele>182.3</ele>
        <time>2015-10-31T16:43:37Z</time>
      </trkpt>
      <trkpt lat="44.41797" lon="1.56133">
        <ele>182.3</ele>
        <time>2015-10-31T16:43:38Z</time>
      </trkpt>
      <trkpt lat="44.41794" lon="1.56132">
        <ele>182.3</ele>
        <time>2015-10-31T16:43:39Z</time>
      </trkpt>
      <trkpt lat="44.41791" lon="1.56131">
        <ele>182.5</ele>
        <time>2015-10-31T16:43:40Z</time>
      </trkpt>
      <trkpt lat="44.41788" lon="1.5613">
        <ele>182.8</ele>
        <time>2015-10-31T16:43:41Z</time>
      </trkpt>
      <trkpt lat="44.41785" lon="1.56129">
        <ele>183.1</ele>
        <time>2015-10-31T16:43:42Z</time>
      </trkpt>
      <trkpt lat="44.41782" lon="1.56128">
        <ele>183.4</ele>
        <time>2015-10-31T16:43:43Z</time>
      </trkpt>
      <trkpt lat="44.41778" lon="1.56127">
        <ele>183.7</ele>
        <time>2015-10-31T16:43:44Z</time>
      </trkpt>
      <trkpt lat="44.41775" lon="1.56125">
        <ele>184</ele>
        <time>2015-10-31T16:43:45Z</time>
      </trkpt>
      <trkpt lat="44.41772" lon="1.56124">
        <ele>184.5</ele>
        <time>2015-10-31T16:43:46Z</time>
      </trkpt>
      <trkpt lat="44.41769" lon="1.56122">
        <ele>184.9</ele>
        <time>2015-10-31T16:43:47Z</time>
      </trkpt>
      <trkpt lat="44.41766" lon="1.56121">
        <ele>185.4</ele>
        <time>2015-10-31T16:43:48Z</time>
      </trkpt>
      <trkpt lat="44.41763" lon="1.56118">
        <ele>185.9</ele>
        <time>2015-10-31T16:43:49Z</time>
      </trkpt>
      <trkpt lat="44.4176" lon="1.56116">
        <ele>186.4</ele>
        <time>2015-10-31T16:43:50Z</time>
      </trkpt>
      <trkpt lat="44.41757" lon="1.56115">
        <ele>186.8</ele>
        <time>2015-10-31T16:43:51Z</time>
      </trkpt>
      <trkpt lat="44.41753" lon="1.56113">
        <ele>187.2</ele>
        <time>2015-10-31T16:43:52Z</time>
      </trkpt>
      <trkpt lat="44.4175" lon="1.5611">
        <ele>187.6</ele>
        <time>2015-10-31T16:43:53Z</time>
      </trkpt>
      <trkpt lat="44.41747" lon="1.56108">
        <ele>188</ele>
        <time>2015-10-31T16:43:54Z</time>
      </trkpt>
      <trkpt lat="44.41744" lon="1.56105">
        <ele>188.3</ele>
        <time>2015-10-31T16:43:55Z</time>
      </trkpt>
      <trkpt lat="44.41741" lon="1.56102">
        <ele>188.6</ele>
        <time>2015-10-31T16:43:56Z</time>
      </trkpt>
      <trkpt lat="44.41738" lon="1.56099">
        <ele>188.9</ele>
        <time>2015-10-31T16:43:57Z</time>
      </trkpt>
      <trkpt lat="44.41735" lon="1.56097">
        <ele>189.1</ele>
        <time>2015-10-31T16:43:58Z</time>
      </trkpt>
      <trkpt lat="44.41732" lon="1.56094">
        <ele>189.2</ele>
        <time>2015-10-31T16:43:59Z</time>
      </trkpt>
      <trkpt lat="44.4173" lon="1.56091">
        <ele>189.4</ele>
        <time>2015-10-31T16:44:00Z</time>
      </trkpt>
      <trkpt lat="44.41727" lon="1.56088">
        <ele>189.5</ele>
        <time>2015-10-31T16:44:01Z</time>
      </trkpt>
      <trkpt lat="44.41724" lon="1.56085">
        <ele>189.6</ele>
        <time>2015-10-31T16:44:02Z</time>
      </trkpt>
      <trkpt lat="44.41722" lon="1.56082">
        <ele>189.6</ele>
        <time>2015-10-31T16:44:03Z</time>
      </trkpt>
      <trkpt lat="44.4172" lon="1.56079">
        <ele>189.6</ele>
        <time>2015-10-31T16:44:04Z</time>
      </trkpt>
      <trkpt lat="44.41717" lon="1.56076">
        <ele>189.5</ele>
        <time>2015-10-31T16:44:05Z</time>
      </trkpt>
      <trkpt lat="44.41715" lon="1.56072">
        <ele>189.4</ele>
        <time>2015-10-31T16:44:06Z</time>
      </trkpt>
      <trkpt lat="44.41713" lon="1.56069">
        <ele>189.3</ele>
        <time>2015-10-31T16:44:07Z</time>
      </trkpt>
      <trkpt lat="44.4171" lon="1.56065">
        <ele>189.1</ele>
        <time>2015-10-31T16:44:08Z</time>
      </trkpt>
      <trkpt lat="44.41707" lon="1.56061">
        <ele>189.1</ele>
        <time>2015-10-31T16:44:09Z</time>
      </trkpt>
      <trkpt lat="44.41704" lon="1.56058">
        <ele>189.4</ele>
        <time>2015-10-31T16:44:10Z</time>
      </trkpt>
      <trkpt lat="44.41701" lon="1.56055">
        <ele>189.7</ele>
        <time>2015-10-31T16:44:11Z</time>
      </trkpt>
      <trkpt lat="44.41698" lon="1.56051">
        <ele>189.8</ele>
        <time>2015-10-31T16:44:12Z</time>
      </trkpt>
      <trkpt lat="44.41696" lon="1.56047">
        <ele>190</ele>
        <time>2015-10-31T16:44:13Z</time>
      </trkpt>
      <trkpt lat="44.41694" lon="1.56044">
        <ele>190.1</ele>
        <time>2015-10-31T16:44:14Z</time>
      </trkpt>
      <trkpt lat="44.41691" lon="1.56041">
        <ele>190.3</ele>
        <time>2015-10-31T16:44:15Z</time>
      </trkpt>
      <trkpt lat="44.4169" lon="1.56037">
        <ele>190.7</ele>
        <time>2015-10-31T16:44:16Z</time>
      </trkpt>
      <trkpt lat="44.41688" lon="1.56033">
        <ele>191.1</ele>
        <time>2015-10-31T16:44:17Z</time>
      </trkpt>
      <trkpt lat="44.41686" lon="1.5603">
        <ele>191.5</ele>
        <time>2015-10-31T16:44:18Z</time>
      </trkpt>
      <trkpt lat="44.41684" lon="1.56026">
        <ele>191.8</ele>
        <time>2015-10-31T16:44:19Z</time>
      </trkpt>
      <trkpt lat="44.41682" lon="1.56023">
        <ele>192.1</ele>
        <time>2015-10-31T16:44:20Z</time>
      </trkpt>
      <trkpt lat="44.41681" lon="1.56018">
        <ele>192.4</ele>
        <time>2015-10-31T16:44:21Z</time>
      </trkpt>
      <trkpt lat="44.41679" lon="1.56015">
        <ele>192.7</ele>
        <time>2015-10-31T16:44:22Z</time>
      </trkpt>
      <trkpt lat="44.41675" lon="1.56012">
        <ele>193</ele>
        <time>2015-10-31T16:44:23Z</time>
      </trkpt>
      <trkpt lat="44.41673" lon="1.56009">
        <ele>193.2</ele>
        <time>2015-10-31T16:44:24Z</time>
      </trkpt>
      <trkpt lat="44.4167" lon="1.56005">
        <ele>193.4</ele>
        <time>2015-10-31T16:44:25Z</time>
      </trkpt>
      <trkpt lat="44.41667" lon="1.56002">
        <ele>193.5</ele>
        <time>2015-10-31T16:44:26Z</time>
      </trkpt>
      <trkpt lat="44.41664" lon="1.55999">
        <ele>193.6</ele>
        <time>2015-10-31T16:44:27Z</time>
      </trkpt>
      <trkpt lat="44.41662" lon="1.55996">
        <ele>193.6</ele>
        <time>2015-10-31T16:44:28Z</time>
      </trkpt>
      <trkpt lat="44.4166" lon="1.55992">
        <ele>193.6</ele>
        <time>2015-10-31T16:44:29Z</time>
      </trkpt>
      <trkpt lat="44.41658" lon="1.55989">
        <ele>193.6</ele>
        <time>2015-10-31T16:44:30Z</time>
      </trkpt>
      <trkpt lat="44.41656" lon="1.55986">
        <ele>193.5</ele>
        <time>2015-10-31T16:44:31Z</time>
      </trkpt>
      <trkpt lat="44.41654" lon="1.55983">
        <ele>193.5</ele>
        <time>2015-10-31T16:44:32Z</time>
      </trkpt>
      <trkpt lat="44.41651" lon="1.5598">
        <ele>193.4</ele>
        <time>2015-10-31T16:44:33Z</time>
      </trkpt>
      <trkpt lat="44.41649" lon="1.55976">
        <ele>193.2</ele>
        <time>2015-10-31T16:44:34Z</time>
      </trkpt>
      <trkpt lat="44.41646" lon="1.55973">
        <ele>193</ele>
        <time>2015-10-31T16:44:35Z</time>
      </trkpt>
      <trkpt lat="44.41643" lon="1.5597">
        <ele>192.7</ele>
        <time>2015-10-31T16:44:36Z</time>
      </trkpt>
      <trkpt lat="44.41641" lon="1.55967">
        <ele>192.5</ele>
        <time>2015-10-31T16:44:37Z</time>
      </trkpt>
      <trkpt lat="44.41637" lon="1.55965">
        <ele>192.2</ele>
        <time>2015-10-31T16:44:38Z</time>
      </trkpt>
      <trkpt lat="44.41634" lon="1.55962">
        <ele>191.9</ele>
        <time>2015-10-31T16:44:39Z</time>
      </trkpt>
      <trkpt lat="44.41632" lon="1.55959">
        <ele>191.5</ele>
        <time>2015-10-31T16:44:40Z</time>
      </trkpt>
      <trkpt lat="44.41629" lon="1.55957">
        <ele>191.3</ele>
        <time>2015-10-31T16:44:41Z</time>
      </trkpt>
      <trkpt lat="44.41627" lon="1.55953">
        <ele>191.2</ele>
        <time>2015-10-31T16:44:42Z</time>
      </trkpt>
      <trkpt lat="44.41624" lon="1.5595">
        <ele>191.3</ele>
        <time>2015-10-31T16:44:43Z</time>
      </trkpt>
      <trkpt lat="44.41622" lon="1.55946">
        <ele>191.9</ele>
        <time>2015-10-31T16:44:44Z</time>
      </trkpt>
      <trkpt lat="44.41619" lon="1.55942">
        <ele>192.5</ele>
        <time>2015-10-31T16:44:45Z</time>
      </trkpt>
      <trkpt lat="44.41617" lon="1.55938">
        <ele>192.9</ele>
        <time>2015-10-31T16:44:46Z</time>
      </trkpt>
      <trkpt lat="44.41614" lon="1.55933">
        <ele>193.4</ele>
        <time>2015-10-31T16:44:47Z</time>
      </trkpt>
      <trkpt lat="44.41612" lon="1.5593">
        <ele>193.8</ele>
        <time>2015-10-31T16:44:48Z</time>
      </trkpt>
      <trkpt lat="44.41608" lon="1.55925">
        <ele>194.3</ele>
        <time>2015-10-31T16:44:49Z</time>
      </trkpt>
      <trkpt lat="44.41605" lon="1.55921">
        <ele>194.7</ele>
        <time>2015-10-31T16:44:50Z</time>
      </trkpt>
      <trkpt lat="44.41603" lon="1.55917">
        <ele>194.9</ele>
        <time>2015-10-31T16:44:51Z</time>
      </trkpt>
      <trkpt lat="44.416" lon="1.55913">
        <ele>195.2</ele>
        <time>2015-10-31T16:44:52Z</time>
      </trkpt>
      <trkpt lat="44.41598" lon="1.55909">
        <ele>195.3</ele>
        <time>2015-10-31T16:44:53Z</time>
      </trkpt>
      <trkpt lat="44.41596" lon="1.55903">
        <ele>195.3</ele>
        <time>2015-10-31T16:44:54Z</time>
      </trkpt>
      <trkpt lat="44.41595" lon="1.55898">
        <ele>195.2</ele>
        <time>2015-10-31T16:44:55Z</time>
      </trkpt>
      <trkpt lat="44.41594" lon="1.55893">
        <ele>195.2</ele>
        <time>2015-10-31T16:44:56Z</time>
      </trkpt>
      <trkpt lat="44.41594" lon="1.55889">
        <ele>195.1</ele>
        <time>2015-10-31T16:44:57Z</time>
      </trkpt>
      <trkpt lat="44.41593" lon="1.55884">
        <ele>194.9</ele>
        <time>2015-10-31T16:44:58Z</time>
      </trkpt>
      <trkpt lat="44.41592" lon="1.55881">
        <ele>194.8</ele>
        <time>2015-10-31T16:44:59Z</time>
      </trkpt>
      <trkpt lat="44.41591" lon="1.55876">
        <ele>194.7</ele>
        <time>2015-10-31T16:45:00Z</time>
      </trkpt>
      <trkpt lat="44.41589" lon="1.55872">
        <ele>194.8</ele>
        <time>2015-10-31T16:45:01Z</time>
      </trkpt>
      <trkpt lat="44.41587" lon="1.55868">
        <ele>194.9</ele>
        <time>2015-10-31T16:45:02Z</time>
      </trkpt>
      <trkpt lat="44.41585" lon="1.55864">
        <ele>195</ele>
        <time>2015-10-31T16:45:03Z</time>
      </trkpt>
      <trkpt lat="44.41583" lon="1.55859">
        <ele>195.1</ele>
        <time>2015-10-31T16:45:04Z</time>
      </trkpt>
      <trkpt lat="44.41582" lon="1.55854">
        <ele>195.2</ele>
        <time>2015-10-31T16:45:05Z</time>
      </trkpt>
      <trkpt lat="44.41581" lon="1.5585">
        <ele>195.2</ele>
        <time>2015-10-31T16:45:06Z</time>
      </trkpt>
      <trkpt lat="44.41579" lon="1.55845">
        <ele>195.3</ele>
        <time>2015-10-31T16:45:07Z</time>
      </trkpt>
      <trkpt lat="44.41577" lon="1.5584">
        <ele>195.3</ele>
        <time>2015-10-31T16:45:08Z</time>
      </trkpt>
      <trkpt lat="44.41575" lon="1.55835">
        <ele>195.4</ele>
        <time>2015-10-31T16:45:09Z</time>
      </trkpt>
      <trkpt lat="44.41573" lon="1.55831">
        <ele>195.4</ele>
        <time>2015-10-31T16:45:10Z</time>
      </trkpt>
      <trkpt lat="44.41572" lon="1.55825">
        <ele>195.4</ele>
        <time>2015-10-31T16:45:11Z</time>
      </trkpt>
      <trkpt lat="44.41572" lon="1.5582">
        <ele>195.4</ele>
        <time>2015-10-31T16:45:12Z</time>
      </trkpt>
      <trkpt lat="44.41572" lon="1.55815">
        <ele>195.4</ele>
        <time>2015-10-31T16:45:13Z</time>
      </trkpt>
      <trkpt lat="44.41571" lon="1.5581">
        <ele>195.4</ele>
        <time>2015-10-31T16:45:14Z</time>
      </trkpt>
      <trkpt lat="44.4157" lon="1.55805">
        <ele>195.4</ele>
        <time>2015-10-31T16:45:15Z</time>
      </trkpt>
      <trkpt lat="44.41568" lon="1.55801">
        <ele>195.4</ele>
        <time>2015-10-31T16:45:16Z</time>
      </trkpt>
      <trkpt lat="44.41566" lon="1.55796">
        <ele>195.3</ele>
        <time>2015-10-31T16:45:17Z</time>
      </trkpt>
      <trkpt lat="44.41565" lon="1.55791">
        <ele>195.3</ele>
        <time>2015-10-31T16:45:18Z</time>
      </trkpt>
      <trkpt lat="44.41564" lon="1.55784">
        <ele>195.4</ele>
        <time>2015-10-31T16:45:19Z</time>
      </trkpt>
      <trkpt lat="44.41563" lon="1.55778">
        <ele>195.5</ele>
        <time>2015-10-31T16:45:20Z</time>
      </trkpt>
      <trkpt lat="44.41563" lon="1.55772">
        <ele>195.6</ele>
        <time>2015-10-31T16:45:21Z</time>
      </trkpt>
      <trkpt lat="44.41562" lon="1.55765">
        <ele>195.6</ele>
        <time>2015-10-31T16:45:22Z</time>
      </trkpt>
      <trkpt lat="44.41561" lon="1.5576">
        <ele>195.7</ele>
        <time>2015-10-31T16:45:23Z</time>
      </trkpt>
      <trkpt lat="44.4156" lon="1.55754">
        <ele>195.7</ele>
        <time>2015-10-31T16:45:24Z</time>
      </trkpt>
      <trkpt lat="44.41559" lon="1.55748">
        <ele>195.8</ele>
        <time>2015-10-31T16:45:25Z</time>
      </trkpt>
      <trkpt lat="44.41559" lon="1.55743">
        <ele>195.8</ele>
        <time>2015-10-31T16:45:26Z</time>
      </trkpt>
      <trkpt lat="44.41558" lon="1.55737">
        <ele>195.8</ele>
        <time>2015-10-31T16:45:27Z</time>
      </trkpt>
      <trkpt lat="44.41557" lon="1.55732">
        <ele>195.8</ele>
        <time>2015-10-31T16:45:28Z</time>
      </trkpt>
      <trkpt lat="44.41556" lon="1.55727">
        <ele>195.9</ele>
        <time>2015-10-31T16:45:29Z</time>
      </trkpt>
      <trkpt lat="44.41555" lon="1.55721">
        <ele>195.9</ele>
        <time>2015-10-31T16:45:30Z</time>
      </trkpt>
      <trkpt lat="44.41555" lon="1.55715">
        <ele>195.9</ele>
        <time>2015-10-31T16:45:31Z</time>
      </trkpt>
      <trkpt lat="44.41554" lon="1.5571">
        <ele>195.9</ele>
        <time>2015-10-31T16:45:32Z</time>
      </trkpt>
      <trkpt lat="44.41553" lon="1.55704">
        <ele>195.8</ele>
        <time>2015-10-31T16:45:33Z</time>
      </trkpt>
      <trkpt lat="44.41551" lon="1.55698">
        <ele>195.6</ele>
        <time>2015-10-31T16:45:34Z</time>
      </trkpt>
      <trkpt lat="44.4155" lon="1.55693">
        <ele>195.5</ele>
        <time>2015-10-31T16:45:35Z</time>
      </trkpt>
      <trkpt lat="44.41548" lon="1.55687">
        <ele>195.3</ele>
        <time>2015-10-31T16:45:36Z</time>
      </trkpt>
      <trkpt lat="44.41547" lon="1.55682">
        <ele>195.2</ele>
        <time>2015-10-31T16:45:37Z</time>
      </trkpt>
      <trkpt lat="44.41546" lon="1.55676">
        <ele>195</ele>
        <time>2015-10-31T16:45:38Z</time>
      </trkpt>
      <trkpt lat="44.41541" lon="1.55666">
        <ele>194.6</ele>
        <time>2015-10-31T16:45:39Z</time>
      </trkpt>
      <trkpt lat="44.41537" lon="1.55659">
        <ele>195.4</ele>
        <time>2015-10-31T16:45:40Z</time>
      </trkpt>
      <trkpt lat="44.41534" lon="1.55653">
        <ele>195.9</ele>
        <time>2015-10-31T16:45:41Z</time>
      </trkpt>
      <trkpt lat="44.41533" lon="1.55647">
        <ele>196.2</ele>
        <time>2015-10-31T16:45:42Z</time>
      </trkpt>
      <trkpt lat="44.41531" lon="1.55643">
        <ele>196.5</ele>
        <time>2015-10-31T16:45:43Z</time>
      </trkpt>
      <trkpt lat="44.4153" lon="1.55637">
        <ele>196.5</ele>
        <time>2015-10-31T16:45:44Z</time>
      </trkpt>
      <trkpt lat="44.41529" lon="1.55631">
        <ele>196.7</ele>
        <time>2015-10-31T16:45:45Z</time>
      </trkpt>
      <trkpt lat="44.41529" lon="1.55627">
        <ele>196.7</ele>
        <time>2015-10-31T16:45:46Z</time>
      </trkpt>
      <trkpt lat="44.41528" lon="1.55622">
        <ele>196.9</ele>
        <time>2015-10-31T16:45:47Z</time>
      </trkpt>
      <trkpt lat="44.41527" lon="1.55617">
        <ele>197.1</ele>
        <time>2015-10-31T16:45:48Z</time>
      </trkpt>
      <trkpt lat="44.41526" lon="1.55612">
        <ele>197.4</ele>
        <time>2015-10-31T16:45:49Z</time>
      </trkpt>
      <trkpt lat="44.41525" lon="1.55606">
        <ele>197.7</ele>
        <time>2015-10-31T16:45:50Z</time>
      </trkpt>
      <trkpt lat="44.41525" lon="1.556">
        <ele>197.8</ele>
        <time>2015-10-31T16:45:51Z</time>
      </trkpt>
      <trkpt lat="44.41525" lon="1.55593">
        <ele>198</ele>
        <time>2015-10-31T16:45:52Z</time>
      </trkpt>
      <trkpt lat="44.41524" lon="1.55586">
        <ele>198.4</ele>
        <time>2015-10-31T16:45:53Z</time>
      </trkpt>
      <trkpt lat="44.41523" lon="1.55581">
        <ele>198.6</ele>
        <time>2015-10-31T16:45:54Z</time>
      </trkpt>
      <trkpt lat="44.41524" lon="1.55576">
        <ele>198.6</ele>
        <time>2015-10-31T16:45:55Z</time>
      </trkpt>
      <trkpt lat="44.41523" lon="1.5557">
        <ele>198.8</ele>
        <time>2015-10-31T16:45:56Z</time>
      </trkpt>
      <trkpt lat="44.41525" lon="1.55566">
        <ele>198.5</ele>
        <time>2015-10-31T16:45:57Z</time>
      </trkpt>
      <trkpt lat="44.41526" lon="1.55561">
        <ele>198.4</ele>
        <time>2015-10-31T16:45:58Z</time>
      </trkpt>
      <trkpt lat="44.41527" lon="1.55556">
        <ele>198.3</ele>
        <time>2015-10-31T16:45:59Z</time>
      </trkpt>
      <trkpt lat="44.41529" lon="1.5555">
        <ele>198.2</ele>
        <time>2015-10-31T16:46:00Z</time>
      </trkpt>
      <trkpt lat="44.4153" lon="1.55545">
        <ele>198.1</ele>
        <time>2015-10-31T16:46:01Z</time>
      </trkpt>
      <trkpt lat="44.41531" lon="1.55539">
        <ele>198.1</ele>
        <time>2015-10-31T16:46:02Z</time>
      </trkpt>
      <trkpt lat="44.41531" lon="1.55532">
        <ele>198.2</ele>
        <time>2015-10-31T16:46:03Z</time>
      </trkpt>
      <trkpt lat="44.41534" lon="1.55524">
        <ele>197.9</ele>
        <time>2015-10-31T16:46:04Z</time>
      </trkpt>
      <trkpt lat="44.41535" lon="1.55517">
        <ele>198</ele>
        <time>2015-10-31T16:46:05Z</time>
      </trkpt>
      <trkpt lat="44.41537" lon="1.55512">
        <ele>198</ele>
        <time>2015-10-31T16:46:06Z</time>
      </trkpt>
      <trkpt lat="44.41538" lon="1.55505">
        <ele>198</ele>
        <time>2015-10-31T16:46:07Z</time>
      </trkpt>
      <trkpt lat="44.41538" lon="1.555">
        <ele>198.1</ele>
        <time>2015-10-31T16:46:08Z</time>
      </trkpt>
      <trkpt lat="44.4154" lon="1.55493">
        <ele>198.1</ele>
        <time>2015-10-31T16:46:09Z</time>
      </trkpt>
      <trkpt lat="44.4154" lon="1.55488">
        <ele>198.1</ele>
        <time>2015-10-31T16:46:10Z</time>
      </trkpt>
      <trkpt lat="44.41543" lon="1.55482">
        <ele>198.2</ele>
        <time>2015-10-31T16:46:11Z</time>
      </trkpt>
      <trkpt lat="44.41543" lon="1.55477">
        <ele>198.5</ele>
        <time>2015-10-31T16:46:12Z</time>
      </trkpt>
      <trkpt lat="44.41544" lon="1.55472">
        <ele>198.7</ele>
        <time>2015-10-31T16:46:13Z</time>
      </trkpt>
      <trkpt lat="44.41546" lon="1.55466">
        <ele>199</ele>
        <time>2015-10-31T16:46:14Z</time>
      </trkpt>
      <trkpt lat="44.41547" lon="1.55461">
        <ele>199.3</ele>
        <time>2015-10-31T16:46:15Z</time>
      </trkpt>
      <trkpt lat="44.41549" lon="1.55456">
        <ele>199.5</ele>
        <time>2015-10-31T16:46:16Z</time>
      </trkpt>
      <trkpt lat="44.4155" lon="1.55449">
        <ele>199.8</ele>
        <time>2015-10-31T16:46:17Z</time>
      </trkpt>
      <trkpt lat="44.41551" lon="1.55444">
        <ele>200.1</ele>
        <time>2015-10-31T16:46:18Z</time>
      </trkpt>
      <trkpt lat="44.41552" lon="1.55439">
        <ele>200.3</ele>
        <time>2015-10-31T16:46:19Z</time>
      </trkpt>
      <trkpt lat="44.41553" lon="1.55434">
        <ele>200.5</ele>
        <time>2015-10-31T16:46:20Z</time>
      </trkpt>
      <trkpt lat="44.41554" lon="1.55428">
        <ele>200.7</ele>
        <time>2015-10-31T16:46:21Z</time>
      </trkpt>
      <trkpt lat="44.41556" lon="1.55423">
        <ele>200.9</ele>
        <time>2015-10-31T16:46:22Z</time>
      </trkpt>
      <trkpt lat="44.41557" lon="1.55417">
        <ele>201.1</ele>
        <time>2015-10-31T16:46:23Z</time>
      </trkpt>
      <trkpt lat="44.41558" lon="1.55411">
        <ele>201.3</ele>
        <time>2015-10-31T16:46:24Z</time>
      </trkpt>
      <trkpt lat="44.41558" lon="1.55404">
        <ele>201.4</ele>
        <time>2015-10-31T16:46:25Z</time>
      </trkpt>
      <trkpt lat="44.41559" lon="1.55398">
        <ele>201.6</ele>
        <time>2015-10-31T16:46:26Z</time>
      </trkpt>
      <trkpt lat="44.4156" lon="1.55394">
        <ele>201.7</ele>
        <time>2015-10-31T16:46:27Z</time>
      </trkpt>
      <trkpt lat="44.4156" lon="1.55388">
        <ele>201.8</ele>
        <time>2015-10-31T16:46:28Z</time>
      </trkpt>
      <trkpt lat="44.41561" lon="1.55381">
        <ele>202</ele>
        <time>2015-10-31T16:46:29Z</time>
      </trkpt>
      <trkpt lat="44.4156" lon="1.55375">
        <ele>202.1</ele>
        <time>2015-10-31T16:46:30Z</time>
      </trkpt>
      <trkpt lat="44.4156" lon="1.55368">
        <ele>202.3</ele>
        <time>2015-10-31T16:46:31Z</time>
      </trkpt>
      <trkpt lat="44.4156" lon="1.55362">
        <ele>202.5</ele>
        <time>2015-10-31T16:46:32Z</time>
      </trkpt>
      <trkpt lat="44.41559" lon="1.55355">
        <ele>202.8</ele>
        <time>2015-10-31T16:46:33Z</time>
      </trkpt>
      <trkpt lat="44.41558" lon="1.5535">
        <ele>202.9</ele>
        <time>2015-10-31T16:46:34Z</time>
      </trkpt>
      <trkpt lat="44.41557" lon="1.55344">
        <ele>203.1</ele>
        <time>2015-10-31T16:46:35Z</time>
      </trkpt>
      <trkpt lat="44.41556" lon="1.55338">
        <ele>203.3</ele>
        <time>2015-10-31T16:46:36Z</time>
      </trkpt>
      <trkpt lat="44.41555" lon="1.55332">
        <ele>203.5</ele>
        <time>2015-10-31T16:46:37Z</time>
      </trkpt>
      <trkpt lat="44.41554" lon="1.55327">
        <ele>203.6</ele>
        <time>2015-10-31T16:46:38Z</time>
      </trkpt>
      <trkpt lat="44.41552" lon="1.55321">
        <ele>203.7</ele>
        <time>2015-10-31T16:46:39Z</time>
      </trkpt>
      <trkpt lat="44.4155" lon="1.55316">
        <ele>203.8</ele>
        <time>2015-10-31T16:46:40Z</time>
      </trkpt>
      <trkpt lat="44.41548" lon="1.55311">
        <ele>203.9</ele>
        <time>2015-10-31T16:46:41Z</time>
      </trkpt>
      <trkpt lat="44.41546" lon="1.55307">
        <ele>203.9</ele>
        <time>2015-10-31T16:46:42Z</time>
      </trkpt>
      <trkpt lat="44.41544" lon="1.55302">
        <ele>203.9</ele>
        <time>2015-10-31T16:46:43Z</time>
      </trkpt>
      <trkpt lat="44.41542" lon="1.55296">
        <ele>203.9</ele>
        <time>2015-10-31T16:46:44Z</time>
      </trkpt>
      <trkpt lat="44.41539" lon="1.55291">
        <ele>204.4</ele>
        <time>2015-10-31T16:46:45Z</time>
      </trkpt>
      <trkpt lat="44.41537" lon="1.55286">
        <ele>204.9</ele>
        <time>2015-10-31T16:46:46Z</time>
      </trkpt>
      <trkpt lat="44.41536" lon="1.5528">
        <ele>205.4</ele>
        <time>2015-10-31T16:46:47Z</time>
      </trkpt>
      <trkpt lat="44.41534" lon="1.55275">
        <ele>205.8</ele>
        <time>2015-10-31T16:46:48Z</time>
      </trkpt>
      <trkpt lat="44.41531" lon="1.5527">
        <ele>206.3</ele>
        <time>2015-10-31T16:46:49Z</time>
      </trkpt>
      <trkpt lat="44.41529" lon="1.55265">
        <ele>206.6</ele>
        <time>2015-10-31T16:46:50Z</time>
      </trkpt>
      <trkpt lat="44.41527" lon="1.5526">
        <ele>207</ele>
        <time>2015-10-31T16:46:51Z</time>
      </trkpt>
      <trkpt lat="44.41525" lon="1.55256">
        <ele>207.3</ele>
        <time>2015-10-31T16:46:52Z</time>
      </trkpt>
      <trkpt lat="44.41522" lon="1.55251">
        <ele>207.5</ele>
        <time>2015-10-31T16:46:53Z</time>
      </trkpt>
      <trkpt lat="44.4152" lon="1.55247">
        <ele>207.7</ele>
        <time>2015-10-31T16:46:54Z</time>
      </trkpt>
      <trkpt lat="44.41518" lon="1.55243">
        <ele>207.9</ele>
        <time>2015-10-31T16:46:55Z</time>
      </trkpt>
      <trkpt lat="44.41515" lon="1.55238">
        <ele>208.1</ele>
        <time>2015-10-31T16:46:56Z</time>
      </trkpt>
      <trkpt lat="44.41512" lon="1.55234">
        <ele>208.2</ele>
        <time>2015-10-31T16:46:57Z</time>
      </trkpt>
      <trkpt lat="44.4151" lon="1.55229">
        <ele>208.2</ele>
        <time>2015-10-31T16:46:58Z</time>
      </trkpt>
      <trkpt lat="44.41507" lon="1.55224">
        <ele>208.2</ele>
        <time>2015-10-31T16:46:59Z</time>
      </trkpt>
      <trkpt lat="44.41505" lon="1.5522">
        <ele>208.2</ele>
        <time>2015-10-31T16:47:00Z</time>
      </trkpt>
      <trkpt lat="44.41502" lon="1.55215">
        <ele>208.1</ele>
        <time>2015-10-31T16:47:01Z</time>
      </trkpt>
      <trkpt lat="44.41499" lon="1.55211">
        <ele>208</ele>
        <time>2015-10-31T16:47:02Z</time>
      </trkpt>
      <trkpt lat="44.41495" lon="1.55207">
        <ele>208</ele>
        <time>2015-10-31T16:47:03Z</time>
      </trkpt>
      <trkpt lat="44.41492" lon="1.55204">
        <ele>208.1</ele>
        <time>2015-10-31T16:47:04Z</time>
      </trkpt>
      <trkpt lat="44.41488" lon="1.55201">
        <ele>208.2</ele>
        <time>2015-10-31T16:47:05Z</time>
      </trkpt>
      <trkpt lat="44.41485" lon="1.55197">
        <ele>208.4</ele>
        <time>2015-10-31T16:47:06Z</time>
      </trkpt>
      <trkpt lat="44.41481" lon="1.55194">
        <ele>208.5</ele>
        <time>2015-10-31T16:47:07Z</time>
      </trkpt>
      <trkpt lat="44.41478" lon="1.5519">
        <ele>208.6</ele>
        <time>2015-10-31T16:47:08Z</time>
      </trkpt>
      <trkpt lat="44.41475" lon="1.55186">
        <ele>208.6</ele>
        <time>2015-10-31T16:47:09Z</time>
      </trkpt>
      <trkpt lat="44.41473" lon="1.55182">
        <ele>208.7</ele>
        <time>2015-10-31T16:47:10Z</time>
      </trkpt>
      <trkpt lat="44.41469" lon="1.55178">
        <ele>208.7</ele>
        <time>2015-10-31T16:47:11Z</time>
      </trkpt>
      <trkpt lat="44.41467" lon="1.55173">
        <ele>208.8</ele>
        <time>2015-10-31T16:47:12Z</time>
      </trkpt>
      <trkpt lat="44.41464" lon="1.55169">
        <ele>208.8</ele>
        <time>2015-10-31T16:47:13Z</time>
      </trkpt>
      <trkpt lat="44.41461" lon="1.55165">
        <ele>208.8</ele>
        <time>2015-10-31T16:47:14Z</time>
      </trkpt>
      <trkpt lat="44.41459" lon="1.55161">
        <ele>208.8</ele>
        <time>2015-10-31T16:47:15Z</time>
      </trkpt>
      <trkpt lat="44.41457" lon="1.55157">
        <ele>208.9</ele>
        <time>2015-10-31T16:47:16Z</time>
      </trkpt>
      <trkpt lat="44.41454" lon="1.55154">
        <ele>209.2</ele>
        <time>2015-10-31T16:47:17Z</time>
      </trkpt>
      <trkpt lat="44.41451" lon="1.55151">
        <ele>209.5</ele>
        <time>2015-10-31T16:47:18Z</time>
      </trkpt>
      <trkpt lat="44.41448" lon="1.55148">
        <ele>209.7</ele>
        <time>2015-10-31T16:47:19Z</time>
      </trkpt>
      <trkpt lat="44.41444" lon="1.55145">
        <ele>209.9</ele>
        <time>2015-10-31T16:47:20Z</time>
      </trkpt>
      <trkpt lat="44.4144" lon="1.55143">
        <ele>210.1</ele>
        <time>2015-10-31T16:47:21Z</time>
      </trkpt>
      <trkpt lat="44.41436" lon="1.5514">
        <ele>210.3</ele>
        <time>2015-10-31T16:47:22Z</time>
      </trkpt>
      <trkpt lat="44.41432" lon="1.55138">
        <ele>210.4</ele>
        <time>2015-10-31T16:47:23Z</time>
      </trkpt>
      <trkpt lat="44.41429" lon="1.55136">
        <ele>210.5</ele>
        <time>2015-10-31T16:47:24Z</time>
      </trkpt>
      <trkpt lat="44.41426" lon="1.55133">
        <ele>210.5</ele>
        <time>2015-10-31T16:47:25Z</time>
      </trkpt>
      <trkpt lat="44.41423" lon="1.55131">
        <ele>210.5</ele>
        <time>2015-10-31T16:47:26Z</time>
      </trkpt>
      <trkpt lat="44.4142" lon="1.55128">
        <ele>210.5</ele>
        <time>2015-10-31T16:47:27Z</time>
      </trkpt>
      <trkpt lat="44.41416" lon="1.55126">
        <ele>210.5</ele>
        <time>2015-10-31T16:47:28Z</time>
      </trkpt>
      <trkpt lat="44.41413" lon="1.55125">
        <ele>210.6</ele>
        <time>2015-10-31T16:47:29Z</time>
      </trkpt>
      <trkpt lat="44.41409" lon="1.55123">
        <ele>210.7</ele>
        <time>2015-10-31T16:47:30Z</time>
      </trkpt>
      <trkpt lat="44.41406" lon="1.5512">
        <ele>210.9</ele>
        <time>2015-10-31T16:47:31Z</time>
      </trkpt>
      <trkpt lat="44.41402" lon="1.55118">
        <ele>211</ele>
        <time>2015-10-31T16:47:32Z</time>
      </trkpt>
      <trkpt lat="44.41399" lon="1.55116">
        <ele>211.1</ele>
        <time>2015-10-31T16:47:33Z</time>
      </trkpt>
      <trkpt lat="44.41395" lon="1.55114">
        <ele>211.2</ele>
        <time>2015-10-31T16:47:34Z</time>
      </trkpt>
      <trkpt lat="44.41392" lon="1.55112">
        <ele>211.2</ele>
        <time>2015-10-31T16:47:35Z</time>
      </trkpt>
      <trkpt lat="44.41389" lon="1.5511">
        <ele>211.3</ele>
        <time>2015-10-31T16:47:36Z</time>
      </trkpt>
      <trkpt lat="44.41386" lon="1.55107">
        <ele>211.3</ele>
        <time>2015-10-31T16:47:37Z</time>
      </trkpt>
      <trkpt lat="44.41382" lon="1.55105">
        <ele>211.3</ele>
        <time>2015-10-31T16:47:38Z</time>
      </trkpt>
      <trkpt lat="44.41377" lon="1.55102">
        <ele>211.3</ele>
        <time>2015-10-31T16:47:40Z</time>
      </trkpt>
      <trkpt lat="44.41373" lon="1.55097">
        <ele>211.5</ele>
        <time>2015-10-31T16:47:42Z</time>
      </trkpt>
      <trkpt lat="44.4137" lon="1.55092">
        <ele>211.8</ele>
        <time>2015-10-31T16:47:44Z</time>
      </trkpt>
      <trkpt lat="44.41367" lon="1.55085">
        <ele>212</ele>
        <time>2015-10-31T16:48:57Z</time>
      </trkpt>
      <trkpt lat="44.41364" lon="1.55082">
        <ele>212.2</ele>
        <time>2015-10-31T16:48:59Z</time>
      </trkpt>
      <trkpt lat="44.41361" lon="1.55079">
        <ele>212.4</ele>
        <time>2015-10-31T16:49:01Z</time>
      </trkpt>
      <trkpt lat="44.41359" lon="1.55077">
        <ele>212.5</ele>
        <time>2015-10-31T16:49:02Z</time>
      </trkpt>
      <trkpt lat="44.41356" lon="1.55072">
        <ele>212.6</ele>
        <time>2015-10-31T16:49:04Z</time>
      </trkpt>
      <trkpt lat="44.41355" lon="1.55067">
        <ele>212.7</ele>
        <time>2015-10-31T16:49:06Z</time>
      </trkpt>
      <trkpt lat="44.41353" lon="1.55062">
        <ele>212.7</ele>
        <time>2015-10-31T16:49:08Z</time>
      </trkpt>
      <trkpt lat="44.4135" lon="1.55058">
        <ele>212.8</ele>
        <time>2015-10-31T16:49:10Z</time>
      </trkpt>
      <trkpt lat="44.41348" lon="1.55052">
        <ele>212.8</ele>
        <time>2015-10-31T16:49:12Z</time>
      </trkpt>
      <trkpt lat="44.41346" lon="1.55048">
        <ele>212.8</ele>
        <time>2015-10-31T16:49:14Z</time>
      </trkpt>
      <trkpt lat="44.41343" lon="1.55044">
        <ele>212.8</ele>
        <time>2015-10-31T16:49:16Z</time>
      </trkpt>
      <trkpt lat="44.4134" lon="1.5504">
        <ele>212.9</ele>
        <time>2015-10-31T16:49:18Z</time>
      </trkpt>
      <trkpt lat="44.41337" lon="1.55036">
        <ele>213.1</ele>
        <time>2015-10-31T16:49:20Z</time>
      </trkpt>
      <trkpt lat="44.41334" lon="1.55034">
        <ele>213.2</ele>
        <time>2015-10-31T16:49:21Z</time>
      </trkpt>
      <trkpt lat="44.41331" lon="1.55032">
        <ele>213.3</ele>
        <time>2015-10-31T16:49:22Z</time>
      </trkpt>
      <trkpt lat="44.41327" lon="1.5503">
        <ele>213.4</ele>
        <time>2015-10-31T16:49:24Z</time>
      </trkpt>
      <trkpt lat="44.41323" lon="1.55028">
        <ele>213.5</ele>
        <time>2015-10-31T16:49:26Z</time>
      </trkpt>
      <trkpt lat="44.41321" lon="1.55026">
        <ele>213.6</ele>
        <time>2015-10-31T16:49:28Z</time>
      </trkpt>
      <trkpt lat="44.41318" lon="1.55024">
        <ele>213.7</ele>
        <time>2015-10-31T16:49:30Z</time>
      </trkpt>
      <trkpt lat="44.41314" lon="1.55022">
        <ele>213.8</ele>
        <time>2015-10-31T16:49:32Z</time>
      </trkpt>
      <trkpt lat="44.41311" lon="1.55022">
        <ele>213.9</ele>
        <time>2015-10-31T16:49:34Z</time>
      </trkpt>
      <trkpt lat="44.41307" lon="1.55019">
        <ele>214</ele>
        <time>2015-10-31T16:49:36Z</time>
      </trkpt>
      <trkpt lat="44.41303" lon="1.55017">
        <ele>214.1</ele>
        <time>2015-10-31T16:49:38Z</time>
      </trkpt>
      <trkpt lat="44.41298" lon="1.55016">
        <ele>214.2</ele>
        <time>2015-10-31T16:49:40Z</time>
      </trkpt>
      <trkpt lat="44.41295" lon="1.55016">
        <ele>214.3</ele>
        <time>2015-10-31T16:49:41Z</time>
      </trkpt>
      <trkpt lat="44.41292" lon="1.55016">
        <ele>214.3</ele>
        <time>2015-10-31T16:49:42Z</time>
      </trkpt>
      <trkpt lat="44.41289" lon="1.55016">
        <ele>214.4</ele>
        <time>2015-10-31T16:49:43Z</time>
      </trkpt>
      <trkpt lat="44.41286" lon="1.55017">
        <ele>214.4</ele>
        <time>2015-10-31T16:49:44Z</time>
      </trkpt>
      <trkpt lat="44.41283" lon="1.55017">
        <ele>214.5</ele>
        <time>2015-10-31T16:49:45Z</time>
      </trkpt>
      <trkpt lat="44.4128" lon="1.55017">
        <ele>214.5</ele>
        <time>2015-10-31T16:49:46Z</time>
      </trkpt>
      <trkpt lat="44.41277" lon="1.55017">
        <ele>214.6</ele>
        <time>2015-10-31T16:49:47Z</time>
      </trkpt>
      <trkpt lat="44.41274" lon="1.55017">
        <ele>214.6</ele>
        <time>2015-10-31T16:49:48Z</time>
      </trkpt>
      <trkpt lat="44.41271" lon="1.55017">
        <ele>214.7</ele>
        <time>2015-10-31T16:49:49Z</time>
      </trkpt>
      <trkpt lat="44.41268" lon="1.55017">
        <ele>214.8</ele>
        <time>2015-10-31T16:49:50Z</time>
      </trkpt>
      <trkpt lat="44.41262" lon="1.55017">
        <ele>214.9</ele>
        <time>2015-10-31T16:49:52Z</time>
      </trkpt>
      <trkpt lat="44.41259" lon="1.55017">
        <ele>214.9</ele>
        <time>2015-10-31T16:49:53Z</time>
      </trkpt>
      <trkpt lat="44.41256" lon="1.55017">
        <ele>215</ele>
        <time>2015-10-31T16:49:54Z</time>
      </trkpt>
      <trkpt lat="44.41251" lon="1.55017">
        <ele>215.1</ele>
        <time>2015-10-31T16:49:56Z</time>
      </trkpt>
      <trkpt lat="44.41247" lon="1.55017">
        <ele>215.2</ele>
        <time>2015-10-31T16:49:58Z</time>
      </trkpt>
      <trkpt lat="44.41244" lon="1.55015">
        <ele>215.3</ele>
        <time>2015-10-31T16:49:59Z</time>
      </trkpt>
      <trkpt lat="44.41241" lon="1.55015">
        <ele>215.3</ele>
        <time>2015-10-31T16:50:00Z</time>
      </trkpt>
      <trkpt lat="44.41236" lon="1.55015">
        <ele>215.4</ele>
        <time>2015-10-31T16:50:02Z</time>
      </trkpt>
      <trkpt lat="44.41231" lon="1.55016">
        <ele>215.5</ele>
        <time>2015-10-31T16:50:04Z</time>
      </trkpt>
      <trkpt lat="44.41226" lon="1.55018">
        <ele>215.5</ele>
        <time>2015-10-31T16:50:06Z</time>
      </trkpt>
      <trkpt lat="44.41221" lon="1.55018">
        <ele>215.6</ele>
        <time>2015-10-31T16:50:08Z</time>
      </trkpt>
      <trkpt lat="44.41216" lon="1.55017">
        <ele>215.7</ele>
        <time>2015-10-31T16:50:10Z</time>
      </trkpt>
      <trkpt lat="44.41211" lon="1.55016">
        <ele>215.9</ele>
        <time>2015-10-31T16:50:12Z</time>
      </trkpt>
      <trkpt lat="44.41207" lon="1.55015">
        <ele>216</ele>
        <time>2015-10-31T16:50:14Z</time>
      </trkpt>
      <trkpt lat="44.41203" lon="1.55014">
        <ele>216.3</ele>
        <time>2015-10-31T16:50:16Z</time>
      </trkpt>
      <trkpt lat="44.412" lon="1.55013">
        <ele>216.5</ele>
        <time>2015-10-31T16:50:18Z</time>
      </trkpt>
      <trkpt lat="44.41196" lon="1.55012">
        <ele>216.7</ele>
        <time>2015-10-31T16:50:20Z</time>
      </trkpt>
      <trkpt lat="44.41191" lon="1.5501">
        <ele>217.1</ele>
        <time>2015-10-31T16:50:22Z</time>
      </trkpt>
      <trkpt lat="44.41187" lon="1.55009">
        <ele>217.3</ele>
        <time>2015-10-31T16:50:24Z</time>
      </trkpt>
      <trkpt lat="44.41183" lon="1.55008">
        <ele>217.6</ele>
        <time>2015-10-31T16:50:26Z</time>
      </trkpt>
      <trkpt lat="44.4118" lon="1.55009">
        <ele>217.7</ele>
        <time>2015-10-31T16:50:27Z</time>
      </trkpt>
      <trkpt lat="44.41175" lon="1.5501">
        <ele>217.9</ele>
        <time>2015-10-31T16:50:29Z</time>
      </trkpt>
      <trkpt lat="44.41172" lon="1.55009">
        <ele>218.1</ele>
        <time>2015-10-31T16:50:30Z</time>
      </trkpt>
      <trkpt lat="44.41168" lon="1.55008">
        <ele>218.4</ele>
        <time>2015-10-31T16:50:32Z</time>
      </trkpt>
      <trkpt lat="44.41164" lon="1.55007">
        <ele>218.6</ele>
        <time>2015-10-31T16:50:34Z</time>
      </trkpt>
      <trkpt lat="44.4116" lon="1.55004">
        <ele>218.9</ele>
        <time>2015-10-31T16:50:36Z</time>
      </trkpt>
      <trkpt lat="44.41158" lon="1.55003">
        <ele>219.1</ele>
        <time>2015-10-31T16:50:37Z</time>
      </trkpt>
      <trkpt lat="44.41153" lon="1.55002">
        <ele>219.4</ele>
        <time>2015-10-31T16:50:39Z</time>
      </trkpt>
      <trkpt lat="44.41148" lon="1.55002">
        <ele>219.6</ele>
        <time>2015-10-31T16:50:41Z</time>
      </trkpt>
      <trkpt lat="44.41144" lon="1.55003">
        <ele>219.8</ele>
        <time>2015-10-31T16:50:43Z</time>
      </trkpt>
      <trkpt lat="44.41139" lon="1.55004">
        <ele>220</ele>
        <time>2015-10-31T16:50:45Z</time>
      </trkpt>
      <trkpt lat="44.41134" lon="1.55004">
        <ele>220.3</ele>
        <time>2015-10-31T16:50:47Z</time>
      </trkpt>
      <trkpt lat="44.41129" lon="1.55003">
        <ele>220.6</ele>
        <time>2015-10-31T16:50:49Z</time>
      </trkpt>
      <trkpt lat="44.41126" lon="1.55003">
        <ele>220.8</ele>
        <time>2015-10-31T16:50:50Z</time>
      </trkpt>
      <trkpt lat="44.41123" lon="1.55003">
        <ele>220.9</ele>
        <time>2015-10-31T16:50:51Z</time>
      </trkpt>
      <trkpt lat="44.4112" lon="1.55003">
        <ele>221</ele>
        <time>2015-10-31T16:50:52Z</time>
      </trkpt>
      <trkpt lat="44.41117" lon="1.55003">
        <ele>221</ele>
        <time>2015-10-31T16:50:53Z</time>
      </trkpt>
      <trkpt lat="44.41112" lon="1.55003">
        <ele>221.2</ele>
        <time>2015-10-31T16:50:55Z</time>
      </trkpt>
      <trkpt lat="44.41108" lon="1.55003">
        <ele>221.3</ele>
        <time>2015-10-31T16:50:57Z</time>
      </trkpt>
      <trkpt lat="44.41104" lon="1.55006">
        <ele>221.2</ele>
        <time>2015-10-31T16:50:59Z</time>
      </trkpt>
      <trkpt lat="44.41099" lon="1.55006">
        <ele>221.3</ele>
        <time>2015-10-31T16:51:01Z</time>
      </trkpt>
      <trkpt lat="44.41094" lon="1.55007">
        <ele>221.4</ele>
        <time>2015-10-31T16:51:03Z</time>
      </trkpt>
      <trkpt lat="44.4109" lon="1.55008">
        <ele>221.4</ele>
        <time>2015-10-31T16:51:05Z</time>
      </trkpt>
      <trkpt lat="44.41086" lon="1.5501">
        <ele>221.5</ele>
        <time>2015-10-31T16:51:07Z</time>
      </trkpt>
      <trkpt lat="44.41082" lon="1.55011">
        <ele>221.5</ele>
        <time>2015-10-31T16:51:09Z</time>
      </trkpt>
      <trkpt lat="44.41077" lon="1.55012">
        <ele>221.6</ele>
        <time>2015-10-31T16:51:11Z</time>
      </trkpt>
      <trkpt lat="44.41073" lon="1.55014">
        <ele>221.6</ele>
        <time>2015-10-31T16:51:13Z</time>
      </trkpt>
      <trkpt lat="44.41068" lon="1.55015">
        <ele>221.6</ele>
        <time>2015-10-31T16:51:15Z</time>
      </trkpt>
      <trkpt lat="44.41064" lon="1.55016">
        <ele>221.7</ele>
        <time>2015-10-31T16:51:17Z</time>
      </trkpt>
      <trkpt lat="44.41058" lon="1.55017">
        <ele>221.8</ele>
        <time>2015-10-31T16:51:19Z</time>
      </trkpt>
      <trkpt lat="44.41053" lon="1.55016">
        <ele>222</ele>
        <time>2015-10-31T16:51:21Z</time>
      </trkpt>
      <trkpt lat="44.4105" lon="1.55015">
        <ele>222.1</ele>
        <time>2015-10-31T16:51:22Z</time>
      </trkpt>
      <trkpt lat="44.41045" lon="1.55016">
        <ele>222.2</ele>
        <time>2015-10-31T16:51:24Z</time>
      </trkpt>
      <trkpt lat="44.41042" lon="1.55016">
        <ele>222.2</ele>
        <time>2015-10-31T16:51:25Z</time>
      </trkpt>
      <trkpt lat="44.41039" lon="1.55016">
        <ele>222.3</ele>
        <time>2015-10-31T16:51:26Z</time>
      </trkpt>
      <trkpt lat="44.41033" lon="1.55016">
        <ele>222.5</ele>
        <time>2015-10-31T16:51:28Z</time>
      </trkpt>
      <trkpt lat="44.4103" lon="1.55016">
        <ele>222.6</ele>
        <time>2015-10-31T16:51:29Z</time>
      </trkpt>
      <trkpt lat="44.41027" lon="1.55015">
        <ele>222.7</ele>
        <time>2015-10-31T16:51:30Z</time>
      </trkpt>
      <trkpt lat="44.4102" lon="1.55014">
        <ele>223</ele>
        <time>2015-10-31T16:51:32Z</time>
      </trkpt>
      <trkpt lat="44.41017" lon="1.55014">
        <ele>223.1</ele>
        <time>2015-10-31T16:51:33Z</time>
      </trkpt>
      <trkpt lat="44.41013" lon="1.55013">
        <ele>223.3</ele>
        <time>2015-10-31T16:51:34Z</time>
      </trkpt>
      <trkpt lat="44.4101" lon="1.55012">
        <ele>223.4</ele>
        <time>2015-10-31T16:51:35Z</time>
      </trkpt>
      <trkpt lat="44.41007" lon="1.55011">
        <ele>223.6</ele>
        <time>2015-10-31T16:51:36Z</time>
      </trkpt>
      <trkpt lat="44.41" lon="1.55009">
        <ele>223.9</ele>
        <time>2015-10-31T16:51:38Z</time>
      </trkpt>
      <trkpt lat="44.40997" lon="1.55008">
        <ele>224</ele>
        <time>2015-10-31T16:51:39Z</time>
      </trkpt>
      <trkpt lat="44.40991" lon="1.55006">
        <ele>224.3</ele>
        <time>2015-10-31T16:51:41Z</time>
      </trkpt>
      <trkpt lat="44.40988" lon="1.55005">
        <ele>224.4</ele>
        <time>2015-10-31T16:51:42Z</time>
      </trkpt>
      <trkpt lat="44.40984" lon="1.55002">
        <ele>224.7</ele>
        <time>2015-10-31T16:51:44Z</time>
      </trkpt>
      <trkpt lat="44.4098" lon="1.54999">
        <ele>224.9</ele>
        <time>2015-10-31T16:51:46Z</time>
      </trkpt>
      <trkpt lat="44.40978" lon="1.54995">
        <ele>225.1</ele>
        <time>2015-10-31T16:51:49Z</time>
      </trkpt>
      <trkpt lat="44.40982" lon="1.54995">
        <ele>225</ele>
        <time>2015-10-31T16:51:51Z</time>
      </trkpt>
      <trkpt lat="44.40974" lon="1.54996">
        <ele>225.2</ele>
        <time>2015-10-31T16:53:39Z</time>
      </trkpt>
      <trkpt lat="44.40971" lon="1.54996">
        <ele>225.3</ele>
        <time>2015-10-31T16:53:41Z</time>
      </trkpt>
      <trkpt lat="44.40968" lon="1.54993">
        <ele>225.5</ele>
        <time>2015-10-31T16:53:43Z</time>
      </trkpt>
      <trkpt lat="44.40965" lon="1.54989">
        <ele>225.7</ele>
        <time>2015-10-31T16:53:45Z</time>
      </trkpt>
      <trkpt lat="44.40961" lon="1.54985">
        <ele>226</ele>
        <time>2015-10-31T16:53:47Z</time>
      </trkpt>
      <trkpt lat="44.40959" lon="1.54981">
        <ele>226.2</ele>
        <time>2015-10-31T16:53:49Z</time>
      </trkpt>
      <trkpt lat="44.40956" lon="1.54979">
        <ele>226.3</ele>
        <time>2015-10-31T16:53:51Z</time>
      </trkpt>
      <trkpt lat="44.40953" lon="1.54977">
        <ele>226.5</ele>
        <time>2015-10-31T16:53:53Z</time>
      </trkpt>
      <trkpt lat="44.4095" lon="1.54975">
        <ele>226.6</ele>
        <time>2015-10-31T16:53:55Z</time>
      </trkpt>
      <trkpt lat="44.40946" lon="1.54972">
        <ele>226.8</ele>
        <time>2015-10-31T16:53:57Z</time>
      </trkpt>
      <trkpt lat="44.40944" lon="1.54969">
        <ele>227</ele>
        <time>2015-10-31T16:53:58Z</time>
      </trkpt>
      <trkpt lat="44.4094" lon="1.54966">
        <ele>227.2</ele>
        <time>2015-10-31T16:54:00Z</time>
      </trkpt>
      <trkpt lat="44.40937" lon="1.54961">
        <ele>227.4</ele>
        <time>2015-10-31T16:54:02Z</time>
      </trkpt>
      <trkpt lat="44.40934" lon="1.54958">
        <ele>227.6</ele>
        <time>2015-10-31T16:54:04Z</time>
      </trkpt>
      <trkpt lat="44.40932" lon="1.54952">
        <ele>227.9</ele>
        <time>2015-10-31T16:54:06Z</time>
      </trkpt>
      <trkpt lat="44.40929" lon="1.54947">
        <ele>228.3</ele>
        <time>2015-10-31T16:54:08Z</time>
      </trkpt>
      <trkpt lat="44.40927" lon="1.54942">
        <ele>228.6</ele>
        <time>2015-10-31T16:54:10Z</time>
      </trkpt>
      <trkpt lat="44.40925" lon="1.54936">
        <ele>229</ele>
        <time>2015-10-31T16:54:12Z</time>
      </trkpt>
      <trkpt lat="44.40921" lon="1.54932">
        <ele>229.3</ele>
        <time>2015-10-31T16:54:14Z</time>
      </trkpt>
      <trkpt lat="44.40918" lon="1.54928">
        <ele>229.6</ele>
        <time>2015-10-31T16:54:16Z</time>
      </trkpt>
      <trkpt lat="44.40915" lon="1.54924">
        <ele>229.9</ele>
        <time>2015-10-31T16:54:18Z</time>
      </trkpt>
      <trkpt lat="44.40914" lon="1.5492">
        <ele>230.2</ele>
        <time>2015-10-31T16:54:19Z</time>
      </trkpt>
      <trkpt lat="44.40912" lon="1.54914">
        <ele>230.5</ele>
        <time>2015-10-31T16:54:21Z</time>
      </trkpt>
      <trkpt lat="44.40909" lon="1.54908">
        <ele>230.9</ele>
        <time>2015-10-31T16:54:23Z</time>
      </trkpt>
      <trkpt lat="44.40908" lon="1.54902">
        <ele>231.3</ele>
        <time>2015-10-31T16:54:25Z</time>
      </trkpt>
      <trkpt lat="44.40907" lon="1.54895">
        <ele>231.7</ele>
        <time>2015-10-31T16:54:27Z</time>
      </trkpt>
      <trkpt lat="44.40906" lon="1.54889">
        <ele>232.1</ele>
        <time>2015-10-31T16:54:29Z</time>
      </trkpt>
      <trkpt lat="44.40905" lon="1.54886">
        <ele>232.3</ele>
        <time>2015-10-31T16:54:30Z</time>
      </trkpt>
      <trkpt lat="44.40903" lon="1.5488">
        <ele>232.7</ele>
        <time>2015-10-31T16:54:32Z</time>
      </trkpt>
      <trkpt lat="44.409" lon="1.54874">
        <ele>233.1</ele>
        <time>2015-10-31T16:54:34Z</time>
      </trkpt>
      <trkpt lat="44.40896" lon="1.5487">
        <ele>233.4</ele>
        <time>2015-10-31T16:54:36Z</time>
      </trkpt>
      <trkpt lat="44.40891" lon="1.54869">
        <ele>233.6</ele>
        <time>2015-10-31T16:54:38Z</time>
      </trkpt>
      <trkpt lat="44.40889" lon="1.54868">
        <ele>233.7</ele>
        <time>2015-10-31T16:54:39Z</time>
      </trkpt>
      <trkpt lat="44.40884" lon="1.54865">
        <ele>233.9</ele>
        <time>2015-10-31T16:54:41Z</time>
      </trkpt>
      <trkpt lat="44.40881" lon="1.54863">
        <ele>234.1</ele>
        <time>2015-10-31T16:54:43Z</time>
      </trkpt>
      <trkpt lat="44.40878" lon="1.5486">
        <ele>234.3</ele>
        <time>2015-10-31T16:54:46Z</time>
      </trkpt>
      <trkpt lat="44.40875" lon="1.54858">
        <ele>234.4</ele>
        <time>2015-10-31T16:54:48Z</time>
      </trkpt>
      <trkpt lat="44.40873" lon="1.54857">
        <ele>234.5</ele>
        <time>2015-10-31T16:54:52Z</time>
      </trkpt>
      <trkpt lat="44.40876" lon="1.54858">
        <ele>234.4</ele>
        <time>2015-10-31T16:54:56Z</time>
      </trkpt>
      <trkpt lat="44.40876" lon="1.54854">
        <ele>234.5</ele>
        <time>2015-10-31T16:54:59Z</time>
      </trkpt>
      <trkpt lat="44.40873" lon="1.5486">
        <ele>234.4</ele>
        <time>2015-10-31T16:58:41Z</time>
      </trkpt>
      <trkpt lat="44.40871" lon="1.54865">
        <ele>234.3</ele>
        <time>2015-10-31T16:58:43Z</time>
      </trkpt>
      <trkpt lat="44.40869" lon="1.54871">
        <ele>234.2</ele>
        <time>2015-10-31T16:58:45Z</time>
      </trkpt>
      <trkpt lat="44.40867" lon="1.54876">
        <ele>234.1</ele>
        <time>2015-10-31T16:58:47Z</time>
      </trkpt>
      <trkpt lat="44.40865" lon="1.54881">
        <ele>233.9</ele>
        <time>2015-10-31T16:58:49Z</time>
      </trkpt>
      <trkpt lat="44.40862" lon="1.54886">
        <ele>233.7</ele>
        <time>2015-10-31T16:58:51Z</time>
      </trkpt>
      <trkpt lat="44.40859" lon="1.5489">
        <ele>233.6</ele>
        <time>2015-10-31T16:58:53Z</time>
      </trkpt>
      <trkpt lat="44.40855" lon="1.54893">
        <ele>233.5</ele>
        <time>2015-10-31T16:58:55Z</time>
      </trkpt>
      <trkpt lat="44.40853" lon="1.54895">
        <ele>233.5</ele>
        <time>2015-10-31T16:58:56Z</time>
      </trkpt>
      <trkpt lat="44.4085" lon="1.54897">
        <ele>233.4</ele>
        <time>2015-10-31T16:58:57Z</time>
      </trkpt>
      <trkpt lat="44.40847" lon="1.54899">
        <ele>233.4</ele>
        <time>2015-10-31T16:58:58Z</time>
      </trkpt>
      <trkpt lat="44.40844" lon="1.54901">
        <ele>233.4</ele>
        <time>2015-10-31T16:58:59Z</time>
      </trkpt>
      <trkpt lat="44.40841" lon="1.54902">
        <ele>233.4</ele>
        <time>2015-10-31T16:59:00Z</time>
      </trkpt>
      <trkpt lat="44.40838" lon="1.54904">
        <ele>233.4</ele>
        <time>2015-10-31T16:59:01Z</time>
      </trkpt>
      <trkpt lat="44.40835" lon="1.54906">
        <ele>233.4</ele>
        <time>2015-10-31T16:59:02Z</time>
      </trkpt>
      <trkpt lat="44.40833" lon="1.54908">
        <ele>233.4</ele>
        <time>2015-10-31T16:59:03Z</time>
      </trkpt>
      <trkpt lat="44.4083" lon="1.5491">
        <ele>233.5</ele>
        <time>2015-10-31T16:59:04Z</time>
      </trkpt>
      <trkpt lat="44.40827" lon="1.54911">
        <ele>233.5</ele>
        <time>2015-10-31T16:59:05Z</time>
      </trkpt>
      <trkpt lat="44.40823" lon="1.54912">
        <ele>233.6</ele>
        <time>2015-10-31T16:59:07Z</time>
      </trkpt>
      <trkpt lat="44.4082" lon="1.54915">
        <ele>233.6</ele>
        <time>2015-10-31T16:59:09Z</time>
      </trkpt>
      <trkpt lat="44.40817" lon="1.54918">
        <ele>233.5</ele>
        <time>2015-10-31T16:59:12Z</time>
      </trkpt>
      <trkpt lat="44.40816" lon="1.54922">
        <ele>233.4</ele>
        <time>2015-10-31T16:59:16Z</time>
      </trkpt>
      <trkpt lat="44.40814" lon="1.54925">
        <ele>233.3</ele>
        <time>2015-10-31T16:59:19Z</time>
      </trkpt>
      <trkpt lat="44.40812" lon="1.54927">
        <ele>233.3</ele>
        <time>2015-10-31T16:59:22Z</time>
      </trkpt>
      <trkpt lat="44.4081" lon="1.54931">
        <ele>233.2</ele>
        <time>2015-10-31T16:59:25Z</time>
      </trkpt>
      <trkpt lat="44.40808" lon="1.54934">
        <ele>233.2</ele>
        <time>2015-10-31T16:59:28Z</time>
      </trkpt>
      <trkpt lat="44.40806" lon="1.54937">
        <ele>233.2</ele>
        <time>2015-10-31T16:59:31Z</time>
      </trkpt>
      <trkpt lat="44.40806" lon="1.54943">
        <ele>232.9</ele>
        <time>2015-10-31T17:00:01Z</time>
      </trkpt>
      <trkpt lat="44.40804" lon="1.54947">
        <ele>232.9</ele>
        <time>2015-10-31T17:00:03Z</time>
      </trkpt>
      <trkpt lat="44.40801" lon="1.54952">
        <ele>232.8</ele>
        <time>2015-10-31T17:00:05Z</time>
      </trkpt>
      <trkpt lat="44.40797" lon="1.54958">
        <ele>232.7</ele>
        <time>2015-10-31T17:00:07Z</time>
      </trkpt>
      <trkpt lat="44.40793" lon="1.54963">
        <ele>232.7</ele>
        <time>2015-10-31T17:00:09Z</time>
      </trkpt>
      <trkpt lat="44.40791" lon="1.54966">
        <ele>232.7</ele>
        <time>2015-10-31T17:00:10Z</time>
      </trkpt>
      <trkpt lat="44.40789" lon="1.54969">
        <ele>232.7</ele>
        <time>2015-10-31T17:00:11Z</time>
      </trkpt>
      <trkpt lat="44.40786" lon="1.54972">
        <ele>232.7</ele>
        <time>2015-10-31T17:00:12Z</time>
      </trkpt>
      <trkpt lat="44.40784" lon="1.54975">
        <ele>232.6</ele>
        <time>2015-10-31T17:00:13Z</time>
      </trkpt>
      <trkpt lat="44.40781" lon="1.54978">
        <ele>232.5</ele>
        <time>2015-10-31T17:00:14Z</time>
      </trkpt>
      <trkpt lat="44.40779" lon="1.54982">
        <ele>232.5</ele>
        <time>2015-10-31T17:00:15Z</time>
      </trkpt>
      <trkpt lat="44.40776" lon="1.54985">
        <ele>232.4</ele>
        <time>2015-10-31T17:00:16Z</time>
      </trkpt>
      <trkpt lat="44.40774" lon="1.54989">
        <ele>232.3</ele>
        <time>2015-10-31T17:00:17Z</time>
      </trkpt>
      <trkpt lat="44.40772" lon="1.54992">
        <ele>232.3</ele>
        <time>2015-10-31T17:00:18Z</time>
      </trkpt>
      <trkpt lat="44.4077" lon="1.54995">
        <ele>232.2</ele>
        <time>2015-10-31T17:00:19Z</time>
      </trkpt>
      <trkpt lat="44.40767" lon="1.54998">
        <ele>232.2</ele>
        <time>2015-10-31T17:00:20Z</time>
      </trkpt>
      <trkpt lat="44.40765" lon="1.55001">
        <ele>232.1</ele>
        <time>2015-10-31T17:00:21Z</time>
      </trkpt>
      <trkpt lat="44.40762" lon="1.55004">
        <ele>232.1</ele>
        <time>2015-10-31T17:00:22Z</time>
      </trkpt>
      <trkpt lat="44.4076" lon="1.55008">
        <ele>232</ele>
        <time>2015-10-31T17:00:23Z</time>
      </trkpt>
      <trkpt lat="44.40758" lon="1.55011">
        <ele>231.9</ele>
        <time>2015-10-31T17:00:24Z</time>
      </trkpt>
      <trkpt lat="44.40756" lon="1.55015">
        <ele>231.8</ele>
        <time>2015-10-31T17:00:25Z</time>
      </trkpt>
      <trkpt lat="44.40753" lon="1.55019">
        <ele>231.7</ele>
        <time>2015-10-31T17:00:26Z</time>
      </trkpt>
      <trkpt lat="44.40751" lon="1.55023">
        <ele>231.7</ele>
        <time>2015-10-31T17:00:27Z</time>
      </trkpt>
      <trkpt lat="44.40748" lon="1.55027">
        <ele>231.6</ele>
        <time>2015-10-31T17:00:28Z</time>
      </trkpt>
      <trkpt lat="44.40746" lon="1.5503">
        <ele>231.5</ele>
        <time>2015-10-31T17:00:29Z</time>
      </trkpt>
      <trkpt lat="44.40744" lon="1.55034">
        <ele>231.4</ele>
        <time>2015-10-31T17:00:30Z</time>
      </trkpt>
      <trkpt lat="44.40742" lon="1.55038">
        <ele>231.3</ele>
        <time>2015-10-31T17:00:31Z</time>
      </trkpt>
      <trkpt lat="44.4074" lon="1.55043">
        <ele>231.2</ele>
        <time>2015-10-31T17:00:32Z</time>
      </trkpt>
      <trkpt lat="44.40738" lon="1.55047">
        <ele>231.3</ele>
        <time>2015-10-31T17:00:33Z</time>
      </trkpt>
      <trkpt lat="44.40738" lon="1.55051">
        <ele>231.4</ele>
        <time>2015-10-31T17:00:34Z</time>
      </trkpt>
      <trkpt lat="44.40737" lon="1.55056">
        <ele>231.4</ele>
        <time>2015-10-31T17:00:35Z</time>
      </trkpt>
      <trkpt lat="44.40736" lon="1.55059">
        <ele>231.5</ele>
        <time>2015-10-31T17:00:36Z</time>
      </trkpt>
      <trkpt lat="44.40737" lon="1.55066">
        <ele>231.5</ele>
        <time>2015-10-31T17:00:38Z</time>
      </trkpt>
      <trkpt lat="44.40737" lon="1.55069">
        <ele>231.5</ele>
        <time>2015-10-31T17:00:39Z</time>
      </trkpt>
      <trkpt lat="44.40737" lon="1.55074">
        <ele>231.5</ele>
        <time>2015-10-31T17:00:40Z</time>
      </trkpt>
      <trkpt lat="44.40737" lon="1.55078">
        <ele>231.6</ele>
        <time>2015-10-31T17:00:41Z</time>
      </trkpt>
      <trkpt lat="44.40737" lon="1.55082">
        <ele>231.6</ele>
        <time>2015-10-31T17:00:42Z</time>
      </trkpt>
      <trkpt lat="44.40737" lon="1.55087">
        <ele>231.7</ele>
        <time>2015-10-31T17:00:43Z</time>
      </trkpt>
      <trkpt lat="44.40737" lon="1.55091">
        <ele>231.7</ele>
        <time>2015-10-31T17:00:44Z</time>
      </trkpt>
      <trkpt lat="44.40737" lon="1.55096">
        <ele>231.7</ele>
        <time>2015-10-31T17:00:45Z</time>
      </trkpt>
      <trkpt lat="44.40737" lon="1.55101">
        <ele>231.8</ele>
        <time>2015-10-31T17:00:46Z</time>
      </trkpt>
      <trkpt lat="44.40737" lon="1.55106">
        <ele>231.8</ele>
        <time>2015-10-31T17:00:47Z</time>
      </trkpt>
      <trkpt lat="44.40737" lon="1.55111">
        <ele>231.8</ele>
        <time>2015-10-31T17:00:48Z</time>
      </trkpt>
      <trkpt lat="44.40737" lon="1.55115">
        <ele>231.8</ele>
        <time>2015-10-31T17:00:49Z</time>
      </trkpt>
      <trkpt lat="44.40737" lon="1.5512">
        <ele>231.9</ele>
        <time>2015-10-31T17:00:50Z</time>
      </trkpt>
      <trkpt lat="44.40736" lon="1.55125">
        <ele>232</ele>
        <time>2015-10-31T17:00:51Z</time>
      </trkpt>
      <trkpt lat="44.40736" lon="1.55129">
        <ele>232.1</ele>
        <time>2015-10-31T17:00:52Z</time>
      </trkpt>
      <trkpt lat="44.40735" lon="1.55134">
        <ele>232.2</ele>
        <time>2015-10-31T17:00:53Z</time>
      </trkpt>
      <trkpt lat="44.40735" lon="1.55138">
        <ele>232.3</ele>
        <time>2015-10-31T17:00:54Z</time>
      </trkpt>
      <trkpt lat="44.40734" lon="1.55143">
        <ele>232.5</ele>
        <time>2015-10-31T17:00:55Z</time>
      </trkpt>
      <trkpt lat="44.40734" lon="1.55147">
        <ele>232.6</ele>
        <time>2015-10-31T17:00:56Z</time>
      </trkpt>
      <trkpt lat="44.40733" lon="1.55151">
        <ele>232.7</ele>
        <time>2015-10-31T17:00:57Z</time>
      </trkpt>
      <trkpt lat="44.40733" lon="1.55155">
        <ele>232.8</ele>
        <time>2015-10-31T17:00:58Z</time>
      </trkpt>
      <trkpt lat="44.40732" lon="1.55161">
        <ele>233</ele>
        <time>2015-10-31T17:01:00Z</time>
      </trkpt>
      <trkpt lat="44.40732" lon="1.55168">
        <ele>233.1</ele>
        <time>2015-10-31T17:01:02Z</time>
      </trkpt>
      <trkpt lat="44.40733" lon="1.55175">
        <ele>233.2</ele>
        <time>2015-10-31T17:01:04Z</time>
      </trkpt>
      <trkpt lat="44.40733" lon="1.55181">
        <ele>233.3</ele>
        <time>2015-10-31T17:01:06Z</time>
      </trkpt>
      <trkpt lat="44.40734" lon="1.55187">
        <ele>233.4</ele>
        <time>2015-10-31T17:01:08Z</time>
      </trkpt>
      <trkpt lat="44.40734" lon="1.55191">
        <ele>233.4</ele>
        <time>2015-10-31T17:01:10Z</time>
      </trkpt>
      <trkpt lat="44.40737" lon="1.55194">
        <ele>233.4</ele>
        <time>2015-10-31T17:01:12Z</time>
      </trkpt>
      <trkpt lat="44.40739" lon="1.55196">
        <ele>233.3</ele>
        <time>2015-10-31T17:01:14Z</time>
      </trkpt>
      <trkpt lat="44.40743" lon="1.55195">
        <ele>233.1</ele>
        <time>2015-10-31T17:01:16Z</time>
      </trkpt>
      <trkpt lat="44.40746" lon="1.55194">
        <ele>232.9</ele>
        <time>2015-10-31T17:01:18Z</time>
      </trkpt>
      <trkpt lat="44.4075" lon="1.55191">
        <ele>232.6</ele>
        <time>2015-10-31T17:01:20Z</time>
      </trkpt>
      <trkpt lat="44.40753" lon="1.55188">
        <ele>232.4</ele>
        <time>2015-10-31T17:01:22Z</time>
      </trkpt>
      <trkpt lat="44.40756" lon="1.55185">
        <ele>232.1</ele>
        <time>2015-10-31T17:01:24Z</time>
      </trkpt>
      <trkpt lat="44.40757" lon="1.5518">
        <ele>231.9</ele>
        <time>2015-10-31T17:01:26Z</time>
      </trkpt>
      <trkpt lat="44.40761" lon="1.55177">
        <ele>231.6</ele>
        <time>2015-10-31T17:01:28Z</time>
      </trkpt>
      <trkpt lat="44.40765" lon="1.55175">
        <ele>231.3</ele>
        <time>2015-10-31T17:01:30Z</time>
      </trkpt>
      <trkpt lat="44.40768" lon="1.55173">
        <ele>231.1</ele>
        <time>2015-10-31T17:01:32Z</time>
      </trkpt>
    </trkseg>
  </trk>
</gpx>